<?xml version='1.0' encoding='UTF-8'?><gpx version="1.1" creator="JPX - https://github.com/jenetics/jpx" xmlns="http://www.topografix.com/GPX/1/1"><trk><trkseg><trkpt lat="43.50477802269888" lon="10.620166215351908"><ele>309.0</ele><time>2026-04-19T07:08:25Z</time></trkpt><trkpt lat="43.504835486726954" lon="10.62012088091822"><ele>309.0</ele><time>2026-04-19T07:08:27Z</time></trkpt><trkpt lat="43.504888271282006" lon="10.620073370031063"><ele>309.0</ele><time>2026-04-19T07:08:29Z</time></trkpt><trkpt lat="43.50494234425925" lon="10.619971450627594"><ele>309.0</ele><time>2026-04-19T07:08:32Z</time></trkpt><trkpt lat="43.50498608267168" lon="10.619887796212998"><ele>309.0</ele><time>2026-04-19T07:08:35Z</time></trkpt><trkpt lat="43.50503898080419" lon="10.619764748492262"><ele>309.0</ele><time>2026-04-19T07:08:38Z</time></trkpt><trkpt lat="43.50507478672888" lon="10.619639279890691"><ele>309.0</ele><time>2026-04-19T07:08:40Z</time></trkpt><trkpt lat="43.50511197226749" lon="10.619537177281781"><ele>309.0</ele><time>2026-04-19T07:08:42Z</time></trkpt><trkpt lat="43.50515415137025" lon="10.61942061423227"><ele>309.0</ele><time>2026-04-19T07:08:51Z</time></trkpt><trkpt lat="43.505236610515006" lon="10.61932757505858"><ele>309.0</ele><time>2026-04-19T07:08:53Z</time></trkpt><trkpt lat="43.50530106604139" lon="10.619332873795349"><ele>309.0</ele><time>2026-04-19T07:08:54Z</time></trkpt><trkpt lat="43.50536722209005" lon="10.61939065532821"><ele>309.0</ele><time>2026-04-19T07:08:55Z</time></trkpt><trkpt lat="43.50544345738709" lon="10.619398721751123"><ele>307.5</ele><time>2026-04-19T07:08:56Z</time></trkpt><trkpt lat="43.50551732015446" lon="10.619420589188216"><ele>306.0</ele><time>2026-04-19T07:08:57Z</time></trkpt><trkpt lat="43.50558890600442" lon="10.61944505788917"><ele>304.5</ele><time>2026-04-19T07:08:58Z</time></trkpt><trkpt lat="43.50566054052226" lon="10.619488279480041"><ele>303.0</ele><time>2026-04-19T07:08:59Z</time></trkpt><trkpt lat="43.50574920672173" lon="10.61948391903564"><ele>301.5</ele><time>2026-04-19T07:09:00Z</time></trkpt><trkpt lat="43.505826240631826" lon="10.619481315482425"><ele>300.0</ele><time>2026-04-19T07:09:01Z</time></trkpt><trkpt lat="43.50589529943565" lon="10.619465157305841"><ele>300.0</ele><time>2026-04-19T07:09:02Z</time></trkpt><trkpt lat="43.50596957196913" lon="10.619426176543522"><ele>300.0</ele><time>2026-04-19T07:09:03Z</time></trkpt><trkpt lat="43.50604723752235" lon="10.61940699303297"><ele>300.0</ele><time>2026-04-19T07:09:04Z</time></trkpt><trkpt lat="43.506125972104485" lon="10.619381703736682"><ele>300.0</ele><time>2026-04-19T07:09:05Z</time></trkpt><trkpt lat="43.50620868531095" lon="10.619356522413629"><ele>300.0</ele><time>2026-04-19T07:09:06Z</time></trkpt><trkpt lat="43.50627939249697" lon="10.619340208769566"><ele>300.0</ele><time>2026-04-19T07:09:07Z</time></trkpt><trkpt lat="43.50635501033692" lon="10.619337284801144"><ele>298.1666666666667</ele><time>2026-04-19T07:09:08Z</time></trkpt><trkpt lat="43.5064309834757" lon="10.619347338888918"><ele>296.3333333333333</ele><time>2026-04-19T07:09:09Z</time></trkpt><trkpt lat="43.50650766435998" lon="10.61935711552151"><ele>294.5</ele><time>2026-04-19T07:09:10Z</time></trkpt><trkpt lat="43.506585205475005" lon="10.619331976456095"><ele>292.66666666666663</ele><time>2026-04-19T07:09:11Z</time></trkpt><trkpt lat="43.5066591806335" lon="10.61931330381085"><ele>290.8333333333333</ele><time>2026-04-19T07:09:12Z</time></trkpt><trkpt lat="43.50673043955548" lon="10.619276921450652"><ele>289.0</ele><time>2026-04-19T07:09:13Z</time></trkpt><trkpt lat="43.50680586324359" lon="10.619266909943107"><ele>289.0</ele><time>2026-04-19T07:09:14Z</time></trkpt><trkpt lat="43.50686764705132" lon="10.619237925169289"><ele>289.0</ele><time>2026-04-19T07:09:15Z</time></trkpt><trkpt lat="43.506926643586056" lon="10.61919164683867"><ele>289.0</ele><time>2026-04-19T07:09:16Z</time></trkpt><trkpt lat="43.5069763859312" lon="10.619094766103576"><ele>289.0</ele><time>2026-04-19T07:09:17Z</time></trkpt><trkpt lat="43.507042047647424" lon="10.619020315986017"><ele>289.0</ele><time>2026-04-19T07:09:18Z</time></trkpt><trkpt lat="43.50710632819907" lon="10.618947984974524"><ele>289.0</ele><time>2026-04-19T07:09:19Z</time></trkpt><trkpt lat="43.50717336835022" lon="10.618887140712577"><ele>287.0</ele><time>2026-04-19T07:09:20Z</time></trkpt><trkpt lat="43.50725298629852" lon="10.61883055981742"><ele>285.0</ele><time>2026-04-19T07:09:21Z</time></trkpt><trkpt lat="43.5073311453502" lon="10.618800890167186"><ele>283.0</ele><time>2026-04-19T07:09:22Z</time></trkpt><trkpt lat="43.50741535289383" lon="10.618778762959398"><ele>281.0</ele><time>2026-04-19T07:09:23Z</time></trkpt><trkpt lat="43.507500184466465" lon="10.618750273406851"><ele>279.0</ele><time>2026-04-19T07:09:24Z</time></trkpt><trkpt lat="43.50759141250931" lon="10.61866111267592"><ele>279.0</ele><time>2026-04-19T07:09:25Z</time></trkpt><trkpt lat="43.50768424113821" lon="10.618574388524747"><ele>279.0</ele><time>2026-04-19T07:09:26Z</time></trkpt><trkpt lat="43.50775056974534" lon="10.618488598523893"><ele>279.0</ele><time>2026-04-19T07:09:26.999Z</time></trkpt><trkpt lat="43.5078079065055" lon="10.618443252660601"><ele>279.0</ele><time>2026-04-19T07:09:27.999Z</time></trkpt><trkpt lat="43.507851264292775" lon="10.618371512570082"><ele>279.0</ele><time>2026-04-19T07:09:28.999Z</time></trkpt><trkpt lat="43.507901397139136" lon="10.618283198522716"><ele>279.0</ele><time>2026-04-19T07:09:29.999Z</time></trkpt><trkpt lat="43.507955028603455" lon="10.618178643512485"><ele>279.0</ele><time>2026-04-19T07:09:30.999Z</time></trkpt><trkpt lat="43.5080108031439" lon="10.61804117685631"><ele>279.0</ele><time>2026-04-19T07:09:31.999Z</time></trkpt><trkpt lat="43.50805294658974" lon="10.61792287139798"><ele>279.0</ele><time>2026-04-19T07:09:32.999Z</time></trkpt><trkpt lat="43.5080915708102" lon="10.617822037510818"><ele>279.0</ele><time>2026-04-19T07:09:33.999Z</time></trkpt><trkpt lat="43.50813184671818" lon="10.617716891651584"><ele>279.0</ele><time>2026-04-19T07:09:35Z</time></trkpt><trkpt lat="43.50817505944157" lon="10.617598240695047"><ele>281.0</ele><time>2026-04-19T07:09:36Z</time></trkpt><trkpt lat="43.50820371335803" lon="10.617456913350159"><ele>283.0</ele><time>2026-04-19T07:09:37Z</time></trkpt><trkpt lat="43.50824367828691" lon="10.617339378330893"><ele>285.0</ele><time>2026-04-19T07:09:38Z</time></trkpt><trkpt lat="43.508304534197435" lon="10.617241917484131"><ele>287.0</ele><time>2026-04-19T07:09:39Z</time></trkpt><trkpt lat="43.508361244986375" lon="10.617132161020255"><ele>289.0</ele><time>2026-04-19T07:09:40Z</time></trkpt><trkpt lat="43.50843262096416" lon="10.617017085863619"><ele>289.5</ele><time>2026-04-19T07:09:41Z</time></trkpt><trkpt lat="43.5085052917341" lon="10.616909236846176"><ele>290.0</ele><time>2026-04-19T07:09:42Z</time></trkpt><trkpt lat="43.508554844925946" lon="10.616814424687844"><ele>290.5</ele><time>2026-04-19T07:09:43Z</time></trkpt><trkpt lat="43.5086083952667" lon="10.616751980262933"><ele>291.0</ele><time>2026-04-19T07:09:44Z</time></trkpt><trkpt lat="43.50866634596074" lon="10.61669123608831"><ele>291.5</ele><time>2026-04-19T07:09:45Z</time></trkpt><trkpt lat="43.508722053204835" lon="10.616622754202613"><ele>292.0</ele><time>2026-04-19T07:09:46Z</time></trkpt><trkpt lat="43.50879125517333" lon="10.616575980429994"><ele>292.0</ele><time>2026-04-19T07:09:47Z</time></trkpt><trkpt lat="43.50887497770466" lon="10.616464998985121"><ele>292.0</ele><time>2026-04-19T07:09:49Z</time></trkpt><trkpt lat="43.5089323180724" lon="10.616387541877998"><ele>292.0</ele><time>2026-04-19T07:09:51Z</time></trkpt><trkpt lat="43.509002935184526" lon="10.61638071237012"><ele>292.0</ele><time>2026-04-19T07:09:54Z</time></trkpt><trkpt lat="43.50906888545488" lon="10.616336255763018"><ele>292.0</ele><time>2026-04-19T07:09:56Z</time></trkpt><trkpt lat="43.509060572709814" lon="10.61612098578512"><ele>292.5</ele><time>2026-04-19T07:09:57Z</time></trkpt><trkpt lat="43.508961163291886" lon="10.615946857907005"><ele>293.0</ele><time>2026-04-19T07:09:59Z</time></trkpt><trkpt lat="43.50891499132044" lon="10.615817091085269"><ele>293.5</ele><time>2026-04-19T07:10:01Z</time></trkpt><trkpt lat="43.508904178909496" lon="10.61565494273707"><ele>294.0</ele><time>2026-04-19T07:10:03Z</time></trkpt><trkpt lat="43.50889096477343" lon="10.615556119708563"><ele>294.0</ele><time>2026-04-19T07:10:04Z</time></trkpt><trkpt lat="43.50886624991317" lon="10.615450415023279"><ele>294.0</ele><time>2026-04-19T07:10:05Z</time></trkpt><trkpt lat="43.508827224404634" lon="10.615336202543919"><ele>294.0</ele><time>2026-04-19T07:10:06Z</time></trkpt><trkpt lat="43.508787083818945" lon="10.615234658720983"><ele>294.0</ele><time>2026-04-19T07:10:07Z</time></trkpt><trkpt lat="43.50873498792347" lon="10.615159840137581"><ele>294.0</ele><time>2026-04-19T07:10:08Z</time></trkpt><trkpt lat="43.508705324728496" lon="10.615078208202805"><ele>294.0</ele><time>2026-04-19T07:10:09Z</time></trkpt><trkpt lat="43.508558219668494" lon="10.615065023486682"><ele>296.4</ele><time>2026-04-19T07:10:11Z</time></trkpt><trkpt lat="43.508501685212636" lon="10.615171194647427"><ele>298.79999999999995</ele><time>2026-04-19T07:10:12Z</time></trkpt><trkpt lat="43.50845464679881" lon="10.615283123102282"><ele>301.20000000000005</ele><time>2026-04-19T07:10:13Z</time></trkpt><trkpt lat="43.50840762552514" lon="10.615398962798169"><ele>303.6</ele><time>2026-04-19T07:10:14Z</time></trkpt><trkpt lat="43.508345776120876" lon="10.615472679338726"><ele>306.0</ele><time>2026-04-19T07:10:15Z</time></trkpt><trkpt lat="43.50825949841016" lon="10.615533405077517"><ele>306.0</ele><time>2026-04-19T07:10:16Z</time></trkpt><trkpt lat="43.50815807467138" lon="10.615567310638417"><ele>306.0</ele><time>2026-04-19T07:10:17Z</time></trkpt><trkpt lat="43.50806763163192" lon="10.615623766098636"><ele>306.0</ele><time>2026-04-19T07:10:18Z</time></trkpt><trkpt lat="43.507968252300394" lon="10.615642267895236"><ele>306.0</ele><time>2026-04-19T07:10:19Z</time></trkpt><trkpt lat="43.507854541392696" lon="10.615667804246604"><ele>306.0</ele><time>2026-04-19T07:10:20Z</time></trkpt><trkpt lat="43.5077425886265" lon="10.61572376474535"><ele>308.0</ele><time>2026-04-19T07:10:21Z</time></trkpt><trkpt lat="43.50763785037538" lon="10.615800386862382"><ele>310.0</ele><time>2026-04-19T07:10:22Z</time></trkpt><trkpt lat="43.50754036292368" lon="10.615872844770813"><ele>312.0</ele><time>2026-04-19T07:10:23Z</time></trkpt><trkpt lat="43.50743666389429" lon="10.61591273065506"><ele>314.0</ele><time>2026-04-19T07:10:24Z</time></trkpt><trkpt lat="43.507340113449914" lon="10.615955048437478"><ele>316.0</ele><time>2026-04-19T07:10:25Z</time></trkpt><trkpt lat="43.507236153845014" lon="10.615998891962866"><ele>316.0</ele><time>2026-04-19T07:10:26Z</time></trkpt><trkpt lat="43.50712398824727" lon="10.616011096318065"><ele>316.0</ele><time>2026-04-19T07:10:27Z</time></trkpt><trkpt lat="43.50701345095461" lon="10.616033126705819"><ele>316.0</ele><time>2026-04-19T07:10:28Z</time></trkpt><trkpt lat="43.50691489684615" lon="10.616042215725304"><ele>316.0</ele><time>2026-04-19T07:10:29Z</time></trkpt><trkpt lat="43.50682621416499" lon="10.616050730202113"><ele>316.0</ele><time>2026-04-19T07:10:30Z</time></trkpt><trkpt lat="43.50674455685697" lon="10.616039184011392"><ele>317.16666666666663</ele><time>2026-04-19T07:10:31Z</time></trkpt><trkpt lat="43.506680665260944" lon="10.615994097655358"><ele>318.3333333333333</ele><time>2026-04-19T07:10:32Z</time></trkpt><trkpt lat="43.50663571405554" lon="10.61587818554806"><ele>319.5</ele><time>2026-04-19T07:10:33Z</time></trkpt><trkpt lat="43.50657432459899" lon="10.61579303407845"><ele>320.6666666666667</ele><time>2026-04-19T07:10:34Z</time></trkpt><trkpt lat="43.50651378302336" lon="10.61570234756125"><ele>321.83333333333337</ele><time>2026-04-19T07:10:35Z</time></trkpt><trkpt lat="43.50645400517649" lon="10.615605476609993"><ele>323.0</ele><time>2026-04-19T07:10:36Z</time></trkpt><trkpt lat="43.5063934163795" lon="10.615487849359367"><ele>323.0</ele><time>2026-04-19T07:10:37Z</time></trkpt><trkpt lat="43.50633289659383" lon="10.615363245979863"><ele>323.0</ele><time>2026-04-19T07:10:38Z</time></trkpt><trkpt lat="43.50627873994824" lon="10.615248187384774"><ele>323.0</ele><time>2026-04-19T07:10:39Z</time></trkpt><trkpt lat="43.50622711794591" lon="10.61514035282463"><ele>323.0</ele><time>2026-04-19T07:10:40Z</time></trkpt><trkpt lat="43.5061778155781" lon="10.615048498274906"><ele>323.0</ele><time>2026-04-19T07:10:41Z</time></trkpt><trkpt lat="43.506132119262844" lon="10.614965827248449"><ele>324.33333333333337</ele><time>2026-04-19T07:10:42Z</time></trkpt><trkpt lat="43.50608465769788" lon="10.614873813947415"><ele>325.6666666666667</ele><time>2026-04-19T07:10:43Z</time></trkpt><trkpt lat="43.50603982599585" lon="10.614759002545645"><ele>327.0</ele><time>2026-04-19T07:10:44Z</time></trkpt><trkpt lat="43.50600333758859" lon="10.614635798700554"><ele>328.3333333333333</ele><time>2026-04-19T07:10:45Z</time></trkpt><trkpt lat="43.5059754800566" lon="10.614518641593516"><ele>329.66666666666663</ele><time>2026-04-19T07:10:46Z</time></trkpt><trkpt lat="43.505952931894555" lon="10.61440684569167"><ele>331.0</ele><time>2026-04-19T07:10:47Z</time></trkpt><trkpt lat="43.50593232551497" lon="10.61429970224986"><ele>331.0</ele><time>2026-04-19T07:10:48Z</time></trkpt><trkpt lat="43.50591309159266" lon="10.614188293786393"><ele>331.0</ele><time>2026-04-19T07:10:49Z</time></trkpt><trkpt lat="43.50589093561971" lon="10.614058065710976"><ele>331.0</ele><time>2026-04-19T07:10:50Z</time></trkpt><trkpt lat="43.50585633247541" lon="10.613943778072645"><ele>331.0</ele><time>2026-04-19T07:10:51Z</time></trkpt><trkpt lat="43.505844328480435" lon="10.613833160776974"><ele>331.0</ele><time>2026-04-19T07:10:52Z</time></trkpt><trkpt lat="43.5058242622129" lon="10.613740782579926"><ele>331.0</ele><time>2026-04-19T07:10:53Z</time></trkpt><trkpt lat="43.50579161932496" lon="10.61358070983453"><ele>330.0</ele><time>2026-04-19T07:10:55Z</time></trkpt><trkpt lat="43.50577362301802" lon="10.613482250903031"><ele>329.0</ele><time>2026-04-19T07:10:56Z</time></trkpt><trkpt lat="43.505761816757314" lon="10.613387729445572"><ele>328.0</ele><time>2026-04-19T07:10:57Z</time></trkpt><trkpt lat="43.50573769897021" lon="10.613299102361717"><ele>327.0</ele><time>2026-04-19T07:10:58Z</time></trkpt><trkpt lat="43.50569122191864" lon="10.61314279559373"><ele>326.0</ele><time>2026-04-19T07:11:00Z</time></trkpt><trkpt lat="43.50563803629538" lon="10.613042514444212"><ele>325.0</ele><time>2026-04-19T07:11:01Z</time></trkpt><trkpt lat="43.50559271926379" lon="10.612951033493932"><ele>325.0</ele><time>2026-04-19T07:11:02Z</time></trkpt><trkpt lat="43.505517501984684" lon="10.612860363367375"><ele>325.0</ele><time>2026-04-19T07:11:03Z</time></trkpt><trkpt lat="43.50544097859811" lon="10.61274436317414"><ele>325.0</ele><time>2026-04-19T07:11:04Z</time></trkpt><trkpt lat="43.50537035077684" lon="10.612643561717777"><ele>325.0</ele><time>2026-04-19T07:11:05Z</time></trkpt><trkpt lat="43.50531320024965" lon="10.612556921871901"><ele>325.0</ele><time>2026-04-19T07:11:06Z</time></trkpt><trkpt lat="43.50526710427253" lon="10.61246911378355"><ele>324.5</ele><time>2026-04-19T07:11:07Z</time></trkpt><trkpt lat="43.505217886573114" lon="10.612381828374453"><ele>324.0</ele><time>2026-04-19T07:11:08Z</time></trkpt><trkpt lat="43.50515353697831" lon="10.612326498179607"><ele>323.5</ele><time>2026-04-19T07:11:09Z</time></trkpt><trkpt lat="43.50506822645852" lon="10.612305508078459"><ele>323.0</ele><time>2026-04-19T07:11:10Z</time></trkpt><trkpt lat="43.50498316971009" lon="10.612292994654412"><ele>322.5</ele><time>2026-04-19T07:11:11Z</time></trkpt><trkpt lat="43.50488770429394" lon="10.612277150755528"><ele>322.0</ele><time>2026-04-19T07:11:12Z</time></trkpt><trkpt lat="43.50479114955243" lon="10.612285386094214"><ele>322.0</ele><time>2026-04-19T07:11:13Z</time></trkpt><trkpt lat="43.50470147621336" lon="10.612296048971334"><ele>322.0</ele><time>2026-04-19T07:11:14Z</time></trkpt><trkpt lat="43.50462726484812" lon="10.612296451532776"><ele>322.0</ele><time>2026-04-19T07:11:15Z</time></trkpt><trkpt lat="43.504496597511995" lon="10.612231548611726"><ele>322.0</ele><time>2026-04-19T07:11:17Z</time></trkpt><trkpt lat="43.50440388800181" lon="10.612171962091988"><ele>322.0</ele><time>2026-04-19T07:11:18Z</time></trkpt><trkpt lat="43.50430806849834" lon="10.612093213285888"><ele>321.40000000000003</ele><time>2026-04-19T07:11:19Z</time></trkpt><trkpt lat="43.50421539481997" lon="10.611988314574937"><ele>320.8</ele><time>2026-04-19T07:11:20Z</time></trkpt><trkpt lat="43.50412600798411" lon="10.61187763069297"><ele>320.2</ele><time>2026-04-19T07:11:21Z</time></trkpt><trkpt lat="43.50404825313097" lon="10.611786705026805"><ele>319.6</ele><time>2026-04-19T07:11:22Z</time></trkpt><trkpt lat="43.50398038402255" lon="10.61170918154014"><ele>319.0</ele><time>2026-04-19T07:11:23Z</time></trkpt><trkpt lat="43.503898905384794" lon="10.611650075325787"><ele>319.0</ele><time>2026-04-19T07:11:24Z</time></trkpt><trkpt lat="43.50382379263566" lon="10.611561428907452"><ele>319.0</ele><time>2026-04-19T07:11:25Z</time></trkpt><trkpt lat="43.50371865776081" lon="10.611491596708664"><ele>319.0</ele><time>2026-04-19T07:11:26Z</time></trkpt><trkpt lat="43.503607931703755" lon="10.611440261839949"><ele>319.0</ele><time>2026-04-19T07:11:27Z</time></trkpt><trkpt lat="43.50350788331114" lon="10.611423404341648"><ele>319.0</ele><time>2026-04-19T07:11:28Z</time></trkpt><trkpt lat="43.50341131177445" lon="10.611391215096091"><ele>320.3333333333333</ele><time>2026-04-19T07:11:29Z</time></trkpt><trkpt lat="43.50331580532348" lon="10.611380276875355"><ele>321.66666666666663</ele><time>2026-04-19T07:11:30Z</time></trkpt><trkpt lat="43.503240268323225" lon="10.611388009316755"><ele>323.0</ele><time>2026-04-19T07:11:31Z</time></trkpt><trkpt lat="43.503166833262746" lon="10.611412724813755"><ele>324.3333333333333</ele><time>2026-04-19T07:11:32Z</time></trkpt><trkpt lat="43.5030955453987" lon="10.611465998461798"><ele>325.6666666666667</ele><time>2026-04-19T07:11:32.999Z</time></trkpt><trkpt lat="43.50301767914243" lon="10.611545211379058"><ele>327.0</ele><time>2026-04-19T07:11:33.999Z</time></trkpt><trkpt lat="43.50293028761674" lon="10.611597559471686"><ele>327.0</ele><time>2026-04-19T07:11:34.999Z</time></trkpt><trkpt lat="43.50283280883248" lon="10.611611890362925"><ele>327.0</ele><time>2026-04-19T07:11:36.999Z</time></trkpt><trkpt lat="43.502804141764535" lon="10.611458261524934"><ele>327.0</ele><time>2026-04-19T07:11:38.999Z</time></trkpt><trkpt lat="43.502860723807096" lon="10.61131255964066"><ele>327.0</ele><time>2026-04-19T07:11:40.999Z</time></trkpt><trkpt lat="43.50292081175767" lon="10.61124150241683"><ele>327.0</ele><time>2026-04-19T07:11:41.999Z</time></trkpt><trkpt lat="43.50297851381569" lon="10.611134861043986"><ele>326.3333333333333</ele><time>2026-04-19T07:11:42.999Z</time></trkpt><trkpt lat="43.50304746650721" lon="10.611061857327515"><ele>325.6666666666667</ele><time>2026-04-19T07:11:43.999Z</time></trkpt><trkpt lat="43.50310485912358" lon="10.6109806793141"><ele>325.0</ele><time>2026-04-19T07:11:44.999Z</time></trkpt><trkpt lat="43.50311921535887" lon="10.610870749100545"><ele>324.33333333333337</ele><time>2026-04-19T07:11:45.999Z</time></trkpt><trkpt lat="43.503148960983246" lon="10.61077573223106"><ele>323.6666666666667</ele><time>2026-04-19T07:11:46.999Z</time></trkpt><trkpt lat="43.50315026670385" lon="10.610667453915989"><ele>323.0</ele><time>2026-04-19T07:11:47.999Z</time></trkpt><trkpt lat="43.503091688574784" lon="10.610567331041837"><ele>323.0</ele><time>2026-04-19T07:11:48.999Z</time></trkpt><trkpt lat="43.503044445403155" lon="10.610452290712619"><ele>323.0</ele><time>2026-04-19T07:11:49.999Z</time></trkpt><trkpt lat="43.50299106542661" lon="10.610338752351675"><ele>323.0</ele><time>2026-04-19T07:11:50.999Z</time></trkpt><trkpt lat="43.5029541352651" lon="10.610248482184533"><ele>323.0</ele><time>2026-04-19T07:11:51.999Z</time></trkpt><trkpt lat="43.50293852948106" lon="10.610155636885285"><ele>323.0</ele><time>2026-04-19T07:11:52.999Z</time></trkpt><trkpt lat="43.502970867310104" lon="10.61006310544397"><ele>323.0</ele><time>2026-04-19T07:11:53.999Z</time></trkpt><trkpt lat="43.50298084472459" lon="10.609928205926673"><ele>322.4</ele><time>2026-04-19T07:11:54.999Z</time></trkpt><trkpt lat="43.50298921298565" lon="10.609796786102857"><ele>321.79999999999995</ele><time>2026-04-19T07:11:55.999Z</time></trkpt><trkpt lat="43.50297562793009" lon="10.609677824147868"><ele>321.2</ele><time>2026-04-19T07:11:56.999Z</time></trkpt><trkpt lat="43.50292406510487" lon="10.609575279468576"><ele>320.6</ele><time>2026-04-19T07:11:57.999Z</time></trkpt><trkpt lat="43.50283286381045" lon="10.60950249854152"><ele>320.0</ele><time>2026-04-19T07:11:58.999Z</time></trkpt><trkpt lat="43.502754416314176" lon="10.609423245182011"><ele>322.6</ele><time>2026-04-19T07:11:59.999Z</time></trkpt><trkpt lat="43.50266504972483" lon="10.609373880218387"><ele>325.2</ele><time>2026-04-19T07:12:00.999Z</time></trkpt><trkpt lat="43.50257491761793" lon="10.609345310608862"><ele>327.79999999999995</ele><time>2026-04-19T07:12:01.999Z</time></trkpt><trkpt lat="43.50247872941997" lon="10.609351784139548"><ele>330.4</ele><time>2026-04-19T07:12:02.999Z</time></trkpt><trkpt lat="43.50236974119989" lon="10.609396399281955"><ele>333.0</ele><time>2026-04-19T07:12:03.999Z</time></trkpt><trkpt lat="43.502261375012566" lon="10.609472519320345"><ele>335.79999999999995</ele><time>2026-04-19T07:12:04.999Z</time></trkpt><trkpt lat="43.50214799249549" lon="10.609553915646542"><ele>338.6</ele><time>2026-04-19T07:12:05.999Z</time></trkpt><trkpt lat="43.50204936745381" lon="10.609620923990073"><ele>341.4</ele><time>2026-04-19T07:12:06.999Z</time></trkpt><trkpt lat="43.50195580590499" lon="10.609644621547318"><ele>344.20000000000005</ele><time>2026-04-19T07:12:07.999Z</time></trkpt><trkpt lat="43.5018465594829" lon="10.609680393548356"><ele>347.0</ele><time>2026-04-19T07:12:08.999Z</time></trkpt><trkpt lat="43.50174495964024" lon="10.609730367144014"><ele>346.83333333333337</ele><time>2026-04-19T07:12:09.999Z</time></trkpt><trkpt lat="43.50166212775607" lon="10.609709102331255"><ele>346.6666666666667</ele><time>2026-04-19T07:12:10.999Z</time></trkpt><trkpt lat="43.50158217545604" lon="10.609671003978553"><ele>346.5</ele><time>2026-04-19T07:12:11.999Z</time></trkpt><trkpt lat="43.5015215205331" lon="10.609596157485292"><ele>346.3333333333333</ele><time>2026-04-19T07:12:12.999Z</time></trkpt><trkpt lat="43.50145031895169" lon="10.60951350364326"><ele>346.16666666666663</ele><time>2026-04-19T07:12:13.999Z</time></trkpt><trkpt lat="43.50137219737829" lon="10.609436415669974"><ele>346.0</ele><time>2026-04-19T07:12:14.999Z</time></trkpt><trkpt lat="43.50129497976347" lon="10.609395971321614"><ele>348.20000000000005</ele><time>2026-04-19T07:12:15.999Z</time></trkpt><trkpt lat="43.501196955597905" lon="10.609429555109509"><ele>350.40000000000003</ele><time>2026-04-19T07:12:17Z</time></trkpt><trkpt lat="43.50110466733633" lon="10.609511915643743"><ele>352.6</ele><time>2026-04-19T07:12:18Z</time></trkpt><trkpt lat="43.500989800358475" lon="10.609567208640982"><ele>354.8</ele><time>2026-04-19T07:12:19Z</time></trkpt><trkpt lat="43.5008821141969" lon="10.609595844598118"><ele>357.0</ele><time>2026-04-19T07:12:20Z</time></trkpt><trkpt lat="43.50079761850684" lon="10.609574532843169"><ele>357.0</ele><time>2026-04-19T07:12:21Z</time></trkpt><trkpt lat="43.500724323051045" lon="10.609522191325796"><ele>357.0</ele><time>2026-04-19T07:12:22Z</time></trkpt><trkpt lat="43.50066343220619" lon="10.609439839225008"><ele>357.0</ele><time>2026-04-19T07:12:23Z</time></trkpt><trkpt lat="43.50061341967323" lon="10.609334671194949"><ele>357.0</ele><time>2026-04-19T07:12:24Z</time></trkpt><trkpt lat="43.500594717811026" lon="10.609175736306723"><ele>357.0</ele><time>2026-04-19T07:12:25Z</time></trkpt><trkpt lat="43.50052511364958" lon="10.609087661852113"><ele>362.75</ele><time>2026-04-19T07:12:26Z</time></trkpt><trkpt lat="43.500410885598825" lon="10.608996039270231"><ele>368.5</ele><time>2026-04-19T07:12:27Z</time></trkpt><trkpt lat="43.50030066413167" lon="10.608904190236535"><ele>374.25</ele><time>2026-04-19T07:12:28Z</time></trkpt><trkpt lat="43.50021759812301" lon="10.608815073313151"><ele>380.0</ele><time>2026-04-19T07:12:29Z</time></trkpt><trkpt lat="43.500192229909196" lon="10.608668715389092"><ele>377.75</ele><time>2026-04-19T07:12:30Z</time></trkpt><trkpt lat="43.500150836629444" lon="10.608508818930368"><ele>375.5</ele><time>2026-04-19T07:12:31Z</time></trkpt><trkpt lat="43.500076848826765" lon="10.608360264907368"><ele>373.25</ele><time>2026-04-19T07:12:32Z</time></trkpt><trkpt lat="43.499983565920026" lon="10.608209543421536"><ele>371.0</ele><time>2026-04-19T07:12:33Z</time></trkpt><trkpt lat="43.49989035526824" lon="10.608061713011976"><ele>371.0</ele><time>2026-04-19T07:12:34Z</time></trkpt><trkpt lat="43.49981316589701" lon="10.60794262781747"><ele>371.0</ele><time>2026-04-19T07:12:35Z</time></trkpt><trkpt lat="43.499749558184796" lon="10.607846097303591"><ele>371.0</ele><time>2026-04-19T07:12:36Z</time></trkpt><trkpt lat="43.49969266642523" lon="10.607767446763708"><ele>371.0</ele><time>2026-04-19T07:12:37Z</time></trkpt><trkpt lat="43.49962278623397" lon="10.607688947258481"><ele>371.0</ele><time>2026-04-19T07:12:38Z</time></trkpt><trkpt lat="43.49950876002604" lon="10.607621409901002"><ele>373.4</ele><time>2026-04-19T07:12:39Z</time></trkpt><trkpt lat="43.49939100988749" lon="10.607554842662976"><ele>375.8</ele><time>2026-04-19T07:12:40Z</time></trkpt><trkpt lat="43.499289378449326" lon="10.607498762620839"><ele>378.2</ele><time>2026-04-19T07:12:41Z</time></trkpt><trkpt lat="43.4992301734125" lon="10.60745321412714"><ele>380.59999999999997</ele><time>2026-04-19T07:12:42Z</time></trkpt><trkpt lat="43.49913425787165" lon="10.607330805379512"><ele>383.0</ele><time>2026-04-19T07:12:44Z</time></trkpt><trkpt lat="43.4991465828629" lon="10.607154638471743"><ele>383.0</ele><time>2026-04-19T07:12:46Z</time></trkpt><trkpt lat="43.49919538084228" lon="10.607044583389277"><ele>383.0</ele><time>2026-04-19T07:12:47Z</time></trkpt><trkpt lat="43.49922242047133" lon="10.606927710106696"><ele>383.0</ele><time>2026-04-19T07:12:48Z</time></trkpt><trkpt lat="43.499224961068435" lon="10.606778212021105"><ele>383.0</ele><time>2026-04-19T07:12:49Z</time></trkpt><trkpt lat="43.49918233696489" lon="10.606647732193798"><ele>383.0</ele><time>2026-04-19T07:12:50Z</time></trkpt><trkpt lat="43.499133683220215" lon="10.606540525904128"><ele>383.79999999999995</ele><time>2026-04-19T07:12:51Z</time></trkpt><trkpt lat="43.49904435882518" lon="10.606460976632096"><ele>384.6</ele><time>2026-04-19T07:12:52Z</time></trkpt><trkpt lat="43.49896325693003" lon="10.606343589927494"><ele>385.4</ele><time>2026-04-19T07:12:53Z</time></trkpt><trkpt lat="43.498917837574155" lon="10.60623442264603"><ele>386.20000000000005</ele><time>2026-04-19T07:12:54Z</time></trkpt><trkpt lat="43.49889007676459" lon="10.606107334548657"><ele>387.0</ele><time>2026-04-19T07:12:55Z</time></trkpt><trkpt lat="43.49890005024327" lon="10.605979058807824"><ele>387.25</ele><time>2026-04-19T07:12:56Z</time></trkpt><trkpt lat="43.498925448911095" lon="10.605822126391963"><ele>387.5</ele><time>2026-04-19T07:12:57Z</time></trkpt><trkpt lat="43.49889695582132" lon="10.605646462238097"><ele>387.75</ele><time>2026-04-19T07:12:58Z</time></trkpt><trkpt lat="43.498857653932845" lon="10.605473630414117"><ele>388.0</ele><time>2026-04-19T07:12:59Z</time></trkpt><trkpt lat="43.49880678298336" lon="10.605289809166388"><ele>387.59999999999997</ele><time>2026-04-19T07:13:00Z</time></trkpt><trkpt lat="43.49875950606049" lon="10.60513096244761"><ele>387.2</ele><time>2026-04-19T07:13:01Z</time></trkpt><trkpt lat="43.49876004174218" lon="10.60500202229262"><ele>386.8</ele><time>2026-04-19T07:13:02Z</time></trkpt><trkpt lat="43.49873050730306" lon="10.60490033860013"><ele>386.4</ele><time>2026-04-19T07:13:03Z</time></trkpt><trkpt lat="43.49867259022456" lon="10.604799083156717"><ele>386.0</ele><time>2026-04-19T07:13:04Z</time></trkpt><trkpt lat="43.49859149631043" lon="10.604709257059296"><ele>389.0</ele><time>2026-04-19T07:13:05Z</time></trkpt><trkpt lat="43.498496488551744" lon="10.604639389172117"><ele>392.0</ele><time>2026-04-19T07:13:06Z</time></trkpt><trkpt lat="43.49840898489676" lon="10.60456014040671"><ele>395.0</ele><time>2026-04-19T07:13:07Z</time></trkpt><trkpt lat="43.498283573456554" lon="10.604515167775896"><ele>398.0</ele><time>2026-04-19T07:13:08Z</time></trkpt><trkpt lat="43.4981615928588" lon="10.604485363311612"><ele>398.0</ele><time>2026-04-19T07:13:09Z</time></trkpt><trkpt lat="43.49806337545182" lon="10.604412763917924"><ele>398.0</ele><time>2026-04-19T07:13:10Z</time></trkpt><trkpt lat="43.497961141608805" lon="10.604335702537801"><ele>398.0</ele><time>2026-04-19T07:13:11Z</time></trkpt><trkpt lat="43.497865410277804" lon="10.604292622095482"><ele>398.0</ele><time>2026-04-19T07:13:12Z</time></trkpt><trkpt lat="43.49776233619504" lon="10.604271707691865"><ele>398.0</ele><time>2026-04-19T07:13:13Z</time></trkpt><trkpt lat="43.49765876535696" lon="10.60430053294181"><ele>401.2</ele><time>2026-04-19T07:13:14Z</time></trkpt><trkpt lat="43.49758296856721" lon="10.604269276918583"><ele>404.4</ele><time>2026-04-19T07:13:15Z</time></trkpt><trkpt lat="43.49752493391962" lon="10.604125424570755"><ele>407.59999999999997</ele><time>2026-04-19T07:13:17Z</time></trkpt><trkpt lat="43.49748539129081" lon="10.603995337051186"><ele>410.79999999999995</ele><time>2026-04-19T07:13:18Z</time></trkpt><trkpt lat="43.497442425882234" lon="10.60384215875887"><ele>414.0</ele><time>2026-04-19T07:13:19Z</time></trkpt><trkpt lat="43.49740501913571" lon="10.603718893743316"><ele>414.6666666666667</ele><time>2026-04-19T07:13:20Z</time></trkpt><trkpt lat="43.4973630525517" lon="10.603610978230488"><ele>415.33333333333337</ele><time>2026-04-19T07:13:21Z</time></trkpt><trkpt lat="43.49730446053219" lon="10.603496238289585"><ele>416.0</ele><time>2026-04-19T07:13:22Z</time></trkpt><trkpt lat="43.49721290996637" lon="10.603426809107054"><ele>416.6666666666667</ele><time>2026-04-19T07:13:23Z</time></trkpt><trkpt lat="43.49715920091269" lon="10.603363205260605"><ele>417.33333333333337</ele><time>2026-04-19T07:13:24Z</time></trkpt><trkpt lat="43.49715789488909" lon="10.603253770605328"><ele>418.0</ele><time>2026-04-19T07:13:25Z</time></trkpt><trkpt lat="43.497192064710916" lon="10.603126222602222"><ele>418.0</ele><time>2026-04-19T07:13:26Z</time></trkpt><trkpt lat="43.49718224291039" lon="10.602995191679934"><ele>418.0</ele><time>2026-04-19T07:13:27Z</time></trkpt><trkpt lat="43.497119806200644" lon="10.602845157794619"><ele>418.0</ele><time>2026-04-19T07:13:28Z</time></trkpt><trkpt lat="43.497037477963424" lon="10.60269874945118"><ele>418.0</ele><time>2026-04-19T07:13:29Z</time></trkpt><trkpt lat="43.4969595049054" lon="10.602547726715551"><ele>420.79999999999995</ele><time>2026-04-19T07:13:30Z</time></trkpt><trkpt lat="43.49689700494349" lon="10.602422286006707"><ele>423.6</ele><time>2026-04-19T07:13:31Z</time></trkpt><trkpt lat="43.496843878019135" lon="10.602297341422194"><ele>426.40000000000003</ele><time>2026-04-19T07:13:32Z</time></trkpt><trkpt lat="43.49680403736027" lon="10.602175858306033"><ele>429.20000000000005</ele><time>2026-04-19T07:13:33Z</time></trkpt><trkpt lat="43.49677168893615" lon="10.602064205177415"><ele>432.0</ele><time>2026-04-19T07:13:34Z</time></trkpt><trkpt lat="43.4967426686697" lon="10.601944893623784"><ele>432.0</ele><time>2026-04-19T07:13:35Z</time></trkpt><trkpt lat="43.496715050780054" lon="10.601805154250467"><ele>432.0</ele><time>2026-04-19T07:13:36Z</time></trkpt><trkpt lat="43.49668514585782" lon="10.601682910858894"><ele>432.0</ele><time>2026-04-19T07:13:37Z</time></trkpt><trkpt lat="43.49669825018178" lon="10.601580368372302"><ele>432.0</ele><time>2026-04-19T07:13:38Z</time></trkpt><trkpt lat="43.49669825018098" lon="10.60148874147208"><ele>432.0</ele><time>2026-04-19T07:13:38.999Z</time></trkpt><trkpt lat="43.496693920536934" lon="10.601372369211155"><ele>432.0</ele><time>2026-04-19T07:13:40.999Z</time></trkpt><trkpt lat="43.49641476671484" lon="10.601353017149208"><ele>432.0</ele><time>2026-04-19T07:13:41.999Z</time></trkpt><trkpt lat="43.496284880343815" lon="10.601326742758967"><ele>432.0</ele><time>2026-04-19T07:13:42.999Z</time></trkpt><trkpt lat="43.49615598838264" lon="10.601303167805115"><ele>432.0</ele><time>2026-04-19T07:13:43.999Z</time></trkpt><trkpt lat="43.49601931170248" lon="10.601263719996147"><ele>432.0</ele><time>2026-04-19T07:13:44.999Z</time></trkpt><trkpt lat="43.49587722566769" lon="10.601214044000084"><ele>433.0</ele><time>2026-04-19T07:13:45.999Z</time></trkpt><trkpt lat="43.49573795522284" lon="10.6011731591674"><ele>434.0</ele><time>2026-04-19T07:13:46.999Z</time></trkpt><trkpt lat="43.49560614796333" lon="10.601133994378456"><ele>435.0</ele><time>2026-04-19T07:13:47.999Z</time></trkpt><trkpt lat="43.495480926753025" lon="10.601077930049401"><ele>436.0</ele><time>2026-04-19T07:13:48.999Z</time></trkpt><trkpt lat="43.49535821760328" lon="10.601018055257766"><ele>438.0</ele><time>2026-04-19T07:13:49.999Z</time></trkpt><trkpt lat="43.49524110790261" lon="10.600961157437906"><ele>440.0</ele><time>2026-04-19T07:13:50.999Z</time></trkpt><trkpt lat="43.49512314040789" lon="10.600913640444189"><ele>442.0</ele><time>2026-04-19T07:13:51.999Z</time></trkpt><trkpt lat="43.495025696202376" lon="10.600892153112554"><ele>444.0</ele><time>2026-04-19T07:13:52.999Z</time></trkpt><trkpt lat="43.49492143265891" lon="10.600882596211251"><ele>444.0</ele><time>2026-04-19T07:13:53.999Z</time></trkpt><trkpt lat="43.494820439106626" lon="10.600899390931469"><ele>444.0</ele><time>2026-04-19T07:13:54.999Z</time></trkpt><trkpt lat="43.49473463753645" lon="10.600923106608128"><ele>444.0</ele><time>2026-04-19T07:13:55.999Z</time></trkpt><trkpt lat="43.494656533445216" lon="10.600958334376095"><ele>444.0</ele><time>2026-04-19T07:13:56.999Z</time></trkpt><trkpt lat="43.494580706361745" lon="10.601039276160881"><ele>444.0</ele><time>2026-04-19T07:13:57.999Z</time></trkpt><trkpt lat="43.49452139876046" lon="10.601141558196494"><ele>445.5</ele><time>2026-04-19T07:13:58.999Z</time></trkpt><trkpt lat="43.49444874521894" lon="10.601207751051247"><ele>447.0</ele><time>2026-04-19T07:13:59.999Z</time></trkpt><trkpt lat="43.49438567774054" lon="10.601254222049223"><ele>448.5</ele><time>2026-04-19T07:14:00.999Z</time></trkpt><trkpt lat="43.49431456089854" lon="10.601230516283016"><ele>450.0</ele><time>2026-04-19T07:14:01.999Z</time></trkpt><trkpt lat="43.49424520149844" lon="10.60117620066227"><ele>451.5</ele><time>2026-04-19T07:14:02.999Z</time></trkpt><trkpt lat="43.4941556323157" lon="10.601085590650325"><ele>453.0</ele><time>2026-04-19T07:14:03.999Z</time></trkpt><trkpt lat="43.49406438076265" lon="10.600986296762805"><ele>453.0</ele><time>2026-04-19T07:14:04.999Z</time></trkpt><trkpt lat="43.493963989808236" lon="10.60089006256248"><ele>453.0</ele><time>2026-04-19T07:14:05.999Z</time></trkpt><trkpt lat="43.49384961537252" lon="10.600798777314841"><ele>453.0</ele><time>2026-04-19T07:14:06.999Z</time></trkpt><trkpt lat="43.49372716312408" lon="10.60071937374227"><ele>453.0</ele><time>2026-04-19T07:14:07.999Z</time></trkpt><trkpt lat="43.49363072244592" lon="10.600652524278063"><ele>455.4</ele><time>2026-04-19T07:14:08.999Z</time></trkpt><trkpt lat="43.49355846529822" lon="10.600591074862244"><ele>457.79999999999995</ele><time>2026-04-19T07:14:10Z</time></trkpt><trkpt lat="43.49348555146011" lon="10.600541859182686"><ele>460.2</ele><time>2026-04-19T07:14:11Z</time></trkpt><trkpt lat="43.493393320688455" lon="10.600513400712943"><ele>462.6</ele><time>2026-04-19T07:14:12Z</time></trkpt><trkpt lat="43.49327623339787" lon="10.600511151958207"><ele>465.0</ele><time>2026-04-19T07:14:13Z</time></trkpt><trkpt lat="43.49314356840095" lon="10.60051973446042"><ele>465.0</ele><time>2026-04-19T07:14:14Z</time></trkpt><trkpt lat="43.493006194127254" lon="10.600543595806888"><ele>465.0</ele><time>2026-04-19T07:14:15Z</time></trkpt><trkpt lat="43.49288331807918" lon="10.600581234148395"><ele>465.0</ele><time>2026-04-19T07:14:16Z</time></trkpt><trkpt lat="43.492789842892726" lon="10.600606513375107"><ele>465.0</ele><time>2026-04-19T07:14:17Z</time></trkpt><trkpt lat="43.4926725695974" lon="10.600587499359516"><ele>464.6666666666667</ele><time>2026-04-19T07:14:19Z</time></trkpt><trkpt lat="43.49260837005722" lon="10.60052771475895"><ele>464.33333333333337</ele><time>2026-04-19T07:14:20Z</time></trkpt><trkpt lat="43.49254128256907" lon="10.600462623501983"><ele>464.0</ele><time>2026-04-19T07:14:21Z</time></trkpt><trkpt lat="43.49248861720168" lon="10.600398602719311"><ele>463.6666666666667</ele><time>2026-04-19T07:14:22Z</time></trkpt><trkpt lat="43.49243422341981" lon="10.600317886828316"><ele>463.33333333333337</ele><time>2026-04-19T07:14:23Z</time></trkpt><trkpt lat="43.4923832089441" lon="10.600205192752599"><ele>463.0</ele><time>2026-04-19T07:14:24Z</time></trkpt><trkpt lat="43.49232236083898" lon="10.600093692004773"><ele>462.79999999999995</ele><time>2026-04-19T07:14:25Z</time></trkpt><trkpt lat="43.492230240026736" lon="10.60001357262347"><ele>462.59999999999997</ele><time>2026-04-19T07:14:26Z</time></trkpt><trkpt lat="43.49211548781727" lon="10.599941925796342"><ele>462.40000000000003</ele><time>2026-04-19T07:14:27Z</time></trkpt><trkpt lat="43.492026985433085" lon="10.599875673430573"><ele>462.20000000000005</ele><time>2026-04-19T07:14:28Z</time></trkpt><trkpt lat="43.49196760631693" lon="10.599791256953965"><ele>462.0</ele><time>2026-04-19T07:14:29Z</time></trkpt><trkpt lat="43.4919416036125" lon="10.599686100091832"><ele>462.0</ele><time>2026-04-19T07:14:30Z</time></trkpt><trkpt lat="43.49193900920235" lon="10.59955711500748"><ele>462.00000000000006</ele><time>2026-04-19T07:14:31Z</time></trkpt><trkpt lat="43.49195088838359" lon="10.599401046087566"><ele>462.00000000000006</ele><time>2026-04-19T07:14:32Z</time></trkpt><trkpt lat="43.49195361295496" lon="10.59923430400129"><ele>462.0</ele><time>2026-04-19T07:14:33Z</time></trkpt><trkpt lat="43.49194335825332" lon="10.599089994358794"><ele>462.0</ele><time>2026-04-19T07:14:34Z</time></trkpt><trkpt lat="43.49193977516982" lon="10.598965548389991"><ele>463.20000000000005</ele><time>2026-04-19T07:14:35Z</time></trkpt><trkpt lat="43.49195514188972" lon="10.598838958700854"><ele>464.40000000000003</ele><time>2026-04-19T07:14:36Z</time></trkpt><trkpt lat="43.49198002833717" lon="10.598690698295217"><ele>465.59999999999997</ele><time>2026-04-19T07:14:37Z</time></trkpt><trkpt lat="43.492008918471655" lon="10.598528239691188"><ele>466.79999999999995</ele><time>2026-04-19T07:14:38Z</time></trkpt><trkpt lat="43.49202965548792" lon="10.598384908508509"><ele>468.0</ele><time>2026-04-19T07:14:39Z</time></trkpt><trkpt lat="43.492043067073915" lon="10.598269661820753"><ele>469.5</ele><time>2026-04-19T07:14:40Z</time></trkpt><trkpt lat="43.49204669811011" lon="10.598162220804406"><ele>471.0</ele><time>2026-04-19T07:14:41Z</time></trkpt><trkpt lat="43.492024320496036" lon="10.598015542739622"><ele>472.5</ele><time>2026-04-19T07:14:42Z</time></trkpt><trkpt lat="43.4919888843174" lon="10.597827104560778"><ele>474.0</ele><time>2026-04-19T07:14:43Z</time></trkpt><trkpt lat="43.49195927336688" lon="10.597630835012973"><ele>475.79999999999995</ele><time>2026-04-19T07:14:44Z</time></trkpt><trkpt lat="43.4919316235724" lon="10.597443508802426"><ele>477.59999999999997</ele><time>2026-04-19T07:14:45Z</time></trkpt><trkpt lat="43.4919077428339" lon="10.597290213264847"><ele>479.4</ele><time>2026-04-19T07:14:46Z</time></trkpt><trkpt lat="43.491878409540824" lon="10.59715773476002"><ele>481.2</ele><time>2026-04-19T07:14:47Z</time></trkpt><trkpt lat="43.49186417544175" lon="10.59704810156434"><ele>483.0</ele><time>2026-04-19T07:14:48Z</time></trkpt><trkpt lat="43.49185941732192" lon="10.59696090580523"><ele>483.59999999999997</ele><time>2026-04-19T07:14:49Z</time></trkpt><trkpt lat="43.491870498384074" lon="10.596830044397048"><ele>484.19999999999993</ele><time>2026-04-19T07:14:51Z</time></trkpt><trkpt lat="43.4919674838122" lon="10.596827185517144"><ele>484.8</ele><time>2026-04-19T07:14:54Z</time></trkpt><trkpt lat="43.492082940960174" lon="10.596821584944184"><ele>485.4</ele><time>2026-04-19T07:15:08Z</time></trkpt><trkpt lat="43.49216001638631" lon="10.596814983665443"><ele>486.0</ele><time>2026-04-19T07:15:09Z</time></trkpt><trkpt lat="43.49223872377356" lon="10.596778768622176"><ele>486.4</ele><time>2026-04-19T07:15:10Z</time></trkpt><trkpt lat="43.49233299207449" lon="10.596714572667278"><ele>486.8</ele><time>2026-04-19T07:15:11Z</time></trkpt><trkpt lat="43.49244021556314" lon="10.596626052217001"><ele>487.19999999999993</ele><time>2026-04-19T07:15:12Z</time></trkpt><trkpt lat="43.49253279447255" lon="10.59654385131317"><ele>487.59999999999997</ele><time>2026-04-19T07:15:13Z</time></trkpt><trkpt lat="43.49260715012471" lon="10.59648240653885"><ele>488.0</ele><time>2026-04-19T07:15:14Z</time></trkpt><trkpt lat="43.49268689571349" lon="10.596418376572187"><ele>488.0</ele><time>2026-04-19T07:15:15Z</time></trkpt><trkpt lat="43.49275557832223" lon="10.596342761698827"><ele>487.99999999999994</ele><time>2026-04-19T07:15:16Z</time></trkpt><trkpt lat="43.492804171652395" lon="10.596245849654363"><ele>487.99999999999994</ele><time>2026-04-19T07:15:17Z</time></trkpt><trkpt lat="43.492840166482075" lon="10.596118279951687"><ele>488.0</ele><time>2026-04-19T07:15:18Z</time></trkpt><trkpt lat="43.492869924997144" lon="10.595945921399045"><ele>488.0</ele><time>2026-04-19T07:15:19Z</time></trkpt><trkpt lat="43.49288789221457" lon="10.595796471013237"><ele>487.49999999999994</ele><time>2026-04-19T07:15:20Z</time></trkpt><trkpt lat="43.492903076374866" lon="10.595672302186323"><ele>487.0</ele><time>2026-04-19T07:15:21Z</time></trkpt><trkpt lat="43.492925414820164" lon="10.595586070706931"><ele>486.5</ele><time>2026-04-19T07:15:22Z</time></trkpt><trkpt lat="43.49296479984809" lon="10.595503561756008"><ele>486.0</ele><time>2026-04-19T07:15:23Z</time></trkpt><trkpt lat="43.49302032114427" lon="10.59543012062421"><ele>485.49999999999994</ele><time>2026-04-19T07:15:24Z</time></trkpt><trkpt lat="43.493089048302444" lon="10.59537443470235"><ele>485.0</ele><time>2026-04-19T07:15:25Z</time></trkpt><trkpt lat="43.49316782688849" lon="10.595328107012337"><ele>485.0</ele><time>2026-04-19T07:15:26Z</time></trkpt><trkpt lat="43.4932601978931" lon="10.595306056669878"><ele>485.0</ele><time>2026-04-19T07:15:27Z</time></trkpt><trkpt lat="43.49336780497113" lon="10.595303794958529"><ele>485.0</ele><time>2026-04-19T07:15:28Z</time></trkpt><trkpt lat="43.493488878346895" lon="10.595318289491615"><ele>485.0</ele><time>2026-04-19T07:15:29Z</time></trkpt><trkpt lat="43.49362082599619" lon="10.59534747921004"><ele>484.6</ele><time>2026-04-19T07:15:30Z</time></trkpt><trkpt lat="43.49374385059701" lon="10.595383188960605"><ele>484.2</ele><time>2026-04-19T07:15:31Z</time></trkpt><trkpt lat="43.493843157699615" lon="10.595409383964938"><ele>483.79999999999995</ele><time>2026-04-19T07:15:32Z</time></trkpt><trkpt lat="43.49392532512836" lon="10.59543422011524"><ele>483.4</ele><time>2026-04-19T07:15:33Z</time></trkpt><trkpt lat="43.49400640385281" lon="10.595449610374171"><ele>483.0</ele><time>2026-04-19T07:15:34Z</time></trkpt><trkpt lat="43.49408260851319" lon="10.595448152237362"><ele>482.79999999999995</ele><time>2026-04-19T07:15:35Z</time></trkpt><trkpt lat="43.49416293200941" lon="10.595423027710185"><ele>482.59999999999997</ele><time>2026-04-19T07:15:36Z</time></trkpt><trkpt lat="43.494241982087466" lon="10.595375002082681"><ele>482.40000000000003</ele><time>2026-04-19T07:15:37Z</time></trkpt><trkpt lat="43.49431806490632" lon="10.595308778510699"><ele>482.20000000000005</ele><time>2026-04-19T07:15:38Z</time></trkpt><trkpt lat="43.494391737078864" lon="10.595229042892646"><ele>482.0</ele><time>2026-04-19T07:15:39Z</time></trkpt><trkpt lat="43.49445464869016" lon="10.595121686975075"><ele>482.0</ele><time>2026-04-19T07:15:40Z</time></trkpt><trkpt lat="43.49451550500414" lon="10.59498365036912"><ele>482.00000000000006</ele><time>2026-04-19T07:15:41Z</time></trkpt><trkpt lat="43.49456897438627" lon="10.594865261470003"><ele>482.00000000000006</ele><time>2026-04-19T07:15:42Z</time></trkpt><trkpt lat="43.49460627053145" lon="10.594774305974337"><ele>482.0</ele><time>2026-04-19T07:15:43Z</time></trkpt><trkpt lat="43.4946630562529" lon="10.594653206915067"><ele>482.0</ele><time>2026-04-19T07:15:45Z</time></trkpt><trkpt lat="43.494731027782564" lon="10.594577568925644"><ele>480.0</ele><time>2026-04-19T07:15:48Z</time></trkpt><trkpt lat="43.49477849682199" lon="10.594470731213585"><ele>478.00000000000006</ele><time>2026-04-19T07:15:51Z</time></trkpt><trkpt lat="43.49485779896059" lon="10.594520286495287"><ele>476.00000000000006</ele><time>2026-04-19T07:16:09Z</time></trkpt><trkpt lat="43.4949417920993" lon="10.594553361397553"><ele>474.0</ele><time>2026-04-19T07:16:11Z</time></trkpt><trkpt lat="43.495050590093136" lon="10.59464568939843"><ele>472.0</ele><time>2026-04-19T07:16:13Z</time></trkpt><trkpt lat="43.495111552837535" lon="10.594722330604874"><ele>471.8</ele><time>2026-04-19T07:16:14Z</time></trkpt><trkpt lat="43.495181647337795" lon="10.594798473162943"><ele>471.6</ele><time>2026-04-19T07:16:15Z</time></trkpt><trkpt lat="43.495249901334134" lon="10.594864519934792"><ele>471.40000000000003</ele><time>2026-04-19T07:16:16Z</time></trkpt><trkpt lat="43.495336254244535" lon="10.594930614852263"><ele>471.20000000000005</ele><time>2026-04-19T07:16:18Z</time></trkpt><trkpt lat="43.49545385153657" lon="10.59505202559014"><ele>471.0</ele><time>2026-04-19T07:16:20Z</time></trkpt><trkpt lat="43.49552694576032" lon="10.595089749103757"><ele>470.0</ele><time>2026-04-19T07:16:21Z</time></trkpt><trkpt lat="43.49560594973024" lon="10.595105692746126"><ele>469.0</ele><time>2026-04-19T07:16:22Z</time></trkpt><trkpt lat="43.49571435418243" lon="10.595126541126275"><ele>468.0</ele><time>2026-04-19T07:16:24Z</time></trkpt><trkpt lat="43.495772087195945" lon="10.595161335842626"><ele>467.0</ele><time>2026-04-19T07:16:25Z</time></trkpt><trkpt lat="43.495828968457644" lon="10.595200053771533"><ele>466.0</ele><time>2026-04-19T07:16:26Z</time></trkpt><trkpt lat="43.49593580352789" lon="10.595233742273543"><ele>465.0</ele><time>2026-04-19T07:16:28Z</time></trkpt><trkpt lat="43.49601125778829" lon="10.595243911649957"><ele>465.0</ele><time>2026-04-19T07:16:30Z</time></trkpt><trkpt lat="43.496086365686814" lon="10.595228668893542"><ele>465.0</ele><time>2026-04-19T07:16:33Z</time></trkpt><trkpt lat="43.496133911887725" lon="10.595124033273022"><ele>465.0</ele><time>2026-04-19T07:16:36Z</time></trkpt><trkpt lat="43.49618305078239" lon="10.595066029985023"><ele>465.0</ele><time>2026-04-19T07:16:39Z</time></trkpt><trkpt lat="43.49624942333281" lon="10.595062356733932"><ele>465.0</ele><time>2026-04-19T07:16:41Z</time></trkpt><trkpt lat="43.49631481889228" lon="10.595106133859593"><ele>465.0</ele><time>2026-04-19T07:16:43Z</time></trkpt><trkpt lat="43.49640078210017" lon="10.595137828888022"><ele>463.3333333333333</ele><time>2026-04-19T07:16:46Z</time></trkpt><trkpt lat="43.496471946977394" lon="10.595181269575239"><ele>461.66666666666663</ele><time>2026-04-19T07:16:48Z</time></trkpt><trkpt lat="43.49654493473305" lon="10.595210425557674"><ele>460.0</ele><time>2026-04-19T07:16:50Z</time></trkpt><trkpt lat="43.49662640701331" lon="10.5952117337945"><ele>458.3333333333333</ele><time>2026-04-19T07:16:53Z</time></trkpt><trkpt lat="43.49672727221706" lon="10.595226073186288"><ele>456.66666666666663</ele><time>2026-04-19T07:16:56Z</time></trkpt><trkpt lat="43.49678086622839" lon="10.595165294979083"><ele>455.0</ele><time>2026-04-19T07:16:58Z</time></trkpt><trkpt lat="43.496799570853135" lon="10.59505873838741"><ele>454.99999999999994</ele><time>2026-04-19T07:17:00Z</time></trkpt><trkpt lat="43.49681664829077" lon="10.594960317180668"><ele>455.0</ele><time>2026-04-19T07:17:02Z</time></trkpt><trkpt lat="43.49683355210714" lon="10.594848202914841"><ele>455.0</ele><time>2026-04-19T07:17:04Z</time></trkpt><trkpt lat="43.496845338341046" lon="10.594750194078257"><ele>455.0</ele><time>2026-04-19T07:17:07.001Z</time></trkpt><trkpt lat="43.49685857270721" lon="10.594664337684605"><ele>454.99999999999994</ele><time>2026-04-19T07:17:09.001Z</time></trkpt><trkpt lat="43.496853631395005" lon="10.594556963237096"><ele>455.0</ele><time>2026-04-19T07:17:12.001Z</time></trkpt><trkpt lat="43.496794748233405" lon="10.59446842160399"><ele>453.16666666666663</ele><time>2026-04-19T07:17:15.001Z</time></trkpt><trkpt lat="43.49669425114697" lon="10.594480382127733"><ele>451.3333333333333</ele><time>2026-04-19T07:17:17.001Z</time></trkpt><trkpt lat="43.496619920466024" lon="10.594458211576121"><ele>449.5</ele><time>2026-04-19T07:17:19.001Z</time></trkpt><trkpt lat="43.49655429960756" lon="10.59441786100598"><ele>447.66666666666663</ele><time>2026-04-19T07:17:21.001Z</time></trkpt><trkpt lat="43.4964433466042" lon="10.594353486300143"><ele>445.8333333333333</ele><time>2026-04-19T07:17:24.001Z</time></trkpt><trkpt lat="43.49639240539711" lon="10.594299386783453"><ele>444.0</ele><time>2026-04-19T07:17:25.001Z</time></trkpt><trkpt lat="43.49637311454457" lon="10.594207025346071"><ele>444.0</ele><time>2026-04-19T07:17:26.001Z</time></trkpt><trkpt lat="43.49632884064474" lon="10.59406624683768"><ele>444.0</ele><time>2026-04-19T07:17:28.001Z</time></trkpt><trkpt lat="43.49627550961117" lon="10.593959786035974"><ele>444.0</ele><time>2026-04-19T07:17:30.001Z</time></trkpt><trkpt lat="43.496227220111216" lon="10.593851156532311"><ele>444.0</ele><time>2026-04-19T07:17:32.001Z</time></trkpt><trkpt lat="43.49619399172773" lon="10.593747288684643"><ele>444.0</ele><time>2026-04-19T07:17:35.001Z</time></trkpt><trkpt lat="43.49616412050487" lon="10.59364913988793"><ele>445.0</ele><time>2026-04-19T07:17:37.001Z</time></trkpt><trkpt lat="43.49617775337387" lon="10.593563214595958"><ele>446.0</ele><time>2026-04-19T07:17:47.001Z</time></trkpt><trkpt lat="43.49617319907741" lon="10.593463707717751"><ele>447.0</ele><time>2026-04-19T07:17:53Z</time></trkpt><trkpt lat="43.49619799169601" lon="10.593376711815747"><ele>448.0</ele><time>2026-04-19T07:17:55Z</time></trkpt><trkpt lat="43.496209814163336" lon="10.593281212321164"><ele>449.0</ele><time>2026-04-19T07:17:57Z</time></trkpt><trkpt lat="43.496209513690474" lon="10.593189327416596"><ele>450.0</ele><time>2026-04-19T07:17:59Z</time></trkpt><trkpt lat="43.496202727266414" lon="10.593092603494785"><ele>451.0</ele><time>2026-04-19T07:18:02Z</time></trkpt><trkpt lat="43.49619751288744" lon="10.59297462247899"><ele>451.0</ele><time>2026-04-19T07:18:05Z</time></trkpt><trkpt lat="43.49618189822392" lon="10.59288635444814"><ele>451.0</ele><time>2026-04-19T07:18:09Z</time></trkpt><trkpt lat="43.49619134738147" lon="10.592794111482508"><ele>451.0</ele><time>2026-04-19T07:18:35Z</time></trkpt><trkpt lat="43.4962106157025" lon="10.592705504574386"><ele>451.0</ele><time>2026-04-19T07:18:49.001Z</time></trkpt><trkpt lat="43.496215005559655" lon="10.59258289582919"><ele>451.0</ele><time>2026-04-19T07:18:54.001Z</time></trkpt><trkpt lat="43.49619187045989" lon="10.592477724782709"><ele>451.0</ele><time>2026-04-19T07:18:57.001Z</time></trkpt><trkpt lat="43.49617197066796" lon="10.592385095560031"><ele>451.0</ele><time>2026-04-19T07:19:00.001Z</time></trkpt><trkpt lat="43.496123732309734" lon="10.5922839719742"><ele>448.00000000000006</ele><time>2026-04-19T07:19:04.001Z</time></trkpt><trkpt lat="43.496110585544024" lon="10.592196292138333"><ele>445.0</ele><time>2026-04-19T07:19:06.001Z</time></trkpt><trkpt lat="43.496134520185024" lon="10.592071181635518"><ele>442.0</ele><time>2026-04-19T07:19:09.001Z</time></trkpt><trkpt lat="43.49612756241623" lon="10.591953788102934"><ele>439.0</ele><time>2026-04-19T07:19:12.001Z</time></trkpt><trkpt lat="43.49611187563867" lon="10.591856838091578"><ele>436.00000000000006</ele><time>2026-04-19T07:19:15.001Z</time></trkpt><trkpt lat="43.49604865355388" lon="10.591767997532866"><ele>433.0</ele><time>2026-04-19T07:19:37.001Z</time></trkpt><trkpt lat="43.495988629040184" lon="10.591687005718283"><ele>430.59999999999997</ele><time>2026-04-19T07:19:40.001Z</time></trkpt><trkpt lat="43.495930331212456" lon="10.591610758257696"><ele>428.19999999999993</ele><time>2026-04-19T07:19:42.001Z</time></trkpt><trkpt lat="43.49585327763853" lon="10.591531838858396"><ele>425.8</ele><time>2026-04-19T07:19:44.001Z</time></trkpt><trkpt lat="43.4958086199845" lon="10.591429103923954"><ele>423.4</ele><time>2026-04-19T07:19:46.001Z</time></trkpt><trkpt lat="43.495776737075836" lon="10.591274495382526"><ele>421.0</ele><time>2026-04-19T07:19:48.001Z</time></trkpt><trkpt lat="43.49570934917062" lon="10.591162253851929"><ele>420.4</ele><time>2026-04-19T07:19:50.001Z</time></trkpt><trkpt lat="43.49563629078839" lon="10.591085246952543"><ele>419.8</ele><time>2026-04-19T07:19:52.001Z</time></trkpt><trkpt lat="43.495609398868424" lon="10.590962965820115"><ele>419.2</ele><time>2026-04-19T07:19:54.001Z</time></trkpt><trkpt lat="43.49564617315235" lon="10.590807889359882"><ele>418.59999999999997</ele><time>2026-04-19T07:19:56.001Z</time></trkpt><trkpt lat="43.49562612844796" lon="10.590684556889686"><ele>418.0</ele><time>2026-04-19T07:19:59.001Z</time></trkpt><trkpt lat="43.49564477136232" lon="10.590583246922222"><ele>418.0</ele><time>2026-04-19T07:20:16.001Z</time></trkpt><trkpt lat="43.49571340991641" lon="10.590476481332676"><ele>418.0</ele><time>2026-04-19T07:20:18.001Z</time></trkpt><trkpt lat="43.495762137324185" lon="10.590413787347524"><ele>418.0</ele><time>2026-04-19T07:20:21.001Z</time></trkpt><trkpt lat="43.495806903849044" lon="10.590310378385588"><ele>418.0</ele><time>2026-04-19T07:20:24.001Z</time></trkpt><trkpt lat="43.495971182322684" lon="10.590287773656236"><ele>418.0</ele><time>2026-04-19T07:20:28.001Z</time></trkpt><trkpt lat="43.496061203801794" lon="10.590229709249638"><ele>418.42857142857144</ele><time>2026-04-19T07:20:30.001Z</time></trkpt><trkpt lat="43.49610879990797" lon="10.590128017721362"><ele>418.85714285714283</ele><time>2026-04-19T07:20:32.001Z</time></trkpt><trkpt lat="43.4961564616149" lon="10.590057457885873"><ele>419.28571428571433</ele><time>2026-04-19T07:20:34.001Z</time></trkpt><trkpt lat="43.49620023507211" lon="10.589978111829659"><ele>419.7142857142857</ele><time>2026-04-19T07:20:37.001Z</time></trkpt><trkpt lat="43.49626440422466" lon="10.58991695851888"><ele>420.14285714285717</ele><time>2026-04-19T07:20:40.001Z</time></trkpt><trkpt lat="43.49631821529975" lon="10.589870792685083"><ele>420.5714285714286</ele><time>2026-04-19T07:20:42.001Z</time></trkpt><trkpt lat="43.49634942207388" lon="10.589782269446971"><ele>421.0</ele><time>2026-04-19T07:20:46.001Z</time></trkpt><trkpt lat="43.4963872255447" lon="10.589678147966405"><ele>418.50000000000006</ele><time>2026-04-19T07:20:50.001Z</time></trkpt><trkpt lat="43.49642873197258" lon="10.589607888094074"><ele>416.0</ele><time>2026-04-19T07:20:54.001Z</time></trkpt><trkpt lat="43.4964828923165" lon="10.58953109672453"><ele>413.5</ele><time>2026-04-19T07:20:57.001Z</time></trkpt><trkpt lat="43.49647779942645" lon="10.589404463560477"><ele>411.0</ele><time>2026-04-19T07:21:01.001Z</time></trkpt><trkpt lat="43.496460253179954" lon="10.589294148981125"><ele>408.50000000000006</ele><time>2026-04-19T07:21:06.001Z</time></trkpt><trkpt lat="43.4964840462314" lon="10.589200299144295"><ele>406.0</ele><time>2026-04-19T07:21:09.001Z</time></trkpt><trkpt lat="43.49646422784363" lon="10.589106395253598"><ele>406.0</ele><time>2026-04-19T07:21:13.001Z</time></trkpt><trkpt lat="43.49641893235916" lon="10.589041930158205"><ele>406.0</ele><time>2026-04-19T07:21:36.001Z</time></trkpt><trkpt lat="43.49642122149384" lon="10.588949370996435"><ele>406.0</ele><time>2026-04-19T07:21:56.001Z</time></trkpt><trkpt lat="43.496438357915295" lon="10.588858077512278"><ele>406.0</ele><time>2026-04-19T07:22:09.001Z</time></trkpt><trkpt lat="43.496428644984924" lon="10.58871674049487"><ele>406.0</ele><time>2026-04-19T07:22:12Z</time></trkpt><trkpt lat="43.49642707818773" lon="10.5886237255966"><ele>406.0</ele><time>2026-04-19T07:22:15Z</time></trkpt><trkpt lat="43.496378505354386" lon="10.5885521017222"><ele>406.0</ele><time>2026-04-19T07:22:31Z</time></trkpt><trkpt lat="43.49632151100012" lon="10.588478720575448"><ele>406.14285714285717</ele><time>2026-04-19T07:22:34Z</time></trkpt><trkpt lat="43.49625723980876" lon="10.588435972871762"><ele>406.2857142857143</ele><time>2026-04-19T07:23:32Z</time></trkpt><trkpt lat="43.49625981955869" lon="10.58833623522014"><ele>406.42857142857144</ele><time>2026-04-19T07:23:53Z</time></trkpt><trkpt lat="43.49624555100411" lon="10.588225722033291"><ele>406.57142857142856</ele><time>2026-04-19T07:23:57.001Z</time></trkpt><trkpt lat="43.496208296239274" lon="10.588137378953972"><ele>406.7142857142857</ele><time>2026-04-19T07:24:00.001Z</time></trkpt><trkpt lat="43.496169932444374" lon="10.588060383778547"><ele>406.8571428571429</ele><time>2026-04-19T07:24:03.001Z</time></trkpt><trkpt lat="43.49617958384701" lon="10.587961562235504"><ele>407.0</ele><time>2026-04-19T07:24:06.001Z</time></trkpt><trkpt lat="43.49622827519771" lon="10.587896511301748"><ele>404.8571428571429</ele><time>2026-04-19T07:24:08.001Z</time></trkpt><trkpt lat="43.49626043097076" lon="10.587806374274368"><ele>402.7142857142857</ele><time>2026-04-19T07:24:12.001Z</time></trkpt><trkpt lat="43.496270403143065" lon="10.587710811640447"><ele>400.57142857142856</ele><time>2026-04-19T07:24:15.001Z</time></trkpt><trkpt lat="43.49620280430114" lon="10.587684252266193"><ele>398.42857142857144</ele><time>2026-04-19T07:28:44Z</time></trkpt><trkpt lat="43.49619256396944" lon="10.587582604451182"><ele>396.2857142857143</ele><time>2026-04-19T07:28:50Z</time></trkpt><trkpt lat="43.49619617486778" lon="10.587493830474811"><ele>394.14285714285717</ele><time>2026-04-19T07:28:53Z</time></trkpt><trkpt lat="43.496200705759904" lon="10.587403194060323"><ele>392.0</ele><time>2026-04-19T07:28:56Z</time></trkpt><trkpt lat="43.49625209492817" lon="10.587311840956206"><ele>392.0</ele><time>2026-04-19T07:28:59Z</time></trkpt><trkpt lat="43.49624315895496" lon="10.587218616984456"><ele>392.0</ele><time>2026-04-19T07:29:01Z</time></trkpt><trkpt lat="43.49624237187831" lon="10.587127672821314"><ele>392.0</ele><time>2026-04-19T07:29:05Z</time></trkpt><trkpt lat="43.49628630027429" lon="10.587038910030156"><ele>392.0</ele><time>2026-04-19T07:29:08Z</time></trkpt><trkpt lat="43.49631856297213" lon="10.586963565489237"><ele>392.0</ele><time>2026-04-19T07:29:10Z</time></trkpt><trkpt lat="43.49632321417047" lon="10.586869145070354"><ele>392.0</ele><time>2026-04-19T07:29:13Z</time></trkpt><trkpt lat="43.49631882274392" lon="10.58676689784619"><ele>392.0</ele><time>2026-04-19T07:29:16Z</time></trkpt><trkpt lat="43.49628291672692" lon="10.586651825507474"><ele>390.66666666666663</ele><time>2026-04-19T07:29:19Z</time></trkpt><trkpt lat="43.4963007295709" lon="10.586531467757517"><ele>389.3333333333333</ele><time>2026-04-19T07:29:21Z</time></trkpt><trkpt lat="43.49632164758042" lon="10.586423570982463"><ele>388.0</ele><time>2026-04-19T07:29:23Z</time></trkpt><trkpt lat="43.49633266641424" lon="10.586321608863933"><ele>386.66666666666663</ele><time>2026-04-19T07:29:25Z</time></trkpt><trkpt lat="43.49634014158134" lon="10.586214428458527"><ele>385.3333333333333</ele><time>2026-04-19T07:29:27Z</time></trkpt><trkpt lat="43.496308990242426" lon="10.586089365068938"><ele>384.0</ele><time>2026-04-19T07:29:29Z</time></trkpt><trkpt lat="43.49627832213043" lon="10.58597802155048"><ele>383.5</ele><time>2026-04-19T07:29:31Z</time></trkpt><trkpt lat="43.49628048935295" lon="10.585881558143555"><ele>383.0</ele><time>2026-04-19T07:29:33Z</time></trkpt><trkpt lat="43.496236191078296" lon="10.585770786047139"><ele>382.5</ele><time>2026-04-19T07:29:35Z</time></trkpt><trkpt lat="43.49620096969902" lon="10.585597910007102"><ele>382.0</ele><time>2026-04-19T07:29:37Z</time></trkpt><trkpt lat="43.49619999888894" lon="10.585507675308461"><ele>381.5</ele><time>2026-04-19T07:29:38Z</time></trkpt><trkpt lat="43.49618802001198" lon="10.585400061085755"><ele>381.0</ele><time>2026-04-19T07:29:40Z</time></trkpt><trkpt lat="43.496203685682985" lon="10.585269693272757"><ele>377.6666666666667</ele><time>2026-04-19T07:29:42Z</time></trkpt><trkpt lat="43.49619714991473" lon="10.585140367338028"><ele>374.3333333333333</ele><time>2026-04-19T07:29:44Z</time></trkpt><trkpt lat="43.496193668267516" lon="10.585037270570703"><ele>371.0</ele><time>2026-04-19T07:29:46Z</time></trkpt><trkpt lat="43.49617923575849" lon="10.584929330079461"><ele>367.66666666666663</ele><time>2026-04-19T07:29:48Z</time></trkpt><trkpt lat="43.49613263319598" lon="10.584767745588449"><ele>364.3333333333333</ele><time>2026-04-19T07:29:51Z</time></trkpt><trkpt lat="43.49612070177707" lon="10.58468230830952"><ele>361.0</ele><time>2026-04-19T07:29:52Z</time></trkpt><trkpt lat="43.496166289695715" lon="10.584599933242918"><ele>362.0</ele><time>2026-04-19T07:29:53Z</time></trkpt><trkpt lat="43.49619485823925" lon="10.58447585051678"><ele>363.0</ele><time>2026-04-19T07:29:55Z</time></trkpt><trkpt lat="43.49620325380162" lon="10.584378082582045"><ele>364.0</ele><time>2026-04-19T07:29:57Z</time></trkpt><trkpt lat="43.49624497857631" lon="10.584245759251704"><ele>365.0</ele><time>2026-04-19T07:29:59Z</time></trkpt><trkpt lat="43.49624719405276" lon="10.58413388726201"><ele>366.0</ele><time>2026-04-19T07:30:01Z</time></trkpt><trkpt lat="43.496249404838544" lon="10.584042032841444"><ele>367.0</ele><time>2026-04-19T07:30:03Z</time></trkpt><trkpt lat="43.496273858079356" lon="10.583962008514465"><ele>367.0</ele><time>2026-04-19T07:30:05Z</time></trkpt><trkpt lat="43.49631491924838" lon="10.583823616214605"><ele>367.0</ele><time>2026-04-19T07:30:07Z</time></trkpt><trkpt lat="43.49639483971204" lon="10.583738172255604"><ele>367.0</ele><time>2026-04-19T07:30:09Z</time></trkpt><trkpt lat="43.49648255743138" lon="10.58363426731634"><ele>367.0</ele><time>2026-04-19T07:30:11Z</time></trkpt><trkpt lat="43.49652710000365" lon="10.583497918646591"><ele>367.0</ele><time>2026-04-19T07:30:13Z</time></trkpt><trkpt lat="43.496597261190544" lon="10.583381024335056"><ele>365.8</ele><time>2026-04-19T07:30:15Z</time></trkpt><trkpt lat="43.49667697417277" lon="10.58326525699032"><ele>364.6</ele><time>2026-04-19T07:30:17Z</time></trkpt><trkpt lat="43.496723386050945" lon="10.583206275709452"><ele>363.40000000000003</ele><time>2026-04-19T07:30:18Z</time></trkpt><trkpt lat="43.49680650521593" lon="10.583085488466288"><ele>362.20000000000005</ele><time>2026-04-19T07:30:20Z</time></trkpt><trkpt lat="43.49684814775524" lon="10.583017861125509"><ele>361.0</ele><time>2026-04-19T07:30:21Z</time></trkpt><trkpt lat="43.49691256280354" lon="10.582883294160627"><ele>361.4</ele><time>2026-04-19T07:30:23Z</time></trkpt><trkpt lat="43.49695714432234" lon="10.582752118743933"><ele>361.8</ele><time>2026-04-19T07:30:25Z</time></trkpt><trkpt lat="43.496982545067254" lon="10.582660109081212"><ele>362.2</ele><time>2026-04-19T07:30:26Z</time></trkpt><trkpt lat="43.49701279547618" lon="10.582562201239785"><ele>362.59999999999997</ele><time>2026-04-19T07:30:27Z</time></trkpt><trkpt lat="43.49703543206147" lon="10.582413978808663"><ele>363.0</ele><time>2026-04-19T07:30:29Z</time></trkpt><trkpt lat="43.49708055143697" lon="10.582278841611197"><ele>362.79999999999995</ele><time>2026-04-19T07:30:31Z</time></trkpt><trkpt lat="43.497100607302315" lon="10.582189714451257"><ele>362.6</ele><time>2026-04-19T07:30:32Z</time></trkpt><trkpt lat="43.49714801664319" lon="10.58207902060339"><ele>362.4</ele><time>2026-04-19T07:30:34Z</time></trkpt><trkpt lat="43.49719148946981" lon="10.581950497033851"><ele>362.20000000000005</ele><time>2026-04-19T07:30:36Z</time></trkpt><trkpt lat="43.49723175341705" lon="10.581800385726089"><ele>362.0</ele><time>2026-04-19T07:30:38Z</time></trkpt><trkpt lat="43.49727842793759" lon="10.581685704349917"><ele>361.0</ele><time>2026-04-19T07:30:40Z</time></trkpt><trkpt lat="43.4973201834479" lon="10.581579348753076"><ele>360.0</ele><time>2026-04-19T07:30:42Z</time></trkpt><trkpt lat="43.49734941727296" lon="10.581385800725922"><ele>359.0</ele><time>2026-04-19T07:30:44Z</time></trkpt><trkpt lat="43.49739222002683" lon="10.581320773995456"><ele>358.0</ele><time>2026-04-19T07:30:45Z</time></trkpt><trkpt lat="43.497479345343805" lon="10.581168719029664"><ele>357.0</ele><time>2026-04-19T07:30:47Z</time></trkpt><trkpt lat="43.49747930650453" lon="10.581079803541181"><ele>356.0</ele><time>2026-04-19T07:30:48Z</time></trkpt><trkpt lat="43.49754409137578" lon="10.580923781547618"><ele>355.0</ele><time>2026-04-19T07:30:50Z</time></trkpt><trkpt lat="43.497590648699706" lon="10.58083913002796"><ele>354.0</ele><time>2026-04-19T07:30:51Z</time></trkpt><trkpt lat="43.49761966376791" lon="10.580759412543756"><ele>353.0</ele><time>2026-04-19T07:30:52Z</time></trkpt><trkpt lat="43.49762009731271" lon="10.580574385258606"><ele>352.0</ele><time>2026-04-19T07:30:54Z</time></trkpt><trkpt lat="43.497589191478525" lon="10.580432262501926"><ele>350.8333333333333</ele><time>2026-04-19T07:30:55Z</time></trkpt><trkpt lat="43.497573096527454" lon="10.580340903771152"><ele>349.66666666666663</ele><time>2026-04-19T07:30:56Z</time></trkpt><trkpt lat="43.49756834748463" lon="10.580251505681899"><ele>348.5</ele><time>2026-04-19T07:30:57Z</time></trkpt><trkpt lat="43.497599035976286" lon="10.58012402391034"><ele>347.3333333333333</ele><time>2026-04-19T07:30:59Z</time></trkpt><trkpt lat="43.49761216184421" lon="10.580015610697144"><ele>346.1666666666667</ele><time>2026-04-19T07:31:03Z</time></trkpt><trkpt lat="43.497617772296415" lon="10.579903395283036"><ele>345.0</ele><time>2026-04-19T07:31:10Z</time></trkpt><trkpt lat="43.49765103856797" lon="10.57979133745543"><ele>345.0</ele><time>2026-04-19T07:31:12Z</time></trkpt><trkpt lat="43.497703492318976" lon="10.57966243182352"><ele>345.0</ele><time>2026-04-19T07:31:14Z</time></trkpt><trkpt lat="43.497747303576595" lon="10.579592771825535"><ele>345.0</ele><time>2026-04-19T07:31:15Z</time></trkpt><trkpt lat="43.49780522446302" lon="10.579494918833197"><ele>345.0</ele><time>2026-04-19T07:31:17Z</time></trkpt><trkpt lat="43.49786215794601" lon="10.579395885865388"><ele>345.0</ele><time>2026-04-19T07:31:19Z</time></trkpt><trkpt lat="43.49793759831698" lon="10.57931148997466"><ele>345.0</ele><time>2026-04-19T07:31:21Z</time></trkpt><trkpt lat="43.49800213307025" lon="10.579193267569629"><ele>345.0</ele><time>2026-04-19T07:31:23Z</time></trkpt><trkpt lat="43.49806404935434" lon="10.579088510801256"><ele>345.0</ele><time>2026-04-19T07:31:25Z</time></trkpt><trkpt lat="43.498138254838594" lon="10.578996796382295"><ele>345.0</ele><time>2026-04-19T07:31:27Z</time></trkpt><trkpt lat="43.49820097613656" lon="10.578886030852194"><ele>345.0</ele><time>2026-04-19T07:31:29Z</time></trkpt><trkpt lat="43.498288485123304" lon="10.578822508154254"><ele>345.0</ele><time>2026-04-19T07:31:31Z</time></trkpt><trkpt lat="43.49835728118136" lon="10.578725922357714"><ele>345.0</ele><time>2026-04-19T07:31:33Z</time></trkpt><trkpt lat="43.498385106223395" lon="10.578577028829308"><ele>345.0</ele><time>2026-04-19T07:31:35Z</time></trkpt><trkpt lat="43.498434665863094" lon="10.578431590131652"><ele>345.0</ele><time>2026-04-19T07:31:37Z</time></trkpt><trkpt lat="43.49841581353106" lon="10.578305630033677"><ele>345.0</ele><time>2026-04-19T07:31:39Z</time></trkpt><trkpt lat="43.498462817106095" lon="10.578185353785912"><ele>342.6666666666667</ele><time>2026-04-19T07:31:41Z</time></trkpt><trkpt lat="43.49854418830595" lon="10.578139164785492"><ele>340.3333333333333</ele><time>2026-04-19T07:31:43Z</time></trkpt><trkpt lat="43.49858531347192" lon="10.578004501025388"><ele>338.0</ele><time>2026-04-19T07:31:45Z</time></trkpt><trkpt lat="43.49856578082266" lon="10.577857851223444"><ele>335.66666666666663</ele><time>2026-04-19T07:31:47Z</time></trkpt><trkpt lat="43.498554683664" lon="10.57777098844452"><ele>333.3333333333333</ele><time>2026-04-19T07:31:48Z</time></trkpt><trkpt lat="43.49851370563089" lon="10.577691661712507"><ele>331.0</ele><time>2026-04-19T07:31:49Z</time></trkpt><trkpt lat="43.498502849408474" lon="10.577603232443257"><ele>328.40000000000003</ele><time>2026-04-19T07:31:51Z</time></trkpt><trkpt lat="43.498482497156026" lon="10.577476139398621"><ele>325.8</ele><time>2026-04-19T07:31:54Z</time></trkpt><trkpt lat="43.498438661449796" lon="10.577349264995265"><ele>323.20000000000005</ele><time>2026-04-19T07:31:56Z</time></trkpt><trkpt lat="43.49842441322943" lon="10.57726408676752"><ele>320.6</ele><time>2026-04-19T07:31:58Z</time></trkpt><trkpt lat="43.498437123109554" lon="10.57713302678177"><ele>318.0</ele><time>2026-04-19T07:32:00Z</time></trkpt><trkpt lat="43.49839213086156" lon="10.57676282764149"><ele>316.4</ele><time>2026-04-19T07:32:07Z</time></trkpt><trkpt lat="43.49837132003507" lon="10.57657289600181"><ele>314.8</ele><time>2026-04-19T07:32:08Z</time></trkpt><trkpt lat="43.49835604438769" lon="10.57644584385337"><ele>313.2</ele><time>2026-04-19T07:32:09Z</time></trkpt><trkpt lat="43.49836952500073" lon="10.576328469733982"><ele>311.6</ele><time>2026-04-19T07:32:10Z</time></trkpt><trkpt lat="43.49836477575515" lon="10.576193668243596"><ele>310.0</ele><time>2026-04-19T07:32:11Z</time></trkpt><trkpt lat="43.49838223464087" lon="10.576044066028059"><ele>309.66666666666663</ele><time>2026-04-19T07:32:12Z</time></trkpt><trkpt lat="43.49838100692381" lon="10.575926935018975"><ele>309.3333333333333</ele><time>2026-04-19T07:32:13Z</time></trkpt><trkpt lat="43.49838208327618" lon="10.575792488911164"><ele>309.0</ele><time>2026-04-19T07:32:14Z</time></trkpt><trkpt lat="43.498391621962234" lon="10.575676977310255"><ele>308.6666666666667</ele><time>2026-04-19T07:32:15Z</time></trkpt><trkpt lat="43.498403338397885" lon="10.57556647562627"><ele>308.33333333333337</ele><time>2026-04-19T07:32:16Z</time></trkpt><trkpt lat="43.498416533461956" lon="10.57544560033576"><ele>308.0</ele><time>2026-04-19T07:32:17Z</time></trkpt><trkpt lat="43.49843905275686" lon="10.575335186786232"><ele>307.83333333333337</ele><time>2026-04-19T07:32:18Z</time></trkpt><trkpt lat="43.4984659164863" lon="10.57522850448276"><ele>307.6666666666667</ele><time>2026-04-19T07:32:19Z</time></trkpt><trkpt lat="43.49848733025858" lon="10.575141788621595"><ele>307.5</ele><time>2026-04-19T07:32:20Z</time></trkpt><trkpt lat="43.49853192700108" lon="10.575051199252604"><ele>307.3333333333333</ele><time>2026-04-19T07:32:21Z</time></trkpt><trkpt lat="43.49859377460053" lon="10.574942789534864"><ele>307.16666666666663</ele><time>2026-04-19T07:32:22Z</time></trkpt><trkpt lat="43.49864605250655" lon="10.574845814324153"><ele>307.0</ele><time>2026-04-19T07:32:23Z</time></trkpt><trkpt lat="43.498684638912465" lon="10.574753829052012"><ele>307.0</ele><time>2026-04-19T07:32:24Z</time></trkpt><trkpt lat="43.49873719331468" lon="10.57468576163036"><ele>307.0</ele><time>2026-04-19T07:32:25Z</time></trkpt><trkpt lat="43.49879508830253" lon="10.574622256595964"><ele>307.0</ele><time>2026-04-19T07:32:26Z</time></trkpt><trkpt lat="43.49886623439963" lon="10.574505109800715"><ele>307.0</ele><time>2026-04-19T07:32:28Z</time></trkpt><trkpt lat="43.498936616644805" lon="10.574412958289374"><ele>307.0</ele><time>2026-04-19T07:32:30Z</time></trkpt><trkpt lat="43.49898521693079" lon="10.574291673918307"><ele>306.5</ele><time>2026-04-19T07:32:32Z</time></trkpt><trkpt lat="43.49904039135178" lon="10.574166879331859"><ele>306.0</ele><time>2026-04-19T07:32:34Z</time></trkpt><trkpt lat="43.4990730825897" lon="10.574081814382907"><ele>305.5</ele><time>2026-04-19T07:32:35Z</time></trkpt><trkpt lat="43.4991103668555" lon="10.574005180056197"><ele>305.0</ele><time>2026-04-19T07:32:36Z</time></trkpt><trkpt lat="43.499171461296974" lon="10.573865750450077"><ele>304.5</ele><time>2026-04-19T07:32:38Z</time></trkpt><trkpt lat="43.499245872984" lon="10.57380027428512"><ele>304.0</ele><time>2026-04-19T07:32:40Z</time></trkpt><trkpt lat="43.49927672249372" lon="10.573667687157563"><ele>302.4</ele><time>2026-04-19T07:32:42Z</time></trkpt><trkpt lat="43.499289574171925" lon="10.57355774112892"><ele>300.79999999999995</ele><time>2026-04-19T07:32:44Z</time></trkpt><trkpt lat="43.49928499182726" lon="10.573446715964883"><ele>299.20000000000005</ele><time>2026-04-19T07:32:46Z</time></trkpt><trkpt lat="43.499276093350254" lon="10.57332953419375"><ele>297.6</ele><time>2026-04-19T07:32:48Z</time></trkpt><trkpt lat="43.49924367490446" lon="10.573208693718032"><ele>296.0</ele><time>2026-04-19T07:32:51Z</time></trkpt><trkpt lat="43.499165594853224" lon="10.573101692291296"><ele>296.0</ele><time>2026-04-19T07:32:53Z</time></trkpt><trkpt lat="43.4991112855861" lon="10.57299655400825"><ele>296.0</ele><time>2026-04-19T07:32:55Z</time></trkpt><trkpt lat="43.49908506457846" lon="10.572888110075162"><ele>296.0</ele><time>2026-04-19T07:32:59Z</time></trkpt><trkpt lat="43.49905539620649" lon="10.57275294813223"><ele>296.0</ele><time>2026-04-19T07:33:02Z</time></trkpt><trkpt lat="43.499028031800556" lon="10.572633546125418"><ele>296.0</ele><time>2026-04-19T07:33:04Z</time></trkpt><trkpt lat="43.49901173640131" lon="10.572526683456392"><ele>296.0</ele><time>2026-04-19T07:33:07Z</time></trkpt><trkpt lat="43.49902765033637" lon="10.572427305029443"><ele>291.5</ele><time>2026-04-19T07:33:29Z</time></trkpt><trkpt lat="43.499035416371576" lon="10.572225740471051"><ele>287.0</ele><time>2026-04-19T07:33:31Z</time></trkpt><trkpt lat="43.499036111928525" lon="10.572053457311382"><ele>282.5</ele><time>2026-04-19T07:33:33Z</time></trkpt><trkpt lat="43.499009753187565" lon="10.571954369961242"><ele>278.0</ele><time>2026-04-19T07:33:34Z</time></trkpt><trkpt lat="43.499000290933196" lon="10.571800121991348"><ele>276.6666666666667</ele><time>2026-04-19T07:33:36Z</time></trkpt><trkpt lat="43.49901092389736" lon="10.571692523166094"><ele>275.33333333333337</ele><time>2026-04-19T07:33:37Z</time></trkpt><trkpt lat="43.49902248595732" lon="10.571568080988348"><ele>274.0</ele><time>2026-04-19T07:33:38Z</time></trkpt><trkpt lat="43.49903086400676" lon="10.57146935741905"><ele>272.6666666666667</ele><time>2026-04-19T07:33:39Z</time></trkpt><trkpt lat="43.499038795262415" lon="10.571373017635974"><ele>271.3333333333333</ele><time>2026-04-19T07:33:40Z</time></trkpt><trkpt lat="43.499025279937825" lon="10.571270123439726"><ele>270.0</ele><time>2026-04-19T07:33:41Z</time></trkpt><trkpt lat="43.498995651882744" lon="10.57113043263974"><ele>270.0</ele><time>2026-04-19T07:33:42Z</time></trkpt><trkpt lat="43.49898508789632" lon="10.570978881895776"><ele>270.0</ele><time>2026-04-19T07:33:43Z</time></trkpt><trkpt lat="43.498997893586555" lon="10.570796445900168"><ele>270.0</ele><time>2026-04-19T07:33:44Z</time></trkpt><trkpt lat="43.49901842160864" lon="10.570637345634019"><ele>270.0</ele><time>2026-04-19T07:33:45Z</time></trkpt><trkpt lat="43.49903824341348" lon="10.570534496802562"><ele>270.0</ele><time>2026-04-19T07:33:46Z</time></trkpt><trkpt lat="43.49902247143643" lon="10.570413547855534"><ele>270.0</ele><time>2026-04-19T07:33:48Z</time></trkpt><trkpt lat="43.49897495852929" lon="10.570345826649845"><ele>270.0</ele><time>2026-04-19T07:33:50Z</time></trkpt><trkpt lat="43.49889564734607" lon="10.570385793314097"><ele>270.0</ele><time>2026-04-19T07:33:53Z</time></trkpt><trkpt lat="43.498849752901094" lon="10.5704685969815"><ele>270.0</ele><time>2026-04-19T07:33:56Z</time></trkpt><trkpt lat="43.49878885902486" lon="10.570392970768605"><ele>270.0</ele><time>2026-04-19T07:33:59Z</time></trkpt><trkpt lat="43.49884194526364" lon="10.570242242510359"><ele>270.0</ele><time>2026-04-19T07:34:01Z</time></trkpt><trkpt lat="43.49888196683803" lon="10.570128509052076"><ele>268.6</ele><time>2026-04-19T07:34:02Z</time></trkpt><trkpt lat="43.49891256718932" lon="10.569999916626312"><ele>267.2</ele><time>2026-04-19T07:34:03Z</time></trkpt><trkpt lat="43.498938164735335" lon="10.569883452139022"><ele>265.8</ele><time>2026-04-19T07:34:04Z</time></trkpt><trkpt lat="43.49895452953384" lon="10.569771521658344"><ele>264.4</ele><time>2026-04-19T07:34:05Z</time></trkpt><trkpt lat="43.49897246799702" lon="10.569682389591703"><ele>263.0</ele><time>2026-04-19T07:34:06Z</time></trkpt><trkpt lat="43.49900939003989" lon="10.569532820085952"><ele>260.1666666666667</ele><time>2026-04-19T07:34:08Z</time></trkpt><trkpt lat="43.49908387844434" lon="10.56944845864785"><ele>257.33333333333337</ele><time>2026-04-19T07:34:10Z</time></trkpt><trkpt lat="43.49916773051976" lon="10.569424813522518"><ele>254.5</ele><time>2026-04-19T07:34:12Z</time></trkpt><trkpt lat="43.49920774327456" lon="10.569338398684716"><ele>251.66666666666669</ele><time>2026-04-19T07:34:15Z</time></trkpt><trkpt lat="43.499159762045004" lon="10.569275230178697"><ele>248.83333333333334</ele><time>2026-04-19T07:34:17Z</time></trkpt><trkpt lat="43.499067453794005" lon="10.569239926538339"><ele>246.0</ele><time>2026-04-19T07:34:19Z</time></trkpt><trkpt lat="43.49896302296125" lon="10.569278553209482"><ele>246.0</ele><time>2026-04-19T07:34:21Z</time></trkpt><trkpt lat="43.498902732861495" lon="10.569330969236164"><ele>246.0</ele><time>2026-04-19T07:34:23Z</time></trkpt><trkpt lat="43.49883623488914" lon="10.569336083383867"><ele>246.0</ele><time>2026-04-19T07:34:25Z</time></trkpt><trkpt lat="43.498799152316145" lon="10.569249951070624"><ele>246.0</ele><time>2026-04-19T07:34:27Z</time></trkpt><trkpt lat="43.49885260862307" lon="10.569110808003103"><ele>246.0</ele><time>2026-04-19T07:34:29Z</time></trkpt><trkpt lat="43.498875625533" lon="10.569012447878164"><ele>246.0</ele><time>2026-04-19T07:34:32Z</time></trkpt><trkpt lat="43.49879402888703" lon="10.569047027341698"><ele>242.83333333333334</ele><time>2026-04-19T07:34:35Z</time></trkpt><trkpt lat="43.49871396892546" lon="10.569146774272767"><ele>239.66666666666669</ele><time>2026-04-19T07:34:37Z</time></trkpt><trkpt lat="43.49864086590597" lon="10.569257363685523"><ele>236.5</ele><time>2026-04-19T07:34:39Z</time></trkpt><trkpt lat="43.49859167952862" lon="10.569361036765864"><ele>233.33333333333334</ele><time>2026-04-19T07:34:41Z</time></trkpt><trkpt lat="43.49855271139371" lon="10.569432840302397"><ele>230.16666666666669</ele><time>2026-04-19T07:34:43Z</time></trkpt><trkpt lat="43.49848124063404" lon="10.5694429012667"><ele>227.0</ele><time>2026-04-19T07:34:46Z</time></trkpt><trkpt lat="43.49847532471688" lon="10.569353195812464"><ele>227.0</ele><time>2026-04-19T07:34:48Z</time></trkpt><trkpt lat="43.498573505034706" lon="10.569198071203566"><ele>227.0</ele><time>2026-04-19T07:34:50Z</time></trkpt><trkpt lat="43.49862800719953" lon="10.569092396462684"><ele>227.0</ele><time>2026-04-19T07:34:51Z</time></trkpt><trkpt lat="43.4986682866267" lon="10.568985760895092"><ele>227.0</ele><time>2026-04-19T07:34:52Z</time></trkpt><trkpt lat="43.498706813558286" lon="10.568904694983162"><ele>227.0</ele><time>2026-04-19T07:34:53Z</time></trkpt><trkpt lat="43.49874894859023" lon="10.568828782619759"><ele>226.66666666666669</ele><time>2026-04-19T07:34:54Z</time></trkpt><trkpt lat="43.498797703704525" lon="10.568768849834534"><ele>226.33333333333334</ele><time>2026-04-19T07:34:55Z</time></trkpt><trkpt lat="43.4988689477487" lon="10.568702068624722"><ele>226.0</ele><time>2026-04-19T07:34:56Z</time></trkpt><trkpt lat="43.49896072396427" lon="10.568647327203431"><ele>225.66666666666669</ele><time>2026-04-19T07:34:57Z</time></trkpt><trkpt lat="43.499043948143175" lon="10.568609098104055"><ele>225.33333333333334</ele><time>2026-04-19T07:34:58Z</time></trkpt><trkpt lat="43.499110807116395" lon="10.568562410969134"><ele>225.0</ele><time>2026-04-19T07:34:59Z</time></trkpt><trkpt lat="43.499169592287" lon="10.568501520050136"><ele>225.0</ele><time>2026-04-19T07:35:00Z</time></trkpt><trkpt lat="43.49923095854785" lon="10.568421938179132"><ele>225.0</ele><time>2026-04-19T07:35:01Z</time></trkpt><trkpt lat="43.499286736048894" lon="10.568345966438345"><ele>225.0</ele><time>2026-04-19T07:35:02Z</time></trkpt><trkpt lat="43.499342253878226" lon="10.568272199793816"><ele>225.0</ele><time>2026-04-19T07:35:03Z</time></trkpt><trkpt lat="43.49940488318281" lon="10.568220570403753"><ele>225.0</ele><time>2026-04-19T07:35:04Z</time></trkpt><trkpt lat="43.49945179959008" lon="10.568143827687784"><ele>225.0</ele><time>2026-04-19T07:35:05Z</time></trkpt><trkpt lat="43.499490606698785" lon="10.56807259610494"><ele>225.0</ele><time>2026-04-19T07:35:06Z</time></trkpt><trkpt lat="43.4995142780472" lon="10.56797427778782"><ele>225.0</ele><time>2026-04-19T07:35:07Z</time></trkpt><trkpt lat="43.499578678374164" lon="10.567833799837274"><ele>225.0</ele><time>2026-04-19T07:35:09Z</time></trkpt><trkpt lat="43.499610050448496" lon="10.567755898611276"><ele>225.0</ele><time>2026-04-19T07:35:10Z</time></trkpt><trkpt lat="43.49964244320328" lon="10.567666668414207"><ele>225.0</ele><time>2026-04-19T07:35:11Z</time></trkpt><trkpt lat="43.49967755272714" lon="10.56757404015693"><ele>225.0</ele><time>2026-04-19T07:35:12Z</time></trkpt><trkpt lat="43.49970740009416" lon="10.567496775461537"><ele>220.0</ele><time>2026-04-19T07:35:13Z</time></trkpt><trkpt lat="43.49977577549869" lon="10.56735422893321"><ele>215.0</ele><time>2026-04-19T07:35:15Z</time></trkpt><trkpt lat="43.49984238682356" lon="10.567228752477346"><ele>210.0</ele><time>2026-04-19T07:35:17Z</time></trkpt><trkpt lat="43.49989944153064" lon="10.567084673458105"><ele>205.0</ele><time>2026-04-19T07:35:19Z</time></trkpt><trkpt lat="43.49997290346016" lon="10.566978378198453"><ele>202.0</ele><time>2026-04-19T07:35:21Z</time></trkpt><trkpt lat="43.50008831846359" lon="10.566905158360894"><ele>199.0</ele><time>2026-04-19T07:35:23Z</time></trkpt><trkpt lat="43.500188810698624" lon="10.566820224948117"><ele>196.0</ele><time>2026-04-19T07:35:25Z</time></trkpt><trkpt lat="43.50024136138282" lon="10.566766245354392"><ele>193.0</ele><time>2026-04-19T07:35:26Z</time></trkpt><trkpt lat="43.50028143517692" lon="10.566682153989994"><ele>190.0</ele><time>2026-04-19T07:35:27Z</time></trkpt><trkpt lat="43.500355207844756" lon="10.566594097306684"><ele>190.0</ele><time>2026-04-19T07:35:29Z</time></trkpt><trkpt lat="43.500396047837015" lon="10.566454901469886"><ele>190.0</ele><time>2026-04-19T07:35:31Z</time></trkpt><trkpt lat="43.5003970899176" lon="10.566361060382812"><ele>190.0</ele><time>2026-04-19T07:35:33Z</time></trkpt><trkpt lat="43.50046192854083" lon="10.566354536321956"><ele>190.0</ele><time>2026-04-19T07:35:35Z</time></trkpt><trkpt lat="43.500522578431195" lon="10.566451662522233"><ele>190.0</ele><time>2026-04-19T07:35:37Z</time></trkpt><trkpt lat="43.50055446330003" lon="10.566604828751395"><ele>188.33333333333334</ele><time>2026-04-19T07:35:39Z</time></trkpt><trkpt lat="43.50057956265304" lon="10.566706252983018"><ele>186.66666666666669</ele><time>2026-04-19T07:35:40Z</time></trkpt><trkpt lat="43.50058212001126" lon="10.566859651425759"><ele>185.0</ele><time>2026-04-19T07:35:42Z</time></trkpt><trkpt lat="43.5005345991442" lon="10.56694228025119"><ele>183.33333333333334</ele><time>2026-04-19T07:35:43Z</time></trkpt><trkpt lat="43.500560422856594" lon="10.567022940271782"><ele>181.66666666666666</ele><time>2026-04-19T07:35:46Z</time></trkpt><trkpt lat="43.50064770166071" lon="10.566971828036573"><ele>180.0</ele><time>2026-04-19T07:35:48Z</time></trkpt><trkpt lat="43.500717643360446" lon="10.56689434897862"><ele>180.0</ele><time>2026-04-19T07:35:49Z</time></trkpt><trkpt lat="43.500785039543366" lon="10.566805832403379"><ele>180.0</ele><time>2026-04-19T07:35:50Z</time></trkpt><trkpt lat="43.5008327612384" lon="10.566730241752115"><ele>180.0</ele><time>2026-04-19T07:35:51Z</time></trkpt><trkpt lat="43.500871908125" lon="10.566649081784186"><ele>180.0</ele><time>2026-04-19T07:35:52Z</time></trkpt><trkpt lat="43.50090243212899" lon="10.566507009358956"><ele>180.0</ele><time>2026-04-19T07:35:54Z</time></trkpt><trkpt lat="43.50087370562256" lon="10.566355347556883"><ele>180.0</ele><time>2026-04-19T07:35:56Z</time></trkpt><trkpt lat="43.500819243456704" lon="10.566292103208276"><ele>180.0</ele><time>2026-04-19T07:35:57Z</time></trkpt><trkpt lat="43.50077662382435" lon="10.566213299959188"><ele>180.0</ele><time>2026-04-19T07:35:58Z</time></trkpt><trkpt lat="43.500813434877905" lon="10.56602546110033"><ele>180.0</ele><time>2026-04-19T07:36:00Z</time></trkpt><trkpt lat="43.5007833850518" lon="10.565908483713217"><ele>180.0</ele><time>2026-04-19T07:36:02Z</time></trkpt><trkpt lat="43.50075269566959" lon="10.565797581753328"><ele>178.66666666666666</ele><time>2026-04-19T07:36:04Z</time></trkpt><trkpt lat="43.50071660297614" lon="10.56571576075973"><ele>177.33333333333334</ele><time>2026-04-19T07:36:05Z</time></trkpt><trkpt lat="43.50065198467703" lon="10.565654978176484"><ele>176.0</ele><time>2026-04-19T07:36:06Z</time></trkpt><trkpt lat="43.5005867177658" lon="10.565573242592261"><ele>174.66666666666669</ele><time>2026-04-19T07:36:08Z</time></trkpt><trkpt lat="43.50053098878821" lon="10.565503451970672"><ele>173.33333333333334</ele><time>2026-04-19T07:36:10Z</time></trkpt><trkpt lat="43.50048128366377" lon="10.565450008629265"><ele>172.0</ele><time>2026-04-19T07:36:11Z</time></trkpt><trkpt lat="43.50022773156607" lon="10.565612762939141"><ele>172.0</ele><time>2026-04-19T07:36:13Z</time></trkpt><trkpt lat="43.50016623580062" lon="10.56550150708654"><ele>172.0</ele><time>2026-04-19T07:36:15Z</time></trkpt><trkpt lat="43.500171686530834" lon="10.565391282128214"><ele>172.0</ele><time>2026-04-19T07:36:16Z</time></trkpt><trkpt lat="43.50019106650427" lon="10.56528241839944"><ele>172.0</ele><time>2026-04-19T07:36:17Z</time></trkpt><trkpt lat="43.500230704147405" lon="10.565152723029545"><ele>172.0</ele><time>2026-04-19T07:36:19Z</time></trkpt><trkpt lat="43.50029343637197" lon="10.565105468423837"><ele>172.0</ele><time>2026-04-19T07:36:20Z</time></trkpt><trkpt lat="43.500357522383226" lon="10.565071960155473"><ele>172.0</ele><time>2026-04-19T07:36:21Z</time></trkpt><trkpt lat="43.500409261424196" lon="10.564966612491563"><ele>172.0</ele><time>2026-04-19T07:36:23Z</time></trkpt><trkpt lat="43.50039964684537" lon="10.564842049191387"><ele>172.0</ele><time>2026-04-19T07:36:25Z</time></trkpt><trkpt lat="43.50036145949955" lon="10.564765389442325"><ele>172.0</ele><time>2026-04-19T07:36:27Z</time></trkpt><trkpt lat="43.50032072775924" lon="10.564684324675113"><ele>172.0</ele><time>2026-04-19T07:36:30Z</time></trkpt><trkpt lat="43.500252254059184" lon="10.564585525503986"><ele>172.0</ele><time>2026-04-19T07:36:32Z</time></trkpt><trkpt lat="43.50021704337683" lon="10.564507795249613"><ele>172.0</ele><time>2026-04-19T07:36:33Z</time></trkpt><trkpt lat="43.499865636417816" lon="10.564581863167891"><ele>172.0</ele><time>2026-04-19T07:36:35Z</time></trkpt><trkpt lat="43.499784940552544" lon="10.56451790326572"><ele>172.0</ele><time>2026-04-19T07:36:36Z</time></trkpt><trkpt lat="43.49972669133348" lon="10.564457732979374"><ele>172.33333333333334</ele><time>2026-04-19T07:36:37Z</time></trkpt><trkpt lat="43.4996522284055" lon="10.564349704224565"><ele>172.66666666666669</ele><time>2026-04-19T07:36:39Z</time></trkpt><trkpt lat="43.49965635103006" lon="10.564232551832234"><ele>173.0</ele><time>2026-04-19T07:36:41Z</time></trkpt><trkpt lat="43.499735681828334" lon="10.564153460233152"><ele>173.33333333333334</ele><time>2026-04-19T07:36:43Z</time></trkpt><trkpt lat="43.49979721097982" lon="10.5641979238507"><ele>173.66666666666666</ele><time>2026-04-19T07:36:47.999Z</time></trkpt><trkpt lat="43.49987705424145" lon="10.564177666262779"><ele>174.0</ele><time>2026-04-19T07:36:50.999Z</time></trkpt><trkpt lat="43.49992959629449" lon="10.564064071281852"><ele>174.0</ele><time>2026-04-19T07:36:52.999Z</time></trkpt><trkpt lat="43.49993108016315" lon="10.563942426267731"><ele>174.0</ele><time>2026-04-19T07:36:53.999Z</time></trkpt><trkpt lat="43.49991842207898" lon="10.563789438930387"><ele>174.0</ele><time>2026-04-19T07:36:54.999Z</time></trkpt><trkpt lat="43.499922617305224" lon="10.563640136142707"><ele>174.0</ele><time>2026-04-19T07:36:55.999Z</time></trkpt><trkpt lat="43.49996242784885" lon="10.563497791474886"><ele>174.0</ele><time>2026-04-19T07:36:56.999Z</time></trkpt><trkpt lat="43.499993947998945" lon="10.563382951993463"><ele>174.6</ele><time>2026-04-19T07:36:58Z</time></trkpt><trkpt lat="43.50002410391959" lon="10.5632698763496"><ele>175.2</ele><time>2026-04-19T07:36:59Z</time></trkpt><trkpt lat="43.50004142162916" lon="10.56312356396188"><ele>175.79999999999998</ele><time>2026-04-19T07:37:00Z</time></trkpt><trkpt lat="43.50004499639685" lon="10.562976371343193"><ele>176.39999999999998</ele><time>2026-04-19T07:37:01Z</time></trkpt><trkpt lat="43.50004660228038" lon="10.562859253517098"><ele>177.0</ele><time>2026-04-19T07:37:02Z</time></trkpt><trkpt lat="43.50010426160856" lon="10.5627030942946"><ele>178.0</ele><time>2026-04-19T07:37:04Z</time></trkpt><trkpt lat="43.50017747271242" lon="10.562593429971354"><ele>179.0</ele><time>2026-04-19T07:37:05Z</time></trkpt><trkpt lat="43.50028199893259" lon="10.562455737962708"><ele>180.0</ele><time>2026-04-19T07:37:06Z</time></trkpt><trkpt lat="43.50037207572896" lon="10.562353124366313"><ele>181.0</ele><time>2026-04-19T07:37:07Z</time></trkpt><trkpt lat="43.50045030751415" lon="10.56228772009131"><ele>177.5</ele><time>2026-04-19T07:37:08Z</time></trkpt><trkpt lat="43.50051817062068" lon="10.562233345362321"><ele>174.0</ele><time>2026-04-19T07:37:09Z</time></trkpt><trkpt lat="43.500568259327615" lon="10.562168739650149"><ele>170.5</ele><time>2026-04-19T07:37:10Z</time></trkpt><trkpt lat="43.500600217373176" lon="10.562042641572788"><ele>167.0</ele><time>2026-04-19T07:37:12Z</time></trkpt><trkpt lat="43.50061318886329" lon="10.561950420014197"><ele>163.5</ele><time>2026-04-19T07:37:13Z</time></trkpt><trkpt lat="43.50062497982293" lon="10.561831753597268"><ele>160.0</ele><time>2026-04-19T07:37:14Z</time></trkpt><trkpt lat="43.50065898683226" lon="10.56169036098012"><ele>159.5</ele><time>2026-04-19T07:37:15Z</time></trkpt><trkpt lat="43.500680764521526" lon="10.56153431672982"><ele>159.0</ele><time>2026-04-19T07:37:16Z</time></trkpt><trkpt lat="43.50069377604675" lon="10.561365782443303"><ele>158.5</ele><time>2026-04-19T07:37:17Z</time></trkpt><trkpt lat="43.5007035528031" lon="10.561206095479056"><ele>158.0</ele><time>2026-04-19T07:37:18Z</time></trkpt><trkpt lat="43.50071740750465" lon="10.561036639457003"><ele>157.20000000000002</ele><time>2026-04-19T07:37:19Z</time></trkpt><trkpt lat="43.50073298941194" lon="10.560881919205078"><ele>156.4</ele><time>2026-04-19T07:37:20Z</time></trkpt><trkpt lat="43.5007464049481" lon="10.56074870968665"><ele>155.60000000000002</ele><time>2026-04-19T07:37:21Z</time></trkpt><trkpt lat="43.5007586319302" lon="10.560647722038368"><ele>154.8</ele><time>2026-04-19T07:37:22Z</time></trkpt><trkpt lat="43.500772832613464" lon="10.560522720838323"><ele>154.0</ele><time>2026-04-19T07:37:23Z</time></trkpt><trkpt lat="43.50080128588288" lon="10.560361138677733"><ele>153.75</ele><time>2026-04-19T07:37:24Z</time></trkpt><trkpt lat="43.50084154724714" lon="10.560192021168142"><ele>153.5</ele><time>2026-04-19T07:37:25Z</time></trkpt><trkpt lat="43.50088522854097" lon="10.560016962564264"><ele>153.25</ele><time>2026-04-19T07:37:26Z</time></trkpt><trkpt lat="43.500900108300954" lon="10.559865330845453"><ele>153.0</ele><time>2026-04-19T07:37:27Z</time></trkpt><trkpt lat="43.50091099290174" lon="10.55974004110136"><ele>153.0</ele><time>2026-04-19T07:37:28Z</time></trkpt><trkpt lat="43.500929283103304" lon="10.559634594778716"><ele>153.0</ele><time>2026-04-19T07:37:29Z</time></trkpt><trkpt lat="43.500929109236445" lon="10.559538322783398"><ele>153.0</ele><time>2026-04-19T07:37:30Z</time></trkpt><trkpt lat="43.500935739563005" lon="10.559433967947516"><ele>153.0</ele><time>2026-04-19T07:37:31Z</time></trkpt><trkpt lat="43.50095856466929" lon="10.559328767810879"><ele>153.0</ele><time>2026-04-19T07:37:32Z</time></trkpt><trkpt lat="43.500951272740735" lon="10.559222950009943"><ele>153.0</ele><time>2026-04-19T07:37:33Z</time></trkpt><trkpt lat="43.50096318554075" lon="10.559122656611079"><ele>150.25</ele><time>2026-04-19T07:37:34Z</time></trkpt><trkpt lat="43.50098850768398" lon="10.558954830858198"><ele>147.5</ele><time>2026-04-19T07:37:36Z</time></trkpt><trkpt lat="43.50099385093463" lon="10.558806614769608"><ele>144.75</ele><time>2026-04-19T07:37:38Z</time></trkpt><trkpt lat="43.500951506072816" lon="10.558662897609093"><ele>142.0</ele><time>2026-04-19T07:37:40Z</time></trkpt><trkpt lat="43.50087462273733" lon="10.558561584663247"><ele>141.0</ele><time>2026-04-19T07:37:42Z</time></trkpt><trkpt lat="43.50071558212664" lon="10.55851442675058"><ele>140.0</ele><time>2026-04-19T07:37:44Z</time></trkpt><trkpt lat="43.50062737516688" lon="10.558535314314655"><ele>139.0</ele><time>2026-04-19T07:37:45Z</time></trkpt><trkpt lat="43.500522351443294" lon="10.55850227709262"><ele>138.0</ele><time>2026-04-19T07:37:46Z</time></trkpt><trkpt lat="43.500403106581885" lon="10.558473503217813"><ele>138.0</ele><time>2026-04-19T07:37:47Z</time></trkpt><trkpt lat="43.50029648223574" lon="10.558454043205964"><ele>138.0</ele><time>2026-04-19T07:37:48Z</time></trkpt><trkpt lat="43.50021141810016" lon="10.558399120510286"><ele>138.0</ele><time>2026-04-19T07:37:49Z</time></trkpt><trkpt lat="43.50011997583939" lon="10.55836124196772"><ele>138.0</ele><time>2026-04-19T07:37:50Z</time></trkpt><trkpt lat="43.50002051217805" lon="10.558313040916543"><ele>138.0</ele><time>2026-04-19T07:37:51Z</time></trkpt><trkpt lat="43.49990805592854" lon="10.55824501570451"><ele>138.0</ele><time>2026-04-19T07:37:52Z</time></trkpt><trkpt lat="43.499767687753334" lon="10.558199743692073"><ele>138.0</ele><time>2026-04-19T07:37:53Z</time></trkpt><trkpt lat="43.49960527367034" lon="10.558160736354774"><ele>138.0</ele><time>2026-04-19T07:37:54Z</time></trkpt><trkpt lat="43.49943472101397" lon="10.558134738488736"><ele>139.75</ele><time>2026-04-19T07:37:55Z</time></trkpt><trkpt lat="43.49927263700319" lon="10.558142564370028"><ele>141.5</ele><time>2026-04-19T07:37:56Z</time></trkpt><trkpt lat="43.499128628500905" lon="10.558163169360203"><ele>143.25</ele><time>2026-04-19T07:37:57Z</time></trkpt><trkpt lat="43.499002468666156" lon="10.558163454170536"><ele>145.0</ele><time>2026-04-19T07:37:58Z</time></trkpt><trkpt lat="43.49887480772007" lon="10.558153995674502"><ele>145.0</ele><time>2026-04-19T07:37:59Z</time></trkpt><trkpt lat="43.498757879629416" lon="10.558126937537459"><ele>145.0</ele><time>2026-04-19T07:38:00Z</time></trkpt><trkpt lat="43.49863605141718" lon="10.55801822530403"><ele>145.0</ele><time>2026-04-19T07:38:01Z</time></trkpt><trkpt lat="43.49850376687896" lon="10.557921392481118"><ele>145.0</ele><time>2026-04-19T07:38:02Z</time></trkpt><trkpt lat="43.49837331895133" lon="10.557846008128475"><ele>141.33333333333334</ele><time>2026-04-19T07:38:03Z</time></trkpt><trkpt lat="43.498221318807445" lon="10.55780539287336"><ele>137.66666666666666</ele><time>2026-04-19T07:38:04Z</time></trkpt><trkpt lat="43.49803682912359" lon="10.557798693557999"><ele>134.0</ele><time>2026-04-19T07:38:05Z</time></trkpt><trkpt lat="43.497861639298" lon="10.55782790267879"><ele>134.0</ele><time>2026-04-19T07:38:06Z</time></trkpt><trkpt lat="43.497676174308985" lon="10.557865289385013"><ele>134.0</ele><time>2026-04-19T07:38:07Z</time></trkpt><trkpt lat="43.49750195783976" lon="10.557884731387558"><ele>134.0</ele><time>2026-04-19T07:38:08Z</time></trkpt><trkpt lat="43.49735029260238" lon="10.557933388842153"><ele>138.66666666666666</ele><time>2026-04-19T07:38:09Z</time></trkpt><trkpt lat="43.497198455810455" lon="10.558031185695253"><ele>143.33333333333334</ele><time>2026-04-19T07:38:10Z</time></trkpt><trkpt lat="43.49705559501211" lon="10.558138698224607"><ele>148.0</ele><time>2026-04-19T07:38:11Z</time></trkpt><trkpt lat="43.49691961890019" lon="10.558194813683892"><ele>148.0</ele><time>2026-04-19T07:38:12Z</time></trkpt><trkpt lat="43.496760436934984" lon="10.558182467084801"><ele>148.0</ele><time>2026-04-19T07:38:13Z</time></trkpt><trkpt lat="43.49659332808284" lon="10.558224288391742"><ele>148.0</ele><time>2026-04-19T07:38:14Z</time></trkpt><trkpt lat="43.49643478149931" lon="10.558300016603372"><ele>148.0</ele><time>2026-04-19T07:38:15Z</time></trkpt><trkpt lat="43.4962829375424" lon="10.558433187134492"><ele>148.0</ele><time>2026-04-19T07:38:16Z</time></trkpt><trkpt lat="43.49613868031975" lon="10.558595065928763"><ele>148.0</ele><time>2026-04-19T07:38:17Z</time></trkpt><trkpt lat="43.49601047670728" lon="10.558755389022947"><ele>151.66666666666669</ele><time>2026-04-19T07:38:18Z</time></trkpt><trkpt lat="43.495892435262334" lon="10.558913369971735"><ele>155.33333333333334</ele><time>2026-04-19T07:38:19Z</time></trkpt><trkpt lat="43.49576655101053" lon="10.559021858630931"><ele>159.0</ele><time>2026-04-19T07:38:20Z</time></trkpt><trkpt lat="43.49563429257361" lon="10.559074917858366"><ele>159.0</ele><time>2026-04-19T07:38:21Z</time></trkpt><trkpt lat="43.495494607442936" lon="10.55908976737505"><ele>159.0</ele><time>2026-04-19T07:38:22Z</time></trkpt><trkpt lat="43.49534896742972" lon="10.55903967637907"><ele>159.0</ele><time>2026-04-19T07:38:23Z</time></trkpt><trkpt lat="43.49519225514416" lon="10.558979497862113"><ele>158.33333333333334</ele><time>2026-04-19T07:38:24Z</time></trkpt><trkpt lat="43.49504121046592" lon="10.5589552425333"><ele>157.66666666666669</ele><time>2026-04-19T07:38:25Z</time></trkpt><trkpt lat="43.49489120710278" lon="10.558977853042872"><ele>157.0</ele><time>2026-04-19T07:38:26Z</time></trkpt><trkpt lat="43.4947366831021" lon="10.559056104508942"><ele>157.33333333333334</ele><time>2026-04-19T07:38:27Z</time></trkpt><trkpt lat="43.49458580868631" lon="10.559137367141291"><ele>157.66666666666666</ele><time>2026-04-19T07:38:28Z</time></trkpt><trkpt lat="43.494419842114546" lon="10.559189862864294"><ele>158.0</ele><time>2026-04-19T07:38:29Z</time></trkpt><trkpt lat="43.494263480778805" lon="10.559176073631336"><ele>158.0</ele><time>2026-04-19T07:38:30Z</time></trkpt><trkpt lat="43.494106877282604" lon="10.559131041329058"><ele>158.0</ele><time>2026-04-19T07:38:31Z</time></trkpt><trkpt lat="43.49394510783977" lon="10.559047849457862"><ele>158.0</ele><time>2026-04-19T07:38:32Z</time></trkpt><trkpt lat="43.49377488146249" lon="10.558976912286495"><ele>158.66666666666666</ele><time>2026-04-19T07:38:33Z</time></trkpt><trkpt lat="43.49361656107802" lon="10.558908555102176"><ele>159.33333333333334</ele><time>2026-04-19T07:38:34Z</time></trkpt><trkpt lat="43.49345165806416" lon="10.558901213314677"><ele>160.0</ele><time>2026-04-19T07:38:35Z</time></trkpt><trkpt lat="43.493276286312884" lon="10.558940267851039"><ele>160.0</ele><time>2026-04-19T07:38:36Z</time></trkpt><trkpt lat="43.49309742580975" lon="10.558981517569512"><ele>160.0</ele><time>2026-04-19T07:38:37Z</time></trkpt><trkpt lat="43.49292402486888" lon="10.558967401836924"><ele>160.0</ele><time>2026-04-19T07:38:38Z</time></trkpt><trkpt lat="43.4927630077821" lon="10.558951188878353"><ele>159.75</ele><time>2026-04-19T07:38:39Z</time></trkpt><trkpt lat="43.49263343753344" lon="10.558991402533426"><ele>159.5</ele><time>2026-04-19T07:38:40Z</time></trkpt><trkpt lat="43.49252174465487" lon="10.55906102842648"><ele>159.25</ele><time>2026-04-19T07:38:41Z</time></trkpt><trkpt lat="43.492421107562635" lon="10.559167744201455"><ele>159.0</ele><time>2026-04-19T07:38:42Z</time></trkpt><trkpt lat="43.49232760438301" lon="10.55933294348073"><ele>159.0</ele><time>2026-04-19T07:38:43Z</time></trkpt><trkpt lat="43.49223198885263" lon="10.559514102240252"><ele>159.0</ele><time>2026-04-19T07:38:44Z</time></trkpt><trkpt lat="43.49212746064828" lon="10.55970376623813"><ele>159.0</ele><time>2026-04-19T07:38:45Z</time></trkpt><trkpt lat="43.49202751064995" lon="10.559900818914095"><ele>159.0</ele><time>2026-04-19T07:38:46Z</time></trkpt><trkpt lat="43.49192813967179" lon="10.560083193869438"><ele>159.0</ele><time>2026-04-19T07:38:47Z</time></trkpt><trkpt lat="43.491810385538344" lon="10.560204769652584"><ele>159.0</ele><time>2026-04-19T07:38:48Z</time></trkpt><trkpt lat="43.49167356566193" lon="10.560293095417185"><ele>160.0</ele><time>2026-04-19T07:38:49Z</time></trkpt><trkpt lat="43.49152517981614" lon="10.560399618237215"><ele>161.0</ele><time>2026-04-19T07:38:50Z</time></trkpt><trkpt lat="43.49136372692795" lon="10.560485842964257"><ele>162.0</ele><time>2026-04-19T07:38:51Z</time></trkpt><trkpt lat="43.491219290036994" lon="10.560578659135137"><ele>162.0</ele><time>2026-04-19T07:38:52Z</time></trkpt><trkpt lat="43.491108740084904" lon="10.560679560741358"><ele>162.0</ele><time>2026-04-19T07:38:53Z</time></trkpt><trkpt lat="43.49102139432404" lon="10.560799442924669"><ele>162.0</ele><time>2026-04-19T07:38:54Z</time></trkpt><trkpt lat="43.49094162254195" lon="10.560969251099266"><ele>162.0</ele><time>2026-04-19T07:38:55Z</time></trkpt><trkpt lat="43.49086398486906" lon="10.56116566804372"><ele>166.5</ele><time>2026-04-19T07:38:56Z</time></trkpt><trkpt lat="43.49079005032361" lon="10.561324346553924"><ele>171.0</ele><time>2026-04-19T07:38:57Z</time></trkpt><trkpt lat="43.49069437216856" lon="10.561411079573004"><ele>175.5</ele><time>2026-04-19T07:38:58Z</time></trkpt><trkpt lat="43.49059388785046" lon="10.561455954760905"><ele>180.0</ele><time>2026-04-19T07:38:59Z</time></trkpt><trkpt lat="43.49046676137588" lon="10.56151440918899"><ele>177.66666666666666</ele><time>2026-04-19T07:39:00Z</time></trkpt><trkpt lat="43.49031889715687" lon="10.561532796440071"><ele>175.33333333333331</ele><time>2026-04-19T07:39:01Z</time></trkpt><trkpt lat="43.49016090842522" lon="10.561575266864871"><ele>173.0</ele><time>2026-04-19T07:39:02Z</time></trkpt><trkpt lat="43.49002187183221" lon="10.561645432879937"><ele>173.0</ele><time>2026-04-19T07:39:03Z</time></trkpt><trkpt lat="43.4898931453947" lon="10.561764545832158"><ele>173.0</ele><time>2026-04-19T07:39:04Z</time></trkpt><trkpt lat="43.48978254634823" lon="10.561923632120479"><ele>173.0</ele><time>2026-04-19T07:39:05Z</time></trkpt><trkpt lat="43.48969372969516" lon="10.562130102060621"><ele>174.4</ele><time>2026-04-19T07:39:06Z</time></trkpt><trkpt lat="43.489609289435585" lon="10.562273674050068"><ele>175.8</ele><time>2026-04-19T07:39:07Z</time></trkpt><trkpt lat="43.48952663565354" lon="10.562309977869178"><ele>177.2</ele><time>2026-04-19T07:39:08Z</time></trkpt><trkpt lat="43.48944835107397" lon="10.562305602561358"><ele>178.6</ele><time>2026-04-19T07:39:09Z</time></trkpt><trkpt lat="43.48937433278933" lon="10.562236347315785"><ele>180.0</ele><time>2026-04-19T07:39:10Z</time></trkpt><trkpt lat="43.489290592818115" lon="10.56212285730348"><ele>178.25</ele><time>2026-04-19T07:39:11Z</time></trkpt><trkpt lat="43.489225436221" lon="10.561955511735775"><ele>176.5</ele><time>2026-04-19T07:39:12Z</time></trkpt><trkpt lat="43.48912953625357" lon="10.561778571679326"><ele>174.75</ele><time>2026-04-19T07:39:13Z</time></trkpt><trkpt lat="43.48905977925527" lon="10.561615118223665"><ele>173.0</ele><time>2026-04-19T07:39:14Z</time></trkpt><trkpt lat="43.48897083330254" lon="10.561518196834951"><ele>173.0</ele><time>2026-04-19T07:39:15Z</time></trkpt><trkpt lat="43.4888588804465" lon="10.561465331740264"><ele>173.0</ele><time>2026-04-19T07:39:16Z</time></trkpt><trkpt lat="43.488733931209616" lon="10.561472149824237"><ele>173.0</ele><time>2026-04-19T07:39:17Z</time></trkpt><trkpt lat="43.48861374063692" lon="10.561548422603542"><ele>173.0</ele><time>2026-04-19T07:39:18Z</time></trkpt><trkpt lat="43.48849575194887" lon="10.561659042383548"><ele>172.75</ele><time>2026-04-19T07:39:19Z</time></trkpt><trkpt lat="43.48838135675256" lon="10.561770341283816"><ele>172.5</ele><time>2026-04-19T07:39:20Z</time></trkpt><trkpt lat="43.488263677580385" lon="10.561882657141123"><ele>172.25</ele><time>2026-04-19T07:39:21Z</time></trkpt><trkpt lat="43.48814910471111" lon="10.562003121686594"><ele>172.0</ele><time>2026-04-19T07:39:22Z</time></trkpt><trkpt lat="43.48804099130766" lon="10.562127081160398"><ele>173.33333333333334</ele><time>2026-04-19T07:39:23Z</time></trkpt><trkpt lat="43.48792687049221" lon="10.562263541472799"><ele>174.66666666666666</ele><time>2026-04-19T07:39:24Z</time></trkpt><trkpt lat="43.487813974407956" lon="10.562432277084138"><ele>176.0</ele><time>2026-04-19T07:39:25Z</time></trkpt><trkpt lat="43.487708306783865" lon="10.562607781046854"><ele>175.25</ele><time>2026-04-19T07:39:26Z</time></trkpt><trkpt lat="43.487612217993" lon="10.562764742510536"><ele>174.5</ele><time>2026-04-19T07:39:27Z</time></trkpt><trkpt lat="43.48753626088656" lon="10.562916698472925"><ele>173.75</ele><time>2026-04-19T07:39:28Z</time></trkpt><trkpt lat="43.48747850353598" lon="10.563063566668317"><ele>173.0</ele><time>2026-04-19T07:39:29Z</time></trkpt><trkpt lat="43.48741745256089" lon="10.563189019652992"><ele>173.0</ele><time>2026-04-19T07:39:30Z</time></trkpt><trkpt lat="43.48733482688907" lon="10.563275981218139"><ele>173.0</ele><time>2026-04-19T07:39:31Z</time></trkpt><trkpt lat="43.48722217723947" lon="10.56326774995656"><ele>173.0</ele><time>2026-04-19T07:39:32Z</time></trkpt><trkpt lat="43.487083474839444" lon="10.56326047769105"><ele>173.0</ele><time>2026-04-19T07:39:33Z</time></trkpt><trkpt lat="43.48693639902433" lon="10.563266046346738"><ele>174.60000000000002</ele><time>2026-04-19T07:39:34Z</time></trkpt><trkpt lat="43.48680656998527" lon="10.56327955536747"><ele>176.20000000000002</ele><time>2026-04-19T07:39:35Z</time></trkpt><trkpt lat="43.48671138109823" lon="10.563274595729116"><ele>177.8</ele><time>2026-04-19T07:39:36Z</time></trkpt><trkpt lat="43.48664355562609" lon="10.56322520591912"><ele>179.4</ele><time>2026-04-19T07:39:37Z</time></trkpt><trkpt lat="43.486627451297615" lon="10.563094306928415"><ele>181.0</ele><time>2026-04-19T07:39:38Z</time></trkpt><trkpt lat="43.4866367592062" lon="10.562958681875719"><ele>178.25</ele><time>2026-04-19T07:39:39Z</time></trkpt><trkpt lat="43.486615838990865" lon="10.562792684579298"><ele>175.5</ele><time>2026-04-19T07:39:40Z</time></trkpt><trkpt lat="43.48658533240809" lon="10.562628047314869"><ele>172.75</ele><time>2026-04-19T07:39:41Z</time></trkpt><trkpt lat="43.48652013897837" lon="10.562470289868402"><ele>170.0</ele><time>2026-04-19T07:39:42Z</time></trkpt><trkpt lat="43.48638417864674" lon="10.56236156177173"><ele>170.0</ele><time>2026-04-19T07:39:43Z</time></trkpt><trkpt lat="43.48624716146928" lon="10.562258796838629"><ele>170.0</ele><time>2026-04-19T07:39:44Z</time></trkpt><trkpt lat="43.486108527168746" lon="10.562168816577538"><ele>170.0</ele><time>2026-04-19T07:39:45Z</time></trkpt><trkpt lat="43.48600909758888" lon="10.562074624442113"><ele>170.0</ele><time>2026-04-19T07:39:46Z</time></trkpt><trkpt lat="43.48593427613111" lon="10.561984720384038"><ele>170.0</ele><time>2026-04-19T07:39:47Z</time></trkpt><trkpt lat="43.485871849928635" lon="10.56194187509564"><ele>170.0</ele><time>2026-04-19T07:39:48Z</time></trkpt><trkpt lat="43.485815070917226" lon="10.561713010213564"><ele>170.0</ele><time>2026-04-19T07:39:50Z</time></trkpt><trkpt lat="43.4857928213244" lon="10.561539859366304"><ele>170.0</ele><time>2026-04-19T07:39:51Z</time></trkpt><trkpt lat="43.485749262799466" lon="10.561349424636026"><ele>168.66666666666666</ele><time>2026-04-19T07:39:52Z</time></trkpt><trkpt lat="43.48569417182268" lon="10.561147366194154"><ele>167.33333333333334</ele><time>2026-04-19T07:39:53Z</time></trkpt><trkpt lat="43.485630119404554" lon="10.560928153471536"><ele>166.0</ele><time>2026-04-19T07:39:54Z</time></trkpt><trkpt lat="43.485562162183086" lon="10.560695576977388"><ele>166.0</ele><time>2026-04-19T07:39:55Z</time></trkpt><trkpt lat="43.48548708958698" lon="10.560441584866922"><ele>166.0</ele><time>2026-04-19T07:39:56Z</time></trkpt><trkpt lat="43.485409302494" lon="10.560178567542632"><ele>166.0</ele><time>2026-04-19T07:39:57Z</time></trkpt><trkpt lat="43.48532837772704" lon="10.559905342692518"><ele>165.33333333333334</ele><time>2026-04-19T07:39:58Z</time></trkpt><trkpt lat="43.485245295057815" lon="10.559622871495662"><ele>164.66666666666666</ele><time>2026-04-19T07:39:59Z</time></trkpt><trkpt lat="43.48515996920903" lon="10.559331939616643"><ele>164.0</ele><time>2026-04-19T07:40:00Z</time></trkpt><trkpt lat="43.48507262907838" lon="10.559032956505602"><ele>166.5</ele><time>2026-04-19T07:40:01Z</time></trkpt><trkpt lat="43.48498401065277" lon="10.558729229290359"><ele>169.0</ele><time>2026-04-19T07:40:02Z</time></trkpt><trkpt lat="43.484893851992624" lon="10.558418201003459"><ele>169.0</ele><time>2026-04-19T07:40:03Z</time></trkpt><trkpt lat="43.48480209946706" lon="10.558102600668999"><ele>169.0</ele><time>2026-04-19T07:40:04Z</time></trkpt><trkpt lat="43.484709731758706" lon="10.557787423703703"><ele>170.0</ele><time>2026-04-19T07:40:05Z</time></trkpt><trkpt lat="43.484614042371405" lon="10.557467052314475"><ele>171.0</ele><time>2026-04-19T07:40:06Z</time></trkpt><trkpt lat="43.48451629354802" lon="10.557139785875233"><ele>170.0</ele><time>2026-04-19T07:40:07Z</time></trkpt><trkpt lat="43.484417298604605" lon="10.5568083473319"><ele>169.0</ele><time>2026-04-19T07:40:08Z</time></trkpt><trkpt lat="43.48432118042393" lon="10.556486540293724"><ele>166.5</ele><time>2026-04-19T07:40:09Z</time></trkpt><trkpt lat="43.48422586387587" lon="10.55616741716462"><ele>164.0</ele><time>2026-04-19T07:40:10Z</time></trkpt><trkpt lat="43.484132394348684" lon="10.555854477925996"><ele>164.0</ele><time>2026-04-19T07:40:11Z</time></trkpt><trkpt lat="43.484038444054626" lon="10.555538720407256"><ele>164.0</ele><time>2026-04-19T07:40:12Z</time></trkpt><trkpt lat="43.48394376160658" lon="10.555216986908508"><ele>163.0</ele><time>2026-04-19T07:40:13Z</time></trkpt><trkpt lat="43.48385314824404" lon="10.554899434003"><ele>162.0</ele><time>2026-04-19T07:40:14Z</time></trkpt><trkpt lat="43.483761159717275" lon="10.554575084531992"><ele>163.0</ele><time>2026-04-19T07:40:15Z</time></trkpt><trkpt lat="43.48366848503073" lon="10.554254889757352"><ele>164.0</ele><time>2026-04-19T07:40:16Z</time></trkpt><trkpt lat="43.483576901287336" lon="10.553941359215788"><ele>160.5</ele><time>2026-04-19T07:40:17Z</time></trkpt><trkpt lat="43.48348391822116" lon="10.553626758041558"><ele>157.0</ele><time>2026-04-19T07:40:18Z</time></trkpt><trkpt lat="43.483392382027816" lon="10.553316973577076"><ele>157.0</ele><time>2026-04-19T07:40:19Z</time></trkpt><trkpt lat="43.48330123155116" lon="10.553008494478515"><ele>157.0</ele><time>2026-04-19T07:40:20Z</time></trkpt><trkpt lat="43.48320774169165" lon="10.552689224516824"><ele>156.0</ele><time>2026-04-19T07:40:21Z</time></trkpt><trkpt lat="43.483112451641304" lon="10.552362801541197"><ele>155.0</ele><time>2026-04-19T07:40:22Z</time></trkpt><trkpt lat="43.48301722900766" lon="10.552036609488368"><ele>153.5</ele><time>2026-04-19T07:40:23Z</time></trkpt><trkpt lat="43.48292276127167" lon="10.551713022122776"><ele>152.0</ele><time>2026-04-19T07:40:24Z</time></trkpt><trkpt lat="43.48283603852281" lon="10.551407477340598"><ele>151.33333333333331</ele><time>2026-04-19T07:40:25Z</time></trkpt><trkpt lat="43.482757128122884" lon="10.551130725047114"><ele>150.66666666666666</ele><time>2026-04-19T07:40:26Z</time></trkpt><trkpt lat="43.48267966072273" lon="10.550885266400368"><ele>150.0</ele><time>2026-04-19T07:40:27Z</time></trkpt><trkpt lat="43.48259679216074" lon="10.550667172564676"><ele>150.0</ele><time>2026-04-19T07:40:28Z</time></trkpt><trkpt lat="43.48249143043679" lon="10.55045512785938"><ele>150.0</ele><time>2026-04-19T07:40:29Z</time></trkpt><trkpt lat="43.48234097531654" lon="10.550260929167319"><ele>150.0</ele><time>2026-04-19T07:40:30Z</time></trkpt><trkpt lat="43.48217653411529" lon="10.550053967278858"><ele>145.0</ele><time>2026-04-19T07:40:31Z</time></trkpt><trkpt lat="43.4819959414132" lon="10.549862343667582"><ele>140.0</ele><time>2026-04-19T07:40:32Z</time></trkpt><trkpt lat="43.481811210706255" lon="10.549658074557845"><ele>141.5</ele><time>2026-04-19T07:40:33Z</time></trkpt><trkpt lat="43.481626767458046" lon="10.549444029006152"><ele>143.0</ele><time>2026-04-19T07:40:34Z</time></trkpt><trkpt lat="43.48143905665024" lon="10.54923505077808"><ele>140.5</ele><time>2026-04-19T07:40:35Z</time></trkpt><trkpt lat="43.481259239144634" lon="10.549029175212366"><ele>138.0</ele><time>2026-04-19T07:40:36Z</time></trkpt><trkpt lat="43.48107710774594" lon="10.548819288502141"><ele>140.5</ele><time>2026-04-19T07:40:37Z</time></trkpt><trkpt lat="43.480890117753916" lon="10.54861014120744"><ele>143.0</ele><time>2026-04-19T07:40:38Z</time></trkpt><trkpt lat="43.480703469242954" lon="10.548388075661341"><ele>143.0</ele><time>2026-04-19T07:40:39Z</time></trkpt><trkpt lat="43.48051216655023" lon="10.548161182731725"><ele>143.0</ele><time>2026-04-19T07:40:40Z</time></trkpt><trkpt lat="43.48032708912596" lon="10.547947815446184"><ele>144.0</ele><time>2026-04-19T07:40:41Z</time></trkpt><trkpt lat="43.48016207942382" lon="10.54775907544221"><ele>145.0</ele><time>2026-04-19T07:40:42Z</time></trkpt><trkpt lat="43.48001795145793" lon="10.547586962195277"><ele>146.0</ele><time>2026-04-19T07:40:43Z</time></trkpt><trkpt lat="43.47988527183862" lon="10.547427176063435"><ele>146.0</ele><time>2026-04-19T07:40:44Z</time></trkpt><trkpt lat="43.47976613770231" lon="10.547272989165858"><ele>146.0</ele><time>2026-04-19T07:40:45Z</time></trkpt><trkpt lat="43.479664179365834" lon="10.547106546624454"><ele>146.0</ele><time>2026-04-19T07:40:46Z</time></trkpt><trkpt lat="43.47957521311174" lon="10.546901292830299"><ele>146.0</ele><time>2026-04-19T07:40:47Z</time></trkpt><trkpt lat="43.479499160406824" lon="10.546673842228223"><ele>146.0</ele><time>2026-04-19T07:40:48Z</time></trkpt><trkpt lat="43.47944755635084" lon="10.546426382930546"><ele>146.0</ele><time>2026-04-19T07:40:49Z</time></trkpt><trkpt lat="43.47943626222076" lon="10.546171873104605"><ele>146.0</ele><time>2026-04-19T07:40:50Z</time></trkpt><trkpt lat="43.479448948643046" lon="10.545929275417068"><ele>146.0</ele><time>2026-04-19T07:40:51Z</time></trkpt><trkpt lat="43.47948278973377" lon="10.545693348229452"><ele>146.0</ele><time>2026-04-19T07:40:52Z</time></trkpt><trkpt lat="43.479548416457874" lon="10.545466038624536"><ele>145.0</ele><time>2026-04-19T07:40:53Z</time></trkpt><trkpt lat="43.479645656807456" lon="10.545238823820556"><ele>144.0</ele><time>2026-04-19T07:40:54Z</time></trkpt><trkpt lat="43.479762926309306" lon="10.545026211261202"><ele>143.0</ele><time>2026-04-19T07:40:55Z</time></trkpt><trkpt lat="43.479877323184304" lon="10.544841207016674"><ele>143.0</ele><time>2026-04-19T07:40:56Z</time></trkpt><trkpt lat="43.47997568206395" lon="10.544684720964199"><ele>143.0</ele><time>2026-04-19T07:40:56.999Z</time></trkpt><trkpt lat="43.48005720886931" lon="10.54455196979776"><ele>143.0</ele><time>2026-04-19T07:40:57.999Z</time></trkpt><trkpt lat="43.48012956402741" lon="10.544434343938576"><ele>143.0</ele><time>2026-04-19T07:40:58.999Z</time></trkpt><trkpt lat="43.48018809657562" lon="10.544335742263668"><ele>142.83333333333331</ele><time>2026-04-19T07:40:59.999Z</time></trkpt><trkpt lat="43.48021114467021" lon="10.544251678221732"><ele>142.66666666666666</ele><time>2026-04-19T07:41:00.999Z</time></trkpt><trkpt lat="43.48019937140759" lon="10.54416292518739"><ele>142.5</ele><time>2026-04-19T07:41:01.999Z</time></trkpt><trkpt lat="43.48015918495575" lon="10.544083689587811"><ele>142.33333333333334</ele><time>2026-04-19T07:41:02.999Z</time></trkpt><trkpt lat="43.48009673227828" lon="10.544002269399622"><ele>142.16666666666669</ele><time>2026-04-19T07:41:03.999Z</time></trkpt><trkpt lat="43.4800520948928" lon="10.543909153608839"><ele>142.0</ele><time>2026-04-19T07:41:04.999Z</time></trkpt><trkpt lat="43.48001514421065" lon="10.543797681854628"><ele>141.66666666666669</ele><time>2026-04-19T07:41:05.999Z</time></trkpt><trkpt lat="43.479980538563936" lon="10.543682224676285"><ele>141.33333333333334</ele><time>2026-04-19T07:41:07Z</time></trkpt><trkpt lat="43.47995153334202" lon="10.543574296730098"><ele>141.0</ele><time>2026-04-19T07:41:08Z</time></trkpt><trkpt lat="43.47993113890811" lon="10.543475409672451"><ele>140.66666666666666</ele><time>2026-04-19T07:41:09Z</time></trkpt><trkpt lat="43.47992490329756" lon="10.543387149859878"><ele>140.33333333333331</ele><time>2026-04-19T07:41:10Z</time></trkpt><trkpt lat="43.479941287150325" lon="10.543229941977124"><ele>140.0</ele><time>2026-04-19T07:41:12Z</time></trkpt><trkpt lat="43.480006536507105" lon="10.543059829357263"><ele>140.0</ele><time>2026-04-19T07:41:14Z</time></trkpt><trkpt lat="43.48005839193556" lon="10.542983649938968"><ele>140.0</ele><time>2026-04-19T07:41:15Z</time></trkpt><trkpt lat="43.48012543743584" lon="10.542911990777943"><ele>140.0</ele><time>2026-04-19T07:41:17Z</time></trkpt><trkpt lat="43.480178858574995" lon="10.542849631616722"><ele>140.0</ele><time>2026-04-19T07:41:20Z</time></trkpt><trkpt lat="43.48026220045775" lon="10.542740371733737"><ele>140.0</ele><time>2026-04-19T07:41:22Z</time></trkpt><trkpt lat="43.48033100412854" lon="10.542654739104881"><ele>140.0</ele><time>2026-04-19T07:41:24Z</time></trkpt><trkpt lat="43.48038390348175" lon="10.542590995677301"><ele>138.6</ele><time>2026-04-19T07:41:26Z</time></trkpt><trkpt lat="43.48042105456666" lon="10.542520712122247"><ele>137.2</ele><time>2026-04-19T07:41:29Z</time></trkpt><trkpt lat="43.480428045200306" lon="10.542424799938967"><ele>135.8</ele><time>2026-04-19T07:41:44Z</time></trkpt><trkpt lat="43.48045895932571" lon="10.542317897480183"><ele>134.4</ele><time>2026-04-19T07:41:50Z</time></trkpt><trkpt lat="43.48049466406505" lon="10.542129307680153"><ele>133.0</ele><time>2026-04-19T07:41:51Z</time></trkpt><trkpt lat="43.480581087903275" lon="10.5419298700833"><ele>131.66666666666669</ele><time>2026-04-19T07:41:52Z</time></trkpt><trkpt lat="43.48063496550169" lon="10.541681264285046"><ele>130.33333333333334</ele><time>2026-04-19T07:41:53Z</time></trkpt><trkpt lat="43.4806898667953" lon="10.54141383722237"><ele>129.0</ele><time>2026-04-19T07:41:54Z</time></trkpt><trkpt lat="43.480748618077456" lon="10.54110863315368"><ele>128.5</ele><time>2026-04-19T07:41:55Z</time></trkpt><trkpt lat="43.480812242147984" lon="10.540795935958428"><ele>128.0</ele><time>2026-04-19T07:41:56Z</time></trkpt><trkpt lat="43.48087099494876" lon="10.540511210875591"><ele>128.33333333333331</ele><time>2026-04-19T07:41:57Z</time></trkpt><trkpt lat="43.4809210602273" lon="10.540268586857911"><ele>128.66666666666666</ele><time>2026-04-19T07:41:58Z</time></trkpt><trkpt lat="43.48096845235689" lon="10.540040356870461"><ele>129.0</ele><time>2026-04-19T07:41:59Z</time></trkpt><trkpt lat="43.4810115431945" lon="10.539834523674728"><ele>129.0</ele><time>2026-04-19T07:42:00Z</time></trkpt><trkpt lat="43.48105287347939" lon="10.539639240097237"><ele>129.0</ele><time>2026-04-19T07:42:01Z</time></trkpt><trkpt lat="43.481094290456134" lon="10.53944354686828"><ele>129.0</ele><time>2026-04-19T07:42:02Z</time></trkpt><trkpt lat="43.48113623721211" lon="10.539245350455055"><ele>129.0</ele><time>2026-04-19T07:42:03Z</time></trkpt><trkpt lat="43.48117221717008" lon="10.539077933948919"><ele>129.25</ele><time>2026-04-19T07:42:04Z</time></trkpt><trkpt lat="43.481207460317144" lon="10.538916928850078"><ele>129.5</ele><time>2026-04-19T07:42:05Z</time></trkpt><trkpt lat="43.48124922953546" lon="10.538727777085697"><ele>129.75</ele><time>2026-04-19T07:42:06Z</time></trkpt><trkpt lat="43.481286775214" lon="10.538557751532315"><ele>130.0</ele><time>2026-04-19T07:42:07Z</time></trkpt><trkpt lat="43.481318426781776" lon="10.538408229676694"><ele>130.0</ele><time>2026-04-19T07:42:08Z</time></trkpt><trkpt lat="43.481344535958954" lon="10.538276058960953"><ele>130.0</ele><time>2026-04-19T07:42:09Z</time></trkpt><trkpt lat="43.48136556323962" lon="10.538162905678785"><ele>130.0</ele><time>2026-04-19T07:42:10Z</time></trkpt><trkpt lat="43.481388475245105" lon="10.538017820966074"><ele>130.0</ele><time>2026-04-19T07:42:12Z</time></trkpt><trkpt lat="43.48140159397063" lon="10.53790109596589"><ele>130.0</ele><time>2026-04-19T07:42:14Z</time></trkpt><trkpt lat="43.481409507657546" lon="10.537757459935586"><ele>130.2</ele><time>2026-04-19T07:42:16Z</time></trkpt><trkpt lat="43.481409736350706" lon="10.537611259637483"><ele>130.4</ele><time>2026-04-19T07:42:18Z</time></trkpt><trkpt lat="43.48140834691463" lon="10.537519973506143"><ele>130.6</ele><time>2026-04-19T07:42:20Z</time></trkpt><trkpt lat="43.481397164467396" lon="10.537433398302252"><ele>130.8</ele><time>2026-04-19T07:42:23Z</time></trkpt><trkpt lat="43.481380489244245" lon="10.537297838604257"><ele>131.0</ele><time>2026-04-19T07:42:30Z</time></trkpt><trkpt lat="43.48135057917025" lon="10.537120346421224"><ele>131.0</ele><time>2026-04-19T07:42:31Z</time></trkpt><trkpt lat="43.48130160996346" lon="10.536909612841223"><ele>131.0</ele><time>2026-04-19T07:42:32Z</time></trkpt><trkpt lat="43.48124609892873" lon="10.536679577021602"><ele>131.0</ele><time>2026-04-19T07:42:33Z</time></trkpt><trkpt lat="43.481186787331985" lon="10.53642498418749"><ele>132.33333333333331</ele><time>2026-04-19T07:42:34Z</time></trkpt><trkpt lat="43.48113122592532" lon="10.536156840296353"><ele>133.66666666666666</ele><time>2026-04-19T07:42:35Z</time></trkpt><trkpt lat="43.48107142371115" lon="10.535855803824353"><ele>135.0</ele><time>2026-04-19T07:42:36Z</time></trkpt><trkpt lat="43.48101193386928" lon="10.535544785159763"><ele>135.0</ele><time>2026-04-19T07:42:37Z</time></trkpt><trkpt lat="43.48095617590644" lon="10.535221693936512"><ele>135.0</ele><time>2026-04-19T07:42:38Z</time></trkpt><trkpt lat="43.480911380710204" lon="10.534924100924178"><ele>135.0</ele><time>2026-04-19T07:42:39Z</time></trkpt><trkpt lat="43.48087042739283" lon="10.534669354455337"><ele>135.0</ele><time>2026-04-19T07:42:40Z</time></trkpt><trkpt lat="43.48083416995346" lon="10.534462008865555"><ele>135.0</ele><time>2026-04-19T07:42:41Z</time></trkpt><trkpt lat="43.480801403310984" lon="10.534280475550524"><ele>135.25</ele><time>2026-04-19T07:42:42Z</time></trkpt><trkpt lat="43.48077294432412" lon="10.534107523577374"><ele>135.5</ele><time>2026-04-19T07:42:43Z</time></trkpt><trkpt lat="43.480744926544084" lon="10.533929250062657"><ele>135.75</ele><time>2026-04-19T07:42:44Z</time></trkpt><trkpt lat="43.480713123312476" lon="10.533750148185364"><ele>136.0</ele><time>2026-04-19T07:42:45Z</time></trkpt><trkpt lat="43.48067671047296" lon="10.533579797231493"><ele>135.5</ele><time>2026-04-19T07:42:46Z</time></trkpt><trkpt lat="43.48063361323599" lon="10.53343251999559"><ele>135.0</ele><time>2026-04-19T07:42:47Z</time></trkpt><trkpt lat="43.48058765297383" lon="10.533309763928916"><ele>134.5</ele><time>2026-04-19T07:42:48Z</time></trkpt><trkpt lat="43.48053957344316" lon="10.533206790794592"><ele>134.0</ele><time>2026-04-19T07:42:49Z</time></trkpt><trkpt lat="43.48049823916618" lon="10.533131802911504"><ele>133.5</ele><time>2026-04-19T07:42:50Z</time></trkpt><trkpt lat="43.48044474176848" lon="10.533065617069198"><ele>133.0</ele><time>2026-04-19T07:42:51Z</time></trkpt><trkpt lat="43.480383456131236" lon="10.53300053317248"><ele>133.28571428571428</ele><time>2026-04-19T07:42:52Z</time></trkpt><trkpt lat="43.4803266840623" lon="10.532945234814738"><ele>133.57142857142856</ele><time>2026-04-19T07:42:53Z</time></trkpt><trkpt lat="43.48027019027772" lon="10.532895839179789"><ele>133.85714285714286</ele><time>2026-04-19T07:42:54Z</time></trkpt><trkpt lat="43.48021556657503" lon="10.532849388432924"><ele>134.14285714285714</ele><time>2026-04-19T07:42:55Z</time></trkpt><trkpt lat="43.48015826557846" lon="10.532801218415512"><ele>134.42857142857142</ele><time>2026-04-19T07:42:56Z</time></trkpt><trkpt lat="43.48006071783745" lon="10.532719215011959"><ele>134.71428571428572</ele><time>2026-04-19T07:42:58Z</time></trkpt><trkpt lat="43.48000354831964" lon="10.532671155533835"><ele>135.0</ele><time>2026-04-19T07:42:59Z</time></trkpt><trkpt lat="43.479946238814435" lon="10.53262297835817"><ele>135.0</ele><time>2026-04-19T07:43:00Z</time></trkpt><trkpt lat="43.479840738322025" lon="10.532531404933977"><ele>135.0</ele><time>2026-04-19T07:43:02Z</time></trkpt><trkpt lat="43.47977471070916" lon="10.532473683456342"><ele>135.0</ele><time>2026-04-19T07:43:02.999Z</time></trkpt><trkpt lat="43.47970449336193" lon="10.532408263368783"><ele>135.0</ele><time>2026-04-19T07:43:03.999Z</time></trkpt><trkpt lat="43.47963787646449" lon="10.532341723623356"><ele>135.0</ele><time>2026-04-19T07:43:04.999Z</time></trkpt><trkpt lat="43.479579430403675" lon="10.532282064749785"><ele>135.0</ele><time>2026-04-19T07:43:05.999Z</time></trkpt><trkpt lat="43.47952640072731" lon="10.532221943601204"><ele>134.4</ele><time>2026-04-19T07:43:06.999Z</time></trkpt><trkpt lat="43.47947023910696" lon="10.53215471938194"><ele>133.8</ele><time>2026-04-19T07:43:07.999Z</time></trkpt><trkpt lat="43.47941612279989" lon="10.532084199856158"><ele>133.2</ele><time>2026-04-19T07:43:09Z</time></trkpt><trkpt lat="43.47935750582477" lon="10.531998458285535"><ele>132.6</ele><time>2026-04-19T07:43:10Z</time></trkpt><trkpt lat="43.47929022701873" lon="10.531888998229958"><ele>132.0</ele><time>2026-04-19T07:43:11Z</time></trkpt><trkpt lat="43.47921063126305" lon="10.5317522774468"><ele>132.0</ele><time>2026-04-19T07:43:12Z</time></trkpt><trkpt lat="43.47913329372871" lon="10.531601333862762"><ele>132.0</ele><time>2026-04-19T07:43:13Z</time></trkpt><trkpt lat="43.47905736595019" lon="10.531438571384756"><ele>132.0</ele><time>2026-04-19T07:43:14Z</time></trkpt><trkpt lat="43.47898455581396" lon="10.531253657805424"><ele>132.0</ele><time>2026-04-19T07:43:15Z</time></trkpt><trkpt lat="43.47890634087102" lon="10.531049763101286"><ele>131.66666666666666</ele><time>2026-04-19T07:43:16Z</time></trkpt><trkpt lat="43.478828774504784" lon="10.530849371947275"><ele>131.33333333333331</ele><time>2026-04-19T07:43:17Z</time></trkpt><trkpt lat="43.47875648454859" lon="10.530663975258966"><ele>131.0</ele><time>2026-04-19T07:43:18Z</time></trkpt><trkpt lat="43.47869201595606" lon="10.530494561905344"><ele>129.0</ele><time>2026-04-19T07:43:19Z</time></trkpt><trkpt lat="43.478629887804175" lon="10.530329886391003"><ele>127.0</ele><time>2026-04-19T07:43:20Z</time></trkpt><trkpt lat="43.47856907894945" lon="10.530168707793504"><ele>125.0</ele><time>2026-04-19T07:43:21Z</time></trkpt><trkpt lat="43.47851449993673" lon="10.53002404195845"><ele>123.0</ele><time>2026-04-19T07:43:22Z</time></trkpt><trkpt lat="43.47845140644479" lon="10.529909000379565"><ele>123.0</ele><time>2026-04-19T07:43:23Z</time></trkpt><trkpt lat="43.4784100286502" lon="10.529801322477264"><ele>123.00000000000001</ele><time>2026-04-19T07:43:24Z</time></trkpt><trkpt lat="43.47837823762089" lon="10.529710141050014"><ele>123.00000000000001</ele><time>2026-04-19T07:43:25Z</time></trkpt><trkpt lat="43.47832343244179" lon="10.529574697440781"><ele>123.0</ele><time>2026-04-19T07:43:27Z</time></trkpt><trkpt lat="43.47828086136024" lon="10.529417817914132"><ele>123.0</ele><time>2026-04-19T07:43:29Z</time></trkpt><trkpt lat="43.478204971605" lon="10.529295349478033"><ele>123.0</ele><time>2026-04-19T07:43:31Z</time></trkpt><trkpt lat="43.47815790355897" lon="10.52918232858449"><ele>123.00000000000001</ele><time>2026-04-19T07:43:33Z</time></trkpt><trkpt lat="43.4781330911437" lon="10.529043425009531"><ele>123.00000000000001</ele><time>2026-04-19T07:43:35Z</time></trkpt><trkpt lat="43.47808282538206" lon="10.52891500153188"><ele>123.0</ele><time>2026-04-19T07:43:37Z</time></trkpt><trkpt lat="43.47802577940249" lon="10.528767526556203"><ele>123.0</ele><time>2026-04-19T07:43:39Z</time></trkpt><trkpt lat="43.47799260152274" lon="10.528681755261957"><ele>123.0</ele><time>2026-04-19T07:43:40Z</time></trkpt><trkpt lat="43.47795592602148" lon="10.52858694194632"><ele>123.0</ele><time>2026-04-19T07:43:41Z</time></trkpt><trkpt lat="43.47791748357618" lon="10.52848540165998"><ele>123.0</ele><time>2026-04-19T07:43:42Z</time></trkpt><trkpt lat="43.47788134479991" lon="10.528389998311347"><ele>123.0</ele><time>2026-04-19T07:43:43Z</time></trkpt><trkpt lat="43.47785078755973" lon="10.528309329749675"><ele>123.0</ele><time>2026-04-19T07:43:44Z</time></trkpt><trkpt lat="43.47781708175876" lon="10.52822034919186"><ele>123.0</ele><time>2026-04-19T07:43:45Z</time></trkpt><trkpt lat="43.47778244340551" lon="10.528128906835432"><ele>121.5</ele><time>2026-04-19T07:43:46Z</time></trkpt><trkpt lat="43.47774396622148" lon="10.52802733024192"><ele>120.0</ele><time>2026-04-19T07:43:47Z</time></trkpt><trkpt lat="43.47769657106175" lon="10.527902210984687"><ele>118.5</ele><time>2026-04-19T07:43:48Z</time></trkpt><trkpt lat="43.477637534361214" lon="10.527754465061413"><ele>117.0</ele><time>2026-04-19T07:43:49Z</time></trkpt><trkpt lat="43.47755837840107" lon="10.527586451566378"><ele>117.0</ele><time>2026-04-19T07:43:50Z</time></trkpt><trkpt lat="43.47745438218429" lon="10.52741678927457"><ele>117.0</ele><time>2026-04-19T07:43:51Z</time></trkpt><trkpt lat="43.477332438621396" lon="10.527236373894292"><ele>117.0</ele><time>2026-04-19T07:43:52Z</time></trkpt><trkpt lat="43.477194383158924" lon="10.527050139821359"><ele>114.66666666666666</ele><time>2026-04-19T07:43:53Z</time></trkpt><trkpt lat="43.477039802014474" lon="10.5268692084056"><ele>112.33333333333333</ele><time>2026-04-19T07:43:54Z</time></trkpt><trkpt lat="43.476874423137595" lon="10.526698677344605"><ele>110.0</ele><time>2026-04-19T07:43:55Z</time></trkpt><trkpt lat="43.47670018303984" lon="10.526533438132065"><ele>110.0</ele><time>2026-04-19T07:43:56Z</time></trkpt><trkpt lat="43.476517697520045" lon="10.526368399777224"><ele>110.0</ele><time>2026-04-19T07:43:57Z</time></trkpt><trkpt lat="43.47633827400859" lon="10.526208859054586"><ele>110.0</ele><time>2026-04-19T07:43:58Z</time></trkpt><trkpt lat="43.476165985891726" lon="10.526046647153288"><ele>109.33333333333333</ele><time>2026-04-19T07:43:59Z</time></trkpt><trkpt lat="43.47599386382792" lon="10.525877588885528"><ele>108.66666666666666</ele><time>2026-04-19T07:44:00Z</time></trkpt><trkpt lat="43.47581766069193" lon="10.525704232900983"><ele>108.0</ele><time>2026-04-19T07:44:01Z</time></trkpt><trkpt lat="43.47564939709973" lon="10.525532953145571"><ele>108.0</ele><time>2026-04-19T07:44:02Z</time></trkpt><trkpt lat="43.47550438814351" lon="10.525366089790287"><ele>108.0</ele><time>2026-04-19T07:44:03Z</time></trkpt><trkpt lat="43.4753838608135" lon="10.525198358137196"><ele>108.0</ele><time>2026-04-19T07:44:04Z</time></trkpt><trkpt lat="43.475293265312274" lon="10.524985405312535"><ele>107.33333333333334</ele><time>2026-04-19T07:44:05Z</time></trkpt><trkpt lat="43.47520884563098" lon="10.524776485481986"><ele>106.66666666666667</ele><time>2026-04-19T07:44:06Z</time></trkpt><trkpt lat="43.47511297844109" lon="10.524554909670917"><ele>106.0</ele><time>2026-04-19T07:44:07Z</time></trkpt><trkpt lat="43.47505053888019" lon="10.524293311947455"><ele>106.0</ele><time>2026-04-19T07:44:08Z</time></trkpt><trkpt lat="43.47498337540619" lon="10.524036635085048"><ele>106.0</ele><time>2026-04-19T07:44:09Z</time></trkpt><trkpt lat="43.4749151057587" lon="10.523788031312293"><ele>106.0</ele><time>2026-04-19T07:44:10Z</time></trkpt><trkpt lat="43.47487989789333" lon="10.523537620753155"><ele>105.66666666666667</ele><time>2026-04-19T07:44:11Z</time></trkpt><trkpt lat="43.47482476096949" lon="10.523310749193866"><ele>105.33333333333334</ele><time>2026-04-19T07:44:12Z</time></trkpt><trkpt lat="43.47476917261096" lon="10.523082020129092"><ele>105.0</ele><time>2026-04-19T07:44:13Z</time></trkpt><trkpt lat="43.47471449892123" lon="10.522857054648178"><ele>104.66666666666666</ele><time>2026-04-19T07:44:14Z</time></trkpt><trkpt lat="43.47461875792945" lon="10.52264892872062"><ele>104.33333333333333</ele><time>2026-04-19T07:44:15Z</time></trkpt><trkpt lat="43.47456147906929" lon="10.522424146497526"><ele>104.0</ele><time>2026-04-19T07:44:16Z</time></trkpt><trkpt lat="43.47450211337352" lon="10.522211833489445"><ele>102.66666666666666</ele><time>2026-04-19T07:44:17Z</time></trkpt><trkpt lat="43.4744476108166" lon="10.522015200412376"><ele>101.33333333333334</ele><time>2026-04-19T07:44:18Z</time></trkpt><trkpt lat="43.474444151492094" lon="10.52180303891261"><ele>100.0</ele><time>2026-04-19T07:44:19Z</time></trkpt><trkpt lat="43.47439458748503" lon="10.521618444227993"><ele>100.0</ele><time>2026-04-19T07:44:20Z</time></trkpt><trkpt lat="43.47434193456317" lon="10.52142208726692"><ele>100.0</ele><time>2026-04-19T07:44:21Z</time></trkpt><trkpt lat="43.47428272463459" lon="10.521205150719753"><ele>100.0</ele><time>2026-04-19T07:44:22Z</time></trkpt><trkpt lat="43.474214741333135" lon="10.520971245646235"><ele>100.0</ele><time>2026-04-19T07:44:23Z</time></trkpt><trkpt lat="43.474140174730415" lon="10.520723448798835"><ele>100.0</ele><time>2026-04-19T07:44:24Z</time></trkpt><trkpt lat="43.47406322895622" lon="10.520472301859558"><ele>100.0</ele><time>2026-04-19T07:44:25Z</time></trkpt><trkpt lat="43.473980093607054" lon="10.520208656869695"><ele>99.33333333333334</ele><time>2026-04-19T07:44:26Z</time></trkpt><trkpt lat="43.473892508174835" lon="10.519937851799583"><ele>98.66666666666666</ele><time>2026-04-19T07:44:27Z</time></trkpt><trkpt lat="43.47377638706191" lon="10.519700453611735"><ele>98.0</ele><time>2026-04-19T07:44:28Z</time></trkpt><trkpt lat="43.473697670550834" lon="10.519445933012117"><ele>95.33333333333333</ele><time>2026-04-19T07:44:29Z</time></trkpt><trkpt lat="43.47361285125205" lon="10.519188303430289"><ele>92.66666666666666</ele><time>2026-04-19T07:44:30Z</time></trkpt><trkpt lat="43.4735312404457" lon="10.518929508415374"><ele>90.0</ele><time>2026-04-19T07:44:31Z</time></trkpt><trkpt lat="43.47348240281108" lon="10.51864742137301"><ele>89.0</ele><time>2026-04-19T07:44:32Z</time></trkpt><trkpt lat="43.47340391766049" lon="10.518397772161164"><ele>88.0</ele><time>2026-04-19T07:44:33Z</time></trkpt><trkpt lat="43.473329074705646" lon="10.518159256514528"><ele>87.0</ele><time>2026-04-19T07:44:34Z</time></trkpt><trkpt lat="43.47325934724764" lon="10.517932793357806"><ele>85.0</ele><time>2026-04-19T07:44:35Z</time></trkpt><trkpt lat="43.47319523542486" lon="10.517703670770683"><ele>83.0</ele><time>2026-04-19T07:44:36Z</time></trkpt><trkpt lat="43.47313921723528" lon="10.517457423193791"><ele>81.0</ele><time>2026-04-19T07:44:37Z</time></trkpt><trkpt lat="43.47309059775316" lon="10.517202209561985"><ele>78.66666666666667</ele><time>2026-04-19T07:44:38Z</time></trkpt><trkpt lat="43.47306270702828" lon="10.516965936503842"><ele>76.33333333333334</ele><time>2026-04-19T07:44:39Z</time></trkpt><trkpt lat="43.47304512769213" lon="10.516732053503834"><ele>74.0</ele><time>2026-04-19T07:44:40Z</time></trkpt><trkpt lat="43.47303756957692" lon="10.516474627623348"><ele>71.33333333333334</ele><time>2026-04-19T07:44:41Z</time></trkpt><trkpt lat="43.47303895318599" lon="10.516205448946463"><ele>68.66666666666667</ele><time>2026-04-19T07:44:42Z</time></trkpt><trkpt lat="43.47303877111984" lon="10.515956153674738"><ele>66.0</ele><time>2026-04-19T07:44:43Z</time></trkpt><trkpt lat="43.47303471437631" lon="10.515707929818834"><ele>66.0</ele><time>2026-04-19T07:44:44Z</time></trkpt><trkpt lat="43.47302697373282" lon="10.515482647984875"><ele>66.0</ele><time>2026-04-19T07:44:45Z</time></trkpt><trkpt lat="43.473003376353375" lon="10.515273429359697"><ele>66.0</ele><time>2026-04-19T07:44:46Z</time></trkpt><trkpt lat="43.47297123771543" lon="10.515086500743202"><ele>65.25</ele><time>2026-04-19T07:44:47Z</time></trkpt><trkpt lat="43.472927115104625" lon="10.51490061607854"><ele>64.5</ele><time>2026-04-19T07:44:48Z</time></trkpt><trkpt lat="43.47286467004153" lon="10.514715864192787"><ele>63.75</ele><time>2026-04-19T07:44:49Z</time></trkpt><trkpt lat="43.4727863764805" lon="10.514529647634626"><ele>63.0</ele><time>2026-04-19T07:44:50Z</time></trkpt><trkpt lat="43.47268886334046" lon="10.514338137013866"><ele>63.0</ele><time>2026-04-19T07:44:51Z</time></trkpt><trkpt lat="43.47259726325715" lon="10.51415600149773"><ele>63.0</ele><time>2026-04-19T07:44:52Z</time></trkpt><trkpt lat="43.472519244532414" lon="10.513995146852126"><ele>63.0</ele><time>2026-04-19T07:44:53Z</time></trkpt><trkpt lat="43.47244590511223" lon="10.513855514653498"><ele>63.0</ele><time>2026-04-19T07:44:54Z</time></trkpt><trkpt lat="43.47238171706438" lon="10.51373504155344"><ele>63.2</ele><time>2026-04-19T07:44:55Z</time></trkpt><trkpt lat="43.47230761798246" lon="10.51363264002354"><ele>63.4</ele><time>2026-04-19T07:44:56Z</time></trkpt><trkpt lat="43.47224624052008" lon="10.513519565747442"><ele>63.60000000000001</ele><time>2026-04-19T07:44:57Z</time></trkpt><trkpt lat="43.47218210293974" lon="10.513405880212304"><ele>63.800000000000004</ele><time>2026-04-19T07:44:58Z</time></trkpt><trkpt lat="43.47210226840314" lon="10.51328527569953"><ele>64.0</ele><time>2026-04-19T07:44:59Z</time></trkpt><trkpt lat="43.47200956708128" lon="10.513170314219197"><ele>63.25</ele><time>2026-04-19T07:45:00Z</time></trkpt><trkpt lat="43.47191242698747" lon="10.513064342818188"><ele>62.5</ele><time>2026-04-19T07:45:01Z</time></trkpt><trkpt lat="43.47182429332138" lon="10.512947974857349"><ele>61.75</ele><time>2026-04-19T07:45:02Z</time></trkpt><trkpt lat="43.471714925693085" lon="10.51287471045846"><ele>61.0</ele><time>2026-04-19T07:45:03Z</time></trkpt><trkpt lat="43.47163425598363" lon="10.512803256061204"><ele>61.49999999999999</ele><time>2026-04-19T07:45:04Z</time></trkpt><trkpt lat="43.47156569538446" lon="10.512737970759822"><ele>62.0</ele><time>2026-04-19T07:45:05Z</time></trkpt><trkpt lat="43.47149507664572" lon="10.512677456951453"><ele>62.5</ele><time>2026-04-19T07:45:06Z</time></trkpt><trkpt lat="43.47141826599605" lon="10.512620283094797"><ele>63.0</ele><time>2026-04-19T07:45:07Z</time></trkpt><trkpt lat="43.47134745452323" lon="10.512556071587218"><ele>63.49999999999999</ele><time>2026-04-19T07:45:08Z</time></trkpt><trkpt lat="43.471284033689656" lon="10.512466475616339"><ele>64.0</ele><time>2026-04-19T07:45:09Z</time></trkpt><trkpt lat="43.471198221558126" lon="10.512374636813638"><ele>64.0</ele><time>2026-04-19T07:45:10Z</time></trkpt><trkpt lat="43.47110152429855" lon="10.51229513731368"><ele>64.0</ele><time>2026-04-19T07:45:11Z</time></trkpt><trkpt lat="43.471023043962695" lon="10.512193961544282"><ele>64.0</ele><time>2026-04-19T07:45:12Z</time></trkpt><trkpt lat="43.47094299059667" lon="10.512099271261079"><ele>64.0</ele><time>2026-04-19T07:45:13Z</time></trkpt><trkpt lat="43.47085808127008" lon="10.511996073567321"><ele>64.0</ele><time>2026-04-19T07:45:14Z</time></trkpt><trkpt lat="43.47077363443815" lon="10.511915629230618"><ele>65.66666666666666</ele><time>2026-04-19T07:45:15Z</time></trkpt><trkpt lat="43.47069932107337" lon="10.511836059019537"><ele>67.33333333333333</ele><time>2026-04-19T07:45:16Z</time></trkpt><trkpt lat="43.47064432372553" lon="10.51175478959221"><ele>69.0</ele><time>2026-04-19T07:45:17Z</time></trkpt><trkpt lat="43.47058256299887" lon="10.511673140341877"><ele>70.66666666666667</ele><time>2026-04-19T07:45:18Z</time></trkpt><trkpt lat="43.47051820078586" lon="10.51158220562457"><ele>72.33333333333334</ele><time>2026-04-19T07:45:19Z</time></trkpt><trkpt lat="43.470459183598955" lon="10.511498958435725"><ele>74.0</ele><time>2026-04-19T07:45:20Z</time></trkpt><trkpt lat="43.4703909352188" lon="10.511422400622381"><ele>74.0</ele><time>2026-04-19T07:45:21Z</time></trkpt><trkpt lat="43.47033015813172" lon="10.511319193947088"><ele>74.0</ele><time>2026-04-19T07:45:22Z</time></trkpt><trkpt lat="43.470202111856516" lon="10.511178308392694"><ele>74.0</ele><time>2026-04-19T07:45:24Z</time></trkpt><trkpt lat="43.4701514234405" lon="10.511112281900282"><ele>74.0</ele><time>2026-04-19T07:45:25Z</time></trkpt><trkpt lat="43.470093662792486" lon="10.511068363643567"><ele>74.0</ele><time>2026-04-19T07:45:26Z</time></trkpt><trkpt lat="43.470028267262634" lon="10.51104538775339"><ele>74.4</ele><time>2026-04-19T07:45:27Z</time></trkpt><trkpt lat="43.46993167694884" lon="10.511032077320964"><ele>74.80000000000001</ele><time>2026-04-19T07:45:28Z</time></trkpt><trkpt lat="43.46981665351263" lon="10.511020230825931"><ele>75.19999999999999</ele><time>2026-04-19T07:45:29Z</time></trkpt><trkpt lat="43.46970694148691" lon="10.510986268075705"><ele>75.6</ele><time>2026-04-19T07:45:30Z</time></trkpt><trkpt lat="43.46961082648831" lon="10.510986817866216"><ele>76.0</ele><time>2026-04-19T07:45:31Z</time></trkpt><trkpt lat="43.46950867376829" lon="10.510996811248434"><ele>76.5</ele><time>2026-04-19T07:45:32Z</time></trkpt><trkpt lat="43.46939024423326" lon="10.511024540512198"><ele>77.0</ele><time>2026-04-19T07:45:33Z</time></trkpt><trkpt lat="43.46925972814137" lon="10.511061283465965"><ele>77.5</ele><time>2026-04-19T07:45:34Z</time></trkpt><trkpt lat="43.46912902308733" lon="10.511104254579385"><ele>78.0</ele><time>2026-04-19T07:45:35Z</time></trkpt><trkpt lat="43.469002633068925" lon="10.511153388655249"><ele>78.0</ele><time>2026-04-19T07:45:36Z</time></trkpt><trkpt lat="43.4688861463978" lon="10.511224400861053"><ele>78.0</ele><time>2026-04-19T07:45:37Z</time></trkpt><trkpt lat="43.46876618356917" lon="10.511256404514942"><ele>78.0</ele><time>2026-04-19T07:45:38Z</time></trkpt><trkpt lat="43.46864463813149" lon="10.511307861285973"><ele>78.0</ele><time>2026-04-19T07:45:39Z</time></trkpt><trkpt lat="43.468513315352574" lon="10.511356823396632"><ele>76.0</ele><time>2026-04-19T07:45:40Z</time></trkpt><trkpt lat="43.46837836892257" lon="10.5113906774653"><ele>74.0</ele><time>2026-04-19T07:45:41Z</time></trkpt><trkpt lat="43.46823170365373" lon="10.511409607334839"><ele>72.0</ele><time>2026-04-19T07:45:42Z</time></trkpt><trkpt lat="43.46809154945839" lon="10.511389077354975"><ele>70.0</ele><time>2026-04-19T07:45:43Z</time></trkpt><trkpt lat="43.46795991494079" lon="10.51139458664486"><ele>70.4</ele><time>2026-04-19T07:45:44Z</time></trkpt><trkpt lat="43.46783441776074" lon="10.511417448668704"><ele>70.8</ele><time>2026-04-19T07:45:45Z</time></trkpt><trkpt lat="43.46771924629629" lon="10.511422748238234"><ele>71.2</ele><time>2026-04-19T07:45:46Z</time></trkpt><trkpt lat="43.46761457938378" lon="10.511442746904537"><ele>71.6</ele><time>2026-04-19T07:45:47Z</time></trkpt><trkpt lat="43.467516791667" lon="10.511461345365612"><ele>72.0</ele><time>2026-04-19T07:45:48Z</time></trkpt><trkpt lat="43.467408589545315" lon="10.511449921040354"><ele>72.0</ele><time>2026-04-19T07:45:49Z</time></trkpt><trkpt lat="43.46731257439462" lon="10.51143081663788"><ele>72.0</ele><time>2026-04-19T07:45:50Z</time></trkpt><trkpt lat="43.46721721985284" lon="10.511513447255945"><ele>72.0</ele><time>2026-04-19T07:45:51Z</time></trkpt><trkpt lat="43.467119787400385" lon="10.511493998701233"><ele>72.0</ele><time>2026-04-19T07:45:52Z</time></trkpt><trkpt lat="43.467025563718366" lon="10.511499198913961"><ele>72.0</ele><time>2026-04-19T07:45:53Z</time></trkpt><trkpt lat="43.46692750005663" lon="10.511525306469393"><ele>72.2</ele><time>2026-04-19T07:45:54Z</time></trkpt><trkpt lat="43.46682771993413" lon="10.511510406328155"><ele>72.4</ele><time>2026-04-19T07:45:55Z</time></trkpt><trkpt lat="43.46672909701366" lon="10.511510442914334"><ele>72.6</ele><time>2026-04-19T07:45:56Z</time></trkpt><trkpt lat="43.46663198115589" lon="10.511504686474"><ele>72.8</ele><time>2026-04-19T07:45:57Z</time></trkpt><trkpt lat="43.46653006060032" lon="10.511494409132927"><ele>73.0</ele><time>2026-04-19T07:45:58Z</time></trkpt><trkpt lat="43.46642866944984" lon="10.511478261985058"><ele>73.0</ele><time>2026-04-19T07:45:59Z</time></trkpt><trkpt lat="43.4663368702715" lon="10.511460204463312"><ele>73.0</ele><time>2026-04-19T07:46:00Z</time></trkpt><trkpt lat="43.46623877131148" lon="10.51144079926408"><ele>73.0</ele><time>2026-04-19T07:46:01Z</time></trkpt><trkpt lat="43.46613776174037" lon="10.511418932243654"><ele>73.0</ele><time>2026-04-19T07:46:02Z</time></trkpt><trkpt lat="43.46602755015355" lon="10.511393447692582"><ele>73.0</ele><time>2026-04-19T07:46:03Z</time></trkpt><trkpt lat="43.465908940406536" lon="10.51137700264495"><ele>72.8</ele><time>2026-04-19T07:46:04Z</time></trkpt><trkpt lat="43.465798543961604" lon="10.511351644409496"><ele>72.6</ele><time>2026-04-19T07:46:05Z</time></trkpt><trkpt lat="43.46569578925073" lon="10.511324970849586"><ele>72.4</ele><time>2026-04-19T07:46:06Z</time></trkpt><trkpt lat="43.465589160797336" lon="10.511309329307663"><ele>72.2</ele><time>2026-04-19T07:46:07Z</time></trkpt><trkpt lat="43.46548131211297" lon="10.511288506185045"><ele>72.0</ele><time>2026-04-19T07:46:08Z</time></trkpt><trkpt lat="43.46536909564278" lon="10.511265145246625"><ele>72.0</ele><time>2026-04-19T07:46:09Z</time></trkpt><trkpt lat="43.465236149022076" lon="10.511247705322514"><ele>72.0</ele><time>2026-04-19T07:46:10Z</time></trkpt><trkpt lat="43.46510547444608" lon="10.511211594358754"><ele>72.0</ele><time>2026-04-19T07:46:11Z</time></trkpt><trkpt lat="43.464988861111365" lon="10.511186244026867"><ele>72.0</ele><time>2026-04-19T07:46:12Z</time></trkpt><trkpt lat="43.46488010810189" lon="10.511162039124347"><ele>72.2</ele><time>2026-04-19T07:46:13Z</time></trkpt><trkpt lat="43.46478191512737" lon="10.511140010859473"><ele>72.4</ele><time>2026-04-19T07:46:14Z</time></trkpt><trkpt lat="43.46468792202169" lon="10.511122274304059"><ele>72.6</ele><time>2026-04-19T07:46:15Z</time></trkpt><trkpt lat="43.464582892035764" lon="10.511141699771192"><ele>72.8</ele><time>2026-04-19T07:46:16Z</time></trkpt><trkpt lat="43.46446239894322" lon="10.511144558632676"><ele>73.0</ele><time>2026-04-19T07:46:17Z</time></trkpt><trkpt lat="43.464341712886466" lon="10.51115137195355"><ele>73.0</ele><time>2026-04-19T07:46:18Z</time></trkpt><trkpt lat="43.464208727208636" lon="10.511145711126192"><ele>73.0</ele><time>2026-04-19T07:46:19Z</time></trkpt><trkpt lat="43.46407787305302" lon="10.511149753984666"><ele>73.0</ele><time>2026-04-19T07:46:20Z</time></trkpt><trkpt lat="43.46395393488427" lon="10.511153583180944"><ele>73.0</ele><time>2026-04-19T07:46:21Z</time></trkpt><trkpt lat="43.46383464412691" lon="10.511179999678836"><ele>72.6</ele><time>2026-04-19T07:46:22Z</time></trkpt><trkpt lat="43.46371269391219" lon="10.511161793191313"><ele>72.19999999999999</ele><time>2026-04-19T07:46:23Z</time></trkpt><trkpt lat="43.4636036904729" lon="10.511165783904417"><ele>71.8</ele><time>2026-04-19T07:46:24Z</time></trkpt><trkpt lat="43.463501221394615" lon="10.511169535384868"><ele>71.39999999999999</ele><time>2026-04-19T07:46:25Z</time></trkpt><trkpt lat="43.46340821747535" lon="10.511172940337413"><ele>71.0</ele><time>2026-04-19T07:46:26Z</time></trkpt><trkpt lat="43.46332350324807" lon="10.511192063150062"><ele>71.0</ele><time>2026-04-19T07:46:27Z</time></trkpt><trkpt lat="43.46324748396042" lon="10.511189892119091"><ele>71.0</ele><time>2026-04-19T07:46:28Z</time></trkpt><trkpt lat="43.46318387633098" lon="10.511193359172148"><ele>71.0</ele><time>2026-04-19T07:46:29Z</time></trkpt><trkpt lat="43.46307065470329" lon="10.511192916030446"><ele>71.0</ele><time>2026-04-19T07:46:31Z</time></trkpt><trkpt lat="43.46295364449057" lon="10.511194965294989"><ele>71.0</ele><time>2026-04-19T07:46:33Z</time></trkpt><trkpt lat="43.46285831962508" lon="10.511199517711134"><ele>70.6</ele><time>2026-04-19T07:46:35Z</time></trkpt><trkpt lat="43.46277899290723" lon="10.51120649461746"><ele>70.19999999999999</ele><time>2026-04-19T07:46:36Z</time></trkpt><trkpt lat="43.46267940838881" lon="10.511215026548722"><ele>69.80000000000001</ele><time>2026-04-19T07:46:37Z</time></trkpt><trkpt lat="43.462568876237704" lon="10.511228277654212"><ele>69.4</ele><time>2026-04-19T07:46:38Z</time></trkpt><trkpt lat="43.462425995701686" lon="10.511246397937102"><ele>69.0</ele><time>2026-04-19T07:46:39Z</time></trkpt><trkpt lat="43.462277257212286" lon="10.511261608008402"><ele>69.0</ele><time>2026-04-19T07:46:40Z</time></trkpt><trkpt lat="43.462148883649135" lon="10.511288994368623"><ele>69.0</ele><time>2026-04-19T07:46:41Z</time></trkpt><trkpt lat="43.462035443751304" lon="10.511309906801179"><ele>69.0</ele><time>2026-04-19T07:46:42Z</time></trkpt><trkpt lat="43.46191945582634" lon="10.511336940835614"><ele>69.0</ele><time>2026-04-19T07:46:43Z</time></trkpt><trkpt lat="43.46181327015073" lon="10.511389930406736"><ele>69.4</ele><time>2026-04-19T07:46:44Z</time></trkpt><trkpt lat="43.461722374132094" lon="10.511456912497366"><ele>69.80000000000001</ele><time>2026-04-19T07:46:45Z</time></trkpt><trkpt lat="43.46161659015286" lon="10.511487569618064"><ele>70.19999999999999</ele><time>2026-04-19T07:46:46Z</time></trkpt><trkpt lat="43.4615221825643" lon="10.511511326245254"><ele>70.6</ele><time>2026-04-19T07:46:47Z</time></trkpt><trkpt lat="43.46142141888548" lon="10.51151582608176"><ele>71.0</ele><time>2026-04-19T07:46:48Z</time></trkpt><trkpt lat="43.46132879642438" lon="10.511531789206897"><ele>71.0</ele><time>2026-04-19T07:46:49Z</time></trkpt><trkpt lat="43.46126102230532" lon="10.51155186532929"><ele>71.0</ele><time>2026-04-19T07:46:50Z</time></trkpt><trkpt lat="43.461198752519685" lon="10.51158889893643"><ele>71.0</ele><time>2026-04-19T07:46:51Z</time></trkpt><trkpt lat="43.46113138367425" lon="10.511599010499578"><ele>71.0</ele><time>2026-04-19T07:46:52Z</time></trkpt><trkpt lat="43.46106970717368" lon="10.511616680496008"><ele>71.0</ele><time>2026-04-19T07:46:53Z</time></trkpt><trkpt lat="43.46100211612631" lon="10.511633349746452"><ele>71.0</ele><time>2026-04-19T07:46:54Z</time></trkpt><trkpt lat="43.46087775975165" lon="10.511647843229662"><ele>71.0</ele><time>2026-04-19T07:46:56Z</time></trkpt><trkpt lat="43.460742261829104" lon="10.511654703788968"><ele>71.0</ele><time>2026-04-19T07:46:58Z</time></trkpt><trkpt lat="43.460665293656305" lon="10.511659232981959"><ele>71.0</ele><time>2026-04-19T07:46:59Z</time></trkpt><trkpt lat="43.46059383930969" lon="10.51168328416307"><ele>71.0</ele><time>2026-04-19T07:47:00Z</time></trkpt><trkpt lat="43.46052479158101" lon="10.511667500831141"><ele>71.0</ele><time>2026-04-19T07:47:01Z</time></trkpt><trkpt lat="43.46040150696178" lon="10.511698033204624"><ele>71.33333333333334</ele><time>2026-04-19T07:47:03Z</time></trkpt><trkpt lat="43.460266675270574" lon="10.511714031860437"><ele>71.66666666666667</ele><time>2026-04-19T07:47:05Z</time></trkpt><trkpt lat="43.46020177071703" lon="10.511734395926903"><ele>72.0</ele><time>2026-04-19T07:47:06Z</time></trkpt><trkpt lat="43.460127198706644" lon="10.511760590491114"><ele>72.33333333333333</ele><time>2026-04-19T07:47:07Z</time></trkpt><trkpt lat="43.4600441342112" lon="10.511764143860868"><ele>72.66666666666666</ele><time>2026-04-19T07:47:08Z</time></trkpt><trkpt lat="43.459971427877676" lon="10.511789644026038"><ele>73.0</ele><time>2026-04-19T07:47:09Z</time></trkpt><trkpt lat="43.45990125851838" lon="10.511843679426395"><ele>73.0</ele><time>2026-04-19T07:47:10Z</time></trkpt><trkpt lat="43.459840471861106" lon="10.511878687131556"><ele>73.0</ele><time>2026-04-19T07:47:11Z</time></trkpt><trkpt lat="43.45978117197781" lon="10.511922121909437"><ele>73.0</ele><time>2026-04-19T07:47:12Z</time></trkpt><trkpt lat="43.4597220237682" lon="10.511976565220104"><ele>73.0</ele><time>2026-04-19T07:47:13.001Z</time></trkpt><trkpt lat="43.45966638853031" lon="10.51204115784263"><ele>73.0</ele><time>2026-04-19T07:47:14.001Z</time></trkpt><trkpt lat="43.459604153707616" lon="10.51210529869073"><ele>73.0</ele><time>2026-04-19T07:47:15Z</time></trkpt><trkpt lat="43.45952398713078" lon="10.512176127021684"><ele>73.4</ele><time>2026-04-19T07:47:16Z</time></trkpt><trkpt lat="43.45944281442273" lon="10.512241052698108"><ele>73.8</ele><time>2026-04-19T07:47:17Z</time></trkpt><trkpt lat="43.459359331246716" lon="10.512302753684247"><ele>74.2</ele><time>2026-04-19T07:47:18Z</time></trkpt><trkpt lat="43.45926585114441" lon="10.51237033827504"><ele>74.6</ele><time>2026-04-19T07:47:19Z</time></trkpt><trkpt lat="43.45917955014249" lon="10.512425347817024"><ele>75.0</ele><time>2026-04-19T07:47:20Z</time></trkpt><trkpt lat="43.45908974602808" lon="10.51247168902319"><ele>75.0</ele><time>2026-04-19T07:47:21Z</time></trkpt><trkpt lat="43.45900675306548" lon="10.512517248095454"><ele>75.0</ele><time>2026-04-19T07:47:22Z</time></trkpt><trkpt lat="43.45893301806514" lon="10.51255842104515"><ele>75.0</ele><time>2026-04-19T07:47:23Z</time></trkpt><trkpt lat="43.45886629718787" lon="10.512585223571621"><ele>75.0</ele><time>2026-04-19T07:47:24Z</time></trkpt><trkpt lat="43.45873918172507" lon="10.51260786323852"><ele>75.0</ele><time>2026-04-19T07:47:26Z</time></trkpt><trkpt lat="43.458678495459345" lon="10.51273586212455"><ele>75.5</ele><time>2026-04-19T07:47:28Z</time></trkpt><trkpt lat="43.45865562716414" lon="10.512854431075013"><ele>76.0</ele><time>2026-04-19T07:47:29Z</time></trkpt><trkpt lat="43.458625106589814" lon="10.512952876760071"><ele>76.5</ele><time>2026-04-19T07:47:30Z</time></trkpt><trkpt lat="43.4585926262808" lon="10.513045052567463"><ele>77.0</ele><time>2026-04-19T07:47:31Z</time></trkpt><trkpt lat="43.458532525067966" lon="10.513116905712671"><ele>77.5</ele><time>2026-04-19T07:47:32Z</time></trkpt><trkpt lat="43.45843984020643" lon="10.513170047020747"><ele>78.0</ele><time>2026-04-19T07:47:33Z</time></trkpt><trkpt lat="43.45833590265688" lon="10.51323835913991"><ele>78.0</ele><time>2026-04-19T07:47:34Z</time></trkpt><trkpt lat="43.45825253373094" lon="10.51332302745244"><ele>78.0</ele><time>2026-04-19T07:47:35Z</time></trkpt><trkpt lat="43.45817430728852" lon="10.513417703954524"><ele>78.0</ele><time>2026-04-19T07:47:36Z</time></trkpt><trkpt lat="43.45809904566973" lon="10.513516676428507"><ele>78.0</ele><time>2026-04-19T07:47:37Z</time></trkpt><trkpt lat="43.45804136128144" lon="10.513606008778895"><ele>78.0</ele><time>2026-04-19T07:47:38Z</time></trkpt><trkpt lat="43.457962512228654" lon="10.513715126092189"><ele>77.2</ele><time>2026-04-19T07:47:40Z</time></trkpt><trkpt lat="43.45785539853162" lon="10.513783286999544"><ele>76.4</ele><time>2026-04-19T07:47:42Z</time></trkpt><trkpt lat="43.45776389992213" lon="10.513818931370974"><ele>75.60000000000001</ele><time>2026-04-19T07:47:43Z</time></trkpt><trkpt lat="43.457684874591116" lon="10.513846070965732"><ele>74.8</ele><time>2026-04-19T07:47:44Z</time></trkpt><trkpt lat="43.45761825363841" lon="10.51386051486427"><ele>74.0</ele><time>2026-04-19T07:47:45Z</time></trkpt><trkpt lat="43.457508810977444" lon="10.513901828224405"><ele>74.0</ele><time>2026-04-19T07:47:47Z</time></trkpt><trkpt lat="43.4574199856662" lon="10.51389393041381"><ele>74.0</ele><time>2026-04-19T07:47:49Z</time></trkpt><trkpt lat="43.45742203362987" lon="10.513767928300913"><ele>74.0</ele><time>2026-04-19T07:47:52Z</time></trkpt><trkpt lat="43.45750297630891" lon="10.513595843050169"><ele>74.0</ele><time>2026-04-19T07:47:54Z</time></trkpt><trkpt lat="43.45756251122245" lon="10.513477083328425"><ele>74.0</ele><time>2026-04-19T07:47:55Z</time></trkpt><trkpt lat="43.45761268771074" lon="10.513338204306379"><ele>74.0</ele><time>2026-04-19T07:47:56Z</time></trkpt><trkpt lat="43.45766272962483" lon="10.513180743160357"><ele>74.0</ele><time>2026-04-19T07:47:57Z</time></trkpt><trkpt lat="43.457713151240625" lon="10.513026295798946"><ele>74.0</ele><time>2026-04-19T07:47:58Z</time></trkpt><trkpt lat="43.45775690338936" lon="10.512889325462073"><ele>74.0</ele><time>2026-04-19T07:47:59Z</time></trkpt><trkpt lat="43.45778983476431" lon="10.512780702357015"><ele>74.0</ele><time>2026-04-19T07:48:00Z</time></trkpt><trkpt lat="43.45782030102684" lon="10.512666235889998"><ele>74.0</ele><time>2026-04-19T07:48:01Z</time></trkpt><trkpt lat="43.4578475509993" lon="10.512542465619688"><ele>74.0</ele><time>2026-04-19T07:48:02Z</time></trkpt><trkpt lat="43.45788100251202" lon="10.512429409178116"><ele>74.0</ele><time>2026-04-19T07:48:03Z</time></trkpt><trkpt lat="43.45791105379405" lon="10.51231895837323"><ele>74.0</ele><time>2026-04-19T07:48:04Z</time></trkpt><trkpt lat="43.45793727157607" lon="10.512210129092047"><ele>74.0</ele><time>2026-04-19T07:48:05Z</time></trkpt><trkpt lat="43.45796230032841" lon="10.512101938947904"><ele>74.0</ele><time>2026-04-19T07:48:06Z</time></trkpt><trkpt lat="43.45798146194725" lon="10.511997527031234"><ele>75.83333333333334</ele><time>2026-04-19T07:48:07Z</time></trkpt><trkpt lat="43.458005558020275" lon="10.511903975231107"><ele>77.66666666666667</ele><time>2026-04-19T07:48:08Z</time></trkpt><trkpt lat="43.4580388815068" lon="10.511804614852116"><ele>79.5</ele><time>2026-04-19T07:48:09Z</time></trkpt><trkpt lat="43.45810293124264" lon="10.511727962203858"><ele>81.33333333333333</ele><time>2026-04-19T07:48:10Z</time></trkpt><trkpt lat="43.458130594607304" lon="10.511625038302666"><ele>83.16666666666666</ele><time>2026-04-19T07:48:11Z</time></trkpt><trkpt lat="43.45815777944953" lon="10.511527096809234"><ele>85.0</ele><time>2026-04-19T07:48:12Z</time></trkpt><trkpt lat="43.45818994520452" lon="10.511416181582035"><ele>85.0</ele><time>2026-04-19T07:48:13Z</time></trkpt><trkpt lat="43.458228355354535" lon="10.511291953856547"><ele>85.0</ele><time>2026-04-19T07:48:14Z</time></trkpt><trkpt lat="43.4582667023813" lon="10.511163805807126"><ele>85.0</ele><time>2026-04-19T07:48:15Z</time></trkpt><trkpt lat="43.458304447566455" lon="10.511025746579836"><ele>85.0</ele><time>2026-04-19T07:48:16Z</time></trkpt><trkpt lat="43.45833726866569" lon="10.51089061918398"><ele>85.0</ele><time>2026-04-19T07:48:17Z</time></trkpt><trkpt lat="43.45836037360174" lon="10.510777097117902"><ele>86.0</ele><time>2026-04-19T07:48:18Z</time></trkpt><trkpt lat="43.45836736026986" lon="10.51065790703139"><ele>87.0</ele><time>2026-04-19T07:48:19Z</time></trkpt><trkpt lat="43.45836733541659" lon="10.510545445964985"><ele>88.0</ele><time>2026-04-19T07:48:20Z</time></trkpt><trkpt lat="43.45836015082951" lon="10.510422909158658"><ele>89.0</ele><time>2026-04-19T07:48:21Z</time></trkpt><trkpt lat="43.45833713781864" lon="10.510288022144485"><ele>90.0</ele><time>2026-04-19T07:48:22Z</time></trkpt><trkpt lat="43.458335901727814" lon="10.510142065408067"><ele>90.4</ele><time>2026-04-19T07:48:23Z</time></trkpt><trkpt lat="43.458322277131465" lon="10.509998068205919"><ele>90.8</ele><time>2026-04-19T07:48:24Z</time></trkpt><trkpt lat="43.45829309342117" lon="10.509868046835061"><ele>91.19999999999999</ele><time>2026-04-19T07:48:25Z</time></trkpt><trkpt lat="43.458277202365544" lon="10.509751432436246"><ele>91.6</ele><time>2026-04-19T07:48:26Z</time></trkpt><trkpt lat="43.45825085995917" lon="10.509637516911278"><ele>92.0</ele><time>2026-04-19T07:48:27Z</time></trkpt><trkpt lat="43.45821928924247" lon="10.509532694727477"><ele>91.33333333333334</ele><time>2026-04-19T07:48:28Z</time></trkpt><trkpt lat="43.45819816096464" lon="10.509428320297378"><ele>90.66666666666667</ele><time>2026-04-19T07:48:29Z</time></trkpt><trkpt lat="43.45814581990078" lon="10.50934251854666"><ele>90.0</ele><time>2026-04-19T07:48:30Z</time></trkpt><trkpt lat="43.45811271296391" lon="10.509228249920467"><ele>89.33333333333333</ele><time>2026-04-19T07:48:31Z</time></trkpt><trkpt lat="43.45807112902089" lon="10.509124663262174"><ele>88.66666666666666</ele><time>2026-04-19T07:48:32Z</time></trkpt><trkpt lat="43.45803314656427" lon="10.50903009746593"><ele>88.0</ele><time>2026-04-19T07:48:33Z</time></trkpt><trkpt lat="43.45799483708011" lon="10.508934717249497"><ele>88.0</ele><time>2026-04-19T07:48:34Z</time></trkpt><trkpt lat="43.45794129360916" lon="10.508849215397486"><ele>88.0</ele><time>2026-04-19T07:48:35Z</time></trkpt><trkpt lat="43.45792016139254" lon="10.508752893678528"><ele>88.0</ele><time>2026-04-19T07:48:36Z</time></trkpt><trkpt lat="43.457852601273814" lon="10.508625922374085"><ele>88.0</ele><time>2026-04-19T07:48:38Z</time></trkpt><trkpt lat="43.457799270089964" lon="10.50850127828302"><ele>88.0</ele><time>2026-04-19T07:48:40Z</time></trkpt><trkpt lat="43.457727348152325" lon="10.508399828572246"><ele>87.2</ele><time>2026-04-19T07:48:42Z</time></trkpt><trkpt lat="43.457609396372234" lon="10.508362804123186"><ele>86.4</ele><time>2026-04-19T07:48:44Z</time></trkpt><trkpt lat="43.45754702791734" lon="10.508376524329378"><ele>85.60000000000001</ele><time>2026-04-19T07:48:45Z</time></trkpt><trkpt lat="43.45745012995087" lon="10.508385704787376"><ele>84.80000000000001</ele><time>2026-04-19T07:48:47Z</time></trkpt><trkpt lat="43.45734853007819" lon="10.50840244984243"><ele>84.0</ele><time>2026-04-19T07:48:49Z</time></trkpt><trkpt lat="43.457236577240124" lon="10.508523538782574"><ele>84.0</ele><time>2026-04-19T07:48:51Z</time></trkpt><trkpt lat="43.457144302870056" lon="10.508644612177859"><ele>84.0</ele><time>2026-04-19T07:48:53Z</time></trkpt><trkpt lat="43.45708107007551" lon="10.50871584705583"><ele>84.0</ele><time>2026-04-19T07:48:54Z</time></trkpt><trkpt lat="43.45702355542788" lon="10.508809887390338"><ele>84.0</ele><time>2026-04-19T07:48:55Z</time></trkpt><trkpt lat="43.45696377873174" lon="10.508873477986297"><ele>84.0</ele><time>2026-04-19T07:48:56Z</time></trkpt><trkpt lat="43.456902838505336" lon="10.508930687083165"><ele>84.0</ele><time>2026-04-19T07:48:57Z</time></trkpt><trkpt lat="43.456833280577115" lon="10.508969127041786"><ele>83.33333333333333</ele><time>2026-04-19T07:48:58.001Z</time></trkpt><trkpt lat="43.45675983561575" lon="10.508950153988797"><ele>82.66666666666667</ele><time>2026-04-19T07:48:59.001Z</time></trkpt><trkpt lat="43.45667986715103" lon="10.508927238721268"><ele>82.0</ele><time>2026-04-19T07:49:00.001Z</time></trkpt><trkpt lat="43.45659543108832" lon="10.508901691484226"><ele>81.33333333333334</ele><time>2026-04-19T07:49:01.001Z</time></trkpt><trkpt lat="43.45652850261467" lon="10.508874552423022"><ele>80.66666666666667</ele><time>2026-04-19T07:49:02.001Z</time></trkpt><trkpt lat="43.456458045753635" lon="10.508893400879554"><ele>80.0</ele><time>2026-04-19T07:49:03.001Z</time></trkpt><trkpt lat="43.45638017269944" lon="10.50886841257991"><ele>80.0</ele><time>2026-04-19T07:49:04.001Z</time></trkpt><trkpt lat="43.45631333185737" lon="10.508857872672012"><ele>80.0</ele><time>2026-04-19T07:49:05.001Z</time></trkpt><trkpt lat="43.45619868102572" lon="10.508865596142646"><ele>80.0</ele><time>2026-04-19T07:49:07.001Z</time></trkpt><trkpt lat="43.456099844020756" lon="10.508840518264531"><ele>80.0</ele><time>2026-04-19T07:49:09.001Z</time></trkpt><trkpt lat="43.45602888917559" lon="10.508816359972865"><ele>80.0</ele><time>2026-04-19T07:49:10.001Z</time></trkpt><trkpt lat="43.45596304709604" lon="10.508777183980333"><ele>80.0</ele><time>2026-04-19T07:49:11.001Z</time></trkpt><trkpt lat="43.455882504096415" lon="10.508741318158165"><ele>78.0</ele><time>2026-04-19T07:49:12.001Z</time></trkpt><trkpt lat="43.45580627768498" lon="10.508710107195073"><ele>76.0</ele><time>2026-04-19T07:49:13.001Z</time></trkpt><trkpt lat="43.45572159176539" lon="10.508677434825458"><ele>74.0</ele><time>2026-04-19T07:49:14.001Z</time></trkpt><trkpt lat="43.45562699004139" lon="10.508637651333668"><ele>72.0</ele><time>2026-04-19T07:49:15.001Z</time></trkpt><trkpt lat="43.45553648841502" lon="10.508599454400859"><ele>70.0</ele><time>2026-04-19T07:49:16.001Z</time></trkpt><trkpt lat="43.45544726811091" lon="10.508559022266196"><ele>70.0</ele><time>2026-04-19T07:49:17.001Z</time></trkpt><trkpt lat="43.45536451927831" lon="10.50851969427508"><ele>70.0</ele><time>2026-04-19T07:49:18.001Z</time></trkpt><trkpt lat="43.45527358770122" lon="10.508476400807108"><ele>70.0</ele><time>2026-04-19T07:49:19.001Z</time></trkpt><trkpt lat="43.45517083326714" lon="10.5084138451291"><ele>70.0</ele><time>2026-04-19T07:49:20.001Z</time></trkpt><trkpt lat="43.4550735704748" lon="10.508345689906628"><ele>70.0</ele><time>2026-04-19T07:49:21Z</time></trkpt><trkpt lat="43.454968407403854" lon="10.508276203780941"><ele>70.0</ele><time>2026-04-19T07:49:22Z</time></trkpt><trkpt lat="43.45485665142803" lon="10.508211931047832"><ele>70.0</ele><time>2026-04-19T07:49:23Z</time></trkpt><trkpt lat="43.45475788712176" lon="10.508167415539598"><ele>70.0</ele><time>2026-04-19T07:49:24Z</time></trkpt><trkpt lat="43.4546597894337" lon="10.508123058073739"><ele>70.0</ele><time>2026-04-19T07:49:25Z</time></trkpt><trkpt lat="43.45456315003155" lon="10.508086312975031"><ele>70.0</ele><time>2026-04-19T07:49:26Z</time></trkpt><trkpt lat="43.45447400979932" lon="10.508063711909761"><ele>69.8</ele><time>2026-04-19T07:49:27Z</time></trkpt><trkpt lat="43.45438949675465" lon="10.508050098516797"><ele>69.6</ele><time>2026-04-19T07:49:28Z</time></trkpt><trkpt lat="43.454293081075456" lon="10.50804497255214"><ele>69.4</ele><time>2026-04-19T07:49:29Z</time></trkpt><trkpt lat="43.454205436199565" lon="10.508037728130791"><ele>69.2</ele><time>2026-04-19T07:49:30Z</time></trkpt><trkpt lat="43.45412355266207" lon="10.508019146199992"><ele>69.0</ele><time>2026-04-19T07:49:31Z</time></trkpt><trkpt lat="43.45402571648419" lon="10.507989323880377"><ele>69.0</ele><time>2026-04-19T07:49:32Z</time></trkpt><trkpt lat="43.4539225126416" lon="10.507955345410345"><ele>69.0</ele><time>2026-04-19T07:49:33Z</time></trkpt><trkpt lat="43.45381402425258" lon="10.507922645399086"><ele>69.0</ele><time>2026-04-19T07:49:34Z</time></trkpt><trkpt lat="43.45371170425234" lon="10.50788263805877"><ele>69.0</ele><time>2026-04-19T07:49:35Z</time></trkpt><trkpt lat="43.4536202635503" lon="10.507826409745627"><ele>69.0</ele><time>2026-04-19T07:49:36Z</time></trkpt><trkpt lat="43.45353233818806" lon="10.507767438669985"><ele>68.16666666666667</ele><time>2026-04-19T07:49:37Z</time></trkpt><trkpt lat="43.45346423772353" lon="10.507648055163953"><ele>67.33333333333333</ele><time>2026-04-19T07:49:38Z</time></trkpt><trkpt lat="43.45338586169407" lon="10.50759289056274"><ele>66.5</ele><time>2026-04-19T07:49:39Z</time></trkpt><trkpt lat="43.45332085064377" lon="10.507538341941897"><ele>65.66666666666666</ele><time>2026-04-19T07:49:40Z</time></trkpt><trkpt lat="43.45325660947249" lon="10.507473207047884"><ele>64.83333333333333</ele><time>2026-04-19T07:49:41Z</time></trkpt><trkpt lat="43.453194870318875" lon="10.507400717464947"><ele>64.0</ele><time>2026-04-19T07:49:42Z</time></trkpt><trkpt lat="43.45313882913177" lon="10.507330800144679"><ele>63.99999999999999</ele><time>2026-04-19T07:49:43Z</time></trkpt><trkpt lat="43.453073737982265" lon="10.50728001773855"><ele>64.0</ele><time>2026-04-19T07:49:44Z</time></trkpt><trkpt lat="43.45300745363951" lon="10.507233647689068"><ele>64.0</ele><time>2026-04-19T07:49:45Z</time></trkpt><trkpt lat="43.4529462351707" lon="10.507162372827946"><ele>64.0</ele><time>2026-04-19T07:49:46Z</time></trkpt><trkpt lat="43.452870106826076" lon="10.50710052347603"><ele>63.99999999999999</ele><time>2026-04-19T07:49:47Z</time></trkpt><trkpt lat="43.45278774867635" lon="10.507033505687252"><ele>64.0</ele><time>2026-04-19T07:49:48Z</time></trkpt><trkpt lat="43.45269993220816" lon="10.50699030132699"><ele>64.0</ele><time>2026-04-19T07:49:49Z</time></trkpt><trkpt lat="43.45262404062984" lon="10.506925321241216"><ele>64.0</ele><time>2026-04-19T07:49:50Z</time></trkpt><trkpt lat="43.45253824026589" lon="10.506872301578868"><ele>64.0</ele><time>2026-04-19T07:49:51Z</time></trkpt><trkpt lat="43.45246351699108" lon="10.506825273886726"><ele>64.0</ele><time>2026-04-19T07:49:52Z</time></trkpt><trkpt lat="43.4523794541729" lon="10.506763928686146"><ele>64.0</ele><time>2026-04-19T07:49:53Z</time></trkpt><trkpt lat="43.45229234988026" lon="10.50670872985036"><ele>64.0</ele><time>2026-04-19T07:49:54Z</time></trkpt><trkpt lat="43.45219753388171" lon="10.506651289300331"><ele>64.0</ele><time>2026-04-19T07:49:55Z</time></trkpt><trkpt lat="43.452113145481526" lon="10.506571053699362"><ele>64.0</ele><time>2026-04-19T07:49:56Z</time></trkpt><trkpt lat="43.45202300864414" lon="10.506496845683847"><ele>64.0</ele><time>2026-04-19T07:49:57Z</time></trkpt><trkpt lat="43.451952272448985" lon="10.506405692177735"><ele>64.0</ele><time>2026-04-19T07:49:58Z</time></trkpt><trkpt lat="43.45186887611452" lon="10.506294446453033"><ele>63.2</ele><time>2026-04-19T07:49:59Z</time></trkpt><trkpt lat="43.45180045496266" lon="10.506195983648015"><ele>62.400000000000006</ele><time>2026-04-19T07:50:00Z</time></trkpt><trkpt lat="43.45172958594323" lon="10.506105401328588"><ele>61.6</ele><time>2026-04-19T07:50:01Z</time></trkpt><trkpt lat="43.451662682583105" lon="10.506020643712867"><ele>60.8</ele><time>2026-04-19T07:50:02Z</time></trkpt><trkpt lat="43.45158271018699" lon="10.505918439912577"><ele>60.0</ele><time>2026-04-19T07:50:03Z</time></trkpt><trkpt lat="43.45150835010921" lon="10.505846382527224"><ele>60.0</ele><time>2026-04-19T07:50:04Z</time></trkpt><trkpt lat="43.45146179497422" lon="10.505737401971178"><ele>60.0</ele><time>2026-04-19T07:50:05Z</time></trkpt><trkpt lat="43.4514112074979" lon="10.505630790381126"><ele>60.0</ele><time>2026-04-19T07:50:06Z</time></trkpt><trkpt lat="43.45136882468504" lon="10.50554149102316"><ele>60.0</ele><time>2026-04-19T07:50:07Z</time></trkpt><trkpt lat="43.45132647288125" lon="10.505452257356707"><ele>60.0</ele><time>2026-04-19T07:50:08Z</time></trkpt><trkpt lat="43.451271149791076" lon="10.505366152681347"><ele>60.0</ele><time>2026-04-19T07:50:09Z</time></trkpt><trkpt lat="43.451223006480205" lon="10.505263516552548"><ele>59.2</ele><time>2026-04-19T07:50:10Z</time></trkpt><trkpt lat="43.451166969992926" lon="10.505145683955648"><ele>58.4</ele><time>2026-04-19T07:50:11Z</time></trkpt><trkpt lat="43.45110180773699" lon="10.505021088450198"><ele>57.599999999999994</ele><time>2026-04-19T07:50:12Z</time></trkpt><trkpt lat="43.451040854076076" lon="10.50490064671853"><ele>56.8</ele><time>2026-04-19T07:50:13Z</time></trkpt><trkpt lat="43.450984931387055" lon="10.504786230971389"><ele>56.0</ele><time>2026-04-19T07:50:14Z</time></trkpt><trkpt lat="43.45093156874698" lon="10.504672787734437"><ele>55.199999999999996</ele><time>2026-04-19T07:50:15Z</time></trkpt><trkpt lat="43.45089268561404" lon="10.504540932040237"><ele>54.39999999999999</ele><time>2026-04-19T07:50:16Z</time></trkpt><trkpt lat="43.45083705444985" lon="10.504434046640814"><ele>53.6</ele><time>2026-04-19T07:50:17Z</time></trkpt><trkpt lat="43.45077721401395" lon="10.504349584615285"><ele>52.8</ele><time>2026-04-19T07:50:18Z</time></trkpt><trkpt lat="43.45071021135622" lon="10.504221546083807"><ele>52.0</ele><time>2026-04-19T07:50:20Z</time></trkpt><trkpt lat="43.45065309309598" lon="10.504126363536265"><ele>51.99999999999999</ele><time>2026-04-19T07:50:22Z</time></trkpt><trkpt lat="43.450599733727366" lon="10.504011821254727"><ele>52.0</ele><time>2026-04-19T07:50:24Z</time></trkpt><trkpt lat="43.45055113889631" lon="10.503940054228476"><ele>52.0</ele><time>2026-04-19T07:50:25Z</time></trkpt><trkpt lat="43.45048834683052" lon="10.503880542011718"><ele>52.0</ele><time>2026-04-19T07:50:26Z</time></trkpt><trkpt lat="43.450447282983234" lon="10.503811663721264"><ele>51.99999999999999</ele><time>2026-04-19T07:50:27Z</time></trkpt><trkpt lat="43.45040213840206" lon="10.503749541631093"><ele>52.0</ele><time>2026-04-19T07:50:28Z</time></trkpt><trkpt lat="43.450357170646654" lon="10.503667215281123"><ele>50.99999999999999</ele><time>2026-04-19T07:50:29Z</time></trkpt><trkpt lat="43.45028992048761" lon="10.503589956839997"><ele>50.0</ele><time>2026-04-19T07:50:30Z</time></trkpt><trkpt lat="43.45022374023465" lon="10.503544183772513"><ele>49.0</ele><time>2026-04-19T07:50:31Z</time></trkpt><trkpt lat="43.450157426522544" lon="10.503478598263841"><ele>48.0</ele><time>2026-04-19T07:50:32Z</time></trkpt><trkpt lat="43.450067372655454" lon="10.503419483020501"><ele>47.0</ele><time>2026-04-19T07:50:33Z</time></trkpt><trkpt lat="43.4499776286144" lon="10.503347392022429"><ele>46.0</ele><time>2026-04-19T07:50:34Z</time></trkpt><trkpt lat="43.44988389859951" lon="10.5032667286785"><ele>46.0</ele><time>2026-04-19T07:50:35Z</time></trkpt><trkpt lat="43.44980399625386" lon="10.50319786633252"><ele>46.0</ele><time>2026-04-19T07:50:36.001Z</time></trkpt><trkpt lat="43.4497404165774" lon="10.503157728336829"><ele>46.0</ele><time>2026-04-19T07:50:37.001Z</time></trkpt><trkpt lat="43.449680842980456" lon="10.503093874636079"><ele>46.0</ele><time>2026-04-19T07:50:38.001Z</time></trkpt><trkpt lat="43.44961469602132" lon="10.503007792960043"><ele>46.0</ele><time>2026-04-19T07:50:39.001Z</time></trkpt><trkpt lat="43.44954666493481" lon="10.502923233463106"><ele>46.0</ele><time>2026-04-19T07:50:40.001Z</time></trkpt><trkpt lat="43.44949954056927" lon="10.502856929204805"><ele>45.0</ele><time>2026-04-19T07:50:41.001Z</time></trkpt><trkpt lat="43.44944143332767" lon="10.50278496427635"><ele>44.0</ele><time>2026-04-19T07:50:42.001Z</time></trkpt><trkpt lat="43.449365534471184" lon="10.502723067887805"><ele>43.0</ele><time>2026-04-19T07:50:43.001Z</time></trkpt><trkpt lat="43.449287304352424" lon="10.502658013643211"><ele>42.0</ele><time>2026-04-19T07:50:44.001Z</time></trkpt><trkpt lat="43.4492185138802" lon="10.502615184745292"><ele>41.0</ele><time>2026-04-19T07:50:45.001Z</time></trkpt><trkpt lat="43.44914108580281" lon="10.502569854166051"><ele>40.0</ele><time>2026-04-19T07:50:46.001Z</time></trkpt><trkpt lat="43.4490690457325" lon="10.502534819958314"><ele>40.0</ele><time>2026-04-19T07:50:47.001Z</time></trkpt><trkpt lat="43.449003317790975" lon="10.502505746162893"><ele>40.0</ele><time>2026-04-19T07:50:48.001Z</time></trkpt><trkpt lat="43.44894294335411" lon="10.50247469490485"><ele>40.0</ele><time>2026-04-19T07:50:49.001Z</time></trkpt><trkpt lat="43.44887384792022" lon="10.502450447111155"><ele>40.0</ele><time>2026-04-19T07:50:50.001Z</time></trkpt><trkpt lat="43.44881157551127" lon="10.502429389730041"><ele>40.0</ele><time>2026-04-19T07:50:51.001Z</time></trkpt><trkpt lat="43.44874509386188" lon="10.502406998987881"><ele>40.0</ele><time>2026-04-19T07:50:52.001Z</time></trkpt><trkpt lat="43.448678433448265" lon="10.502394140617346"><ele>40.0</ele><time>2026-04-19T07:50:53.001Z</time></trkpt><trkpt lat="43.44860630626472" lon="10.502374475527887"><ele>39.57142857142857</ele><time>2026-04-19T07:50:54.001Z</time></trkpt><trkpt lat="43.448533362675335" lon="10.502357708700332"><ele>39.142857142857146</ele><time>2026-04-19T07:50:55.001Z</time></trkpt><trkpt lat="43.44846912732442" lon="10.50236040840135"><ele>38.714285714285715</ele><time>2026-04-19T07:50:56.001Z</time></trkpt><trkpt lat="43.4483901668197" lon="10.502358594646989"><ele>38.285714285714285</ele><time>2026-04-19T07:50:57.001Z</time></trkpt><trkpt lat="43.448326268579024" lon="10.50236963216529"><ele>37.857142857142854</ele><time>2026-04-19T07:50:58.001Z</time></trkpt><trkpt lat="43.44825794562477" lon="10.502399557890852"><ele>37.42857142857143</ele><time>2026-04-19T07:50:59.001Z</time></trkpt><trkpt lat="43.448186958977075" lon="10.502442309812086"><ele>37.0</ele><time>2026-04-19T07:51:00.001Z</time></trkpt><trkpt lat="43.44809935627363" lon="10.502496838623689"><ele>37.0</ele><time>2026-04-19T07:51:01.001Z</time></trkpt><trkpt lat="43.44800651878252" lon="10.502567665828709"><ele>37.0</ele><time>2026-04-19T07:51:02.001Z</time></trkpt><trkpt lat="43.447924629192435" lon="10.502628708489953"><ele>37.0</ele><time>2026-04-19T07:51:03.001Z</time></trkpt><trkpt lat="43.44785581590145" lon="10.502655990903436"><ele>37.0</ele><time>2026-04-19T07:51:04.001Z</time></trkpt><trkpt lat="43.447745685739534" lon="10.502722320759606"><ele>37.0</ele><time>2026-04-19T07:51:06.001Z</time></trkpt><trkpt lat="43.44767527248659" lon="10.50275701551913"><ele>36.800000000000004</ele><time>2026-04-19T07:51:07.001Z</time></trkpt><trkpt lat="43.44760987976722" lon="10.502768845004686"><ele>36.6</ele><time>2026-04-19T07:51:08.001Z</time></trkpt><trkpt lat="43.44754585219721" lon="10.502768644502043"><ele>36.400000000000006</ele><time>2026-04-19T07:51:09.001Z</time></trkpt><trkpt lat="43.44741572729919" lon="10.502725151787494"><ele>36.2</ele><time>2026-04-19T07:51:11.001Z</time></trkpt><trkpt lat="43.44736184112947" lon="10.502626281792704"><ele>36.0</ele><time>2026-04-19T07:51:12.001Z</time></trkpt><trkpt lat="43.44730244562573" lon="10.502515688637189"><ele>36.0</ele><time>2026-04-19T07:51:13.001Z</time></trkpt><trkpt lat="43.447232361614255" lon="10.502404526591768"><ele>36.0</ele><time>2026-04-19T07:51:14.001Z</time></trkpt><trkpt lat="43.44716638844123" lon="10.502298747540687"><ele>36.0</ele><time>2026-04-19T07:51:15.001Z</time></trkpt><trkpt lat="43.447103658719236" lon="10.502197134292194"><ele>36.0</ele><time>2026-04-19T07:51:16.001Z</time></trkpt><trkpt lat="43.44703929420245" lon="10.502091222408595"><ele>36.0</ele><time>2026-04-19T07:51:17.001Z</time></trkpt><trkpt lat="43.446961032548856" lon="10.50200827181642"><ele>36.0</ele><time>2026-04-19T07:51:18.001Z</time></trkpt><trkpt lat="43.446902902657676" lon="10.501934042474279"><ele>36.0</ele><time>2026-04-19T07:51:19.001Z</time></trkpt><trkpt lat="43.44684757246169" lon="10.501888810250195"><ele>36.0</ele><time>2026-04-19T07:51:20.001Z</time></trkpt><trkpt lat="43.4467325561403" lon="10.501850227843972"><ele>36.0</ele><time>2026-04-19T07:51:22.001Z</time></trkpt><trkpt lat="43.44661943248256" lon="10.501890069631289"><ele>36.0</ele><time>2026-04-19T07:51:24.001Z</time></trkpt><trkpt lat="43.44656174073427" lon="10.501948155031034"><ele>36.0</ele><time>2026-04-19T07:51:25.001Z</time></trkpt><trkpt lat="43.446495878516" lon="10.502020555141657"><ele>36.0</ele><time>2026-04-19T07:51:26.001Z</time></trkpt><trkpt lat="43.44642206273735" lon="10.502111142277807"><ele>36.0</ele><time>2026-04-19T07:51:27Z</time></trkpt><trkpt lat="43.44633931260256" lon="10.502212999974612"><ele>36.0</ele><time>2026-04-19T07:51:28Z</time></trkpt><trkpt lat="43.44624614895849" lon="10.502333578170452"><ele>36.0</ele><time>2026-04-19T07:51:29Z</time></trkpt><trkpt lat="43.446125354853024" lon="10.502443518685112"><ele>36.25</ele><time>2026-04-19T07:51:30Z</time></trkpt><trkpt lat="43.446020981197" lon="10.502575123798277"><ele>36.5</ele><time>2026-04-19T07:51:31Z</time></trkpt><trkpt lat="43.44591267638906" lon="10.502688846173177"><ele>36.75</ele><time>2026-04-19T07:51:32Z</time></trkpt><trkpt lat="43.44580351467956" lon="10.502802824861323"><ele>37.0</ele><time>2026-04-19T07:51:33Z</time></trkpt><trkpt lat="43.44569443717357" lon="10.502921017558048"><ele>36.75</ele><time>2026-04-19T07:51:34Z</time></trkpt><trkpt lat="43.44556867813122" lon="10.503022193904673"><ele>36.5</ele><time>2026-04-19T07:51:35Z</time></trkpt><trkpt lat="43.44545266997713" lon="10.503140930725994"><ele>36.25</ele><time>2026-04-19T07:51:36Z</time></trkpt><trkpt lat="43.445344404379156" lon="10.50327445300786"><ele>36.0</ele><time>2026-04-19T07:51:37Z</time></trkpt><trkpt lat="43.445231565953456" lon="10.503390356471131"><ele>36.0</ele><time>2026-04-19T07:51:38Z</time></trkpt><trkpt lat="43.445120465310204" lon="10.503505783801765"><ele>36.0</ele><time>2026-04-19T07:51:39Z</time></trkpt><trkpt lat="43.44500305447524" lon="10.503597091092502"><ele>36.0</ele><time>2026-04-19T07:51:40Z</time></trkpt><trkpt lat="43.44490028232079" lon="10.503702319179778"><ele>36.0</ele><time>2026-04-19T07:51:41Z</time></trkpt><trkpt lat="43.44479860374036" lon="10.5038310098016"><ele>36.75</ele><time>2026-04-19T07:51:42Z</time></trkpt><trkpt lat="43.44469113212133" lon="10.503947276943656"><ele>37.5</ele><time>2026-04-19T07:51:43Z</time></trkpt><trkpt lat="43.44458507295364" lon="10.504059755942263"><ele>38.25</ele><time>2026-04-19T07:51:44Z</time></trkpt><trkpt lat="43.444474276117994" lon="10.504150151977987"><ele>39.0</ele><time>2026-04-19T07:51:45Z</time></trkpt><trkpt lat="43.444374127423615" lon="10.504254113850509"><ele>39.0</ele><time>2026-04-19T07:51:46Z</time></trkpt><trkpt lat="43.44427934905847" lon="10.504351935775688"><ele>39.0</ele><time>2026-04-19T07:51:47Z</time></trkpt><trkpt lat="43.44418668125533" lon="10.504447579308371"><ele>39.0</ele><time>2026-04-19T07:51:48Z</time></trkpt><trkpt lat="43.444103917405386" lon="10.504557954648465"><ele>39.0</ele><time>2026-04-19T07:51:49Z</time></trkpt><trkpt lat="43.4440105039743" lon="10.504649882376793"><ele>39.6</ele><time>2026-04-19T07:51:50Z</time></trkpt><trkpt lat="43.44391093253445" lon="10.504726241585443"><ele>40.2</ele><time>2026-04-19T07:51:51Z</time></trkpt><trkpt lat="43.44381964053323" lon="10.504815840319058"><ele>40.800000000000004</ele><time>2026-04-19T07:51:52Z</time></trkpt><trkpt lat="43.44373225129253" lon="10.504901665679796"><ele>41.4</ele><time>2026-04-19T07:51:53Z</time></trkpt><trkpt lat="43.44365768460675" lon="10.504975500890842"><ele>42.0</ele><time>2026-04-19T07:51:54Z</time></trkpt><trkpt lat="43.443582079640414" lon="10.505050364281939"><ele>43.0</ele><time>2026-04-19T07:51:55Z</time></trkpt><trkpt lat="43.443517369278005" lon="10.50514236693125"><ele>44.0</ele><time>2026-04-19T07:51:56Z</time></trkpt><trkpt lat="43.4434449213865" lon="10.505212359623913"><ele>45.0</ele><time>2026-04-19T07:51:57Z</time></trkpt><trkpt lat="43.44335828866841" lon="10.505293394403669"><ele>46.0</ele><time>2026-04-19T07:51:58Z</time></trkpt><trkpt lat="43.44326784573606" lon="10.505393028877211"><ele>47.0</ele><time>2026-04-19T07:51:59Z</time></trkpt><trkpt lat="43.443180801913776" lon="10.505480257887255"><ele>48.0</ele><time>2026-04-19T07:52:00Z</time></trkpt><trkpt lat="43.443116175849035" lon="10.505545068303409"><ele>49.0</ele><time>2026-04-19T07:52:01Z</time></trkpt><trkpt lat="43.44305978763583" lon="10.50560350168563"><ele>50.0</ele><time>2026-04-19T07:52:02Z</time></trkpt><trkpt lat="43.44297318874782" lon="10.505628660385618"><ele>51.0</ele><time>2026-04-19T07:52:04Z</time></trkpt><trkpt lat="43.44290313422361" lon="10.505442769349148"><ele>52.0</ele><time>2026-04-19T07:52:07Z</time></trkpt><trkpt lat="43.442853947304855" lon="10.505306754581865"><ele>52.0</ele><time>2026-04-19T07:52:08Z</time></trkpt><trkpt lat="43.44279419789394" lon="10.505152210120267"><ele>52.0</ele><time>2026-04-19T07:52:09Z</time></trkpt><trkpt lat="43.44273386530463" lon="10.504999576771848"><ele>52.0</ele><time>2026-04-19T07:52:10Z</time></trkpt><trkpt lat="43.442669950214295" lon="10.504846512408312"><ele>52.0</ele><time>2026-04-19T07:52:11Z</time></trkpt><trkpt lat="43.44260676844196" lon="10.50469931054059"><ele>51.33333333333333</ele><time>2026-04-19T07:52:12Z</time></trkpt><trkpt lat="43.44255083308365" lon="10.504568991259772"><ele>50.666666666666664</ele><time>2026-04-19T07:52:13Z</time></trkpt><trkpt lat="43.44250866296734" lon="10.504466283360507"><ele>50.0</ele><time>2026-04-19T07:52:14Z</time></trkpt><trkpt lat="43.442472533783345" lon="10.504371499636536"><ele>49.33333333333333</ele><time>2026-04-19T07:52:15Z</time></trkpt><trkpt lat="43.44243863008426" lon="10.504277243315528"><ele>48.666666666666664</ele><time>2026-04-19T07:52:16Z</time></trkpt><trkpt lat="43.44240360784274" lon="10.504179554589815"><ele>48.0</ele><time>2026-04-19T07:52:17Z</time></trkpt><trkpt lat="43.442361819953504" lon="10.504053399865644"><ele>48.0</ele><time>2026-04-19T07:52:18Z</time></trkpt><trkpt lat="43.442322261714494" lon="10.503919672235114"><ele>48.0</ele><time>2026-04-19T07:52:19Z</time></trkpt><trkpt lat="43.44228721829772" lon="10.50378739742103"><ele>48.0</ele><time>2026-04-19T07:52:20Z</time></trkpt><trkpt lat="43.44225216850432" lon="10.503650230097433"><ele>48.0</ele><time>2026-04-19T07:52:21Z</time></trkpt><trkpt lat="43.442215091911066" lon="10.503496403083382"><ele>48.0</ele><time>2026-04-19T07:52:22Z</time></trkpt><trkpt lat="43.442176342431225" lon="10.50333557165698"><ele>48.0</ele><time>2026-04-19T07:52:23Z</time></trkpt><trkpt lat="43.442140989073714" lon="10.503180605676327"><ele>48.0</ele><time>2026-04-19T07:52:24Z</time></trkpt><trkpt lat="43.44210901159756" lon="10.503040437097622"><ele>48.0</ele><time>2026-04-19T07:52:25Z</time></trkpt><trkpt lat="43.442079983297155" lon="10.502912512340103"><ele>48.0</ele><time>2026-04-19T07:52:26Z</time></trkpt><trkpt lat="43.442056923170895" lon="10.502799521261785"><ele>48.0</ele><time>2026-04-19T07:52:27Z</time></trkpt><trkpt lat="43.442021293888594" lon="10.50267167590646"><ele>48.25</ele><time>2026-04-19T07:52:29Z</time></trkpt><trkpt lat="43.44182263535474" lon="10.502699723703033"><ele>48.5</ele><time>2026-04-19T07:52:30Z</time></trkpt><trkpt lat="43.441709796176475" lon="10.50271957206449"><ele>48.75</ele><time>2026-04-19T07:52:31Z</time></trkpt><trkpt lat="43.44158776651035" lon="10.50275184587121"><ele>49.0</ele><time>2026-04-19T07:52:32Z</time></trkpt><trkpt lat="43.44145076404114" lon="10.502780477840279"><ele>49.0</ele><time>2026-04-19T07:52:33Z</time></trkpt><trkpt lat="43.44131409316979" lon="10.502783035541492"><ele>49.0</ele><time>2026-04-19T07:52:34Z</time></trkpt><trkpt lat="43.44119707778751" lon="10.502823872114961"><ele>49.0</ele><time>2026-04-19T07:52:35Z</time></trkpt><trkpt lat="43.44106935196904" lon="10.502844800992078"><ele>49.0</ele><time>2026-04-19T07:52:36Z</time></trkpt><trkpt lat="43.44094024375603" lon="10.50286695662157"><ele>49.0</ele><time>2026-04-19T07:52:37Z</time></trkpt><trkpt lat="43.44081066765511" lon="10.502896697221116"><ele>49.0</ele><time>2026-04-19T07:52:38Z</time></trkpt><trkpt lat="43.44068126822897" lon="10.502925466944179"><ele>49.0</ele><time>2026-04-19T07:52:39Z</time></trkpt><trkpt lat="43.44055699483933" lon="10.502953736242862"><ele>49.0</ele><time>2026-04-19T07:52:40Z</time></trkpt><trkpt lat="43.440442069906084" lon="10.502956934037853"><ele>47.800000000000004</ele><time>2026-04-19T07:52:41Z</time></trkpt><trkpt lat="43.44033471773305" lon="10.502987781052282"><ele>46.6</ele><time>2026-04-19T07:52:42Z</time></trkpt><trkpt lat="43.44022366215247" lon="10.503010624142826"><ele>45.4</ele><time>2026-04-19T07:52:43Z</time></trkpt><trkpt lat="43.440117891016996" lon="10.503032445152035"><ele>44.2</ele><time>2026-04-19T07:52:44Z</time></trkpt><trkpt lat="43.44002540614668" lon="10.503027504590554"><ele>43.0</ele><time>2026-04-19T07:52:45Z</time></trkpt><trkpt lat="43.43992702286061" lon="10.503025419054909"><ele>43.0</ele><time>2026-04-19T07:52:46Z</time></trkpt><trkpt lat="43.43982173220082" lon="10.503024073632067"><ele>43.0</ele><time>2026-04-19T07:52:47Z</time></trkpt><trkpt lat="43.43970130058109" lon="10.502987216951286"><ele>43.0</ele><time>2026-04-19T07:52:48Z</time></trkpt><trkpt lat="43.4395664858704" lon="10.502963459578464"><ele>43.0</ele><time>2026-04-19T07:52:49Z</time></trkpt><trkpt lat="43.43942304809674" lon="10.502943512292768"><ele>42.333333333333336</ele><time>2026-04-19T07:52:50Z</time></trkpt><trkpt lat="43.43926857463684" lon="10.50292777891695"><ele>41.666666666666664</ele><time>2026-04-19T07:52:51Z</time></trkpt><trkpt lat="43.4391209407339" lon="10.502915884244759"><ele>41.0</ele><time>2026-04-19T07:52:52Z</time></trkpt><trkpt lat="43.438972683527375" lon="10.50290424915616"><ele>41.0</ele><time>2026-04-19T07:52:53.001Z</time></trkpt><trkpt lat="43.43881362716182" lon="10.502913516094688"><ele>41.0</ele><time>2026-04-19T07:52:54.001Z</time></trkpt><trkpt lat="43.438655798231224" lon="10.502901448404753"><ele>41.0</ele><time>2026-04-19T07:52:55.001Z</time></trkpt><trkpt lat="43.43849374600499" lon="10.502869722330258"><ele>41.0</ele><time>2026-04-19T07:52:56.001Z</time></trkpt><trkpt lat="43.43834001244381" lon="10.502859546304409"><ele>41.0</ele><time>2026-04-19T07:52:57.001Z</time></trkpt><trkpt lat="43.43819450516259" lon="10.502870144587991"><ele>41.0</ele><time>2026-04-19T07:52:58.001Z</time></trkpt><trkpt lat="43.43806107902856" lon="10.502861242418588"><ele>41.0</ele><time>2026-04-19T07:52:59.001Z</time></trkpt><trkpt lat="43.43793128021789" lon="10.502853156656837"><ele>40.25</ele><time>2026-04-19T07:53:00.001Z</time></trkpt><trkpt lat="43.43780410660829" lon="10.502841405567588"><ele>39.5</ele><time>2026-04-19T07:53:01.001Z</time></trkpt><trkpt lat="43.43768025432574" lon="10.502826879915183"><ele>38.75</ele><time>2026-04-19T07:53:02.001Z</time></trkpt><trkpt lat="43.43757156122193" lon="10.502793426656142"><ele>38.0</ele><time>2026-04-19T07:53:03.001Z</time></trkpt><trkpt lat="43.4374716159342" lon="10.502802628773745"><ele>38.0</ele><time>2026-04-19T07:53:04.001Z</time></trkpt><trkpt lat="43.43738110670878" lon="10.502778886357515"><ele>38.0</ele><time>2026-04-19T07:53:05.001Z</time></trkpt><trkpt lat="43.43729083388391" lon="10.502790707609583"><ele>38.0</ele><time>2026-04-19T07:53:06.001Z</time></trkpt><trkpt lat="43.43720585613254" lon="10.502780182848806"><ele>38.0</ele><time>2026-04-19T07:53:07.001Z</time></trkpt><trkpt lat="43.43712784128573" lon="10.502773550783743"><ele>38.0</ele><time>2026-04-19T07:53:08.001Z</time></trkpt><trkpt lat="43.437042752704166" lon="10.502816998118686"><ele>38.0</ele><time>2026-04-19T07:53:09.001Z</time></trkpt><trkpt lat="43.436952163507556" lon="10.50290145420737"><ele>37.8</ele><time>2026-04-19T07:53:10.001Z</time></trkpt><trkpt lat="43.436870159964094" lon="10.503019083280712"><ele>37.599999999999994</ele><time>2026-04-19T07:53:11.001Z</time></trkpt><trkpt lat="43.4368091559674" lon="10.503180846743078"><ele>37.400000000000006</ele><time>2026-04-19T07:53:12.001Z</time></trkpt><trkpt lat="43.43673591496704" lon="10.50327560464237"><ele>37.2</ele><time>2026-04-19T07:53:13.001Z</time></trkpt><trkpt lat="43.436668333457625" lon="10.503313097530405"><ele>37.0</ele><time>2026-04-19T07:53:14.001Z</time></trkpt><trkpt lat="43.43659521463422" lon="10.503371616097395"><ele>37.0</ele><time>2026-04-19T07:53:15.001Z</time></trkpt><trkpt lat="43.43654698398058" lon="10.503432908035725"><ele>37.0</ele><time>2026-04-19T07:53:16.001Z</time></trkpt><trkpt lat="43.43649899927641" lon="10.503513279365297"><ele>37.0</ele><time>2026-04-19T07:53:17.001Z</time></trkpt><trkpt lat="43.43647741875829" lon="10.503648515647503"><ele>37.0</ele><time>2026-04-19T07:53:18.001Z</time></trkpt><trkpt lat="43.43644194653579" lon="10.503811695659143"><ele>37.0</ele><time>2026-04-19T07:53:19.001Z</time></trkpt><trkpt lat="43.43639136805579" lon="10.50399917632228"><ele>37.0</ele><time>2026-04-19T07:53:20.001Z</time></trkpt><trkpt lat="43.436353834185475" lon="10.504180772645134"><ele>37.0</ele><time>2026-04-19T07:53:21.001Z</time></trkpt><trkpt lat="43.43631417259287" lon="10.504330489083445"><ele>37.0</ele><time>2026-04-19T07:53:22.001Z</time></trkpt><trkpt lat="43.43628586631177" lon="10.504447967304884"><ele>37.0</ele><time>2026-04-19T07:53:23.001Z</time></trkpt><trkpt lat="43.43627864278782" lon="10.504536483817876"><ele>37.0</ele><time>2026-04-19T07:53:24.001Z</time></trkpt><trkpt lat="43.43630728546707" lon="10.50462985016646"><ele>36.333333333333336</ele><time>2026-04-19T07:53:25.001Z</time></trkpt><trkpt lat="43.43637137532662" lon="10.504736551479965"><ele>35.66666666666667</ele><time>2026-04-19T07:53:26.001Z</time></trkpt><trkpt lat="43.43643349484514" lon="10.504821494666007"><ele>35.0</ele><time>2026-04-19T07:53:27.001Z</time></trkpt><trkpt lat="43.43645826822758" lon="10.504910445477542"><ele>34.333333333333336</ele><time>2026-04-19T07:53:28.001Z</time></trkpt><trkpt lat="43.43644284239623" lon="10.505029457414192"><ele>33.666666666666664</ele><time>2026-04-19T07:53:29.001Z</time></trkpt><trkpt lat="43.43638300695844" lon="10.50514046575562"><ele>33.0</ele><time>2026-04-19T07:53:30.001Z</time></trkpt><trkpt lat="43.43634069453097" lon="10.505308396808484"><ele>34.0</ele><time>2026-04-19T07:53:31.001Z</time></trkpt><trkpt lat="43.43627344184923" lon="10.505490784881296"><ele>35.0</ele><time>2026-04-19T07:53:32.001Z</time></trkpt><trkpt lat="43.436202257654884" lon="10.505660497572382"><ele>36.0</ele><time>2026-04-19T07:53:33Z</time></trkpt><trkpt lat="43.43616471514294" lon="10.505829852656253"><ele>37.0</ele><time>2026-04-19T07:53:34Z</time></trkpt><trkpt lat="43.43617798136815" lon="10.50600873398924"><ele>37.0</ele><time>2026-04-19T07:53:35Z</time></trkpt><trkpt lat="43.43619157298053" lon="10.506182019731545"><ele>37.0</ele><time>2026-04-19T07:53:36Z</time></trkpt><trkpt lat="43.436220655691336" lon="10.50636737096395"><ele>37.0</ele><time>2026-04-19T07:53:37Z</time></trkpt><trkpt lat="43.43625596177309" lon="10.506571206772765"><ele>37.0</ele><time>2026-04-19T07:53:38Z</time></trkpt><trkpt lat="43.436278610952705" lon="10.506739652768065"><ele>36.800000000000004</ele><time>2026-04-19T07:53:39Z</time></trkpt><trkpt lat="43.436279834295085" lon="10.506879375565468"><ele>36.6</ele><time>2026-04-19T07:53:40Z</time></trkpt><trkpt lat="43.43625987131442" lon="10.506990214463297"><ele>36.400000000000006</ele><time>2026-04-19T07:53:41Z</time></trkpt><trkpt lat="43.43622829356733" lon="10.507116877900984"><ele>36.2</ele><time>2026-04-19T07:53:42Z</time></trkpt><trkpt lat="43.43618874240033" lon="10.50725909087784"><ele>36.0</ele><time>2026-04-19T07:53:43Z</time></trkpt><trkpt lat="43.43616387059562" lon="10.50739839237696"><ele>36.4</ele><time>2026-04-19T07:53:44Z</time></trkpt><trkpt lat="43.43613476423276" lon="10.50753838631469"><ele>36.8</ele><time>2026-04-19T07:53:45Z</time></trkpt><trkpt lat="43.43611670501222" lon="10.507679406930238"><ele>37.199999999999996</ele><time>2026-04-19T07:53:46Z</time></trkpt><trkpt lat="43.43611130284675" lon="10.507834173643161"><ele>37.6</ele><time>2026-04-19T07:53:47Z</time></trkpt><trkpt lat="43.43616985848762" lon="10.507984182468858"><ele>38.0</ele><time>2026-04-19T07:53:48Z</time></trkpt><trkpt lat="43.43621093999869" lon="10.508139597035301"><ele>38.0</ele><time>2026-04-19T07:53:49Z</time></trkpt><trkpt lat="43.43626072879677" lon="10.508293761203754"><ele>38.0</ele><time>2026-04-19T07:53:50Z</time></trkpt><trkpt lat="43.43629303791765" lon="10.508476820387852"><ele>38.0</ele><time>2026-04-19T07:53:51Z</time></trkpt><trkpt lat="43.43631097501513" lon="10.508657253189758"><ele>38.0</ele><time>2026-04-19T07:53:52Z</time></trkpt><trkpt lat="43.436323596472164" lon="10.508799799523368"><ele>38.4</ele><time>2026-04-19T07:53:53Z</time></trkpt><trkpt lat="43.43632893288583" lon="10.508930239010981"><ele>38.8</ele><time>2026-04-19T07:53:54Z</time></trkpt><trkpt lat="43.436334870566355" lon="10.509071519581374"><ele>39.2</ele><time>2026-04-19T07:53:55Z</time></trkpt><trkpt lat="43.43634547167865" lon="10.509224330865433"><ele>39.6</ele><time>2026-04-19T07:53:56Z</time></trkpt><trkpt lat="43.43635271394461" lon="10.50936030094889"><ele>40.0</ele><time>2026-04-19T07:53:57Z</time></trkpt><trkpt lat="43.43634927154494" lon="10.50949703519458"><ele>42.2</ele><time>2026-04-19T07:53:58Z</time></trkpt><trkpt lat="43.436334106363034" lon="10.509635095737849"><ele>44.4</ele><time>2026-04-19T07:53:59Z</time></trkpt><trkpt lat="43.43631083031526" lon="10.509781223420417"><ele>46.599999999999994</ele><time>2026-04-19T07:54:00Z</time></trkpt><trkpt lat="43.43628375495189" lon="10.50992990266171"><ele>48.8</ele><time>2026-04-19T07:54:01Z</time></trkpt><trkpt lat="43.43625662065996" lon="10.510087384139538"><ele>51.0</ele><time>2026-04-19T07:54:02Z</time></trkpt><trkpt lat="43.4362358667739" lon="10.510246648380624"><ele>52.5</ele><time>2026-04-19T07:54:03Z</time></trkpt><trkpt lat="43.4362237136118" lon="10.510418991956435"><ele>54.0</ele><time>2026-04-19T07:54:04Z</time></trkpt><trkpt lat="43.436214565053305" lon="10.510576811377756"><ele>55.5</ele><time>2026-04-19T07:54:05Z</time></trkpt><trkpt lat="43.43620439668535" lon="10.510733059679193"><ele>57.0</ele><time>2026-04-19T07:54:06Z</time></trkpt><trkpt lat="43.43619115908503" lon="10.510896019689874"><ele>57.0</ele><time>2026-04-19T07:54:07Z</time></trkpt><trkpt lat="43.43617590943837" lon="10.511071734017237"><ele>57.0</ele><time>2026-04-19T07:54:08Z</time></trkpt><trkpt lat="43.436160959806735" lon="10.511248993742894"><ele>57.0</ele><time>2026-04-19T07:54:09Z</time></trkpt><trkpt lat="43.43613989982436" lon="10.511430105822358"><ele>57.0</ele><time>2026-04-19T07:54:10Z</time></trkpt><trkpt lat="43.43611445985216" lon="10.511612316594212"><ele>58.0</ele><time>2026-04-19T07:54:11Z</time></trkpt><trkpt lat="43.436100004484516" lon="10.511809369078215"><ele>59.0</ele><time>2026-04-19T07:54:12Z</time></trkpt><trkpt lat="43.436091927609866" lon="10.512019154334691"><ele>60.0</ele><time>2026-04-19T07:54:13Z</time></trkpt><trkpt lat="43.43607886356843" lon="10.512229410922693"><ele>60.0</ele><time>2026-04-19T07:54:14Z</time></trkpt><trkpt lat="43.436061726016554" lon="10.512434867151882"><ele>60.0</ele><time>2026-04-19T07:54:15Z</time></trkpt><trkpt lat="43.43603964935311" lon="10.512647801380291"><ele>60.0</ele><time>2026-04-19T07:54:16Z</time></trkpt><trkpt lat="43.43601844927079" lon="10.512835584408245"><ele>60.0</ele><time>2026-04-19T07:54:17Z</time></trkpt><trkpt lat="43.43599923626271" lon="10.513007093609506"><ele>61.0</ele><time>2026-04-19T07:54:18Z</time></trkpt><trkpt lat="43.43598362365119" lon="10.513176084219205"><ele>62.0</ele><time>2026-04-19T07:54:19Z</time></trkpt><trkpt lat="43.435967209461104" lon="10.51336411517778"><ele>63.0</ele><time>2026-04-19T07:54:20Z</time></trkpt><trkpt lat="43.43595066460111" lon="10.513559743526866"><ele>64.0</ele><time>2026-04-19T07:54:21Z</time></trkpt><trkpt lat="43.4359364877366" lon="10.513758770883333"><ele>64.75</ele><time>2026-04-19T07:54:22Z</time></trkpt><trkpt lat="43.435917379296846" lon="10.513954178929358"><ele>65.5</ele><time>2026-04-19T07:54:23Z</time></trkpt><trkpt lat="43.43589636882662" lon="10.51415074980141"><ele>66.25</ele><time>2026-04-19T07:54:24Z</time></trkpt><trkpt lat="43.43587709969837" lon="10.514343527393217"><ele>67.0</ele><time>2026-04-19T07:54:25Z</time></trkpt><trkpt lat="43.43585863113015" lon="10.514541998771948"><ele>67.5</ele><time>2026-04-19T07:54:26Z</time></trkpt><trkpt lat="43.435842093801554" lon="10.514747440078333"><ele>68.0</ele><time>2026-04-19T07:54:27Z</time></trkpt><trkpt lat="43.435829131084965" lon="10.514945570138057"><ele>68.5</ele><time>2026-04-19T07:54:28Z</time></trkpt><trkpt lat="43.43581688460647" lon="10.515149864815537"><ele>69.0</ele><time>2026-04-19T07:54:29Z</time></trkpt><trkpt lat="43.43580229399243" lon="10.515345731857696"><ele>70.0</ele><time>2026-04-19T07:54:30Z</time></trkpt><trkpt lat="43.4357866385586" lon="10.515542634967069"><ele>71.0</ele><time>2026-04-19T07:54:31Z</time></trkpt><trkpt lat="43.43576841231042" lon="10.515746855741604"><ele>72.0</ele><time>2026-04-19T07:54:32Z</time></trkpt><trkpt lat="43.43574879914439" lon="10.515960648798142"><ele>72.0</ele><time>2026-04-19T07:54:33Z</time></trkpt><trkpt lat="43.4357259691477" lon="10.516175309410194"><ele>72.0</ele><time>2026-04-19T07:54:34Z</time></trkpt><trkpt lat="43.43569905398237" lon="10.516374192835958"><ele>72.0</ele><time>2026-04-19T07:54:35Z</time></trkpt><trkpt lat="43.435677178433" lon="10.516552152207474"><ele>72.0</ele><time>2026-04-19T07:54:36Z</time></trkpt><trkpt lat="43.43565661657614" lon="10.516725501683961"><ele>72.5</ele><time>2026-04-19T07:54:37Z</time></trkpt><trkpt lat="43.43563141229398" lon="10.516879685598136"><ele>73.0</ele><time>2026-04-19T07:54:38Z</time></trkpt><trkpt lat="43.435603871874584" lon="10.517035249789995"><ele>73.5</ele><time>2026-04-19T07:54:39Z</time></trkpt><trkpt lat="43.43557661468836" lon="10.517202230939747"><ele>74.0</ele><time>2026-04-19T07:54:40Z</time></trkpt><trkpt lat="43.43553998756156" lon="10.517379908039187"><ele>74.0</ele><time>2026-04-19T07:54:41Z</time></trkpt><trkpt lat="43.435492421005335" lon="10.517545127851498"><ele>74.0</ele><time>2026-04-19T07:54:42Z</time></trkpt><trkpt lat="43.43545201454295" lon="10.517684098184095"><ele>74.0</ele><time>2026-04-19T07:54:43Z</time></trkpt><trkpt lat="43.43542834233569" lon="10.517803191940784"><ele>74.0</ele><time>2026-04-19T07:54:44Z</time></trkpt><trkpt lat="43.43542585316549" lon="10.517950982336357"><ele>74.0</ele><time>2026-04-19T07:54:45Z</time></trkpt><trkpt lat="43.435436510755025" lon="10.518137926090667"><ele>73.75</ele><time>2026-04-19T07:54:46Z</time></trkpt><trkpt lat="43.43544783852834" lon="10.518323853108948"><ele>73.5</ele><time>2026-04-19T07:54:47Z</time></trkpt><trkpt lat="43.43545143469306" lon="10.518498979561652"><ele>73.25</ele><time>2026-04-19T07:54:48Z</time></trkpt><trkpt lat="43.43544039417427" lon="10.518678741241255"><ele>73.0</ele><time>2026-04-19T07:54:49Z</time></trkpt><trkpt lat="43.43542183298465" lon="10.518864952270022"><ele>72.75</ele><time>2026-04-19T07:54:50Z</time></trkpt><trkpt lat="43.435384045645684" lon="10.519059871882845"><ele>72.5</ele><time>2026-04-19T07:54:51Z</time></trkpt><trkpt lat="43.43534842637214" lon="10.519243101182605"><ele>72.25</ele><time>2026-04-19T07:54:52Z</time></trkpt><trkpt lat="43.435332071806705" lon="10.51943364075637"><ele>72.0</ele><time>2026-04-19T07:54:53Z</time></trkpt><trkpt lat="43.43530937347096" lon="10.51962097560697"><ele>72.0</ele><time>2026-04-19T07:54:54Z</time></trkpt><trkpt lat="43.435281388023974" lon="10.519819317069935"><ele>72.0</ele><time>2026-04-19T07:54:55Z</time></trkpt><trkpt lat="43.435276897887476" lon="10.52003496797815"><ele>72.0</ele><time>2026-04-19T07:54:56Z</time></trkpt><trkpt lat="43.435274916726485" lon="10.520263278268738"><ele>73.25</ele><time>2026-04-19T07:54:57Z</time></trkpt><trkpt lat="43.43527723359565" lon="10.52048388841764"><ele>74.5</ele><time>2026-04-19T07:54:58Z</time></trkpt><trkpt lat="43.435276684013985" lon="10.520677387812368"><ele>75.75</ele><time>2026-04-19T07:54:59Z</time></trkpt><trkpt lat="43.43527363650554" lon="10.520874716653022"><ele>77.0</ele><time>2026-04-19T07:55:00Z</time></trkpt><trkpt lat="43.435279146505046" lon="10.521069198254597"><ele>77.5</ele><time>2026-04-19T07:55:01Z</time></trkpt><trkpt lat="43.43527517485153" lon="10.521268572869054"><ele>78.0</ele><time>2026-04-19T07:55:02Z</time></trkpt><trkpt lat="43.435288317737445" lon="10.521450474735321"><ele>78.5</ele><time>2026-04-19T07:55:03Z</time></trkpt><trkpt lat="43.43532832264913" lon="10.52160635858475"><ele>79.0</ele><time>2026-04-19T07:55:04Z</time></trkpt><trkpt lat="43.435372363942875" lon="10.521766682311522"><ele>79.0</ele><time>2026-04-19T07:55:05Z</time></trkpt><trkpt lat="43.43544428659099" lon="10.521930087470905"><ele>79.0</ele><time>2026-04-19T07:55:06Z</time></trkpt><trkpt lat="43.43552702037738" lon="10.522091580975701"><ele>79.0</ele><time>2026-04-19T07:55:07Z</time></trkpt><trkpt lat="43.43562083106105" lon="10.522241033816604"><ele>79.0</ele><time>2026-04-19T07:55:08Z</time></trkpt><trkpt lat="43.43572417304159" lon="10.522384914647226"><ele>79.25</ele><time>2026-04-19T07:55:09Z</time></trkpt><trkpt lat="43.43582982977691" lon="10.522530684902117"><ele>79.5</ele><time>2026-04-19T07:55:10.001Z</time></trkpt><trkpt lat="43.435924119780964" lon="10.52266212992265"><ele>79.75</ele><time>2026-04-19T07:55:11.001Z</time></trkpt><trkpt lat="43.43600787595489" lon="10.522804304442378"><ele>80.0</ele><time>2026-04-19T07:55:12.001Z</time></trkpt><trkpt lat="43.43608438546464" lon="10.522968367487685"><ele>80.0</ele><time>2026-04-19T07:55:13.001Z</time></trkpt><trkpt lat="43.436146611178096" lon="10.523138957547353"><ele>80.0</ele><time>2026-04-19T07:55:14.001Z</time></trkpt><trkpt lat="43.43619391423234" lon="10.523304308882414"><ele>80.0</ele><time>2026-04-19T07:55:15.001Z</time></trkpt><trkpt lat="43.43622861677715" lon="10.523477788932377"><ele>80.0</ele><time>2026-04-19T07:55:16.001Z</time></trkpt><trkpt lat="43.43625466600263" lon="10.523665277400516"><ele>81.0</ele><time>2026-04-19T07:55:17.001Z</time></trkpt><trkpt lat="43.436267612471326" lon="10.523872241656527"><ele>82.0</ele><time>2026-04-19T07:55:18.001Z</time></trkpt><trkpt lat="43.43627675739592" lon="10.52409289265968"><ele>83.0</ele><time>2026-04-19T07:55:19.001Z</time></trkpt><trkpt lat="43.43628401857693" lon="10.524298120395754"><ele>83.0</ele><time>2026-04-19T07:55:20.001Z</time></trkpt><trkpt lat="43.43628259318934" lon="10.524479408859158"><ele>83.0</ele><time>2026-04-19T07:55:21.001Z</time></trkpt><trkpt lat="43.436281314782676" lon="10.52465727428463"><ele>83.0</ele><time>2026-04-19T07:55:22.001Z</time></trkpt><trkpt lat="43.43628820972125" lon="10.524839253166714"><ele>83.0</ele><time>2026-04-19T07:55:23.001Z</time></trkpt><trkpt lat="43.4363059445346" lon="10.52501654402596"><ele>84.0</ele><time>2026-04-19T07:55:24.001Z</time></trkpt><trkpt lat="43.43632917740443" lon="10.525199727131326"><ele>85.0</ele><time>2026-04-19T07:55:25.001Z</time></trkpt><trkpt lat="43.436353078890555" lon="10.525400014778388"><ele>86.0</ele><time>2026-04-19T07:55:26.001Z</time></trkpt><trkpt lat="43.436378780110964" lon="10.525614700663434"><ele>87.0</ele><time>2026-04-19T07:55:27.001Z</time></trkpt><trkpt lat="43.43640597359623" lon="10.525828497418768"><ele>87.66666666666667</ele><time>2026-04-19T07:55:28.001Z</time></trkpt><trkpt lat="43.43643416789975" lon="10.526046302096537"><ele>88.33333333333334</ele><time>2026-04-19T07:55:29.001Z</time></trkpt><trkpt lat="43.436460068168394" lon="10.5262574045169"><ele>89.0</ele><time>2026-04-19T07:55:30.001Z</time></trkpt><trkpt lat="43.43648479057518" lon="10.526472988042732"><ele>89.25</ele><time>2026-04-19T07:55:31.001Z</time></trkpt><trkpt lat="43.43651314911518" lon="10.52668357123142"><ele>89.5</ele><time>2026-04-19T07:55:32.001Z</time></trkpt><trkpt lat="43.436540675460904" lon="10.526893678177075"><ele>89.75</ele><time>2026-04-19T07:55:33.001Z</time></trkpt><trkpt lat="43.4365700349923" lon="10.527070941333216"><ele>90.0</ele><time>2026-04-19T07:55:34.001Z</time></trkpt><trkpt lat="43.4365984154816" lon="10.527230087131443"><ele>90.5</ele><time>2026-04-19T07:55:35.001Z</time></trkpt><trkpt lat="43.436630966892174" lon="10.527398406591571"><ele>91.0</ele><time>2026-04-19T07:55:36.001Z</time></trkpt><trkpt lat="43.43666418326918" lon="10.527574680533139"><ele>91.5</ele><time>2026-04-19T07:55:37.001Z</time></trkpt><trkpt lat="43.43670492539967" lon="10.527752186155386"><ele>92.0</ele><time>2026-04-19T07:55:38.001Z</time></trkpt><trkpt lat="43.43674632580875" lon="10.52791275150588"><ele>92.75</ele><time>2026-04-19T07:55:39Z</time></trkpt><trkpt lat="43.43679396295997" lon="10.528055422798014"><ele>93.5</ele><time>2026-04-19T07:55:40Z</time></trkpt><trkpt lat="43.43684859596395" lon="10.528190479489663"><ele>94.25</ele><time>2026-04-19T07:55:41Z</time></trkpt><trkpt lat="43.43690074483618" lon="10.52833330112496"><ele>95.0</ele><time>2026-04-19T07:55:42Z</time></trkpt><trkpt lat="43.436970522000735" lon="10.528475710679546"><ele>95.0</ele><time>2026-04-19T07:55:43Z</time></trkpt><trkpt lat="43.43706322809443" lon="10.528622247505542"><ele>95.0</ele><time>2026-04-19T07:55:44Z</time></trkpt><trkpt lat="43.43717169812781" lon="10.52876793892466"><ele>95.0</ele><time>2026-04-19T07:55:45Z</time></trkpt><trkpt lat="43.43728811428787" lon="10.528915127731814"><ele>96.66666666666667</ele><time>2026-04-19T07:55:46Z</time></trkpt><trkpt lat="43.43739944534547" lon="10.529053296213664"><ele>98.33333333333334</ele><time>2026-04-19T07:55:47Z</time></trkpt><trkpt lat="43.437510405824774" lon="10.529196360043636"><ele>100.0</ele><time>2026-04-19T07:55:48Z</time></trkpt><trkpt lat="43.437624231953784" lon="10.529353445067427"><ele>100.0</ele><time>2026-04-19T07:55:49Z</time></trkpt><trkpt lat="43.437737879249596" lon="10.529511703953139"><ele>100.0</ele><time>2026-04-19T07:55:50Z</time></trkpt><trkpt lat="43.43783802432408" lon="10.52965184846282"><ele>100.0</ele><time>2026-04-19T07:55:51Z</time></trkpt><trkpt lat="43.437928135704254" lon="10.529790617638275"><ele>100.0</ele><time>2026-04-19T07:55:52Z</time></trkpt><trkpt lat="43.43801556091606" lon="10.529930687697936"><ele>100.75</ele><time>2026-04-19T07:55:53Z</time></trkpt><trkpt lat="43.438095013149514" lon="10.530074211421462"><ele>101.5</ele><time>2026-04-19T07:55:54Z</time></trkpt><trkpt lat="43.43816901232776" lon="10.530219823722144"><ele>102.25</ele><time>2026-04-19T07:55:55Z</time></trkpt><trkpt lat="43.438253308856574" lon="10.53035650724893"><ele>103.0</ele><time>2026-04-19T07:55:56Z</time></trkpt><trkpt lat="43.43832871822124" lon="10.530501803265773"><ele>103.0</ele><time>2026-04-19T07:55:57Z</time></trkpt><trkpt lat="43.43839326451175" lon="10.530661904334808"><ele>103.0</ele><time>2026-04-19T07:55:58Z</time></trkpt><trkpt lat="43.438448687305446" lon="10.530834297473016"><ele>103.0</ele><time>2026-04-19T07:55:59Z</time></trkpt><trkpt lat="43.43849129723467" lon="10.531017581804708"><ele>103.0</ele><time>2026-04-19T07:56:00Z</time></trkpt><trkpt lat="43.43853312612235" lon="10.531205175591976"><ele>103.75</ele><time>2026-04-19T07:56:01Z</time></trkpt><trkpt lat="43.43856917826941" lon="10.531383978001898"><ele>104.5</ele><time>2026-04-19T07:56:02Z</time></trkpt><trkpt lat="43.43859730097978" lon="10.531571892209806"><ele>105.25</ele><time>2026-04-19T07:56:03Z</time></trkpt><trkpt lat="43.43863391371261" lon="10.531752515243042"><ele>106.0</ele><time>2026-04-19T07:56:04Z</time></trkpt><trkpt lat="43.43866645808877" lon="10.531939378438109"><ele>106.0</ele><time>2026-04-19T07:56:05Z</time></trkpt><trkpt lat="43.43871491630183" lon="10.532139402635858"><ele>106.0</ele><time>2026-04-19T07:56:06Z</time></trkpt><trkpt lat="43.43875884783486" lon="10.532334282058503"><ele>106.0</ele><time>2026-04-19T07:56:07Z</time></trkpt><trkpt lat="43.43880095767385" lon="10.532520827388806"><ele>106.0</ele><time>2026-04-19T07:56:08Z</time></trkpt><trkpt lat="43.43883910043083" lon="10.53268726519387"><ele>106.25</ele><time>2026-04-19T07:56:09Z</time></trkpt><trkpt lat="43.43887112373012" lon="10.532838214845752"><ele>106.5</ele><time>2026-04-19T07:56:10Z</time></trkpt><trkpt lat="43.43889852164934" lon="10.532984007275289"><ele>106.75</ele><time>2026-04-19T07:56:11Z</time></trkpt><trkpt lat="43.438927478056854" lon="10.533155392551532"><ele>107.0</ele><time>2026-04-19T07:56:12Z</time></trkpt><trkpt lat="43.438954074854664" lon="10.533338013901039"><ele>107.0</ele><time>2026-04-19T07:56:13Z</time></trkpt><trkpt lat="43.438974493394845" lon="10.533526915325904"><ele>107.0</ele><time>2026-04-19T07:56:14Z</time></trkpt><trkpt lat="43.43898727974136" lon="10.533715315577432"><ele>107.0</ele><time>2026-04-19T07:56:15Z</time></trkpt><trkpt lat="43.43899979733122" lon="10.53390341628382"><ele>107.0</ele><time>2026-04-19T07:56:16Z</time></trkpt><trkpt lat="43.43901291855977" lon="10.53409849094725"><ele>107.0</ele><time>2026-04-19T07:56:17Z</time></trkpt><trkpt lat="43.43902737652775" lon="10.534304371867984"><ele>107.0</ele><time>2026-04-19T07:56:18Z</time></trkpt><trkpt lat="43.439040874606995" lon="10.534503175692986"><ele>107.0</ele><time>2026-04-19T07:56:19Z</time></trkpt><trkpt lat="43.43905400525744" lon="10.53470057121772"><ele>107.0</ele><time>2026-04-19T07:56:20Z</time></trkpt><trkpt lat="43.439067861141154" lon="10.534893743769425"><ele>107.0</ele><time>2026-04-19T07:56:21Z</time></trkpt><trkpt lat="43.4390812622719" lon="10.535093734024425"><ele>107.0</ele><time>2026-04-19T07:56:22Z</time></trkpt><trkpt lat="43.43909450233298" lon="10.535279495071174"><ele>107.0</ele><time>2026-04-19T07:56:23Z</time></trkpt><trkpt lat="43.43910578751033" lon="10.535467997076504"><ele>107.0</ele><time>2026-04-19T07:56:24Z</time></trkpt><trkpt lat="43.43911654261112" lon="10.535663186730092"><ele>107.25</ele><time>2026-04-19T07:56:25Z</time></trkpt><trkpt lat="43.43913623400438" lon="10.53586839105622"><ele>107.5</ele><time>2026-04-19T07:56:26Z</time></trkpt><trkpt lat="43.439166185443185" lon="10.536071000525089"><ele>107.75</ele><time>2026-04-19T07:56:27Z</time></trkpt><trkpt lat="43.43921082204009" lon="10.536253746086581"><ele>108.0</ele><time>2026-04-19T07:56:28Z</time></trkpt><trkpt lat="43.439256069576054" lon="10.536426166488804"><ele>108.0</ele><time>2026-04-19T07:56:29Z</time></trkpt><trkpt lat="43.43928574711009" lon="10.536593891027824"><ele>108.0</ele><time>2026-04-19T07:56:30Z</time></trkpt><trkpt lat="43.43931215824844" lon="10.536774714306295"><ele>108.0</ele><time>2026-04-19T07:56:31Z</time></trkpt><trkpt lat="43.439332975680585" lon="10.536961011876793"><ele>108.0</ele><time>2026-04-19T07:56:32Z</time></trkpt><trkpt lat="43.43934969565297" lon="10.537149545923777"><ele>108.5</ele><time>2026-04-19T07:56:33Z</time></trkpt><trkpt lat="43.43935948795047" lon="10.537326445228215"><ele>109.0</ele><time>2026-04-19T07:56:34Z</time></trkpt><trkpt lat="43.43935234837522" lon="10.537493784865623"><ele>109.5</ele><time>2026-04-19T07:56:35Z</time></trkpt><trkpt lat="43.43934357635836" lon="10.537658326713629"><ele>110.0</ele><time>2026-04-19T07:56:36Z</time></trkpt><trkpt lat="43.439343482261656" lon="10.537821179247507"><ele>110.2</ele><time>2026-04-19T07:56:37Z</time></trkpt><trkpt lat="43.439356429872134" lon="10.537981581282715"><ele>110.4</ele><time>2026-04-19T07:56:38Z</time></trkpt><trkpt lat="43.43939791042826" lon="10.5381326830806"><ele>110.6</ele><time>2026-04-19T07:56:39Z</time></trkpt><trkpt lat="43.43944026478691" lon="10.538263288254292"><ele>110.8</ele><time>2026-04-19T07:56:40Z</time></trkpt><trkpt lat="43.43947768548486" lon="10.53838434700858"><ele>111.0</ele><time>2026-04-19T07:56:41Z</time></trkpt><trkpt lat="43.43951409138082" lon="10.53851061693994"><ele>111.0</ele><time>2026-04-19T07:56:42Z</time></trkpt><trkpt lat="43.43955253192743" lon="10.538631049396962"><ele>111.0</ele><time>2026-04-19T07:56:43Z</time></trkpt><trkpt lat="43.43958328387684" lon="10.53874768027748"><ele>111.0</ele><time>2026-04-19T07:56:44Z</time></trkpt><trkpt lat="43.439616186659535" lon="10.538855617920724"><ele>111.0</ele><time>2026-04-19T07:56:45Z</time></trkpt><trkpt lat="43.43964822495234" lon="10.5389703451272"><ele>111.0</ele><time>2026-04-19T07:56:46Z</time></trkpt><trkpt lat="43.439678012521945" lon="10.539083715020956"><ele>111.0</ele><time>2026-04-19T07:56:47Z</time></trkpt><trkpt lat="43.439701636075554" lon="10.53920496056517"><ele>110.0</ele><time>2026-04-19T07:56:48Z</time></trkpt><trkpt lat="43.43971797081952" lon="10.539355226599938"><ele>109.0</ele><time>2026-04-19T07:56:49Z</time></trkpt><trkpt lat="43.43975175156948" lon="10.539537164500665"><ele>108.0</ele><time>2026-04-19T07:56:50Z</time></trkpt><trkpt lat="43.439785735312185" lon="10.539740425123572"><ele>107.0</ele><time>2026-04-19T07:56:51Z</time></trkpt><trkpt lat="43.43981600045289" lon="10.53995922000298"><ele>107.0</ele><time>2026-04-19T07:56:52Z</time></trkpt><trkpt lat="43.43985117779365" lon="10.540166945795828"><ele>107.0</ele><time>2026-04-19T07:56:53Z</time></trkpt><trkpt lat="43.43988871040257" lon="10.540372134027193"><ele>107.0</ele><time>2026-04-19T07:56:54Z</time></trkpt><trkpt lat="43.439914349089975" lon="10.54054504912898"><ele>107.0</ele><time>2026-04-19T07:56:55Z</time></trkpt><trkpt lat="43.439934330515335" lon="10.540707231846913"><ele>107.25</ele><time>2026-04-19T07:56:56Z</time></trkpt><trkpt lat="43.43995228609255" lon="10.540865630235379"><ele>107.5</ele><time>2026-04-19T07:56:57Z</time></trkpt><trkpt lat="43.439978578518996" lon="10.541040865205217"><ele>107.75</ele><time>2026-04-19T07:56:58Z</time></trkpt><trkpt lat="43.44000846144503" lon="10.541201111509238"><ele>108.0</ele><time>2026-04-19T07:56:59Z</time></trkpt><trkpt lat="43.440028324752745" lon="10.541348252184735"><ele>108.4</ele><time>2026-04-19T07:57:00.001Z</time></trkpt><trkpt lat="43.440039210905645" lon="10.541502548297458"><ele>108.80000000000001</ele><time>2026-04-19T07:57:01.001Z</time></trkpt><trkpt lat="43.4400238221137" lon="10.541629614527956"><ele>109.2</ele><time>2026-04-19T07:57:02.001Z</time></trkpt><trkpt lat="43.43999286244921" lon="10.541734576527055"><ele>109.6</ele><time>2026-04-19T07:57:03.001Z</time></trkpt><trkpt lat="43.43994172685631" lon="10.541842061394059"><ele>110.0</ele><time>2026-04-19T07:57:04.001Z</time></trkpt><trkpt lat="43.43987502769074" lon="10.54193222215463"><ele>110.0</ele><time>2026-04-19T07:57:05.001Z</time></trkpt><trkpt lat="43.439798832254574" lon="10.54201617841962"><ele>110.0</ele><time>2026-04-19T07:57:06.001Z</time></trkpt><trkpt lat="43.439704318146106" lon="10.542104196405585"><ele>110.0</ele><time>2026-04-19T07:57:07.001Z</time></trkpt><trkpt lat="43.43962080943556" lon="10.542189305940836"><ele>110.0</ele><time>2026-04-19T07:57:08.001Z</time></trkpt><trkpt lat="43.43956071249641" lon="10.542275334154986"><ele>110.0</ele><time>2026-04-19T07:57:09.001Z</time></trkpt><trkpt lat="43.4395147353107" lon="10.542383500719735"><ele>110.2</ele><time>2026-04-19T07:57:10.001Z</time></trkpt><trkpt lat="43.439500800361984" lon="10.542508617297965"><ele>110.4</ele><time>2026-04-19T07:57:11.001Z</time></trkpt><trkpt lat="43.439511843126176" lon="10.542612869307082"><ele>110.6</ele><time>2026-04-19T07:57:12.001Z</time></trkpt><trkpt lat="43.43954940030415" lon="10.54272815504185"><ele>110.8</ele><time>2026-04-19T07:57:13.001Z</time></trkpt><trkpt lat="43.43961417366838" lon="10.542837402867184"><ele>111.0</ele><time>2026-04-19T07:57:14.001Z</time></trkpt><trkpt lat="43.43968593983512" lon="10.542949719876654"><ele>111.0</ele><time>2026-04-19T07:57:15.001Z</time></trkpt><trkpt lat="43.43976012816589" lon="10.54306894434222"><ele>111.0</ele><time>2026-04-19T07:57:16.001Z</time></trkpt><trkpt lat="43.43983321368631" lon="10.543201113178073"><ele>111.0</ele><time>2026-04-19T07:57:17.001Z</time></trkpt><trkpt lat="43.43990631250221" lon="10.543337714412898"><ele>111.0</ele><time>2026-04-19T07:57:18.001Z</time></trkpt><trkpt lat="43.4399778198775" lon="10.54347010214414"><ele>111.0</ele><time>2026-04-19T07:57:19.001Z</time></trkpt><trkpt lat="43.440047752340426" lon="10.543603580293349"><ele>111.0</ele><time>2026-04-19T07:57:20.001Z</time></trkpt><trkpt lat="43.440114896585804" lon="10.543729664753922"><ele>111.0</ele><time>2026-04-19T07:57:21.001Z</time></trkpt><trkpt lat="43.44016921796412" lon="10.543849482937883"><ele>111.0</ele><time>2026-04-19T07:57:22.001Z</time></trkpt><trkpt lat="43.44021530088563" lon="10.543975801476662"><ele>111.0</ele><time>2026-04-19T07:57:23.001Z</time></trkpt><trkpt lat="43.440250978052624" lon="10.544107462732738"><ele>111.8</ele><time>2026-04-19T07:57:24.001Z</time></trkpt><trkpt lat="43.44025300787848" lon="10.544229019925107"><ele>112.6</ele><time>2026-04-19T07:57:25.001Z</time></trkpt><trkpt lat="43.44023229165362" lon="10.544361742271482"><ele>113.4</ele><time>2026-04-19T07:57:26.001Z</time></trkpt><trkpt lat="43.44019140767933" lon="10.54449030221441"><ele>114.2</ele><time>2026-04-19T07:57:27.001Z</time></trkpt><trkpt lat="43.44012918253839" lon="10.544606769048714"><ele>115.0</ele><time>2026-04-19T07:57:28.001Z</time></trkpt><trkpt lat="43.44004378399785" lon="10.544713867526715"><ele>115.75</ele><time>2026-04-19T07:57:29.001Z</time></trkpt><trkpt lat="43.43994369793574" lon="10.544814827869113"><ele>116.5</ele><time>2026-04-19T07:57:30.001Z</time></trkpt><trkpt lat="43.439831713422464" lon="10.544911461962197"><ele>117.25</ele><time>2026-04-19T07:57:31.001Z</time></trkpt><trkpt lat="43.439707879771376" lon="10.545018080861835"><ele>118.0</ele><time>2026-04-19T07:57:32.001Z</time></trkpt><trkpt lat="43.439578594490676" lon="10.54513288439614"><ele>118.25</ele><time>2026-04-19T07:57:33.001Z</time></trkpt><trkpt lat="43.43945102672045" lon="10.545240812279216"><ele>118.5</ele><time>2026-04-19T07:57:34.001Z</time></trkpt><trkpt lat="43.43932947725981" lon="10.545340953348589"><ele>118.75</ele><time>2026-04-19T07:57:35.001Z</time></trkpt><trkpt lat="43.439222261511325" lon="10.545418189009709"><ele>119.0</ele><time>2026-04-19T07:57:36.001Z</time></trkpt><trkpt lat="43.4391293770566" lon="10.545482945352678"><ele>119.25</ele><time>2026-04-19T07:57:37.001Z</time></trkpt><trkpt lat="43.4390275562723" lon="10.545518934561343"><ele>119.5</ele><time>2026-04-19T07:57:38.001Z</time></trkpt><trkpt lat="43.43890559669759" lon="10.545539803995393"><ele>119.75</ele><time>2026-04-19T07:57:39.001Z</time></trkpt><trkpt lat="43.438775037289524" lon="10.545553603483643"><ele>120.0</ele><time>2026-04-19T07:57:40.001Z</time></trkpt><trkpt lat="43.438640412466526" lon="10.545572100781033"><ele>119.5</ele><time>2026-04-19T07:57:41.001Z</time></trkpt><trkpt lat="43.438511978796164" lon="10.545592889716158"><ele>119.0</ele><time>2026-04-19T07:57:42.001Z</time></trkpt><trkpt lat="43.438384094385086" lon="10.54562754702828"><ele>118.5</ele><time>2026-04-19T07:57:43.001Z</time></trkpt><trkpt lat="43.438244893202146" lon="10.54566673992157"><ele>118.0</ele><time>2026-04-19T07:57:44.001Z</time></trkpt><trkpt lat="43.438105754113714" lon="10.545717240596645"><ele>118.0</ele><time>2026-04-19T07:57:45Z</time></trkpt><trkpt lat="43.43798302167209" lon="10.545755290639796"><ele>118.0</ele><time>2026-04-19T07:57:46Z</time></trkpt><trkpt lat="43.43787397322623" lon="10.545800520453904"><ele>118.0</ele><time>2026-04-19T07:57:47Z</time></trkpt><trkpt lat="43.43777336562003" lon="10.545855072156536"><ele>118.0</ele><time>2026-04-19T07:57:48Z</time></trkpt><trkpt lat="43.43766988403534" lon="10.545912863479803"><ele>117.66666666666667</ele><time>2026-04-19T07:57:49Z</time></trkpt><trkpt lat="43.437563056318545" lon="10.545934054232674"><ele>117.33333333333334</ele><time>2026-04-19T07:57:50Z</time></trkpt><trkpt lat="43.43748712031871" lon="10.545991731447469"><ele>117.0</ele><time>2026-04-19T07:57:51Z</time></trkpt><trkpt lat="43.43742677533388" lon="10.546036414195994"><ele>116.66666666666666</ele><time>2026-04-19T07:57:52Z</time></trkpt><trkpt lat="43.43738960760425" lon="10.546110925501734"><ele>116.33333333333333</ele><time>2026-04-19T07:57:53Z</time></trkpt><trkpt lat="43.4373796010001" lon="10.546206427701843"><ele>116.0</ele><time>2026-04-19T07:57:54Z</time></trkpt><trkpt lat="43.43739264222546" lon="10.546305343611627"><ele>117.0</ele><time>2026-04-19T07:57:55Z</time></trkpt><trkpt lat="43.43743316191957" lon="10.546411524468288"><ele>118.0</ele><time>2026-04-19T07:57:56Z</time></trkpt><trkpt lat="43.43750019087952" lon="10.546538507279005"><ele>119.0</ele><time>2026-04-19T07:57:57Z</time></trkpt><trkpt lat="43.437572925074825" lon="10.546678566949304"><ele>120.0</ele><time>2026-04-19T07:57:58Z</time></trkpt><trkpt lat="43.43763604002987" lon="10.546836704442137"><ele>120.0</ele><time>2026-04-19T07:57:59Z</time></trkpt><trkpt lat="43.437705952904736" lon="10.547010904993718"><ele>120.0</ele><time>2026-04-19T07:58:00Z</time></trkpt><trkpt lat="43.437779336657385" lon="10.547187029703926"><ele>120.0</ele><time>2026-04-19T07:58:01Z</time></trkpt><trkpt lat="43.43785191418425" lon="10.547364529157193"><ele>120.0</ele><time>2026-04-19T07:58:02Z</time></trkpt><trkpt lat="43.43792562718009" lon="10.547537095073745"><ele>120.75</ele><time>2026-04-19T07:58:03Z</time></trkpt><trkpt lat="43.43799933369131" lon="10.547713259440924"><ele>121.5</ele><time>2026-04-19T07:58:04Z</time></trkpt><trkpt lat="43.438069164275205" lon="10.547887443103454"><ele>122.25</ele><time>2026-04-19T07:58:05Z</time></trkpt><trkpt lat="43.43814054903338" lon="10.548061315806086"><ele>123.0</ele><time>2026-04-19T07:58:06Z</time></trkpt><trkpt lat="43.43821464858573" lon="10.548235356109567"><ele>123.5</ele><time>2026-04-19T07:58:07Z</time></trkpt><trkpt lat="43.438282185337115" lon="10.548408317725832"><ele>124.0</ele><time>2026-04-19T07:58:08Z</time></trkpt><trkpt lat="43.43834240037654" lon="10.548574972131597"><ele>124.5</ele><time>2026-04-19T07:58:09Z</time></trkpt><trkpt lat="43.43841141949717" lon="10.548741281766658"><ele>125.0</ele><time>2026-04-19T07:58:10Z</time></trkpt><trkpt lat="43.43848060436638" lon="10.548896609852696"><ele>126.0</ele><time>2026-04-19T07:58:11Z</time></trkpt><trkpt lat="43.438553205346835" lon="10.549055427082351"><ele>127.0</ele><time>2026-04-19T07:58:12Z</time></trkpt><trkpt lat="43.43862494041473" lon="10.549218607654735"><ele>128.0</ele><time>2026-04-19T07:58:13Z</time></trkpt><trkpt lat="43.43868875008374" lon="10.549382871929595"><ele>129.0</ele><time>2026-04-19T07:58:14Z</time></trkpt><trkpt lat="43.43874741281333" lon="10.549534163608328"><ele>130.0</ele><time>2026-04-19T07:58:15Z</time></trkpt><trkpt lat="43.438811242816755" lon="10.549693081204058"><ele>131.0</ele><time>2026-04-19T07:58:16Z</time></trkpt><trkpt lat="43.4388750207919" lon="10.549855491553465"><ele>132.0</ele><time>2026-04-19T07:58:17Z</time></trkpt><trkpt lat="43.43893856973092" lon="10.550022448522261"><ele>133.0</ele><time>2026-04-19T07:58:18Z</time></trkpt><trkpt lat="43.43900124418579" lon="10.550170110316863"><ele>133.0</ele><time>2026-04-19T07:58:19Z</time></trkpt><trkpt lat="43.43906312572799" lon="10.550310552837512"><ele>133.0</ele><time>2026-04-19T07:58:20Z</time></trkpt><trkpt lat="43.439121456439054" lon="10.550449773514968"><ele>133.0</ele><time>2026-04-19T07:58:21Z</time></trkpt><trkpt lat="43.4391774379788" lon="10.550596051643865"><ele>133.0</ele><time>2026-04-19T07:58:22Z</time></trkpt><trkpt lat="43.43923524843082" lon="10.550753580949848"><ele>134.0</ele><time>2026-04-19T07:58:23Z</time></trkpt><trkpt lat="43.43930307825894" lon="10.55090232672136"><ele>135.0</ele><time>2026-04-19T07:58:24Z</time></trkpt><trkpt lat="43.43935841602946" lon="10.551067321283805"><ele>136.0</ele><time>2026-04-19T07:58:25Z</time></trkpt><trkpt lat="43.439401890951586" lon="10.551241369358548"><ele>137.0</ele><time>2026-04-19T07:58:26Z</time></trkpt><trkpt lat="43.439443613700085" lon="10.55141210050743"><ele>137.25</ele><time>2026-04-19T07:58:27Z</time></trkpt><trkpt lat="43.43949105802095" lon="10.551576146400487"><ele>137.5</ele><time>2026-04-19T07:58:28Z</time></trkpt><trkpt lat="43.439558321339575" lon="10.551714192826111"><ele>137.75</ele><time>2026-04-19T07:58:29Z</time></trkpt><trkpt lat="43.439631343120055" lon="10.551847813248877"><ele>138.0</ele><time>2026-04-19T07:58:30Z</time></trkpt><trkpt lat="43.439698582615286" lon="10.55196255041559"><ele>139.5</ele><time>2026-04-19T07:58:31Z</time></trkpt><trkpt lat="43.43976279210009" lon="10.552083650422471"><ele>141.0</ele><time>2026-04-19T07:58:32Z</time></trkpt><trkpt lat="43.439815969166204" lon="10.552237497684905"><ele>142.5</ele><time>2026-04-19T07:58:33Z</time></trkpt><trkpt lat="43.43987339255968" lon="10.552386362981357"><ele>144.0</ele><time>2026-04-19T07:58:34Z</time></trkpt><trkpt lat="43.439921740525065" lon="10.552543644590953"><ele>144.0</ele><time>2026-04-19T07:58:35Z</time></trkpt><trkpt lat="43.439961934644906" lon="10.552694102993547"><ele>144.0</ele><time>2026-04-19T07:58:36Z</time></trkpt><trkpt lat="43.44001003634786" lon="10.552838835111643"><ele>144.0</ele><time>2026-04-19T07:58:37Z</time></trkpt><trkpt lat="43.44005516288196" lon="10.552979171069028"><ele>144.0</ele><time>2026-04-19T07:58:38Z</time></trkpt><trkpt lat="43.44010131232484" lon="10.553123639540866"><ele>144.4</ele><time>2026-04-19T07:58:39Z</time></trkpt><trkpt lat="43.44014053103949" lon="10.553260212889237"><ele>144.8</ele><time>2026-04-19T07:58:40Z</time></trkpt><trkpt lat="43.44017795366881" lon="10.553391341029236"><ele>145.2</ele><time>2026-04-19T07:58:41Z</time></trkpt><trkpt lat="43.44021847740594" lon="10.553522934143704"><ele>145.6</ele><time>2026-04-19T07:58:42Z</time></trkpt><trkpt lat="43.440265592228045" lon="10.553654749777728"><ele>146.0</ele><time>2026-04-19T07:58:43Z</time></trkpt><trkpt lat="43.4403142658537" lon="10.553792875421792"><ele>146.25</ele><time>2026-04-19T07:58:44Z</time></trkpt><trkpt lat="43.440359992326215" lon="10.553935735825307"><ele>146.5</ele><time>2026-04-19T07:58:45Z</time></trkpt><trkpt lat="43.4404079348455" lon="10.55407508177497"><ele>146.75</ele><time>2026-04-19T07:58:46Z</time></trkpt><trkpt lat="43.440466360616" lon="10.554221077535217"><ele>147.0</ele><time>2026-04-19T07:58:47Z</time></trkpt><trkpt lat="43.4404984713535" lon="10.55438017861327"><ele>147.2</ele><time>2026-04-19T07:58:48Z</time></trkpt><trkpt lat="43.4405442648404" lon="10.55452926111955"><ele>147.39999999999998</ele><time>2026-04-19T07:58:49Z</time></trkpt><trkpt lat="43.44058280491171" lon="10.554654729895326"><ele>147.60000000000002</ele><time>2026-04-19T07:58:50Z</time></trkpt><trkpt lat="43.440635425218574" lon="10.554776033609485"><ele>147.8</ele><time>2026-04-19T07:58:51Z</time></trkpt><trkpt lat="43.44068185313539" lon="10.554917183776787"><ele>148.0</ele><time>2026-04-19T07:58:52Z</time></trkpt><trkpt lat="43.44072769096494" lon="10.55506357313377"><ele>149.0</ele><time>2026-04-19T07:58:53Z</time></trkpt><trkpt lat="43.44078500655182" lon="10.555225905489035"><ele>150.0</ele><time>2026-04-19T07:58:54Z</time></trkpt><trkpt lat="43.44084387697762" lon="10.555395735320458"><ele>151.0</ele><time>2026-04-19T07:58:55Z</time></trkpt><trkpt lat="43.4409082708337" lon="10.5555818441167"><ele>152.0</ele><time>2026-04-19T07:58:56Z</time></trkpt><trkpt lat="43.44096009282718" lon="10.55576164549749"><ele>152.5</ele><time>2026-04-19T07:58:57Z</time></trkpt><trkpt lat="43.44100626544496" lon="10.555941804900264"><ele>153.0</ele><time>2026-04-19T07:58:58Z</time></trkpt><trkpt lat="43.4410622524229" lon="10.556096720037681"><ele>153.5</ele><time>2026-04-19T07:58:59Z</time></trkpt><trkpt lat="43.44111881913466" lon="10.556259169458972"><ele>154.0</ele><time>2026-04-19T07:59:00Z</time></trkpt><trkpt lat="43.441161897932574" lon="10.556398719376556"><ele>154.0</ele><time>2026-04-19T07:59:01Z</time></trkpt><trkpt lat="43.44120352086613" lon="10.55652691529622"><ele>154.0</ele><time>2026-04-19T07:59:02Z</time></trkpt><trkpt lat="43.4412479830565" lon="10.556662177344917"><ele>154.0</ele><time>2026-04-19T07:59:03Z</time></trkpt><trkpt lat="43.44128260178921" lon="10.556807103218166"><ele>154.0</ele><time>2026-04-19T07:59:04Z</time></trkpt><trkpt lat="43.4413148111932" lon="10.556957693380884"><ele>154.0</ele><time>2026-04-19T07:59:05Z</time></trkpt><trkpt lat="43.44134706426568" lon="10.55711196118821"><ele>155.0</ele><time>2026-04-19T07:59:06Z</time></trkpt><trkpt lat="43.44137555591281" lon="10.557281315454963"><ele>156.0</ele><time>2026-04-19T07:59:07.001Z</time></trkpt><trkpt lat="43.4414026578547" lon="10.55746758685132"><ele>157.0</ele><time>2026-04-19T07:59:08.001Z</time></trkpt><trkpt lat="43.44142976648512" lon="10.55765309957583"><ele>158.0</ele><time>2026-04-19T07:59:09.001Z</time></trkpt><trkpt lat="43.44145223627724" lon="10.557834564663633"><ele>158.5</ele><time>2026-04-19T07:59:10.001Z</time></trkpt><trkpt lat="43.441478914515024" lon="10.558013257834656"><ele>159.0</ele><time>2026-04-19T07:59:11.001Z</time></trkpt><trkpt lat="43.441506125230724" lon="10.55819364700077"><ele>159.5</ele><time>2026-04-19T07:59:12.001Z</time></trkpt><trkpt lat="43.44153660275291" lon="10.558388359409015"><ele>160.0</ele><time>2026-04-19T07:59:13.001Z</time></trkpt><trkpt lat="43.44156835573054" lon="10.558597036611552"><ele>160.33333333333334</ele><time>2026-04-19T07:59:14.001Z</time></trkpt><trkpt lat="43.441598747371565" lon="10.558813499671544"><ele>160.66666666666666</ele><time>2026-04-19T07:59:15.001Z</time></trkpt><trkpt lat="43.44162910829809" lon="10.559032794192388"><ele>161.0</ele><time>2026-04-19T07:59:16.001Z</time></trkpt><trkpt lat="43.441657626196466" lon="10.559242362917766"><ele>161.0</ele><time>2026-04-19T07:59:17.001Z</time></trkpt><trkpt lat="43.441686280845616" lon="10.559441590710877"><ele>161.0</ele><time>2026-04-19T07:59:18.001Z</time></trkpt><trkpt lat="43.44171702438827" lon="10.559622399532138"><ele>161.0</ele><time>2026-04-19T07:59:19.001Z</time></trkpt><trkpt lat="43.441751368624644" lon="10.559782553277303"><ele>161.0</ele><time>2026-04-19T07:59:20.001Z</time></trkpt><trkpt lat="43.44179469497545" lon="10.559933367593525"><ele>161.0</ele><time>2026-04-19T07:59:21.001Z</time></trkpt><trkpt lat="43.441844477703555" lon="10.560098481832929"><ele>161.0</ele><time>2026-04-19T07:59:22.001Z</time></trkpt><trkpt lat="43.44190153969987" lon="10.560271841422162"><ele>161.0</ele><time>2026-04-19T07:59:23.001Z</time></trkpt><trkpt lat="43.44195032080731" lon="10.560431570515314"><ele>161.0</ele><time>2026-04-19T07:59:24.001Z</time></trkpt><trkpt lat="43.442011318947415" lon="10.560590307300112"><ele>161.0</ele><time>2026-04-19T07:59:25.001Z</time></trkpt><trkpt lat="43.44208833485504" lon="10.560751633762708"><ele>161.0</ele><time>2026-04-19T07:59:26.001Z</time></trkpt><trkpt lat="43.442176711320464" lon="10.560922614515846"><ele>161.0</ele><time>2026-04-19T07:59:27.001Z</time></trkpt><trkpt lat="43.44226564832665" lon="10.561087549324359"><ele>161.0</ele><time>2026-04-19T07:59:28.001Z</time></trkpt><trkpt lat="43.44235870287103" lon="10.561243701894831"><ele>160.33333333333331</ele><time>2026-04-19T07:59:29.001Z</time></trkpt><trkpt lat="43.442457350581265" lon="10.561395820311944"><ele>159.66666666666666</ele><time>2026-04-19T07:59:30.001Z</time></trkpt><trkpt lat="43.442573118193884" lon="10.56155554602513"><ele>159.0</ele><time>2026-04-19T07:59:31.001Z</time></trkpt><trkpt lat="43.4426960757779" lon="10.56172114191737"><ele>159.0</ele><time>2026-04-19T07:59:32.001Z</time></trkpt><trkpt lat="43.44281772622459" lon="10.561882859615155"><ele>159.0</ele><time>2026-04-19T07:59:33.001Z</time></trkpt><trkpt lat="43.4429284528325" lon="10.562033319820111"><ele>159.0</ele><time>2026-04-19T07:59:34.001Z</time></trkpt><trkpt lat="43.44303189320396" lon="10.562172861078677"><ele>159.5</ele><time>2026-04-19T07:59:35.001Z</time></trkpt><trkpt lat="43.44312579835502" lon="10.562302513165873"><ele>160.0</ele><time>2026-04-19T07:59:36.001Z</time></trkpt><trkpt lat="43.44321571784265" lon="10.56242889927903"><ele>160.5</ele><time>2026-04-19T07:59:37.001Z</time></trkpt><trkpt lat="43.44331348796856" lon="10.562568941860246"><ele>161.0</ele><time>2026-04-19T07:59:38.001Z</time></trkpt><trkpt lat="43.44341766991926" lon="10.562730655098564"><ele>161.25</ele><time>2026-04-19T07:59:39.001Z</time></trkpt><trkpt lat="43.44350999235115" lon="10.562895321701685"><ele>161.5</ele><time>2026-04-19T07:59:40.001Z</time></trkpt><trkpt lat="43.443584424984685" lon="10.563055997844906"><ele>161.75</ele><time>2026-04-19T07:59:41.001Z</time></trkpt><trkpt lat="43.443647190904244" lon="10.563204329570906"><ele>162.0</ele><time>2026-04-19T07:59:42.001Z</time></trkpt><trkpt lat="43.44369865448539" lon="10.563365773415333"><ele>162.0</ele><time>2026-04-19T07:59:43.001Z</time></trkpt><trkpt lat="43.44374795275972" lon="10.56354746728582"><ele>162.0</ele><time>2026-04-19T07:59:44.001Z</time></trkpt><trkpt lat="43.44380604666276" lon="10.563741085468168"><ele>162.0</ele><time>2026-04-19T07:59:45.001Z</time></trkpt><trkpt lat="43.44387434290929" lon="10.563932282157047"><ele>162.0</ele><time>2026-04-19T07:59:46.001Z</time></trkpt><trkpt lat="43.44395288790123" lon="10.5641221277947"><ele>164.25</ele><time>2026-04-19T07:59:47.001Z</time></trkpt><trkpt lat="43.44403110402843" lon="10.564299512939863"><ele>166.5</ele><time>2026-04-19T07:59:48.001Z</time></trkpt><trkpt lat="43.44407797939337" lon="10.564459879929055"><ele>168.75</ele><time>2026-04-19T07:59:49.001Z</time></trkpt><trkpt lat="43.444121604988304" lon="10.564634421398178"><ele>171.0</ele><time>2026-04-19T07:59:50.001Z</time></trkpt><trkpt lat="43.44416571769958" lon="10.56482466487668"><ele>171.66666666666666</ele><time>2026-04-19T07:59:51Z</time></trkpt><trkpt lat="43.44421838468096" lon="10.565035926104878"><ele>172.33333333333331</ele><time>2026-04-19T07:59:52Z</time></trkpt><trkpt lat="43.4442770908394" lon="10.565248907664301"><ele>173.0</ele><time>2026-04-19T07:59:53Z</time></trkpt><trkpt lat="43.444334343492635" lon="10.5654484415229"><ele>173.0</ele><time>2026-04-19T07:59:54Z</time></trkpt><trkpt lat="43.444383932068554" lon="10.565638691123583"><ele>173.0</ele><time>2026-04-19T07:59:55Z</time></trkpt><trkpt lat="43.44442917952875" lon="10.565809247852025"><ele>173.0</ele><time>2026-04-19T07:59:56Z</time></trkpt><trkpt lat="43.444473209406205" lon="10.565977754464223"><ele>173.0</ele><time>2026-04-19T07:59:57Z</time></trkpt><trkpt lat="43.44451499781524" lon="10.566151234886638"><ele>173.75</ele><time>2026-04-19T07:59:58Z</time></trkpt><trkpt lat="43.44455595032911" lon="10.566304634653536"><ele>174.5</ele><time>2026-04-19T07:59:59Z</time></trkpt><trkpt lat="43.4445998935358" lon="10.566464303200398"><ele>175.25</ele><time>2026-04-19T08:00:00Z</time></trkpt><trkpt lat="43.444650504833376" lon="10.566624100202127"><ele>176.0</ele><time>2026-04-19T08:00:01Z</time></trkpt><trkpt lat="43.444700292959084" lon="10.566772375546098"><ele>178.75</ele><time>2026-04-19T08:00:02Z</time></trkpt><trkpt lat="43.44475957069797" lon="10.56690987570065"><ele>181.5</ele><time>2026-04-19T08:00:03Z</time></trkpt><trkpt lat="43.44482695078315" lon="10.567043982601337"><ele>184.25</ele><time>2026-04-19T08:00:04Z</time></trkpt><trkpt lat="43.4448961977429" lon="10.567169109394074"><ele>187.0</ele><time>2026-04-19T08:00:05Z</time></trkpt><trkpt lat="43.4449453903482" lon="10.567296262291851"><ele>187.0</ele><time>2026-04-19T08:00:06Z</time></trkpt><trkpt lat="43.444998994064576" lon="10.56738433420117"><ele>187.0</ele><time>2026-04-19T08:00:07Z</time></trkpt><trkpt lat="43.44504364228315" lon="10.567453505871434"><ele>187.0</ele><time>2026-04-19T08:00:08Z</time></trkpt><trkpt lat="43.445079042412786" lon="10.567531989899857"><ele>187.0</ele><time>2026-04-19T08:00:09Z</time></trkpt><trkpt lat="43.44513696085619" lon="10.567665870130824"><ele>187.0</ele><time>2026-04-19T08:00:11Z</time></trkpt><trkpt lat="43.445191771494635" lon="10.567777908504613"><ele>187.0</ele><time>2026-04-19T08:00:13Z</time></trkpt><trkpt lat="43.44525483537021" lon="10.567900962986535"><ele>187.0</ele><time>2026-04-19T08:00:15Z</time></trkpt><trkpt lat="43.44528655384236" lon="10.567981512858227"><ele>187.0</ele><time>2026-04-19T08:00:17Z</time></trkpt><trkpt lat="43.44546204491087" lon="10.567846904700094"><ele>187.0</ele><time>2026-04-19T08:00:35Z</time></trkpt><trkpt lat="43.44550731551404" lon="10.567776953066057"><ele>187.0</ele><time>2026-04-19T08:00:36Z</time></trkpt><trkpt lat="43.44556918900519" lon="10.56770963785813"><ele>187.0</ele><time>2026-04-19T08:00:37Z</time></trkpt><trkpt lat="43.445630868577226" lon="10.56765119482741"><ele>187.33333333333334</ele><time>2026-04-19T08:00:38Z</time></trkpt><trkpt lat="43.4456964394408" lon="10.567606189353112"><ele>187.66666666666669</ele><time>2026-04-19T08:00:39Z</time></trkpt><trkpt lat="43.445769390904296" lon="10.567574341577837"><ele>188.0</ele><time>2026-04-19T08:00:40Z</time></trkpt><trkpt lat="43.44584925643342" lon="10.567560000323859"><ele>188.33333333333334</ele><time>2026-04-19T08:00:41Z</time></trkpt><trkpt lat="43.445934395102505" lon="10.567559936914394"><ele>188.66666666666666</ele><time>2026-04-19T08:00:42Z</time></trkpt><trkpt lat="43.44601529104329" lon="10.567576704727342"><ele>189.0</ele><time>2026-04-19T08:00:43Z</time></trkpt><trkpt lat="43.44611362434465" lon="10.567603006832387"><ele>189.0</ele><time>2026-04-19T08:00:44Z</time></trkpt><trkpt lat="43.44622229753739" lon="10.567648003455162"><ele>189.0</ele><time>2026-04-19T08:00:45Z</time></trkpt><trkpt lat="43.44633137681762" lon="10.567729426802853"><ele>189.0</ele><time>2026-04-19T08:00:46Z</time></trkpt><trkpt lat="43.44643370918873" lon="10.567838643833836"><ele>189.0</ele><time>2026-04-19T08:00:47Z</time></trkpt><trkpt lat="43.4465258496631" lon="10.567960834198482"><ele>191.25</ele><time>2026-04-19T08:00:48Z</time></trkpt><trkpt lat="43.446609386304026" lon="10.568065072992496"><ele>193.5</ele><time>2026-04-19T08:00:49Z</time></trkpt><trkpt lat="43.446694175453594" lon="10.56816457164902"><ele>195.75</ele><time>2026-04-19T08:00:50Z</time></trkpt><trkpt lat="43.44679431315339" lon="10.568244258301071"><ele>198.0</ele><time>2026-04-19T08:00:51Z</time></trkpt><trkpt lat="43.446909652919416" lon="10.568297760656222"><ele>198.0</ele><time>2026-04-19T08:00:52Z</time></trkpt><trkpt lat="43.447024176747334" lon="10.568308820680366"><ele>198.0</ele><time>2026-04-19T08:00:53Z</time></trkpt><trkpt lat="43.447128095181874" lon="10.568286254727138"><ele>198.0</ele><time>2026-04-19T08:00:54Z</time></trkpt><trkpt lat="43.44719742106881" lon="10.568156360039817"><ele>198.0</ele><time>2026-04-19T08:00:55Z</time></trkpt><trkpt lat="43.44725186042586" lon="10.568032559069454"><ele>198.0</ele><time>2026-04-19T08:00:56Z</time></trkpt><trkpt lat="43.44729469546925" lon="10.567920734019028"><ele>196.60000000000002</ele><time>2026-04-19T08:00:57Z</time></trkpt><trkpt lat="43.44724838049383" lon="10.567795866305858"><ele>195.20000000000002</ele><time>2026-04-19T08:00:58Z</time></trkpt><trkpt lat="43.44719008972999" lon="10.567684052242168"><ele>193.8</ele><time>2026-04-19T08:00:59.001Z</time></trkpt><trkpt lat="43.447119197696445" lon="10.567562317929244"><ele>192.4</ele><time>2026-04-19T08:01:00.001Z</time></trkpt><trkpt lat="43.44705957098479" lon="10.567407958220407"><ele>191.0</ele><time>2026-04-19T08:01:01.001Z</time></trkpt><trkpt lat="43.447017189456474" lon="10.567228405984174"><ele>191.75</ele><time>2026-04-19T08:01:02.001Z</time></trkpt><trkpt lat="43.44700312887555" lon="10.567050421449759"><ele>192.5</ele><time>2026-04-19T08:01:03.001Z</time></trkpt><trkpt lat="43.44701378383733" lon="10.566896601603151"><ele>193.25</ele><time>2026-04-19T08:01:04.001Z</time></trkpt><trkpt lat="43.44703999309098" lon="10.566754559175205"><ele>194.0</ele><time>2026-04-19T08:01:05.001Z</time></trkpt><trkpt lat="43.447129754841924" lon="10.5666386718858"><ele>194.0</ele><time>2026-04-19T08:01:06.001Z</time></trkpt><trkpt lat="43.44723082970134" lon="10.566510516309545"><ele>194.0</ele><time>2026-04-19T08:01:07.001Z</time></trkpt><trkpt lat="43.447334271136754" lon="10.566353734931356"><ele>194.0</ele><time>2026-04-19T08:01:08.001Z</time></trkpt><trkpt lat="43.447450183439074" lon="10.566210985077236"><ele>194.0</ele><time>2026-04-19T08:01:09.001Z</time></trkpt><trkpt lat="43.44754939857895" lon="10.566078111592587"><ele>192.25</ele><time>2026-04-19T08:01:10.001Z</time></trkpt><trkpt lat="43.447624524656426" lon="10.5659351108357"><ele>190.5</ele><time>2026-04-19T08:01:11.001Z</time></trkpt><trkpt lat="43.44766110286972" lon="10.565756487613069"><ele>188.75</ele><time>2026-04-19T08:01:12.001Z</time></trkpt><trkpt lat="43.447676110724856" lon="10.565553660332009"><ele>187.0</ele><time>2026-04-19T08:01:13.001Z</time></trkpt><trkpt lat="43.447690511840264" lon="10.565355117645073"><ele>187.75</ele><time>2026-04-19T08:01:14.001Z</time></trkpt><trkpt lat="43.447738899409956" lon="10.565180562342817"><ele>188.5</ele><time>2026-04-19T08:01:15.001Z</time></trkpt><trkpt lat="43.447819364954064" lon="10.565012543880767"><ele>189.25</ele><time>2026-04-19T08:01:16.001Z</time></trkpt><trkpt lat="43.44789510535169" lon="10.564878626289104"><ele>190.0</ele><time>2026-04-19T08:01:17.001Z</time></trkpt><trkpt lat="43.4479707960158" lon="10.564788867317736"><ele>190.0</ele><time>2026-04-19T08:01:18.001Z</time></trkpt><trkpt lat="43.44806934250845" lon="10.564749594652204"><ele>190.0</ele><time>2026-04-19T08:01:19.001Z</time></trkpt><trkpt lat="43.44816484584704" lon="10.564777417791642"><ele>190.0</ele><time>2026-04-19T08:01:20.001Z</time></trkpt><trkpt lat="43.44824711290664" lon="10.564842324806929"><ele>190.0</ele><time>2026-04-19T08:01:21.001Z</time></trkpt><trkpt lat="43.4482954665191" lon="10.564980352151347"><ele>190.0</ele><time>2026-04-19T08:01:22.001Z</time></trkpt><trkpt lat="43.44837852235109" lon="10.565103831229035"><ele>190.0</ele><time>2026-04-19T08:01:23.001Z</time></trkpt><trkpt lat="43.44845417209066" lon="10.565259505014117"><ele>190.0</ele><time>2026-04-19T08:01:24.001Z</time></trkpt><trkpt lat="43.44853700638633" lon="10.565408311753632"><ele>190.0</ele><time>2026-04-19T08:01:25.001Z</time></trkpt><trkpt lat="43.448623033789715" lon="10.565538363804238"><ele>190.0</ele><time>2026-04-19T08:01:26.001Z</time></trkpt><trkpt lat="43.448716977777345" lon="10.565637088083863"><ele>192.5</ele><time>2026-04-19T08:01:27.001Z</time></trkpt><trkpt lat="43.44881846522746" lon="10.56570172635597"><ele>195.0</ele><time>2026-04-19T08:01:28.001Z</time></trkpt><trkpt lat="43.448939339453005" lon="10.565707944138296"><ele>197.5</ele><time>2026-04-19T08:01:29.001Z</time></trkpt><trkpt lat="43.44907266004466" lon="10.565663961529188"><ele>200.0</ele><time>2026-04-19T08:01:30.001Z</time></trkpt><trkpt lat="43.44920870884929" lon="10.565568707075933"><ele>200.0</ele><time>2026-04-19T08:01:31.001Z</time></trkpt><trkpt lat="43.449347651377224" lon="10.565454587245073"><ele>200.0</ele><time>2026-04-19T08:01:32.001Z</time></trkpt><trkpt lat="43.449479674007" lon="10.565341548425398"><ele>200.0</ele><time>2026-04-19T08:01:33.001Z</time></trkpt><trkpt lat="43.44964524944269" lon="10.565252244862933"><ele>196.33333333333334</ele><time>2026-04-19T08:01:34.001Z</time></trkpt><trkpt lat="43.449833327874195" lon="10.565182988043126"><ele>192.66666666666669</ele><time>2026-04-19T08:01:35.001Z</time></trkpt><trkpt lat="43.45001407020424" lon="10.565099379990139"><ele>189.0</ele><time>2026-04-19T08:01:36.001Z</time></trkpt><trkpt lat="43.450193909303714" lon="10.565005145039317"><ele>189.0</ele><time>2026-04-19T08:01:37.001Z</time></trkpt><trkpt lat="43.45037489847353" lon="10.564886462841889"><ele>189.0</ele><time>2026-04-19T08:01:38.001Z</time></trkpt><trkpt lat="43.45054857253995" lon="10.564723505263515"><ele>189.0</ele><time>2026-04-19T08:01:39.001Z</time></trkpt><trkpt lat="43.45072151667436" lon="10.564546176398736"><ele>188.33333333333334</ele><time>2026-04-19T08:01:40.001Z</time></trkpt><trkpt lat="43.450888417522975" lon="10.564363501907394"><ele>187.66666666666669</ele><time>2026-04-19T08:01:41.001Z</time></trkpt><trkpt lat="43.451055986198284" lon="10.564216190795396"><ele>187.0</ele><time>2026-04-19T08:01:42.001Z</time></trkpt><trkpt lat="43.451200944903164" lon="10.564061573592989"><ele>188.0</ele><time>2026-04-19T08:01:43.001Z</time></trkpt><trkpt lat="43.451321309386" lon="10.563928944275919"><ele>189.0</ele><time>2026-04-19T08:01:44.001Z</time></trkpt><trkpt lat="43.45141347139455" lon="10.563817926977219"><ele>190.0</ele><time>2026-04-19T08:01:45.001Z</time></trkpt><trkpt lat="43.45151213248502" lon="10.56375819600704"><ele>191.0</ele><time>2026-04-19T08:01:46.001Z</time></trkpt><trkpt lat="43.45161216720691" lon="10.56374375756074"><ele>191.0</ele><time>2026-04-19T08:01:47.001Z</time></trkpt><trkpt lat="43.451703461501694" lon="10.563791883187141"><ele>191.0</ele><time>2026-04-19T08:01:48.001Z</time></trkpt><trkpt lat="43.4517621328693" lon="10.563891483261596"><ele>191.0</ele><time>2026-04-19T08:01:49.001Z</time></trkpt><trkpt lat="43.45180337005693" lon="10.564042349264072"><ele>191.0</ele><time>2026-04-19T08:01:50.001Z</time></trkpt><trkpt lat="43.45181862853539" lon="10.564228503235299"><ele>191.0</ele><time>2026-04-19T08:01:51.001Z</time></trkpt><trkpt lat="43.45181327104867" lon="10.564439505414772"><ele>192.66666666666666</ele><time>2026-04-19T08:01:52.001Z</time></trkpt><trkpt lat="43.45177533599191" lon="10.564653430788061"><ele>194.33333333333331</ele><time>2026-04-19T08:01:53.001Z</time></trkpt><trkpt lat="43.45170555167195" lon="10.56486535603182"><ele>196.0</ele><time>2026-04-19T08:01:54.001Z</time></trkpt><trkpt lat="43.45163306207305" lon="10.565039345678686"><ele>196.0</ele><time>2026-04-19T08:01:55.001Z</time></trkpt><trkpt lat="43.451589739452" lon="10.56518985713268"><ele>196.0</ele><time>2026-04-19T08:01:56.001Z</time></trkpt><trkpt lat="43.45156491357305" lon="10.565340124714771"><ele>196.0</ele><time>2026-04-19T08:01:57Z</time></trkpt><trkpt lat="43.45156444377583" lon="10.565511792260594"><ele>196.0</ele><time>2026-04-19T08:01:58Z</time></trkpt><trkpt lat="43.45159621146092" lon="10.565681731891251"><ele>197.20000000000002</ele><time>2026-04-19T08:01:59Z</time></trkpt><trkpt lat="43.45165531808817" lon="10.565823249936123"><ele>198.4</ele><time>2026-04-19T08:02:00Z</time></trkpt><trkpt lat="43.451727185197285" lon="10.565917205115984"><ele>199.6</ele><time>2026-04-19T08:02:01Z</time></trkpt><trkpt lat="43.451820505275506" lon="10.565941635114655"><ele>200.8</ele><time>2026-04-19T08:02:02Z</time></trkpt><trkpt lat="43.451941089715035" lon="10.56592624031293"><ele>202.0</ele><time>2026-04-19T08:02:03Z</time></trkpt><trkpt lat="43.452070258119726" lon="10.565919461047901"><ele>201.8</ele><time>2026-04-19T08:02:04Z</time></trkpt><trkpt lat="43.452183209065026" lon="10.565939781193594"><ele>201.6</ele><time>2026-04-19T08:02:05Z</time></trkpt><trkpt lat="43.452283038308046" lon="10.565987854916925"><ele>201.4</ele><time>2026-04-19T08:02:06Z</time></trkpt><trkpt lat="43.45235787438635" lon="10.566081048743927"><ele>201.20000000000002</ele><time>2026-04-19T08:02:07Z</time></trkpt><trkpt lat="43.45239816318917" lon="10.566212348645786"><ele>201.0</ele><time>2026-04-19T08:02:08Z</time></trkpt><trkpt lat="43.45238639377491" lon="10.566390354550576"><ele>201.0</ele><time>2026-04-19T08:02:09Z</time></trkpt><trkpt lat="43.45236878151263" lon="10.566586427739347"><ele>201.0</ele><time>2026-04-19T08:02:10Z</time></trkpt><trkpt lat="43.452374675189006" lon="10.56678963578041"><ele>201.0</ele><time>2026-04-19T08:02:11Z</time></trkpt><trkpt lat="43.45236610257532" lon="10.566959741397666"><ele>201.0</ele><time>2026-04-19T08:02:12Z</time></trkpt><trkpt lat="43.45236312257156" lon="10.567108431790523"><ele>202.33333333333334</ele><time>2026-04-19T08:02:13Z</time></trkpt><trkpt lat="43.45238721310536" lon="10.567221961465036"><ele>203.66666666666669</ele><time>2026-04-19T08:02:14Z</time></trkpt><trkpt lat="43.45245146115344" lon="10.567280059195305"><ele>205.0</ele><time>2026-04-19T08:02:15Z</time></trkpt><trkpt lat="43.45252468772246" lon="10.567283673174"><ele>206.33333333333334</ele><time>2026-04-19T08:02:16Z</time></trkpt><trkpt lat="43.452607686373106" lon="10.567230835138862"><ele>207.66666666666669</ele><time>2026-04-19T08:02:17Z</time></trkpt><trkpt lat="43.452658755246894" lon="10.567162190989986"><ele>209.0</ele><time>2026-04-19T08:02:18Z</time></trkpt><trkpt lat="43.452726101237225" lon="10.56705720726062"><ele>209.00000000000003</ele><time>2026-04-19T08:02:20Z</time></trkpt><trkpt lat="43.45278129536021" lon="10.566979073674643"><ele>209.0</ele><time>2026-04-19T08:02:22Z</time></trkpt><trkpt lat="43.45280803653985" lon="10.566878708746852"><ele>209.0</ele><time>2026-04-19T08:02:24Z</time></trkpt><trkpt lat="43.452848479564054" lon="10.566779115553475"><ele>209.0</ele><time>2026-04-19T08:02:26Z</time></trkpt><trkpt lat="43.452804024527296" lon="10.5668452836636"><ele>209.00000000000003</ele><time>2026-04-19T08:02:32Z</time></trkpt><trkpt lat="43.45275039710936" lon="10.567004501210553"><ele>209.0</ele><time>2026-04-19T08:02:33Z</time></trkpt><trkpt lat="43.45268377075783" lon="10.567126611679441"><ele>209.00000000000003</ele><time>2026-04-19T08:02:34Z</time></trkpt><trkpt lat="43.452623374062206" lon="10.567195787686398"><ele>209.0</ele><time>2026-04-19T08:02:35Z</time></trkpt><trkpt lat="43.45256913641056" lon="10.567241230804653"><ele>209.0</ele><time>2026-04-19T08:02:36Z</time></trkpt><trkpt lat="43.452483528188914" lon="10.567258676364156"><ele>209.0</ele><time>2026-04-19T08:02:38Z</time></trkpt><trkpt lat="43.45250746860976" lon="10.567397922833157"><ele>209.00000000000003</ele><time>2026-04-19T08:02:40Z</time></trkpt><trkpt lat="43.452550279216865" lon="10.567518277228865"><ele>209.0</ele><time>2026-04-19T08:02:42Z</time></trkpt><trkpt lat="43.45256659766856" lon="10.567647239444705"><ele>209.00000000000003</ele><time>2026-04-19T08:02:44Z</time></trkpt><trkpt lat="43.45257968615154" lon="10.56774651159356"><ele>209.0</ele><time>2026-04-19T08:02:55Z</time></trkpt><trkpt lat="43.45254374520316" lon="10.567831538154541"><ele>209.0</ele><time>2026-04-19T08:02:57Z</time></trkpt><trkpt lat="43.45247513755164" lon="10.567843460586495"><ele>209.0</ele><time>2026-04-19T08:03:12Z</time></trkpt><trkpt lat="43.452477700752596" lon="10.567741325196158"><ele>209.00000000000003</ele><time>2026-04-19T08:03:14Z</time></trkpt><trkpt lat="43.45241404485192" lon="10.567631694188696"><ele>209.0</ele><time>2026-04-19T08:03:16Z</time></trkpt><trkpt lat="43.45237167689464" lon="10.56754484615232"><ele>209.00000000000003</ele><time>2026-04-19T08:03:17Z</time></trkpt><trkpt lat="43.452329070457" lon="10.567446022568726"><ele>209.0</ele><time>2026-04-19T08:03:18Z</time></trkpt><trkpt lat="43.452295117094955" lon="10.567347557329786"><ele>209.0</ele><time>2026-04-19T08:03:19Z</time></trkpt><trkpt lat="43.452264878199884" lon="10.567251704383713"><ele>209.0</ele><time>2026-04-19T08:03:20Z</time></trkpt><trkpt lat="43.45225350152221" lon="10.567160651581096"><ele>209.00000000000003</ele><time>2026-04-19T08:03:21Z</time></trkpt><trkpt lat="43.452235621299344" lon="10.567043581750921"><ele>209.0</ele><time>2026-04-19T08:03:22Z</time></trkpt><trkpt lat="43.452211843788184" lon="10.56691521367903"><ele>207.39999999999998</ele><time>2026-04-19T08:03:23Z</time></trkpt><trkpt lat="43.45218318843462" lon="10.566807925250384"><ele>205.8</ele><time>2026-04-19T08:03:24Z</time></trkpt><trkpt lat="43.45214849733589" lon="10.566719875483892"><ele>204.2</ele><time>2026-04-19T08:03:25.001Z</time></trkpt><trkpt lat="43.45209029564014" lon="10.566629892491276"><ele>202.60000000000002</ele><time>2026-04-19T08:03:27.001Z</time></trkpt><trkpt lat="43.451992071857035" lon="10.566609949729578"><ele>201.0</ele><time>2026-04-19T08:03:29.001Z</time></trkpt><trkpt lat="43.451870815017315" lon="10.566688691632756"><ele>204.60000000000002</ele><time>2026-04-19T08:03:31.001Z</time></trkpt><trkpt lat="43.45178103534327" lon="10.566729024775224"><ele>208.2</ele><time>2026-04-19T08:03:32.001Z</time></trkpt><trkpt lat="43.45170616429825" lon="10.566767249264554"><ele>211.79999999999998</ele><time>2026-04-19T08:03:33.001Z</time></trkpt><trkpt lat="43.45162697618325" lon="10.566785036219175"><ele>215.39999999999998</ele><time>2026-04-19T08:03:34.001Z</time></trkpt><trkpt lat="43.45153196397957" lon="10.566817293745288"><ele>219.0</ele><time>2026-04-19T08:03:35.001Z</time></trkpt><trkpt lat="43.451436567853506" lon="10.56685505095178"><ele>219.0</ele><time>2026-04-19T08:03:36.001Z</time></trkpt><trkpt lat="43.451341376536355" lon="10.566853548160527"><ele>218.99999999999997</ele><time>2026-04-19T08:03:37.001Z</time></trkpt><trkpt lat="43.45124540318764" lon="10.566860150017577"><ele>218.99999999999997</ele><time>2026-04-19T08:03:38.001Z</time></trkpt><trkpt lat="43.45114871051269" lon="10.566871626890178"><ele>219.0</ele><time>2026-04-19T08:03:39.001Z</time></trkpt><trkpt lat="43.4510528526609" lon="10.566890817424557"><ele>219.0</ele><time>2026-04-19T08:03:40.001Z</time></trkpt><trkpt lat="43.45096972049165" lon="10.56693222769489"><ele>219.0</ele><time>2026-04-19T08:03:41.001Z</time></trkpt><trkpt lat="43.45089388078188" lon="10.566944351075698"><ele>218.99999999999997</ele><time>2026-04-19T08:03:42.001Z</time></trkpt><trkpt lat="43.45079182119493" lon="10.56700274433329"><ele>218.99999999999997</ele><time>2026-04-19T08:03:44.001Z</time></trkpt><trkpt lat="43.45070840145083" lon="10.567117418610202"><ele>219.0</ele><time>2026-04-19T08:03:46.001Z</time></trkpt><trkpt lat="43.4507110186683" lon="10.567228237076986"><ele>219.0</ele><time>2026-04-19T08:03:47.001Z</time></trkpt><trkpt lat="43.45068538418011" lon="10.567329778754122"><ele>220.16666666666666</ele><time>2026-04-19T08:03:48.001Z</time></trkpt><trkpt lat="43.45063986690146" lon="10.567439887255798"><ele>221.33333333333331</ele><time>2026-04-19T08:03:49.001Z</time></trkpt><trkpt lat="43.450586841394745" lon="10.567553919947892"><ele>222.5</ele><time>2026-04-19T08:03:50.001Z</time></trkpt><trkpt lat="43.45054329241428" lon="10.567636698932796"><ele>223.66666666666666</ele><time>2026-04-19T08:03:51.001Z</time></trkpt><trkpt lat="43.450502409211055" lon="10.567707831339794"><ele>224.83333333333331</ele><time>2026-04-19T08:03:52.001Z</time></trkpt><trkpt lat="43.450423635727134" lon="10.56781240553467"><ele>226.0</ele><time>2026-04-19T08:03:54.001Z</time></trkpt><trkpt lat="43.45033589848193" lon="10.567893123931436"><ele>229.49999999999997</ele><time>2026-04-19T08:03:56.001Z</time></trkpt><trkpt lat="43.45027159570753" lon="10.567938763927856"><ele>233.0</ele><time>2026-04-19T08:03:57.001Z</time></trkpt><trkpt lat="43.45018932736967" lon="10.56799279086084"><ele>236.5</ele><time>2026-04-19T08:03:58.001Z</time></trkpt><trkpt lat="43.45010431266017" lon="10.568049933423957"><ele>240.0</ele><time>2026-04-19T08:03:59.001Z</time></trkpt><trkpt lat="43.450030997605644" lon="10.568109419277784"><ele>243.49999999999997</ele><time>2026-04-19T08:04:00.001Z</time></trkpt><trkpt lat="43.449969555260175" lon="10.568180250806444"><ele>247.0</ele><time>2026-04-19T08:04:01.001Z</time></trkpt><trkpt lat="43.44992058658734" lon="10.568243300329298"><ele>246.99999999999997</ele><time>2026-04-19T08:04:02.001Z</time></trkpt><trkpt lat="43.4498714916131" lon="10.568319267146633"><ele>247.0</ele><time>2026-04-19T08:04:03Z</time></trkpt><trkpt lat="43.449802515566525" lon="10.568463223390093"><ele>247.0</ele><time>2026-04-19T08:04:05Z</time></trkpt><trkpt lat="43.44977631746322" lon="10.568555348519467"><ele>247.0</ele><time>2026-04-19T08:04:06Z</time></trkpt><trkpt lat="43.449754505900096" lon="10.568652207746737"><ele>246.99999999999997</ele><time>2026-04-19T08:04:07Z</time></trkpt><trkpt lat="43.44973460018027" lon="10.568757425062705"><ele>247.0</ele><time>2026-04-19T08:04:08Z</time></trkpt><trkpt lat="43.449713980325406" lon="10.56887508776302"><ele>248.83333333333331</ele><time>2026-04-19T08:04:09Z</time></trkpt><trkpt lat="43.44970294878614" lon="10.568973417659816"><ele>250.66666666666666</ele><time>2026-04-19T08:04:10Z</time></trkpt><trkpt lat="43.449694478644304" lon="10.56907299675251"><ele>252.5</ele><time>2026-04-19T08:04:11Z</time></trkpt><trkpt lat="43.449706893387315" lon="10.569242187542482"><ele>254.33333333333331</ele><time>2026-04-19T08:04:13Z</time></trkpt><trkpt lat="43.44974679066185" lon="10.569316440548176"><ele>256.1666666666667</ele><time>2026-04-19T08:04:14Z</time></trkpt><trkpt lat="43.44980513026849" lon="10.569367036931078"><ele>258.0</ele><time>2026-04-19T08:04:15Z</time></trkpt><trkpt lat="43.44986072353324" lon="10.569442388617468"><ele>258.0</ele><time>2026-04-19T08:04:16Z</time></trkpt><trkpt lat="43.449931658867705" lon="10.569515060030952"><ele>258.0</ele><time>2026-04-19T08:04:17Z</time></trkpt><trkpt lat="43.44998981952545" lon="10.56958537399842"><ele>258.0</ele><time>2026-04-19T08:04:18Z</time></trkpt><trkpt lat="43.45003461457539" lon="10.569658592890722"><ele>258.0</ele><time>2026-04-19T08:04:19Z</time></trkpt><trkpt lat="43.450083814826144" lon="10.569800224970123"><ele>258.0</ele><time>2026-04-19T08:04:21Z</time></trkpt><trkpt lat="43.45010382017172" lon="10.569934792413019"><ele>258.0</ele><time>2026-04-19T08:04:23Z</time></trkpt><trkpt lat="43.45015783857743" lon="10.57006716468252"><ele>258.0</ele><time>2026-04-19T08:04:25Z</time></trkpt><trkpt lat="43.45025389916224" lon="10.570161506417845"><ele>258.0</ele><time>2026-04-19T08:04:27Z</time></trkpt><trkpt lat="43.450313370091735" lon="10.570212975482757"><ele>258.0</ele><time>2026-04-19T08:04:28Z</time></trkpt><trkpt lat="43.450374646153456" lon="10.57025779130677"><ele>258.0</ele><time>2026-04-19T08:04:29Z</time></trkpt><trkpt lat="43.45043637486544" lon="10.57028419147778"><ele>258.0</ele><time>2026-04-19T08:04:30Z</time></trkpt><trkpt lat="43.45051444283458" lon="10.570306137619784"><ele>258.0</ele><time>2026-04-19T08:04:31Z</time></trkpt><trkpt lat="43.45059206440615" lon="10.57034102901011"><ele>259.6666666666667</ele><time>2026-04-19T08:04:32Z</time></trkpt><trkpt lat="43.4506675951959" lon="10.570379240108934"><ele>261.3333333333333</ele><time>2026-04-19T08:04:33Z</time></trkpt><trkpt lat="43.45074041375484" lon="10.570421839694719"><ele>263.0</ele><time>2026-04-19T08:04:34Z</time></trkpt><trkpt lat="43.45080994573916" lon="10.570480668031202"><ele>264.66666666666663</ele><time>2026-04-19T08:04:35Z</time></trkpt><trkpt lat="43.45088598283556" lon="10.57056376568853"><ele>266.3333333333333</ele><time>2026-04-19T08:04:36Z</time></trkpt><trkpt lat="43.45095256073935" lon="10.570665880851767"><ele>268.0</ele><time>2026-04-19T08:04:37Z</time></trkpt><trkpt lat="43.45102438824443" lon="10.570774635433368"><ele>268.0</ele><time>2026-04-19T08:04:38Z</time></trkpt><trkpt lat="43.45108740100375" lon="10.570856873897968"><ele>268.0</ele><time>2026-04-19T08:04:39Z</time></trkpt><trkpt lat="43.45115680642885" lon="10.570931267146584"><ele>268.0</ele><time>2026-04-19T08:04:40Z</time></trkpt><trkpt lat="43.45122821709801" lon="10.571005168222069"><ele>268.0</ele><time>2026-04-19T08:04:41Z</time></trkpt><trkpt lat="43.45128649170223" lon="10.571086678874941"><ele>268.0</ele><time>2026-04-19T08:04:42Z</time></trkpt><trkpt lat="43.45132903019737" lon="10.571182925231783"><ele>268.0</ele><time>2026-04-19T08:04:43Z</time></trkpt><trkpt lat="43.45135685858976" lon="10.571291465256548"><ele>268.3333333333333</ele><time>2026-04-19T08:04:44Z</time></trkpt><trkpt lat="43.45135427172726" lon="10.571413738865221"><ele>268.66666666666663</ele><time>2026-04-19T08:04:45Z</time></trkpt><trkpt lat="43.451352149265524" lon="10.571501647193804"><ele>269.0</ele><time>2026-04-19T08:04:46Z</time></trkpt><trkpt lat="43.45131446566881" lon="10.571653090437884"><ele>269.3333333333333</ele><time>2026-04-19T08:04:48Z</time></trkpt><trkpt lat="43.45124082861917" lon="10.57167239216635"><ele>269.6666666666667</ele><time>2026-04-19T08:04:49Z</time></trkpt><trkpt lat="43.45117137037207" lon="10.57171088959406"><ele>270.0</ele><time>2026-04-19T08:04:50Z</time></trkpt><trkpt lat="43.4510835416973" lon="10.57177752765863"><ele>272.0</ele><time>2026-04-19T08:04:51Z</time></trkpt><trkpt lat="43.450987683900365" lon="10.571819429777829"><ele>274.0</ele><time>2026-04-19T08:04:52Z</time></trkpt><trkpt lat="43.45090271052212" lon="10.57186849020365"><ele>276.0</ele><time>2026-04-19T08:04:53Z</time></trkpt><trkpt lat="43.4508184679739" lon="10.571930691631698"><ele>278.0</ele><time>2026-04-19T08:04:54Z</time></trkpt><trkpt lat="43.45073920647089" lon="10.571974024786622"><ele>280.0</ele><time>2026-04-19T08:04:55Z</time></trkpt><trkpt lat="43.450653484218414" lon="10.57197272110714"><ele>280.0</ele><time>2026-04-19T08:04:56Z</time></trkpt><trkpt lat="43.45058250295345" lon="10.572009483653003"><ele>280.0</ele><time>2026-04-19T08:04:57Z</time></trkpt><trkpt lat="43.45048937058749" lon="10.572019151732597"><ele>280.0</ele><time>2026-04-19T08:04:58Z</time></trkpt><trkpt lat="43.45039469977005" lon="10.571990849324129"><ele>280.0</ele><time>2026-04-19T08:04:59Z</time></trkpt><trkpt lat="43.45029935566115" lon="10.572012705518848"><ele>280.0</ele><time>2026-04-19T08:05:00Z</time></trkpt><trkpt lat="43.45021911308115" lon="10.57200297011671"><ele>280.0</ele><time>2026-04-19T08:05:01Z</time></trkpt><trkpt lat="43.450136217648534" lon="10.572029355721307"><ele>282.0</ele><time>2026-04-19T08:05:02Z</time></trkpt><trkpt lat="43.45005343848869" lon="10.572063498004606"><ele>284.0</ele><time>2026-04-19T08:05:03Z</time></trkpt><trkpt lat="43.44996882685244" lon="10.572060506351919"><ele>286.0</ele><time>2026-04-19T08:05:04Z</time></trkpt><trkpt lat="43.449894407067916" lon="10.572075855799026"><ele>288.0</ele><time>2026-04-19T08:05:05Z</time></trkpt><trkpt lat="43.44981468212153" lon="10.572105580523035"><ele>290.0</ele><time>2026-04-19T08:05:07Z</time></trkpt><trkpt lat="43.44975827928028" lon="10.572221332873317"><ele>292.0</ele><time>2026-04-19T08:05:09Z</time></trkpt><trkpt lat="43.44978773355405" lon="10.572326127730403"><ele>292.0</ele><time>2026-04-19T08:05:10Z</time></trkpt><trkpt lat="43.44984180941968" lon="10.572427034383038"><ele>292.0</ele><time>2026-04-19T08:05:11Z</time></trkpt><trkpt lat="43.44990187374505" lon="10.572515177083137"><ele>292.0</ele><time>2026-04-19T08:05:12Z</time></trkpt><trkpt lat="43.44997835115501" lon="10.572596520807771"><ele>292.0</ele><time>2026-04-19T08:05:13Z</time></trkpt><trkpt lat="43.450044887792096" lon="10.572708702358321"><ele>292.0</ele><time>2026-04-19T08:05:14Z</time></trkpt><trkpt lat="43.45012992031286" lon="10.572822821240786"><ele>289.8</ele><time>2026-04-19T08:05:15Z</time></trkpt><trkpt lat="43.450210323051266" lon="10.572943802787094"><ele>287.6</ele><time>2026-04-19T08:05:16Z</time></trkpt><trkpt lat="43.45026973276509" lon="10.573042325576688"><ele>285.40000000000003</ele><time>2026-04-19T08:05:17Z</time></trkpt><trkpt lat="43.450311834629545" lon="10.573153267864138"><ele>283.2</ele><time>2026-04-19T08:05:18Z</time></trkpt><trkpt lat="43.45035806233549" lon="10.573275977118318"><ele>281.0</ele><time>2026-04-19T08:05:19Z</time></trkpt><trkpt lat="43.450407241816436" lon="10.573402014248519"><ele>281.0</ele><time>2026-04-19T08:05:20Z</time></trkpt><trkpt lat="43.45044431289807" lon="10.573512953430313"><ele>281.0</ele><time>2026-04-19T08:05:21Z</time></trkpt><trkpt lat="43.45047721435387" lon="10.573610256035435"><ele>281.0</ele><time>2026-04-19T08:05:22Z</time></trkpt><trkpt lat="43.45049747467818" lon="10.573705332993422"><ele>281.0</ele><time>2026-04-19T08:05:23Z</time></trkpt><trkpt lat="43.450562036614926" lon="10.573779815945446"><ele>281.0</ele><time>2026-04-19T08:05:24Z</time></trkpt><trkpt lat="43.450674926546526" lon="10.57379841436271"><ele>281.0</ele><time>2026-04-19T08:05:25Z</time></trkpt><trkpt lat="43.45074572668309" lon="10.573857787141861"><ele>286.40000000000003</ele><time>2026-04-19T08:05:26Z</time></trkpt><trkpt lat="43.45078451571714" lon="10.573966006116592"><ele>291.8</ele><time>2026-04-19T08:05:27Z</time></trkpt><trkpt lat="43.450853520734285" lon="10.574076236972079"><ele>297.20000000000005</ele><time>2026-04-19T08:05:28Z</time></trkpt><trkpt lat="43.45093516002653" lon="10.57418717574369"><ele>302.6</ele><time>2026-04-19T08:05:29Z</time></trkpt><trkpt lat="43.45102492213275" lon="10.574267239927384"><ele>308.0</ele><time>2026-04-19T08:05:30Z</time></trkpt><trkpt lat="43.45109940318718" lon="10.574369352822135"><ele>308.0</ele><time>2026-04-19T08:05:31Z</time></trkpt><trkpt lat="43.451167754707654" lon="10.57448489597305"><ele>308.0</ele><time>2026-04-19T08:05:32Z</time></trkpt><trkpt lat="43.45122238171036" lon="10.574608731036319"><ele>308.0</ele><time>2026-04-19T08:05:33Z</time></trkpt><trkpt lat="43.451277828422654" lon="10.574722784019771"><ele>308.0</ele><time>2026-04-19T08:05:34Z</time></trkpt><trkpt lat="43.45134817372138" lon="10.574804845770345"><ele>308.0</ele><time>2026-04-19T08:05:35Z</time></trkpt><trkpt lat="43.4514143304453" lon="10.574856938018609"><ele>310.42857142857144</ele><time>2026-04-19T08:05:36Z</time></trkpt><trkpt lat="43.4514859305664" lon="10.574903080658553"><ele>312.8571428571429</ele><time>2026-04-19T08:05:37Z</time></trkpt><trkpt lat="43.451550702403225" lon="10.574962355090683"><ele>315.2857142857143</ele><time>2026-04-19T08:05:38Z</time></trkpt><trkpt lat="43.45158658809298" lon="10.575055558679999"><ele>317.7142857142857</ele><time>2026-04-19T08:05:39Z</time></trkpt><trkpt lat="43.45162313096606" lon="10.575131595606834"><ele>320.14285714285717</ele><time>2026-04-19T08:05:40Z</time></trkpt><trkpt lat="43.451657708485044" lon="10.57520687915043"><ele>322.57142857142856</ele><time>2026-04-19T08:05:41Z</time></trkpt><trkpt lat="43.45169139290316" lon="10.57529641566323"><ele>325.0</ele><time>2026-04-19T08:05:42Z</time></trkpt><trkpt lat="43.451704999426205" lon="10.575408293813028"><ele>325.8333333333333</ele><time>2026-04-19T08:05:43Z</time></trkpt><trkpt lat="43.45170173996992" lon="10.57551590244255"><ele>326.66666666666663</ele><time>2026-04-19T08:05:44.001Z</time></trkpt><trkpt lat="43.45168745659929" lon="10.575631347538199"><ele>327.5</ele><time>2026-04-19T08:05:45.001Z</time></trkpt><trkpt lat="43.45166490054995" lon="10.57575551077225"><ele>328.3333333333333</ele><time>2026-04-19T08:05:46.001Z</time></trkpt><trkpt lat="43.451649701098944" lon="10.575880078645785"><ele>329.1666666666667</ele><time>2026-04-19T08:05:47.001Z</time></trkpt><trkpt lat="43.45164731089357" lon="10.575979953230197"><ele>330.0</ele><time>2026-04-19T08:05:48.001Z</time></trkpt><trkpt lat="43.451679617017824" lon="10.576070332632858"><ele>330.0</ele><time>2026-04-19T08:05:49.001Z</time></trkpt><trkpt lat="43.45172350297339" lon="10.576159248689782"><ele>330.0</ele><time>2026-04-19T08:05:50.001Z</time></trkpt><trkpt lat="43.45176620423569" lon="10.576271545526568"><ele>330.0</ele><time>2026-04-19T08:05:51.001Z</time></trkpt><trkpt lat="43.45182013971533" lon="10.576397142738726"><ele>330.0</ele><time>2026-04-19T08:05:52.001Z</time></trkpt><trkpt lat="43.45186768012203" lon="10.57649799883455"><ele>330.0</ele><time>2026-04-19T08:05:53.001Z</time></trkpt><trkpt lat="43.45192062774291" lon="10.576572529319899"><ele>330.0</ele><time>2026-04-19T08:05:54.001Z</time></trkpt><trkpt lat="43.451978858163436" lon="10.576622969828572"><ele>330.0</ele><time>2026-04-19T08:05:55.001Z</time></trkpt><trkpt lat="43.45205284137393" lon="10.576658253125654"><ele>330.0</ele><time>2026-04-19T08:05:56.001Z</time></trkpt><trkpt lat="43.45214405310891" lon="10.576686838388323"><ele>330.0</ele><time>2026-04-19T08:05:57.001Z</time></trkpt><trkpt lat="43.45222557847911" lon="10.57672211682652"><ele>330.0</ele><time>2026-04-19T08:05:58.001Z</time></trkpt><trkpt lat="43.45230569002215" lon="10.57674190228602"><ele>330.0</ele><time>2026-04-19T08:05:59.001Z</time></trkpt><trkpt lat="43.45238744929179" lon="10.57673007978577"><ele>330.0</ele><time>2026-04-19T08:06:00.001Z</time></trkpt><trkpt lat="43.4524726108614" lon="10.576683500656975"><ele>332.1666666666667</ele><time>2026-04-19T08:06:01.001Z</time></trkpt><trkpt lat="43.45256323236317" lon="10.576607117195577"><ele>334.3333333333333</ele><time>2026-04-19T08:06:02.001Z</time></trkpt><trkpt lat="43.45265017801542" lon="10.576547673976627"><ele>336.5</ele><time>2026-04-19T08:06:03.001Z</time></trkpt><trkpt lat="43.45272987484917" lon="10.576504120424138"><ele>338.66666666666663</ele><time>2026-04-19T08:06:04.001Z</time></trkpt><trkpt lat="43.45280063568669" lon="10.576465325206637"><ele>340.8333333333333</ele><time>2026-04-19T08:06:05.001Z</time></trkpt><trkpt lat="43.45287104902114" lon="10.576488618335679"><ele>343.0</ele><time>2026-04-19T08:06:06.001Z</time></trkpt><trkpt lat="43.45293843992956" lon="10.576562958104951"><ele>346.2</ele><time>2026-04-19T08:06:07.001Z</time></trkpt><trkpt lat="43.45301430420682" lon="10.576649129672647"><ele>349.4</ele><time>2026-04-19T08:06:08.001Z</time></trkpt><trkpt lat="43.45310053268132" lon="10.57671913197363"><ele>352.59999999999997</ele><time>2026-04-19T08:06:09Z</time></trkpt><trkpt lat="43.453209881242756" lon="10.576736759063078"><ele>355.79999999999995</ele><time>2026-04-19T08:06:10Z</time></trkpt><trkpt lat="43.45332262683758" lon="10.576742685168687"><ele>359.0</ele><time>2026-04-19T08:06:11Z</time></trkpt><trkpt lat="43.45343217321448" lon="10.576778836257123"><ele>359.0</ele><time>2026-04-19T08:06:12Z</time></trkpt><trkpt lat="43.45351983608985" lon="10.576843718636232"><ele>359.0</ele><time>2026-04-19T08:06:13Z</time></trkpt><trkpt lat="43.45358934744671" lon="10.576920611546235"><ele>359.0</ele><time>2026-04-19T08:06:14Z</time></trkpt><trkpt lat="43.45365359204955" lon="10.577011981229326"><ele>359.0</ele><time>2026-04-19T08:06:15Z</time></trkpt><trkpt lat="43.45369953332696" lon="10.577136619980584"><ele>359.0</ele><time>2026-04-19T08:06:16Z</time></trkpt><trkpt lat="43.453761851174264" lon="10.577235479381141"><ele>361.79999999999995</ele><time>2026-04-19T08:06:17Z</time></trkpt><trkpt lat="43.45380887215674" lon="10.577334031089139"><ele>364.59999999999997</ele><time>2026-04-19T08:06:18Z</time></trkpt><trkpt lat="43.45385759478757" lon="10.577448564584385"><ele>367.4</ele><time>2026-04-19T08:06:19Z</time></trkpt><trkpt lat="43.453905139370946" lon="10.577567189468569"><ele>370.2</ele><time>2026-04-19T08:06:20Z</time></trkpt><trkpt lat="43.45395680366276" lon="10.577680069579687"><ele>373.0</ele><time>2026-04-19T08:06:21Z</time></trkpt><trkpt lat="43.45398884815668" lon="10.57778537969519"><ele>373.16666666666663</ele><time>2026-04-19T08:06:22Z</time></trkpt><trkpt lat="43.45400127657689" lon="10.577879313042224"><ele>373.3333333333333</ele><time>2026-04-19T08:06:23Z</time></trkpt><trkpt lat="43.45401724965476" lon="10.577985971326243"><ele>373.5</ele><time>2026-04-19T08:06:24Z</time></trkpt><trkpt lat="43.45402629633411" lon="10.578104142355787"><ele>373.6666666666667</ele><time>2026-04-19T08:06:25Z</time></trkpt><trkpt lat="43.45405794804301" lon="10.578231913122176"><ele>373.83333333333337</ele><time>2026-04-19T08:06:26Z</time></trkpt><trkpt lat="43.454093868807114" lon="10.578358184232936"><ele>374.0</ele><time>2026-04-19T08:06:27Z</time></trkpt><trkpt lat="43.454150002894345" lon="10.578501593840022"><ele>374.0</ele><time>2026-04-19T08:06:28Z</time></trkpt><trkpt lat="43.45420464886724" lon="10.57863307863885"><ele>374.0</ele><time>2026-04-19T08:06:29Z</time></trkpt><trkpt lat="43.454244978576725" lon="10.57874106621415"><ele>374.0</ele><time>2026-04-19T08:06:30Z</time></trkpt><trkpt lat="43.45428390876904" lon="10.5788466645882"><ele>374.0</ele><time>2026-04-19T08:06:31Z</time></trkpt><trkpt lat="43.45434226295809" lon="10.578951396514565"><ele>374.0</ele><time>2026-04-19T08:06:32Z</time></trkpt><trkpt lat="43.45440052834758" lon="10.579034233310635"><ele>373.83333333333337</ele><time>2026-04-19T08:06:33Z</time></trkpt><trkpt lat="43.454456628296924" lon="10.579098933047623"><ele>373.6666666666667</ele><time>2026-04-19T08:06:34Z</time></trkpt><trkpt lat="43.45452329123463" lon="10.579169452932975"><ele>373.5</ele><time>2026-04-19T08:06:35Z</time></trkpt><trkpt lat="43.45458889180817" lon="10.579241867910076"><ele>373.3333333333333</ele><time>2026-04-19T08:06:36Z</time></trkpt><trkpt lat="43.454662894331925" lon="10.579304402331907"><ele>373.16666666666663</ele><time>2026-04-19T08:06:37Z</time></trkpt><trkpt lat="43.454727241929675" lon="10.579361691562598"><ele>373.0</ele><time>2026-04-19T08:06:38Z</time></trkpt><trkpt lat="43.45478903105373" lon="10.579435301487115"><ele>376.2</ele><time>2026-04-19T08:06:39Z</time></trkpt><trkpt lat="43.45481579687013" lon="10.57955748840989"><ele>379.4</ele><time>2026-04-19T08:06:41Z</time></trkpt><trkpt lat="43.454800805766716" lon="10.579661182939022"><ele>382.59999999999997</ele><time>2026-04-19T08:06:42Z</time></trkpt><trkpt lat="43.454738572111644" lon="10.579766459403901"><ele>385.79999999999995</ele><time>2026-04-19T08:06:43Z</time></trkpt><trkpt lat="43.454730971971756" lon="10.57990558635706"><ele>389.0</ele><time>2026-04-19T08:06:44Z</time></trkpt><trkpt lat="43.45472928248706" lon="10.58005972075207"><ele>389.0</ele><time>2026-04-19T08:06:45Z</time></trkpt><trkpt lat="43.45471221886198" lon="10.580204639052438"><ele>389.0</ele><time>2026-04-19T08:06:46Z</time></trkpt><trkpt lat="43.45469513495825" lon="10.580357883029064"><ele>389.0</ele><time>2026-04-19T08:06:47Z</time></trkpt><trkpt lat="43.45470599202567" lon="10.580487644250447"><ele>389.0</ele><time>2026-04-19T08:06:48Z</time></trkpt><trkpt lat="43.4547108396981" lon="10.58058751384701"><ele>389.0</ele><time>2026-04-19T08:06:49Z</time></trkpt><trkpt lat="43.45478350671871" lon="10.580681754189929"><ele>390.8333333333333</ele><time>2026-04-19T08:06:50Z</time></trkpt><trkpt lat="43.45486001208822" lon="10.580749407788604"><ele>392.66666666666663</ele><time>2026-04-19T08:06:51Z</time></trkpt><trkpt lat="43.454937830454185" lon="10.580819299239133"><ele>394.5</ele><time>2026-04-19T08:06:52Z</time></trkpt><trkpt lat="43.45498934186715" lon="10.580910454919838"><ele>396.33333333333337</ele><time>2026-04-19T08:06:53Z</time></trkpt><trkpt lat="43.45502828586801" lon="10.58099421578129"><ele>398.1666666666667</ele><time>2026-04-19T08:06:54Z</time></trkpt><trkpt lat="43.455054551438884" lon="10.581098621551561"><ele>400.0</ele><time>2026-04-19T08:06:55Z</time></trkpt><trkpt lat="43.455095772921354" lon="10.581211570505717"><ele>401.1666666666667</ele><time>2026-04-19T08:06:56Z</time></trkpt><trkpt lat="43.45514946471219" lon="10.581332185268085"><ele>402.33333333333337</ele><time>2026-04-19T08:06:57Z</time></trkpt><trkpt lat="43.455194035924116" lon="10.581446706756491"><ele>403.5</ele><time>2026-04-19T08:06:58Z</time></trkpt><trkpt lat="43.45521107251226" lon="10.581564182242362"><ele>404.66666666666663</ele><time>2026-04-19T08:06:59Z</time></trkpt><trkpt lat="43.45523560215055" lon="10.58166685230161"><ele>405.8333333333333</ele><time>2026-04-19T08:07:00Z</time></trkpt><trkpt lat="43.455264989053035" lon="10.581771369105743"><ele>407.0</ele><time>2026-04-19T08:07:01Z</time></trkpt><trkpt lat="43.4552885702292" lon="10.581874116526715"><ele>407.0</ele><time>2026-04-19T08:07:02Z</time></trkpt><trkpt lat="43.45530691253827" lon="10.58197141163641"><ele>407.0</ele><time>2026-04-19T08:07:03Z</time></trkpt><trkpt lat="43.45532981358582" lon="10.582083357848798"><ele>407.0</ele><time>2026-04-19T08:07:04Z</time></trkpt><trkpt lat="43.45534882806009" lon="10.582220257694429"><ele>407.0</ele><time>2026-04-19T08:07:05Z</time></trkpt><trkpt lat="43.45536314095284" lon="10.58237147537885"><ele>407.0</ele><time>2026-04-19T08:07:06Z</time></trkpt><trkpt lat="43.455376195184954" lon="10.582532130307877"><ele>407.40000000000003</ele><time>2026-04-19T08:07:07Z</time></trkpt><trkpt lat="43.45539167206867" lon="10.58267823813809"><ele>407.8</ele><time>2026-04-19T08:07:08Z</time></trkpt><trkpt lat="43.455403536455954" lon="10.582805784060106"><ele>408.2</ele><time>2026-04-19T08:07:09Z</time></trkpt><trkpt lat="43.45541005895136" lon="10.582919645452419"><ele>408.6</ele><time>2026-04-19T08:07:10Z</time></trkpt><trkpt lat="43.45540146988122" lon="10.583054163510848"><ele>409.0</ele><time>2026-04-19T08:07:11Z</time></trkpt><trkpt lat="43.455351556868465" lon="10.583197959405299"><ele>410.2</ele><time>2026-04-19T08:07:12Z</time></trkpt><trkpt lat="43.45534766778077" lon="10.583354830186972"><ele>411.4</ele><time>2026-04-19T08:07:13Z</time></trkpt><trkpt lat="43.45534223879974" lon="10.583502800892305"><ele>412.6</ele><time>2026-04-19T08:07:14Z</time></trkpt><trkpt lat="43.45536174050132" lon="10.583633770645486"><ele>413.8</ele><time>2026-04-19T08:07:15Z</time></trkpt><trkpt lat="43.455381257144644" lon="10.583763758517946"><ele>415.0</ele><time>2026-04-19T08:07:16Z</time></trkpt><trkpt lat="43.455399626081245" lon="10.583910831820681"><ele>416.8</ele><time>2026-04-19T08:07:17Z</time></trkpt><trkpt lat="43.45541355477798" lon="10.584073393916741"><ele>418.6</ele><time>2026-04-19T08:07:18Z</time></trkpt><trkpt lat="43.45543841002686" lon="10.584224942946612"><ele>420.4</ele><time>2026-04-19T08:07:19Z</time></trkpt><trkpt lat="43.45548484744407" lon="10.584354588362656"><ele>422.2</ele><time>2026-04-19T08:07:20Z</time></trkpt><trkpt lat="43.45553880032253" lon="10.584486744409844"><ele>424.0</ele><time>2026-04-19T08:07:21Z</time></trkpt><trkpt lat="43.45559608338847" lon="10.584621700308126"><ele>426.0</ele><time>2026-04-19T08:07:22Z</time></trkpt><trkpt lat="43.45562740035483" lon="10.58475850250297"><ele>428.0</ele><time>2026-04-19T08:07:23Z</time></trkpt><trkpt lat="43.4556794864322" lon="10.584881857764259"><ele>430.0</ele><time>2026-04-19T08:07:24Z</time></trkpt><trkpt lat="43.4557264474683" lon="10.585024032109134"><ele>432.0</ele><time>2026-04-19T08:07:25Z</time></trkpt><trkpt lat="43.45579359829625" lon="10.585175612107891"><ele>432.0</ele><time>2026-04-19T08:07:26Z</time></trkpt><trkpt lat="43.45585208579261" lon="10.585310910250655"><ele>432.00000000000006</ele><time>2026-04-19T08:07:27Z</time></trkpt><trkpt lat="43.45589978452345" lon="10.585436012326282"><ele>432.00000000000006</ele><time>2026-04-19T08:07:28Z</time></trkpt><trkpt lat="43.45596208605208" lon="10.585568359840913"><ele>432.0</ele><time>2026-04-19T08:07:29Z</time></trkpt><trkpt lat="43.455982217300175" lon="10.585691411586534"><ele>432.0</ele><time>2026-04-19T08:07:30Z</time></trkpt><trkpt lat="43.45601604343328" lon="10.58580894293353"><ele>433.20000000000005</ele><time>2026-04-19T08:07:31Z</time></trkpt><trkpt lat="43.456056861806914" lon="10.585934785556082"><ele>434.40000000000003</ele><time>2026-04-19T08:07:32Z</time></trkpt><trkpt lat="43.456097445809924" lon="10.586071169463409"><ele>435.59999999999997</ele><time>2026-04-19T08:07:33Z</time></trkpt><trkpt lat="43.45614306427638" lon="10.586201552031417"><ele>436.79999999999995</ele><time>2026-04-19T08:07:34Z</time></trkpt><trkpt lat="43.456195453929396" lon="10.586328492791806"><ele>438.0</ele><time>2026-04-19T08:07:35Z</time></trkpt><trkpt lat="43.45624772330964" lon="10.586455191556148"><ele>439.0</ele><time>2026-04-19T08:07:36Z</time></trkpt><trkpt lat="43.45633645340813" lon="10.586596282136137"><ele>440.0</ele><time>2026-04-19T08:07:37Z</time></trkpt><trkpt lat="43.45642002603369" lon="10.58674291582555"><ele>441.0</ele><time>2026-04-19T08:07:38Z</time></trkpt><trkpt lat="43.45647392998849" lon="10.586857855002586"><ele>442.0</ele><time>2026-04-19T08:07:39Z</time></trkpt><trkpt lat="43.45652846678791" lon="10.586946526074874"><ele>444.6</ele><time>2026-04-19T08:07:40Z</time></trkpt><trkpt lat="43.456562763570155" lon="10.587048068665204"><ele>447.20000000000005</ele><time>2026-04-19T08:07:41Z</time></trkpt><trkpt lat="43.45658911091742" lon="10.587166800248356"><ele>449.8</ele><time>2026-04-19T08:07:42Z</time></trkpt><trkpt lat="43.45661721783551" lon="10.587300034907507"><ele>452.4</ele><time>2026-04-19T08:07:43Z</time></trkpt><trkpt lat="43.4566432961669" lon="10.587449317533485"><ele>455.0</ele><time>2026-04-19T08:07:44Z</time></trkpt><trkpt lat="43.456670736718685" lon="10.587570705188968"><ele>455.0</ele><time>2026-04-19T08:07:45Z</time></trkpt><trkpt lat="43.45669640408018" lon="10.587701026583957"><ele>455.0</ele><time>2026-04-19T08:07:46Z</time></trkpt><trkpt lat="43.45673112092885" lon="10.587825657314808"><ele>455.0</ele><time>2026-04-19T08:07:47Z</time></trkpt><trkpt lat="43.45678225730507" lon="10.587929148838018"><ele>455.0</ele><time>2026-04-19T08:07:48Z</time></trkpt><trkpt lat="43.456864495532265" lon="10.588005248632262"><ele>455.0</ele><time>2026-04-19T08:07:49Z</time></trkpt><trkpt lat="43.45696298916545" lon="10.588100663219647"><ele>457.0</ele><time>2026-04-19T08:07:50Z</time></trkpt><trkpt lat="43.45705420331487" lon="10.58818192529546"><ele>459.0</ele><time>2026-04-19T08:07:51Z</time></trkpt><trkpt lat="43.45712442999859" lon="10.588255553655033"><ele>461.0</ele><time>2026-04-19T08:07:52Z</time></trkpt><trkpt lat="43.45721448539678" lon="10.588357623062013"><ele>463.0</ele><time>2026-04-19T08:07:54Z</time></trkpt><trkpt lat="43.45726448574114" lon="10.588448538529693"><ele>465.0</ele><time>2026-04-19T08:07:55.001Z</time></trkpt><trkpt lat="43.45733074601724" lon="10.588563808053683"><ele>465.0</ele><time>2026-04-19T08:07:56.001Z</time></trkpt><trkpt lat="43.457393959196956" lon="10.5886660231055"><ele>465.0</ele><time>2026-04-19T08:07:57.001Z</time></trkpt><trkpt lat="43.45745198418695" lon="10.588729554702462"><ele>465.0</ele><time>2026-04-19T08:07:58.001Z</time></trkpt><trkpt lat="43.45754705832632" lon="10.588744814356403"><ele>465.0</ele><time>2026-04-19T08:07:59.001Z</time></trkpt><trkpt lat="43.45766305737759" lon="10.588771513975962"><ele>465.0</ele><time>2026-04-19T08:08:00.001Z</time></trkpt><trkpt lat="43.45776261441679" lon="10.58883957834488"><ele>466.75</ele><time>2026-04-19T08:08:01.001Z</time></trkpt><trkpt lat="43.45785001488544" lon="10.588928664248181"><ele>468.5</ele><time>2026-04-19T08:08:02.001Z</time></trkpt><trkpt lat="43.45793711098058" lon="10.589045727345187"><ele>470.25</ele><time>2026-04-19T08:08:03.001Z</time></trkpt><trkpt lat="43.45801234782874" lon="10.589174037647409"><ele>472.0</ele><time>2026-04-19T08:08:04.001Z</time></trkpt><trkpt lat="43.45808637294521" lon="10.589296994880723"><ele>472.0</ele><time>2026-04-19T08:08:05.001Z</time></trkpt><trkpt lat="43.458158908278506" lon="10.589421820906452"><ele>472.00000000000006</ele><time>2026-04-19T08:08:06.001Z</time></trkpt><trkpt lat="43.45822553124086" lon="10.589550935898089"><ele>472.00000000000006</ele><time>2026-04-19T08:08:07.001Z</time></trkpt><trkpt lat="43.45827751309445" lon="10.589673278807107"><ele>472.0</ele><time>2026-04-19T08:08:08.001Z</time></trkpt><trkpt lat="43.4583222052358" lon="10.589768435317547"><ele>472.0</ele><time>2026-04-19T08:08:09.001Z</time></trkpt><trkpt lat="43.45838292714937" lon="10.589838615658762"><ele>474.6666666666667</ele><time>2026-04-19T08:08:10.001Z</time></trkpt><trkpt lat="43.458457320614684" lon="10.589873261991897"><ele>477.33333333333337</ele><time>2026-04-19T08:08:11.001Z</time></trkpt><trkpt lat="43.45852164499312" lon="10.58991692865738"><ele>480.0</ele><time>2026-04-19T08:08:12.001Z</time></trkpt><trkpt lat="43.458588942784154" lon="10.589976347974575"><ele>482.66666666666663</ele><time>2026-04-19T08:08:13.001Z</time></trkpt><trkpt lat="43.458644573964555" lon="10.590086572007463"><ele>485.3333333333333</ele><time>2026-04-19T08:08:14.001Z</time></trkpt><trkpt lat="43.45870056414138" lon="10.590225992725056"><ele>488.0</ele><time>2026-04-19T08:08:15Z</time></trkpt><trkpt lat="43.45876542451364" lon="10.590374739179708"><ele>488.0</ele><time>2026-04-19T08:08:16Z</time></trkpt><trkpt lat="43.45881799172568" lon="10.590494257452784"><ele>487.99999999999994</ele><time>2026-04-19T08:08:17Z</time></trkpt><trkpt lat="43.45887622613942" lon="10.590589171293178"><ele>487.99999999999994</ele><time>2026-04-19T08:08:18Z</time></trkpt><trkpt lat="43.458963985829946" lon="10.590648715055105"><ele>488.0</ele><time>2026-04-19T08:08:19Z</time></trkpt><trkpt lat="43.459071093032364" lon="10.590712743825275"><ele>488.0</ele><time>2026-04-19T08:08:20Z</time></trkpt><trkpt lat="43.459177481129466" lon="10.590767717924912"><ele>487.99999999999994</ele><time>2026-04-19T08:08:21Z</time></trkpt><trkpt lat="43.45927842678275" lon="10.590815827377282"><ele>488.0</ele><time>2026-04-19T08:08:22Z</time></trkpt><trkpt lat="43.45936619968226" lon="10.590859152122748"><ele>488.0</ele><time>2026-04-19T08:08:23Z</time></trkpt><trkpt lat="43.45943272203752" lon="10.590889758740685"><ele>488.0</ele><time>2026-04-19T08:08:24Z</time></trkpt><trkpt lat="43.459495222832565" lon="10.590929505531854"><ele>487.99999999999994</ele><time>2026-04-19T08:08:25Z</time></trkpt><trkpt lat="43.459553918489334" lon="10.590990542478833"><ele>488.0</ele><time>2026-04-19T08:08:26Z</time></trkpt><trkpt lat="43.45960854529502" lon="10.591088079774748"><ele>487.59999999999997</ele><time>2026-04-19T08:08:27Z</time></trkpt><trkpt lat="43.45966896105189" lon="10.591206541754648"><ele>487.19999999999993</ele><time>2026-04-19T08:08:28Z</time></trkpt><trkpt lat="43.459744210913605" lon="10.591308912998784"><ele>486.8</ele><time>2026-04-19T08:08:29Z</time></trkpt><trkpt lat="43.45981827056458" lon="10.59139632530268"><ele>486.4</ele><time>2026-04-19T08:08:30Z</time></trkpt><trkpt lat="43.459881148131764" lon="10.591519983289679"><ele>486.0</ele><time>2026-04-19T08:08:31Z</time></trkpt><trkpt lat="43.45994441885806" lon="10.591677334808947"><ele>486.0</ele><time>2026-04-19T08:08:32Z</time></trkpt><trkpt lat="43.46000081296448" lon="10.591836708381676"><ele>486.0</ele><time>2026-04-19T08:08:33Z</time></trkpt><trkpt lat="43.46003860640784" lon="10.591961039501331"><ele>486.0</ele><time>2026-04-19T08:08:34Z</time></trkpt><trkpt lat="43.4600634149372" lon="10.592051889385766"><ele>486.0</ele><time>2026-04-19T08:08:35Z</time></trkpt><trkpt lat="43.46008133571805" lon="10.592137166573682"><ele>486.0</ele><time>2026-04-19T08:08:36Z</time></trkpt><trkpt lat="43.46010624513937" lon="10.592221636393932"><ele>486.0</ele><time>2026-04-19T08:08:37Z</time></trkpt><trkpt lat="43.46012209147875" lon="10.592307978301644"><ele>486.3333333333333</ele><time>2026-04-19T08:08:38Z</time></trkpt><trkpt lat="43.460208552547115" lon="10.592410265392026"><ele>486.66666666666663</ele><time>2026-04-19T08:08:40Z</time></trkpt><trkpt lat="43.46027828020997" lon="10.592402272768489"><ele>487.0</ele><time>2026-04-19T08:08:41Z</time></trkpt><trkpt lat="43.46034959274544" lon="10.592402341031237"><ele>487.3333333333333</ele><time>2026-04-19T08:08:42Z</time></trkpt><trkpt lat="43.46044423812381" lon="10.592413574438435"><ele>487.66666666666663</ele><time>2026-04-19T08:08:43Z</time></trkpt><trkpt lat="43.460540526686536" lon="10.592427639175465"><ele>488.0</ele><time>2026-04-19T08:08:44Z</time></trkpt><trkpt lat="43.460616417739395" lon="10.592431853522513"><ele>486.66666666666663</ele><time>2026-04-19T08:08:45Z</time></trkpt><trkpt lat="43.460688734374244" lon="10.592440726780842"><ele>485.3333333333333</ele><time>2026-04-19T08:08:46Z</time></trkpt><trkpt lat="43.46075908920671" lon="10.592458847843671"><ele>484.0</ele><time>2026-04-19T08:08:47Z</time></trkpt><trkpt lat="43.46082649963449" lon="10.592472630015367"><ele>482.66666666666663</ele><time>2026-04-19T08:08:48Z</time></trkpt><trkpt lat="43.46093707145904" lon="10.592500867241883"><ele>481.3333333333333</ele><time>2026-04-19T08:08:50Z</time></trkpt><trkpt lat="43.46101284673433" lon="10.592550637048024"><ele>480.0</ele><time>2026-04-19T08:08:52Z</time></trkpt><trkpt lat="43.46108955765285" lon="10.592595546254865"><ele>480.0</ele><time>2026-04-19T08:08:54Z</time></trkpt><trkpt lat="43.46114999320642" lon="10.592645103913942"><ele>480.0</ele><time>2026-04-19T08:08:56Z</time></trkpt><trkpt lat="43.46120291630318" lon="10.592695238799164"><ele>480.0</ele><time>2026-04-19T08:08:58Z</time></trkpt><trkpt lat="43.46125715369378" lon="10.592743312556474"><ele>480.0</ele><time>2026-04-19T08:09:00Z</time></trkpt><trkpt lat="43.461293593428074" lon="10.592824528927967"><ele>480.0</ele><time>2026-04-19T08:09:02Z</time></trkpt><trkpt lat="43.46136509329504" lon="10.592832257577495"><ele>480.0</ele><time>2026-04-19T08:09:04Z</time></trkpt><trkpt lat="43.461432226924956" lon="10.592760937661232"><ele>480.0</ele><time>2026-04-19T08:09:06Z</time></trkpt><trkpt lat="43.46146494520599" lon="10.592630514555772"><ele>479.0</ele><time>2026-04-19T08:09:08Z</time></trkpt><trkpt lat="43.46150737422392" lon="10.59250017043955"><ele>478.0</ele><time>2026-04-19T08:09:10Z</time></trkpt><trkpt lat="43.461533013569905" lon="10.592390477936133"><ele>477.0</ele><time>2026-04-19T08:09:12Z</time></trkpt><trkpt lat="43.46160897200649" lon="10.592360079146003"><ele>476.0</ele><time>2026-04-19T08:09:15Z</time></trkpt><trkpt lat="43.461673736780234" lon="10.592352469319476"><ele>475.0</ele><time>2026-04-19T08:09:21Z</time></trkpt><trkpt lat="43.461739872387184" lon="10.592468753417823"><ele>474.0</ele><time>2026-04-19T08:09:24Z</time></trkpt><trkpt lat="43.4617914771531" lon="10.592539867609581"><ele>474.0</ele><time>2026-04-19T08:09:27Z</time></trkpt><trkpt lat="43.461835717175475" lon="10.59260702756158"><ele>474.0</ele><time>2026-04-19T08:09:30Z</time></trkpt><trkpt lat="43.46188414969528" lon="10.592680553736168"><ele>474.0</ele><time>2026-04-19T08:09:33Z</time></trkpt><trkpt lat="43.46195995962248" lon="10.592779773652179"><ele>474.0</ele><time>2026-04-19T08:09:36Z</time></trkpt><trkpt lat="43.46202903388168" lon="10.592867478902868"><ele>474.0</ele><time>2026-04-19T08:09:38Z</time></trkpt><trkpt lat="43.46210003224834" lon="10.59295267967491"><ele>474.0</ele><time>2026-04-19T08:09:40Z</time></trkpt><trkpt lat="43.462161782428915" lon="10.593004369272865"><ele>474.5</ele><time>2026-04-19T08:09:43Z</time></trkpt><trkpt lat="43.46222775624398" lon="10.59308385261216"><ele>475.0</ele><time>2026-04-19T08:09:46Z</time></trkpt><trkpt lat="43.46201248826427" lon="10.593642231859185"><ele>474.00000000000006</ele><time>2026-04-19T08:09:48Z</time></trkpt><trkpt lat="43.46202742054068" lon="10.59377302329732"><ele>473.0</ele><time>2026-04-19T08:09:50Z</time></trkpt><trkpt lat="43.46201774136279" lon="10.593872401426987"><ele>472.0</ele><time>2026-04-19T08:09:52Z</time></trkpt><trkpt lat="43.46200614706144" lon="10.593999909494501"><ele>471.0</ele><time>2026-04-19T08:09:55Z</time></trkpt><trkpt lat="43.46202365301306" lon="10.594102561539614"><ele>470.00000000000006</ele><time>2026-04-19T08:09:58Z</time></trkpt><trkpt lat="43.46206586249007" lon="10.59418486445376"><ele>469.0</ele><time>2026-04-19T08:10:00Z</time></trkpt><trkpt lat="43.46208146377802" lon="10.594274472433678"><ele>469.0</ele><time>2026-04-19T08:10:04.001Z</time></trkpt><trkpt lat="43.46210167337072" lon="10.59435695673154"><ele>469.0</ele><time>2026-04-19T08:10:16.001Z</time></trkpt><trkpt lat="43.46208121634488" lon="10.594469953075748"><ele>469.0</ele><time>2026-04-19T08:10:20.001Z</time></trkpt><trkpt lat="43.46206546369203" lon="10.594562347558147"><ele>469.0</ele><time>2026-04-19T08:10:22Z</time></trkpt><trkpt lat="43.46204897289937" lon="10.594647536467864"><ele>469.0</ele><time>2026-04-19T08:10:24Z</time></trkpt><trkpt lat="43.4620359574862" lon="10.594739032608539"><ele>469.0</ele><time>2026-04-19T08:10:27Z</time></trkpt><trkpt lat="43.46203583666783" lon="10.594831619375055"><ele>469.0</ele><time>2026-04-19T08:10:30Z</time></trkpt><trkpt lat="43.46202298384774" lon="10.594938717046876"><ele>468.4</ele><time>2026-04-19T08:10:33Z</time></trkpt><trkpt lat="43.46200955341603" lon="10.595066772348295"><ele>467.79999999999995</ele><time>2026-04-19T08:10:36Z</time></trkpt><trkpt lat="43.46201991483033" lon="10.595203411597781"><ele>467.20000000000005</ele><time>2026-04-19T08:10:38Z</time></trkpt><trkpt lat="43.46203540640515" lon="10.59532182518348"><ele>466.6</ele><time>2026-04-19T08:10:41Z</time></trkpt><trkpt lat="43.462040314900655" lon="10.59547244045889"><ele>466.0</ele><time>2026-04-19T08:10:43Z</time></trkpt><trkpt lat="43.46204020429109" lon="10.595566407764103"><ele>465.0</ele><time>2026-04-19T08:10:44Z</time></trkpt><trkpt lat="43.462053350848976" lon="10.595719920415847"><ele>464.0</ele><time>2026-04-19T08:10:46Z</time></trkpt><trkpt lat="43.462052471074315" lon="10.595812073484009"><ele>463.0</ele><time>2026-04-19T08:10:47Z</time></trkpt><trkpt lat="43.462044105196675" lon="10.595955301050479"><ele>462.0</ele><time>2026-04-19T08:10:49Z</time></trkpt><trkpt lat="43.46205496852679" lon="10.596104127956286"><ele>461.0</ele><time>2026-04-19T08:10:51Z</time></trkpt><trkpt lat="43.46207107939787" lon="10.596206237727149"><ele>461.16666666666663</ele><time>2026-04-19T08:10:52Z</time></trkpt><trkpt lat="43.46209976968883" lon="10.59628779409812"><ele>461.3333333333333</ele><time>2026-04-19T08:10:53Z</time></trkpt><trkpt lat="43.46213626523375" lon="10.596400169069215"><ele>461.5</ele><time>2026-04-19T08:10:55Z</time></trkpt><trkpt lat="43.462162132633146" lon="10.596519545767695"><ele>461.66666666666663</ele><time>2026-04-19T08:10:57Z</time></trkpt><trkpt lat="43.462212336748564" lon="10.596678796956835"><ele>461.8333333333333</ele><time>2026-04-19T08:10:59Z</time></trkpt><trkpt lat="43.462245181611806" lon="10.596766146626994"><ele>462.0</ele><time>2026-04-19T08:11:00Z</time></trkpt><trkpt lat="43.46227782213363" lon="10.596868722918943"><ele>462.0</ele><time>2026-04-19T08:11:01Z</time></trkpt><trkpt lat="43.46228811098871" lon="10.596954417336079"><ele>462.00000000000006</ele><time>2026-04-19T08:11:02Z</time></trkpt><trkpt lat="43.46232535365842" lon="10.597086515201495"><ele>462.00000000000006</ele><time>2026-04-19T08:11:04Z</time></trkpt><trkpt lat="43.4623370153064" lon="10.597179641720567"><ele>462.0</ele><time>2026-04-19T08:11:05Z</time></trkpt><trkpt lat="43.46238595459557" lon="10.597319280402699"><ele>462.0</ele><time>2026-04-19T08:11:07Z</time></trkpt><trkpt lat="43.46243618354478" lon="10.59745326042781"><ele>460.6666666666667</ele><time>2026-04-19T08:11:09Z</time></trkpt><trkpt lat="43.46247336704082" lon="10.597545579136257"><ele>459.33333333333337</ele><time>2026-04-19T08:11:11Z</time></trkpt><trkpt lat="43.46251504454436" lon="10.59762185623324"><ele>458.0</ele><time>2026-04-19T08:11:13Z</time></trkpt><trkpt lat="43.46254698930615" lon="10.59770283938493"><ele>456.6666666666667</ele><time>2026-04-19T08:11:15Z</time></trkpt><trkpt lat="43.46254864364803" lon="10.597808580620402"><ele>455.33333333333337</ele><time>2026-04-19T08:11:17Z</time></trkpt><trkpt lat="43.46246444230403" lon="10.597883961564904"><ele>454.0</ele><time>2026-04-19T08:11:19Z</time></trkpt><trkpt lat="43.462422184713546" lon="10.597978353246145"><ele>453.6666666666667</ele><time>2026-04-19T08:11:20Z</time></trkpt><trkpt lat="43.462394549965936" lon="10.598058148500908"><ele>453.33333333333337</ele><time>2026-04-19T08:11:21Z</time></trkpt><trkpt lat="43.46235745803351" lon="10.598159767055938"><ele>453.0</ele><time>2026-04-19T08:11:23Z</time></trkpt><trkpt lat="43.46238567815852" lon="10.598258706288789"><ele>452.66666666666663</ele><time>2026-04-19T08:11:25Z</time></trkpt><trkpt lat="43.46243820552753" lon="10.598396309135124"><ele>452.3333333333333</ele><time>2026-04-19T08:11:27Z</time></trkpt><trkpt lat="43.46246233129918" lon="10.598502345911731"><ele>452.0</ele><time>2026-04-19T08:11:29Z</time></trkpt><trkpt lat="43.46247128288451" lon="10.598648113836346"><ele>451.6</ele><time>2026-04-19T08:11:31Z</time></trkpt><trkpt lat="43.46243261120351" lon="10.598763787179468"><ele>451.20000000000005</ele><time>2026-04-19T08:11:33Z</time></trkpt><trkpt lat="43.462441943574426" lon="10.598886615726755"><ele>450.8</ele><time>2026-04-19T08:11:36Z</time></trkpt><trkpt lat="43.462495938534815" lon="10.598969752708618"><ele>450.4</ele><time>2026-04-19T08:11:38Z</time></trkpt><trkpt lat="43.462551283812765" lon="10.599127061556253"><ele>450.0</ele><time>2026-04-19T08:11:40Z</time></trkpt><trkpt lat="43.4625495223678" lon="10.59926644981744"><ele>450.0</ele><time>2026-04-19T08:11:42Z</time></trkpt><trkpt lat="43.462527324444224" lon="10.599349618492774"><ele>450.0</ele><time>2026-04-19T08:11:43Z</time></trkpt><trkpt lat="43.46250538484173" lon="10.599461519953772"><ele>450.0</ele><time>2026-04-19T08:11:44Z</time></trkpt><trkpt lat="43.462500452073435" lon="10.59960560629193"><ele>450.0</ele><time>2026-04-19T08:11:46Z</time></trkpt><trkpt lat="43.462499755611155" lon="10.599759714843614"><ele>450.0</ele><time>2026-04-19T08:11:48Z</time></trkpt><trkpt lat="43.4624790417105" lon="10.599848770462158"><ele>450.0</ele><time>2026-04-19T08:11:49Z</time></trkpt><trkpt lat="43.46246369872924" lon="10.599936420880512"><ele>449.1666666666667</ele><time>2026-04-19T08:11:50Z</time></trkpt><trkpt lat="43.46244753086592" lon="10.600027714006586"><ele>448.33333333333337</ele><time>2026-04-19T08:11:51Z</time></trkpt><trkpt lat="43.462409319674805" lon="10.600144901006747"><ele>447.5</ele><time>2026-04-19T08:11:53Z</time></trkpt><trkpt lat="43.462423632225615" lon="10.60023968664615"><ele>446.6666666666667</ele><time>2026-04-19T08:11:55Z</time></trkpt><trkpt lat="43.46247483039226" lon="10.600350835825314"><ele>445.83333333333337</ele><time>2026-04-19T08:11:57Z</time></trkpt><trkpt lat="43.462485632059625" lon="10.600470533817267"><ele>445.0</ele><time>2026-04-19T08:11:59Z</time></trkpt><trkpt lat="43.46243314014917" lon="10.600538961198511"><ele>444.8</ele><time>2026-04-19T08:12:51Z</time></trkpt><trkpt lat="43.46241497970106" lon="10.600676135388388"><ele>444.6</ele><time>2026-04-19T08:14:24.001Z</time></trkpt><trkpt lat="43.46243456900485" lon="10.600802576687663"><ele>444.4</ele><time>2026-04-19T08:14:26.001Z</time></trkpt><trkpt lat="43.4624222488985" lon="10.600938673882109"><ele>444.2</ele><time>2026-04-19T08:14:28.001Z</time></trkpt><trkpt lat="43.46237107369464" lon="10.601096268789481"><ele>444.0</ele><time>2026-04-19T08:14:30.001Z</time></trkpt><trkpt lat="43.46233485847396" lon="10.60119257791938"><ele>442.0</ele><time>2026-04-19T08:14:31.001Z</time></trkpt><trkpt lat="43.46225925272581" lon="10.601346541050248"><ele>440.0</ele><time>2026-04-19T08:14:33Z</time></trkpt><trkpt lat="43.46221438496434" lon="10.601464194601933"><ele>438.0</ele><time>2026-04-19T08:14:35Z</time></trkpt><trkpt lat="43.462224252466584" lon="10.601565506105256"><ele>436.0</ele><time>2026-04-19T08:14:37Z</time></trkpt><trkpt lat="43.46223450951038" lon="10.601667423931962"><ele>434.0</ele><time>2026-04-19T08:14:39Z</time></trkpt><trkpt lat="43.46225394089304" lon="10.601765329744033"><ele>434.0</ele><time>2026-04-19T08:14:54Z</time></trkpt><trkpt lat="43.46226592861905" lon="10.601934750571937"><ele>434.0</ele><time>2026-04-19T08:14:56Z</time></trkpt><trkpt lat="43.46228265326521" lon="10.60210986357869"><ele>434.0</ele><time>2026-04-19T08:14:58Z</time></trkpt><trkpt lat="43.46229423102106" lon="10.602213922764715"><ele>434.0</ele><time>2026-04-19T08:14:59Z</time></trkpt><trkpt lat="43.46231524550703" lon="10.602341178179541"><ele>434.0</ele><time>2026-04-19T08:15:01Z</time></trkpt><trkpt lat="43.46232145810205" lon="10.60247685202729"><ele>432.66666666666663</ele><time>2026-04-19T08:15:03Z</time></trkpt><trkpt lat="43.46234516102279" lon="10.60255723077297"><ele>431.3333333333333</ele><time>2026-04-19T08:15:06Z</time></trkpt><trkpt lat="43.46245817628065" lon="10.602649701161717"><ele>430.0</ele><time>2026-04-19T08:15:08Z</time></trkpt><trkpt lat="43.462532600927226" lon="10.602720435504555"><ele>428.66666666666663</ele><time>2026-04-19T08:15:09Z</time></trkpt><trkpt lat="43.46258487962527" lon="10.602770207902676"><ele>427.3333333333333</ele><time>2026-04-19T08:15:10Z</time></trkpt><trkpt lat="43.46263125587659" lon="10.602835782783503"><ele>426.0</ele><time>2026-04-19T08:15:11Z</time></trkpt><trkpt lat="43.46266336832184" lon="10.603013890611773"><ele>426.0</ele><time>2026-04-19T08:15:13Z</time></trkpt><trkpt lat="43.46265235431046" lon="10.60313054549218"><ele>426.0</ele><time>2026-04-19T08:15:14Z</time></trkpt><trkpt lat="43.46262276562475" lon="10.603223578701755"><ele>426.0</ele><time>2026-04-19T08:15:15Z</time></trkpt><trkpt lat="43.46256452675732" lon="10.603304700128175"><ele>426.0</ele><time>2026-04-19T08:15:16Z</time></trkpt><trkpt lat="43.462477578738095" lon="10.603394231919872"><ele>426.0</ele><time>2026-04-19T08:15:17Z</time></trkpt><trkpt lat="43.46237251856473" lon="10.603492868592948"><ele>426.0</ele><time>2026-04-19T08:15:18Z</time></trkpt><trkpt lat="43.46229082951893" lon="10.60359563302532"><ele>426.0</ele><time>2026-04-19T08:15:19Z</time></trkpt><trkpt lat="43.46224075985102" lon="10.603711529751438"><ele>426.0</ele><time>2026-04-19T08:15:20Z</time></trkpt><trkpt lat="43.46221275323933" lon="10.603854157804484"><ele>426.0</ele><time>2026-04-19T08:15:21Z</time></trkpt><trkpt lat="43.46216964574396" lon="10.604038992468432"><ele>425.66666666666663</ele><time>2026-04-19T08:15:22Z</time></trkpt><trkpt lat="43.46210398974572" lon="10.604231058326489"><ele>425.3333333333333</ele><time>2026-04-19T08:15:23Z</time></trkpt><trkpt lat="43.46203604601118" lon="10.604440947656453"><ele>425.0</ele><time>2026-04-19T08:15:24Z</time></trkpt><trkpt lat="43.461974651382114" lon="10.60466295223513"><ele>425.0</ele><time>2026-04-19T08:15:25Z</time></trkpt><trkpt lat="43.461899133102186" lon="10.604846548988233"><ele>425.0</ele><time>2026-04-19T08:15:26Z</time></trkpt><trkpt lat="43.46181636723101" lon="10.605012079041018"><ele>425.0</ele><time>2026-04-19T08:15:27Z</time></trkpt><trkpt lat="43.46175348593126" lon="10.605140862559129"><ele>425.0</ele><time>2026-04-19T08:15:28Z</time></trkpt><trkpt lat="43.4617127547772" lon="10.605221727923139"><ele>427.49999999999994</ele><time>2026-04-19T08:15:29Z</time></trkpt><trkpt lat="43.46168401853429" lon="10.605335201386398"><ele>430.0</ele><time>2026-04-19T08:15:31Z</time></trkpt><trkpt lat="43.46169718921088" lon="10.605455800603256"><ele>432.5</ele><time>2026-04-19T08:15:33Z</time></trkpt><trkpt lat="43.46167197445091" lon="10.605545303254402"><ele>435.0</ele><time>2026-04-19T08:15:35Z</time></trkpt><trkpt lat="43.46160867551195" lon="10.605680501001705"><ele>437.49999999999994</ele><time>2026-04-19T08:15:37Z</time></trkpt><trkpt lat="43.46156622653901" lon="10.60576552644549"><ele>440.0</ele><time>2026-04-19T08:15:38Z</time></trkpt><trkpt lat="43.46150929472128" lon="10.605854761367956"><ele>439.99999999999994</ele><time>2026-04-19T08:15:39Z</time></trkpt><trkpt lat="43.46145186551049" lon="10.605943360561403"><ele>440.0</ele><time>2026-04-19T08:15:40Z</time></trkpt><trkpt lat="43.46139250650792" lon="10.606031469194301"><ele>440.0</ele><time>2026-04-19T08:15:41Z</time></trkpt><trkpt lat="43.46133453992222" lon="10.606133470765162"><ele>440.0</ele><time>2026-04-19T08:15:42Z</time></trkpt><trkpt lat="43.46128194947137" lon="10.606236646390498"><ele>439.99999999999994</ele><time>2026-04-19T08:15:43Z</time></trkpt><trkpt lat="43.461236026999465" lon="10.606327218382347"><ele>440.0</ele><time>2026-04-19T08:15:44Z</time></trkpt><trkpt lat="43.46118858755792" lon="10.606419239945412"><ele>439.3333333333333</ele><time>2026-04-19T08:15:45Z</time></trkpt><trkpt lat="43.46114893729711" lon="10.606504788337944"><ele>438.66666666666663</ele><time>2026-04-19T08:15:46Z</time></trkpt><trkpt lat="43.46112714945233" lon="10.606596732077723"><ele>438.0</ele><time>2026-04-19T08:15:47Z</time></trkpt><trkpt lat="43.461142653745675" lon="10.606690116740367"><ele>437.33333333333337</ele><time>2026-04-19T08:15:48Z</time></trkpt><trkpt lat="43.46115982961292" lon="10.606801477823996"><ele>436.6666666666667</ele><time>2026-04-19T08:15:49Z</time></trkpt><trkpt lat="43.46117149046466" lon="10.606912651610196"><ele>436.0</ele><time>2026-04-19T08:15:50Z</time></trkpt><trkpt lat="43.46117105372396" lon="10.607033487743424"><ele>436.0</ele><time>2026-04-19T08:15:51Z</time></trkpt><trkpt lat="43.46117644067243" lon="10.607150498130252"><ele>436.0</ele><time>2026-04-19T08:15:52Z</time></trkpt><trkpt lat="43.461155483519484" lon="10.60726123470793"><ele>436.0</ele><time>2026-04-19T08:15:53Z</time></trkpt><trkpt lat="43.461122940881076" lon="10.607495033160687"><ele>436.0</ele><time>2026-04-19T08:15:55Z</time></trkpt><trkpt lat="43.461115446607195" lon="10.607640234121154"><ele>436.0</ele><time>2026-04-19T08:15:56Z</time></trkpt><trkpt lat="43.46110176141779" lon="10.607782324612716"><ele>437.50000000000006</ele><time>2026-04-19T08:15:57Z</time></trkpt><trkpt lat="43.46108849060961" lon="10.607919109288689"><ele>439.0</ele><time>2026-04-19T08:15:58Z</time></trkpt><trkpt lat="43.46106591422036" lon="10.60802609375234"><ele>440.5</ele><time>2026-04-19T08:15:59Z</time></trkpt><trkpt lat="43.46104475978316" lon="10.608121472518068"><ele>442.0</ele><time>2026-04-19T08:16:00Z</time></trkpt><trkpt lat="43.46102642101565" lon="10.608210864800025"><ele>443.50000000000006</ele><time>2026-04-19T08:16:01Z</time></trkpt><trkpt lat="43.4609855617638" lon="10.608292225937317"><ele>445.0</ele><time>2026-04-19T08:16:02Z</time></trkpt><trkpt lat="43.460929227701826" lon="10.608370282985579"><ele>445.00000000000006</ele><time>2026-04-19T08:16:03Z</time></trkpt><trkpt lat="43.460853220227946" lon="10.608434732198365"><ele>445.0</ele><time>2026-04-19T08:16:04Z</time></trkpt><trkpt lat="43.460770819858006" lon="10.608470228241277"><ele>445.0</ele><time>2026-04-19T08:16:05Z</time></trkpt><trkpt lat="43.46070572316573" lon="10.608467803457238"><ele>445.0</ele><time>2026-04-19T08:16:06Z</time></trkpt><trkpt lat="43.460585098557814" lon="10.608414019560827"><ele>445.00000000000006</ele><time>2026-04-19T08:16:08Z</time></trkpt><trkpt lat="43.460530086399764" lon="10.608336536124582"><ele>445.0</ele><time>2026-04-19T08:16:09Z</time></trkpt><trkpt lat="43.46047522680002" lon="10.608237688768911"><ele>442.83333333333337</ele><time>2026-04-19T08:16:10Z</time></trkpt><trkpt lat="43.46041428873709" lon="10.608187016207147"><ele>440.6666666666667</ele><time>2026-04-19T08:16:11Z</time></trkpt><trkpt lat="43.46028465333194" lon="10.608115361320799"><ele>438.5</ele><time>2026-04-19T08:16:13Z</time></trkpt><trkpt lat="43.46021109129275" lon="10.608114940483633"><ele>436.33333333333337</ele><time>2026-04-19T08:16:14Z</time></trkpt><trkpt lat="43.46015527471736" lon="10.608161207256508"><ele>434.1666666666667</ele><time>2026-04-19T08:16:15Z</time></trkpt><trkpt lat="43.46011081524347" lon="10.608233844479871"><ele>432.0</ele><time>2026-04-19T08:16:16Z</time></trkpt><trkpt lat="43.46007474254377" lon="10.608339332027533"><ele>432.0</ele><time>2026-04-19T08:16:17Z</time></trkpt><trkpt lat="43.460038548385796" lon="10.608430308609694"><ele>432.0</ele><time>2026-04-19T08:16:18Z</time></trkpt><trkpt lat="43.46000549454928" lon="10.608545584205167"><ele>432.0</ele><time>2026-04-19T08:16:19Z</time></trkpt><trkpt lat="43.45997687439653" lon="10.608661417739631"><ele>432.0</ele><time>2026-04-19T08:16:20Z</time></trkpt><trkpt lat="43.45997787302425" lon="10.608769670610767"><ele>432.0</ele><time>2026-04-19T08:16:21Z</time></trkpt><trkpt lat="43.45996543837035" lon="10.608865870151623"><ele>432.0</ele><time>2026-04-19T08:16:22Z</time></trkpt><trkpt lat="43.45995526620397" lon="10.608965339201326"><ele>434.40000000000003</ele><time>2026-04-19T08:16:23Z</time></trkpt><trkpt lat="43.45991894820503" lon="10.609068078621075"><ele>436.80000000000007</ele><time>2026-04-19T08:16:24Z</time></trkpt><trkpt lat="43.459871510403524" lon="10.609189448010104"><ele>439.2</ele><time>2026-04-19T08:16:25Z</time></trkpt><trkpt lat="43.45980886792056" lon="10.609306599638886"><ele>441.6</ele><time>2026-04-19T08:16:26Z</time></trkpt><trkpt lat="43.459753071740856" lon="10.609415129887175"><ele>444.0</ele><time>2026-04-19T08:16:27Z</time></trkpt><trkpt lat="43.459707658185984" lon="10.609518080249924"><ele>442.5</ele><time>2026-04-19T08:16:28Z</time></trkpt><trkpt lat="43.459668096264075" lon="10.609616892629207"><ele>441.0</ele><time>2026-04-19T08:16:29Z</time></trkpt><trkpt lat="43.45963309679942" lon="10.609719977367254"><ele>439.5</ele><time>2026-04-19T08:16:30Z</time></trkpt><trkpt lat="43.45958553530931" lon="10.609821274321213"><ele>438.0</ele><time>2026-04-19T08:16:31Z</time></trkpt><trkpt lat="43.45954348192845" lon="10.609919411778336"><ele>436.5</ele><time>2026-04-19T08:16:32Z</time></trkpt><trkpt lat="43.459513288938645" lon="10.610024527525875"><ele>435.0</ele><time>2026-04-19T08:16:33Z</time></trkpt><trkpt lat="43.45946629362602" lon="10.610112614799736"><ele>435.0</ele><time>2026-04-19T08:16:34Z</time></trkpt><trkpt lat="43.45940138809053" lon="10.610197267700377"><ele>435.0</ele><time>2026-04-19T08:16:35Z</time></trkpt><trkpt lat="43.459344712844796" lon="10.610295290567416"><ele>435.0</ele><time>2026-04-19T08:16:36Z</time></trkpt><trkpt lat="43.45928628612401" lon="10.610421507782226"><ele>435.0</ele><time>2026-04-19T08:16:37Z</time></trkpt><trkpt lat="43.459234013790784" lon="10.610544628674967"><ele>435.0</ele><time>2026-04-19T08:16:38Z</time></trkpt><trkpt lat="43.459198047021985" lon="10.61063575820506"><ele>436.6666666666667</ele><time>2026-04-19T08:16:38.999Z</time></trkpt><trkpt lat="43.45915493144313" lon="10.61072190265726"><ele>438.33333333333337</ele><time>2026-04-19T08:16:39.999Z</time></trkpt><trkpt lat="43.45909437375408" lon="10.6107942897294"><ele>440.0</ele><time>2026-04-19T08:16:40.999Z</time></trkpt><trkpt lat="43.459036370515875" lon="10.610862048785338"><ele>441.6666666666667</ele><time>2026-04-19T08:16:41.999Z</time></trkpt><trkpt lat="43.45896258941931" lon="10.6109074398153"><ele>443.33333333333337</ele><time>2026-04-19T08:16:42.999Z</time></trkpt><trkpt lat="43.45889643902346" lon="10.610942218281659"><ele>445.0</ele><time>2026-04-19T08:16:44Z</time></trkpt><trkpt lat="43.45883337451248" lon="10.611002660995164"><ele>443.6666666666667</ele><time>2026-04-19T08:16:45Z</time></trkpt><trkpt lat="43.45875658484655" lon="10.611099347757687"><ele>442.33333333333337</ele><time>2026-04-19T08:16:46Z</time></trkpt><trkpt lat="43.45868342274475" lon="10.611194099111472"><ele>441.0</ele><time>2026-04-19T08:16:47Z</time></trkpt><trkpt lat="43.45862937475797" lon="10.611259453883733"><ele>439.66666666666663</ele><time>2026-04-19T08:16:48Z</time></trkpt><trkpt lat="43.458584612852796" lon="10.611322096800684"><ele>438.3333333333333</ele><time>2026-04-19T08:16:49Z</time></trkpt><trkpt lat="43.4585552843411" lon="10.611413904421664"><ele>437.0</ele><time>2026-04-19T08:16:50Z</time></trkpt><trkpt lat="43.458517826174436" lon="10.611507257264131"><ele>436.99999999999994</ele><time>2026-04-19T08:16:51Z</time></trkpt><trkpt lat="43.45847958812185" lon="10.61158380847261"><ele>437.0</ele><time>2026-04-19T08:16:52Z</time></trkpt><trkpt lat="43.45841681672438" lon="10.611634548859426"><ele>437.0</ele><time>2026-04-19T08:16:53Z</time></trkpt><trkpt lat="43.458340234798236" lon="10.611667225440172"><ele>437.0</ele><time>2026-04-19T08:16:54Z</time></trkpt><trkpt lat="43.45826961803585" lon="10.611686305789583"><ele>436.99999999999994</ele><time>2026-04-19T08:16:55Z</time></trkpt><trkpt lat="43.45818331618718" lon="10.611777407281705"><ele>437.0</ele><time>2026-04-19T08:16:57Z</time></trkpt><trkpt lat="43.45816162300809" lon="10.61187215172184"><ele>436.99999999999994</ele><time>2026-04-19T08:16:58Z</time></trkpt><trkpt lat="43.458152434317725" lon="10.611985453258228"><ele>437.0</ele><time>2026-04-19T08:16:59Z</time></trkpt><trkpt lat="43.45816815631004" lon="10.612096480641965"><ele>437.0</ele><time>2026-04-19T08:17:00Z</time></trkpt><trkpt lat="43.45815499382789" lon="10.612200277281616"><ele>437.0</ele><time>2026-04-19T08:17:01Z</time></trkpt><trkpt lat="43.45814994574617" lon="10.612335094103194"><ele>436.99999999999994</ele><time>2026-04-19T08:17:02Z</time></trkpt><trkpt lat="43.45812184693199" lon="10.612456146625528"><ele>437.0</ele><time>2026-04-19T08:17:03Z</time></trkpt><trkpt lat="43.458094768381564" lon="10.612540563944126"><ele>435.66666666666663</ele><time>2026-04-19T08:17:04Z</time></trkpt><trkpt lat="43.45808951822539" lon="10.612640842206186"><ele>434.3333333333333</ele><time>2026-04-19T08:17:05Z</time></trkpt><trkpt lat="43.45806958575449" lon="10.612748769255258"><ele>433.0</ele><time>2026-04-19T08:17:06Z</time></trkpt><trkpt lat="43.45803793630504" lon="10.612856132122229"><ele>431.66666666666663</ele><time>2026-04-19T08:17:07Z</time></trkpt><trkpt lat="43.45799273506159" lon="10.61293925739914"><ele>430.3333333333333</ele><time>2026-04-19T08:17:08Z</time></trkpt><trkpt lat="43.4579408140278" lon="10.613006251038575"><ele>429.0</ele><time>2026-04-19T08:17:09Z</time></trkpt><trkpt lat="43.45787462675029" lon="10.613043572493787"><ele>429.0</ele><time>2026-04-19T08:17:10Z</time></trkpt><trkpt lat="43.45780318082288" lon="10.613066246507803"><ele>429.0</ele><time>2026-04-19T08:17:11Z</time></trkpt><trkpt lat="43.4577400885979" lon="10.613091982762263"><ele>429.0</ele><time>2026-04-19T08:17:12Z</time></trkpt><trkpt lat="43.4576590337583" lon="10.613187799702764"><ele>429.0</ele><time>2026-04-19T08:17:14Z</time></trkpt><trkpt lat="43.457599985732564" lon="10.613294085381355"><ele>429.0</ele><time>2026-04-19T08:17:16Z</time></trkpt><trkpt lat="43.45756066547949" lon="10.61337453340985"><ele>429.0</ele><time>2026-04-19T08:17:17Z</time></trkpt><trkpt lat="43.45751832158268" lon="10.613477693328125"><ele>429.0</ele><time>2026-04-19T08:17:18Z</time></trkpt><trkpt lat="43.457490728236394" lon="10.613564405086253"><ele>429.0</ele><time>2026-04-19T08:17:19Z</time></trkpt><trkpt lat="43.45746246938015" lon="10.613652923032577"><ele>429.0</ele><time>2026-04-19T08:17:20Z</time></trkpt><trkpt lat="43.457440112377434" lon="10.613742399418838"><ele>429.0</ele><time>2026-04-19T08:17:21Z</time></trkpt><trkpt lat="43.457431907591896" lon="10.613853018868946"><ele>429.0</ele><time>2026-04-19T08:17:22Z</time></trkpt><trkpt lat="43.45741012185986" lon="10.613974829524452"><ele>429.0</ele><time>2026-04-19T08:17:23Z</time></trkpt><trkpt lat="43.45738906917003" lon="10.614080330381748"><ele>430.1666666666667</ele><time>2026-04-19T08:17:24Z</time></trkpt><trkpt lat="43.45738305502655" lon="10.614195473762466"><ele>431.33333333333337</ele><time>2026-04-19T08:17:25Z</time></trkpt><trkpt lat="43.45740248753397" lon="10.61432970641556"><ele>432.5</ele><time>2026-04-19T08:17:26Z</time></trkpt><trkpt lat="43.45740345828694" lon="10.614461885940527"><ele>433.6666666666667</ele><time>2026-04-19T08:17:27Z</time></trkpt><trkpt lat="43.457408267183915" lon="10.614573156533838"><ele>434.83333333333337</ele><time>2026-04-19T08:17:28Z</time></trkpt><trkpt lat="43.457427858436475" lon="10.614666097846646"><ele>436.0</ele><time>2026-04-19T08:17:29Z</time></trkpt><trkpt lat="43.45744710686448" lon="10.614763143712965"><ele>436.00000000000006</ele><time>2026-04-19T08:17:30Z</time></trkpt><trkpt lat="43.45747370610055" lon="10.614878810205274"><ele>436.0</ele><time>2026-04-19T08:17:31Z</time></trkpt><trkpt lat="43.457507341828396" lon="10.61498443954058"><ele>436.0</ele><time>2026-04-19T08:17:32Z</time></trkpt><trkpt lat="43.457543078452794" lon="10.61507276866589"><ele>436.0</ele><time>2026-04-19T08:17:33Z</time></trkpt><trkpt lat="43.45753022026394" lon="10.615185233201599"><ele>436.00000000000006</ele><time>2026-04-19T08:17:34Z</time></trkpt><trkpt lat="43.457512732155806" lon="10.61528580504956"><ele>436.0</ele><time>2026-04-19T08:17:35Z</time></trkpt><trkpt lat="43.45751137585743" lon="10.615410675033434"><ele>435.1666666666667</ele><time>2026-04-19T08:17:36Z</time></trkpt><trkpt lat="43.457526198776996" lon="10.61552875609424"><ele>434.33333333333337</ele><time>2026-04-19T08:17:37Z</time></trkpt><trkpt lat="43.45758579333123" lon="10.615617982736428"><ele>433.5</ele><time>2026-04-19T08:17:38Z</time></trkpt><trkpt lat="43.4576616106232" lon="10.615691255180286"><ele>432.66666666666663</ele><time>2026-04-19T08:17:39Z</time></trkpt><trkpt lat="43.45772183330571" lon="10.61578321733017"><ele>431.8333333333333</ele><time>2026-04-19T08:17:40Z</time></trkpt><trkpt lat="43.45776748715596" lon="10.615881830321348"><ele>431.0</ele><time>2026-04-19T08:17:41Z</time></trkpt><trkpt lat="43.457811365138944" lon="10.616011148318062"><ele>430.99999999999994</ele><time>2026-04-19T08:17:42Z</time></trkpt><trkpt lat="43.457855550526794" lon="10.61613091446575"><ele>431.0</ele><time>2026-04-19T08:17:43Z</time></trkpt><trkpt lat="43.45789714088947" lon="10.616245310410495"><ele>431.0</ele><time>2026-04-19T08:17:44Z</time></trkpt><trkpt lat="43.45792580543696" lon="10.61633716612446"><ele>431.0</ele><time>2026-04-19T08:17:45Z</time></trkpt><trkpt lat="43.45794099478302" lon="10.616448350372345"><ele>430.99999999999994</ele><time>2026-04-19T08:17:46Z</time></trkpt><trkpt lat="43.457932040504666" lon="10.616564574590448"><ele>431.0</ele><time>2026-04-19T08:17:47Z</time></trkpt><trkpt lat="43.45790955994262" lon="10.616676298238595"><ele>430.20000000000005</ele><time>2026-04-19T08:17:48Z</time></trkpt><trkpt lat="43.45789092575315" lon="10.616781680044703"><ele>429.40000000000003</ele><time>2026-04-19T08:17:49Z</time></trkpt><trkpt lat="43.45786817433061" lon="10.61690856844703"><ele>428.6</ele><time>2026-04-19T08:17:50Z</time></trkpt><trkpt lat="43.457874263773576" lon="10.617042754302807"><ele>427.8</ele><time>2026-04-19T08:17:51Z</time></trkpt><trkpt lat="43.45787257463493" lon="10.617182674063123"><ele>427.0</ele><time>2026-04-19T08:17:52Z</time></trkpt><trkpt lat="43.45786956920531" lon="10.617307704203546"><ele>427.00000000000006</ele><time>2026-04-19T08:17:53Z</time></trkpt><trkpt lat="43.45787122531116" lon="10.61742235205998"><ele>427.0</ele><time>2026-04-19T08:17:54Z</time></trkpt><trkpt lat="43.45786797444247" lon="10.617526129531063"><ele>427.0</ele><time>2026-04-19T08:17:55Z</time></trkpt><trkpt lat="43.45786895437254" lon="10.61763985735513"><ele>427.0</ele><time>2026-04-19T08:17:56Z</time></trkpt><trkpt lat="43.457878474623776" lon="10.617774505324645"><ele>427.00000000000006</ele><time>2026-04-19T08:17:57Z</time></trkpt><trkpt lat="43.45790645541551" lon="10.617911031250847"><ele>427.0</ele><time>2026-04-19T08:17:58Z</time></trkpt><trkpt lat="43.45795513745924" lon="10.61803779983702"><ele>432.20000000000005</ele><time>2026-04-19T08:17:59Z</time></trkpt><trkpt lat="43.45799300619568" lon="10.618172762807898"><ele>437.40000000000003</ele><time>2026-04-19T08:18:00Z</time></trkpt><trkpt lat="43.45803828189508" lon="10.618277217138331"><ele>442.59999999999997</ele><time>2026-04-19T08:18:01Z</time></trkpt><trkpt lat="43.458094232833474" lon="10.618376166456686"><ele>447.79999999999995</ele><time>2026-04-19T08:18:02Z</time></trkpt><trkpt lat="43.45812660504168" lon="10.618483037738455"><ele>453.0</ele><time>2026-04-19T08:18:03Z</time></trkpt><trkpt lat="43.45816705913862" lon="10.61859692919848"><ele>451.8333333333333</ele><time>2026-04-19T08:18:04Z</time></trkpt><trkpt lat="43.45821685842496" lon="10.618697142286754"><ele>450.66666666666663</ele><time>2026-04-19T08:18:05Z</time></trkpt><trkpt lat="43.45826421249948" lon="10.618765194349134"><ele>449.5</ele><time>2026-04-19T08:18:06Z</time></trkpt><trkpt lat="43.45829762508822" lon="10.61884953994615"><ele>448.3333333333333</ele><time>2026-04-19T08:18:07Z</time></trkpt><trkpt lat="43.45830803101335" lon="10.618958919430613"><ele>447.16666666666663</ele><time>2026-04-19T08:18:08Z</time></trkpt><trkpt lat="43.458300202320224" lon="10.61905703037542"><ele>446.0</ele><time>2026-04-19T08:18:09Z</time></trkpt><trkpt lat="43.458281931001785" lon="10.619202948691473"><ele>445.99999999999994</ele><time>2026-04-19T08:18:10Z</time></trkpt><trkpt lat="43.45829395221868" lon="10.619335335149097"><ele>446.0</ele><time>2026-04-19T08:18:11Z</time></trkpt><trkpt lat="43.45827940293189" lon="10.619454666352382"><ele>446.0</ele><time>2026-04-19T08:18:12Z</time></trkpt><trkpt lat="43.45827477304778" lon="10.619559172509614"><ele>446.0</ele><time>2026-04-19T08:18:13Z</time></trkpt><trkpt lat="43.45826526059115" lon="10.619649513299064"><ele>445.99999999999994</ele><time>2026-04-19T08:18:14Z</time></trkpt><trkpt lat="43.45825385560978" lon="10.619764493194143"><ele>446.0</ele><time>2026-04-19T08:18:15Z</time></trkpt><trkpt lat="43.4582408716156" lon="10.619882432774924"><ele>446.0</ele><time>2026-04-19T08:18:16Z</time></trkpt><trkpt lat="43.458201628089974" lon="10.620020642329264"><ele>446.0</ele><time>2026-04-19T08:18:17Z</time></trkpt><trkpt lat="43.45817828147751" lon="10.620147833689552"><ele>446.0</ele><time>2026-04-19T08:18:18Z</time></trkpt><trkpt lat="43.45813477299374" lon="10.620250926070726"><ele>446.0</ele><time>2026-04-19T08:18:19Z</time></trkpt><trkpt lat="43.45813510384707" lon="10.620368024609224"><ele>446.0</ele><time>2026-04-19T08:18:20Z</time></trkpt><trkpt lat="43.45813251734227" lon="10.620486465669114"><ele>446.0</ele><time>2026-04-19T08:18:21Z</time></trkpt><trkpt lat="43.4581577510858" lon="10.620633051192188"><ele>446.0</ele><time>2026-04-19T08:18:22Z</time></trkpt><trkpt lat="43.45819180314685" lon="10.620785995326111"><ele>446.0</ele><time>2026-04-19T08:18:23Z</time></trkpt><trkpt lat="43.458212506016785" lon="10.620917264285602"><ele>446.0</ele><time>2026-04-19T08:18:24Z</time></trkpt><trkpt lat="43.45822447525624" lon="10.621033415740529"><ele>446.0</ele><time>2026-04-19T08:18:25Z</time></trkpt><trkpt lat="43.45825199165257" lon="10.621158035162503"><ele>443.8333333333333</ele><time>2026-04-19T08:18:26Z</time></trkpt><trkpt lat="43.45829924905148" lon="10.621271745607572"><ele>441.66666666666663</ele><time>2026-04-19T08:18:27Z</time></trkpt><trkpt lat="43.45835579662403" lon="10.621373381624162"><ele>439.5</ele><time>2026-04-19T08:18:28Z</time></trkpt><trkpt lat="43.458428306879355" lon="10.621460616796005"><ele>437.33333333333337</ele><time>2026-04-19T08:18:29Z</time></trkpt><trkpt lat="43.45848536172312" lon="10.621547476221616"><ele>435.1666666666667</ele><time>2026-04-19T08:18:30Z</time></trkpt><trkpt lat="43.458537157974" lon="10.62162316134453"><ele>433.0</ele><time>2026-04-19T08:18:31Z</time></trkpt><trkpt lat="43.45858296570069" lon="10.621691203118482"><ele>433.00000000000006</ele><time>2026-04-19T08:18:32Z</time></trkpt><trkpt lat="43.45863449883846" lon="10.621762954724248"><ele>433.0</ele><time>2026-04-19T08:18:33Z</time></trkpt><trkpt lat="43.45867413928001" lon="10.621838573418504"><ele>433.0</ele><time>2026-04-19T08:18:34Z</time></trkpt><trkpt lat="43.458719881679514" lon="10.621911353756316"><ele>433.0</ele><time>2026-04-19T08:18:35Z</time></trkpt><trkpt lat="43.45878936991898" lon="10.621989197757891"><ele>433.00000000000006</ele><time>2026-04-19T08:18:36Z</time></trkpt><trkpt lat="43.45883849431082" lon="10.622074609604454"><ele>433.0</ele><time>2026-04-19T08:18:37Z</time></trkpt><trkpt lat="43.45887253375225" lon="10.622161436730783"><ele>435.0</ele><time>2026-04-19T08:18:38Z</time></trkpt><trkpt lat="43.45895952548515" lon="10.622271995479197"><ele>436.99999999999994</ele><time>2026-04-19T08:18:40Z</time></trkpt><trkpt lat="43.45901851348231" lon="10.6223149143659"><ele>438.99999999999994</ele><time>2026-04-19T08:18:41Z</time></trkpt><trkpt lat="43.45914423415352" lon="10.622316356877223"><ele>441.0</ele><time>2026-04-19T08:18:43Z</time></trkpt><trkpt lat="43.459238510229454" lon="10.622313983396749"><ele>443.0</ele><time>2026-04-19T08:18:44Z</time></trkpt><trkpt lat="43.45932290210163" lon="10.622406863236364"><ele>442.99999999999994</ele><time>2026-04-19T08:18:45Z</time></trkpt><trkpt lat="43.459392246410495" lon="10.622409550740455"><ele>443.0</ele><time>2026-04-19T08:18:46Z</time></trkpt><trkpt lat="43.459505531627784" lon="10.622406047800638"><ele>443.0</ele><time>2026-04-19T08:18:48Z</time></trkpt><trkpt lat="43.45957114082934" lon="10.622390327938936"><ele>443.0</ele><time>2026-04-19T08:18:49Z</time></trkpt><trkpt lat="43.45963489789085" lon="10.622346734605726"><ele>442.99999999999994</ele><time>2026-04-19T08:18:50Z</time></trkpt><trkpt lat="43.45969297060661" lon="10.622276676557966"><ele>443.0</ele><time>2026-04-19T08:18:51Z</time></trkpt><trkpt lat="43.459741222764514" lon="10.62218786908565"><ele>441.16666666666663</ele><time>2026-04-19T08:18:52Z</time></trkpt><trkpt lat="43.459781462205115" lon="10.622086825949467"><ele>439.3333333333333</ele><time>2026-04-19T08:18:53Z</time></trkpt><trkpt lat="43.45981892142391" lon="10.621997369601957"><ele>437.5</ele><time>2026-04-19T08:18:54Z</time></trkpt><trkpt lat="43.45985539809727" lon="10.621910068826919"><ele>435.66666666666663</ele><time>2026-04-19T08:18:55Z</time></trkpt><trkpt lat="43.45989822557024" lon="10.621806267880705"><ele>433.8333333333333</ele><time>2026-04-19T08:18:56Z</time></trkpt><trkpt lat="43.45994317028717" lon="10.62168722580801"><ele>432.0</ele><time>2026-04-19T08:18:57Z</time></trkpt><trkpt lat="43.459986285657365" lon="10.62156967920634"><ele>437.0</ele><time>2026-04-19T08:18:58Z</time></trkpt><trkpt lat="43.46002505268406" lon="10.62146398784711"><ele>442.00000000000006</ele><time>2026-04-19T08:18:59Z</time></trkpt><trkpt lat="43.460067335372074" lon="10.621358198075086"><ele>447.00000000000006</ele><time>2026-04-19T08:19:00Z</time></trkpt><trkpt lat="43.46010981858018" lon="10.621251603952686"><ele>452.0</ele><time>2026-04-19T08:19:01Z</time></trkpt><trkpt lat="43.46015376674798" lon="10.621132530204806"><ele>457.0</ele><time>2026-04-19T08:19:02Z</time></trkpt><trkpt lat="43.46019255589491" lon="10.621011949998078"><ele>459.83333333333337</ele><time>2026-04-19T08:19:03Z</time></trkpt><trkpt lat="43.460224007454045" lon="10.620877588252954"><ele>462.6666666666667</ele><time>2026-04-19T08:19:04Z</time></trkpt><trkpt lat="43.460243772056295" lon="10.620768895219523"><ele>465.5</ele><time>2026-04-19T08:19:05Z</time></trkpt><trkpt lat="43.46028240866773" lon="10.620678254048705"><ele>468.33333333333337</ele><time>2026-04-19T08:19:06Z</time></trkpt><trkpt lat="43.46031657669426" lon="10.620562062146954"><ele>471.1666666666667</ele><time>2026-04-19T08:19:07Z</time></trkpt><trkpt lat="43.4603415747304" lon="10.62043521811478"><ele>474.0</ele><time>2026-04-19T08:19:08Z</time></trkpt><trkpt lat="43.46037347457402" lon="10.620320076463194"><ele>476.5</ele><time>2026-04-19T08:19:09Z</time></trkpt><trkpt lat="43.46039960632002" lon="10.620225812581792"><ele>479.0</ele><time>2026-04-19T08:19:10Z</time></trkpt><trkpt lat="43.46042412578958" lon="10.62013101424178"><ele>481.5</ele><time>2026-04-19T08:19:11Z</time></trkpt><trkpt lat="43.46045134405956" lon="10.62002878757845"><ele>484.0</ele><time>2026-04-19T08:19:12Z</time></trkpt><trkpt lat="43.46048251733754" lon="10.619923857878142"><ele>486.5</ele><time>2026-04-19T08:19:13Z</time></trkpt><trkpt lat="43.4604907697257" lon="10.619807231604705"><ele>489.0</ele><time>2026-04-19T08:19:14Z</time></trkpt><trkpt lat="43.46052463251448" lon="10.619699565178308"><ele>485.1666666666667</ele><time>2026-04-19T08:19:15Z</time></trkpt><trkpt lat="43.46052079628971" lon="10.619597067761548"><ele>481.33333333333337</ele><time>2026-04-19T08:19:16Z</time></trkpt><trkpt lat="43.460532258935935" lon="10.619505575981757"><ele>477.5</ele><time>2026-04-19T08:19:17Z</time></trkpt><trkpt lat="43.46057381616565" lon="10.619403661442014"><ele>473.6666666666667</ele><time>2026-04-19T08:19:18Z</time></trkpt><trkpt lat="43.460616066205816" lon="10.619319245174015"><ele>469.83333333333337</ele><time>2026-04-19T08:19:19Z</time></trkpt><trkpt lat="43.46068318561363" lon="10.61924163005159"><ele>466.0</ele><time>2026-04-19T08:19:20Z</time></trkpt><trkpt lat="43.46075359745932" lon="10.619152111586422"><ele>466.0</ele><time>2026-04-19T08:19:21Z</time></trkpt><trkpt lat="43.460818648317066" lon="10.619063213442287"><ele>466.0</ele><time>2026-04-19T08:19:22Z</time></trkpt><trkpt lat="43.460879243063076" lon="10.618983016595596"><ele>466.0</ele><time>2026-04-19T08:19:23Z</time></trkpt><trkpt lat="43.46093910279598" lon="10.618900555990678"><ele>466.0</ele><time>2026-04-19T08:19:24Z</time></trkpt><trkpt lat="43.460999519278275" lon="10.618799387981802"><ele>466.0</ele><time>2026-04-19T08:19:25Z</time></trkpt><trkpt lat="43.46105214478953" lon="10.61867883993389"><ele>468.6666666666667</ele><time>2026-04-19T08:19:26Z</time></trkpt><trkpt lat="43.46109049669963" lon="10.61854720704846"><ele>471.33333333333337</ele><time>2026-04-19T08:19:27Z</time></trkpt><trkpt lat="43.46111508923999" lon="10.618433636107328"><ele>474.0</ele><time>2026-04-19T08:19:28Z</time></trkpt><trkpt lat="43.4611287212933" lon="10.618320430254727"><ele>476.66666666666663</ele><time>2026-04-19T08:19:29Z</time></trkpt><trkpt lat="43.46113512653389" lon="10.618195566200475"><ele>479.3333333333333</ele><time>2026-04-19T08:19:30Z</time></trkpt><trkpt lat="43.461140769012225" lon="10.618086539068532"><ele>482.0</ele><time>2026-04-19T08:19:31Z</time></trkpt><trkpt lat="43.46114524182036" lon="10.617995268017678"><ele>481.99999999999994</ele><time>2026-04-19T08:19:32Z</time></trkpt><trkpt lat="43.461141266350396" lon="10.617888863093857"><ele>482.0</ele><time>2026-04-19T08:19:33Z</time></trkpt><trkpt lat="43.4611328526219" lon="10.61779285224261"><ele>482.0</ele><time>2026-04-19T08:19:34Z</time></trkpt><trkpt lat="43.4611506611286" lon="10.617664847702768"><ele>482.0</ele><time>2026-04-19T08:19:36Z</time></trkpt><trkpt lat="43.461213261123085" lon="10.617549434373592"><ele>481.99999999999994</ele><time>2026-04-19T08:19:38Z</time></trkpt><trkpt lat="43.46127742314274" lon="10.617458644253109"><ele>482.0</ele><time>2026-04-19T08:19:39Z</time></trkpt><trkpt lat="43.46135411648361" lon="10.617373188252664"><ele>479.99999999999994</ele><time>2026-04-19T08:19:40Z</time></trkpt><trkpt lat="43.461429756342206" lon="10.617310336635443"><ele>478.0</ele><time>2026-04-19T08:19:41Z</time></trkpt><trkpt lat="43.46148960639984" lon="10.617255587824108"><ele>476.0</ele><time>2026-04-19T08:19:42Z</time></trkpt><trkpt lat="43.461563602465915" lon="10.617164832629433"><ele>474.0</ele><time>2026-04-19T08:19:43Z</time></trkpt><trkpt lat="43.46160977130954" lon="10.617075385402925"><ele>471.99999999999994</ele><time>2026-04-19T08:19:44Z</time></trkpt><trkpt lat="43.461644663852745" lon="10.616971382353013"><ele>470.0</ele><time>2026-04-19T08:19:45Z</time></trkpt><trkpt lat="43.4616760654968" lon="10.61685533205614"><ele>470.0</ele><time>2026-04-19T08:19:46Z</time></trkpt><trkpt lat="43.46171542328012" lon="10.616729632015701"><ele>470.0</ele><time>2026-04-19T08:19:47Z</time></trkpt><trkpt lat="43.461758038178765" lon="10.616631988390674"><ele>470.0</ele><time>2026-04-19T08:19:48Z</time></trkpt><trkpt lat="43.461808967259216" lon="10.616524062825968"><ele>470.0</ele><time>2026-04-19T08:19:49Z</time></trkpt><trkpt lat="43.46186398445936" lon="10.616419804221575"><ele>470.0</ele><time>2026-04-19T08:19:50Z</time></trkpt><trkpt lat="43.46191558924952" lon="10.616331764391866"><ele>469.99999999999994</ele><time>2026-04-19T08:19:51Z</time></trkpt><trkpt lat="43.46196311159305" lon="10.616266924142801"><ele>470.0</ele><time>2026-04-19T08:19:52Z</time></trkpt><trkpt lat="43.462054989880095" lon="10.616173482329815"><ele>470.0</ele><time>2026-04-19T08:19:54Z</time></trkpt><trkpt lat="43.46212782732611" lon="10.616139805463986"><ele>470.0</ele><time>2026-04-19T08:19:56Z</time></trkpt><trkpt lat="43.462207112018795" lon="10.616148861036931"><ele>469.99999999999994</ele><time>2026-04-19T08:19:58Z</time></trkpt><trkpt lat="43.46228468502873" lon="10.616252459015175"><ele>470.0</ele><time>2026-04-19T08:20:00Z</time></trkpt><trkpt lat="43.46235370023587" lon="10.616367216962844"><ele>468.6</ele><time>2026-04-19T08:20:01Z</time></trkpt><trkpt lat="43.46242073134245" lon="10.616487142826399"><ele>467.2</ele><time>2026-04-19T08:20:02Z</time></trkpt><trkpt lat="43.46248426832106" lon="10.61661366971571"><ele>465.79999999999995</ele><time>2026-04-19T08:20:03Z</time></trkpt><trkpt lat="43.462544292934226" lon="10.616718811100894"><ele>464.4</ele><time>2026-04-19T08:20:04Z</time></trkpt><trkpt lat="43.46260570311031" lon="10.616787559718484"><ele>463.0</ele><time>2026-04-19T08:20:05Z</time></trkpt><trkpt lat="43.46266008851597" lon="10.616848607368158"><ele>463.0</ele><time>2026-04-19T08:20:06Z</time></trkpt><trkpt lat="43.4627714011589" lon="10.616902751856927"><ele>463.0</ele><time>2026-04-19T08:20:08Z</time></trkpt><trkpt lat="43.462872725389246" lon="10.61689523830526"><ele>463.0</ele><time>2026-04-19T08:20:10Z</time></trkpt><trkpt lat="43.4629850637401" lon="10.616852481398272"><ele>463.0</ele><time>2026-04-19T08:20:12Z</time></trkpt><trkpt lat="43.46310245446307" lon="10.616755080674773"><ele>462.83333333333337</ele><time>2026-04-19T08:20:14Z</time></trkpt><trkpt lat="43.463163858693676" lon="10.616670952642007"><ele>462.6666666666667</ele><time>2026-04-19T08:20:15Z</time></trkpt><trkpt lat="43.4632073641724" lon="10.616558295929572"><ele>462.5</ele><time>2026-04-19T08:20:16Z</time></trkpt><trkpt lat="43.463259053151845" lon="10.616481970872636"><ele>462.33333333333337</ele><time>2026-04-19T08:20:17Z</time></trkpt><trkpt lat="43.46328233640055" lon="10.616373636075117"><ele>462.1666666666667</ele><time>2026-04-19T08:20:18Z</time></trkpt><trkpt lat="43.46329005344319" lon="10.616258777754927"><ele>462.0</ele><time>2026-04-19T08:20:19Z</time></trkpt><trkpt lat="43.46328639913276" lon="10.616169364063607"><ele>463.8333333333333</ele><time>2026-04-19T08:20:20Z</time></trkpt><trkpt lat="43.46327674947676" lon="10.615994668166346"><ele>465.66666666666663</ele><time>2026-04-19T08:20:22Z</time></trkpt><trkpt lat="43.463270963134235" lon="10.615903276523486"><ele>467.5</ele><time>2026-04-19T08:20:23Z</time></trkpt><trkpt lat="43.46326463746452" lon="10.61580336652998"><ele>469.3333333333333</ele><time>2026-04-19T08:20:24Z</time></trkpt><trkpt lat="43.4632606992508" lon="10.615697216720825"><ele>471.16666666666663</ele><time>2026-04-19T08:20:25Z</time></trkpt><trkpt lat="43.463257001443665" lon="10.615595068683104"><ele>473.0</ele><time>2026-04-19T08:20:26Z</time></trkpt><trkpt lat="43.46325154954371" lon="10.615434992167849"><ele>472.99999999999994</ele><time>2026-04-19T08:20:28Z</time></trkpt><trkpt lat="43.46324908283189" lon="10.615347127460657"><ele>473.0</ele><time>2026-04-19T08:20:29.001Z</time></trkpt><trkpt lat="43.46325831169403" lon="10.615211437351066"><ele>473.0</ele><time>2026-04-19T08:20:31.001Z</time></trkpt><trkpt lat="43.46331063922964" lon="10.61515563259966"><ele>473.0</ele><time>2026-04-19T08:20:35.001Z</time></trkpt><trkpt lat="43.463360315754436" lon="10.615236246298855"><ele>472.99999999999994</ele><time>2026-04-19T08:20:38.001Z</time></trkpt><trkpt lat="43.46342308760921" lon="10.615312045432361"><ele>473.0</ele><time>2026-04-19T08:20:53Z</time></trkpt><trkpt lat="43.463527534084456" lon="10.615443442822693"><ele>473.0</ele><time>2026-04-19T08:20:55Z</time></trkpt><trkpt lat="43.4635880868007" lon="10.615565373165985"><ele>472.99999999999994</ele><time>2026-04-19T08:20:56Z</time></trkpt><trkpt lat="43.463648641509614" lon="10.615679184777735"><ele>472.99999999999994</ele><time>2026-04-19T08:20:57Z</time></trkpt><trkpt lat="43.46369989944984" lon="10.615781418010462"><ele>473.0</ele><time>2026-04-19T08:20:58Z</time></trkpt><trkpt lat="43.46374502514152" lon="10.61588861500137"><ele>473.0</ele><time>2026-04-19T08:20:59Z</time></trkpt><trkpt lat="43.46378718367895" lon="10.615997769693923"><ele>473.16666666666663</ele><time>2026-04-19T08:21:00Z</time></trkpt><trkpt lat="43.46382697605899" lon="10.61610344473784"><ele>473.3333333333333</ele><time>2026-04-19T08:21:01Z</time></trkpt><trkpt lat="43.46386512214528" lon="10.61620918836798"><ele>473.5</ele><time>2026-04-19T08:21:02Z</time></trkpt><trkpt lat="43.4639014609006" lon="10.616309921824001"><ele>473.66666666666663</ele><time>2026-04-19T08:21:03Z</time></trkpt><trkpt lat="43.46396097045846" lon="10.616421712357937"><ele>473.8333333333333</ele><time>2026-04-19T08:21:04Z</time></trkpt><trkpt lat="43.46398057500466" lon="10.616544629007644"><ele>474.0</ele><time>2026-04-19T08:21:05Z</time></trkpt><trkpt lat="43.4640149720157" lon="10.616649357966349"><ele>471.1666666666667</ele><time>2026-04-19T08:21:06Z</time></trkpt><trkpt lat="43.46403959575424" lon="10.616732329367517"><ele>468.33333333333337</ele><time>2026-04-19T08:21:07Z</time></trkpt><trkpt lat="43.464083556968156" lon="10.616797882454662"><ele>465.5</ele><time>2026-04-19T08:21:09Z</time></trkpt><trkpt lat="43.46415690925558" lon="10.616814559485704"><ele>462.6666666666667</ele><time>2026-04-19T08:21:15Z</time></trkpt><trkpt lat="43.464238114405944" lon="10.616662892553203"><ele>459.83333333333337</ele><time>2026-04-19T08:21:16Z</time></trkpt><trkpt lat="43.46428365100696" lon="10.616559262686872"><ele>457.0</ele><time>2026-04-19T08:21:17Z</time></trkpt><trkpt lat="43.46430115401763" lon="10.61646508959651"><ele>457.0</ele><time>2026-04-19T08:21:18Z</time></trkpt><trkpt lat="43.46437449094073" lon="10.616299464322845"><ele>457.00000000000006</ele><time>2026-04-19T08:21:20Z</time></trkpt><trkpt lat="43.46442889564033" lon="10.616145763178348"><ele>457.00000000000006</ele><time>2026-04-19T08:21:22Z</time></trkpt><trkpt lat="43.46444746347003" lon="10.616058429688936"><ele>457.0</ele><time>2026-04-19T08:21:23Z</time></trkpt><trkpt lat="43.464491966225836" lon="10.615984759349129"><ele>457.0</ele><time>2026-04-19T08:21:24Z</time></trkpt><trkpt lat="43.46453771236377" lon="10.615916858498348"><ele>454.8</ele><time>2026-04-19T08:21:25Z</time></trkpt><trkpt lat="43.46458441750675" lon="10.615839911569301"><ele>452.6</ele><time>2026-04-19T08:21:26Z</time></trkpt><trkpt lat="43.46461671733889" lon="10.615752443518305"><ele>450.40000000000003</ele><time>2026-04-19T08:21:27Z</time></trkpt><trkpt lat="43.46468392376892" lon="10.61560589738039"><ele>448.20000000000005</ele><time>2026-04-19T08:21:29Z</time></trkpt><trkpt lat="43.46475266789007" lon="10.61545988827941"><ele>446.0</ele><time>2026-04-19T08:21:31Z</time></trkpt><trkpt lat="43.464792589068544" lon="10.61538597465801"><ele>449.49999999999994</ele><time>2026-04-19T08:21:32Z</time></trkpt><trkpt lat="43.464822685100906" lon="10.615291535127868"><ele>453.0</ele><time>2026-04-19T08:21:33Z</time></trkpt><trkpt lat="43.464872970484926" lon="10.615175153056969"><ele>456.5</ele><time>2026-04-19T08:21:34Z</time></trkpt><trkpt lat="43.464918468143495" lon="10.615093399816198"><ele>460.0</ele><time>2026-04-19T08:21:35Z</time></trkpt><trkpt lat="43.46496577607207" lon="10.615020197507793"><ele>463.49999999999994</ele><time>2026-04-19T08:21:36Z</time></trkpt><trkpt lat="43.4650499829601" lon="10.614958961036372"><ele>467.0</ele><time>2026-04-19T08:21:37Z</time></trkpt><trkpt lat="43.465107606794646" lon="10.614871157435743"><ele>467.0</ele><time>2026-04-19T08:21:38Z</time></trkpt><trkpt lat="43.46515434789247" lon="10.614791954943682"><ele>467.00000000000006</ele><time>2026-04-19T08:21:39Z</time></trkpt><trkpt lat="43.465202461320075" lon="10.614706870411084"><ele>467.00000000000006</ele><time>2026-04-19T08:21:40Z</time></trkpt><trkpt lat="43.46526035031367" lon="10.614589757658555"><ele>467.0</ele><time>2026-04-19T08:21:41Z</time></trkpt><trkpt lat="43.465324682268324" lon="10.614495633040164"><ele>467.0</ele><time>2026-04-19T08:21:42Z</time></trkpt><trkpt lat="43.4654003992796" lon="10.614386735819298"><ele>463.8</ele><time>2026-04-19T08:21:43Z</time></trkpt><trkpt lat="43.46546034537063" lon="10.61430052056377"><ele>460.6</ele><time>2026-04-19T08:21:44Z</time></trkpt><trkpt lat="43.46556240169106" lon="10.614178223307755"><ele>457.40000000000003</ele><time>2026-04-19T08:21:45Z</time></trkpt><trkpt lat="43.46562921893159" lon="10.614097265772811"><ele>454.20000000000005</ele><time>2026-04-19T08:21:46Z</time></trkpt><trkpt lat="43.46570131052339" lon="10.614008568829162"><ele>451.0</ele><time>2026-04-19T08:21:47Z</time></trkpt><trkpt lat="43.465771877069784" lon="10.613913821416574"><ele>451.0</ele><time>2026-04-19T08:21:48Z</time></trkpt><trkpt lat="43.46582385564011" lon="10.613802633558212"><ele>451.0</ele><time>2026-04-19T08:21:49Z</time></trkpt><trkpt lat="43.46588353949394" lon="10.613723975968878"><ele>451.0</ele><time>2026-04-19T08:21:50Z</time></trkpt><trkpt lat="43.465961545215414" lon="10.613601230657677"><ele>451.0</ele><time>2026-04-19T08:21:52Z</time></trkpt><trkpt lat="43.46604531821442" lon="10.613503382923007"><ele>451.0</ele><time>2026-04-19T08:21:54Z</time></trkpt><trkpt lat="43.46611848184516" lon="10.613445797138048"><ele>451.00000000000006</ele><time>2026-04-19T08:21:56Z</time></trkpt><trkpt lat="43.46620554547492" lon="10.613485301532386"><ele>451.0</ele><time>2026-04-19T08:21:58Z</time></trkpt><trkpt lat="43.46623670851752" lon="10.613639339654513"><ele>451.0</ele><time>2026-04-19T08:22:00Z</time></trkpt><trkpt lat="43.46623611000668" lon="10.613743529923658"><ele>451.0</ele><time>2026-04-19T08:22:01Z</time></trkpt><trkpt lat="43.46620436753072" lon="10.61384878731942"><ele>451.00000000000006</ele><time>2026-04-19T08:22:02Z</time></trkpt><trkpt lat="43.46616354400034" lon="10.613945220885569"><ele>451.0</ele><time>2026-04-19T08:22:03Z</time></trkpt><trkpt lat="43.46610484114238" lon="10.614068440119096"><ele>451.0</ele><time>2026-04-19T08:22:04Z</time></trkpt><trkpt lat="43.46603143783711" lon="10.614211392629274"><ele>451.0</ele><time>2026-04-19T08:22:05Z</time></trkpt><trkpt lat="43.46597033269555" lon="10.614329234621021"><ele>451.0</ele><time>2026-04-19T08:22:06Z</time></trkpt><trkpt lat="43.46590639633596" lon="10.614461698287998"><ele>451.0</ele><time>2026-04-19T08:22:07Z</time></trkpt><trkpt lat="43.465857952013984" lon="10.614595342548274"><ele>449.50000000000006</ele><time>2026-04-19T08:22:08Z</time></trkpt><trkpt lat="43.46580764184393" lon="10.61470499636732"><ele>448.0</ele><time>2026-04-19T08:22:09Z</time></trkpt><trkpt lat="43.465773769985226" lon="10.61480286351212"><ele>446.5</ele><time>2026-04-19T08:22:10Z</time></trkpt><trkpt lat="43.46577836119827" lon="10.614915620696653"><ele>445.0</ele><time>2026-04-19T08:22:11Z</time></trkpt><trkpt lat="43.4657793151579" lon="10.615049726616936"><ele>443.50000000000006</ele><time>2026-04-19T08:22:12Z</time></trkpt><trkpt lat="43.465789587574044" lon="10.615178474514888"><ele>442.0</ele><time>2026-04-19T08:22:13Z</time></trkpt><trkpt lat="43.46577597364739" lon="10.615273035335296"><ele>441.8</ele><time>2026-04-19T08:22:14Z</time></trkpt><trkpt lat="43.465735020173" lon="10.615373883888909"><ele>441.6</ele><time>2026-04-19T08:22:15Z</time></trkpt><trkpt lat="43.465634998580555" lon="10.615465490077272"><ele>441.40000000000003</ele><time>2026-04-19T08:22:16Z</time></trkpt><trkpt lat="43.465568115743366" lon="10.615593440814653"><ele>441.20000000000005</ele><time>2026-04-19T08:22:17Z</time></trkpt><trkpt lat="43.46552294516958" lon="10.615697682495849"><ele>441.0</ele><time>2026-04-19T08:22:18Z</time></trkpt><trkpt lat="43.465514051747114" lon="10.615787460140965"><ele>441.0</ele><time>2026-04-19T08:22:19Z</time></trkpt><trkpt lat="43.46554191495932" lon="10.6158899528468"><ele>441.0</ele><time>2026-04-19T08:22:20Z</time></trkpt><trkpt lat="43.4655808942011" lon="10.616003778471983"><ele>441.0</ele><time>2026-04-19T08:22:21Z</time></trkpt><trkpt lat="43.46563697888668" lon="10.616154004773051"><ele>441.0</ele><time>2026-04-19T08:22:22Z</time></trkpt><trkpt lat="43.46566720332647" lon="10.616331955963721"><ele>441.0</ele><time>2026-04-19T08:22:23Z</time></trkpt><trkpt lat="43.465702600936524" lon="10.61647687342174"><ele>439.20000000000005</ele><time>2026-04-19T08:22:24.001Z</time></trkpt><trkpt lat="43.46574790346639" lon="10.616609105962185"><ele>437.40000000000003</ele><time>2026-04-19T08:22:25.001Z</time></trkpt><trkpt lat="43.46578735139549" lon="10.616741470049302"><ele>435.6</ele><time>2026-04-19T08:22:26.001Z</time></trkpt><trkpt lat="43.46580379494796" lon="10.616850003290931"><ele>433.8</ele><time>2026-04-19T08:22:27.001Z</time></trkpt><trkpt lat="43.46584779352859" lon="10.61695164041426"><ele>432.0</ele><time>2026-04-19T08:22:28.001Z</time></trkpt><trkpt lat="43.46588656630118" lon="10.617048813102256"><ele>429.0</ele><time>2026-04-19T08:22:29.001Z</time></trkpt><trkpt lat="43.46592431888549" lon="10.617149396204836"><ele>426.0</ele><time>2026-04-19T08:22:30.001Z</time></trkpt><trkpt lat="43.46596273182978" lon="10.617246406785796"><ele>423.0</ele><time>2026-04-19T08:22:31.001Z</time></trkpt><trkpt lat="43.46599472786812" lon="10.61736926754399"><ele>420.0</ele><time>2026-04-19T08:22:32.001Z</time></trkpt><trkpt lat="43.46603533041948" lon="10.617459374792857"><ele>417.0</ele><time>2026-04-19T08:22:33.001Z</time></trkpt><trkpt lat="43.46607386244283" lon="10.61755423534329"><ele>414.0</ele><time>2026-04-19T08:22:34.001Z</time></trkpt><trkpt lat="43.466104833178626" lon="10.61765452178839"><ele>414.0</ele><time>2026-04-19T08:22:35.001Z</time></trkpt><trkpt lat="43.46613511099181" lon="10.617745153661605"><ele>414.0</ele><time>2026-04-19T08:22:36.001Z</time></trkpt><trkpt lat="43.466169573667706" lon="10.617835924996976"><ele>414.0</ele><time>2026-04-19T08:22:37.001Z</time></trkpt><trkpt lat="43.4662027697828" lon="10.617913237088583"><ele>414.0</ele><time>2026-04-19T08:22:38.001Z</time></trkpt><trkpt lat="43.4662418953875" lon="10.617987202514255"><ele>414.0</ele><time>2026-04-19T08:22:39.001Z</time></trkpt><trkpt lat="43.46628681364725" lon="10.618054813931693"><ele>414.0</ele><time>2026-04-19T08:22:40.001Z</time></trkpt><trkpt lat="43.46635478212871" lon="10.6182050949428"><ele>413.6666666666667</ele><time>2026-04-19T08:22:42.001Z</time></trkpt><trkpt lat="43.466388283834284" lon="10.618285817155622"><ele>413.33333333333337</ele><time>2026-04-19T08:22:43.001Z</time></trkpt><trkpt lat="43.46647170641932" lon="10.61839486974227"><ele>413.0</ele><time>2026-04-19T08:22:45.001Z</time></trkpt><trkpt lat="43.46655504553531" lon="10.618518226112887"><ele>412.6666666666667</ele><time>2026-04-19T08:22:47.001Z</time></trkpt><trkpt lat="43.46659886019921" lon="10.61858607565808"><ele>412.33333333333337</ele><time>2026-04-19T08:22:48.001Z</time></trkpt><trkpt lat="43.46661581415149" lon="10.618673289424628"><ele>412.0</ele><time>2026-04-19T08:22:49.001Z</time></trkpt><trkpt lat="43.466627863852935" lon="10.618839622240198"><ele>412.0</ele><time>2026-04-19T08:22:51.001Z</time></trkpt><trkpt lat="43.46662308257992" lon="10.618966809548489"><ele>412.0</ele><time>2026-04-19T08:22:52.001Z</time></trkpt><trkpt lat="43.46664475650136" lon="10.619121555910477"><ele>412.0</ele><time>2026-04-19T08:22:53.001Z</time></trkpt><trkpt lat="43.46665873538846" lon="10.619255500953024"><ele>412.0</ele><time>2026-04-19T08:22:54.001Z</time></trkpt><trkpt lat="43.4666581642687" lon="10.619383785914168"><ele>412.0</ele><time>2026-04-19T08:22:55.001Z</time></trkpt><trkpt lat="43.46666980605425" lon="10.619483192367348"><ele>410.8</ele><time>2026-04-19T08:22:56.001Z</time></trkpt><trkpt lat="43.4666708213119" lon="10.619587363505211"><ele>409.6</ele><time>2026-04-19T08:22:56.999Z</time></trkpt><trkpt lat="43.46666416620908" lon="10.61970501908563"><ele>408.40000000000003</ele><time>2026-04-19T08:22:57.999Z</time></trkpt><trkpt lat="43.466650324247865" lon="10.619860919288401"><ele>407.20000000000005</ele><time>2026-04-19T08:22:58.999Z</time></trkpt><trkpt lat="43.46663003593793" lon="10.620013528471869"><ele>406.0</ele><time>2026-04-19T08:22:59.999Z</time></trkpt><trkpt lat="43.46661446993051" lon="10.6201385621888"><ele>406.0</ele><time>2026-04-19T08:23:00.999Z</time></trkpt><trkpt lat="43.466619307845136" lon="10.620250174460052"><ele>406.0</ele><time>2026-04-19T08:23:01.999Z</time></trkpt><trkpt lat="43.46661220674766" lon="10.62040805318333"><ele>406.0</ele><time>2026-04-19T08:23:03.999Z</time></trkpt><trkpt lat="43.466677328117996" lon="10.62048788462455"><ele>406.0</ele><time>2026-04-19T08:23:04.999Z</time></trkpt><trkpt lat="43.4667369399114" lon="10.620597646919002"><ele>406.0</ele><time>2026-04-19T08:23:05.999Z</time></trkpt><trkpt lat="43.46680567910287" lon="10.620721217446295"><ele>405.4</ele><time>2026-04-19T08:23:06.999Z</time></trkpt><trkpt lat="43.46685060328706" lon="10.620821189882506"><ele>404.8</ele><time>2026-04-19T08:23:08Z</time></trkpt><trkpt lat="43.46687637382316" lon="10.620966586809832"><ele>404.2</ele><time>2026-04-19T08:23:10Z</time></trkpt><trkpt lat="43.46685992566293" lon="10.62108624150109"><ele>403.59999999999997</ele><time>2026-04-19T08:23:11Z</time></trkpt><trkpt lat="43.466814528218045" lon="10.621187205563766"><ele>403.0</ele><time>2026-04-19T08:23:12Z</time></trkpt><trkpt lat="43.466723074030725" lon="10.621241461757148"><ele>403.00000000000006</ele><time>2026-04-19T08:23:14Z</time></trkpt><trkpt lat="43.46666149031748" lon="10.621325627553524"><ele>403.0</ele><time>2026-04-19T08:23:15Z</time></trkpt><trkpt lat="43.46660607272639" lon="10.621405927183206"><ele>403.0</ele><time>2026-04-19T08:23:16Z</time></trkpt><trkpt lat="43.466558009996966" lon="10.6214764828365"><ele>403.0</ele><time>2026-04-19T08:23:17Z</time></trkpt><trkpt lat="43.46651639750374" lon="10.621553887482735"><ele>403.00000000000006</ele><time>2026-04-19T08:23:18Z</time></trkpt><trkpt lat="43.46649133291796" lon="10.621638303869732"><ele>403.0</ele><time>2026-04-19T08:23:19Z</time></trkpt><trkpt lat="43.466462157138544" lon="10.621748114412263"><ele>403.0</ele><time>2026-04-19T08:23:20Z</time></trkpt><trkpt lat="43.46644242028966" lon="10.621903997887927"><ele>403.0</ele><time>2026-04-19T08:23:21Z</time></trkpt><trkpt lat="43.46644091856587" lon="10.622061375278834"><ele>403.0</ele><time>2026-04-19T08:23:22Z</time></trkpt><trkpt lat="43.46645726469539" lon="10.622196210693444"><ele>403.0</ele><time>2026-04-19T08:23:23Z</time></trkpt><trkpt lat="43.466440181768654" lon="10.622341695986565"><ele>403.0</ele><time>2026-04-19T08:23:24Z</time></trkpt><trkpt lat="43.4664237514035" lon="10.622434252078698"><ele>402.4</ele><time>2026-04-19T08:23:25Z</time></trkpt><trkpt lat="43.46638109797788" lon="10.622603619864421"><ele>401.79999999999995</ele><time>2026-04-19T08:23:27Z</time></trkpt><trkpt lat="43.466318263122055" lon="10.62271301222853"><ele>401.2</ele><time>2026-04-19T08:23:28Z</time></trkpt><trkpt lat="43.46621684270712" lon="10.622798474773536"><ele>400.6</ele><time>2026-04-19T08:23:29Z</time></trkpt><trkpt lat="43.466131133626654" lon="10.6228450014614"><ele>400.0</ele><time>2026-04-19T08:23:30Z</time></trkpt><trkpt lat="43.46603498408" lon="10.622892887510213"><ele>400.0</ele><time>2026-04-19T08:23:31Z</time></trkpt><trkpt lat="43.465925887049025" lon="10.62291535894165"><ele>400.0</ele><time>2026-04-19T08:23:32Z</time></trkpt><trkpt lat="43.465812077786765" lon="10.622931071648912"><ele>400.0</ele><time>2026-04-19T08:23:33Z</time></trkpt><trkpt lat="43.46572348224398" lon="10.62297056082535"><ele>400.0</ele><time>2026-04-19T08:23:34Z</time></trkpt><trkpt lat="43.4656531681737" lon="10.623039300698032"><ele>400.0</ele><time>2026-04-19T08:23:35Z</time></trkpt><trkpt lat="43.46559344551195" lon="10.623148948600361"><ele>400.0</ele><time>2026-04-19T08:23:36Z</time></trkpt><trkpt lat="43.4655521726476" lon="10.623252370672732"><ele>400.0</ele><time>2026-04-19T08:23:37Z</time></trkpt><trkpt lat="43.46551926960738" lon="10.6233560174939"><ele>400.0</ele><time>2026-04-19T08:23:38Z</time></trkpt><trkpt lat="43.46544075108416" lon="10.6235020428319"><ele>400.0</ele><time>2026-04-19T08:23:39Z</time></trkpt><trkpt lat="43.4653757708041" lon="10.623647858745128"><ele>400.0</ele><time>2026-04-19T08:23:40Z</time></trkpt><trkpt lat="43.46532619772348" lon="10.623777920549701"><ele>396.8</ele><time>2026-04-19T08:23:41Z</time></trkpt><trkpt lat="43.465265083477234" lon="10.623876907597847"><ele>393.6</ele><time>2026-04-19T08:23:42Z</time></trkpt><trkpt lat="43.46522272107289" lon="10.623990712029014"><ele>390.4</ele><time>2026-04-19T08:23:43Z</time></trkpt><trkpt lat="43.465165984773805" lon="10.624120264799071"><ele>387.2</ele><time>2026-04-19T08:23:44Z</time></trkpt><trkpt lat="43.46513412542567" lon="10.624273715781118"><ele>384.0</ele><time>2026-04-19T08:23:45Z</time></trkpt><trkpt lat="43.46507563056281" lon="10.624395250618518"><ele>386.6</ele><time>2026-04-19T08:23:46Z</time></trkpt><trkpt lat="43.46499862756775" lon="10.624508979962503"><ele>389.2</ele><time>2026-04-19T08:23:47Z</time></trkpt><trkpt lat="43.464927535599166" lon="10.624613632720653"><ele>391.8</ele><time>2026-04-19T08:23:48Z</time></trkpt><trkpt lat="43.46486117852875" lon="10.62471178120877"><ele>394.40000000000003</ele><time>2026-04-19T08:23:49Z</time></trkpt><trkpt lat="43.464792301150936" lon="10.624808666854758"><ele>397.0</ele><time>2026-04-19T08:23:50Z</time></trkpt><trkpt lat="43.4647419528051" lon="10.624908500692246"><ele>397.0</ele><time>2026-04-19T08:23:51Z</time></trkpt><trkpt lat="43.46472345036794" lon="10.625064069871055"><ele>397.0</ele><time>2026-04-19T08:23:53Z</time></trkpt><trkpt lat="43.46473639902171" lon="10.62518894705445"><ele>397.0</ele><time>2026-04-19T08:23:54Z</time></trkpt><trkpt lat="43.46475650373382" lon="10.625326492647874"><ele>397.0</ele><time>2026-04-19T08:23:55Z</time></trkpt><trkpt lat="43.4647436212916" lon="10.625434098967194"><ele>397.0</ele><time>2026-04-19T08:23:56Z</time></trkpt><trkpt lat="43.46469402563234" lon="10.625542003238426"><ele>390.8</ele><time>2026-04-19T08:23:57Z</time></trkpt><trkpt lat="43.464605727199256" lon="10.625646569260939"><ele>384.6</ele><time>2026-04-19T08:23:58Z</time></trkpt><trkpt lat="43.464536334092344" lon="10.625771529221176"><ele>378.40000000000003</ele><time>2026-04-19T08:23:59Z</time></trkpt><trkpt lat="43.464471069924834" lon="10.625886313694705"><ele>372.20000000000005</ele><time>2026-04-19T08:24:00Z</time></trkpt><trkpt lat="43.46442592803274" lon="10.625993701024429"><ele>366.0</ele><time>2026-04-19T08:24:01Z</time></trkpt><trkpt lat="43.464407613367065" lon="10.626096908581891"><ele>365.20000000000005</ele><time>2026-04-19T08:24:02Z</time></trkpt><trkpt lat="43.464404676753446" lon="10.626225163249027"><ele>364.40000000000003</ele><time>2026-04-19T08:24:03Z</time></trkpt><trkpt lat="43.46441150598407" lon="10.626390618263772"><ele>363.6</ele><time>2026-04-19T08:24:04Z</time></trkpt><trkpt lat="43.46442989845421" lon="10.6265236528011"><ele>362.8</ele><time>2026-04-19T08:24:05Z</time></trkpt><trkpt lat="43.46445042538196" lon="10.62662327093855"><ele>362.0</ele><time>2026-04-19T08:24:06Z</time></trkpt><trkpt lat="43.46449096432381" lon="10.626707954866188"><ele>362.0</ele><time>2026-04-19T08:24:07Z</time></trkpt><trkpt lat="43.464543305682525" lon="10.626785654136073"><ele>362.0</ele><time>2026-04-19T08:24:08Z</time></trkpt><trkpt lat="43.46461234142863" lon="10.626850297689986"><ele>362.0</ele><time>2026-04-19T08:24:09Z</time></trkpt><trkpt lat="43.46467587774042" lon="10.626920508104767"><ele>362.0</ele><time>2026-04-19T08:24:10Z</time></trkpt><trkpt lat="43.4647443003657" lon="10.626964739547187"><ele>362.0</ele><time>2026-04-19T08:24:11Z</time></trkpt><trkpt lat="43.46483124582082" lon="10.627003360983311"><ele>362.0</ele><time>2026-04-19T08:24:12Z</time></trkpt><trkpt lat="43.46492897128057" lon="10.627022234236316"><ele>363.8</ele><time>2026-04-19T08:24:13Z</time></trkpt><trkpt lat="43.46503104633705" lon="10.627037769259513"><ele>365.6</ele><time>2026-04-19T08:24:14Z</time></trkpt><trkpt lat="43.46514357915375" lon="10.627063329893856"><ele>367.40000000000003</ele><time>2026-04-19T08:24:15Z</time></trkpt><trkpt lat="43.46525951916823" lon="10.62710035177246"><ele>369.20000000000005</ele><time>2026-04-19T08:24:16Z</time></trkpt><trkpt lat="43.46535008766316" lon="10.627111838811983"><ele>371.0</ele><time>2026-04-19T08:24:17Z</time></trkpt><trkpt lat="43.465427572648444" lon="10.627125959774531"><ele>371.0</ele><time>2026-04-19T08:24:18Z</time></trkpt><trkpt lat="43.4655165395052" lon="10.62722020884686"><ele>371.0</ele><time>2026-04-19T08:24:20Z</time></trkpt><trkpt lat="43.4654994129576" lon="10.627397042419522"><ele>371.0</ele><time>2026-04-19T08:24:22Z</time></trkpt><trkpt lat="43.46545316124754" lon="10.627489902944932"><ele>371.0</ele><time>2026-04-19T08:24:23Z</time></trkpt><trkpt lat="43.46536978948985" lon="10.627585965397707"><ele>371.0</ele><time>2026-04-19T08:24:24Z</time></trkpt><trkpt lat="43.46528644203386" lon="10.62769370769974"><ele>370.0</ele><time>2026-04-19T08:24:25Z</time></trkpt><trkpt lat="43.46520987216286" lon="10.627826706083859"><ele>369.0</ele><time>2026-04-19T08:24:26Z</time></trkpt><trkpt lat="43.465132721126785" lon="10.627982386358292"><ele>368.0</ele><time>2026-04-19T08:24:27Z</time></trkpt><trkpt lat="43.46506559073753" lon="10.628129214997028"><ele>367.0</ele><time>2026-04-19T08:24:28Z</time></trkpt><trkpt lat="43.46502558095874" lon="10.628231561770916"><ele>367.0</ele><time>2026-04-19T08:24:29Z</time></trkpt><trkpt lat="43.4650375642478" lon="10.628410171003328"><ele>367.0</ele><time>2026-04-19T08:24:31Z</time></trkpt><trkpt lat="43.46507508960393" lon="10.628500474455112"><ele>367.0</ele><time>2026-04-19T08:24:32.001Z</time></trkpt><trkpt lat="43.46514442275486" lon="10.628634513675939"><ele>367.0</ele><time>2026-04-19T08:24:33.001Z</time></trkpt><trkpt lat="43.465248544146256" lon="10.6287886248315"><ele>365.0</ele><time>2026-04-19T08:24:34.001Z</time></trkpt><trkpt lat="43.46535297703889" lon="10.628934279374299"><ele>363.0</ele><time>2026-04-19T08:24:35.001Z</time></trkpt><trkpt lat="43.46542683053654" lon="10.6290421174839"><ele>361.0</ele><time>2026-04-19T08:24:36.001Z</time></trkpt><trkpt lat="43.46551330768474" lon="10.629117415666629"><ele>359.0</ele><time>2026-04-19T08:24:37.001Z</time></trkpt><trkpt lat="43.46560001159175" lon="10.629189463216596"><ele>360.2</ele><time>2026-04-19T08:24:38.001Z</time></trkpt><trkpt lat="43.46568109623071" lon="10.629280378520779"><ele>361.4</ele><time>2026-04-19T08:24:39.001Z</time></trkpt><trkpt lat="43.46576233382108" lon="10.629400335373981"><ele>362.6</ele><time>2026-04-19T08:24:40.001Z</time></trkpt><trkpt lat="43.46584186907113" lon="10.629533903316746"><ele>363.8</ele><time>2026-04-19T08:24:41.001Z</time></trkpt><trkpt lat="43.465907687994545" lon="10.629638248487586"><ele>365.0</ele><time>2026-04-19T08:24:42.001Z</time></trkpt><trkpt lat="43.465969336369795" lon="10.629724720316107"><ele>365.0</ele><time>2026-04-19T08:24:43.001Z</time></trkpt><trkpt lat="43.46602758264002" lon="10.629830265988923"><ele>365.0</ele><time>2026-04-19T08:24:44.001Z</time></trkpt><trkpt lat="43.46606166488444" lon="10.629938429279665"><ele>365.0</ele><time>2026-04-19T08:24:45.001Z</time></trkpt><trkpt lat="43.46607794445761" lon="10.63004445549612"><ele>365.0</ele><time>2026-04-19T08:24:46.001Z</time></trkpt><trkpt lat="43.466038338107765" lon="10.630137867738334"><ele>365.0</ele><time>2026-04-19T08:24:47.001Z</time></trkpt><trkpt lat="43.46602451706907" lon="10.6302632980376"><ele>365.0</ele><time>2026-04-19T08:24:48.001Z</time></trkpt><trkpt lat="43.46601326302301" lon="10.630406485901954"><ele>364.8</ele><time>2026-04-19T08:24:49.001Z</time></trkpt><trkpt lat="43.46602541165081" lon="10.63053048065025"><ele>364.6</ele><time>2026-04-19T08:24:50.001Z</time></trkpt><trkpt lat="43.46605348149332" lon="10.630678667491697"><ele>364.4</ele><time>2026-04-19T08:24:52.001Z</time></trkpt><trkpt lat="43.46608403626992" lon="10.630776173865705"><ele>364.2</ele><time>2026-04-19T08:24:54.001Z</time></trkpt><trkpt lat="43.466216289800364" lon="10.630901372139542"><ele>364.0</ele><time>2026-04-19T08:24:56.001Z</time></trkpt><trkpt lat="43.466289212215884" lon="10.630944596946781"><ele>364.0</ele><time>2026-04-19T08:24:57.001Z</time></trkpt><trkpt lat="43.46634930927874" lon="10.630981168017662"><ele>364.0</ele><time>2026-04-19T08:24:58.001Z</time></trkpt><trkpt lat="43.466431017346125" lon="10.63097795089931"><ele>364.0</ele><time>2026-04-19T08:24:59.001Z</time></trkpt><trkpt lat="43.466528442186146" lon="10.630958626080773"><ele>364.0</ele><time>2026-04-19T08:25:00.001Z</time></trkpt><trkpt lat="43.46664644039904" lon="10.63092314279736"><ele>364.0</ele><time>2026-04-19T08:25:01.001Z</time></trkpt><trkpt lat="43.46676716756953" lon="10.63086134682174"><ele>364.0</ele><time>2026-04-19T08:25:02.001Z</time></trkpt><trkpt lat="43.466884861580894" lon="10.630806593514587"><ele>364.0</ele><time>2026-04-19T08:25:03Z</time></trkpt><trkpt lat="43.46699336665423" lon="10.630798778573036"><ele>364.0</ele><time>2026-04-19T08:25:04Z</time></trkpt><trkpt lat="43.46710354732174" lon="10.630791545401303"><ele>364.0</ele><time>2026-04-19T08:25:05Z</time></trkpt><trkpt lat="43.46723187335053" lon="10.630835680820052"><ele>364.3333333333333</ele><time>2026-04-19T08:25:06Z</time></trkpt><trkpt lat="43.46737467193028" lon="10.630914750287006"><ele>364.6666666666667</ele><time>2026-04-19T08:25:07Z</time></trkpt><trkpt lat="43.46753938181907" lon="10.630991433917277"><ele>365.0</ele><time>2026-04-19T08:25:08Z</time></trkpt><trkpt lat="43.46770428181359" lon="10.631061828288887"><ele>365.0</ele><time>2026-04-19T08:25:09Z</time></trkpt><trkpt lat="43.467856434174024" lon="10.631116307744392"><ele>365.0</ele><time>2026-04-19T08:25:10Z</time></trkpt><trkpt lat="43.4679758016898" lon="10.631189975824581"><ele>365.0</ele><time>2026-04-19T08:25:11Z</time></trkpt><trkpt lat="43.4680940470847" lon="10.631255343628899"><ele>365.0</ele><time>2026-04-19T08:25:12Z</time></trkpt><trkpt lat="43.46820745204225" lon="10.631275040386091"><ele>364.75</ele><time>2026-04-19T08:25:13Z</time></trkpt><trkpt lat="43.4683036591204" lon="10.631288298359662"><ele>364.5</ele><time>2026-04-19T08:25:14Z</time></trkpt><trkpt lat="43.46838568340811" lon="10.631169109406404"><ele>364.25</ele><time>2026-04-19T08:25:15Z</time></trkpt><trkpt lat="43.468453862008396" lon="10.631024971847689"><ele>364.0</ele><time>2026-04-19T08:25:16Z</time></trkpt><trkpt lat="43.46850176962679" lon="10.630836261726198"><ele>364.0</ele><time>2026-04-19T08:25:17Z</time></trkpt><trkpt lat="43.468530635209696" lon="10.630644571682073"><ele>364.0</ele><time>2026-04-19T08:25:18Z</time></trkpt><trkpt lat="43.46855262247061" lon="10.63048288718014"><ele>364.0</ele><time>2026-04-19T08:25:19Z</time></trkpt><trkpt lat="43.46858621646341" lon="10.630345525451743"><ele>364.0</ele><time>2026-04-19T08:25:20Z</time></trkpt><trkpt lat="43.46863472818877" lon="10.630214798408206"><ele>362.75</ele><time>2026-04-19T08:25:21Z</time></trkpt><trkpt lat="43.46869674975934" lon="10.630089235706864"><ele>361.5</ele><time>2026-04-19T08:25:22Z</time></trkpt><trkpt lat="43.468786859591155" lon="10.629976936747601"><ele>360.25</ele><time>2026-04-19T08:25:23Z</time></trkpt><trkpt lat="43.46890513841845" lon="10.629880666297227"><ele>359.0</ele><time>2026-04-19T08:25:24Z</time></trkpt><trkpt lat="43.469036469204866" lon="10.629782487534223"><ele>359.0</ele><time>2026-04-19T08:25:25Z</time></trkpt><trkpt lat="43.46913753282853" lon="10.629686283650695"><ele>359.0</ele><time>2026-04-19T08:25:26Z</time></trkpt><trkpt lat="43.469215774684486" lon="10.629600824104676"><ele>359.0</ele><time>2026-04-19T08:25:27Z</time></trkpt><trkpt lat="43.469263684448855" lon="10.629532561254397"><ele>359.0</ele><time>2026-04-19T08:25:28Z</time></trkpt><trkpt lat="43.46933678600307" lon="10.629550292864305"><ele>359.0</ele><time>2026-04-19T08:25:29Z</time></trkpt><trkpt lat="43.4694199545695" lon="10.629597761652894"><ele>359.0</ele><time>2026-04-19T08:25:30Z</time></trkpt><trkpt lat="43.46948626759141" lon="10.629641525581043"><ele>359.0</ele><time>2026-04-19T08:25:31Z</time></trkpt><trkpt lat="43.46948390458048" lon="10.629763289652338"><ele>359.0</ele><time>2026-04-19T08:25:32Z</time></trkpt><trkpt lat="43.46947310051898" lon="10.629913226571437"><ele>359.0</ele><time>2026-04-19T08:25:33Z</time></trkpt><trkpt lat="43.469420592231195" lon="10.630084953701937"><ele>359.0</ele><time>2026-04-19T08:25:34Z</time></trkpt><trkpt lat="43.46932466798136" lon="10.630211195558216"><ele>357.0</ele><time>2026-04-19T08:25:35Z</time></trkpt><trkpt lat="43.4692399686043" lon="10.630318874149305"><ele>355.0</ele><time>2026-04-19T08:25:36Z</time></trkpt><trkpt lat="43.46918415397921" lon="10.630431820665194"><ele>353.0</ele><time>2026-04-19T08:25:37Z</time></trkpt><trkpt lat="43.469159809583516" lon="10.630560191821132"><ele>351.0</ele><time>2026-04-19T08:25:38Z</time></trkpt><trkpt lat="43.46918279630435" lon="10.630735580250557"><ele>349.0</ele><time>2026-04-19T08:25:39Z</time></trkpt><trkpt lat="43.469244450992456" lon="10.630927383753178"><ele>349.0</ele><time>2026-04-19T08:25:40Z</time></trkpt><trkpt lat="43.469331631536186" lon="10.63111211206265"><ele>349.0</ele><time>2026-04-19T08:25:41Z</time></trkpt><trkpt lat="43.4693644533024" lon="10.63131087963052"><ele>349.0</ele><time>2026-04-19T08:25:42Z</time></trkpt><trkpt lat="43.46936743283617" lon="10.631474317581272"><ele>349.0</ele><time>2026-04-19T08:25:43Z</time></trkpt><trkpt lat="43.46937593227156" lon="10.631634613505161"><ele>346.5</ele><time>2026-04-19T08:25:44Z</time></trkpt><trkpt lat="43.46939668309762" lon="10.631747745029847"><ele>344.0</ele><time>2026-04-19T08:25:45Z</time></trkpt><trkpt lat="43.46947223582871" lon="10.631861117232058"><ele>341.5</ele><time>2026-04-19T08:25:46Z</time></trkpt><trkpt lat="43.46959497346664" lon="10.631921903610822"><ele>339.0</ele><time>2026-04-19T08:25:47Z</time></trkpt><trkpt lat="43.46973048099591" lon="10.631957907425619"><ele>343.0</ele><time>2026-04-19T08:25:48Z</time></trkpt><trkpt lat="43.46987290727683" lon="10.632022600755837"><ele>347.0</ele><time>2026-04-19T08:25:49Z</time></trkpt><trkpt lat="43.47000080250915" lon="10.632133537857877"><ele>351.0</ele><time>2026-04-19T08:25:50Z</time></trkpt><trkpt lat="43.4700985061299" lon="10.63230331830563"><ele>351.0</ele><time>2026-04-19T08:25:51Z</time></trkpt><trkpt lat="43.47020865569796" lon="10.63246308912192"><ele>351.0</ele><time>2026-04-19T08:25:52Z</time></trkpt><trkpt lat="43.47032144608446" lon="10.632607583877993"><ele>351.0</ele><time>2026-04-19T08:25:53Z</time></trkpt><trkpt lat="43.47043704452019" lon="10.632748759734286"><ele>353.6666666666667</ele><time>2026-04-19T08:25:54Z</time></trkpt><trkpt lat="43.47054947432001" lon="10.632888247006424"><ele>356.33333333333337</ele><time>2026-04-19T08:25:55Z</time></trkpt><trkpt lat="43.470654385456825" lon="10.633034449408658"><ele>359.0</ele><time>2026-04-19T08:25:56Z</time></trkpt><trkpt lat="43.47074984034287" lon="10.63320817679811"><ele>359.0</ele><time>2026-04-19T08:25:57Z</time></trkpt><trkpt lat="43.47082615951123" lon="10.633403647490345"><ele>359.0</ele><time>2026-04-19T08:25:58Z</time></trkpt><trkpt lat="43.470901240705075" lon="10.633599391995737"><ele>359.0</ele><time>2026-04-19T08:25:59Z</time></trkpt><trkpt lat="43.47097350600311" lon="10.633792139972787"><ele>356.6666666666667</ele><time>2026-04-19T08:26:00Z</time></trkpt><trkpt lat="43.471044693806995" lon="10.633981010452219"><ele>354.3333333333333</ele><time>2026-04-19T08:26:01Z</time></trkpt><trkpt lat="43.47113067837837" lon="10.634166991893096"><ele>352.0</ele><time>2026-04-19T08:26:02Z</time></trkpt><trkpt lat="43.47120826520091" lon="10.634364892768712"><ele>351.5</ele><time>2026-04-19T08:26:03Z</time></trkpt><trkpt lat="43.47126007536512" lon="10.634547863899664"><ele>351.0</ele><time>2026-04-19T08:26:04Z</time></trkpt><trkpt lat="43.47132607915687" lon="10.634719962772163"><ele>350.5</ele><time>2026-04-19T08:26:05Z</time></trkpt><trkpt lat="43.47138862105157" lon="10.634882901384511"><ele>350.0</ele><time>2026-04-19T08:26:06Z</time></trkpt><trkpt lat="43.47144499644334" lon="10.635029711138278"><ele>352.5</ele><time>2026-04-19T08:26:07Z</time></trkpt><trkpt lat="43.471497433313935" lon="10.635166264394647"><ele>355.0</ele><time>2026-04-19T08:26:08Z</time></trkpt><trkpt lat="43.47155110326787" lon="10.635306029007351"><ele>357.5</ele><time>2026-04-19T08:26:09Z</time></trkpt><trkpt lat="43.471609638936314" lon="10.635458892835867"><ele>360.0</ele><time>2026-04-19T08:26:10Z</time></trkpt><trkpt lat="43.47166908659954" lon="10.635609803284678"><ele>360.0</ele><time>2026-04-19T08:26:11Z</time></trkpt><trkpt lat="43.47173584419412" lon="10.635724254900834"><ele>360.0</ele><time>2026-04-19T08:26:12Z</time></trkpt><trkpt lat="43.47176143355895" lon="10.635811487416168"><ele>360.0</ele><time>2026-04-19T08:26:13Z</time></trkpt><trkpt lat="43.471811740833644" lon="10.635911782171103"><ele>360.0</ele><time>2026-04-19T08:26:15Z</time></trkpt><trkpt lat="43.47186879003948" lon="10.63601384961954"><ele>360.0</ele><time>2026-04-19T08:26:26.001Z</time></trkpt><trkpt lat="43.47194215102721" lon="10.636086116341128"><ele>360.0</ele><time>2026-04-19T08:26:28.001Z</time></trkpt><trkpt lat="43.472062912092774" lon="10.635918413783953"><ele>360.0</ele><time>2026-04-19T08:26:36.001Z</time></trkpt><trkpt lat="43.47182425207262" lon="10.635974022383149"><ele>360.0</ele><time>2026-04-19T08:26:38.001Z</time></trkpt><trkpt lat="43.47174439546993" lon="10.635938035253707"><ele>360.0</ele><time>2026-04-19T08:26:42.001Z</time></trkpt><trkpt lat="43.471644672389544" lon="10.635898688193187"><ele>360.0</ele><time>2026-04-19T08:26:45.001Z</time></trkpt><trkpt lat="43.47153510365557" lon="10.635869552098482"><ele>360.0</ele><time>2026-04-19T08:26:47.001Z</time></trkpt><trkpt lat="43.471440675529074" lon="10.635842492831062"><ele>360.0</ele><time>2026-04-19T08:26:49.001Z</time></trkpt><trkpt lat="43.47137147591331" lon="10.635825321325678"><ele>360.0</ele><time>2026-04-19T08:26:51.001Z</time></trkpt><trkpt lat="43.471310279418475" lon="10.635801516785406"><ele>360.0</ele><time>2026-04-19T08:26:54.001Z</time></trkpt><trkpt lat="43.471409805752" lon="10.635808878739532"><ele>360.0</ele><time>2026-04-19T08:27:10Z</time></trkpt><trkpt lat="43.471491899388404" lon="10.635824424568746"><ele>360.0</ele><time>2026-04-19T08:27:11Z</time></trkpt><trkpt lat="43.47157524189186" lon="10.635866982232677"><ele>360.0</ele><time>2026-04-19T08:27:12Z</time></trkpt><trkpt lat="43.47164406016599" lon="10.635911997578491"><ele>360.0</ele><time>2026-04-19T08:27:13Z</time></trkpt><trkpt lat="43.4717095398269" lon="10.63593606115441"><ele>360.0</ele><time>2026-04-19T08:27:14Z</time></trkpt><trkpt lat="43.47179384906533" lon="10.635964727668103"><ele>360.0</ele><time>2026-04-19T08:27:16Z</time></trkpt><trkpt lat="43.471857282047786" lon="10.63597416517787"><ele>360.0</ele><time>2026-04-19T08:27:24Z</time></trkpt><trkpt lat="43.47192436971435" lon="10.635987500186513"><ele>360.0</ele><time>2026-04-19T08:27:26Z</time></trkpt><trkpt lat="43.472002885595806" lon="10.636006449439353"><ele>360.0</ele><time>2026-04-19T08:27:36Z</time></trkpt><trkpt lat="43.47212961410659" lon="10.636041801319832"><ele>360.3333333333333</ele><time>2026-04-19T08:27:38Z</time></trkpt><trkpt lat="43.47217976442218" lon="10.636150870104963"><ele>360.6666666666667</ele><time>2026-04-19T08:27:39Z</time></trkpt><trkpt lat="43.47225542307513" lon="10.636159874304866"><ele>361.0</ele><time>2026-04-19T08:27:40Z</time></trkpt><trkpt lat="43.4723257418294" lon="10.636150731547263"><ele>361.33333333333337</ele><time>2026-04-19T08:27:41Z</time></trkpt><trkpt lat="43.47238847733264" lon="10.636139628025926"><ele>361.6666666666667</ele><time>2026-04-19T08:27:42Z</time></trkpt><trkpt lat="43.47247972450338" lon="10.636084481046936"><ele>362.0</ele><time>2026-04-19T08:27:44Z</time></trkpt><trkpt lat="43.47253800091439" lon="10.636125337388265"><ele>360.0</ele><time>2026-04-19T08:27:48Z</time></trkpt><trkpt lat="43.47247608687465" lon="10.636234384059058"><ele>358.0</ele><time>2026-04-19T08:27:51Z</time></trkpt><trkpt lat="43.47238187083384" lon="10.636297107131975"><ele>356.0</ele><time>2026-04-19T08:27:53Z</time></trkpt><trkpt lat="43.47228444231604" lon="10.636379024753902"><ele>354.0</ele><time>2026-04-19T08:27:55Z</time></trkpt><trkpt lat="43.47219769003717" lon="10.63645546056711"><ele>352.0</ele><time>2026-04-19T08:27:57Z</time></trkpt><trkpt lat="43.47211055322344" lon="10.636529310450507"><ele>352.66666666666663</ele><time>2026-04-19T08:27:59Z</time></trkpt><trkpt lat="43.47202504216447" lon="10.636601031851452"><ele>353.3333333333333</ele><time>2026-04-19T08:28:01Z</time></trkpt><trkpt lat="43.471970433790105" lon="10.636645927626137"><ele>354.0</ele><time>2026-04-19T08:28:02Z</time></trkpt><trkpt lat="43.47190666746153" lon="10.636694529236369"><ele>354.6666666666667</ele><time>2026-04-19T08:28:03Z</time></trkpt><trkpt lat="43.471822757961675" lon="10.636752042211993"><ele>355.33333333333337</ele><time>2026-04-19T08:28:05Z</time></trkpt><trkpt lat="43.47174553875749" lon="10.636813078951533"><ele>356.0</ele><time>2026-04-19T08:28:07Z</time></trkpt><trkpt lat="43.47166855474977" lon="10.636881837167346"><ele>354.8</ele><time>2026-04-19T08:28:09Z</time></trkpt><trkpt lat="43.47156303710531" lon="10.636969976114253"><ele>353.6</ele><time>2026-04-19T08:28:11Z</time></trkpt><trkpt lat="43.47149177415199" lon="10.637004987968439"><ele>352.4</ele><time>2026-04-19T08:28:12Z</time></trkpt><trkpt lat="43.47141158915693" lon="10.637094077293565"><ele>351.2</ele><time>2026-04-19T08:28:14Z</time></trkpt><trkpt lat="43.4713377273698" lon="10.637164109720779"><ele>350.0</ele><time>2026-04-19T08:28:38.001Z</time></trkpt><trkpt lat="43.47124590949166" lon="10.63724839800333"><ele>350.0</ele><time>2026-04-19T08:28:40.001Z</time></trkpt><trkpt lat="43.47114669278773" lon="10.637343949261314"><ele>350.0</ele><time>2026-04-19T08:28:42.001Z</time></trkpt><trkpt lat="43.47109329892705" lon="10.63739257065818"><ele>350.0</ele><time>2026-04-19T08:28:43.001Z</time></trkpt><trkpt lat="43.470991927239254" lon="10.637481614491056"><ele>350.0</ele><time>2026-04-19T08:28:45.001Z</time></trkpt><trkpt lat="43.470894935401674" lon="10.637586418894"><ele>350.0</ele><time>2026-04-19T08:28:47.001Z</time></trkpt><trkpt lat="43.47077566291221" lon="10.637656885028768"><ele>350.0</ele><time>2026-04-19T08:28:49.001Z</time></trkpt><trkpt lat="43.47069460734822" lon="10.637685285901979"><ele>350.0</ele><time>2026-04-19T08:28:50.001Z</time></trkpt><trkpt lat="43.47061414470556" lon="10.63771501534378"><ele>350.0</ele><time>2026-04-19T08:28:51.001Z</time></trkpt><trkpt lat="43.47053012371632" lon="10.63776898923822"><ele>350.0</ele><time>2026-04-19T08:28:52.001Z</time></trkpt><trkpt lat="43.47044107931764" lon="10.637827211705359"><ele>350.0</ele><time>2026-04-19T08:28:53.001Z</time></trkpt><trkpt lat="43.470356588661694" lon="10.637869072867248"><ele>350.0</ele><time>2026-04-19T08:28:54.001Z</time></trkpt><trkpt lat="43.47027523874562" lon="10.637902309291682"><ele>349.1666666666667</ele><time>2026-04-19T08:28:55.001Z</time></trkpt><trkpt lat="43.47019699810041" lon="10.637942342643706"><ele>348.33333333333337</ele><time>2026-04-19T08:28:56.001Z</time></trkpt><trkpt lat="43.470126453294476" lon="10.637985811996902"><ele>347.5</ele><time>2026-04-19T08:28:57.001Z</time></trkpt><trkpt lat="43.470053863499594" lon="10.638005475853722"><ele>346.6666666666667</ele><time>2026-04-19T08:28:58.001Z</time></trkpt><trkpt lat="43.46999478675087" lon="10.638041632804212"><ele>345.8333333333333</ele><time>2026-04-19T08:28:59.001Z</time></trkpt><trkpt lat="43.46992310394749" lon="10.638087389233423"><ele>345.0</ele><time>2026-04-19T08:29:00.001Z</time></trkpt><trkpt lat="43.46985385960754" lon="10.63813771716275"><ele>345.0</ele><time>2026-04-19T08:29:01.001Z</time></trkpt><trkpt lat="43.46978905418211" lon="10.638193816363009"><ele>345.0</ele><time>2026-04-19T08:29:02.001Z</time></trkpt><trkpt lat="43.46967689577885" lon="10.638315748083205"><ele>345.0</ele><time>2026-04-19T08:29:04.001Z</time></trkpt><trkpt lat="43.469629449655905" lon="10.63838866819031"><ele>345.0</ele><time>2026-04-19T08:29:05.001Z</time></trkpt><trkpt lat="43.469590100658166" lon="10.638470416590945"><ele>345.0</ele><time>2026-04-19T08:29:06.001Z</time></trkpt><trkpt lat="43.46957300064231" lon="10.638574953620076"><ele>345.0</ele><time>2026-04-19T08:29:07.001Z</time></trkpt><trkpt lat="43.46952887179005" lon="10.638668368271912"><ele>343.0</ele><time>2026-04-19T08:29:08.001Z</time></trkpt><trkpt lat="43.46952673618299" lon="10.638780630092413"><ele>341.0</ele><time>2026-04-19T08:29:09.001Z</time></trkpt><trkpt lat="43.46950675722833" lon="10.638883904632136"><ele>339.0</ele><time>2026-04-19T08:29:10.001Z</time></trkpt><trkpt lat="43.469462196598755" lon="10.638969194163765"><ele>337.0</ele><time>2026-04-19T08:29:11.001Z</time></trkpt><trkpt lat="43.46942843373715" lon="10.639062429197223"><ele>335.0</ele><time>2026-04-19T08:29:12.001Z</time></trkpt><trkpt lat="43.469389499977275" lon="10.639143548800572"><ele>333.0</ele><time>2026-04-19T08:29:13.001Z</time></trkpt><trkpt lat="43.469337562053134" lon="10.63921046051717"><ele>333.0</ele><time>2026-04-19T08:29:14.001Z</time></trkpt><trkpt lat="43.46927916141639" lon="10.63927244612634"><ele>333.0</ele><time>2026-04-19T08:29:14.999Z</time></trkpt><trkpt lat="43.46921645364359" lon="10.639336052575981"><ele>333.0</ele><time>2026-04-19T08:29:15.999Z</time></trkpt><trkpt lat="43.46915232598155" lon="10.63939725530796"><ele>333.0</ele><time>2026-04-19T08:29:16.999Z</time></trkpt><trkpt lat="43.46908777744522" lon="10.639448675654469"><ele>333.0</ele><time>2026-04-19T08:29:17.999Z</time></trkpt><trkpt lat="43.469020410683136" lon="10.639518106254789"><ele>333.0</ele><time>2026-04-19T08:29:18.999Z</time></trkpt><trkpt lat="43.46894052175648" lon="10.639567228881635"><ele>332.8571428571429</ele><time>2026-04-19T08:29:19.999Z</time></trkpt><trkpt lat="43.468877358044985" lon="10.639612493763929"><ele>332.71428571428567</ele><time>2026-04-19T08:29:20.999Z</time></trkpt><trkpt lat="43.468826589682806" lon="10.63966876552716"><ele>332.57142857142856</ele><time>2026-04-19T08:29:21.999Z</time></trkpt><trkpt lat="43.46876668594223" lon="10.639704485672944"><ele>332.42857142857144</ele><time>2026-04-19T08:29:22.999Z</time></trkpt><trkpt lat="43.46870299244029" lon="10.639743279400193"><ele>332.28571428571433</ele><time>2026-04-19T08:29:23.999Z</time></trkpt><trkpt lat="43.46863721900765" lon="10.63977344834235"><ele>332.1428571428571</ele><time>2026-04-19T08:29:24.999Z</time></trkpt><trkpt lat="43.46856994653764" lon="10.63979791853888"><ele>332.0</ele><time>2026-04-19T08:29:25.999Z</time></trkpt><trkpt lat="43.46850972057072" lon="10.63982551417679"><ele>332.0</ele><time>2026-04-19T08:29:26.999Z</time></trkpt><trkpt lat="43.46844872289517" lon="10.639861114719968"><ele>332.0</ele><time>2026-04-19T08:29:27.999Z</time></trkpt><trkpt lat="43.46838758664973" lon="10.63988664374586"><ele>332.0</ele><time>2026-04-19T08:29:28.999Z</time></trkpt><trkpt lat="43.46828011354548" lon="10.639956905453761"><ele>332.0</ele><time>2026-04-19T08:29:30.999Z</time></trkpt><trkpt lat="43.46818116452064" lon="10.640046599476115"><ele>332.0</ele><time>2026-04-19T08:29:33Z</time></trkpt><trkpt lat="43.46810008469372" lon="10.640158633697"><ele>332.0</ele><time>2026-04-19T08:29:35Z</time></trkpt><trkpt lat="43.4680495906682" lon="10.640263613796394"><ele>332.0</ele><time>2026-04-19T08:29:36Z</time></trkpt><trkpt lat="43.468005758308905" lon="10.640379562946816"><ele>332.0</ele><time>2026-04-19T08:29:37Z</time></trkpt><trkpt lat="43.46795600547717" lon="10.640505385424897"><ele>332.0</ele><time>2026-04-19T08:29:38Z</time></trkpt><trkpt lat="43.46791038162875" lon="10.640631067841033"><ele>332.0</ele><time>2026-04-19T08:29:39Z</time></trkpt><trkpt lat="43.46786702233743" lon="10.64075449921039"><ele>330.6666666666667</ele><time>2026-04-19T08:29:40Z</time></trkpt><trkpt lat="43.46782644818956" lon="10.64087479954539"><ele>329.33333333333337</ele><time>2026-04-19T08:29:41Z</time></trkpt><trkpt lat="43.467788447702816" lon="10.640990491694362"><ele>328.0</ele><time>2026-04-19T08:29:42Z</time></trkpt><trkpt lat="43.46775696804131" lon="10.641090420628908"><ele>326.6666666666667</ele><time>2026-04-19T08:29:43Z</time></trkpt><trkpt lat="43.46772080421095" lon="10.641182920330985"><ele>325.3333333333333</ele><time>2026-04-19T08:29:44Z</time></trkpt><trkpt lat="43.46769075568869" lon="10.641279003480534"><ele>324.0</ele><time>2026-04-19T08:29:45Z</time></trkpt><trkpt lat="43.46764871872696" lon="10.641375344010555"><ele>323.1666666666667</ele><time>2026-04-19T08:29:46Z</time></trkpt><trkpt lat="43.46761416515281" lon="10.641474659724466"><ele>322.3333333333333</ele><time>2026-04-19T08:29:47Z</time></trkpt><trkpt lat="43.46758131272302" lon="10.64156475382938"><ele>321.5</ele><time>2026-04-19T08:29:48Z</time></trkpt><trkpt lat="43.46754908557148" lon="10.641656243706109"><ele>320.66666666666663</ele><time>2026-04-19T08:29:49Z</time></trkpt><trkpt lat="43.46751256160091" lon="10.641745116570796"><ele>319.8333333333333</ele><time>2026-04-19T08:29:50Z</time></trkpt><trkpt lat="43.46747143204583" lon="10.641842480926734"><ele>319.0</ele><time>2026-04-19T08:29:51Z</time></trkpt><trkpt lat="43.46743036008529" lon="10.6419318797523"><ele>317.8333333333333</ele><time>2026-04-19T08:29:52Z</time></trkpt><trkpt lat="43.46737910053596" lon="10.642020471215158"><ele>316.66666666666663</ele><time>2026-04-19T08:29:53Z</time></trkpt><trkpt lat="43.46732276486241" lon="10.642117119629924"><ele>315.5</ele><time>2026-04-19T08:29:54Z</time></trkpt><trkpt lat="43.46727287901701" lon="10.642206376786286"><ele>314.3333333333333</ele><time>2026-04-19T08:29:55Z</time></trkpt><trkpt lat="43.46721694339884" lon="10.642290784170953"><ele>313.1666666666667</ele><time>2026-04-19T08:29:56Z</time></trkpt><trkpt lat="43.46715801354771" lon="10.642363108489585"><ele>312.0</ele><time>2026-04-19T08:29:57Z</time></trkpt><trkpt lat="43.467086677207206" lon="10.642416358129065"><ele>311.0</ele><time>2026-04-19T08:29:58Z</time></trkpt><trkpt lat="43.467036780321145" lon="10.642488773603816"><ele>310.0</ele><time>2026-04-19T08:29:59Z</time></trkpt><trkpt lat="43.46694609977715" lon="10.642596970921785"><ele>309.0</ele><time>2026-04-19T08:30:01Z</time></trkpt><trkpt lat="43.4668717053049" lon="10.642655393340512"><ele>308.0</ele><time>2026-04-19T08:30:03Z</time></trkpt><trkpt lat="43.466925153887544" lon="10.642904383848178"><ele>307.0</ele><time>2026-04-19T08:30:06Z</time></trkpt><trkpt lat="43.46693919200501" lon="10.642994563703928"><ele>306.0</ele><time>2026-04-19T08:30:07Z</time></trkpt><trkpt lat="43.46691415082838" lon="10.643093234642295"><ele>305.0</ele><time>2026-04-19T08:30:08Z</time></trkpt><trkpt lat="43.46687335341544" lon="10.643201864936941"><ele>304.0</ele><time>2026-04-19T08:30:09Z</time></trkpt><trkpt lat="43.466818724657614" lon="10.64331750800528"><ele>303.0</ele><time>2026-04-19T08:30:10Z</time></trkpt><trkpt lat="43.46676999063498" lon="10.643432456826952"><ele>302.0</ele><time>2026-04-19T08:30:11Z</time></trkpt><trkpt lat="43.46672848575109" lon="10.643551165458502"><ele>301.0</ele><time>2026-04-19T08:30:12Z</time></trkpt><trkpt lat="43.46668734566115" lon="10.643678001685418"><ele>300.0</ele><time>2026-04-19T08:30:13Z</time></trkpt><trkpt lat="43.4666456398782" lon="10.643791778291623"><ele>299.0</ele><time>2026-04-19T08:30:14Z</time></trkpt><trkpt lat="43.46660785674141" lon="10.643899818553068"><ele>298.0</ele><time>2026-04-19T08:30:15Z</time></trkpt><trkpt lat="43.46657025178427" lon="10.644007103481856"><ele>297.0</ele><time>2026-04-19T08:30:16Z</time></trkpt><trkpt lat="43.46653702853796" lon="10.644113518849254"><ele>297.0</ele><time>2026-04-19T08:30:17Z</time></trkpt><trkpt lat="43.46649551751341" lon="10.644233139946333"><ele>297.0</ele><time>2026-04-19T08:30:18Z</time></trkpt><trkpt lat="43.466447981934834" lon="10.644355224929667"><ele>297.0</ele><time>2026-04-19T08:30:19Z</time></trkpt><trkpt lat="43.46640503682798" lon="10.644466980968469"><ele>297.0</ele><time>2026-04-19T08:30:20Z</time></trkpt><trkpt lat="43.46636529371592" lon="10.64458003281011"><ele>297.0</ele><time>2026-04-19T08:30:21Z</time></trkpt><trkpt lat="43.46633191307428" lon="10.644698172766908"><ele>296.2</ele><time>2026-04-19T08:30:22Z</time></trkpt><trkpt lat="43.46629623577501" lon="10.64482503465967"><ele>295.4</ele><time>2026-04-19T08:30:23Z</time></trkpt><trkpt lat="43.46626100250887" lon="10.644945289598459"><ele>294.6</ele><time>2026-04-19T08:30:24Z</time></trkpt><trkpt lat="43.466233613298854" lon="10.645061062291878"><ele>293.8</ele><time>2026-04-19T08:30:25Z</time></trkpt><trkpt lat="43.466210809194806" lon="10.645179975397246"><ele>293.0</ele><time>2026-04-19T08:30:26Z</time></trkpt><trkpt lat="43.466183101013826" lon="10.645317748048313"><ele>291.75</ele><time>2026-04-19T08:30:27Z</time></trkpt><trkpt lat="43.46614851041946" lon="10.645470599677731"><ele>290.5</ele><time>2026-04-19T08:30:28Z</time></trkpt><trkpt lat="43.4661124663123" lon="10.645629027652989"><ele>289.25</ele><time>2026-04-19T08:30:29Z</time></trkpt><trkpt lat="43.46607809567794" lon="10.645768634055457"><ele>288.0</ele><time>2026-04-19T08:30:30Z</time></trkpt><trkpt lat="43.46604831619305" lon="10.645914010734652"><ele>288.0</ele><time>2026-04-19T08:30:31Z</time></trkpt><trkpt lat="43.46601608287151" lon="10.646074226709114"><ele>288.0</ele><time>2026-04-19T08:30:32Z</time></trkpt><trkpt lat="43.46598867283818" lon="10.646235061879347"><ele>288.0</ele><time>2026-04-19T08:30:33Z</time></trkpt><trkpt lat="43.465966467222415" lon="10.646393847190785"><ele>288.0</ele><time>2026-04-19T08:30:34Z</time></trkpt><trkpt lat="43.4659481040026" lon="10.646550648448038"><ele>288.0</ele><time>2026-04-19T08:30:35.001Z</time></trkpt><trkpt lat="43.4659303453712" lon="10.646710638779815"><ele>288.0</ele><time>2026-04-19T08:30:36.001Z</time></trkpt><trkpt lat="43.46591684791127" lon="10.64687972845809"><ele>288.0</ele><time>2026-04-19T08:30:37.001Z</time></trkpt><trkpt lat="43.46590380384786" lon="10.647046674772353"><ele>288.0</ele><time>2026-04-19T08:30:38.001Z</time></trkpt><trkpt lat="43.46589251122207" lon="10.647207981675061"><ele>288.0</ele><time>2026-04-19T08:30:39.001Z</time></trkpt><trkpt lat="43.46587468334891" lon="10.64735813203549"><ele>288.0</ele><time>2026-04-19T08:30:40.001Z</time></trkpt><trkpt lat="43.4658574096207" lon="10.64750231662743"><ele>288.0</ele><time>2026-04-19T08:30:41.001Z</time></trkpt><trkpt lat="43.46584253497162" lon="10.647628366166034"><ele>288.0</ele><time>2026-04-19T08:30:42.001Z</time></trkpt><trkpt lat="43.465826583569445" lon="10.647747792647762"><ele>288.0</ele><time>2026-04-19T08:30:43.001Z</time></trkpt><trkpt lat="43.46581205154566" lon="10.647858349733518"><ele>289.1666666666667</ele><time>2026-04-19T08:30:44.001Z</time></trkpt><trkpt lat="43.465797762688375" lon="10.64795949572823"><ele>290.3333333333333</ele><time>2026-04-19T08:30:45.001Z</time></trkpt><trkpt lat="43.465780148751605" lon="10.648064878824549"><ele>291.5</ele><time>2026-04-19T08:30:46.001Z</time></trkpt><trkpt lat="43.46576759475047" lon="10.648169663741392"><ele>292.66666666666663</ele><time>2026-04-19T08:30:47.001Z</time></trkpt><trkpt lat="43.46575546122161" lon="10.648276343690972"><ele>293.8333333333333</ele><time>2026-04-19T08:30:48.001Z</time></trkpt><trkpt lat="43.46573865692277" lon="10.648378020499205"><ele>295.0</ele><time>2026-04-19T08:30:49.001Z</time></trkpt><trkpt lat="43.4657247764907" lon="10.648490147118794"><ele>295.0</ele><time>2026-04-19T08:30:50.001Z</time></trkpt><trkpt lat="43.46570383011985" lon="10.648596942043417"><ele>295.0</ele><time>2026-04-19T08:30:51.001Z</time></trkpt><trkpt lat="43.46568378329319" lon="10.648700817403713"><ele>295.0</ele><time>2026-04-19T08:30:52.001Z</time></trkpt><trkpt lat="43.46566248028848" lon="10.648814977479422"><ele>295.0</ele><time>2026-04-19T08:30:53.001Z</time></trkpt><trkpt lat="43.46564354247121" lon="10.64892742164378"><ele>295.0</ele><time>2026-04-19T08:30:54.001Z</time></trkpt><trkpt lat="43.46562286917776" lon="10.649041697964693"><ele>295.0</ele><time>2026-04-19T08:30:55.001Z</time></trkpt><trkpt lat="43.46560237486512" lon="10.649155294914696"><ele>297.4</ele><time>2026-04-19T08:30:56.001Z</time></trkpt><trkpt lat="43.465580845318" lon="10.649258299047641"><ele>299.8</ele><time>2026-04-19T08:30:57.001Z</time></trkpt><trkpt lat="43.46555874635543" lon="10.649376238084214"><ele>302.2</ele><time>2026-04-19T08:30:58.001Z</time></trkpt><trkpt lat="43.46553078699784" lon="10.649502207542126"><ele>304.6</ele><time>2026-04-19T08:30:59.001Z</time></trkpt><trkpt lat="43.46550470960306" lon="10.649633623422016"><ele>307.0</ele><time>2026-04-19T08:31:00.001Z</time></trkpt><trkpt lat="43.465481853033154" lon="10.649752385386744"><ele>307.0</ele><time>2026-04-19T08:31:01.001Z</time></trkpt><trkpt lat="43.46546032596555" lon="10.649852791913696"><ele>307.0</ele><time>2026-04-19T08:31:02.001Z</time></trkpt><trkpt lat="43.465440161999666" lon="10.64994662811376"><ele>307.0</ele><time>2026-04-19T08:31:03.001Z</time></trkpt><trkpt lat="43.465419565721234" lon="10.65005486744186"><ele>307.0</ele><time>2026-04-19T08:31:04.001Z</time></trkpt><trkpt lat="43.46539445789156" lon="10.650163715748151"><ele>307.0</ele><time>2026-04-19T08:31:05.001Z</time></trkpt><trkpt lat="43.46538211438834" lon="10.65027286838079"><ele>307.0</ele><time>2026-04-19T08:31:06.001Z</time></trkpt><trkpt lat="43.465370884859354" lon="10.65038968957111"><ele>307.2</ele><time>2026-04-19T08:31:07.001Z</time></trkpt><trkpt lat="43.465364325900254" lon="10.650524061438619"><ele>307.4</ele><time>2026-04-19T08:31:08.001Z</time></trkpt><trkpt lat="43.46535896431518" lon="10.650662617928404"><ele>307.6</ele><time>2026-04-19T08:31:09.001Z</time></trkpt><trkpt lat="43.465341550588505" lon="10.650807609150727"><ele>307.8</ele><time>2026-04-19T08:31:10.001Z</time></trkpt><trkpt lat="43.4653247615596" lon="10.650938615978225"><ele>308.0</ele><time>2026-04-19T08:31:11.001Z</time></trkpt><trkpt lat="43.46530489559628" lon="10.65107352636225"><ele>307.6</ele><time>2026-04-19T08:31:12.001Z</time></trkpt><trkpt lat="43.46528507563535" lon="10.651208551406496"><ele>307.20000000000005</ele><time>2026-04-19T08:31:13.001Z</time></trkpt><trkpt lat="43.46526446628287" lon="10.65134573323201"><ele>306.8</ele><time>2026-04-19T08:31:14.001Z</time></trkpt><trkpt lat="43.46524933532175" lon="10.651480554455995"><ele>306.40000000000003</ele><time>2026-04-19T08:31:15.001Z</time></trkpt><trkpt lat="43.465234899200276" lon="10.651625189253908"><ele>306.0</ele><time>2026-04-19T08:31:16.001Z</time></trkpt><trkpt lat="43.46521525973991" lon="10.65175786413414"><ele>306.0</ele><time>2026-04-19T08:31:17.001Z</time></trkpt><trkpt lat="43.465193490238306" lon="10.651894345937707"><ele>306.0</ele><time>2026-04-19T08:31:18.001Z</time></trkpt><trkpt lat="43.465168145129454" lon="10.65203816094187"><ele>306.0</ele><time>2026-04-19T08:31:19.001Z</time></trkpt><trkpt lat="43.46513970575875" lon="10.65218980344242"><ele>306.0</ele><time>2026-04-19T08:31:20.001Z</time></trkpt><trkpt lat="43.46511397190311" lon="10.652325028463652"><ele>306.0</ele><time>2026-04-19T08:31:20.999Z</time></trkpt><trkpt lat="43.4650978354873" lon="10.65244825151581"><ele>305.6</ele><time>2026-04-19T08:31:21.999Z</time></trkpt><trkpt lat="43.465100669257005" lon="10.652573422863291"><ele>305.20000000000005</ele><time>2026-04-19T08:31:22.999Z</time></trkpt><trkpt lat="43.46512193180742" lon="10.652716757677783"><ele>304.79999999999995</ele><time>2026-04-19T08:31:23.999Z</time></trkpt><trkpt lat="43.46515400764037" lon="10.652868183740923"><ele>304.4</ele><time>2026-04-19T08:31:24.999Z</time></trkpt><trkpt lat="43.46520025181736" lon="10.653021031212013"><ele>304.0</ele><time>2026-04-19T08:31:25.999Z</time></trkpt><trkpt lat="43.46524599253175" lon="10.653186073291343"><ele>303.25</ele><time>2026-04-19T08:31:26.999Z</time></trkpt><trkpt lat="43.46529040702832" lon="10.653368344514432"><ele>302.5</ele><time>2026-04-19T08:31:27.999Z</time></trkpt><trkpt lat="43.46533419973113" lon="10.653544475897611"><ele>301.75</ele><time>2026-04-19T08:31:28.999Z</time></trkpt><trkpt lat="43.46537372237371" lon="10.653711816588196"><ele>301.0</ele><time>2026-04-19T08:31:29.999Z</time></trkpt><trkpt lat="43.46541331800489" lon="10.653880654780101"><ele>299.5</ele><time>2026-04-19T08:31:30.999Z</time></trkpt><trkpt lat="43.46545474557039" lon="10.65405974186368"><ele>298.0</ele><time>2026-04-19T08:31:31.999Z</time></trkpt><trkpt lat="43.46549514149281" lon="10.654243963881578"><ele>296.5</ele><time>2026-04-19T08:31:32.999Z</time></trkpt><trkpt lat="43.46553816825123" lon="10.654408564013982"><ele>295.0</ele><time>2026-04-19T08:31:33.999Z</time></trkpt><trkpt lat="43.465575733977865" lon="10.654572967149909"><ele>294.0</ele><time>2026-04-19T08:31:34.999Z</time></trkpt><trkpt lat="43.46561906239589" lon="10.654753930795689"><ele>293.0</ele><time>2026-04-19T08:31:35.999Z</time></trkpt><trkpt lat="43.46566552261266" lon="10.65494555381674"><ele>292.0</ele><time>2026-04-19T08:31:36.999Z</time></trkpt><trkpt lat="43.46570417432361" lon="10.655126860784213"><ele>291.0</ele><time>2026-04-19T08:31:37.999Z</time></trkpt><trkpt lat="43.465747773442985" lon="10.655296788919156"><ele>290.0</ele><time>2026-04-19T08:31:38.999Z</time></trkpt><trkpt lat="43.465785590108865" lon="10.655463354397824"><ele>289.0</ele><time>2026-04-19T08:31:39.999Z</time></trkpt><trkpt lat="43.46582274610373" lon="10.655630209959469"><ele>288.0</ele><time>2026-04-19T08:31:40.999Z</time></trkpt><trkpt lat="43.465860493341125" lon="10.655784049969263"><ele>287.0</ele><time>2026-04-19T08:31:41.999Z</time></trkpt><trkpt lat="43.46589352427843" lon="10.655933985525152"><ele>287.0</ele><time>2026-04-19T08:31:42.999Z</time></trkpt><trkpt lat="43.46592646814708" lon="10.656094675586447"><ele>287.0</ele><time>2026-04-19T08:31:44Z</time></trkpt><trkpt lat="43.46596624380901" lon="10.656256591093612"><ele>287.0</ele><time>2026-04-19T08:31:45Z</time></trkpt><trkpt lat="43.46600317296576" lon="10.656412848322988"><ele>287.0</ele><time>2026-04-19T08:31:46Z</time></trkpt><trkpt lat="43.46603832531086" lon="10.656568531888961"><ele>285.8</ele><time>2026-04-19T08:31:47Z</time></trkpt><trkpt lat="43.466068500719246" lon="10.656714937613977"><ele>284.6</ele><time>2026-04-19T08:31:48Z</time></trkpt><trkpt lat="43.466102614138286" lon="10.656858726476948"><ele>283.40000000000003</ele><time>2026-04-19T08:31:49Z</time></trkpt><trkpt lat="43.4661366540737" lon="10.656992748850984"><ele>282.2</ele><time>2026-04-19T08:31:50Z</time></trkpt><trkpt lat="43.4661656708642" lon="10.657126242495913"><ele>281.0</ele><time>2026-04-19T08:31:51Z</time></trkpt><trkpt lat="43.46619310406327" lon="10.657251094745249"><ele>280.1666666666667</ele><time>2026-04-19T08:31:52Z</time></trkpt><trkpt lat="43.46621963007853" lon="10.65736970525408"><ele>279.33333333333337</ele><time>2026-04-19T08:31:53Z</time></trkpt><trkpt lat="43.46624941993235" lon="10.657486041815641"><ele>278.5</ele><time>2026-04-19T08:31:54Z</time></trkpt><trkpt lat="43.4662819441303" lon="10.657591087359668"><ele>277.6666666666667</ele><time>2026-04-19T08:31:55Z</time></trkpt><trkpt lat="43.466324205741316" lon="10.657672223666337"><ele>276.8333333333333</ele><time>2026-04-19T08:31:56Z</time></trkpt><trkpt lat="43.46639349814133" lon="10.657762316561799"><ele>276.0</ele><time>2026-04-19T08:31:57Z</time></trkpt><trkpt lat="43.46647444462163" lon="10.65786059151192"><ele>274.5</ele><time>2026-04-19T08:31:58Z</time></trkpt><trkpt lat="43.46656618974774" lon="10.657963853251056"><ele>273.0</ele><time>2026-04-19T08:31:59Z</time></trkpt><trkpt lat="43.46666253836224" lon="10.658062873518706"><ele>271.5</ele><time>2026-04-19T08:32:00Z</time></trkpt><trkpt lat="43.46676354104586" lon="10.658162368678187"><ele>270.0</ele><time>2026-04-19T08:32:01Z</time></trkpt><trkpt lat="43.466879726403846" lon="10.658282628436474"><ele>270.0</ele><time>2026-04-19T08:32:02Z</time></trkpt><trkpt lat="43.46700975938342" lon="10.658421832933215"><ele>270.0</ele><time>2026-04-19T08:32:03Z</time></trkpt><trkpt lat="43.46713313039765" lon="10.658554454228536"><ele>270.0</ele><time>2026-04-19T08:32:04Z</time></trkpt><trkpt lat="43.467241477534785" lon="10.658667812617132"><ele>266.75</ele><time>2026-04-19T08:32:05Z</time></trkpt><trkpt lat="43.467338534483396" lon="10.658771166850931"><ele>263.5</ele><time>2026-04-19T08:32:06Z</time></trkpt><trkpt lat="43.46743438665467" lon="10.658871986835026"><ele>260.25</ele><time>2026-04-19T08:32:07Z</time></trkpt><trkpt lat="43.46753082854736" lon="10.658979062788669"><ele>257.0</ele><time>2026-04-19T08:32:08Z</time></trkpt><trkpt lat="43.46763102618667" lon="10.659096267133227"><ele>257.0</ele><time>2026-04-19T08:32:09Z</time></trkpt><trkpt lat="43.46772749446618" lon="10.659226072648824"><ele>257.0</ele><time>2026-04-19T08:32:10Z</time></trkpt><trkpt lat="43.46782481968136" lon="10.659366235491776"><ele>257.0</ele><time>2026-04-19T08:32:11Z</time></trkpt><trkpt lat="43.467917939005986" lon="10.659504548166318"><ele>257.0</ele><time>2026-04-19T08:32:12Z</time></trkpt><trkpt lat="43.4680089909375" lon="10.659631617919208"><ele>253.75</ele><time>2026-04-19T08:32:13Z</time></trkpt><trkpt lat="43.46810022236072" lon="10.659756938632327"><ele>250.5</ele><time>2026-04-19T08:32:14Z</time></trkpt><trkpt lat="43.46819365973262" lon="10.659897066835061"><ele>247.25</ele><time>2026-04-19T08:32:15Z</time></trkpt><trkpt lat="43.468295246383875" lon="10.660042037346484"><ele>244.0</ele><time>2026-04-19T08:32:16Z</time></trkpt><trkpt lat="43.46839066735122" lon="10.660178289136411"><ele>242.0</ele><time>2026-04-19T08:32:17Z</time></trkpt><trkpt lat="43.468481979386006" lon="10.660312154678243"><ele>240.0</ele><time>2026-04-19T08:32:18Z</time></trkpt><trkpt lat="43.468570162692075" lon="10.660438628464556"><ele>238.0</ele><time>2026-04-19T08:32:19Z</time></trkpt><trkpt lat="43.468658696446724" lon="10.660574026222719"><ele>236.0</ele><time>2026-04-19T08:32:20Z</time></trkpt><trkpt lat="43.46874946684408" lon="10.66072376432842"><ele>235.5</ele><time>2026-04-19T08:32:21Z</time></trkpt><trkpt lat="43.4688340791389" lon="10.660874066513307"><ele>235.0</ele><time>2026-04-19T08:32:22Z</time></trkpt><trkpt lat="43.46891296850414" lon="10.661031503687944"><ele>234.5</ele><time>2026-04-19T08:32:23Z</time></trkpt><trkpt lat="43.468985207643605" lon="10.661192847262598"><ele>234.0</ele><time>2026-04-19T08:32:24Z</time></trkpt><trkpt lat="43.469047903809894" lon="10.661346382265146"><ele>234.0</ele><time>2026-04-19T08:32:25Z</time></trkpt><trkpt lat="43.46910679194763" lon="10.661483872099321"><ele>233.99999999999997</ele><time>2026-04-19T08:32:26Z</time></trkpt><trkpt lat="43.469161824143825" lon="10.661610723583157"><ele>233.99999999999997</ele><time>2026-04-19T08:32:27Z</time></trkpt><trkpt lat="43.46921590272059" lon="10.661734355898826"><ele>234.0</ele><time>2026-04-19T08:32:28Z</time></trkpt><trkpt lat="43.46927876667497" lon="10.661859512888519"><ele>234.0</ele><time>2026-04-19T08:32:29Z</time></trkpt><trkpt lat="43.46935240846774" lon="10.66197973801898"><ele>234.0</ele><time>2026-04-19T08:32:30Z</time></trkpt><trkpt lat="43.46942694989261" lon="10.662085419685294"><ele>233.99999999999997</ele><time>2026-04-19T08:32:31Z</time></trkpt><trkpt lat="43.46950546388656" lon="10.662178316385901"><ele>233.99999999999997</ele><time>2026-04-19T08:32:32Z</time></trkpt><trkpt lat="43.469586477519194" lon="10.662274158368394"><ele>234.0</ele><time>2026-04-19T08:32:33.001Z</time></trkpt><trkpt lat="43.46966501554302" lon="10.662384691084199"><ele>234.0</ele><time>2026-04-19T08:32:34.001Z</time></trkpt><trkpt lat="43.46975066101909" lon="10.662492141544458"><ele>232.79999999999998</ele><time>2026-04-19T08:32:35.001Z</time></trkpt><trkpt lat="43.46983282846064" lon="10.662593869314897"><ele>231.59999999999997</ele><time>2026-04-19T08:32:36.001Z</time></trkpt><trkpt lat="43.46989783658224" lon="10.662700967817841"><ele>230.4</ele><time>2026-04-19T08:32:37.001Z</time></trkpt><trkpt lat="43.469980700677795" lon="10.662775507542891"><ele>229.2</ele><time>2026-04-19T08:32:38.001Z</time></trkpt><trkpt lat="43.47004643993495" lon="10.66286399622925"><ele>228.0</ele><time>2026-04-19T08:32:39.001Z</time></trkpt><trkpt lat="43.47011658927162" lon="10.662951131605087"><ele>227.2</ele><time>2026-04-19T08:32:40.001Z</time></trkpt><trkpt lat="43.470166877032085" lon="10.663058797890594"><ele>226.4</ele><time>2026-04-19T08:32:41.001Z</time></trkpt><trkpt lat="43.47022525684011" lon="10.663153655968625"><ele>225.59999999999997</ele><time>2026-04-19T08:32:42.001Z</time></trkpt><trkpt lat="43.47027353477213" lon="10.663272292518284"><ele>224.79999999999998</ele><time>2026-04-19T08:32:43.001Z</time></trkpt><trkpt lat="43.470271418580815" lon="10.663447359576166"><ele>224.0</ele><time>2026-04-19T08:32:44.001Z</time></trkpt><trkpt lat="43.47026581287382" lon="10.663620714048852"><ele>223.0</ele><time>2026-04-19T08:32:45.001Z</time></trkpt><trkpt lat="43.47027279891839" lon="10.663785855146541"><ele>221.99999999999997</ele><time>2026-04-19T08:32:46.001Z</time></trkpt><trkpt lat="43.47026562382515" lon="10.663936834420255"><ele>220.99999999999997</ele><time>2026-04-19T08:32:47.001Z</time></trkpt><trkpt lat="43.47024258348488" lon="10.664066436390106"><ele>220.0</ele><time>2026-04-19T08:32:48.001Z</time></trkpt><trkpt lat="43.470242636856135" lon="10.664205675386446"><ele>219.0</ele><time>2026-04-19T08:32:49.001Z</time></trkpt><trkpt lat="43.47025290762539" lon="10.664330482709495"><ele>218.6</ele><time>2026-04-19T08:32:50.001Z</time></trkpt><trkpt lat="43.47029883798191" lon="10.664451634978095"><ele>218.2</ele><time>2026-04-19T08:32:51.001Z</time></trkpt><trkpt lat="43.47034996586286" lon="10.664583041210905"><ele>217.79999999999998</ele><time>2026-04-19T08:32:52.001Z</time></trkpt><trkpt lat="43.470418833304066" lon="10.664721413000393"><ele>217.39999999999998</ele><time>2026-04-19T08:32:53.001Z</time></trkpt><trkpt lat="43.47047863775843" lon="10.664857220106006"><ele>217.0</ele><time>2026-04-19T08:32:54.001Z</time></trkpt><trkpt lat="43.470535409187484" lon="10.664989739123655"><ele>213.8</ele><time>2026-04-19T08:32:55.001Z</time></trkpt><trkpt lat="43.47060082982978" lon="10.665115963891152"><ele>210.6</ele><time>2026-04-19T08:32:56.001Z</time></trkpt><trkpt lat="43.470668281341446" lon="10.665236803180102"><ele>207.4</ele><time>2026-04-19T08:32:57.001Z</time></trkpt><trkpt lat="43.47074758866839" lon="10.665335742019115"><ele>204.20000000000002</ele><time>2026-04-19T08:32:58.001Z</time></trkpt><trkpt lat="43.47083426623727" lon="10.665412063708372"><ele>201.0</ele><time>2026-04-19T08:32:59.001Z</time></trkpt><trkpt lat="43.47092973576333" lon="10.665470744568099"><ele>199.25</ele><time>2026-04-19T08:33:00.001Z</time></trkpt><trkpt lat="43.471044070709674" lon="10.665546116961057"><ele>197.5</ele><time>2026-04-19T08:33:01.001Z</time></trkpt><trkpt lat="43.47116580139801" lon="10.66564136657894"><ele>195.75</ele><time>2026-04-19T08:33:02.001Z</time></trkpt><trkpt lat="43.4712960858962" lon="10.665742370835323"><ele>194.0</ele><time>2026-04-19T08:33:03.001Z</time></trkpt><trkpt lat="43.471414929980845" lon="10.665833763378272"><ele>193.5</ele><time>2026-04-19T08:33:04.001Z</time></trkpt><trkpt lat="43.47151579912494" lon="10.665912683368152"><ele>193.0</ele><time>2026-04-19T08:33:05.001Z</time></trkpt><trkpt lat="43.47161407416475" lon="10.665989414994145"><ele>192.5</ele><time>2026-04-19T08:33:06.001Z</time></trkpt><trkpt lat="43.47171239197673" lon="10.666066950956827"><ele>192.0</ele><time>2026-04-19T08:33:07.001Z</time></trkpt><trkpt lat="43.47182301453427" lon="10.666149684705333"><ele>190.75</ele><time>2026-04-19T08:33:08.001Z</time></trkpt><trkpt lat="43.471934049983616" lon="10.666236443306992"><ele>189.5</ele><time>2026-04-19T08:33:09.001Z</time></trkpt><trkpt lat="43.47203489416179" lon="10.6663122350173"><ele>188.25</ele><time>2026-04-19T08:33:10.001Z</time></trkpt><trkpt lat="43.47213433073516" lon="10.666384984958157"><ele>187.0</ele><time>2026-04-19T08:33:11.001Z</time></trkpt><trkpt lat="43.47223664520976" lon="10.66646223679068"><ele>187.0</ele><time>2026-04-19T08:33:12.001Z</time></trkpt><trkpt lat="43.47234279613246" lon="10.666541540783383"><ele>187.0</ele><time>2026-04-19T08:33:13.001Z</time></trkpt><trkpt lat="43.47245032454721" lon="10.666626105797297"><ele>187.0</ele><time>2026-04-19T08:33:14.001Z</time></trkpt><trkpt lat="43.47255456802558" lon="10.666707598222494"><ele>187.0</ele><time>2026-04-19T08:33:15.001Z</time></trkpt><trkpt lat="43.472653070353935" lon="10.666787366978022"><ele>187.0</ele><time>2026-04-19T08:33:16.001Z</time></trkpt><trkpt lat="43.472752486025186" lon="10.66687758681576"><ele>187.0</ele><time>2026-04-19T08:33:17.001Z</time></trkpt><trkpt lat="43.472839601017384" lon="10.666976399716225"><ele>187.0</ele><time>2026-04-19T08:33:18.001Z</time></trkpt><trkpt lat="43.472909897195976" lon="10.667082498776214"><ele>187.0</ele><time>2026-04-19T08:33:19.001Z</time></trkpt><trkpt lat="43.47297273366935" lon="10.66720090932613"><ele>187.0</ele><time>2026-04-19T08:33:20.001Z</time></trkpt><trkpt lat="43.47302981810149" lon="10.667336729629737"><ele>185.6</ele><time>2026-04-19T08:33:21.001Z</time></trkpt><trkpt lat="43.47308989541633" lon="10.667470939243891"><ele>184.2</ele><time>2026-04-19T08:33:22.001Z</time></trkpt><trkpt lat="43.47315389418138" lon="10.667588326335714"><ele>182.8</ele><time>2026-04-19T08:33:23.001Z</time></trkpt><trkpt lat="43.473228340020334" lon="10.667690880969733"><ele>181.4</ele><time>2026-04-19T08:33:24.001Z</time></trkpt><trkpt lat="43.47331879554424" lon="10.66777140083206"><ele>180.0</ele><time>2026-04-19T08:33:25.001Z</time></trkpt><trkpt lat="43.47340837513231" lon="10.667832738589338"><ele>179.0</ele><time>2026-04-19T08:33:26.001Z</time></trkpt><trkpt lat="43.47350157686264" lon="10.667882388122331"><ele>178.0</ele><time>2026-04-19T08:33:27Z</time></trkpt><trkpt lat="43.47360428817412" lon="10.667919577235033"><ele>177.0</ele><time>2026-04-19T08:33:28Z</time></trkpt><trkpt lat="43.47371850640125" lon="10.667970832089848"><ele>176.0</ele><time>2026-04-19T08:33:29Z</time></trkpt><trkpt lat="43.473834385118565" lon="10.668024929355072"><ele>175.0</ele><time>2026-04-19T08:33:30Z</time></trkpt><trkpt lat="43.473947060913844" lon="10.668085764972048"><ele>174.0</ele><time>2026-04-19T08:33:31Z</time></trkpt><trkpt lat="43.47405398961248" lon="10.668130948699746"><ele>173.0</ele><time>2026-04-19T08:33:32Z</time></trkpt><trkpt lat="43.47417185575687" lon="10.66818070545075"><ele>172.0</ele><time>2026-04-19T08:33:33Z</time></trkpt><trkpt lat="43.47429798551206" lon="10.668239772947658"><ele>171.0</ele><time>2026-04-19T08:33:34Z</time></trkpt><trkpt lat="43.474419622038056" lon="10.66828344145972"><ele>171.0</ele><time>2026-04-19T08:33:35Z</time></trkpt><trkpt lat="43.47453176863721" lon="10.668328322501473"><ele>171.0</ele><time>2026-04-19T08:33:36Z</time></trkpt><trkpt lat="43.474639882876424" lon="10.66838518436684"><ele>171.0</ele><time>2026-04-19T08:33:37Z</time></trkpt><trkpt lat="43.47474545821657" lon="10.668443630185488"><ele>171.0</ele><time>2026-04-19T08:33:38Z</time></trkpt><trkpt lat="43.47485108478202" lon="10.668508498218737"><ele>170.0</ele><time>2026-04-19T08:33:39Z</time></trkpt><trkpt lat="43.474948757342574" lon="10.668591891751104"><ele>169.0</ele><time>2026-04-19T08:33:40Z</time></trkpt><trkpt lat="43.47504336759951" lon="10.66869330283371"><ele>168.0</ele><time>2026-04-19T08:33:41Z</time></trkpt><trkpt lat="43.47512452850116" lon="10.668823229592103"><ele>167.0</ele><time>2026-04-19T08:33:42Z</time></trkpt><trkpt lat="43.47520539977223" lon="10.66891035670775"><ele>167.0</ele><time>2026-04-19T08:33:43Z</time></trkpt><trkpt lat="43.47529165071015" lon="10.668975797298065"><ele>167.0</ele><time>2026-04-19T08:33:44Z</time></trkpt><trkpt lat="43.47538648176961" lon="10.66901783959345"><ele>167.0</ele><time>2026-04-19T08:33:45Z</time></trkpt><trkpt lat="43.47551532133468" lon="10.668994580059486"><ele>167.0</ele><time>2026-04-19T08:33:46Z</time></trkpt><trkpt lat="43.47565550603691" lon="10.668955911775084"><ele>163.33333333333331</ele><time>2026-04-19T08:33:47Z</time></trkpt><trkpt lat="43.47580371289276" lon="10.668925737550046"><ele>159.66666666666666</ele><time>2026-04-19T08:33:48Z</time></trkpt><trkpt lat="43.47595432521115" lon="10.668880905423311"><ele>156.0</ele><time>2026-04-19T08:33:49Z</time></trkpt><trkpt lat="43.47610635215154" lon="10.668834907563209"><ele>156.0</ele><time>2026-04-19T08:33:50Z</time></trkpt><trkpt lat="43.476247860316825" lon="10.66879272066762"><ele>156.0</ele><time>2026-04-19T08:33:51Z</time></trkpt><trkpt lat="43.47638739267968" lon="10.668751423510546"><ele>156.0</ele><time>2026-04-19T08:33:52Z</time></trkpt><trkpt lat="43.47652039470402" lon="10.668695849923491"><ele>156.0</ele><time>2026-04-19T08:33:53Z</time></trkpt><trkpt lat="43.4766615039785" lon="10.668649930255235"><ele>156.0</ele><time>2026-04-19T08:33:54Z</time></trkpt><trkpt lat="43.47681559184875" lon="10.668626967126619"><ele>156.0</ele><time>2026-04-19T08:33:55Z</time></trkpt><trkpt lat="43.47696959498297" lon="10.668581718944715"><ele>156.0</ele><time>2026-04-19T08:33:56Z</time></trkpt><trkpt lat="43.47711059960461" lon="10.668545789945949"><ele>156.75</ele><time>2026-04-19T08:33:57Z</time></trkpt><trkpt lat="43.47724650298869" lon="10.668513191515396"><ele>157.5</ele><time>2026-04-19T08:33:58Z</time></trkpt><trkpt lat="43.477390739253885" lon="10.66847859426278"><ele>158.25</ele><time>2026-04-19T08:33:59Z</time></trkpt><trkpt lat="43.477529922607346" lon="10.668445209080533"><ele>159.0</ele><time>2026-04-19T08:34:00Z</time></trkpt><trkpt lat="43.47767362140903" lon="10.668414872187878"><ele>159.0</ele><time>2026-04-19T08:34:01Z</time></trkpt><trkpt lat="43.47780717472536" lon="10.66838673895383"><ele>159.0</ele><time>2026-04-19T08:34:02Z</time></trkpt><trkpt lat="43.477944045829766" lon="10.668370899573063"><ele>159.0</ele><time>2026-04-19T08:34:03Z</time></trkpt><trkpt lat="43.47808174282507" lon="10.668391101614214"><ele>159.0</ele><time>2026-04-19T08:34:04Z</time></trkpt><trkpt lat="43.4782294328685" lon="10.668432271339414"><ele>158.0</ele><time>2026-04-19T08:34:05Z</time></trkpt><trkpt lat="43.478388615397364" lon="10.668481272381836"><ele>157.0</ele><time>2026-04-19T08:34:06Z</time></trkpt><trkpt lat="43.478547244798584" lon="10.668528305994737"><ele>156.0</ele><time>2026-04-19T08:34:07Z</time></trkpt><trkpt lat="43.47868549981518" lon="10.668568035148645"><ele>156.0</ele><time>2026-04-19T08:34:08Z</time></trkpt><trkpt lat="43.4788136293577" lon="10.668596112637891"><ele>156.0</ele><time>2026-04-19T08:34:09Z</time></trkpt><trkpt lat="43.478919708942236" lon="10.668614069316614"><ele>156.0</ele><time>2026-04-19T08:34:10.001Z</time></trkpt><trkpt lat="43.47902452630029" lon="10.66861222684533"><ele>156.0</ele><time>2026-04-19T08:34:11.001Z</time></trkpt><trkpt lat="43.479122083499085" lon="10.668601729943472"><ele>156.0</ele><time>2026-04-19T08:34:12.001Z</time></trkpt><trkpt lat="43.47922061349262" lon="10.668568158481396"><ele>156.0</ele><time>2026-04-19T08:34:13.001Z</time></trkpt><trkpt lat="43.479310430489285" lon="10.66849248769938"><ele>156.0</ele><time>2026-04-19T08:34:14.001Z</time></trkpt><trkpt lat="43.479404890929565" lon="10.668418069589999"><ele>156.0</ele><time>2026-04-19T08:34:15.001Z</time></trkpt><trkpt lat="43.479494778400316" lon="10.668359747790612"><ele>156.0</ele><time>2026-04-19T08:34:16.001Z</time></trkpt><trkpt lat="43.47957596620455" lon="10.668323477368412"><ele>156.0</ele><time>2026-04-19T08:34:17.001Z</time></trkpt><trkpt lat="43.47965001792819" lon="10.668320958812622"><ele>155.8</ele><time>2026-04-19T08:34:18.001Z</time></trkpt><trkpt lat="43.47973065912846" lon="10.66836242460605"><ele>155.6</ele><time>2026-04-19T08:34:19.001Z</time></trkpt><trkpt lat="43.479820722895354" lon="10.66843878767284"><ele>155.4</ele><time>2026-04-19T08:34:20.001Z</time></trkpt><trkpt lat="43.47988862034429" lon="10.668559103152539"><ele>155.2</ele><time>2026-04-19T08:34:21.001Z</time></trkpt><trkpt lat="43.47995963194006" lon="10.668684142454525"><ele>155.0</ele><time>2026-04-19T08:34:22.001Z</time></trkpt><trkpt lat="43.48002645881441" lon="10.668838573731477"><ele>155.0</ele><time>2026-04-19T08:34:23.001Z</time></trkpt><trkpt lat="43.48010863207753" lon="10.669003773016035"><ele>155.0</ele><time>2026-04-19T08:34:24.001Z</time></trkpt><trkpt lat="43.48020513357173" lon="10.669181361137632"><ele>155.0</ele><time>2026-04-19T08:34:25.001Z</time></trkpt><trkpt lat="43.480308722807884" lon="10.669347897830155"><ele>155.75</ele><time>2026-04-19T08:34:26.001Z</time></trkpt><trkpt lat="43.48040543455268" lon="10.669502282939137"><ele>156.5</ele><time>2026-04-19T08:34:27.001Z</time></trkpt><trkpt lat="43.480487874677806" lon="10.669639164929249"><ele>157.25</ele><time>2026-04-19T08:34:28.001Z</time></trkpt><trkpt lat="43.480567166086516" lon="10.6697699162277"><ele>158.0</ele><time>2026-04-19T08:34:29.001Z</time></trkpt><trkpt lat="43.48065442214219" lon="10.669906134730635"><ele>158.0</ele><time>2026-04-19T08:34:30.001Z</time></trkpt><trkpt lat="43.48074464579049" lon="10.6700493015221"><ele>158.0</ele><time>2026-04-19T08:34:31.001Z</time></trkpt><trkpt lat="43.48082523787326" lon="10.670181641045023"><ele>158.0</ele><time>2026-04-19T08:34:32.001Z</time></trkpt><trkpt lat="43.480896906787265" lon="10.67031603987351"><ele>158.0</ele><time>2026-04-19T08:34:33.001Z</time></trkpt><trkpt lat="43.48093887394221" lon="10.670461281289809"><ele>158.5</ele><time>2026-04-19T08:34:34.001Z</time></trkpt><trkpt lat="43.480920303250485" lon="10.670600753504504"><ele>159.0</ele><time>2026-04-19T08:34:35.001Z</time></trkpt><trkpt lat="43.48089228541458" lon="10.670750803187564"><ele>159.5</ele><time>2026-04-19T08:34:36.001Z</time></trkpt><trkpt lat="43.48085453367553" lon="10.67092472722645"><ele>160.0</ele><time>2026-04-19T08:34:37.001Z</time></trkpt><trkpt lat="43.48083064675431" lon="10.671082345021407"><ele>158.0</ele><time>2026-04-19T08:34:38.001Z</time></trkpt><trkpt lat="43.48081956727015" lon="10.67120376101343"><ele>156.0</ele><time>2026-04-19T08:34:39.001Z</time></trkpt><trkpt lat="43.4808522461112" lon="10.67135607857957"><ele>154.0</ele><time>2026-04-19T08:34:40.001Z</time></trkpt><trkpt lat="43.48090453840721" lon="10.671529919779688"><ele>152.0</ele><time>2026-04-19T08:34:41.001Z</time></trkpt><trkpt lat="43.48094966368716" lon="10.671718036406386"><ele>152.0</ele><time>2026-04-19T08:34:42.001Z</time></trkpt><trkpt lat="43.480996196774846" lon="10.671901234958254"><ele>152.0</ele><time>2026-04-19T08:34:43.001Z</time></trkpt><trkpt lat="43.481043401067055" lon="10.67207580375103"><ele>152.0</ele><time>2026-04-19T08:34:44.001Z</time></trkpt><trkpt lat="43.481088357948366" lon="10.67225787933711"><ele>152.0</ele><time>2026-04-19T08:34:45.001Z</time></trkpt><trkpt lat="43.48112751066783" lon="10.672437774166793"><ele>150.0</ele><time>2026-04-19T08:34:46.001Z</time></trkpt><trkpt lat="43.48116384901259" lon="10.672618025907784"><ele>148.0</ele><time>2026-04-19T08:34:47.001Z</time></trkpt><trkpt lat="43.48120757959538" lon="10.672781079376177"><ele>146.0</ele><time>2026-04-19T08:34:48.001Z</time></trkpt><trkpt lat="43.481262240469185" lon="10.672954333705054"><ele>144.0</ele><time>2026-04-19T08:34:49.001Z</time></trkpt><trkpt lat="43.48132450942391" lon="10.67312534664839"><ele>142.25</ele><time>2026-04-19T08:34:50.001Z</time></trkpt><trkpt lat="43.48138336397046" lon="10.67329166988348"><ele>140.5</ele><time>2026-04-19T08:34:51.001Z</time></trkpt><trkpt lat="43.48143599904637" lon="10.673431082644521"><ele>138.75</ele><time>2026-04-19T08:34:52.001Z</time></trkpt><trkpt lat="43.48149217430822" lon="10.673548682230683"><ele>137.0</ele><time>2026-04-19T08:34:53.001Z</time></trkpt><trkpt lat="43.48156380733467" lon="10.673644890521054"><ele>136.6</ele><time>2026-04-19T08:34:54.001Z</time></trkpt><trkpt lat="43.48165475656786" lon="10.673716570617282"><ele>136.2</ele><time>2026-04-19T08:34:55.001Z</time></trkpt><trkpt lat="43.48176429365499" lon="10.673763032077074"><ele>135.8</ele><time>2026-04-19T08:34:56.001Z</time></trkpt><trkpt lat="43.48186693111748" lon="10.673779533315836"><ele>135.4</ele><time>2026-04-19T08:34:57.001Z</time></trkpt><trkpt lat="43.48194791749" lon="10.67377586218708"><ele>135.0</ele><time>2026-04-19T08:34:58.001Z</time></trkpt><trkpt lat="43.482011450302906" lon="10.67380386038165"><ele>135.4</ele><time>2026-04-19T08:34:59.001Z</time></trkpt><trkpt lat="43.48210567678909" lon="10.673812214134289"><ele>135.8</ele><time>2026-04-19T08:35:01.001Z</time></trkpt><trkpt lat="43.4821980718343" lon="10.673968884444438"><ele>136.2</ele><time>2026-04-19T08:35:04.001Z</time></trkpt><trkpt lat="43.48223424632945" lon="10.674087061792878"><ele>136.6</ele><time>2026-04-19T08:35:05.001Z</time></trkpt><trkpt lat="43.48227617853888" lon="10.674223827290957"><ele>137.0</ele><time>2026-04-19T08:35:06.001Z</time></trkpt><trkpt lat="43.482311336921015" lon="10.67437123062377"><ele>137.5</ele><time>2026-04-19T08:35:07.001Z</time></trkpt><trkpt lat="43.48233706388788" lon="10.674531522124076"><ele>138.0</ele><time>2026-04-19T08:35:08.001Z</time></trkpt><trkpt lat="43.482352293185365" lon="10.674697881442553"><ele>138.5</ele><time>2026-04-19T08:35:09.001Z</time></trkpt><trkpt lat="43.482339217946475" lon="10.67487402823234"><ele>139.0</ele><time>2026-04-19T08:35:10.001Z</time></trkpt><trkpt lat="43.48230757630349" lon="10.67506474920622"><ele>139.0</ele><time>2026-04-19T08:35:11.001Z</time></trkpt><trkpt lat="43.482259558236585" lon="10.67526563647464"><ele>139.0</ele><time>2026-04-19T08:35:12.001Z</time></trkpt><trkpt lat="43.482201844008145" lon="10.67547686367749"><ele>139.0</ele><time>2026-04-19T08:35:13.001Z</time></trkpt><trkpt lat="43.48213599296463" lon="10.67568289329229"><ele>136.66666666666669</ele><time>2026-04-19T08:35:14.001Z</time></trkpt><trkpt lat="43.48206660869279" lon="10.675891427357566"><ele>134.33333333333334</ele><time>2026-04-19T08:35:15.002Z</time></trkpt><trkpt lat="43.48199616482967" lon="10.676115713940034"><ele>132.0</ele><time>2026-04-19T08:35:16.002Z</time></trkpt><trkpt lat="43.481927522111945" lon="10.67633714126676"><ele>131.33333333333334</ele><time>2026-04-19T08:35:17.002Z</time></trkpt><trkpt lat="43.48185853289283" lon="10.676565259904127"><ele>130.66666666666669</ele><time>2026-04-19T08:35:18.002Z</time></trkpt><trkpt lat="43.48179193680802" lon="10.67679031652804"><ele>130.0</ele><time>2026-04-19T08:35:19.002Z</time></trkpt><trkpt lat="43.4817232466008" lon="10.67701807694936"><ele>129.0</ele><time>2026-04-19T08:35:20.002Z</time></trkpt><trkpt lat="43.481654900331485" lon="10.677236825548686"><ele>128.0</ele><time>2026-04-19T08:35:21.002Z</time></trkpt><trkpt lat="43.481586517279496" lon="10.677451780319641"><ele>127.0</ele><time>2026-04-19T08:35:22.002Z</time></trkpt><trkpt lat="43.481517732902816" lon="10.677664216665157"><ele>126.33333333333334</ele><time>2026-04-19T08:35:23.002Z</time></trkpt><trkpt lat="43.48145126129931" lon="10.677873206488023"><ele>125.66666666666666</ele><time>2026-04-19T08:35:24.002Z</time></trkpt><trkpt lat="43.481403661047196" lon="10.678097128923394"><ele>125.0</ele><time>2026-04-19T08:35:25.002Z</time></trkpt><trkpt lat="43.48138560530928" lon="10.67835045864122"><ele>124.33333333333333</ele><time>2026-04-19T08:35:26.002Z</time></trkpt><trkpt lat="43.48136858169947" lon="10.678614278897177"><ele>123.66666666666666</ele><time>2026-04-19T08:35:27.002Z</time></trkpt><trkpt lat="43.48135525348078" lon="10.678880844313063"><ele>123.0</ele><time>2026-04-19T08:35:28.002Z</time></trkpt><trkpt lat="43.481342350359725" lon="10.679140874750836"><ele>123.0</ele><time>2026-04-19T08:35:29.002Z</time></trkpt><trkpt lat="43.48132614748856" lon="10.679382805719646"><ele>123.0</ele><time>2026-04-19T08:35:30.002Z</time></trkpt><trkpt lat="43.48131029655105" lon="10.679622953319202"><ele>123.0</ele><time>2026-04-19T08:35:31.002Z</time></trkpt><trkpt lat="43.48129598016902" lon="10.679865036208875"><ele>122.33333333333334</ele><time>2026-04-19T08:35:32.002Z</time></trkpt><trkpt lat="43.48128462150225" lon="10.680099930305571"><ele>121.66666666666667</ele><time>2026-04-19T08:35:33.001Z</time></trkpt><trkpt lat="43.48126575986957" lon="10.680332602155376"><ele>121.0</ele><time>2026-04-19T08:35:34.001Z</time></trkpt><trkpt lat="43.48124846040979" lon="10.680561285253521"><ele>120.66666666666667</ele><time>2026-04-19T08:35:35.001Z</time></trkpt><trkpt lat="43.481231765035034" lon="10.680793752603046"><ele>120.33333333333334</ele><time>2026-04-19T08:35:36.001Z</time></trkpt><trkpt lat="43.48122526584662" lon="10.681032522872925"><ele>120.0</ele><time>2026-04-19T08:35:37.001Z</time></trkpt><trkpt lat="43.4812063679054" lon="10.681286923885228"><ele>119.66666666666666</ele><time>2026-04-19T08:35:38.001Z</time></trkpt><trkpt lat="43.48118963937093" lon="10.681531980449671"><ele>119.33333333333333</ele><time>2026-04-19T08:35:39.001Z</time></trkpt><trkpt lat="43.481174391831225" lon="10.68177471862137"><ele>119.0</ele><time>2026-04-19T08:35:40.001Z</time></trkpt><trkpt lat="43.48115724894597" lon="10.682010471851921"><ele>118.66666666666666</ele><time>2026-04-19T08:35:41.001Z</time></trkpt><trkpt lat="43.481139808996865" lon="10.682231763450849"><ele>118.33333333333334</ele><time>2026-04-19T08:35:42.001Z</time></trkpt><trkpt lat="43.481124484469" lon="10.682443073444611"><ele>118.0</ele><time>2026-04-19T08:35:43.001Z</time></trkpt><trkpt lat="43.48111338277186" lon="10.682640396907733"><ele>117.5</ele><time>2026-04-19T08:35:44.001Z</time></trkpt><trkpt lat="43.48110033674912" lon="10.682819548814482"><ele>117.0</ele><time>2026-04-19T08:35:45.001Z</time></trkpt><trkpt lat="43.48108790201411" lon="10.682993082917987"><ele>116.5</ele><time>2026-04-19T08:35:46.001Z</time></trkpt><trkpt lat="43.48108744029252" lon="10.683143609476932"><ele>116.0</ele><time>2026-04-19T08:35:47.001Z</time></trkpt><trkpt lat="43.481101985242134" lon="10.683281161153186"><ele>116.0</ele><time>2026-04-19T08:35:48.001Z</time></trkpt><trkpt lat="43.481134345698656" lon="10.68340743426162"><ele>116.0</ele><time>2026-04-19T08:35:49.001Z</time></trkpt><trkpt lat="43.48119193933639" lon="10.683535618052442"><ele>116.0</ele><time>2026-04-19T08:35:50.001Z</time></trkpt><trkpt lat="43.48126376498211" lon="10.683677845836518"><ele>116.0</ele><time>2026-04-19T08:35:51.001Z</time></trkpt><trkpt lat="43.4813346820955" lon="10.68384465010598"><ele>116.0</ele><time>2026-04-19T08:35:52.001Z</time></trkpt><trkpt lat="43.481403986329134" lon="10.684034652414734"><ele>116.0</ele><time>2026-04-19T08:35:53.001Z</time></trkpt><trkpt lat="43.4814578663192" lon="10.684213188258552"><ele>116.0</ele><time>2026-04-19T08:35:54.001Z</time></trkpt><trkpt lat="43.48150155989691" lon="10.684401667376788"><ele>116.0</ele><time>2026-04-19T08:35:55.001Z</time></trkpt><trkpt lat="43.48154297255858" lon="10.68459391804652"><ele>115.66666666666666</ele><time>2026-04-19T08:35:56.001Z</time></trkpt><trkpt lat="43.481579873159866" lon="10.684795599272135"><ele>115.33333333333334</ele><time>2026-04-19T08:35:57.001Z</time></trkpt><trkpt lat="43.48161284363126" lon="10.685001059600985"><ele>115.0</ele><time>2026-04-19T08:35:58.001Z</time></trkpt><trkpt lat="43.48164339599598" lon="10.685212093655315"><ele>114.33333333333334</ele><time>2026-04-19T08:35:59.001Z</time></trkpt><trkpt lat="43.48167194972634" lon="10.685425118600755"><ele>113.66666666666666</ele><time>2026-04-19T08:36:00.001Z</time></trkpt><trkpt lat="43.48169370023885" lon="10.685629524497259"><ele>113.0</ele><time>2026-04-19T08:36:01.001Z</time></trkpt><trkpt lat="43.48168869298053" lon="10.685837577783529"><ele>113.0</ele><time>2026-04-19T08:36:02.001Z</time></trkpt><trkpt lat="43.48164936082536" lon="10.686048893256162"><ele>113.0</ele><time>2026-04-19T08:36:03.001Z</time></trkpt><trkpt lat="43.48158624677061" lon="10.686263837247562"><ele>113.0</ele><time>2026-04-19T08:36:04.001Z</time></trkpt><trkpt lat="43.48153634757669" lon="10.686489546064344"><ele>113.33333333333333</ele><time>2026-04-19T08:36:05.001Z</time></trkpt><trkpt lat="43.48149483356381" lon="10.686726931858932"><ele>113.66666666666666</ele><time>2026-04-19T08:36:06.001Z</time></trkpt><trkpt lat="43.48145383989102" lon="10.68696757216538"><ele>114.0</ele><time>2026-04-19T08:36:07.001Z</time></trkpt><trkpt lat="43.48141526935817" lon="10.687204072850674"><ele>115.0</ele><time>2026-04-19T08:36:08.001Z</time></trkpt><trkpt lat="43.48137100092937" lon="10.687430739234728"><ele>116.0</ele><time>2026-04-19T08:36:09.001Z</time></trkpt><trkpt lat="43.48132674185668" lon="10.687655856569647"><ele>117.0</ele><time>2026-04-19T08:36:10.001Z</time></trkpt><trkpt lat="43.48130215963663" lon="10.687891255676949"><ele>117.33333333333334</ele><time>2026-04-19T08:36:11.001Z</time></trkpt><trkpt lat="43.48129782360429" lon="10.688119127420903"><ele>117.66666666666667</ele><time>2026-04-19T08:36:12.001Z</time></trkpt><trkpt lat="43.48130123508723" lon="10.688350334143308"><ele>118.0</ele><time>2026-04-19T08:36:13.001Z</time></trkpt><trkpt lat="43.48131314836805" lon="10.688575849164293"><ele>116.66666666666667</ele><time>2026-04-19T08:36:14.001Z</time></trkpt><trkpt lat="43.48133711222426" lon="10.688805974370721"><ele>115.33333333333334</ele><time>2026-04-19T08:36:15.001Z</time></trkpt><trkpt lat="43.48135536603977" lon="10.689035365845426"><ele>114.0</ele><time>2026-04-19T08:36:16.001Z</time></trkpt><trkpt lat="43.48136915439287" lon="10.68925740867772"><ele>113.0</ele><time>2026-04-19T08:36:17.001Z</time></trkpt><trkpt lat="43.481386136487295" lon="10.689471328042162"><ele>112.0</ele><time>2026-04-19T08:36:18.001Z</time></trkpt><trkpt lat="43.48139955523614" lon="10.689677341778989"><ele>111.0</ele><time>2026-04-19T08:36:19.001Z</time></trkpt><trkpt lat="43.4814036389873" lon="10.68988749677803"><ele>111.0</ele><time>2026-04-19T08:36:20.001Z</time></trkpt><trkpt lat="43.481387875307945" lon="10.690108524593906"><ele>111.0</ele><time>2026-04-19T08:36:21.001Z</time></trkpt><trkpt lat="43.48136002390606" lon="10.690343376396008"><ele>111.0</ele><time>2026-04-19T08:36:22.001Z</time></trkpt><trkpt lat="43.481323609266006" lon="10.690581938291242"><ele>111.0</ele><time>2026-04-19T08:36:23.001Z</time></trkpt><trkpt lat="43.48127786189141" lon="10.690823446941968"><ele>111.0</ele><time>2026-04-19T08:36:24.001Z</time></trkpt><trkpt lat="43.48123255318302" lon="10.691064279629463"><ele>111.0</ele><time>2026-04-19T08:36:25.001Z</time></trkpt><trkpt lat="43.48118951909424" lon="10.691310184098272"><ele>110.33333333333334</ele><time>2026-04-19T08:36:26.001Z</time></trkpt><trkpt lat="43.48114102732717" lon="10.69156221067808"><ele>109.66666666666667</ele><time>2026-04-19T08:36:27.001Z</time></trkpt><trkpt lat="43.48109042182759" lon="10.691806387471761"><ele>109.0</ele><time>2026-04-19T08:36:28.001Z</time></trkpt><trkpt lat="43.48105160475692" lon="10.69203287299842"><ele>108.33333333333334</ele><time>2026-04-19T08:36:29.001Z</time></trkpt><trkpt lat="43.48101538220547" lon="10.692249119244464"><ele>107.66666666666666</ele><time>2026-04-19T08:36:30.001Z</time></trkpt><trkpt lat="43.48099004872574" lon="10.692461001924244"><ele>107.0</ele><time>2026-04-19T08:36:31.001Z</time></trkpt><trkpt lat="43.480966136328604" lon="10.692675735679002"><ele>106.75</ele><time>2026-04-19T08:36:32.001Z</time></trkpt><trkpt lat="43.48091858295938" lon="10.692886366812377"><ele>106.5</ele><time>2026-04-19T08:36:33.001Z</time></trkpt><trkpt lat="43.480851628127716" lon="10.693071624083009"><ele>106.25</ele><time>2026-04-19T08:36:34.001Z</time></trkpt><trkpt lat="43.480786159021086" lon="10.693223699678084"><ele>106.0</ele><time>2026-04-19T08:36:35.001Z</time></trkpt><trkpt lat="43.4807230739995" lon="10.693373952059044"><ele>106.0</ele><time>2026-04-19T08:36:36.001Z</time></trkpt><trkpt lat="43.48066013713986" lon="10.693508957584212"><ele>106.0</ele><time>2026-04-19T08:36:37.001Z</time></trkpt><trkpt lat="43.48058044019331" lon="10.693637976469141"><ele>106.0</ele><time>2026-04-19T08:36:38.001Z</time></trkpt><trkpt lat="43.48047169528476" lon="10.693744992073409"><ele>106.0</ele><time>2026-04-19T08:36:39.001Z</time></trkpt><trkpt lat="43.48033628970476" lon="10.693809952919068"><ele>106.33333333333334</ele><time>2026-04-19T08:36:40.001Z</time></trkpt><trkpt lat="43.48019936313542" lon="10.693878732547702"><ele>106.66666666666666</ele><time>2026-04-19T08:36:41.001Z</time></trkpt><trkpt lat="43.48005408137951" lon="10.693969054448356"><ele>107.0</ele><time>2026-04-19T08:36:42.001Z</time></trkpt><trkpt lat="43.47993131677571" lon="10.694127984598545"><ele>107.0</ele><time>2026-04-19T08:36:43.001Z</time></trkpt><trkpt lat="43.47980320698568" lon="10.694292705745674"><ele>107.0</ele><time>2026-04-19T08:36:44.001Z</time></trkpt><trkpt lat="43.479685566031115" lon="10.69445232706929"><ele>107.0</ele><time>2026-04-19T08:36:45.001Z</time></trkpt><trkpt lat="43.47958181257416" lon="10.694606796657542"><ele>105.66666666666666</ele><time>2026-04-19T08:36:46.001Z</time></trkpt><trkpt lat="43.479487497832785" lon="10.694776436366789"><ele>104.33333333333334</ele><time>2026-04-19T08:36:47.001Z</time></trkpt><trkpt lat="43.47937935417905" lon="10.694951306666297"><ele>103.0</ele><time>2026-04-19T08:36:48.001Z</time></trkpt><trkpt lat="43.479286394799196" lon="10.695157680706364"><ele>103.66666666666667</ele><time>2026-04-19T08:36:49.001Z</time></trkpt><trkpt lat="43.47920619851195" lon="10.695375497465143"><ele>104.33333333333334</ele><time>2026-04-19T08:36:50.001Z</time></trkpt><trkpt lat="43.47912070294824" lon="10.69560694892525"><ele>105.0</ele><time>2026-04-19T08:36:51.001Z</time></trkpt><trkpt lat="43.47905194323751" lon="10.69586948101678"><ele>104.66666666666666</ele><time>2026-04-19T08:36:52.001Z</time></trkpt><trkpt lat="43.47899215577542" lon="10.696139919243718"><ele>104.33333333333333</ele><time>2026-04-19T08:36:53.001Z</time></trkpt><trkpt lat="43.47894661511644" lon="10.696405761099335"><ele>104.0</ele><time>2026-04-19T08:36:54.001Z</time></trkpt><trkpt lat="43.478900489363184" lon="10.696645512639675"><ele>104.0</ele><time>2026-04-19T08:36:55.001Z</time></trkpt><trkpt lat="43.4788587094119" lon="10.696878828795793"><ele>104.0</ele><time>2026-04-19T08:36:56.001Z</time></trkpt><trkpt lat="43.47881749166566" lon="10.697098112593716"><ele>104.0</ele><time>2026-04-19T08:36:57.001Z</time></trkpt><trkpt lat="43.478767965830386" lon="10.69727720651809"><ele>102.5</ele><time>2026-04-19T08:36:58.001Z</time></trkpt><trkpt lat="43.47867578468909" lon="10.697398665568173"><ele>101.0</ele><time>2026-04-19T08:36:59.001Z</time></trkpt><trkpt lat="43.478567060736516" lon="10.697510849619295"><ele>99.5</ele><time>2026-04-19T08:37:00.001Z</time></trkpt><trkpt lat="43.47842971139856" lon="10.697620389758061"><ele>98.0</ele><time>2026-04-19T08:37:01.001Z</time></trkpt><trkpt lat="43.47828388055254" lon="10.697731190692853"><ele>97.5</ele><time>2026-04-19T08:37:02.001Z</time></trkpt><trkpt lat="43.478135337400936" lon="10.69784405208996"><ele>97.0</ele><time>2026-04-19T08:37:03.001Z</time></trkpt><trkpt lat="43.478003568084446" lon="10.69794607506499"><ele>96.5</ele><time>2026-04-19T08:37:04.001Z</time></trkpt><trkpt lat="43.47790074705306" lon="10.698052196609847"><ele>96.0</ele><time>2026-04-19T08:37:05.001Z</time></trkpt><trkpt lat="43.47781029492635" lon="10.69812672873194"><ele>96.0</ele><time>2026-04-19T08:37:06.001Z</time></trkpt><trkpt lat="43.477734790124515" lon="10.698196705117947"><ele>96.0</ele><time>2026-04-19T08:37:07.001Z</time></trkpt><trkpt lat="43.47767626540929" lon="10.698261874485723"><ele>96.0</ele><time>2026-04-19T08:37:08.001Z</time></trkpt><trkpt lat="43.47762923714228" lon="10.69833119274931"><ele>96.0</ele><time>2026-04-19T08:37:09.002Z</time></trkpt><trkpt lat="43.477562748783775" lon="10.69845281837203"><ele>96.0</ele><time>2026-04-19T08:37:11.002Z</time></trkpt><trkpt lat="43.47748697173798" lon="10.698511981513581"><ele>96.0</ele><time>2026-04-19T08:37:13.002Z</time></trkpt><trkpt lat="43.47740651286949" lon="10.698386441225113"><ele>96.0</ele><time>2026-04-19T08:37:15.002Z</time></trkpt><trkpt lat="43.47735787227203" lon="10.698325810841549"><ele>96.0</ele><time>2026-04-19T08:37:17.002Z</time></trkpt><trkpt lat="43.477240717445156" lon="10.698391317943218"><ele>96.0</ele><time>2026-04-19T08:37:19.002Z</time></trkpt><trkpt lat="43.4771627189245" lon="10.698446074166336"><ele>96.0</ele><time>2026-04-19T08:37:21.002Z</time></trkpt><trkpt lat="43.477091029365" lon="10.698508148629982"><ele>96.0</ele><time>2026-04-19T08:37:23.002Z</time></trkpt><trkpt lat="43.47701194860535" lon="10.698619396775316"><ele>95.8</ele><time>2026-04-19T08:37:25.002Z</time></trkpt><trkpt lat="43.47696657982081" lon="10.698726503920527"><ele>95.6</ele><time>2026-04-19T08:37:27.002Z</time></trkpt><trkpt lat="43.476934338120444" lon="10.698847591045677"><ele>95.4</ele><time>2026-04-19T08:37:29.002Z</time></trkpt><trkpt lat="43.47691606201431" lon="10.698953928870505"><ele>95.2</ele><time>2026-04-19T08:37:31.002Z</time></trkpt><trkpt lat="43.47689752486852" lon="10.699113797414395"><ele>95.0</ele><time>2026-04-19T08:37:34.002Z</time></trkpt><trkpt lat="43.47687075387447" lon="10.699255971212324"><ele>95.0</ele><time>2026-04-19T08:37:36.002Z</time></trkpt><trkpt lat="43.476901458868404" lon="10.69933479219655"><ele>95.0</ele><time>2026-04-19T08:37:37.002Z</time></trkpt><trkpt lat="43.47692400570852" lon="10.699471596889627"><ele>95.0</ele><time>2026-04-19T08:37:39.001Z</time></trkpt><trkpt lat="43.47692979040954" lon="10.699564481974482"><ele>95.0</ele><time>2026-04-19T08:37:40.001Z</time></trkpt><trkpt lat="43.47689288628321" lon="10.69969707019648"><ele>95.0</ele><time>2026-04-19T08:37:42.001Z</time></trkpt><trkpt lat="43.47683372941396" lon="10.699855939519978"><ele>95.0</ele><time>2026-04-19T08:37:44.001Z</time></trkpt><trkpt lat="43.47683409689203" lon="10.699978670655206"><ele>95.0</ele><time>2026-04-19T08:37:45.001Z</time></trkpt><trkpt lat="43.47683283673988" lon="10.700103008068945"><ele>95.0</ele><time>2026-04-19T08:37:46.001Z</time></trkpt><trkpt lat="43.476819004412825" lon="10.700222042592602"><ele>95.0</ele><time>2026-04-19T08:37:47.001Z</time></trkpt><trkpt lat="43.47679841482061" lon="10.700340097220568"><ele>95.0</ele><time>2026-04-19T08:37:48.001Z</time></trkpt><trkpt lat="43.476766317699784" lon="10.700481091952398"><ele>95.25</ele><time>2026-04-19T08:37:49.001Z</time></trkpt><trkpt lat="43.47672728015242" lon="10.70063990061122"><ele>95.5</ele><time>2026-04-19T08:37:50.001Z</time></trkpt><trkpt lat="43.47668014048185" lon="10.700801009031183"><ele>95.75</ele><time>2026-04-19T08:37:51.001Z</time></trkpt><trkpt lat="43.476629912189985" lon="10.700966132640351"><ele>96.0</ele><time>2026-04-19T08:37:52.001Z</time></trkpt><trkpt lat="43.47657880182468" lon="10.701135046028297"><ele>95.5</ele><time>2026-04-19T08:37:53.001Z</time></trkpt><trkpt lat="43.47652936900004" lon="10.701301356244919"><ele>95.0</ele><time>2026-04-19T08:37:54.001Z</time></trkpt><trkpt lat="43.47648260058386" lon="10.701464614832432"><ele>94.5</ele><time>2026-04-19T08:37:55.001Z</time></trkpt><trkpt lat="43.47643606566696" lon="10.70162070675609"><ele>94.0</ele><time>2026-04-19T08:37:56.001Z</time></trkpt><trkpt lat="43.47638780794359" lon="10.701785994960593"><ele>94.25</ele><time>2026-04-19T08:37:57.001Z</time></trkpt><trkpt lat="43.47633995797287" lon="10.701949011392257"><ele>94.5</ele><time>2026-04-19T08:37:58.001Z</time></trkpt><trkpt lat="43.47628904101695" lon="10.702112706930087"><ele>94.75</ele><time>2026-04-19T08:37:59.001Z</time></trkpt><trkpt lat="43.47624133275083" lon="10.702286514996123"><ele>95.0</ele><time>2026-04-19T08:38:00.001Z</time></trkpt><trkpt lat="43.4761886494065" lon="10.702457050092113"><ele>95.0</ele><time>2026-04-19T08:38:01.001Z</time></trkpt><trkpt lat="43.47613239884199" lon="10.702628697880375"><ele>95.0</ele><time>2026-04-19T08:38:02.001Z</time></trkpt><trkpt lat="43.47608143332327" lon="10.702790238909268"><ele>95.0</ele><time>2026-04-19T08:38:03.001Z</time></trkpt><trkpt lat="43.47603477196771" lon="10.702951638902857"><ele>95.0</ele><time>2026-04-19T08:38:04.001Z</time></trkpt><trkpt lat="43.47598838347134" lon="10.703112449904657"><ele>95.0</ele><time>2026-04-19T08:38:05.001Z</time></trkpt><trkpt lat="43.475939274221105" lon="10.703274354493216"><ele>95.0</ele><time>2026-04-19T08:38:06.001Z</time></trkpt><trkpt lat="43.47588697429684" lon="10.703446245967761"><ele>95.0</ele><time>2026-04-19T08:38:07.001Z</time></trkpt><trkpt lat="43.47583344537032" lon="10.703623483388947"><ele>95.0</ele><time>2026-04-19T08:38:08.001Z</time></trkpt><trkpt lat="43.47577773410238" lon="10.703805675277522"><ele>94.75</ele><time>2026-04-19T08:38:09.001Z</time></trkpt><trkpt lat="43.47571696827329" lon="10.703984303975751"><ele>94.5</ele><time>2026-04-19T08:38:10.001Z</time></trkpt><trkpt lat="43.47566354530078" lon="10.704161531382294"><ele>94.25</ele><time>2026-04-19T08:38:11.001Z</time></trkpt><trkpt lat="43.4756146777459" lon="10.704333902899172"><ele>94.0</ele><time>2026-04-19T08:38:12.001Z</time></trkpt><trkpt lat="43.47556950468946" lon="10.70449894572215"><ele>94.0</ele><time>2026-04-19T08:38:13.001Z</time></trkpt><trkpt lat="43.47551749330701" lon="10.704657527908292"><ele>94.0</ele><time>2026-04-19T08:38:14.001Z</time></trkpt><trkpt lat="43.47547446574472" lon="10.704807274928967"><ele>94.0</ele><time>2026-04-19T08:38:15.001Z</time></trkpt><trkpt lat="43.475425719956256" lon="10.704949430182136"><ele>94.0</ele><time>2026-04-19T08:38:16.001Z</time></trkpt><trkpt lat="43.47535987731163" lon="10.70508786541987"><ele>94.5</ele><time>2026-04-19T08:38:17.001Z</time></trkpt><trkpt lat="43.475267687208415" lon="10.705199178970997"><ele>95.0</ele><time>2026-04-19T08:38:18.001Z</time></trkpt><trkpt lat="43.47517158307856" lon="10.70529900937354"><ele>95.5</ele><time>2026-04-19T08:38:19.001Z</time></trkpt><trkpt lat="43.47506340711493" lon="10.705385917244518"><ele>96.0</ele><time>2026-04-19T08:38:20.001Z</time></trkpt><trkpt lat="43.47494261992729" lon="10.705501969586651"><ele>96.0</ele><time>2026-04-19T08:38:21.001Z</time></trkpt><trkpt lat="43.474801746407564" lon="10.705602969061445"><ele>96.0</ele><time>2026-04-19T08:38:22.001Z</time></trkpt><trkpt lat="43.47467138632506" lon="10.705701235509096"><ele>96.0</ele><time>2026-04-19T08:38:23.001Z</time></trkpt><trkpt lat="43.47456584635831" lon="10.705791230621564"><ele>96.0</ele><time>2026-04-19T08:38:24.001Z</time></trkpt><trkpt lat="43.47447099144301" lon="10.705889305253644"><ele>96.4</ele><time>2026-04-19T08:38:25.001Z</time></trkpt><trkpt lat="43.47438405220744" lon="10.70599659244706"><ele>96.8</ele><time>2026-04-19T08:38:26.001Z</time></trkpt><trkpt lat="43.474326138848504" lon="10.706109779349074"><ele>97.2</ele><time>2026-04-19T08:38:27.001Z</time></trkpt><trkpt lat="43.47429136655107" lon="10.706234858204724"><ele>97.60000000000001</ele><time>2026-04-19T08:38:28.001Z</time></trkpt><trkpt lat="43.474268064737736" lon="10.70637597943146"><ele>98.0</ele><time>2026-04-19T08:38:29.001Z</time></trkpt><trkpt lat="43.47425877961492" lon="10.706557481782399"><ele>98.0</ele><time>2026-04-19T08:38:30.001Z</time></trkpt><trkpt lat="43.47424905390486" lon="10.706767970663554"><ele>98.0</ele><time>2026-04-19T08:38:31.001Z</time></trkpt><trkpt lat="43.474235310648915" lon="10.706988621117603"><ele>98.0</ele><time>2026-04-19T08:38:32.001Z</time></trkpt><trkpt lat="43.47422333540832" lon="10.707188289079072"><ele>98.4</ele><time>2026-04-19T08:38:33.001Z</time></trkpt><trkpt lat="43.474211353108636" lon="10.707363962881074"><ele>98.80000000000001</ele><time>2026-04-19T08:38:34.001Z</time></trkpt><trkpt lat="43.47419939697832" lon="10.707520098336445"><ele>99.2</ele><time>2026-04-19T08:38:35.001Z</time></trkpt><trkpt lat="43.474201331057245" lon="10.707656502658692"><ele>99.6</ele><time>2026-04-19T08:38:36.001Z</time></trkpt><trkpt lat="43.47422646397456" lon="10.707776991824984"><ele>100.0</ele><time>2026-04-19T08:38:37.001Z</time></trkpt><trkpt lat="43.47426960990419" lon="10.707887939284298"><ele>101.16666666666667</ele><time>2026-04-19T08:38:38.001Z</time></trkpt><trkpt lat="43.474331807183354" lon="10.707963520147148"><ele>102.33333333333334</ele><time>2026-04-19T08:38:39.001Z</time></trkpt><trkpt lat="43.47441589019789" lon="10.70802353583964"><ele>103.5</ele><time>2026-04-19T08:38:40.001Z</time></trkpt><trkpt lat="43.47450327856183" lon="10.708057983430834"><ele>104.66666666666666</ele><time>2026-04-19T08:38:41.001Z</time></trkpt><trkpt lat="43.47458753701725" lon="10.708053069548951"><ele>105.83333333333333</ele><time>2026-04-19T08:38:42.001Z</time></trkpt><trkpt lat="43.47466764412157" lon="10.708016338406527"><ele>107.0</ele><time>2026-04-19T08:38:43.001Z</time></trkpt><trkpt lat="43.47474384217357" lon="10.707950182777179"><ele>108.0</ele><time>2026-04-19T08:38:44.001Z</time></trkpt><trkpt lat="43.47482148687497" lon="10.707855718829897"><ele>108.99999999999999</ele><time>2026-04-19T08:38:45.001Z</time></trkpt><trkpt lat="43.47491289484412" lon="10.70778997420379"><ele>109.99999999999999</ele><time>2026-04-19T08:38:46.001Z</time></trkpt><trkpt lat="43.47498178131311" lon="10.707723064230128"><ele>111.0</ele><time>2026-04-19T08:38:47.001Z</time></trkpt><trkpt lat="43.475062553762626" lon="10.707735769783527"><ele>112.0</ele><time>2026-04-19T08:38:48.001Z</time></trkpt><trkpt lat="43.4751486655159" lon="10.707738955900705"><ele>112.19999999999999</ele><time>2026-04-19T08:38:49.001Z</time></trkpt><trkpt lat="43.47524194621704" lon="10.707722087784184"><ele>112.39999999999999</ele><time>2026-04-19T08:38:50.001Z</time></trkpt><trkpt lat="43.47536007806182" lon="10.707732784828773"><ele>112.60000000000001</ele><time>2026-04-19T08:38:51.001Z</time></trkpt><trkpt lat="43.47547573820762" lon="10.70774712557356"><ele>112.80000000000001</ele><time>2026-04-19T08:38:52.001Z</time></trkpt><trkpt lat="43.47557929969237" lon="10.707779055465133"><ele>113.0</ele><time>2026-04-19T08:38:53.001Z</time></trkpt><trkpt lat="43.47566699378719" lon="10.707823052153758"><ele>113.0</ele><time>2026-04-19T08:38:54.001Z</time></trkpt><trkpt lat="43.47575270977917" lon="10.707882361342563"><ele>113.00000000000001</ele><time>2026-04-19T08:38:55.001Z</time></trkpt><trkpt lat="43.47582382333856" lon="10.707953951675451"><ele>113.00000000000001</ele><time>2026-04-19T08:38:56.001Z</time></trkpt><trkpt lat="43.47587965211539" lon="10.7080402812235"><ele>113.0</ele><time>2026-04-19T08:38:57.001Z</time></trkpt><trkpt lat="43.475935760685545" lon="10.708141722419416"><ele>113.0</ele><time>2026-04-19T08:38:58.001Z</time></trkpt><trkpt lat="43.4760045920968" lon="10.70825171798856"><ele>113.0</ele><time>2026-04-19T08:38:59.001Z</time></trkpt><trkpt lat="43.476065635765" lon="10.708362195957974"><ele>113.00000000000001</ele><time>2026-04-19T08:39:00.001Z</time></trkpt><trkpt lat="43.47611821956349" lon="10.70848967465867"><ele>113.00000000000001</ele><time>2026-04-19T08:39:01.001Z</time></trkpt><trkpt lat="43.476151284487365" lon="10.708608750892438"><ele>113.0</ele><time>2026-04-19T08:39:02.001Z</time></trkpt><trkpt lat="43.476169505128" lon="10.708714193340496"><ele>113.0</ele><time>2026-04-19T08:39:03.001Z</time></trkpt><trkpt lat="43.47616916188183" lon="10.708826773341126"><ele>114.4</ele><time>2026-04-19T08:39:04.001Z</time></trkpt><trkpt lat="43.47614640075394" lon="10.70893479103667"><ele>115.80000000000001</ele><time>2026-04-19T08:39:05.001Z</time></trkpt><trkpt lat="43.47612293916927" lon="10.709056386873007"><ele>117.2</ele><time>2026-04-19T08:39:06.001Z</time></trkpt><trkpt lat="43.47608832991621" lon="10.709182206489302"><ele>118.6</ele><time>2026-04-19T08:39:07.001Z</time></trkpt><trkpt lat="43.47604648698226" lon="10.709323237483131"><ele>120.0</ele><time>2026-04-19T08:39:08.001Z</time></trkpt><trkpt lat="43.47598964520871" lon="10.709482339127554"><ele>120.0</ele><time>2026-04-19T08:39:09.001Z</time></trkpt><trkpt lat="43.47593909812225" lon="10.709634335132192"><ele>120.0</ele><time>2026-04-19T08:39:10.001Z</time></trkpt><trkpt lat="43.47588850936439" lon="10.709757733972497"><ele>120.0</ele><time>2026-04-19T08:39:11.001Z</time></trkpt><trkpt lat="43.47583373346292" lon="10.709850812990075"><ele>120.0</ele><time>2026-04-19T08:39:12.001Z</time></trkpt><trkpt lat="43.4757576609163" lon="10.709959716595966"><ele>120.0</ele><time>2026-04-19T08:39:13.001Z</time></trkpt><trkpt lat="43.475662385128835" lon="10.710081492568627"><ele>120.0</ele><time>2026-04-19T08:39:14.001Z</time></trkpt><trkpt lat="43.475544801363256" lon="10.710175802848427"><ele>120.0</ele><time>2026-04-19T08:39:15.001Z</time></trkpt><trkpt lat="43.47543318339961" lon="10.710290196898393"><ele>120.0</ele><time>2026-04-19T08:39:16.001Z</time></trkpt><trkpt lat="43.475348111307426" lon="10.710417582485164"><ele>120.0</ele><time>2026-04-19T08:39:17.001Z</time></trkpt><trkpt lat="43.47529346819431" lon="10.710553647133784"><ele>122.75</ele><time>2026-04-19T08:39:18.001Z</time></trkpt><trkpt lat="43.47523024631436" lon="10.710697486760068"><ele>125.5</ele><time>2026-04-19T08:39:19.001Z</time></trkpt><trkpt lat="43.475186565242986" lon="10.710864569318705"><ele>128.25</ele><time>2026-04-19T08:39:20.001Z</time></trkpt><trkpt lat="43.4751315351654" lon="10.711056296249241"><ele>131.0</ele><time>2026-04-19T08:39:21.001Z</time></trkpt><trkpt lat="43.475071574963714" lon="10.71125172891401"><ele>131.0</ele><time>2026-04-19T08:39:22.001Z</time></trkpt><trkpt lat="43.47501047333194" lon="10.711416228984193"><ele>131.0</ele><time>2026-04-19T08:39:23.001Z</time></trkpt><trkpt lat="43.47496996107907" lon="10.711558535364976"><ele>131.0</ele><time>2026-04-19T08:39:24.001Z</time></trkpt><trkpt lat="43.47493205939614" lon="10.711681168685734"><ele>131.0</ele><time>2026-04-19T08:39:25.001Z</time></trkpt><trkpt lat="43.47489921261823" lon="10.711792198023693"><ele>131.0</ele><time>2026-04-19T08:39:26.001Z</time></trkpt><trkpt lat="43.47484037585249" lon="10.711884250302582"><ele>131.2</ele><time>2026-04-19T08:39:27.001Z</time></trkpt><trkpt lat="43.47478773416812" lon="10.711963948461742"><ele>131.39999999999998</ele><time>2026-04-19T08:39:28.001Z</time></trkpt><trkpt lat="43.47466622970594" lon="10.712019974487795"><ele>131.6</ele><time>2026-04-19T08:39:30.001Z</time></trkpt><trkpt lat="43.474579067378535" lon="10.71202429972101"><ele>131.79999999999998</ele><time>2026-04-19T08:39:31.001Z</time></trkpt><trkpt lat="43.474467239995185" lon="10.712022635607845"><ele>132.0</ele><time>2026-04-19T08:39:32.001Z</time></trkpt><trkpt lat="43.47434193880956" lon="10.71202263561009"><ele>133.2</ele><time>2026-04-19T08:39:33.001Z</time></trkpt><trkpt lat="43.47420407557499" lon="10.712024074881423"><ele>134.39999999999998</ele><time>2026-04-19T08:39:34.001Z</time></trkpt><trkpt lat="43.47409024803301" lon="10.71203120609399"><ele>135.60000000000002</ele><time>2026-04-19T08:39:35.001Z</time></trkpt><trkpt lat="43.4739989853674" lon="10.712048835821957"><ele>136.8</ele><time>2026-04-19T08:39:36.001Z</time></trkpt><trkpt lat="43.47392526505414" lon="10.712068745768478"><ele>138.0</ele><time>2026-04-19T08:39:37.002Z</time></trkpt><trkpt lat="43.473867465806954" lon="10.71217940095998"><ele>138.0</ele><time>2026-04-19T08:39:38.002Z</time></trkpt><trkpt lat="43.473816533709446" lon="10.71228839926856"><ele>138.0</ele><time>2026-04-19T08:39:39.002Z</time></trkpt><trkpt lat="43.4737878673248" lon="10.712410357716596"><ele>138.0</ele><time>2026-04-19T08:39:40.002Z</time></trkpt><trkpt lat="43.47378364610459" lon="10.712551511399958"><ele>138.0</ele><time>2026-04-19T08:39:41.002Z</time></trkpt><trkpt lat="43.47377755138932" lon="10.712726036088888"><ele>138.0</ele><time>2026-04-19T08:39:42.002Z</time></trkpt><trkpt lat="43.4737727383814" lon="10.712916025049601"><ele>135.5</ele><time>2026-04-19T08:39:43.002Z</time></trkpt><trkpt lat="43.47376663229014" lon="10.713110158430833"><ele>133.0</ele><time>2026-04-19T08:39:44.002Z</time></trkpt><trkpt lat="43.47376213968227" lon="10.713303449733296"><ele>130.5</ele><time>2026-04-19T08:39:45.001Z</time></trkpt><trkpt lat="43.47375431200362" lon="10.713497317872868"><ele>128.0</ele><time>2026-04-19T08:39:46.001Z</time></trkpt><trkpt lat="43.47374311730063" lon="10.713702111568491"><ele>127.75</ele><time>2026-04-19T08:39:47.001Z</time></trkpt><trkpt lat="43.47373338924628" lon="10.713879172969744"><ele>127.5</ele><time>2026-04-19T08:39:48.001Z</time></trkpt><trkpt lat="43.47372413113708" lon="10.714053552156493"><ele>127.25</ele><time>2026-04-19T08:39:49.001Z</time></trkpt><trkpt lat="43.47372605810294" lon="10.714222793426977"><ele>127.0</ele><time>2026-04-19T08:39:50.001Z</time></trkpt><trkpt lat="43.47374062115627" lon="10.714389316999847"><ele>130.0</ele><time>2026-04-19T08:39:51.001Z</time></trkpt><trkpt lat="43.473781881130535" lon="10.714542563691811"><ele>133.0</ele><time>2026-04-19T08:39:52.001Z</time></trkpt><trkpt lat="43.473842758043176" lon="10.714709493834402"><ele>136.0</ele><time>2026-04-19T08:39:53.001Z</time></trkpt><trkpt lat="43.47391632010233" lon="10.714886090518055"><ele>139.0</ele><time>2026-04-19T08:39:54.001Z</time></trkpt><trkpt lat="43.47398011313131" lon="10.715078663604567"><ele>138.75</ele><time>2026-04-19T08:39:55.001Z</time></trkpt><trkpt lat="43.474031153184015" lon="10.715252044683247"><ele>138.5</ele><time>2026-04-19T08:39:56.001Z</time></trkpt><trkpt lat="43.47405877170302" lon="10.715408886291058"><ele>138.25</ele><time>2026-04-19T08:39:57.001Z</time></trkpt><trkpt lat="43.474070384852645" lon="10.715559558183804"><ele>138.0</ele><time>2026-04-19T08:39:58.001Z</time></trkpt><trkpt lat="43.474074805987534" lon="10.715724482739166"><ele>138.0</ele><time>2026-04-19T08:39:59.001Z</time></trkpt><trkpt lat="43.47406256787047" lon="10.715888249207847"><ele>138.0</ele><time>2026-04-19T08:40:00.001Z</time></trkpt><trkpt lat="43.4740354240834" lon="10.716039777590996"><ele>138.0</ele><time>2026-04-19T08:40:01.001Z</time></trkpt><trkpt lat="43.47399964588965" lon="10.71618995013942"><ele>138.0</ele><time>2026-04-19T08:40:02.001Z</time></trkpt><trkpt lat="43.473939411772456" lon="10.716322454252076"><ele>137.5</ele><time>2026-04-19T08:40:03.001Z</time></trkpt><trkpt lat="43.47388008739555" lon="10.716458066800566"><ele>137.0</ele><time>2026-04-19T08:40:04.001Z</time></trkpt><trkpt lat="43.47382085428273" lon="10.716614144303778"><ele>136.5</ele><time>2026-04-19T08:40:05.001Z</time></trkpt><trkpt lat="43.47373358626046" lon="10.71675438626771"><ele>136.0</ele><time>2026-04-19T08:40:06.001Z</time></trkpt><trkpt lat="43.47363971268071" lon="10.71689367518118"><ele>137.0</ele><time>2026-04-19T08:40:07.001Z</time></trkpt><trkpt lat="43.47353901108187" lon="10.717030403949547"><ele>138.0</ele><time>2026-04-19T08:40:08.001Z</time></trkpt><trkpt lat="43.47343870392922" lon="10.717169513131422"><ele>139.0</ele><time>2026-04-19T08:40:09.001Z</time></trkpt><trkpt lat="43.473335429867035" lon="10.717310845023652"><ele>140.0</ele><time>2026-04-19T08:40:10.001Z</time></trkpt><trkpt lat="43.47322688446128" lon="10.717462693718339"><ele>140.0</ele><time>2026-04-19T08:40:11.001Z</time></trkpt><trkpt lat="43.47312327961014" lon="10.71760234590128"><ele>140.0</ele><time>2026-04-19T08:40:12.001Z</time></trkpt><trkpt lat="43.47302456908466" lon="10.717736946457123"><ele>140.0</ele><time>2026-04-19T08:40:13.001Z</time></trkpt><trkpt lat="43.472931843290255" lon="10.71786338782822"><ele>140.0</ele><time>2026-04-19T08:40:14.001Z</time></trkpt><trkpt lat="43.472840285282075" lon="10.717985376573091"><ele>140.5</ele><time>2026-04-19T08:40:15.001Z</time></trkpt><trkpt lat="43.472745223766154" lon="10.71811793855633"><ele>141.0</ele><time>2026-04-19T08:40:16.001Z</time></trkpt><trkpt lat="43.4726499232254" lon="10.718264610942331"><ele>141.5</ele><time>2026-04-19T08:40:17.001Z</time></trkpt><trkpt lat="43.47254301882141" lon="10.718409068285583"><ele>142.0</ele><time>2026-04-19T08:40:18.001Z</time></trkpt><trkpt lat="43.47243442322789" lon="10.718550648170252"><ele>141.25</ele><time>2026-04-19T08:40:19.001Z</time></trkpt><trkpt lat="43.47233047463162" lon="10.718688174684367"><ele>140.5</ele><time>2026-04-19T08:40:20.001Z</time></trkpt><trkpt lat="43.472231970393295" lon="10.718826127022297"><ele>139.75</ele><time>2026-04-19T08:40:21.001Z</time></trkpt><trkpt lat="43.47213699845154" lon="10.718966967517854"><ele>139.0</ele><time>2026-04-19T08:40:22.001Z</time></trkpt><trkpt lat="43.47203981282117" lon="10.719105135014003"><ele>141.0</ele><time>2026-04-19T08:40:23.001Z</time></trkpt><trkpt lat="43.47193399523101" lon="10.719248303854176"><ele>143.0</ele><time>2026-04-19T08:40:24.001Z</time></trkpt><trkpt lat="43.47182730581434" lon="10.719396007654854"><ele>145.0</ele><time>2026-04-19T08:40:25.001Z</time></trkpt><trkpt lat="43.47169910933527" lon="10.719536015234716"><ele>145.66666666666669</ele><time>2026-04-19T08:40:26.001Z</time></trkpt><trkpt lat="43.471575434859595" lon="10.71970704426862"><ele>146.33333333333334</ele><time>2026-04-19T08:40:27.001Z</time></trkpt><trkpt lat="43.47146327700231" lon="10.719888419627246"><ele>147.0</ele><time>2026-04-19T08:40:28.001Z</time></trkpt><trkpt lat="43.47133489233766" lon="10.720060113743495"><ele>146.33333333333334</ele><time>2026-04-19T08:40:29.001Z</time></trkpt><trkpt lat="43.47121788002295" lon="10.720223947612148"><ele>145.66666666666669</ele><time>2026-04-19T08:40:30.001Z</time></trkpt><trkpt lat="43.47109585986571" lon="10.720388324082336"><ele>145.0</ele><time>2026-04-19T08:40:31.001Z</time></trkpt><trkpt lat="43.47097155359237" lon="10.720556052650146"><ele>146.33333333333334</ele><time>2026-04-19T08:40:32.001Z</time></trkpt><trkpt lat="43.470850376878204" lon="10.720726467344306"><ele>147.66666666666666</ele><time>2026-04-19T08:40:33.001Z</time></trkpt><trkpt lat="43.47074242671429" lon="10.72089373550186"><ele>149.0</ele><time>2026-04-19T08:40:34.001Z</time></trkpt><trkpt lat="43.470630882114705" lon="10.7210598296436"><ele>149.25</ele><time>2026-04-19T08:40:35.001Z</time></trkpt><trkpt lat="43.47051320163257" lon="10.72121748038567"><ele>149.5</ele><time>2026-04-19T08:40:36.001Z</time></trkpt><trkpt lat="43.470410624285236" lon="10.721346007714232"><ele>149.75</ele><time>2026-04-19T08:40:37.001Z</time></trkpt><trkpt lat="43.47032407266549" lon="10.721457863986744"><ele>150.0</ele><time>2026-04-19T08:40:38.001Z</time></trkpt><trkpt lat="43.47024550968516" lon="10.721555407362143"><ele>151.6</ele><time>2026-04-19T08:40:39.001Z</time></trkpt><trkpt lat="43.47019002354662" lon="10.721653711030735"><ele>153.2</ele><time>2026-04-19T08:40:40.001Z</time></trkpt><trkpt lat="43.47017643419412" lon="10.721752647531336"><ele>154.8</ele><time>2026-04-19T08:40:41.001Z</time></trkpt><trkpt lat="43.47017951496932" lon="10.721871272843169"><ele>156.4</ele><time>2026-04-19T08:40:42.001Z</time></trkpt><trkpt lat="43.4702071923278" lon="10.7219926753485"><ele>158.0</ele><time>2026-04-19T08:40:43.001Z</time></trkpt><trkpt lat="43.47026559147542" lon="10.722120018336629"><ele>159.60000000000002</ele><time>2026-04-19T08:40:44.001Z</time></trkpt><trkpt lat="43.47033112779484" lon="10.722256773235278"><ele>161.20000000000002</ele><time>2026-04-19T08:40:45.001Z</time></trkpt><trkpt lat="43.47039776370012" lon="10.722400245674427"><ele>162.8</ele><time>2026-04-19T08:40:46.001Z</time></trkpt><trkpt lat="43.470427926708425" lon="10.722522103009094"><ele>164.4</ele><time>2026-04-19T08:40:47.001Z</time></trkpt><trkpt lat="43.47042211557548" lon="10.722650153711298"><ele>166.0</ele><time>2026-04-19T08:40:48.001Z</time></trkpt><trkpt lat="43.47039607331948" lon="10.722781664836837"><ele>167.5</ele><time>2026-04-19T08:40:49.001Z</time></trkpt><trkpt lat="43.470332565074486" lon="10.722899864660278"><ele>169.0</ele><time>2026-04-19T08:40:50.001Z</time></trkpt><trkpt lat="43.470272384609466" lon="10.723037181364798"><ele>170.5</ele><time>2026-04-19T08:40:51.001Z</time></trkpt><trkpt lat="43.47020756210272" lon="10.7232091293829"><ele>172.0</ele><time>2026-04-19T08:40:52.001Z</time></trkpt><trkpt lat="43.47012370274031" lon="10.723371660018993"><ele>172.0</ele><time>2026-04-19T08:40:53.001Z</time></trkpt><trkpt lat="43.47005548045307" lon="10.723549308343806"><ele>172.0</ele><time>2026-04-19T08:40:54.001Z</time></trkpt><trkpt lat="43.46998854037704" lon="10.72371861101279"><ele>172.0</ele><time>2026-04-19T08:40:55.001Z</time></trkpt><trkpt lat="43.469925358840726" lon="10.723858820224589"><ele>172.0</ele><time>2026-04-19T08:40:56.001Z</time></trkpt><trkpt lat="43.46986872295863" lon="10.723976132281798"><ele>171.6</ele><time>2026-04-19T08:40:57.001Z</time></trkpt><trkpt lat="43.469821506492906" lon="10.724084893241617"><ele>171.2</ele><time>2026-04-19T08:40:58.001Z</time></trkpt><trkpt lat="43.46977959883441" lon="10.724158037102894"><ele>170.8</ele><time>2026-04-19T08:41:00.001Z</time></trkpt><trkpt lat="43.46973726993081" lon="10.723987777414592"><ele>170.4</ele><time>2026-04-19T08:41:02.001Z</time></trkpt><trkpt lat="43.469715766073826" lon="10.723845238974022"><ele>170.0</ele><time>2026-04-19T08:41:03.001Z</time></trkpt><trkpt lat="43.46971697119097" lon="10.723668333034919"><ele>170.5</ele><time>2026-04-19T08:41:04.001Z</time></trkpt><trkpt lat="43.469706679516236" lon="10.723477554535094"><ele>171.0</ele><time>2026-04-19T08:41:05.001Z</time></trkpt><trkpt lat="43.46969979085854" lon="10.723287354510301"><ele>171.5</ele><time>2026-04-19T08:41:06.001Z</time></trkpt><trkpt lat="43.46969514025941" lon="10.723116456596513"><ele>172.0</ele><time>2026-04-19T08:41:07.001Z</time></trkpt><trkpt lat="43.469696431469124" lon="10.722963231789047"><ele>172.0</ele><time>2026-04-19T08:41:08.001Z</time></trkpt><trkpt lat="43.469698776260856" lon="10.722809751202643"><ele>172.0</ele><time>2026-04-19T08:41:09.001Z</time></trkpt><trkpt lat="43.469682017022805" lon="10.722658041144138"><ele>172.0</ele><time>2026-04-19T08:41:10.001Z</time></trkpt><trkpt lat="43.469637779862914" lon="10.72251476999201"><ele>172.0</ele><time>2026-04-19T08:41:11.001Z</time></trkpt><trkpt lat="43.469564948080304" lon="10.722395294316165"><ele>172.0</ele><time>2026-04-19T08:41:12.001Z</time></trkpt><trkpt lat="43.46946575672507" lon="10.722296487668899"><ele>172.39999999999998</ele><time>2026-04-19T08:41:13.001Z</time></trkpt><trkpt lat="43.46936588570439" lon="10.722232895323641"><ele>172.79999999999998</ele><time>2026-04-19T08:41:14.001Z</time></trkpt><trkpt lat="43.469277868984506" lon="10.72219338529814"><ele>173.2</ele><time>2026-04-19T08:41:15.001Z</time></trkpt><trkpt lat="43.46917671697653" lon="10.722185783773746"><ele>173.6</ele><time>2026-04-19T08:41:16.001Z</time></trkpt><trkpt lat="43.469065592977515" lon="10.722197156517357"><ele>174.0</ele><time>2026-04-19T08:41:17.001Z</time></trkpt><trkpt lat="43.468952544650435" lon="10.722197520854918"><ele>174.0</ele><time>2026-04-19T08:41:18.001Z</time></trkpt><trkpt lat="43.46883369459202" lon="10.722165427399496"><ele>174.0</ele><time>2026-04-19T08:41:19.001Z</time></trkpt><trkpt lat="43.46870162574437" lon="10.722117596052488"><ele>174.0</ele><time>2026-04-19T08:41:20.001Z</time></trkpt><trkpt lat="43.46856374437073" lon="10.722042848496656"><ele>174.0</ele><time>2026-04-19T08:41:21.001Z</time></trkpt><trkpt lat="43.468417389160926" lon="10.72195314015394"><ele>172.0</ele><time>2026-04-19T08:41:22.001Z</time></trkpt><trkpt lat="43.46827376932719" lon="10.72186472766454"><ele>170.0</ele><time>2026-04-19T08:41:23.001Z</time></trkpt><trkpt lat="43.46814187668954" lon="10.721778898566948"><ele>168.0</ele><time>2026-04-19T08:41:24.001Z</time></trkpt><trkpt lat="43.46801898840533" lon="10.721693794695337"><ele>166.0</ele><time>2026-04-19T08:41:25.001Z</time></trkpt><trkpt lat="43.46790103399692" lon="10.721611048132539"><ele>166.0</ele><time>2026-04-19T08:41:26.001Z</time></trkpt><trkpt lat="43.467777678010435" lon="10.72154896203021"><ele>166.0</ele><time>2026-04-19T08:41:27.001Z</time></trkpt><trkpt lat="43.467669322310336" lon="10.721445576497251"><ele>166.0</ele><time>2026-04-19T08:41:28.001Z</time></trkpt><trkpt lat="43.46755018074764" lon="10.72139047908963"><ele>166.0</ele><time>2026-04-19T08:41:29.001Z</time></trkpt><trkpt lat="43.46744234513974" lon="10.721307982474766"><ele>166.0</ele><time>2026-04-19T08:41:30.001Z</time></trkpt><trkpt lat="43.46733521846628" lon="10.721215000116779"><ele>166.0</ele><time>2026-04-19T08:41:31.001Z</time></trkpt><trkpt lat="43.46723075522666" lon="10.721132870754225"><ele>166.0</ele><time>2026-04-19T08:41:32.001Z</time></trkpt><trkpt lat="43.46713530481471" lon="10.72104614391549"><ele>166.0</ele><time>2026-04-19T08:41:33.001Z</time></trkpt><trkpt lat="43.46705095241599" lon="10.720952213115886"><ele>168.25</ele><time>2026-04-19T08:41:34.001Z</time></trkpt><trkpt lat="43.46702307235292" lon="10.72079890702747"><ele>170.5</ele><time>2026-04-19T08:41:35.001Z</time></trkpt><trkpt lat="43.46701276837354" lon="10.720657696723908"><ele>172.75</ele><time>2026-04-19T08:41:36.001Z</time></trkpt><trkpt lat="43.466988489725765" lon="10.720503226202649"><ele>175.0</ele><time>2026-04-19T08:41:37.001Z</time></trkpt><trkpt lat="43.466935457466725" lon="10.720342378491413"><ele>175.25</ele><time>2026-04-19T08:41:38.001Z</time></trkpt><trkpt lat="43.46685498937037" lon="10.720181914965558"><ele>175.5</ele><time>2026-04-19T08:41:39.001Z</time></trkpt><trkpt lat="43.466775258663255" lon="10.72002760295321"><ele>175.75</ele><time>2026-04-19T08:41:40.001Z</time></trkpt><trkpt lat="43.46670601291067" lon="10.719873700469083"><ele>176.0</ele><time>2026-04-19T08:41:41.001Z</time></trkpt><trkpt lat="43.46664189589893" lon="10.719729307780414"><ele>176.0</ele><time>2026-04-19T08:41:42.001Z</time></trkpt><trkpt lat="43.46658043567445" lon="10.719586010925527"><ele>176.0</ele><time>2026-04-19T08:41:43.001Z</time></trkpt><trkpt lat="43.46654219578625" lon="10.719432024146418"><ele>176.0</ele><time>2026-04-19T08:41:44.001Z</time></trkpt><trkpt lat="43.46650733442324" lon="10.719259677070896"><ele>176.0</ele><time>2026-04-19T08:41:45.001Z</time></trkpt><trkpt lat="43.466469081656776" lon="10.719064971225563"><ele>175.5</ele><time>2026-04-19T08:41:46.001Z</time></trkpt><trkpt lat="43.46642851285448" lon="10.718858476651501"><ele>175.0</ele><time>2026-04-19T08:41:47.001Z</time></trkpt><trkpt lat="43.46638531387843" lon="10.71866929163805"><ele>174.5</ele><time>2026-04-19T08:41:48.001Z</time></trkpt><trkpt lat="43.46632346690341" lon="10.71850156592313"><ele>174.0</ele><time>2026-04-19T08:41:49.001Z</time></trkpt><trkpt lat="43.46624938287671" lon="10.718376088713137"><ele>173.75</ele><time>2026-04-19T08:41:50.001Z</time></trkpt><trkpt lat="43.46615127637471" lon="10.718265598681588"><ele>173.5</ele><time>2026-04-19T08:41:51Z</time></trkpt><trkpt lat="43.46604238930737" lon="10.718151541021184"><ele>173.25</ele><time>2026-04-19T08:41:52Z</time></trkpt><trkpt lat="43.46592338610611" lon="10.718029547942153"><ele>173.0</ele><time>2026-04-19T08:41:53.001Z</time></trkpt><trkpt lat="43.46580402314448" lon="10.717902954333251"><ele>173.0</ele><time>2026-04-19T08:41:54Z</time></trkpt><trkpt lat="43.465688034247016" lon="10.71774365419679"><ele>173.0</ele><time>2026-04-19T08:41:55Z</time></trkpt><trkpt lat="43.46558132247432" lon="10.717576158248324"><ele>173.0</ele><time>2026-04-19T08:41:56Z</time></trkpt><trkpt lat="43.465497042164834" lon="10.717440237030733"><ele>172.66666666666666</ele><time>2026-04-19T08:41:57Z</time></trkpt><trkpt lat="43.46543221084552" lon="10.71733568225188"><ele>172.33333333333331</ele><time>2026-04-19T08:41:58Z</time></trkpt><trkpt lat="43.465387271422856" lon="10.717244393192919"><ele>172.0</ele><time>2026-04-19T08:41:59Z</time></trkpt><trkpt lat="43.46535407133818" lon="10.717140744188159"><ele>171.66666666666666</ele><time>2026-04-19T08:42:00Z</time></trkpt><trkpt lat="43.46533103059319" lon="10.717029914399562"><ele>171.33333333333334</ele><time>2026-04-19T08:42:01Z</time></trkpt><trkpt lat="43.465308557993275" lon="10.716890399958166"><ele>171.0</ele><time>2026-04-19T08:42:02Z</time></trkpt><trkpt lat="43.46528017015824" lon="10.716707409511065"><ele>169.33333333333334</ele><time>2026-04-19T08:42:03Z</time></trkpt><trkpt lat="43.46524902884575" lon="10.716509789257493"><ele>167.66666666666669</ele><time>2026-04-19T08:42:04Z</time></trkpt><trkpt lat="43.465208570190576" lon="10.71629444428592"><ele>166.0</ele><time>2026-04-19T08:42:05Z</time></trkpt><trkpt lat="43.46514806094655" lon="10.716070170327004"><ele>164.33333333333334</ele><time>2026-04-19T08:42:06Z</time></trkpt><trkpt lat="43.46505849930055" lon="10.715843076201267"><ele>162.66666666666666</ele><time>2026-04-19T08:42:07Z</time></trkpt><trkpt lat="43.46497061131625" lon="10.715616400391598"><ele>161.0</ele><time>2026-04-19T08:42:08Z</time></trkpt><trkpt lat="43.46488830908675" lon="10.715402911901444"><ele>159.66666666666666</ele><time>2026-04-19T08:42:09Z</time></trkpt><trkpt lat="43.46480917684426" lon="10.71520131735831"><ele>158.33333333333334</ele><time>2026-04-19T08:42:10Z</time></trkpt><trkpt lat="43.4647224601728" lon="10.715009635252807"><ele>157.0</ele><time>2026-04-19T08:42:11Z</time></trkpt><trkpt lat="43.46460977165537" lon="10.714826731463653"><ele>156.66666666666669</ele><time>2026-04-19T08:42:12Z</time></trkpt><trkpt lat="43.46448012200119" lon="10.714651910355526"><ele>156.33333333333334</ele><time>2026-04-19T08:42:13Z</time></trkpt><trkpt lat="43.46434479968825" lon="10.71446733766427"><ele>156.0</ele><time>2026-04-19T08:42:14Z</time></trkpt><trkpt lat="43.46420805072553" lon="10.714275682352909"><ele>155.66666666666666</ele><time>2026-04-19T08:42:15Z</time></trkpt><trkpt lat="43.46408317498753" lon="10.71406940067119"><ele>155.33333333333331</ele><time>2026-04-19T08:42:16Z</time></trkpt><trkpt lat="43.46398550791004" lon="10.713824607456825"><ele>155.0</ele><time>2026-04-19T08:42:17Z</time></trkpt><trkpt lat="43.463893500613835" lon="10.713590299156765"><ele>154.75</ele><time>2026-04-19T08:42:18Z</time></trkpt><trkpt lat="43.46380271806321" lon="10.713383235766512"><ele>154.5</ele><time>2026-04-19T08:42:19Z</time></trkpt><trkpt lat="43.46372432859774" lon="10.71322243293095"><ele>154.25</ele><time>2026-04-19T08:42:20Z</time></trkpt><trkpt lat="43.4636577554596" lon="10.713089683003176"><ele>154.0</ele><time>2026-04-19T08:42:21Z</time></trkpt><trkpt lat="43.46360014821916" lon="10.712976829664706"><ele>154.0</ele><time>2026-04-19T08:42:22Z</time></trkpt><trkpt lat="43.46353845729322" lon="10.712892833711113"><ele>154.0</ele><time>2026-04-19T08:42:23Z</time></trkpt><trkpt lat="43.46349919228362" lon="10.712796813003816"><ele>154.0</ele><time>2026-04-19T08:42:24Z</time></trkpt><trkpt lat="43.46345620223738" lon="10.712708072965585"><ele>154.0</ele><time>2026-04-19T08:42:25Z</time></trkpt><trkpt lat="43.463280935017224" lon="10.71273744342517"><ele>154.0</ele><time>2026-04-19T08:42:26Z</time></trkpt><trkpt lat="43.46316136115675" lon="10.712718388502456"><ele>154.75</ele><time>2026-04-19T08:42:27Z</time></trkpt><trkpt lat="43.46304261302304" lon="10.712692206788512"><ele>155.5</ele><time>2026-04-19T08:42:28Z</time></trkpt><trkpt lat="43.46292872215822" lon="10.712653340346336"><ele>156.25</ele><time>2026-04-19T08:42:29Z</time></trkpt><trkpt lat="43.46282782081216" lon="10.712567940578877"><ele>157.0</ele><time>2026-04-19T08:42:30Z</time></trkpt><trkpt lat="43.46270757352077" lon="10.71248974525884"><ele>157.5</ele><time>2026-04-19T08:42:31Z</time></trkpt><trkpt lat="43.46260618521854" lon="10.712360711734314"><ele>158.0</ele><time>2026-04-19T08:42:32Z</time></trkpt><trkpt lat="43.46249543821638" lon="10.712244656425867"><ele>158.5</ele><time>2026-04-19T08:42:33Z</time></trkpt><trkpt lat="43.46239197801133" lon="10.71211294982151"><ele>159.0</ele><time>2026-04-19T08:42:34Z</time></trkpt><trkpt lat="43.46231729532016" lon="10.711972984075457"><ele>160.25</ele><time>2026-04-19T08:42:35Z</time></trkpt><trkpt lat="43.46224954004348" lon="10.711823461755003"><ele>161.5</ele><time>2026-04-19T08:42:36Z</time></trkpt><trkpt lat="43.46217191349815" lon="10.711670326558718"><ele>162.75</ele><time>2026-04-19T08:42:37Z</time></trkpt><trkpt lat="43.46206779642629" lon="10.711564429659933"><ele>164.0</ele><time>2026-04-19T08:42:38Z</time></trkpt><trkpt lat="43.46195568355626" lon="10.711513326261903"><ele>164.75</ele><time>2026-04-19T08:42:39Z</time></trkpt><trkpt lat="43.46181827025314" lon="10.711526392110438"><ele>165.5</ele><time>2026-04-19T08:42:40Z</time></trkpt><trkpt lat="43.46167300266032" lon="10.711534158831366"><ele>166.25</ele><time>2026-04-19T08:42:41Z</time></trkpt><trkpt lat="43.46152650374066" lon="10.711541104423988"><ele>167.0</ele><time>2026-04-19T08:42:42Z</time></trkpt><trkpt lat="43.46137686222883" lon="10.711540865488914"><ele>168.66666666666666</ele><time>2026-04-19T08:42:43Z</time></trkpt><trkpt lat="43.4612162640723" lon="10.711526423039194"><ele>170.33333333333334</ele><time>2026-04-19T08:42:44Z</time></trkpt><trkpt lat="43.46105492469285" lon="10.71150660594067"><ele>172.0</ele><time>2026-04-19T08:42:45Z</time></trkpt><trkpt lat="43.460896508807615" lon="10.711482604021429"><ele>172.0</ele><time>2026-04-19T08:42:46Z</time></trkpt><trkpt lat="43.4607502902626" lon="10.711453547654733"><ele>172.0</ele><time>2026-04-19T08:42:47Z</time></trkpt><trkpt lat="43.460612888108756" lon="10.711424326906869"><ele>172.0</ele><time>2026-04-19T08:42:48Z</time></trkpt><trkpt lat="43.460491081946856" lon="10.711353163702018"><ele>172.0</ele><time>2026-04-19T08:42:49Z</time></trkpt><trkpt lat="43.460352480898756" lon="10.711309709408907"><ele>172.75</ele><time>2026-04-19T08:42:50Z</time></trkpt><trkpt lat="43.46021246929839" lon="10.71122364545597"><ele>173.5</ele><time>2026-04-19T08:42:51Z</time></trkpt><trkpt lat="43.46008804670265" lon="10.711108100359272"><ele>174.25</ele><time>2026-04-19T08:42:52Z</time></trkpt><trkpt lat="43.459983079654556" lon="10.711013545692323"><ele>175.0</ele><time>2026-04-19T08:42:53Z</time></trkpt><trkpt lat="43.459915215965836" lon="10.710916347782755"><ele>176.8</ele><time>2026-04-19T08:42:54Z</time></trkpt><trkpt lat="43.459873245127625" lon="10.710814225882494"><ele>178.6</ele><time>2026-04-19T08:42:55Z</time></trkpt><trkpt lat="43.45983417474073" lon="10.710706352711142"><ele>180.39999999999998</ele><time>2026-04-19T08:42:56Z</time></trkpt><trkpt lat="43.459839587871876" lon="10.71058593679986"><ele>182.2</ele><time>2026-04-19T08:42:57Z</time></trkpt><trkpt lat="43.45987329853123" lon="10.710454245944227"><ele>184.0</ele><time>2026-04-19T08:42:58Z</time></trkpt><trkpt lat="43.45992206653932" lon="10.710339767839237"><ele>184.0</ele><time>2026-04-19T08:42:59Z</time></trkpt><trkpt lat="43.459947701744525" lon="10.710253041616152"><ele>184.0</ele><time>2026-04-19T08:43:00.001Z</time></trkpt><trkpt lat="43.459956713949445" lon="10.710133175727286"><ele>184.0</ele><time>2026-04-19T08:43:02.001Z</time></trkpt><trkpt lat="43.45995238561931" lon="10.709996698733342"><ele>184.0</ele><time>2026-04-19T08:43:04.001Z</time></trkpt><trkpt lat="43.45990803154991" lon="10.709864399323145"><ele>184.0</ele><time>2026-04-19T08:43:06.001Z</time></trkpt><trkpt lat="43.45981682580742" lon="10.709764052972115"><ele>184.0</ele><time>2026-04-19T08:43:08.001Z</time></trkpt><trkpt lat="43.45974882934305" lon="10.709740668490975"><ele>184.0</ele><time>2026-04-19T08:43:09.001Z</time></trkpt><trkpt lat="43.45963796211932" lon="10.709701100256407"><ele>184.0</ele><time>2026-04-19T08:43:11.001Z</time></trkpt><trkpt lat="43.45956318918431" lon="10.70968316411263"><ele>184.0</ele><time>2026-04-19T08:43:12.001Z</time></trkpt><trkpt lat="43.459484441256784" lon="10.70967010439386"><ele>184.0</ele><time>2026-04-19T08:43:13.001Z</time></trkpt><trkpt lat="43.459406209806865" lon="10.70965844377155"><ele>184.0</ele><time>2026-04-19T08:43:14.001Z</time></trkpt><trkpt lat="43.45930883612299" lon="10.709644828734854"><ele>184.0</ele><time>2026-04-19T08:43:15.001Z</time></trkpt><trkpt lat="43.4592130803103" lon="10.709631439958846"><ele>184.0</ele><time>2026-04-19T08:43:16.001Z</time></trkpt><trkpt lat="43.45911728562209" lon="10.709616238861019"><ele>184.0</ele><time>2026-04-19T08:43:17.001Z</time></trkpt><trkpt lat="43.45900739242856" lon="10.709598546307328"><ele>184.0</ele><time>2026-04-19T08:43:18.001Z</time></trkpt><trkpt lat="43.4588879047179" lon="10.709602041352355"><ele>184.0</ele><time>2026-04-19T08:43:19.001Z</time></trkpt><trkpt lat="43.45876940305745" lon="10.709575065140324"><ele>183.5</ele><time>2026-04-19T08:43:20.001Z</time></trkpt><trkpt lat="43.45864321749218" lon="10.709550670615075"><ele>183.0</ele><time>2026-04-19T08:43:21.001Z</time></trkpt><trkpt lat="43.45851329307923" lon="10.7095251137395"><ele>182.5</ele><time>2026-04-19T08:43:22.001Z</time></trkpt><trkpt lat="43.45838512600413" lon="10.709478620179848"><ele>182.0</ele><time>2026-04-19T08:43:23.001Z</time></trkpt><trkpt lat="43.45825726158081" lon="10.709451485738919"><ele>182.0</ele><time>2026-04-19T08:43:24.001Z</time></trkpt><trkpt lat="43.458129544486454" lon="10.709426876030545"><ele>182.0</ele><time>2026-04-19T08:43:25.001Z</time></trkpt><trkpt lat="43.458000492501625" lon="10.709424787123144"><ele>182.0</ele><time>2026-04-19T08:43:26.001Z</time></trkpt><trkpt lat="43.45787239189767" lon="10.70938711362304"><ele>182.0</ele><time>2026-04-19T08:43:27.001Z</time></trkpt><trkpt lat="43.4577404404757" lon="10.709364384405683"><ele>181.6</ele><time>2026-04-19T08:43:28.001Z</time></trkpt><trkpt lat="43.457613939644204" lon="10.70933161205755"><ele>181.2</ele><time>2026-04-19T08:43:29.001Z</time></trkpt><trkpt lat="43.45749375080788" lon="10.709321006380705"><ele>180.8</ele><time>2026-04-19T08:43:30.001Z</time></trkpt><trkpt lat="43.4573935439537" lon="10.709293861313578"><ele>180.4</ele><time>2026-04-19T08:43:31.001Z</time></trkpt><trkpt lat="43.45731710903761" lon="10.709285547787971"><ele>180.0</ele><time>2026-04-19T08:43:32.001Z</time></trkpt><trkpt lat="43.45721649972767" lon="10.709250394597245"><ele>180.0</ele><time>2026-04-19T08:43:34.001Z</time></trkpt><trkpt lat="43.4571277612198" lon="10.70915175968523"><ele>180.0</ele><time>2026-04-19T08:43:36.001Z</time></trkpt><trkpt lat="43.45708784240213" lon="10.709074927205846"><ele>180.0</ele><time>2026-04-19T08:43:37.001Z</time></trkpt><trkpt lat="43.4570408487257" lon="10.70896997981644"><ele>180.0</ele><time>2026-04-19T08:43:38.001Z</time></trkpt><trkpt lat="43.45702087190058" lon="10.708853554824168"><ele>180.0</ele><time>2026-04-19T08:43:39.001Z</time></trkpt><trkpt lat="43.45698284870901" lon="10.70873107934517"><ele>180.25</ele><time>2026-04-19T08:43:40.001Z</time></trkpt><trkpt lat="43.45694131565223" lon="10.70859052241656"><ele>180.5</ele><time>2026-04-19T08:43:41.001Z</time></trkpt><trkpt lat="43.456889757245506" lon="10.708433401016434"><ele>180.75</ele><time>2026-04-19T08:43:42.001Z</time></trkpt><trkpt lat="43.456831971393555" lon="10.708275032441831"><ele>181.0</ele><time>2026-04-19T08:43:43.001Z</time></trkpt><trkpt lat="43.456760234541534" lon="10.70813239338369"><ele>181.0</ele><time>2026-04-19T08:43:44.001Z</time></trkpt><trkpt lat="43.456689642804676" lon="10.708011242952123"><ele>181.0</ele><time>2026-04-19T08:43:45.001Z</time></trkpt><trkpt lat="43.45662219208395" lon="10.707901357359198"><ele>181.0</ele><time>2026-04-19T08:43:46.001Z</time></trkpt><trkpt lat="43.456546423778896" lon="10.70779172584558"><ele>181.0</ele><time>2026-04-19T08:43:47.001Z</time></trkpt><trkpt lat="43.45646438862799" lon="10.707683945550665"><ele>181.0</ele><time>2026-04-19T08:43:48.001Z</time></trkpt><trkpt lat="43.45637740577604" lon="10.707581419816536"><ele>181.60000000000002</ele><time>2026-04-19T08:43:49.001Z</time></trkpt><trkpt lat="43.45629338708443" lon="10.707496382135696"><ele>182.2</ele><time>2026-04-19T08:43:50.001Z</time></trkpt><trkpt lat="43.456216867395426" lon="10.70741918239371"><ele>182.8</ele><time>2026-04-19T08:43:51.001Z</time></trkpt><trkpt lat="43.45613873457692" lon="10.707336964240737"><ele>183.39999999999998</ele><time>2026-04-19T08:43:52.001Z</time></trkpt><trkpt lat="43.4560534814438" lon="10.707254119994428"><ele>184.0</ele><time>2026-04-19T08:43:53.001Z</time></trkpt><trkpt lat="43.45596742700879" lon="10.707160747196296"><ele>184.6</ele><time>2026-04-19T08:43:54.001Z</time></trkpt><trkpt lat="43.45588080933783" lon="10.707061827593135"><ele>185.2</ele><time>2026-04-19T08:43:55.001Z</time></trkpt><trkpt lat="43.45579914086763" lon="10.706959779463354"><ele>185.79999999999998</ele><time>2026-04-19T08:43:56.001Z</time></trkpt><trkpt lat="43.45574135340038" lon="10.706834344840248"><ele>186.39999999999998</ele><time>2026-04-19T08:43:57Z</time></trkpt><trkpt lat="43.455681585263974" lon="10.706721049915933"><ele>187.0</ele><time>2026-04-19T08:43:58Z</time></trkpt><trkpt lat="43.45563751913447" lon="10.706601903418322"><ele>188.25</ele><time>2026-04-19T08:43:59Z</time></trkpt><trkpt lat="43.45557501553372" lon="10.706475811210568"><ele>189.5</ele><time>2026-04-19T08:44:00Z</time></trkpt><trkpt lat="43.45552780128119" lon="10.706322421201643"><ele>190.75</ele><time>2026-04-19T08:44:01Z</time></trkpt><trkpt lat="43.45546561907413" lon="10.706176071553923"><ele>192.0</ele><time>2026-04-19T08:44:02Z</time></trkpt><trkpt lat="43.45539713303128" lon="10.70606615914243"><ele>193.5</ele><time>2026-04-19T08:44:03Z</time></trkpt><trkpt lat="43.45533896989348" lon="10.705982295922967"><ele>195.0</ele><time>2026-04-19T08:44:04Z</time></trkpt><trkpt lat="43.45527699704895" lon="10.70591763079313"><ele>196.5</ele><time>2026-04-19T08:44:05Z</time></trkpt><trkpt lat="43.45521135141669" lon="10.705828785727647"><ele>198.0</ele><time>2026-04-19T08:44:06Z</time></trkpt><trkpt lat="43.45513378943198" lon="10.705762295179957"><ele>199.5</ele><time>2026-04-19T08:44:07Z</time></trkpt><trkpt lat="43.45505990846476" lon="10.705696932899794"><ele>201.0</ele><time>2026-04-19T08:44:08Z</time></trkpt><trkpt lat="43.45498538038025" lon="10.705610206164312"><ele>201.0</ele><time>2026-04-19T08:44:09Z</time></trkpt><trkpt lat="43.45492383992201" lon="10.705518640092144"><ele>201.0</ele><time>2026-04-19T08:44:10Z</time></trkpt><trkpt lat="43.45487060605958" lon="10.705409009919197"><ele>201.0</ele><time>2026-04-19T08:44:11Z</time></trkpt><trkpt lat="43.45481038658024" lon="10.705303368435574"><ele>201.0</ele><time>2026-04-19T08:44:12Z</time></trkpt><trkpt lat="43.45472320319109" lon="10.70519506563638"><ele>201.0</ele><time>2026-04-19T08:44:13Z</time></trkpt><trkpt lat="43.45464615790899" lon="10.705065564420627"><ele>204.20000000000002</ele><time>2026-04-19T08:44:14Z</time></trkpt><trkpt lat="43.45456015366054" lon="10.704949506420103"><ele>207.4</ele><time>2026-04-19T08:44:15Z</time></trkpt><trkpt lat="43.45449335037083" lon="10.704829584618508"><ele>210.6</ele><time>2026-04-19T08:44:16Z</time></trkpt><trkpt lat="43.45444014663868" lon="10.704732790399333"><ele>213.8</ele><time>2026-04-19T08:44:17Z</time></trkpt><trkpt lat="43.45443688364597" lon="10.704623877777195"><ele>217.0</ele><time>2026-04-19T08:44:18Z</time></trkpt><trkpt lat="43.4544209636869" lon="10.70451642082268"><ele>217.33333333333331</ele><time>2026-04-19T08:44:19Z</time></trkpt><trkpt lat="43.45440001110459" lon="10.704377613727912"><ele>217.66666666666666</ele><time>2026-04-19T08:44:20Z</time></trkpt><trkpt lat="43.45437883178973" lon="10.704268205479941"><ele>218.0</ele><time>2026-04-19T08:44:21Z</time></trkpt><trkpt lat="43.45435526939514" lon="10.704175947665325"><ele>218.33333333333331</ele><time>2026-04-19T08:44:22Z</time></trkpt><trkpt lat="43.45430127269071" lon="10.704074028135482"><ele>218.66666666666666</ele><time>2026-04-19T08:44:23Z</time></trkpt><trkpt lat="43.45421818410188" lon="10.704025862652045"><ele>219.0</ele><time>2026-04-19T08:44:24Z</time></trkpt><trkpt lat="43.45414507160586" lon="10.703998422710859"><ele>219.0</ele><time>2026-04-19T08:44:25Z</time></trkpt><trkpt lat="43.45405471743651" lon="10.703976948658148"><ele>219.0</ele><time>2026-04-19T08:44:26Z</time></trkpt><trkpt lat="43.45394215732324" lon="10.703996969835806"><ele>219.0</ele><time>2026-04-19T08:44:27Z</time></trkpt><trkpt lat="43.453818496018606" lon="10.704010866132611"><ele>219.0</ele><time>2026-04-19T08:44:28Z</time></trkpt><trkpt lat="43.453695631164166" lon="10.704024007669505"><ele>220.5</ele><time>2026-04-19T08:44:29Z</time></trkpt><trkpt lat="43.45356247029502" lon="10.70403686264524"><ele>222.0</ele><time>2026-04-19T08:44:30Z</time></trkpt><trkpt lat="43.453426250803474" lon="10.704050604651782"><ele>223.5</ele><time>2026-04-19T08:44:31Z</time></trkpt><trkpt lat="43.453299453690654" lon="10.704077577657182"><ele>225.0</ele><time>2026-04-19T08:44:32Z</time></trkpt><trkpt lat="43.45317656363465" lon="10.704106061768227"><ele>225.0</ele><time>2026-04-19T08:44:33Z</time></trkpt><trkpt lat="43.45307485328456" lon="10.70412423036763"><ele>225.0</ele><time>2026-04-19T08:44:34Z</time></trkpt><trkpt lat="43.45298227988433" lon="10.704150712320505"><ele>225.0</ele><time>2026-04-19T08:44:35Z</time></trkpt><trkpt lat="43.452886171562746" lon="10.704192307144767"><ele>225.0</ele><time>2026-04-19T08:44:36Z</time></trkpt><trkpt lat="43.452782213201225" lon="10.704260654606426"><ele>225.0</ele><time>2026-04-19T08:44:37Z</time></trkpt><trkpt lat="43.452671332172095" lon="10.7043367168657"><ele>227.25</ele><time>2026-04-19T08:44:38Z</time></trkpt><trkpt lat="43.452556517738294" lon="10.704415435549253"><ele>229.5</ele><time>2026-04-19T08:44:39Z</time></trkpt><trkpt lat="43.452434598484274" lon="10.704505157457241"><ele>231.75</ele><time>2026-04-19T08:44:40Z</time></trkpt><trkpt lat="43.45231242447959" lon="10.704598315508951"><ele>234.0</ele><time>2026-04-19T08:44:41Z</time></trkpt><trkpt lat="43.45221683120666" lon="10.704681715792082"><ele>234.0</ele><time>2026-04-19T08:44:42Z</time></trkpt><trkpt lat="43.45212540585562" lon="10.704756703132514"><ele>233.99999999999997</ele><time>2026-04-19T08:44:43Z</time></trkpt><trkpt lat="43.45203482111095" lon="10.704866713556703"><ele>233.99999999999997</ele><time>2026-04-19T08:44:44Z</time></trkpt><trkpt lat="43.45196727964202" lon="10.704963411806157"><ele>234.0</ele><time>2026-04-19T08:44:45Z</time></trkpt><trkpt lat="43.45192257218385" lon="10.705062890342012"><ele>234.0</ele><time>2026-04-19T08:44:46Z</time></trkpt><trkpt lat="43.45189103895622" lon="10.705194286522678"><ele>236.75</ele><time>2026-04-19T08:44:47Z</time></trkpt><trkpt lat="43.451870346624716" lon="10.705346168238915"><ele>239.5</ele><time>2026-04-19T08:44:48Z</time></trkpt><trkpt lat="43.45185994859678" lon="10.705453482448082"><ele>242.25</ele><time>2026-04-19T08:44:49Z</time></trkpt><trkpt lat="43.45179513970389" lon="10.705614484068162"><ele>245.0</ele><time>2026-04-19T08:44:50Z</time></trkpt><trkpt lat="43.45171310237297" lon="10.705774730843038"><ele>245.0</ele><time>2026-04-19T08:44:51Z</time></trkpt><trkpt lat="43.451626638330865" lon="10.70593583108087"><ele>245.0</ele><time>2026-04-19T08:44:52Z</time></trkpt><trkpt lat="43.45153696306937" lon="10.706083591779464"><ele>245.0</ele><time>2026-04-19T08:44:53Z</time></trkpt><trkpt lat="43.45145384176068" lon="10.706213395193622"><ele>245.0</ele><time>2026-04-19T08:44:54Z</time></trkpt><trkpt lat="43.451366179161404" lon="10.706311605157222"><ele>244.6</ele><time>2026-04-19T08:44:55Z</time></trkpt><trkpt lat="43.45130397043757" lon="10.706416358752564"><ele>244.2</ele><time>2026-04-19T08:44:56Z</time></trkpt><trkpt lat="43.4512428214026" lon="10.706490851992427"><ele>243.8</ele><time>2026-04-19T08:44:57Z</time></trkpt><trkpt lat="43.45118533292088" lon="10.706553464259267"><ele>243.4</ele><time>2026-04-19T08:44:58Z</time></trkpt><trkpt lat="43.45110559697979" lon="10.706652426000279"><ele>243.0</ele><time>2026-04-19T08:45:00Z</time></trkpt><trkpt lat="43.451191064307295" lon="10.706968927381109"><ele>241.0</ele><time>2026-04-19T08:45:02Z</time></trkpt><trkpt lat="43.45119985099394" lon="10.707155592383057"><ele>239.0</ele><time>2026-04-19T08:45:03Z</time></trkpt><trkpt lat="43.45119787453306" lon="10.707326537462384"><ele>237.0</ele><time>2026-04-19T08:45:04Z</time></trkpt><trkpt lat="43.45120275144833" lon="10.70747833081285"><ele>235.0</ele><time>2026-04-19T08:45:05Z</time></trkpt><trkpt lat="43.451203749613526" lon="10.707608045329883"><ele>235.0</ele><time>2026-04-19T08:45:06Z</time></trkpt><trkpt lat="43.45120374653222" lon="10.707704199495476"><ele>235.0</ele><time>2026-04-19T08:45:07Z</time></trkpt><trkpt lat="43.45119001125359" lon="10.70785029769287"><ele>235.0</ele><time>2026-04-19T08:45:09Z</time></trkpt><trkpt lat="43.451173609356026" lon="10.70798958638583"><ele>235.0</ele><time>2026-04-19T08:45:11Z</time></trkpt><trkpt lat="43.4511720233697" lon="10.708133224816974"><ele>235.0</ele><time>2026-04-19T08:45:13Z</time></trkpt><trkpt lat="43.45113862366696" lon="10.708275293010583"><ele>234.4</ele><time>2026-04-19T08:45:15Z</time></trkpt><trkpt lat="43.45109025860719" lon="10.708383600070512"><ele>233.8</ele><time>2026-04-19T08:45:17Z</time></trkpt><trkpt lat="43.45104009158973" lon="10.708490094877654"><ele>233.2</ele><time>2026-04-19T08:45:19Z</time></trkpt><trkpt lat="43.450996376909245" lon="10.708623529968996"><ele>232.6</ele><time>2026-04-19T08:45:21Z</time></trkpt><trkpt lat="43.45094997862603" lon="10.708767314453913"><ele>232.0</ele><time>2026-04-19T08:45:23Z</time></trkpt><trkpt lat="43.45090056372132" lon="10.708895021293749"><ele>231.83333333333331</ele><time>2026-04-19T08:45:25Z</time></trkpt><trkpt lat="43.450857482387725" lon="10.708966910124982"><ele>231.66666666666666</ele><time>2026-04-19T08:45:26Z</time></trkpt><trkpt lat="43.450804909211605" lon="10.709023991789737"><ele>231.5</ele><time>2026-04-19T08:45:27Z</time></trkpt><trkpt lat="43.45074940874942" lon="10.709105873714211"><ele>231.33333333333331</ele><time>2026-04-19T08:45:28Z</time></trkpt><trkpt lat="43.450702971209545" lon="10.709201336772232"><ele>231.16666666666666</ele><time>2026-04-19T08:45:29Z</time></trkpt><trkpt lat="43.45068994620031" lon="10.709330559693987"><ele>231.0</ele><time>2026-04-19T08:45:31Z</time></trkpt><trkpt lat="43.45066166722155" lon="10.709439032692861"><ele>230.0</ele><time>2026-04-19T08:45:33.001Z</time></trkpt><trkpt lat="43.450581164755015" lon="10.709583367307292"><ele>229.00000000000003</ele><time>2026-04-19T08:45:35.001Z</time></trkpt><trkpt lat="43.45053099232339" lon="10.709636809518503"><ele>228.00000000000003</ele><time>2026-04-19T08:45:36.001Z</time></trkpt><trkpt lat="43.450474860913815" lon="10.709691049772868"><ele>227.0</ele><time>2026-04-19T08:45:37.001Z</time></trkpt><trkpt lat="43.45042478258956" lon="10.709754417526453"><ele>226.0</ele><time>2026-04-19T08:45:38.001Z</time></trkpt><trkpt lat="43.450358411760185" lon="10.709907845679057"><ele>224.33333333333331</ele><time>2026-04-19T08:45:40.001Z</time></trkpt><trkpt lat="43.45032501913607" lon="10.710003388881379"><ele>222.66666666666666</ele><time>2026-04-19T08:45:41.001Z</time></trkpt><trkpt lat="43.45029679036217" lon="10.710120357814578"><ele>221.0</ele><time>2026-04-19T08:45:42.001Z</time></trkpt><trkpt lat="43.45028792954167" lon="10.710228122419576"><ele>219.33333333333331</ele><time>2026-04-19T08:45:43.001Z</time></trkpt><trkpt lat="43.450295069013464" lon="10.710349943627497"><ele>217.66666666666666</ele><time>2026-04-19T08:45:44.001Z</time></trkpt><trkpt lat="43.450294482397986" lon="10.710446972603267"><ele>216.0</ele><time>2026-04-19T08:45:45.001Z</time></trkpt><trkpt lat="43.450292258804986" lon="10.710557110200726"><ele>215.66666666666666</ele><time>2026-04-19T08:45:46.001Z</time></trkpt><trkpt lat="43.450284923597046" lon="10.710662057402244"><ele>215.33333333333331</ele><time>2026-04-19T08:45:47.001Z</time></trkpt><trkpt lat="43.45028401952337" lon="10.710754757883976"><ele>215.0</ele><time>2026-04-19T08:45:48.001Z</time></trkpt><trkpt lat="43.45028255021426" lon="10.710857492245756"><ele>214.66666666666666</ele><time>2026-04-19T08:45:49.001Z</time></trkpt><trkpt lat="43.45027643135921" lon="10.710973524532514"><ele>214.33333333333331</ele><time>2026-04-19T08:45:50.001Z</time></trkpt><trkpt lat="43.45026019693537" lon="10.71110159441735"><ele>214.0</ele><time>2026-04-19T08:45:51.001Z</time></trkpt><trkpt lat="43.450238261141145" lon="10.711239982491321"><ele>213.6</ele><time>2026-04-19T08:45:52.001Z</time></trkpt><trkpt lat="43.45021309956713" lon="10.711377996407077"><ele>213.2</ele><time>2026-04-19T08:45:53.001Z</time></trkpt><trkpt lat="43.45018892279979" lon="10.711516569410131"><ele>212.79999999999998</ele><time>2026-04-19T08:45:54.001Z</time></trkpt><trkpt lat="43.45015901555869" lon="10.711651260325882"><ele>212.39999999999998</ele><time>2026-04-19T08:45:55.001Z</time></trkpt><trkpt lat="43.45012996914049" lon="10.711775806949111"><ele>212.0</ele><time>2026-04-19T08:45:56.001Z</time></trkpt><trkpt lat="43.450096711368985" lon="10.71189646935678"><ele>212.39999999999998</ele><time>2026-04-19T08:45:57.001Z</time></trkpt><trkpt lat="43.45006122365502" lon="10.712015194346174"><ele>212.79999999999998</ele><time>2026-04-19T08:45:58.001Z</time></trkpt><trkpt lat="43.45002643240728" lon="10.71214927263345"><ele>213.2</ele><time>2026-04-19T08:45:59.001Z</time></trkpt><trkpt lat="43.4499891065386" lon="10.712303512020926"><ele>213.6</ele><time>2026-04-19T08:46:00.001Z</time></trkpt><trkpt lat="43.44995190583847" lon="10.712446471210113"><ele>214.0</ele><time>2026-04-19T08:46:01.001Z</time></trkpt><trkpt lat="43.449915633564196" lon="10.712575905104574"><ele>214.0</ele><time>2026-04-19T08:46:02.001Z</time></trkpt><trkpt lat="43.44988346274552" lon="10.71271683625448"><ele>213.99999999999997</ele><time>2026-04-19T08:46:03Z</time></trkpt><trkpt lat="43.44984448895236" lon="10.71284386129241"><ele>213.99999999999997</ele><time>2026-04-19T08:46:04Z</time></trkpt><trkpt lat="43.44979038748918" lon="10.712943740311172"><ele>214.0</ele><time>2026-04-19T08:46:05Z</time></trkpt><trkpt lat="43.44972160140012" lon="10.713035656794409"><ele>214.0</ele><time>2026-04-19T08:46:06Z</time></trkpt><trkpt lat="43.449668651781046" lon="10.713120452887539"><ele>213.39999999999998</ele><time>2026-04-19T08:46:07Z</time></trkpt><trkpt lat="43.449643050961896" lon="10.713207520180829"><ele>212.79999999999998</ele><time>2026-04-19T08:46:08Z</time></trkpt><trkpt lat="43.449682382492746" lon="10.713376657139683"><ele>212.2</ele><time>2026-04-19T08:46:10Z</time></trkpt><trkpt lat="43.44972289775054" lon="10.713456052793582"><ele>211.60000000000002</ele><time>2026-04-19T08:46:11Z</time></trkpt><trkpt lat="43.449796938284706" lon="10.713553137813886"><ele>211.0</ele><time>2026-04-19T08:46:13Z</time></trkpt><trkpt lat="43.449868197355514" lon="10.71362560529906"><ele>209.4</ele><time>2026-04-19T08:46:15Z</time></trkpt><trkpt lat="43.449945202533726" lon="10.713699826746245"><ele>207.8</ele><time>2026-04-19T08:46:17Z</time></trkpt><trkpt lat="43.45003129038643" lon="10.713778222317151"><ele>206.20000000000002</ele><time>2026-04-19T08:46:19Z</time></trkpt><trkpt lat="43.45012440379815" lon="10.713878956426237"><ele>204.60000000000002</ele><time>2026-04-19T08:46:21Z</time></trkpt><trkpt lat="43.45022314781706" lon="10.71396686094682"><ele>203.0</ele><time>2026-04-19T08:46:23Z</time></trkpt><trkpt lat="43.45032602273522" lon="10.714060575496061"><ele>203.0</ele><time>2026-04-19T08:46:25Z</time></trkpt><trkpt lat="43.45042020035874" lon="10.714136339434997"><ele>203.0</ele><time>2026-04-19T08:46:27Z</time></trkpt><trkpt lat="43.450531782687236" lon="10.714195187045712"><ele>203.0</ele><time>2026-04-19T08:46:29Z</time></trkpt><trkpt lat="43.45064290374313" lon="10.714252018112662"><ele>203.0</ele><time>2026-04-19T08:46:31Z</time></trkpt><trkpt lat="43.450707066357985" lon="10.714290314358252"><ele>203.0</ele><time>2026-04-19T08:46:32Z</time></trkpt><trkpt lat="43.45076794756972" lon="10.714343658507863"><ele>200.60000000000002</ele><time>2026-04-19T08:46:33Z</time></trkpt><trkpt lat="43.450857599518976" lon="10.71446401539099"><ele>198.20000000000002</ele><time>2026-04-19T08:46:35Z</time></trkpt><trkpt lat="43.450905475188506" lon="10.714552338595142"><ele>195.8</ele><time>2026-04-19T08:46:36Z</time></trkpt><trkpt lat="43.45094700046539" lon="10.714648529554355"><ele>193.4</ele><time>2026-04-19T08:46:37Z</time></trkpt><trkpt lat="43.45099194038289" lon="10.714757808159725"><ele>191.0</ele><time>2026-04-19T08:46:38Z</time></trkpt><trkpt lat="43.45104970230658" lon="10.714870391090027"><ele>191.0</ele><time>2026-04-19T08:46:39Z</time></trkpt><trkpt lat="43.451127063501836" lon="10.714994653162687"><ele>191.0</ele><time>2026-04-19T08:46:40Z</time></trkpt><trkpt lat="43.451217689037506" lon="10.715111492405706"><ele>191.0</ele><time>2026-04-19T08:46:41Z</time></trkpt><trkpt lat="43.45129176416774" lon="10.715226227816284"><ele>191.0</ele><time>2026-04-19T08:46:42Z</time></trkpt><trkpt lat="43.451340614500126" lon="10.715316700722422"><ele>191.0</ele><time>2026-04-19T08:46:43Z</time></trkpt><trkpt lat="43.451389933823265" lon="10.715381132240031"><ele>190.33333333333331</ele><time>2026-04-19T08:46:44Z</time></trkpt><trkpt lat="43.451449023446976" lon="10.715459463130523"><ele>189.66666666666666</ele><time>2026-04-19T08:46:45Z</time></trkpt><trkpt lat="43.451529916854966" lon="10.71553080189131"><ele>189.0</ele><time>2026-04-19T08:46:46Z</time></trkpt><trkpt lat="43.451617037641256" lon="10.715590775836455"><ele>188.33333333333334</ele><time>2026-04-19T08:46:47Z</time></trkpt><trkpt lat="43.451682717370495" lon="10.715666359042974"><ele>187.66666666666669</ele><time>2026-04-19T08:46:48Z</time></trkpt><trkpt lat="43.451722631871775" lon="10.71576142956888"><ele>187.0</ele><time>2026-04-19T08:46:49Z</time></trkpt><trkpt lat="43.45173595657539" lon="10.71591233045576"><ele>187.0</ele><time>2026-04-19T08:46:51Z</time></trkpt><trkpt lat="43.45171249404178" lon="10.7160377828917"><ele>187.0</ele><time>2026-04-19T08:46:53Z</time></trkpt><trkpt lat="43.451763829657075" lon="10.716179753656952"><ele>187.0</ele><time>2026-04-19T08:46:55Z</time></trkpt><trkpt lat="43.45183923033966" lon="10.716280599209192"><ele>187.0</ele><time>2026-04-19T08:46:57Z</time></trkpt><trkpt lat="43.45193745847546" lon="10.71636253174623"><ele>187.0</ele><time>2026-04-19T08:46:59Z</time></trkpt><trkpt lat="43.452018066901054" lon="10.716414911272265"><ele>187.16666666666669</ele><time>2026-04-19T08:47:00Z</time></trkpt><trkpt lat="43.45209633910726" lon="10.7164621748549"><ele>187.33333333333334</ele><time>2026-04-19T08:47:01Z</time></trkpt><trkpt lat="43.45217192461554" lon="10.7165185008625"><ele>187.5</ele><time>2026-04-19T08:47:02Z</time></trkpt><trkpt lat="43.452212963336734" lon="10.71659340999717"><ele>187.66666666666666</ele><time>2026-04-19T08:47:03Z</time></trkpt><trkpt lat="43.452244586854235" lon="10.716716108670504"><ele>187.83333333333331</ele><time>2026-04-19T08:47:04Z</time></trkpt><trkpt lat="43.452285894257244" lon="10.716855201689178"><ele>188.0</ele><time>2026-04-19T08:47:05Z</time></trkpt><trkpt lat="43.45233117514238" lon="10.716988494394025"><ele>188.0</ele><time>2026-04-19T08:47:06Z</time></trkpt><trkpt lat="43.452378689450235" lon="10.717092894299777"><ele>188.0</ele><time>2026-04-19T08:47:07Z</time></trkpt><trkpt lat="43.45242190064443" lon="10.717181020026203"><ele>188.0</ele><time>2026-04-19T08:47:08Z</time></trkpt><trkpt lat="43.452465684633445" lon="10.717262268488255"><ele>188.0</ele><time>2026-04-19T08:47:09Z</time></trkpt><trkpt lat="43.45251875765772" lon="10.717312537273882"><ele>188.0</ele><time>2026-04-19T08:47:10Z</time></trkpt><trkpt lat="43.45257159138741" lon="10.717377669102081"><ele>188.0</ele><time>2026-04-19T08:47:11Z</time></trkpt><trkpt lat="43.45261561580155" lon="10.71747134664179"><ele>188.0</ele><time>2026-04-19T08:47:12Z</time></trkpt><trkpt lat="43.452659238950346" lon="10.717596617813085"><ele>188.0</ele><time>2026-04-19T08:47:13Z</time></trkpt><trkpt lat="43.45268854467433" lon="10.717737175434932"><ele>188.0</ele><time>2026-04-19T08:47:14Z</time></trkpt><trkpt lat="43.45272083616668" lon="10.717849533147765"><ele>188.0</ele><time>2026-04-19T08:47:15Z</time></trkpt><trkpt lat="43.4527402240532" lon="10.717934281175236"><ele>188.0</ele><time>2026-04-19T08:47:16Z</time></trkpt><trkpt lat="43.45273441311781" lon="10.718096502923975"><ele>186.8</ele><time>2026-04-19T08:47:18Z</time></trkpt><trkpt lat="43.45275024291484" lon="10.71819810343456"><ele>185.60000000000002</ele><time>2026-04-19T08:47:19Z</time></trkpt><trkpt lat="43.4527709117101" lon="10.718309790619896"><ele>184.39999999999998</ele><time>2026-04-19T08:47:20Z</time></trkpt><trkpt lat="43.452797946238825" lon="10.718454118574321"><ele>183.2</ele><time>2026-04-19T08:47:21Z</time></trkpt><trkpt lat="43.4528265414995" lon="10.718581892278074"><ele>182.0</ele><time>2026-04-19T08:47:22Z</time></trkpt><trkpt lat="43.45286110857453" lon="10.718701529681596"><ele>180.8</ele><time>2026-04-19T08:47:23Z</time></trkpt><trkpt lat="43.452917960115904" lon="10.718839384400257"><ele>179.6</ele><time>2026-04-19T08:47:24Z</time></trkpt><trkpt lat="43.45298059190304" lon="10.718960278951517"><ele>178.4</ele><time>2026-04-19T08:47:25Z</time></trkpt><trkpt lat="43.45303446092059" lon="10.719063846575388"><ele>177.20000000000002</ele><time>2026-04-19T08:47:26Z</time></trkpt><trkpt lat="43.45309678890281" lon="10.719170839136513"><ele>176.0</ele><time>2026-04-19T08:47:27Z</time></trkpt><trkpt lat="43.453159112284375" lon="10.719272740378235"><ele>176.0</ele><time>2026-04-19T08:47:28Z</time></trkpt><trkpt lat="43.4532191729503" lon="10.719373344590254"><ele>176.0</ele><time>2026-04-19T08:47:29Z</time></trkpt><trkpt lat="43.45327120625165" lon="10.719467036440616"><ele>176.0</ele><time>2026-04-19T08:47:30Z</time></trkpt><trkpt lat="43.45332344554149" lon="10.719550818121181"><ele>176.0</ele><time>2026-04-19T08:47:31Z</time></trkpt><trkpt lat="43.453372126506835" lon="10.71963523267294"><ele>176.0</ele><time>2026-04-19T08:47:32Z</time></trkpt><trkpt lat="43.45342926715997" lon="10.719727549003652"><ele>176.0</ele><time>2026-04-19T08:47:33Z</time></trkpt><trkpt lat="43.45348163156696" lon="10.719834236253474"><ele>174.75</ele><time>2026-04-19T08:47:34Z</time></trkpt><trkpt lat="43.45354235958377" lon="10.719964534484081"><ele>173.5</ele><time>2026-04-19T08:47:35Z</time></trkpt><trkpt lat="43.45360843369882" lon="10.720097937321185"><ele>172.25</ele><time>2026-04-19T08:47:36Z</time></trkpt><trkpt lat="43.453686637754124" lon="10.720237885525162"><ele>171.0</ele><time>2026-04-19T08:47:37Z</time></trkpt><trkpt lat="43.45375244556819" lon="10.720361641944612"><ele>170.33333333333334</ele><time>2026-04-19T08:47:38Z</time></trkpt><trkpt lat="43.453807554835706" lon="10.720467194112292"><ele>169.66666666666666</ele><time>2026-04-19T08:47:39Z</time></trkpt><trkpt lat="43.45385974074837" lon="10.720570679010015"><ele>169.0</ele><time>2026-04-19T08:47:40.001Z</time></trkpt><trkpt lat="43.453911865070054" lon="10.72066475200495"><ele>168.33333333333331</ele><time>2026-04-19T08:47:41.001Z</time></trkpt><trkpt lat="43.453956568291204" lon="10.720744814254953"><ele>167.66666666666666</ele><time>2026-04-19T08:47:42.001Z</time></trkpt><trkpt lat="43.45401236857018" lon="10.720864636756332"><ele>167.0</ele><time>2026-04-19T08:47:44.001Z</time></trkpt><trkpt lat="43.45394991076757" lon="10.720964997806153"><ele>167.0</ele><time>2026-04-19T08:47:46.001Z</time></trkpt><trkpt lat="43.45388180351161" lon="10.720999789828554"><ele>167.0</ele><time>2026-04-19T08:47:47.001Z</time></trkpt><trkpt lat="43.45380970909471" lon="10.721033958186394"><ele>167.0</ele><time>2026-04-19T08:47:48.001Z</time></trkpt><trkpt lat="43.453747716220896" lon="10.72106494771766"><ele>167.0</ele><time>2026-04-19T08:47:49.001Z</time></trkpt><trkpt lat="43.45368825911317" lon="10.72109766005822"><ele>167.0</ele><time>2026-04-19T08:47:50.001Z</time></trkpt><trkpt lat="43.45357542085179" lon="10.721175658182176"><ele>167.0</ele><time>2026-04-19T08:47:52.001Z</time></trkpt><trkpt lat="43.45348316896924" lon="10.721243244627496"><ele>165.4</ele><time>2026-04-19T08:47:54.001Z</time></trkpt><trkpt lat="43.45336190231181" lon="10.721325609401335"><ele>163.79999999999998</ele><time>2026-04-19T08:47:56.001Z</time></trkpt><trkpt lat="43.45329472458408" lon="10.721366139104592"><ele>162.2</ele><time>2026-04-19T08:47:57.001Z</time></trkpt><trkpt lat="43.45319185385115" lon="10.721428736111347"><ele>160.6</ele><time>2026-04-19T08:47:59.001Z</time></trkpt><trkpt lat="43.45310450277723" lon="10.721484969646118"><ele>159.0</ele><time>2026-04-19T08:48:01.001Z</time></trkpt><trkpt lat="43.453012186280745" lon="10.721538322496283"><ele>157.0</ele><time>2026-04-19T08:48:03.001Z</time></trkpt><trkpt lat="43.452905753674315" lon="10.72160960180631"><ele>155.0</ele><time>2026-04-19T08:48:05.001Z</time></trkpt><trkpt lat="43.452811772577995" lon="10.72167928549935"><ele>153.0</ele><time>2026-04-19T08:48:07.001Z</time></trkpt><trkpt lat="43.452748840195696" lon="10.721714765840714"><ele>151.0</ele><time>2026-04-19T08:48:08.001Z</time></trkpt><trkpt lat="43.45268244869113" lon="10.721751654682546"><ele>149.0</ele><time>2026-04-19T08:48:09Z</time></trkpt><trkpt lat="43.45257978034057" lon="10.721828893637129"><ele>149.0</ele><time>2026-04-19T08:48:11Z</time></trkpt><trkpt lat="43.45252327459092" lon="10.721872550098114"><ele>149.0</ele><time>2026-04-19T08:48:12Z</time></trkpt><trkpt lat="43.452460216068786" lon="10.721922249442951"><ele>149.0</ele><time>2026-04-19T08:48:13Z</time></trkpt><trkpt lat="43.452392657029726" lon="10.721970426684832"><ele>149.0</ele><time>2026-04-19T08:48:14Z</time></trkpt><trkpt lat="43.452312644754684" lon="10.722024988694313"><ele>149.0</ele><time>2026-04-19T08:48:15Z</time></trkpt><trkpt lat="43.4522418284809" lon="10.722069460046749"><ele>149.0</ele><time>2026-04-19T08:48:16Z</time></trkpt><trkpt lat="43.45216944162167" lon="10.722117072827759"><ele>148.0</ele><time>2026-04-19T08:48:17Z</time></trkpt><trkpt lat="43.45209983098508" lon="10.72215781187715"><ele>147.0</ele><time>2026-04-19T08:48:18Z</time></trkpt><trkpt lat="43.45202611130953" lon="10.722202083904296"><ele>146.0</ele><time>2026-04-19T08:48:19Z</time></trkpt><trkpt lat="43.451949968242566" lon="10.722247684140674"><ele>145.0</ele><time>2026-04-19T08:48:20Z</time></trkpt><trkpt lat="43.45188173157193" lon="10.722293149526296"><ele>144.0</ele><time>2026-04-19T08:48:21Z</time></trkpt><trkpt lat="43.45180921115193" lon="10.722335192779953"><ele>143.0</ele><time>2026-04-19T08:48:22Z</time></trkpt><trkpt lat="43.45172614028211" lon="10.722380559344051"><ele>143.0</ele><time>2026-04-19T08:48:23Z</time></trkpt><trkpt lat="43.4516524426757" lon="10.72242425534318"><ele>143.0</ele><time>2026-04-19T08:48:24Z</time></trkpt><trkpt lat="43.45158185021318" lon="10.722465705438209"><ele>143.0</ele><time>2026-04-19T08:48:25Z</time></trkpt><trkpt lat="43.45150041792409" lon="10.722514882424022"><ele>143.0</ele><time>2026-04-19T08:48:26Z</time></trkpt><trkpt lat="43.45143412910268" lon="10.72255601117994"><ele>143.0</ele><time>2026-04-19T08:48:27Z</time></trkpt><trkpt lat="43.451374941941054" lon="10.722591016145893"><ele>143.0</ele><time>2026-04-19T08:48:28Z</time></trkpt><trkpt lat="43.4512703669986" lon="10.7226403390611"><ele>143.0</ele><time>2026-04-19T08:48:30Z</time></trkpt><trkpt lat="43.451177092905255" lon="10.722641981268879"><ele>143.0</ele><time>2026-04-19T08:48:32Z</time></trkpt><trkpt lat="43.45110241581117" lon="10.722636721046085"><ele>143.0</ele><time>2026-04-19T08:48:34Z</time></trkpt><trkpt lat="43.45101679945895" lon="10.722638957182237"><ele>143.0</ele><time>2026-04-19T08:48:57Z</time></trkpt><trkpt lat="43.450935570639764" lon="10.722657931147337"><ele>143.0</ele><time>2026-04-19T08:49:35Z</time></trkpt><trkpt lat="43.450839890591176" lon="10.722704447694609"><ele>143.0</ele><time>2026-04-19T08:49:37Z</time></trkpt><trkpt lat="43.45076742089616" lon="10.722738681128305"><ele>143.0</ele><time>2026-04-19T08:49:39Z</time></trkpt><trkpt lat="43.45069935988954" lon="10.722697761003724"><ele>143.0</ele><time>2026-04-19T08:49:42.001Z</time></trkpt><trkpt lat="43.45065503973836" lon="10.722619321440924"><ele>143.0</ele><time>2026-04-19T08:49:47.001Z</time></trkpt><trkpt lat="43.45060823804068" lon="10.722545801183236"><ele>143.0</ele><time>2026-04-19T08:49:49.001Z</time></trkpt><trkpt lat="43.450552752854286" lon="10.722436875546862"><ele>143.0</ele><time>2026-04-19T08:49:51.001Z</time></trkpt><trkpt lat="43.45047968401282" lon="10.722360318721476"><ele>143.0</ele><time>2026-04-19T08:49:53.001Z</time></trkpt><trkpt lat="43.45034656848716" lon="10.722344349480585"><ele>143.66666666666666</ele><time>2026-04-19T08:49:55.001Z</time></trkpt><trkpt lat="43.45026729830144" lon="10.722322852221447"><ele>144.33333333333331</ele><time>2026-04-19T08:49:56.001Z</time></trkpt><trkpt lat="43.4501783608062" lon="10.722314167169632"><ele>145.0</ele><time>2026-04-19T08:49:57.001Z</time></trkpt><trkpt lat="43.450085318305504" lon="10.722311559218566"><ele>145.66666666666666</ele><time>2026-04-19T08:49:58.001Z</time></trkpt><trkpt lat="43.4500044096351" lon="10.722318473529366"><ele>146.33333333333334</ele><time>2026-04-19T08:49:59.001Z</time></trkpt><trkpt lat="43.44992073171535" lon="10.722321004165092"><ele>147.0</ele><time>2026-04-19T08:50:00.001Z</time></trkpt><trkpt lat="43.449829078209206" lon="10.722325801862533"><ele>147.0</ele><time>2026-04-19T08:50:01.001Z</time></trkpt><trkpt lat="43.44974135424153" lon="10.722330500724006"><ele>147.0</ele><time>2026-04-19T08:50:02.001Z</time></trkpt><trkpt lat="43.449664154760946" lon="10.722327361972106"><ele>147.0</ele><time>2026-04-19T08:50:03.001Z</time></trkpt><trkpt lat="43.44959212288496" lon="10.722307500698465"><ele>147.0</ele><time>2026-04-19T08:50:04.001Z</time></trkpt><trkpt lat="43.44952738229103" lon="10.722280850214402"><ele>147.0</ele><time>2026-04-19T08:50:05.001Z</time></trkpt><trkpt lat="43.4494643742586" lon="10.722253428135373"><ele>147.0</ele><time>2026-04-19T08:50:06.001Z</time></trkpt><trkpt lat="43.44934599184486" lon="10.722200877644935"><ele>149.6</ele><time>2026-04-19T08:50:08.001Z</time></trkpt><trkpt lat="43.449246240852965" lon="10.722081719351317"><ele>152.2</ele><time>2026-04-19T08:50:10.001Z</time></trkpt><trkpt lat="43.449168526360765" lon="10.72198750287164"><ele>154.8</ele><time>2026-04-19T08:50:12.001Z</time></trkpt><trkpt lat="43.44909102735572" lon="10.721968718944952"><ele>157.4</ele><time>2026-04-19T08:50:14.001Z</time></trkpt><trkpt lat="43.44898241626603" lon="10.72193828587882"><ele>160.0</ele><time>2026-04-19T08:50:16Z</time></trkpt><trkpt lat="43.448907636677426" lon="10.721911842686064"><ele>161.6</ele><time>2026-04-19T08:50:17Z</time></trkpt><trkpt lat="43.44878593057588" lon="10.721960257594102"><ele>163.2</ele><time>2026-04-19T08:50:19Z</time></trkpt><trkpt lat="43.44872155669131" lon="10.72201804429846"><ele>164.8</ele><time>2026-04-19T08:50:20Z</time></trkpt><trkpt lat="43.448645950260854" lon="10.722090219067992"><ele>166.4</ele><time>2026-04-19T08:50:21Z</time></trkpt><trkpt lat="43.448566989755186" lon="10.722179244654715"><ele>168.0</ele><time>2026-04-19T08:50:22Z</time></trkpt><trkpt lat="43.44848627307371" lon="10.722254049892046"><ele>168.0</ele><time>2026-04-19T08:50:23Z</time></trkpt><trkpt lat="43.448416659583806" lon="10.72231302979976"><ele>168.0</ele><time>2026-04-19T08:50:24Z</time></trkpt><trkpt lat="43.448349852510525" lon="10.722356883009436"><ele>168.0</ele><time>2026-04-19T08:50:25Z</time></trkpt><trkpt lat="43.448281613407275" lon="10.722387366620039"><ele>168.0</ele><time>2026-04-19T08:50:26Z</time></trkpt><trkpt lat="43.44820735280932" lon="10.72242094023059"><ele>168.0</ele><time>2026-04-19T08:50:27Z</time></trkpt><trkpt lat="43.44813402476703" lon="10.72245309866754"><ele>168.0</ele><time>2026-04-19T08:50:28Z</time></trkpt><trkpt lat="43.44806931176804" lon="10.722499270514588"><ele>168.0</ele><time>2026-04-19T08:50:29Z</time></trkpt><trkpt lat="43.448015000782846" lon="10.722565817765929"><ele>168.0</ele><time>2026-04-19T08:50:30Z</time></trkpt><trkpt lat="43.44797107524022" lon="10.722679324073324"><ele>168.0</ele><time>2026-04-19T08:50:32Z</time></trkpt><trkpt lat="43.44794796482734" lon="10.722778099800246"><ele>168.0</ele><time>2026-04-19T08:50:33Z</time></trkpt><trkpt lat="43.44793350806937" lon="10.722885205367431"><ele>168.0</ele><time>2026-04-19T08:50:34Z</time></trkpt><trkpt lat="43.447925239992884" lon="10.723061095233309"><ele>168.0</ele><time>2026-04-19T08:50:36Z</time></trkpt><trkpt lat="43.44786566136633" lon="10.723187782118378"><ele>169.16666666666666</ele><time>2026-04-19T08:50:38Z</time></trkpt><trkpt lat="43.44775389789875" lon="10.723199236030736"><ele>170.33333333333334</ele><time>2026-04-19T08:50:40Z</time></trkpt><trkpt lat="43.44769620048659" lon="10.723251377911964"><ele>171.5</ele><time>2026-04-19T08:50:41Z</time></trkpt><trkpt lat="43.447628155053856" lon="10.723321687163779"><ele>172.66666666666669</ele><time>2026-04-19T08:50:42Z</time></trkpt><trkpt lat="43.447559078592654" lon="10.723395256447043"><ele>173.83333333333334</ele><time>2026-04-19T08:50:43Z</time></trkpt><trkpt lat="43.44748507441153" lon="10.723469314015803"><ele>175.0</ele><time>2026-04-19T08:50:44Z</time></trkpt><trkpt lat="43.4474194918721" lon="10.723505959975832"><ele>175.0</ele><time>2026-04-19T08:50:45Z</time></trkpt><trkpt lat="43.44735109770611" lon="10.723524603326743"><ele>175.0</ele><time>2026-04-19T08:50:46Z</time></trkpt><trkpt lat="43.44728462080448" lon="10.723520612150844"><ele>175.0</ele><time>2026-04-19T08:50:47Z</time></trkpt><trkpt lat="43.44720599422465" lon="10.723514030333405"><ele>175.0</ele><time>2026-04-19T08:50:48Z</time></trkpt><trkpt lat="43.44712466939781" lon="10.723494675743096"><ele>175.0</ele><time>2026-04-19T08:50:49Z</time></trkpt><trkpt lat="43.44704350960003" lon="10.723478625849356"><ele>175.0</ele><time>2026-04-19T08:50:50Z</time></trkpt><trkpt lat="43.44695966867369" lon="10.723474712874534"><ele>175.8</ele><time>2026-04-19T08:50:51Z</time></trkpt><trkpt lat="43.44687299226454" lon="10.723518710754984"><ele>176.6</ele><time>2026-04-19T08:50:52Z</time></trkpt><trkpt lat="43.446773700440005" lon="10.723556999805947"><ele>177.39999999999998</ele><time>2026-04-19T08:50:53Z</time></trkpt><trkpt lat="43.446687837709035" lon="10.723586942325095"><ele>178.2</ele><time>2026-04-19T08:50:54Z</time></trkpt><trkpt lat="43.446614584942544" lon="10.72349389290243"><ele>179.0</ele><time>2026-04-19T08:50:56Z</time></trkpt><trkpt lat="43.44648372862574" lon="10.723431607430056"><ele>179.6</ele><time>2026-04-19T08:50:58Z</time></trkpt><trkpt lat="43.446415999265476" lon="10.723462775139962"><ele>180.2</ele><time>2026-04-19T08:50:59Z</time></trkpt><trkpt lat="43.44635251490162" lon="10.723489033146766"><ele>180.79999999999998</ele><time>2026-04-19T08:51:02Z</time></trkpt><trkpt lat="43.44627771565191" lon="10.72323736995412"><ele>181.39999999999998</ele><time>2026-04-19T08:51:04Z</time></trkpt><trkpt lat="43.44623220195831" lon="10.723094747198303"><ele>182.0</ele><time>2026-04-19T08:51:05Z</time></trkpt><trkpt lat="43.446176079778446" lon="10.722948789281295"><ele>184.0</ele><time>2026-04-19T08:51:06Z</time></trkpt><trkpt lat="43.4461263766492" lon="10.722803587753063"><ele>186.0</ele><time>2026-04-19T08:51:07Z</time></trkpt><trkpt lat="43.44607122214501" lon="10.722638009128945"><ele>188.0</ele><time>2026-04-19T08:51:08Z</time></trkpt><trkpt lat="43.44599123132547" lon="10.722457628325984"><ele>190.0</ele><time>2026-04-19T08:51:09Z</time></trkpt><trkpt lat="43.445884060663936" lon="10.722279834997938"><ele>190.0</ele><time>2026-04-19T08:51:10Z</time></trkpt><trkpt lat="43.445767340306396" lon="10.722113307864337"><ele>190.0</ele><time>2026-04-19T08:51:11Z</time></trkpt><trkpt lat="43.445665393316055" lon="10.721964901315534"><ele>190.0</ele><time>2026-04-19T08:51:12Z</time></trkpt><trkpt lat="43.445607725464875" lon="10.721812015326952"><ele>190.0</ele><time>2026-04-19T08:51:13Z</time></trkpt><trkpt lat="43.445568622150546" lon="10.721654670886899"><ele>190.0</ele><time>2026-04-19T08:51:14Z</time></trkpt><trkpt lat="43.44553714464817" lon="10.721482400993693"><ele>190.0</ele><time>2026-04-19T08:51:15Z</time></trkpt><trkpt lat="43.44552573250792" lon="10.721316917278605"><ele>190.0</ele><time>2026-04-19T08:51:16Z</time></trkpt><trkpt lat="43.445521836246655" lon="10.721161088056766"><ele>190.0</ele><time>2026-04-19T08:51:17Z</time></trkpt><trkpt lat="43.44554986773272" lon="10.720988512725526"><ele>191.5</ele><time>2026-04-19T08:51:18Z</time></trkpt><trkpt lat="43.445586762370915" lon="10.720824426464109"><ele>193.0</ele><time>2026-04-19T08:51:19Z</time></trkpt><trkpt lat="43.445628609451504" lon="10.720644977381342"><ele>194.5</ele><time>2026-04-19T08:51:20Z</time></trkpt><trkpt lat="43.44564133720726" lon="10.720491763567255"><ele>196.0</ele><time>2026-04-19T08:51:21Z</time></trkpt><trkpt lat="43.44563926568336" lon="10.720344942072325"><ele>196.0</ele><time>2026-04-19T08:51:22Z</time></trkpt><trkpt lat="43.44557602649184" lon="10.720213177534406"><ele>196.0</ele><time>2026-04-19T08:51:23Z</time></trkpt><trkpt lat="43.44551791351904" lon="10.720100035541956"><ele>196.0</ele><time>2026-04-19T08:51:24Z</time></trkpt><trkpt lat="43.44544691288331" lon="10.72000558999995"><ele>196.0</ele><time>2026-04-19T08:51:25Z</time></trkpt><trkpt lat="43.44536609715707" lon="10.719964109247359"><ele>196.0</ele><time>2026-04-19T08:51:26Z</time></trkpt><trkpt lat="43.445272968608265" lon="10.719975663768302"><ele>197.4</ele><time>2026-04-19T08:51:27Z</time></trkpt><trkpt lat="43.44517977768161" lon="10.72003027816675"><ele>198.8</ele><time>2026-04-19T08:51:28Z</time></trkpt><trkpt lat="43.44508575937171" lon="10.720095899107484"><ele>200.20000000000002</ele><time>2026-04-19T08:51:29Z</time></trkpt><trkpt lat="43.444986839954495" lon="10.720165911302011"><ele>201.60000000000002</ele><time>2026-04-19T08:51:30Z</time></trkpt><trkpt lat="43.444902881305104" lon="10.720230821075768"><ele>203.0</ele><time>2026-04-19T08:51:31Z</time></trkpt><trkpt lat="43.44481929771613" lon="10.72033413745898"><ele>203.0</ele><time>2026-04-19T08:51:32Z</time></trkpt><trkpt lat="43.444754459580736" lon="10.72048624091381"><ele>203.0</ele><time>2026-04-19T08:51:33Z</time></trkpt><trkpt lat="43.44471431667356" lon="10.72065084730126"><ele>203.0</ele><time>2026-04-19T08:51:34Z</time></trkpt><trkpt lat="43.444671907444814" lon="10.72075991357541"><ele>203.0</ele><time>2026-04-19T08:51:35Z</time></trkpt><trkpt lat="43.44459898706049" lon="10.720859744451479"><ele>203.0</ele><time>2026-04-19T08:51:36Z</time></trkpt><trkpt lat="43.44450222580002" lon="10.720933247550612"><ele>206.5</ele><time>2026-04-19T08:51:37Z</time></trkpt><trkpt lat="43.44439263678572" lon="10.720994120584658"><ele>210.0</ele><time>2026-04-19T08:51:38Z</time></trkpt><trkpt lat="43.44427683186168" lon="10.721034025456099"><ele>213.5</ele><time>2026-04-19T08:51:39Z</time></trkpt><trkpt lat="43.444148972595634" lon="10.721045358230777"><ele>217.0</ele><time>2026-04-19T08:51:40Z</time></trkpt><trkpt lat="43.444015500786094" lon="10.72105674771435"><ele>217.75</ele><time>2026-04-19T08:51:41Z</time></trkpt><trkpt lat="43.4438741015437" lon="10.721070257070483"><ele>218.5</ele><time>2026-04-19T08:51:42Z</time></trkpt><trkpt lat="43.44373171820539" lon="10.721086721916494"><ele>219.25</ele><time>2026-04-19T08:51:43Z</time></trkpt><trkpt lat="43.443592917540656" lon="10.721121835746153"><ele>220.0</ele><time>2026-04-19T08:51:44.001Z</time></trkpt><trkpt lat="43.443467663561755" lon="10.721199426421952"><ele>220.0</ele><time>2026-04-19T08:51:45.001Z</time></trkpt><trkpt lat="43.44334311680742" lon="10.72131046527621"><ele>220.0</ele><time>2026-04-19T08:51:46.001Z</time></trkpt><trkpt lat="43.44321521229614" lon="10.721425487498058"><ele>220.0</ele><time>2026-04-19T08:51:47.001Z</time></trkpt><trkpt lat="43.44308711069398" lon="10.721518501410939"><ele>220.0</ele><time>2026-04-19T08:51:48.001Z</time></trkpt><trkpt lat="43.44295860571095" lon="10.721585716548976"><ele>222.25</ele><time>2026-04-19T08:51:49.001Z</time></trkpt><trkpt lat="43.44282613619737" lon="10.721644271362484"><ele>224.5</ele><time>2026-04-19T08:51:50.001Z</time></trkpt><trkpt lat="43.4426899893914" lon="10.721717712608404"><ele>226.75</ele><time>2026-04-19T08:51:51.001Z</time></trkpt><trkpt lat="43.44256474455908" lon="10.721792316350431"><ele>229.0</ele><time>2026-04-19T08:51:52.001Z</time></trkpt><trkpt lat="43.44245790065879" lon="10.721869898741115"><ele>229.0</ele><time>2026-04-19T08:51:53.001Z</time></trkpt><trkpt lat="43.442365689772004" lon="10.721960381474995"><ele>228.99999999999997</ele><time>2026-04-19T08:51:54.001Z</time></trkpt><trkpt lat="43.44229972958613" lon="10.722027628459278"><ele>228.99999999999997</ele><time>2026-04-19T08:51:55.001Z</time></trkpt><trkpt lat="43.4422150969155" lon="10.722017499890766"><ele>229.0</ele><time>2026-04-19T08:51:57.001Z</time></trkpt><trkpt lat="43.44218648254294" lon="10.721905908495822"><ele>229.0</ele><time>2026-04-19T08:51:58.001Z</time></trkpt><trkpt lat="43.44225754129356" lon="10.721792931274388"><ele>229.0</ele><time>2026-04-19T08:51:59.001Z</time></trkpt><trkpt lat="43.4423197972202" lon="10.721664115766627"><ele>229.0</ele><time>2026-04-19T08:52:00.001Z</time></trkpt><trkpt lat="43.44233645274983" lon="10.721498430490222"><ele>229.0</ele><time>2026-04-19T08:52:01.001Z</time></trkpt><trkpt lat="43.442353212265076" lon="10.721326335711678"><ele>229.0</ele><time>2026-04-19T08:52:02.001Z</time></trkpt><trkpt lat="43.44239603931551" lon="10.721163000595055"><ele>231.5</ele><time>2026-04-19T08:52:03.001Z</time></trkpt><trkpt lat="43.44244301462168" lon="10.721016085002205"><ele>234.0</ele><time>2026-04-19T08:52:04.001Z</time></trkpt><trkpt lat="43.4425164394433" lon="10.7208778644228"><ele>236.5</ele><time>2026-04-19T08:52:05.001Z</time></trkpt><trkpt lat="43.44261190150146" lon="10.720759719537613"><ele>239.0</ele><time>2026-04-19T08:52:06.001Z</time></trkpt><trkpt lat="43.442704720598556" lon="10.720635262016629"><ele>239.0</ele><time>2026-04-19T08:52:07.001Z</time></trkpt><trkpt lat="43.442768829670904" lon="10.720475698980671"><ele>238.99999999999997</ele><time>2026-04-19T08:52:08.001Z</time></trkpt><trkpt lat="43.44284122500455" lon="10.720365389090539"><ele>238.99999999999997</ele><time>2026-04-19T08:52:09.001Z</time></trkpt><trkpt lat="43.44288527495038" lon="10.720247598816949"><ele>239.0</ele><time>2026-04-19T08:52:10.001Z</time></trkpt><trkpt lat="43.44291877315183" lon="10.720153210722707"><ele>239.0</ele><time>2026-04-19T08:52:11.001Z</time></trkpt><trkpt lat="43.442903308929345" lon="10.720060745064522"><ele>239.6</ele><time>2026-04-19T08:52:12.001Z</time></trkpt><trkpt lat="43.44284265612021" lon="10.719990726886136"><ele>240.2</ele><time>2026-04-19T08:52:13.001Z</time></trkpt><trkpt lat="43.442749671761675" lon="10.719968001137433"><ele>240.79999999999998</ele><time>2026-04-19T08:52:14.001Z</time></trkpt><trkpt lat="43.442654009505674" lon="10.719975553148883"><ele>241.39999999999998</ele><time>2026-04-19T08:52:15.001Z</time></trkpt><trkpt lat="43.44254425699647" lon="10.720003638096538"><ele>242.0</ele><time>2026-04-19T08:52:16.001Z</time></trkpt><trkpt lat="43.44242432471318" lon="10.72003487082756"><ele>242.0</ele><time>2026-04-19T08:52:17.001Z</time></trkpt><trkpt lat="43.44229125878197" lon="10.720085768505253"><ele>242.0</ele><time>2026-04-19T08:52:18.001Z</time></trkpt><trkpt lat="43.44215546969797" lon="10.720147866233505"><ele>242.0</ele><time>2026-04-19T08:52:19.001Z</time></trkpt><trkpt lat="43.44202426397751" lon="10.720200945267777"><ele>242.0</ele><time>2026-04-19T08:52:20.001Z</time></trkpt><trkpt lat="43.44189266829793" lon="10.720240816537121"><ele>243.25</ele><time>2026-04-19T08:52:21Z</time></trkpt><trkpt lat="43.4417613223194" lon="10.720243184340747"><ele>244.5</ele><time>2026-04-19T08:52:22Z</time></trkpt><trkpt lat="43.44163115653783" lon="10.720199908346242"><ele>245.75</ele><time>2026-04-19T08:52:23Z</time></trkpt><trkpt lat="43.44151446468625" lon="10.720119773093884"><ele>247.0</ele><time>2026-04-19T08:52:24Z</time></trkpt><trkpt lat="43.441404800844595" lon="10.71999634792761"><ele>249.66666666666666</ele><time>2026-04-19T08:52:25Z</time></trkpt><trkpt lat="43.44129826660266" lon="10.719851764516868"><ele>252.33333333333331</ele><time>2026-04-19T08:52:26Z</time></trkpt><trkpt lat="43.44117299223329" lon="10.719725153608994"><ele>255.0</ele><time>2026-04-19T08:52:27Z</time></trkpt><trkpt lat="43.4410252546915" lon="10.719625302790543"><ele>255.0</ele><time>2026-04-19T08:52:28Z</time></trkpt><trkpt lat="43.44088973938358" lon="10.719529279665093"><ele>255.0</ele><time>2026-04-19T08:52:29Z</time></trkpt><trkpt lat="43.44077729643478" lon="10.719449807251642"><ele>255.0</ele><time>2026-04-19T08:52:30Z</time></trkpt><trkpt lat="43.44067532382432" lon="10.719410772783371"><ele>255.0</ele><time>2026-04-19T08:52:31Z</time></trkpt><trkpt lat="43.44057036385244" lon="10.719414051330148"><ele>257.25</ele><time>2026-04-19T08:52:32Z</time></trkpt><trkpt lat="43.440460670707985" lon="10.719405178133433"><ele>259.5</ele><time>2026-04-19T08:52:33Z</time></trkpt><trkpt lat="43.4403501456073" lon="10.719489185532595"><ele>261.75</ele><time>2026-04-19T08:52:34Z</time></trkpt><trkpt lat="43.44024329102193" lon="10.719614815647176"><ele>264.0</ele><time>2026-04-19T08:52:35Z</time></trkpt><trkpt lat="43.44014625786136" lon="10.71970125102063"><ele>264.0</ele><time>2026-04-19T08:52:36Z</time></trkpt><trkpt lat="43.44002701388109" lon="10.719744528002177"><ele>264.0</ele><time>2026-04-19T08:52:37Z</time></trkpt><trkpt lat="43.439907075287564" lon="10.719672126815693"><ele>264.0</ele><time>2026-04-19T08:52:38Z</time></trkpt><trkpt lat="43.439810141331904" lon="10.719586253564573"><ele>264.0</ele><time>2026-04-19T08:52:39Z</time></trkpt><trkpt lat="43.439737088468874" lon="10.719461976945249"><ele>267.0</ele><time>2026-04-19T08:52:40Z</time></trkpt><trkpt lat="43.439636215310934" lon="10.719342948757705"><ele>270.0</ele><time>2026-04-19T08:52:41Z</time></trkpt><trkpt lat="43.43952425313843" lon="10.719260654361014"><ele>273.0</ele><time>2026-04-19T08:52:42Z</time></trkpt><trkpt lat="43.43940982766976" lon="10.719175569462573"><ele>276.0</ele><time>2026-04-19T08:52:43Z</time></trkpt><trkpt lat="43.43928489114122" lon="10.719111263059652"><ele>277.75</ele><time>2026-04-19T08:52:44Z</time></trkpt><trkpt lat="43.43916008490893" lon="10.719087082568812"><ele>279.5</ele><time>2026-04-19T08:52:45Z</time></trkpt><trkpt lat="43.439032749140054" lon="10.719107006109168"><ele>281.25</ele><time>2026-04-19T08:52:46Z</time></trkpt><trkpt lat="43.438910912719855" lon="10.71917189493292"><ele>283.0</ele><time>2026-04-19T08:52:47Z</time></trkpt><trkpt lat="43.438776251004754" lon="10.719226824541423"><ele>284.75</ele><time>2026-04-19T08:52:48Z</time></trkpt><trkpt lat="43.438643665450996" lon="10.719220721838184"><ele>286.5</ele><time>2026-04-19T08:52:49Z</time></trkpt><trkpt lat="43.43849728801983" lon="10.719183379786438"><ele>288.25</ele><time>2026-04-19T08:52:50Z</time></trkpt><trkpt lat="43.43834377180418" lon="10.719185926027224"><ele>290.0</ele><time>2026-04-19T08:52:51Z</time></trkpt><trkpt lat="43.438213171432864" lon="10.719166633125289"><ele>290.0</ele><time>2026-04-19T08:52:52Z</time></trkpt><trkpt lat="43.43810761769859" lon="10.719147752046394"><ele>290.0</ele><time>2026-04-19T08:52:53Z</time></trkpt><trkpt lat="43.43801949733673" lon="10.719232423968492"><ele>290.0</ele><time>2026-04-19T08:52:54Z</time></trkpt><trkpt lat="43.43795453104285" lon="10.719330210249728"><ele>290.0</ele><time>2026-04-19T08:52:55Z</time></trkpt><trkpt lat="43.437954535079285" lon="10.719542009448865"><ele>288.75</ele><time>2026-04-19T08:52:56Z</time></trkpt><trkpt lat="43.43795691000143" lon="10.719723017479504"><ele>287.5</ele><time>2026-04-19T08:52:57Z</time></trkpt><trkpt lat="43.43800090900446" lon="10.719941389841171"><ele>286.25</ele><time>2026-04-19T08:52:58Z</time></trkpt><trkpt lat="43.43802465141604" lon="10.720133254644804"><ele>285.0</ele><time>2026-04-19T08:52:59Z</time></trkpt><trkpt lat="43.4380154710869" lon="10.720328096288299"><ele>285.0</ele><time>2026-04-19T08:53:00Z</time></trkpt><trkpt lat="43.43799381747875" lon="10.720512391168741"><ele>285.0</ele><time>2026-04-19T08:53:01Z</time></trkpt><trkpt lat="43.437958618724586" lon="10.720674401065752"><ele>285.0</ele><time>2026-04-19T08:53:02Z</time></trkpt><trkpt lat="43.43791896345654" lon="10.720808226099805"><ele>285.0</ele><time>2026-04-19T08:53:03Z</time></trkpt><trkpt lat="43.43784053576829" lon="10.720944107070345"><ele>286.25</ele><time>2026-04-19T08:53:04Z</time></trkpt><trkpt lat="43.43775626518702" lon="10.721046269614616"><ele>287.5</ele><time>2026-04-19T08:53:05Z</time></trkpt><trkpt lat="43.43763099250771" lon="10.72108036110343"><ele>288.75</ele><time>2026-04-19T08:53:06Z</time></trkpt><trkpt lat="43.437498540053696" lon="10.72114993079491"><ele>290.0</ele><time>2026-04-19T08:53:07Z</time></trkpt><trkpt lat="43.43736586430767" lon="10.721188420938988"><ele>290.0</ele><time>2026-04-19T08:53:08Z</time></trkpt><trkpt lat="43.43722918242121" lon="10.721227641443207"><ele>290.0</ele><time>2026-04-19T08:53:09Z</time></trkpt><trkpt lat="43.43710551565455" lon="10.721302454446333"><ele>290.0</ele><time>2026-04-19T08:53:10Z</time></trkpt><trkpt lat="43.43701350068389" lon="10.721422548923378"><ele>290.0</ele><time>2026-04-19T08:53:11Z</time></trkpt><trkpt lat="43.436931484601864" lon="10.721555092014853"><ele>293.25</ele><time>2026-04-19T08:53:12Z</time></trkpt><trkpt lat="43.436868054200765" lon="10.72171655162726"><ele>296.5</ele><time>2026-04-19T08:53:13Z</time></trkpt><trkpt lat="43.43681778988854" lon="10.721906960830637"><ele>299.75</ele><time>2026-04-19T08:53:14Z</time></trkpt><trkpt lat="43.436766632804776" lon="10.722068012782547"><ele>303.0</ele><time>2026-04-19T08:53:15Z</time></trkpt><trkpt lat="43.43672165033874" lon="10.722190194297854"><ele>303.0</ele><time>2026-04-19T08:53:16Z</time></trkpt><trkpt lat="43.43667741599856" lon="10.722272571223415"><ele>303.0</ele><time>2026-04-19T08:53:17Z</time></trkpt><trkpt lat="43.43661586880636" lon="10.722327722493066"><ele>303.0</ele><time>2026-04-19T08:53:18Z</time></trkpt><trkpt lat="43.436531424932305" lon="10.722383154255992"><ele>303.0</ele><time>2026-04-19T08:53:19Z</time></trkpt><trkpt lat="43.436431449236366" lon="10.722421499825325"><ele>303.0</ele><time>2026-04-19T08:53:20Z</time></trkpt><trkpt lat="43.43634175351545" lon="10.722414543121811"><ele>303.0</ele><time>2026-04-19T08:53:21Z</time></trkpt><trkpt lat="43.43627770066257" lon="10.722447187140025"><ele>305.1666666666667</ele><time>2026-04-19T08:53:22Z</time></trkpt><trkpt lat="43.436202923956834" lon="10.722451284403045"><ele>307.3333333333333</ele><time>2026-04-19T08:53:23Z</time></trkpt><trkpt lat="43.43611055171344" lon="10.72247571591359"><ele>309.5</ele><time>2026-04-19T08:53:24Z</time></trkpt><trkpt lat="43.436016213786836" lon="10.72251159936255"><ele>311.66666666666663</ele><time>2026-04-19T08:53:25Z</time></trkpt><trkpt lat="43.43594221502114" lon="10.722540356834367"><ele>313.8333333333333</ele><time>2026-04-19T08:53:26Z</time></trkpt><trkpt lat="43.43590231850466" lon="10.72264963144282"><ele>316.0</ele><time>2026-04-19T08:53:27Z</time></trkpt><trkpt lat="43.43587805655318" lon="10.722768422958845"><ele>316.0</ele><time>2026-04-19T08:53:28Z</time></trkpt><trkpt lat="43.43588455321873" lon="10.722904489444996"><ele>316.0</ele><time>2026-04-19T08:53:29Z</time></trkpt><trkpt lat="43.435906694187096" lon="10.72304741654606"><ele>316.0</ele><time>2026-04-19T08:53:30Z</time></trkpt><trkpt lat="43.43591292174841" lon="10.723149530559963"><ele>316.0</ele><time>2026-04-19T08:53:31Z</time></trkpt><trkpt lat="43.43588816655249" lon="10.723237000814802"><ele>316.0</ele><time>2026-04-19T08:53:32Z</time></trkpt><trkpt lat="43.435843395712446" lon="10.723314363082148"><ele>316.0</ele><time>2026-04-19T08:53:33Z</time></trkpt><trkpt lat="43.43576860981036" lon="10.723370351473845"><ele>316.0</ele><time>2026-04-19T08:53:34Z</time></trkpt><trkpt lat="43.435686531371466" lon="10.723365389214328"><ele>316.0</ele><time>2026-04-19T08:53:35Z</time></trkpt><trkpt lat="43.435600922953235" lon="10.723340030115756"><ele>316.0</ele><time>2026-04-19T08:53:36Z</time></trkpt><trkpt lat="43.43553018944772" lon="10.723336978139812"><ele>316.0</ele><time>2026-04-19T08:53:37Z</time></trkpt><trkpt lat="43.435447284011325" lon="10.723341293375158"><ele>316.0</ele><time>2026-04-19T08:53:42Z</time></trkpt><trkpt lat="43.43544604207744" lon="10.723434155578502"><ele>316.0</ele><time>2026-04-19T08:53:44Z</time></trkpt><trkpt lat="43.43535950180296" lon="10.723444578783045"><ele>319.0</ele><time>2026-04-19T08:53:47Z</time></trkpt><trkpt lat="43.43532196121211" lon="10.72337427027781"><ele>322.0</ele><time>2026-04-19T08:53:48Z</time></trkpt><trkpt lat="43.43522933096693" lon="10.723307362029054"><ele>325.0</ele><time>2026-04-19T08:53:50Z</time></trkpt><trkpt lat="43.43518694656042" lon="10.723193444847219"><ele>328.0</ele><time>2026-04-19T08:53:52Z</time></trkpt><trkpt lat="43.43518916402906" lon="10.723032615598084"><ele>331.0</ele><time>2026-04-19T08:53:54Z</time></trkpt><trkpt lat="43.43518353810191" lon="10.722876328170036"><ele>331.0</ele><time>2026-04-19T08:53:56Z</time></trkpt><trkpt lat="43.435164285065895" lon="10.722783420256011"><ele>331.0</ele><time>2026-04-19T08:53:57Z</time></trkpt><trkpt lat="43.435145372680644" lon="10.72267107586687"><ele>331.0</ele><time>2026-04-19T08:53:58Z</time></trkpt><trkpt lat="43.43512953961127" lon="10.722566528003355"><ele>331.0</ele><time>2026-04-19T08:53:59Z</time></trkpt><trkpt lat="43.4351205734106" lon="10.72247522904735"><ele>331.0</ele><time>2026-04-19T08:54:00Z</time></trkpt><trkpt lat="43.43511103461522" lon="10.722388878990195"><ele>331.0</ele><time>2026-04-19T08:54:01Z</time></trkpt><trkpt lat="43.43510720720138" lon="10.72230127746422"><ele>331.0</ele><time>2026-04-19T08:54:02Z</time></trkpt><trkpt lat="43.435113252980365" lon="10.722207794361799"><ele>332.6</ele><time>2026-04-19T08:54:03Z</time></trkpt><trkpt lat="43.43509744322929" lon="10.722035407138883"><ele>334.20000000000005</ele><time>2026-04-19T08:54:05.001Z</time></trkpt><trkpt lat="43.435126630284174" lon="10.72190561307836"><ele>335.79999999999995</ele><time>2026-04-19T08:54:07.001Z</time></trkpt><trkpt lat="43.435194744910184" lon="10.721893926817422"><ele>337.4</ele><time>2026-04-19T08:54:08.001Z</time></trkpt><trkpt lat="43.43527352029529" lon="10.721762309083916"><ele>339.0</ele><time>2026-04-19T08:54:10.001Z</time></trkpt><trkpt lat="43.43529246318434" lon="10.721669368606078"><ele>340.3333333333333</ele><time>2026-04-19T08:54:11.001Z</time></trkpt><trkpt lat="43.435296053137975" lon="10.721557687081836"><ele>341.6666666666667</ele><time>2026-04-19T08:54:12.001Z</time></trkpt><trkpt lat="43.43529414171474" lon="10.721445354576735"><ele>343.0</ele><time>2026-04-19T08:54:13.001Z</time></trkpt><trkpt lat="43.43529430175088" lon="10.721348488010715"><ele>344.33333333333337</ele><time>2026-04-19T08:54:14.001Z</time></trkpt><trkpt lat="43.43532646575987" lon="10.721228073445532"><ele>345.6666666666667</ele><time>2026-04-19T08:54:16.001Z</time></trkpt><trkpt lat="43.435292741133324" lon="10.721121353103626"><ele>347.0</ele><time>2026-04-19T08:54:25.001Z</time></trkpt><trkpt lat="43.43526224743163" lon="10.720966387367897"><ele>348.40000000000003</ele><time>2026-04-19T08:54:27Z</time></trkpt><trkpt lat="43.43525143300866" lon="10.72086327245617"><ele>349.8</ele><time>2026-04-19T08:54:28Z</time></trkpt><trkpt lat="43.43523591555766" lon="10.72073778616739"><ele>351.2</ele><time>2026-04-19T08:54:29Z</time></trkpt><trkpt lat="43.435207232102066" lon="10.720604571553928"><ele>352.6</ele><time>2026-04-19T08:54:30Z</time></trkpt><trkpt lat="43.43518966655148" lon="10.720468580825102"><ele>354.0</ele><time>2026-04-19T08:54:31Z</time></trkpt><trkpt lat="43.435176800220496" lon="10.720341121329305"><ele>354.6</ele><time>2026-04-19T08:54:32Z</time></trkpt><trkpt lat="43.435153842696806" lon="10.720198754848003"><ele>355.2</ele><time>2026-04-19T08:54:33Z</time></trkpt><trkpt lat="43.435128998438124" lon="10.720058968721627"><ele>355.8</ele><time>2026-04-19T08:54:34Z</time></trkpt><trkpt lat="43.435128725030914" lon="10.719923662469474"><ele>356.40000000000003</ele><time>2026-04-19T08:54:35Z</time></trkpt><trkpt lat="43.435157100734806" lon="10.719808340001437"><ele>357.0</ele><time>2026-04-19T08:54:36Z</time></trkpt><trkpt lat="43.43520687921421" lon="10.719679288654367"><ele>357.0</ele><time>2026-04-19T08:54:37Z</time></trkpt><trkpt lat="43.43524945633351" lon="10.719555508699827"><ele>357.0</ele><time>2026-04-19T08:54:38Z</time></trkpt><trkpt lat="43.435242195092655" lon="10.719417939041993"><ele>357.0</ele><time>2026-04-19T08:54:39Z</time></trkpt><trkpt lat="43.43523584501501" lon="10.719278460952133"><ele>357.0</ele><time>2026-04-19T08:54:40Z</time></trkpt><trkpt lat="43.43518632303633" lon="10.71914861424962"><ele>357.0</ele><time>2026-04-19T08:54:41Z</time></trkpt><trkpt lat="43.43515643289955" lon="10.71902394356033"><ele>358.40000000000003</ele><time>2026-04-19T08:54:42Z</time></trkpt><trkpt lat="43.435129637063795" lon="10.71891292585604"><ele>359.8</ele><time>2026-04-19T08:54:43Z</time></trkpt><trkpt lat="43.435105935900374" lon="10.718786599271185"><ele>361.2</ele><time>2026-04-19T08:54:44Z</time></trkpt><trkpt lat="43.43508208791462" lon="10.718655137422303"><ele>362.6</ele><time>2026-04-19T08:54:45Z</time></trkpt><trkpt lat="43.435038015451006" lon="10.718502853099453"><ele>364.0</ele><time>2026-04-19T08:54:46Z</time></trkpt><trkpt lat="43.43498540861065" lon="10.71836768808881"><ele>365.0</ele><time>2026-04-19T08:54:47Z</time></trkpt><trkpt lat="43.43493978638128" lon="10.718225203288364"><ele>366.0</ele><time>2026-04-19T08:54:48Z</time></trkpt><trkpt lat="43.43489669319916" lon="10.718093828573037"><ele>367.0</ele><time>2026-04-19T08:54:49Z</time></trkpt><trkpt lat="43.434878210279905" lon="10.71795793642546"><ele>368.0</ele><time>2026-04-19T08:54:50Z</time></trkpt><trkpt lat="43.434830303145716" lon="10.717838105754513"><ele>369.0</ele><time>2026-04-19T08:54:51Z</time></trkpt><trkpt lat="43.43479416212612" lon="10.717693318385699"><ele>369.6</ele><time>2026-04-19T08:54:52Z</time></trkpt><trkpt lat="43.4347458167219" lon="10.717557622326266"><ele>370.2</ele><time>2026-04-19T08:54:53Z</time></trkpt><trkpt lat="43.43470114313432" lon="10.717437028737574"><ele>370.8</ele><time>2026-04-19T08:54:54Z</time></trkpt><trkpt lat="43.43466467297147" lon="10.717324504925447"><ele>371.40000000000003</ele><time>2026-04-19T08:54:55Z</time></trkpt><trkpt lat="43.434637011972214" lon="10.717199586875504"><ele>372.0</ele><time>2026-04-19T08:54:56Z</time></trkpt><trkpt lat="43.43462758277413" lon="10.717078207388697"><ele>374.3333333333333</ele><time>2026-04-19T08:54:57Z</time></trkpt><trkpt lat="43.43462004498713" lon="10.71696219311139"><ele>376.66666666666663</ele><time>2026-04-19T08:54:58Z</time></trkpt><trkpt lat="43.434598575430556" lon="10.716853464523993"><ele>379.0</ele><time>2026-04-19T08:54:59Z</time></trkpt><trkpt lat="43.43460050854469" lon="10.716758227615614"><ele>381.3333333333333</ele><time>2026-04-19T08:55:00Z</time></trkpt><trkpt lat="43.43459542318744" lon="10.716669705068075"><ele>383.66666666666663</ele><time>2026-04-19T08:55:01Z</time></trkpt><trkpt lat="43.43454303573058" lon="10.716586084593944"><ele>386.0</ele><time>2026-04-19T08:55:02Z</time></trkpt><trkpt lat="43.43450763073748" lon="10.716465634198077"><ele>386.8333333333333</ele><time>2026-04-19T08:55:03Z</time></trkpt><trkpt lat="43.434460172191805" lon="10.716368835466474"><ele>387.66666666666663</ele><time>2026-04-19T08:55:04Z</time></trkpt><trkpt lat="43.434409268290715" lon="10.71627303799924"><ele>388.5</ele><time>2026-04-19T08:55:05Z</time></trkpt><trkpt lat="43.4343577744211" lon="10.716188113504115"><ele>389.33333333333337</ele><time>2026-04-19T08:55:06Z</time></trkpt><trkpt lat="43.434292639321235" lon="10.716119142888715"><ele>390.1666666666667</ele><time>2026-04-19T08:55:07Z</time></trkpt><trkpt lat="43.434238121350866" lon="10.71604408802894"><ele>391.0</ele><time>2026-04-19T08:55:08Z</time></trkpt><trkpt lat="43.43417722699779" lon="10.715972232765479"><ele>391.50000000000006</ele><time>2026-04-19T08:55:09Z</time></trkpt><trkpt lat="43.43410918729597" lon="10.715922526586112"><ele>392.0</ele><time>2026-04-19T08:55:10Z</time></trkpt><trkpt lat="43.43402224981625" lon="10.715887107585653"><ele>392.5</ele><time>2026-04-19T08:55:11Z</time></trkpt><trkpt lat="43.43393981454129" lon="10.715839595563043"><ele>393.0</ele><time>2026-04-19T08:55:12Z</time></trkpt><trkpt lat="43.433852428804144" lon="10.715806350627444"><ele>393.50000000000006</ele><time>2026-04-19T08:55:13Z</time></trkpt><trkpt lat="43.43377674286204" lon="10.715779206932798"><ele>394.0</ele><time>2026-04-19T08:55:14Z</time></trkpt><trkpt lat="43.43370539052964" lon="10.715758128357608"><ele>396.0</ele><time>2026-04-19T08:55:15Z</time></trkpt><trkpt lat="43.43361144280234" lon="10.715753372853381"><ele>398.0</ele><time>2026-04-19T08:55:16Z</time></trkpt><trkpt lat="43.43351629509696" lon="10.715720680148612"><ele>400.0</ele><time>2026-04-19T08:55:17Z</time></trkpt><trkpt lat="43.4334056883504" lon="10.715697170912911"><ele>402.0</ele><time>2026-04-19T08:55:18Z</time></trkpt><trkpt lat="43.43332737629744" lon="10.71564405531375"><ele>404.0</ele><time>2026-04-19T08:55:19Z</time></trkpt><trkpt lat="43.43325276210883" lon="10.715610418532485"><ele>404.0</ele><time>2026-04-19T08:55:20Z</time></trkpt><trkpt lat="43.43316895730852" lon="10.715567316994148"><ele>404.0</ele><time>2026-04-19T08:55:21Z</time></trkpt><trkpt lat="43.43306599499704" lon="10.715504868511443"><ele>404.0</ele><time>2026-04-19T08:55:22Z</time></trkpt><trkpt lat="43.43297631096314" lon="10.71543575347286"><ele>404.0</ele><time>2026-04-19T08:55:23Z</time></trkpt><trkpt lat="43.43288353786587" lon="10.715349584875913"><ele>404.0</ele><time>2026-04-19T08:55:24Z</time></trkpt><trkpt lat="43.43280758787767" lon="10.715271849054993"><ele>404.79999999999995</ele><time>2026-04-19T08:55:25Z</time></trkpt><trkpt lat="43.43273251232288" lon="10.715189015561972"><ele>405.59999999999997</ele><time>2026-04-19T08:55:26Z</time></trkpt><trkpt lat="43.432656950395916" lon="10.715095476909765"><ele>406.4</ele><time>2026-04-19T08:55:27Z</time></trkpt><trkpt lat="43.43258266487681" lon="10.714989227235225"><ele>407.2</ele><time>2026-04-19T08:55:28Z</time></trkpt><trkpt lat="43.432510250928" lon="10.714882681953686"><ele>408.0</ele><time>2026-04-19T08:55:29Z</time></trkpt><trkpt lat="43.432441698239934" lon="10.71478229418945"><ele>408.0</ele><time>2026-04-19T08:55:30Z</time></trkpt><trkpt lat="43.43237476474114" lon="10.714694212788167"><ele>408.0</ele><time>2026-04-19T08:55:31Z</time></trkpt><trkpt lat="43.43230087584618" lon="10.714613294378786"><ele>408.0</ele><time>2026-04-19T08:55:32Z</time></trkpt><trkpt lat="43.43224385580886" lon="10.714557872072193"><ele>408.0</ele><time>2026-04-19T08:55:33Z</time></trkpt><trkpt lat="43.43217181249145" lon="10.714502733064768"><ele>408.0</ele><time>2026-04-19T08:55:34Z</time></trkpt><trkpt lat="43.43211740027816" lon="10.714451001791593"><ele>408.0</ele><time>2026-04-19T08:55:35Z</time></trkpt><trkpt lat="43.432059206491616" lon="10.71441290335527"><ele>409.2</ele><time>2026-04-19T08:55:36Z</time></trkpt><trkpt lat="43.43199916114214" lon="10.714340211392596"><ele>410.4</ele><time>2026-04-19T08:55:37Z</time></trkpt><trkpt lat="43.43193170473458" lon="10.714275170205116"><ele>411.59999999999997</ele><time>2026-04-19T08:55:38Z</time></trkpt><trkpt lat="43.43187308394275" lon="10.714208262713111"><ele>412.79999999999995</ele><time>2026-04-19T08:55:39Z</time></trkpt><trkpt lat="43.4317834386456" lon="10.714073964967476"><ele>414.0</ele><time>2026-04-19T08:55:41Z</time></trkpt><trkpt lat="43.43172599227103" lon="10.713980203834257"><ele>414.0</ele><time>2026-04-19T08:55:42Z</time></trkpt><trkpt lat="43.43166820585344" lon="10.713889909861507"><ele>414.0</ele><time>2026-04-19T08:55:43Z</time></trkpt><trkpt lat="43.4316081020268" lon="10.713833492362815"><ele>414.0</ele><time>2026-04-19T08:55:44Z</time></trkpt><trkpt lat="43.431525426287585" lon="10.713809581785197"><ele>414.0</ele><time>2026-04-19T08:55:46Z</time></trkpt><trkpt lat="43.43145607389882" lon="10.713884096528526"><ele>414.0</ele><time>2026-04-19T08:55:47Z</time></trkpt><trkpt lat="43.43140300467677" lon="10.713972849912718"><ele>414.0</ele><time>2026-04-19T08:55:48Z</time></trkpt><trkpt lat="43.431351639225866" lon="10.714060794232708"><ele>415.0</ele><time>2026-04-19T08:55:49Z</time></trkpt><trkpt lat="43.431302086238" lon="10.71414798307891"><ele>416.0</ele><time>2026-04-19T08:55:50Z</time></trkpt><trkpt lat="43.431253771539595" lon="10.714229917234821"><ele>417.0</ele><time>2026-04-19T08:55:51Z</time></trkpt><trkpt lat="43.431201407668134" lon="10.714317578368505"><ele>418.0</ele><time>2026-04-19T08:55:52Z</time></trkpt><trkpt lat="43.43112754941709" lon="10.714425537428758"><ele>419.0</ele><time>2026-04-19T08:55:53Z</time></trkpt><trkpt lat="43.43106870014999" lon="10.7145198976889"><ele>420.0</ele><time>2026-04-19T08:55:54Z</time></trkpt><trkpt lat="43.431014988111" lon="10.714610687023042"><ele>422.1666666666667</ele><time>2026-04-19T08:55:55Z</time></trkpt><trkpt lat="43.43096299868742" lon="10.714719191119638"><ele>424.33333333333337</ele><time>2026-04-19T08:55:56Z</time></trkpt><trkpt lat="43.430902512672574" lon="10.714790742405194"><ele>426.5</ele><time>2026-04-19T08:55:57Z</time></trkpt><trkpt lat="43.430830587183635" lon="10.714806412763254"><ele>428.6666666666667</ele><time>2026-04-19T08:55:58Z</time></trkpt><trkpt lat="43.43076352313939" lon="10.714816563595"><ele>430.83333333333337</ele><time>2026-04-19T08:55:59Z</time></trkpt><trkpt lat="43.43066639718769" lon="10.714848844793467"><ele>433.0</ele><time>2026-04-19T08:56:00Z</time></trkpt><trkpt lat="43.43055354201091" lon="10.714861866959353"><ele>434.4</ele><time>2026-04-19T08:56:01Z</time></trkpt><trkpt lat="43.43043652311224" lon="10.714868473726085"><ele>435.79999999999995</ele><time>2026-04-19T08:56:02Z</time></trkpt><trkpt lat="43.4303137105691" lon="10.714870498048759"><ele>437.2</ele><time>2026-04-19T08:56:03Z</time></trkpt><trkpt lat="43.43021407204197" lon="10.714879853296193"><ele>438.6</ele><time>2026-04-19T08:56:04.001Z</time></trkpt><trkpt lat="43.430130942810976" lon="10.714881455069591"><ele>440.0</ele><time>2026-04-19T08:56:05.001Z</time></trkpt><trkpt lat="43.43006122230526" lon="10.714909739938637"><ele>439.99999999999994</ele><time>2026-04-19T08:56:06.001Z</time></trkpt><trkpt lat="43.429999978972354" lon="10.714949434575407"><ele>440.0</ele><time>2026-04-19T08:56:07.001Z</time></trkpt><trkpt lat="43.42993482677669" lon="10.714973425306665"><ele>440.0</ele><time>2026-04-19T08:56:08.001Z</time></trkpt><trkpt lat="43.42985605104284" lon="10.715075269276122"><ele>440.0</ele><time>2026-04-19T08:56:09.001Z</time></trkpt><trkpt lat="43.42977325012882" lon="10.715143815665291"><ele>439.99999999999994</ele><time>2026-04-19T08:56:10.001Z</time></trkpt><trkpt lat="43.42968986663781" lon="10.71519662477942"><ele>440.0</ele><time>2026-04-19T08:56:11.001Z</time></trkpt><trkpt lat="43.429596410137975" lon="10.715282030611478"><ele>442.0</ele><time>2026-04-19T08:56:12.001Z</time></trkpt><trkpt lat="43.429493001296215" lon="10.715364970116575"><ele>444.0</ele><time>2026-04-19T08:56:13.001Z</time></trkpt><trkpt lat="43.42939822501244" lon="10.715435817527881"><ele>446.0</ele><time>2026-04-19T08:56:14.001Z</time></trkpt><trkpt lat="43.42929406554626" lon="10.715516187151005"><ele>448.0</ele><time>2026-04-19T08:56:15.001Z</time></trkpt><trkpt lat="43.42921030955129" lon="10.715594314446001"><ele>450.0</ele><time>2026-04-19T08:56:16.001Z</time></trkpt><trkpt lat="43.42914190272226" lon="10.715634660154242"><ele>450.0</ele><time>2026-04-19T08:56:17.001Z</time></trkpt><trkpt lat="43.42907478237044" lon="10.715681122995319"><ele>450.0</ele><time>2026-04-19T08:56:18.001Z</time></trkpt><trkpt lat="43.428954520403316" lon="10.715714689175204"><ele>450.0</ele><time>2026-04-19T08:56:20.001Z</time></trkpt><trkpt lat="43.42885093341074" lon="10.715647174226756"><ele>450.0</ele><time>2026-04-19T08:56:22.001Z</time></trkpt><trkpt lat="43.42876836181701" lon="10.715592095937636"><ele>450.0</ele><time>2026-04-19T08:56:23.001Z</time></trkpt><trkpt lat="43.428675803921074" lon="10.715523919280454"><ele>450.3333333333333</ele><time>2026-04-19T08:56:24.001Z</time></trkpt><trkpt lat="43.428581320783145" lon="10.715434433094867"><ele>450.66666666666663</ele><time>2026-04-19T08:56:25.001Z</time></trkpt><trkpt lat="43.42848358415993" lon="10.715362377987734"><ele>451.0</ele><time>2026-04-19T08:56:26.001Z</time></trkpt><trkpt lat="43.428417128493" lon="10.715291865165463"><ele>451.3333333333333</ele><time>2026-04-19T08:56:27.001Z</time></trkpt><trkpt lat="43.42836477125568" lon="10.715242210209336"><ele>451.66666666666663</ele><time>2026-04-19T08:56:28.001Z</time></trkpt><trkpt lat="43.42830559503963" lon="10.715186666290961"><ele>452.0</ele><time>2026-04-19T08:56:29.001Z</time></trkpt><trkpt lat="43.428258959564744" lon="10.71511873154887"><ele>452.0</ele><time>2026-04-19T08:56:30.001Z</time></trkpt><trkpt lat="43.42819625353776" lon="10.71504840745214"><ele>452.00000000000006</ele><time>2026-04-19T08:56:31.001Z</time></trkpt><trkpt lat="43.42813680600714" lon="10.715014808814889"><ele>452.00000000000006</ele><time>2026-04-19T08:56:32.001Z</time></trkpt><trkpt lat="43.42803887629202" lon="10.714934940856974"><ele>452.0</ele><time>2026-04-19T08:56:34Z</time></trkpt><trkpt lat="43.42789897182335" lon="10.714864702276783"><ele>452.0</ele><time>2026-04-19T08:56:36Z</time></trkpt><trkpt lat="43.42781473006999" lon="10.714821406372389"><ele>452.40000000000003</ele><time>2026-04-19T08:56:37Z</time></trkpt><trkpt lat="43.4277318913375" lon="10.714771224471273"><ele>452.80000000000007</ele><time>2026-04-19T08:56:38Z</time></trkpt><trkpt lat="43.4276562542446" lon="10.714717611633759"><ele>453.2</ele><time>2026-04-19T08:56:39Z</time></trkpt><trkpt lat="43.427562924969436" lon="10.71464587366591"><ele>453.6</ele><time>2026-04-19T08:56:40Z</time></trkpt><trkpt lat="43.427491597305604" lon="10.714565843691709"><ele>454.0</ele><time>2026-04-19T08:56:41Z</time></trkpt><trkpt lat="43.42742695065353" lon="10.714484661123592"><ele>454.00000000000006</ele><time>2026-04-19T08:56:42Z</time></trkpt><trkpt lat="43.42733721569356" lon="10.714418294387974"><ele>454.0</ele><time>2026-04-19T08:56:43Z</time></trkpt><trkpt lat="43.42725961569454" lon="10.714369157047177"><ele>454.0</ele><time>2026-04-19T08:56:44Z</time></trkpt><trkpt lat="43.4271977773731" lon="10.714348942528401"><ele>454.0</ele><time>2026-04-19T08:56:45Z</time></trkpt><trkpt lat="43.42707211279398" lon="10.714336114816748"><ele>454.00000000000006</ele><time>2026-04-19T08:56:47Z</time></trkpt><trkpt lat="43.42700596830383" lon="10.714360463167457"><ele>454.0</ele><time>2026-04-19T08:56:48Z</time></trkpt><trkpt lat="43.4269457730297" lon="10.714402159965708"><ele>455.1666666666667</ele><time>2026-04-19T08:56:49Z</time></trkpt><trkpt lat="43.42688320643541" lon="10.714435687909592"><ele>456.33333333333337</ele><time>2026-04-19T08:56:50Z</time></trkpt><trkpt lat="43.426821927462456" lon="10.714459917116807"><ele>457.5</ele><time>2026-04-19T08:56:51Z</time></trkpt><trkpt lat="43.426759917823595" lon="10.714487124498518"><ele>458.66666666666663</ele><time>2026-04-19T08:56:52Z</time></trkpt><trkpt lat="43.426645154072254" lon="10.714539994016828"><ele>459.8333333333333</ele><time>2026-04-19T08:56:54Z</time></trkpt><trkpt lat="43.426521313601036" lon="10.714584150722098"><ele>461.0</ele><time>2026-04-19T08:56:56Z</time></trkpt><trkpt lat="43.42645843656917" lon="10.714622200764605"><ele>460.99999999999994</ele><time>2026-04-19T08:56:57Z</time></trkpt><trkpt lat="43.426412239511855" lon="10.714681414321577"><ele>461.0</ele><time>2026-04-19T08:56:58Z</time></trkpt><trkpt lat="43.426366240739526" lon="10.714755862868769"><ele>461.0</ele><time>2026-04-19T08:56:59Z</time></trkpt><trkpt lat="43.426322215604145" lon="10.714842434821284"><ele>461.0</ele><time>2026-04-19T08:57:00Z</time></trkpt><trkpt lat="43.42628522626312" lon="10.7149160173148"><ele>460.99999999999994</ele><time>2026-04-19T08:57:01Z</time></trkpt><trkpt lat="43.42620145055891" lon="10.71506117773135"><ele>461.0</ele><time>2026-04-19T08:57:03Z</time></trkpt><trkpt lat="43.42615342862737" lon="10.715120833061672"><ele>462.99999999999994</ele><time>2026-04-19T08:57:04Z</time></trkpt><trkpt lat="43.426047738094034" lon="10.715129834628788"><ele>465.0</ele><time>2026-04-19T08:57:06Z</time></trkpt><trkpt lat="43.42595820630191" lon="10.715039654647319"><ele>467.0</ele><time>2026-04-19T08:57:08Z</time></trkpt><trkpt lat="43.425904623308845" lon="10.714972442111268"><ele>469.0</ele><time>2026-04-19T08:57:09Z</time></trkpt><trkpt lat="43.425855537021235" lon="10.714903488191975"><ele>470.99999999999994</ele><time>2026-04-19T08:57:10Z</time></trkpt><trkpt lat="43.42579140274257" lon="10.714825807110405"><ele>473.0</ele><time>2026-04-19T08:57:11Z</time></trkpt><trkpt lat="43.42572723535985" lon="10.714745723811655"><ele>472.99999999999994</ele><time>2026-04-19T08:57:12Z</time></trkpt><trkpt lat="43.42566851838502" lon="10.714687465473808"><ele>473.0</ele><time>2026-04-19T08:57:13Z</time></trkpt><trkpt lat="43.42555915948233" lon="10.714618050111262"><ele>473.0</ele><time>2026-04-19T08:57:15Z</time></trkpt><trkpt lat="43.42549833704525" lon="10.714593698984167"><ele>473.0</ele><time>2026-04-19T08:57:16Z</time></trkpt><trkpt lat="43.42542823930334" lon="10.714594271467977"><ele>472.99999999999994</ele><time>2026-04-19T08:57:17Z</time></trkpt><trkpt lat="43.42536121436812" lon="10.714594652168676"><ele>473.0</ele><time>2026-04-19T08:57:18Z</time></trkpt><trkpt lat="43.425227085806185" lon="10.714591879167294"><ele>474.16666666666663</ele><time>2026-04-19T08:57:20Z</time></trkpt><trkpt lat="43.425135091899236" lon="10.714597916840548"><ele>475.3333333333333</ele><time>2026-04-19T08:57:21Z</time></trkpt><trkpt lat="43.42505431645166" lon="10.7146172879421"><ele>476.5</ele><time>2026-04-19T08:57:22Z</time></trkpt><trkpt lat="43.424992746958665" lon="10.714643060365454"><ele>477.66666666666663</ele><time>2026-04-19T08:57:23Z</time></trkpt><trkpt lat="43.42492482287654" lon="10.714664702064798"><ele>478.8333333333333</ele><time>2026-04-19T08:57:24Z</time></trkpt><trkpt lat="43.4248319777307" lon="10.714702080670607"><ele>480.0</ele><time>2026-04-19T08:57:26Z</time></trkpt><trkpt lat="43.42475330329465" lon="10.714694924198358"><ele>480.0</ele><time>2026-04-19T08:57:28Z</time></trkpt><trkpt lat="43.42472305965612" lon="10.7145876661044"><ele>480.0</ele><time>2026-04-19T09:13:51Z</time></trkpt><trkpt lat="43.42469201509584" lon="10.71450621913311"><ele>480.0</ele><time>2026-04-19T09:13:53Z</time></trkpt><trkpt lat="43.42465946180408" lon="10.714390024867516"><ele>480.0</ele><time>2026-04-19T09:13:55Z</time></trkpt><trkpt lat="43.42466397034172" lon="10.714285907868648"><ele>480.0</ele><time>2026-04-19T09:13:57Z</time></trkpt><trkpt lat="43.42463698692623" lon="10.714171998157466"><ele>480.0</ele><time>2026-04-19T09:13:59Z</time></trkpt><trkpt lat="43.42460729474178" lon="10.71409384432444"><ele>484.0</ele><time>2026-04-19T09:14:00Z</time></trkpt><trkpt lat="43.42457932726743" lon="10.713948895438213"><ele>488.0</ele><time>2026-04-19T09:14:02Z</time></trkpt><trkpt lat="43.42453941060602" lon="10.713837376783477"><ele>492.0</ele><time>2026-04-19T09:14:04Z</time></trkpt><trkpt lat="43.424504004714045" lon="10.713702811535672"><ele>496.0</ele><time>2026-04-19T09:14:06Z</time></trkpt><trkpt lat="43.42451526862039" lon="10.713562737239725"><ele>500.0</ele><time>2026-04-19T09:14:08Z</time></trkpt><trkpt lat="43.42450442892742" lon="10.713442879796679"><ele>502.75</ele><time>2026-04-19T09:14:11Z</time></trkpt><trkpt lat="43.424475265294795" lon="10.713315550590746"><ele>505.5</ele><time>2026-04-19T09:14:14Z</time></trkpt><trkpt lat="43.424463166235576" lon="10.71322306064913"><ele>508.25</ele><time>2026-04-19T09:14:16Z</time></trkpt><trkpt lat="43.42444444558195" lon="10.713057364120582"><ele>511.0</ele><time>2026-04-19T09:14:18Z</time></trkpt><trkpt lat="43.42441368485529" lon="10.71281613923535"><ele>512.4</ele><time>2026-04-19T09:14:19Z</time></trkpt><trkpt lat="43.42440385755653" lon="10.712667070780059"><ele>513.8</ele><time>2026-04-19T09:14:21Z</time></trkpt><trkpt lat="43.42438116146296" lon="10.712573630514854"><ele>515.1999999999999</ele><time>2026-04-19T09:14:22Z</time></trkpt><trkpt lat="43.424352017980986" lon="10.712424276758808"><ele>516.6</ele><time>2026-04-19T09:14:24Z</time></trkpt><trkpt lat="43.42432474294501" lon="10.712264430136571"><ele>518.0</ele><time>2026-04-19T09:14:26Z</time></trkpt><trkpt lat="43.424287263954625" lon="10.712117910445626"><ele>518.0</ele><time>2026-04-19T09:14:28Z</time></trkpt><trkpt lat="43.42430594606306" lon="10.712009556607628"><ele>518.0</ele><time>2026-04-19T09:14:30Z</time></trkpt><trkpt lat="43.42424143286328" lon="10.711950673616538"><ele>518.0</ele><time>2026-04-19T09:14:31Z</time></trkpt><trkpt lat="43.42416495020922" lon="10.711861697158906"><ele>518.0</ele><time>2026-04-19T09:14:33Z</time></trkpt><trkpt lat="43.424098631405535" lon="10.711758429475905"><ele>518.0</ele><time>2026-04-19T09:14:35Z</time></trkpt><trkpt lat="43.424044361437566" lon="10.711651869113863"><ele>518.8</ele><time>2026-04-19T09:14:37Z</time></trkpt><trkpt lat="43.423961917233214" lon="10.711604867194813"><ele>519.5999999999999</ele><time>2026-04-19T09:14:39Z</time></trkpt><trkpt lat="43.423899423907166" lon="10.711577900665292"><ele>520.4000000000001</ele><time>2026-04-19T09:14:41Z</time></trkpt><trkpt lat="43.42381509248036" lon="10.711677375096563"><ele>521.2</ele><time>2026-04-19T09:14:55Z</time></trkpt><trkpt lat="43.42372624320151" lon="10.711697839084556"><ele>522.0</ele><time>2026-04-19T09:14:57Z</time></trkpt><trkpt lat="43.42362245738832" lon="10.711678647686625"><ele>524.6</ele><time>2026-04-19T09:14:59Z</time></trkpt><trkpt lat="43.423512583399464" lon="10.71167914287125"><ele>527.2</ele><time>2026-04-19T09:15:01.001Z</time></trkpt><trkpt lat="43.42340018617532" lon="10.711671482143744"><ele>529.8</ele><time>2026-04-19T09:15:03.001Z</time></trkpt><trkpt lat="43.423294126311156" lon="10.711628028266059"><ele>532.4</ele><time>2026-04-19T09:15:05.001Z</time></trkpt><trkpt lat="43.4232333984752" lon="10.71159203353705"><ele>535.0</ele><time>2026-04-19T09:15:06.001Z</time></trkpt><trkpt lat="43.42313243596384" lon="10.711504464188646"><ele>535.0</ele><time>2026-04-19T09:15:08.001Z</time></trkpt><trkpt lat="43.4230885982089" lon="10.711437913432936"><ele>535.0</ele><time>2026-04-19T09:15:09.001Z</time></trkpt><trkpt lat="43.423003503113684" lon="10.711329300300298"><ele>535.0</ele><time>2026-04-19T09:15:11.001Z</time></trkpt><trkpt lat="43.42289235920716" lon="10.71124699774686"><ele>535.0</ele><time>2026-04-19T09:15:13.001Z</time></trkpt><trkpt lat="43.42278695226178" lon="10.711212184399782"><ele>535.0</ele><time>2026-04-19T09:15:15.001Z</time></trkpt><trkpt lat="43.422720883375625" lon="10.711194858662447"><ele>535.4</ele><time>2026-04-19T09:15:16.001Z</time></trkpt><trkpt lat="43.422623191876696" lon="10.711203862531274"><ele>535.8</ele><time>2026-04-19T09:15:18.001Z</time></trkpt><trkpt lat="43.4225131011162" lon="10.711203754291661"><ele>536.2</ele><time>2026-04-19T09:15:20.001Z</time></trkpt><trkpt lat="43.42239594063458" lon="10.711154975574521"><ele>536.6</ele><time>2026-04-19T09:15:22.001Z</time></trkpt><trkpt lat="43.42233488877492" lon="10.71112817283997"><ele>537.0</ele><time>2026-04-19T09:15:23.001Z</time></trkpt><trkpt lat="43.42222121197704" lon="10.711101747622859"><ele>536.9999999999999</ele><time>2026-04-19T09:15:25.001Z</time></trkpt><trkpt lat="43.42215641441276" lon="10.711108594760177"><ele>537.0</ele><time>2026-04-19T09:15:26.001Z</time></trkpt><trkpt lat="43.42209163434435" lon="10.711142643075508"><ele>537.0</ele><time>2026-04-19T09:15:26.998Z</time></trkpt><trkpt lat="43.422021222076864" lon="10.711180035788773"><ele>537.0</ele><time>2026-04-19T09:15:27.998Z</time></trkpt><trkpt lat="43.42195664027137" lon="10.711200766803984"><ele>537.0</ele><time>2026-04-19T09:15:28.998Z</time></trkpt><trkpt lat="43.421889440866735" lon="10.71121193865863"><ele>536.9999999999999</ele><time>2026-04-19T09:15:29.998Z</time></trkpt><trkpt lat="43.42181672043591" lon="10.711217429125725"><ele>537.0</ele><time>2026-04-19T09:15:30.998Z</time></trkpt><trkpt lat="43.42173624149472" lon="10.711212100188423"><ele>538.0</ele><time>2026-04-19T09:15:31.998Z</time></trkpt><trkpt lat="43.4216642910673" lon="10.711204495072746"><ele>539.0</ele><time>2026-04-19T09:15:32.998Z</time></trkpt><trkpt lat="43.42159764083434" lon="10.711201361511662"><ele>540.0</ele><time>2026-04-19T09:15:33.998Z</time></trkpt><trkpt lat="43.42148275264414" lon="10.711203620009128"><ele>541.0</ele><time>2026-04-19T09:15:35.998Z</time></trkpt><trkpt lat="43.42137647852524" lon="10.711192235579281"><ele>542.0</ele><time>2026-04-19T09:15:37.998Z</time></trkpt><trkpt lat="43.42127127432221" lon="10.71115560847847"><ele>542.0</ele><time>2026-04-19T09:15:39.998Z</time></trkpt><trkpt lat="43.42121106604483" lon="10.711099967605518"><ele>542.0</ele><time>2026-04-19T09:15:40.998Z</time></trkpt><trkpt lat="43.42116140635548" lon="10.711037835277272"><ele>542.0</ele><time>2026-04-19T09:15:41.998Z</time></trkpt><trkpt lat="43.421107112738156" lon="10.710986965039213"><ele>542.0</ele><time>2026-04-19T09:15:42.998Z</time></trkpt><trkpt lat="43.42100622045412" lon="10.71090440295078"><ele>542.0</ele><time>2026-04-19T09:15:44.998Z</time></trkpt><trkpt lat="43.42095424163839" lon="10.710841262467069"><ele>542.0</ele><time>2026-04-19T09:15:45.998Z</time></trkpt><trkpt lat="43.42088182586963" lon="10.710722706275245"><ele>543.8000000000001</ele><time>2026-04-19T09:15:47.999Z</time></trkpt><trkpt lat="43.42084377947311" lon="10.710619741621244"><ele>545.6</ele><time>2026-04-19T09:15:49.999Z</time></trkpt><trkpt lat="43.420828075543014" lon="10.710534865087425"><ele>547.4000000000001</ele><time>2026-04-19T09:15:51.999Z</time></trkpt><trkpt lat="43.420823977541446" lon="10.710360407767016"><ele>549.2</ele><time>2026-04-19T09:15:53.999Z</time></trkpt><trkpt lat="43.420756897491195" lon="10.710286469416268"><ele>551.0</ele><time>2026-04-19T09:15:55.999Z</time></trkpt><trkpt lat="43.4206751228326" lon="10.71020293328152"><ele>551.0</ele><time>2026-04-19T09:15:57.999Z</time></trkpt><trkpt lat="43.42060061617732" lon="10.710137687683629"><ele>551.0</ele><time>2026-04-19T09:15:59.999Z</time></trkpt><trkpt lat="43.42053000167651" lon="10.710056786724136"><ele>551.0</ele><time>2026-04-19T09:16:01.999Z</time></trkpt><trkpt lat="43.42043204004919" lon="10.710028629672744"><ele>551.0</ele><time>2026-04-19T09:16:03.999Z</time></trkpt><trkpt lat="43.42031749624859" lon="10.709973575531246"><ele>551.0</ele><time>2026-04-19T09:16:05.999Z</time></trkpt><trkpt lat="43.42023558290872" lon="10.709880229806583"><ele>551.0</ele><time>2026-04-19T09:16:07.999Z</time></trkpt><trkpt lat="43.42016276205707" lon="10.709830057579904"><ele>551.0</ele><time>2026-04-19T09:16:09.999Z</time></trkpt><trkpt lat="43.420101358513534" lon="10.709761290984545"><ele>551.0</ele><time>2026-04-19T09:16:11.999Z</time></trkpt><trkpt lat="43.420025804281465" lon="10.709753620973192"><ele>551.0</ele><time>2026-04-19T09:16:12.999Z</time></trkpt><trkpt lat="43.41997535288998" lon="10.709675006506338"><ele>551.0</ele><time>2026-04-19T09:16:14.999Z</time></trkpt><trkpt lat="43.419924514226224" lon="10.709584467979008"><ele>551.0</ele><time>2026-04-19T09:16:16.999Z</time></trkpt><trkpt lat="43.41984809968572" lon="10.709492216810428"><ele>551.0</ele><time>2026-04-19T09:16:18.999Z</time></trkpt><trkpt lat="43.419757998675536" lon="10.709462819694298"><ele>551.0</ele><time>2026-04-19T09:16:20.999Z</time></trkpt><trkpt lat="43.419679016831985" lon="10.709403825676482"><ele>551.0</ele><time>2026-04-19T09:16:22.999Z</time></trkpt><trkpt lat="43.419615761147384" lon="10.709323405134072"><ele>551.0</ele><time>2026-04-19T09:16:24.999Z</time></trkpt><trkpt lat="43.419551437905916" lon="10.709239562242386"><ele>551.0</ele><time>2026-04-19T09:16:27Z</time></trkpt><trkpt lat="43.41947477360991" lon="10.709126573655082"><ele>550.2</ele><time>2026-04-19T09:16:29Z</time></trkpt><trkpt lat="43.4194014745705" lon="10.709006534480318"><ele>549.4000000000001</ele><time>2026-04-19T09:16:31Z</time></trkpt><trkpt lat="43.41932943202388" lon="10.708880165696511"><ele>548.6</ele><time>2026-04-19T09:16:33Z</time></trkpt><trkpt lat="43.41928589920992" lon="10.708817510219"><ele>547.8000000000001</ele><time>2026-04-19T09:16:34Z</time></trkpt><trkpt lat="43.419230035807644" lon="10.708728075484435"><ele>547.0</ele><time>2026-04-19T09:16:36Z</time></trkpt><trkpt lat="43.419216250082115" lon="10.708624973425282"><ele>548.2</ele><time>2026-04-19T09:16:48Z</time></trkpt><trkpt lat="43.41920815890201" lon="10.708484865235297"><ele>549.4000000000001</ele><time>2026-04-19T09:16:50Z</time></trkpt><trkpt lat="43.41919954076961" lon="10.708344163804306"><ele>550.5999999999999</ele><time>2026-04-19T09:16:52Z</time></trkpt><trkpt lat="43.41917096411835" lon="10.70822643146895"><ele>551.8</ele><time>2026-04-19T09:16:54Z</time></trkpt><trkpt lat="43.41912281980728" lon="10.708100608284429"><ele>553.0</ele><time>2026-04-19T09:16:56Z</time></trkpt><trkpt lat="43.41904937990469" lon="10.707963364601316"><ele>553.0</ele><time>2026-04-19T09:16:58Z</time></trkpt><trkpt lat="43.418990130490634" lon="10.707795352085157"><ele>553.0</ele><time>2026-04-19T09:17:00Z</time></trkpt><trkpt lat="43.41896237095596" lon="10.707700570984521"><ele>553.0</ele><time>2026-04-19T09:17:01Z</time></trkpt><trkpt lat="43.41894614231735" lon="10.707602091234747"><ele>553.0</ele><time>2026-04-19T09:17:02Z</time></trkpt><trkpt lat="43.418883940505545" lon="10.707453034420332"><ele>553.0</ele><time>2026-04-19T09:17:04Z</time></trkpt><trkpt lat="43.41883812151488" lon="10.70736249498302"><ele>551.0</ele><time>2026-04-19T09:17:05Z</time></trkpt><trkpt lat="43.418782368823315" lon="10.707301274116421"><ele>549.0</ele><time>2026-04-19T09:17:06Z</time></trkpt><trkpt lat="43.41873176571423" lon="10.707233365787587"><ele>547.0</ele><time>2026-04-19T09:17:07Z</time></trkpt><trkpt lat="43.418673594966776" lon="10.707178214038787"><ele>545.0</ele><time>2026-04-19T09:17:08Z</time></trkpt><trkpt lat="43.41860980129265" lon="10.707120529477978"><ele>543.0</ele><time>2026-04-19T09:17:09Z</time></trkpt><trkpt lat="43.418560878848496" lon="10.707053484123788"><ele>541.0</ele><time>2026-04-19T09:17:10Z</time></trkpt><trkpt lat="43.418456895738075" lon="10.706972177946394"><ele>541.0</ele><time>2026-04-19T09:17:12Z</time></trkpt><trkpt lat="43.41840187280637" lon="10.706927854248224"><ele>541.0</ele><time>2026-04-19T09:17:13Z</time></trkpt><trkpt lat="43.418321538570375" lon="10.706836169813716"><ele>541.0</ele><time>2026-04-19T09:17:15Z</time></trkpt><trkpt lat="43.41823137624544" lon="10.70673749155097"><ele>541.0</ele><time>2026-04-19T09:17:17Z</time></trkpt><trkpt lat="43.4181132370302" lon="10.70670726703816"><ele>541.0</ele><time>2026-04-19T09:17:19Z</time></trkpt><trkpt lat="43.41803721863227" lon="10.706712406033683"><ele>540.8333333333334</ele><time>2026-04-19T09:17:20Z</time></trkpt><trkpt lat="43.417969202274996" lon="10.706696646872402"><ele>540.6666666666667</ele><time>2026-04-19T09:17:21Z</time></trkpt><trkpt lat="43.41790204560272" lon="10.706634313785788"><ele>540.5</ele><time>2026-04-19T09:17:22Z</time></trkpt><trkpt lat="43.41781966929135" lon="10.706581902544425"><ele>540.3333333333334</ele><time>2026-04-19T09:17:23Z</time></trkpt><trkpt lat="43.41774887734859" lon="10.706520290016686"><ele>540.1666666666666</ele><time>2026-04-19T09:17:24Z</time></trkpt><trkpt lat="43.41769126805149" lon="10.706464619628576"><ele>540.0</ele><time>2026-04-19T09:17:25Z</time></trkpt><trkpt lat="43.41760786831661" lon="10.706380737241354"><ele>540.0</ele><time>2026-04-19T09:17:27Z</time></trkpt><trkpt lat="43.41754280910732" lon="10.70631667614288"><ele>540.0</ele><time>2026-04-19T09:17:29Z</time></trkpt><trkpt lat="43.41747494260371" lon="10.70622612917813"><ele>540.0</ele><time>2026-04-19T09:17:31Z</time></trkpt><trkpt lat="43.41739876291946" lon="10.706154697857356"><ele>540.0</ele><time>2026-04-19T09:17:32.998Z</time></trkpt><trkpt lat="43.4173140877566" lon="10.70610389289897"><ele>540.0</ele><time>2026-04-19T09:17:35.998Z</time></trkpt><trkpt lat="43.41725454374613" lon="10.706013642908403"><ele>540.0</ele><time>2026-04-19T09:17:37.998Z</time></trkpt><trkpt lat="43.415852640987715" lon="10.70404267335419"><ele>542.2</ele><time>2026-04-19T09:21:55.001Z</time></trkpt><trkpt lat="43.41577023485696" lon="10.7039906496487"><ele>544.4</ele><time>2026-04-19T09:21:57.001Z</time></trkpt><trkpt lat="43.41569794476663" lon="10.703923308303375"><ele>546.6</ele><time>2026-04-19T09:21:59.001Z</time></trkpt><trkpt lat="43.41563816005871" lon="10.703813599970506"><ele>548.8</ele><time>2026-04-19T09:22:01.001Z</time></trkpt><trkpt lat="43.41556630392806" lon="10.703710345267515"><ele>551.0</ele><time>2026-04-19T09:22:03.001Z</time></trkpt><trkpt lat="43.41551154178664" lon="10.703608295684242"><ele>552.0</ele><time>2026-04-19T09:22:05.001Z</time></trkpt><trkpt lat="43.415445118512444" lon="10.703510035005792"><ele>553.0</ele><time>2026-04-19T09:22:07.001Z</time></trkpt><trkpt lat="43.41539635777846" lon="10.703454365361289"><ele>554.0</ele><time>2026-04-19T09:22:08.001Z</time></trkpt><trkpt lat="43.41531255883592" lon="10.703369925933293"><ele>555.0</ele><time>2026-04-19T09:22:10.001Z</time></trkpt><trkpt lat="43.415262210146096" lon="10.70323593217001"><ele>556.0</ele><time>2026-04-19T09:22:12.001Z</time></trkpt><trkpt lat="43.41521476464229" lon="10.703178354590259"><ele>557.0</ele><time>2026-04-19T09:22:14.001Z</time></trkpt><trkpt lat="43.415157856884875" lon="10.702997518754932"><ele>557.0</ele><time>2026-04-19T09:22:16.001Z</time></trkpt><trkpt lat="43.415091258161" lon="10.702868975186465"><ele>557.0</ele><time>2026-04-19T09:22:18.001Z</time></trkpt><trkpt lat="43.41502400363446" lon="10.702765297525023"><ele>557.0</ele><time>2026-04-19T09:22:20.001Z</time></trkpt><trkpt lat="43.41498063660934" lon="10.702670690909956"><ele>557.0</ele><time>2026-04-19T09:22:22.001Z</time></trkpt><trkpt lat="43.41492862022819" lon="10.702608741306513"><ele>557.0</ele><time>2026-04-19T09:22:26.001Z</time></trkpt><trkpt lat="43.41488782352914" lon="10.702534902444564"><ele>557.0</ele><time>2026-04-19T09:22:27.001Z</time></trkpt><trkpt lat="43.414829820345375" lon="10.702461784438057"><ele>557.8333333333333</ele><time>2026-04-19T09:22:30.001Z</time></trkpt><trkpt lat="43.414743408355164" lon="10.702504246832403"><ele>558.6666666666666</ele><time>2026-04-19T09:22:38.001Z</time></trkpt><trkpt lat="43.414665997305946" lon="10.70244578496259"><ele>559.5</ele><time>2026-04-19T09:22:48.001Z</time></trkpt><trkpt lat="43.414602269525666" lon="10.702394842389497"><ele>560.3333333333334</ele><time>2026-04-19T09:22:50.001Z</time></trkpt><trkpt lat="43.41451765317621" lon="10.702281047164126"><ele>561.1666666666667</ele><time>2026-04-19T09:22:52.001Z</time></trkpt><trkpt lat="43.4144523280402" lon="10.702244877775973"><ele>562.0</ele><time>2026-04-19T09:22:53.001Z</time></trkpt><trkpt lat="43.41438352598131" lon="10.702229580518745"><ele>562.0</ele><time>2026-04-19T09:22:54.001Z</time></trkpt><trkpt lat="43.41432198839538" lon="10.702208056355062"><ele>562.0</ele><time>2026-04-19T09:22:55.001Z</time></trkpt><trkpt lat="43.4142467652896" lon="10.702130922789472"><ele>562.0</ele><time>2026-04-19T09:22:57.001Z</time></trkpt><trkpt lat="43.41420490559785" lon="10.702038500719485"><ele>562.0</ele><time>2026-04-19T09:22:59.001Z</time></trkpt><trkpt lat="43.414183534349455" lon="10.701952838147074"><ele>562.0</ele><time>2026-04-19T09:23:02.001Z</time></trkpt><trkpt lat="43.414144607069055" lon="10.701878338004626"><ele>562.0</ele><time>2026-04-19T09:23:35.002Z</time></trkpt><trkpt lat="43.414139062692776" lon="10.701746275145254"><ele>563.6666666666667</ele><time>2026-04-19T09:23:40.002Z</time></trkpt><trkpt lat="43.414144549134285" lon="10.701639537761167"><ele>565.3333333333334</ele><time>2026-04-19T09:23:42.002Z</time></trkpt><trkpt lat="43.414117288939075" lon="10.701534256985484"><ele>567.0</ele><time>2026-04-19T09:23:44.002Z</time></trkpt><trkpt lat="43.41409743426337" lon="10.701412146057812"><ele>568.6666666666666</ele><time>2026-04-19T09:23:46.002Z</time></trkpt><trkpt lat="43.41408456393819" lon="10.701297513881226"><ele>570.3333333333333</ele><time>2026-04-19T09:23:48.002Z</time></trkpt><trkpt lat="43.414091045513345" lon="10.701163111311484"><ele>572.0</ele><time>2026-04-19T09:23:50.002Z</time></trkpt><trkpt lat="43.41408358845619" lon="10.701067538489585"><ele>572.6666666666666</ele><time>2026-04-19T09:23:52.001Z</time></trkpt><trkpt lat="43.414033905400125" lon="10.700989059361566"><ele>573.3333333333333</ele><time>2026-04-19T09:23:54.001Z</time></trkpt><trkpt lat="43.413943043510834" lon="10.700908089753982"><ele>574.0</ele><time>2026-04-19T09:23:56.001Z</time></trkpt><trkpt lat="43.41389961058367" lon="10.700833786691744"><ele>574.6666666666666</ele><time>2026-04-19T09:23:58.001Z</time></trkpt><trkpt lat="43.413846591107614" lon="10.700765454414496"><ele>575.3333333333334</ele><time>2026-04-19T09:24:00.001Z</time></trkpt><trkpt lat="43.41381903282909" lon="10.700656601524354"><ele>576.0</ele><time>2026-04-19T09:24:02.001Z</time></trkpt><trkpt lat="43.41383264779354" lon="10.700554630104037"><ele>576.0</ele><time>2026-04-19T09:24:05.001Z</time></trkpt><trkpt lat="43.413773663935864" lon="10.700506155682099"><ele>576.0</ele><time>2026-04-19T09:24:07.001Z</time></trkpt><trkpt lat="43.41366666509448" lon="10.700463653684517"><ele>576.0</ele><time>2026-04-19T09:24:09.001Z</time></trkpt><trkpt lat="43.413575598341545" lon="10.700379722843191"><ele>576.0</ele><time>2026-04-19T09:24:11.001Z</time></trkpt><trkpt lat="43.413511409336024" lon="10.70028905636854"><ele>576.0</ele><time>2026-04-19T09:24:14.001Z</time></trkpt><trkpt lat="43.413447426313475" lon="10.700219001747602"><ele>577.6</ele><time>2026-04-19T09:24:16.001Z</time></trkpt><trkpt lat="43.41333949456982" lon="10.700193269770436"><ele>579.2</ele><time>2026-04-19T09:24:18.001Z</time></trkpt><trkpt lat="43.41322256443414" lon="10.700123938782392"><ele>580.8</ele><time>2026-04-19T09:24:20.001Z</time></trkpt><trkpt lat="43.413117724891464" lon="10.700025823450387"><ele>582.4</ele><time>2026-04-19T09:24:21.001Z</time></trkpt><trkpt lat="43.41305795994195" lon="10.699946704427049"><ele>584.0</ele><time>2026-04-19T09:24:22.001Z</time></trkpt><trkpt lat="43.41298070348898" lon="10.699907204188685"><ele>584.3333333333333</ele><time>2026-04-19T09:24:23.001Z</time></trkpt><trkpt lat="43.412888979906015" lon="10.699869781731381"><ele>584.6666666666666</ele><time>2026-04-19T09:24:24.001Z</time></trkpt><trkpt lat="43.4128302879461" lon="10.69981702000763"><ele>585.0</ele><time>2026-04-19T09:24:25.001Z</time></trkpt><trkpt lat="43.4127525350131" lon="10.69975486224779"><ele>585.3333333333334</ele><time>2026-04-19T09:24:27.001Z</time></trkpt><trkpt lat="43.412662533679" lon="10.6997098340652"><ele>585.6666666666667</ele><time>2026-04-19T09:24:29.001Z</time></trkpt><trkpt lat="43.412601491080615" lon="10.69973251243616"><ele>586.0</ele><time>2026-04-19T09:24:30.001Z</time></trkpt><trkpt lat="43.41250165392991" lon="10.699735711895881"><ele>586.0</ele><time>2026-04-19T09:24:32.001Z</time></trkpt><trkpt lat="43.41244124540284" lon="10.699673349567364"><ele>586.0</ele><time>2026-04-19T09:24:33.001Z</time></trkpt><trkpt lat="43.41239493179891" lon="10.699566081398626"><ele>586.0</ele><time>2026-04-19T09:24:35.001Z</time></trkpt><trkpt lat="43.41232349461866" lon="10.6994562924975"><ele>586.0</ele><time>2026-04-19T09:24:37.001Z</time></trkpt><trkpt lat="43.41222300608512" lon="10.69942724413631"><ele>586.0</ele><time>2026-04-19T09:24:39.001Z</time></trkpt><trkpt lat="43.41214020005313" lon="10.699377129688807"><ele>588.2</ele><time>2026-04-19T09:24:40.001Z</time></trkpt><trkpt lat="43.412095457778136" lon="10.699315086565589"><ele>590.4000000000001</ele><time>2026-04-19T09:24:41.001Z</time></trkpt><trkpt lat="43.41202265555204" lon="10.699202176438863"><ele>592.6</ele><time>2026-04-19T09:24:43.001Z</time></trkpt><trkpt lat="43.411964441653396" lon="10.699092413609025"><ele>594.8000000000001</ele><time>2026-04-19T09:24:45.001Z</time></trkpt><trkpt lat="43.411932586799" lon="10.699004885111972"><ele>597.0</ele><time>2026-04-19T09:24:47.001Z</time></trkpt><trkpt lat="43.4118788758164" lon="10.698870464559842"><ele>597.0</ele><time>2026-04-19T09:24:49.001Z</time></trkpt><trkpt lat="43.41179372423777" lon="10.698817965838284"><ele>597.0</ele><time>2026-04-19T09:24:51.001Z</time></trkpt><trkpt lat="43.41171894113495" lon="10.698803685126993"><ele>597.0</ele><time>2026-04-19T09:24:52.001Z</time></trkpt><trkpt lat="43.411652894159324" lon="10.698787649986484"><ele>597.0</ele><time>2026-04-19T09:24:53.001Z</time></trkpt><trkpt lat="43.41155040721001" lon="10.698812740989634"><ele>597.0</ele><time>2026-04-19T09:24:55.001Z</time></trkpt><trkpt lat="43.41144686965784" lon="10.698899399785331"><ele>597.0</ele><time>2026-04-19T09:24:57.001Z</time></trkpt><trkpt lat="43.411330595206195" lon="10.698948717434401"><ele>597.0</ele><time>2026-04-19T09:24:59.001Z</time></trkpt><trkpt lat="43.411214454094136" lon="10.698987594408559"><ele>597.0</ele><time>2026-04-19T09:25:01.001Z</time></trkpt><trkpt lat="43.411109755947614" lon="10.698983483349842"><ele>597.0</ele><time>2026-04-19T09:25:03.001Z</time></trkpt><trkpt lat="43.41103703572265" lon="10.698996107233146"><ele>597.0</ele><time>2026-04-19T09:25:06.001Z</time></trkpt><trkpt lat="43.410918093747725" lon="10.698993671397513"><ele>597.6666666666666</ele><time>2026-04-19T09:25:08.001Z</time></trkpt><trkpt lat="43.410803654847435" lon="10.699037097236484"><ele>598.3333333333334</ele><time>2026-04-19T09:25:10.001Z</time></trkpt><trkpt lat="43.41070830657576" lon="10.69898701637443"><ele>599.0</ele><time>2026-04-19T09:26:01.001Z</time></trkpt><trkpt lat="43.410657778882765" lon="10.698934900900309"><ele>599.6666666666667</ele><time>2026-04-19T09:26:02.001Z</time></trkpt><trkpt lat="43.41057646442098" lon="10.698890230121371"><ele>600.3333333333334</ele><time>2026-04-19T09:26:04.001Z</time></trkpt><trkpt lat="43.41051519408622" lon="10.698856938322612"><ele>601.0</ele><time>2026-04-19T09:26:06.001Z</time></trkpt><trkpt lat="43.410429751725985" lon="10.69881887024932"><ele>601.5</ele><time>2026-04-19T09:26:08.001Z</time></trkpt><trkpt lat="43.410343727050645" lon="10.698757309746224"><ele>602.0</ele><time>2026-04-19T09:26:10.001Z</time></trkpt><trkpt lat="43.41026452544888" lon="10.698754373221407"><ele>602.5</ele><time>2026-04-19T09:26:12.001Z</time></trkpt><trkpt lat="43.41021908065222" lon="10.698829196391074"><ele>603.0</ele><time>2026-04-19T09:26:19.001Z</time></trkpt><trkpt lat="43.410165039332654" lon="10.698876118465789"><ele>603.5</ele><time>2026-04-19T09:26:21.001Z</time></trkpt><trkpt lat="43.41008483146586" lon="10.69889218116221"><ele>604.0</ele><time>2026-04-19T09:26:23.001Z</time></trkpt><trkpt lat="43.41000030326935" lon="10.698935691227542"><ele>604.0</ele><time>2026-04-19T09:26:25.001Z</time></trkpt><trkpt lat="43.409929712605994" lon="10.69894884300194"><ele>604.0</ele><time>2026-04-19T09:26:26.001Z</time></trkpt><trkpt lat="43.409862637363645" lon="10.698946669501137"><ele>604.0</ele><time>2026-04-19T09:26:27.001Z</time></trkpt><trkpt lat="43.40977778126836" lon="10.698885605933391"><ele>604.0</ele><time>2026-04-19T09:26:29.001Z</time></trkpt><trkpt lat="43.40969618665215" lon="10.698772480828167"><ele>604.0</ele><time>2026-04-19T09:26:31.001Z</time></trkpt><trkpt lat="43.40962706256925" lon="10.698716010130669"><ele>604.0</ele><time>2026-04-19T09:26:33.001Z</time></trkpt><trkpt lat="43.409562619232226" lon="10.698717917082433"><ele>604.4</ele><time>2026-04-19T09:26:34.001Z</time></trkpt><trkpt lat="43.409481598971986" lon="10.69871762860447"><ele>604.8</ele><time>2026-04-19T09:26:35.001Z</time></trkpt><trkpt lat="43.409398769163786" lon="10.698706870574497"><ele>605.2</ele><time>2026-04-19T09:26:36.001Z</time></trkpt><trkpt lat="43.409298242181976" lon="10.698667390407852"><ele>605.6</ele><time>2026-04-19T09:26:38.001Z</time></trkpt><trkpt lat="43.40919459539547" lon="10.698632230931818"><ele>606.0</ele><time>2026-04-19T09:26:40.001Z</time></trkpt><trkpt lat="43.40908498195536" lon="10.698623112521812"><ele>606.0</ele><time>2026-04-19T09:26:42.001Z</time></trkpt><trkpt lat="43.40897729976231" lon="10.69869272101339"><ele>606.0</ele><time>2026-04-19T09:26:44.001Z</time></trkpt><trkpt lat="43.40890184855121" lon="10.69882327732306"><ele>606.0</ele><time>2026-04-19T09:26:46.001Z</time></trkpt><trkpt lat="43.40885983761729" lon="10.69900022202991"><ele>606.0</ele><time>2026-04-19T09:26:48.001Z</time></trkpt><trkpt lat="43.40884303110465" lon="10.699110777112372"><ele>606.0</ele><time>2026-04-19T09:26:49.001Z</time></trkpt><trkpt lat="43.40882863190303" lon="10.699208954949803"><ele>606.0</ele><time>2026-04-19T09:26:50.001Z</time></trkpt><trkpt lat="43.40881371612341" lon="10.699325652196572"><ele>606.0</ele><time>2026-04-19T09:26:51.001Z</time></trkpt><trkpt lat="43.408800276636" lon="10.69942371813073"><ele>606.0</ele><time>2026-04-19T09:26:52.001Z</time></trkpt><trkpt lat="43.40874895262199" lon="10.699575599188337"><ele>606.0</ele><time>2026-04-19T09:26:54.001Z</time></trkpt><trkpt lat="43.40868931981551" lon="10.699659513197894"><ele>606.0</ele><time>2026-04-19T09:26:55.001Z</time></trkpt><trkpt lat="43.40860273213284" lon="10.699750684538976"><ele>604.8</ele><time>2026-04-19T09:26:56.001Z</time></trkpt><trkpt lat="43.40848875738164" lon="10.69984700180318"><ele>603.6</ele><time>2026-04-19T09:26:57.001Z</time></trkpt><trkpt lat="43.40839912277255" lon="10.699917659520315"><ele>602.4</ele><time>2026-04-19T09:26:58.001Z</time></trkpt><trkpt lat="43.40833312504171" lon="10.69999746938139"><ele>601.2</ele><time>2026-04-19T09:26:59.001Z</time></trkpt><trkpt lat="43.40825235904929" lon="10.700126877629323"><ele>600.0</ele><time>2026-04-19T09:27:00.001Z</time></trkpt><trkpt lat="43.408153191298965" lon="10.700283060337576"><ele>599.25</ele><time>2026-04-19T09:27:01.001Z</time></trkpt><trkpt lat="43.4080383440795" lon="10.700449237512176"><ele>598.5</ele><time>2026-04-19T09:27:02.001Z</time></trkpt><trkpt lat="43.40794320649491" lon="10.7005815398737"><ele>597.75</ele><time>2026-04-19T09:27:03.001Z</time></trkpt><trkpt lat="43.407862510902724" lon="10.700684498388343"><ele>597.0</ele><time>2026-04-19T09:27:04.001Z</time></trkpt><trkpt lat="43.407789311790594" lon="10.70077314812708"><ele>595.0</ele><time>2026-04-19T09:27:05.001Z</time></trkpt><trkpt lat="43.40771852927851" lon="10.700854313178233"><ele>593.0</ele><time>2026-04-19T09:27:06.001Z</time></trkpt><trkpt lat="43.40762581900338" lon="10.70097602976993"><ele>591.0</ele><time>2026-04-19T09:27:07.001Z</time></trkpt><trkpt lat="43.40753519466924" lon="10.701096630096496"><ele>589.0</ele><time>2026-04-19T09:27:08.001Z</time></trkpt><trkpt lat="43.40746381621413" lon="10.701199952144222"><ele>588.8</ele><time>2026-04-19T09:27:09.001Z</time></trkpt><trkpt lat="43.40739369679794" lon="10.701273825835429"><ele>588.5999999999999</ele><time>2026-04-19T09:27:10.001Z</time></trkpt><trkpt lat="43.40730758753765" lon="10.701331228421308"><ele>588.4</ele><time>2026-04-19T09:27:11.001Z</time></trkpt><trkpt lat="43.40719376485364" lon="10.70139639824058"><ele>588.1999999999999</ele><time>2026-04-19T09:27:12.001Z</time></trkpt><trkpt lat="43.40709486783082" lon="10.701458314063947"><ele>588.0</ele><time>2026-04-19T09:27:13.001Z</time></trkpt><trkpt lat="43.40702223420644" lon="10.701520345570058"><ele>586.8</ele><time>2026-04-19T09:27:14.001Z</time></trkpt><trkpt lat="43.40696943380805" lon="10.70159482708127"><ele>585.5999999999999</ele><time>2026-04-19T09:27:15.001Z</time></trkpt><trkpt lat="43.40692815714316" lon="10.701702595078228"><ele>584.4000000000001</ele><time>2026-04-19T09:27:16.001Z</time></trkpt><trkpt lat="43.40687779228747" lon="10.70184496391659"><ele>583.2</ele><time>2026-04-19T09:27:17.001Z</time></trkpt><trkpt lat="43.406816845653616" lon="10.701971951983255"><ele>582.0</ele><time>2026-04-19T09:27:18.001Z</time></trkpt><trkpt lat="43.40673707792324" lon="10.702087267631219"><ele>582.0</ele><time>2026-04-19T09:27:19.001Z</time></trkpt><trkpt lat="43.40661910851794" lon="10.702214832296628"><ele>582.0</ele><time>2026-04-19T09:27:20.001Z</time></trkpt><trkpt lat="43.40649266711466" lon="10.702379889562167"><ele>582.0</ele><time>2026-04-19T09:27:21.001Z</time></trkpt><trkpt lat="43.406356796272306" lon="10.702581355550395"><ele>582.25</ele><time>2026-04-19T09:27:22.001Z</time></trkpt><trkpt lat="43.40623666201611" lon="10.702762849301536"><ele>582.5</ele><time>2026-04-19T09:27:23.001Z</time></trkpt><trkpt lat="43.406141790364366" lon="10.70290676299943"><ele>582.75</ele><time>2026-04-19T09:27:24.001Z</time></trkpt><trkpt lat="43.40606220574834" lon="10.703028305554685"><ele>583.0</ele><time>2026-04-19T09:27:25.001Z</time></trkpt><trkpt lat="43.405995665442966" lon="10.703122978317001"><ele>583.0</ele><time>2026-04-19T09:27:26.001Z</time></trkpt><trkpt lat="43.40592582986347" lon="10.703200738397756"><ele>583.0</ele><time>2026-04-19T09:27:27.001Z</time></trkpt><trkpt lat="43.40582061443051" lon="10.703274142446835"><ele>583.0</ele><time>2026-04-19T09:27:28.001Z</time></trkpt><trkpt lat="43.40568629040683" lon="10.70335170719658"><ele>583.0</ele><time>2026-04-19T09:27:29.001Z</time></trkpt><trkpt lat="43.405547519326696" lon="10.70343694870078"><ele>582.6</ele><time>2026-04-19T09:27:30.001Z</time></trkpt><trkpt lat="43.40544132881919" lon="10.70353127452204"><ele>582.1999999999999</ele><time>2026-04-19T09:27:31.001Z</time></trkpt><trkpt lat="43.40535545429705" lon="10.7036434659048"><ele>581.8</ele><time>2026-04-19T09:27:32.001Z</time></trkpt><trkpt lat="43.405298923311385" lon="10.703747095118615"><ele>581.4</ele><time>2026-04-19T09:27:33.001Z</time></trkpt><trkpt lat="43.405271537503715" lon="10.7038494954512"><ele>581.0</ele><time>2026-04-19T09:27:34.001Z</time></trkpt><trkpt lat="43.40524286091719" lon="10.703987436386026"><ele>581.0</ele><time>2026-04-19T09:27:35.001Z</time></trkpt><trkpt lat="43.405217750836464" lon="10.704151119019093"><ele>581.0</ele><time>2026-04-19T09:27:36.001Z</time></trkpt><trkpt lat="43.405184439458594" lon="10.704295466894186"><ele>581.0</ele><time>2026-04-19T09:27:37.001Z</time></trkpt><trkpt lat="43.405154000932036" lon="10.704388376731178"><ele>581.0</ele><time>2026-04-19T09:27:38.001Z</time></trkpt><trkpt lat="43.40510898007303" lon="10.704472382569303"><ele>581.0</ele><time>2026-04-19T09:27:39.001Z</time></trkpt><trkpt lat="43.40504070815397" lon="10.70453965360216"><ele>581.0</ele><time>2026-04-19T09:27:40.001Z</time></trkpt><trkpt lat="43.40495389123765" lon="10.704590179103496"><ele>581.0</ele><time>2026-04-19T09:27:41.001Z</time></trkpt><trkpt lat="43.404839135120206" lon="10.704634822751531"><ele>581.0</ele><time>2026-04-19T09:27:42.001Z</time></trkpt><trkpt lat="43.4046967069988" lon="10.70468880655511"><ele>581.0</ele><time>2026-04-19T09:27:43.001Z</time></trkpt><trkpt lat="43.404548108564875" lon="10.70475140749598"><ele>581.0</ele><time>2026-04-19T09:27:44.001Z</time></trkpt><trkpt lat="43.404421643700395" lon="10.704810457947636"><ele>581.0</ele><time>2026-04-19T09:27:45.001Z</time></trkpt><trkpt lat="43.40430206194105" lon="10.70487593156975"><ele>581.0</ele><time>2026-04-19T09:27:46.001Z</time></trkpt><trkpt lat="43.40418893307196" lon="10.70493274488971"><ele>581.0</ele><time>2026-04-19T09:27:47.001Z</time></trkpt><trkpt lat="43.404076599998206" lon="10.704970478764512"><ele>581.0</ele><time>2026-04-19T09:27:48.001Z</time></trkpt><trkpt lat="43.40395396500474" lon="10.70501820463947"><ele>581.0</ele><time>2026-04-19T09:27:49.001Z</time></trkpt><trkpt lat="43.40382536164335" lon="10.705075982436838"><ele>581.0</ele><time>2026-04-19T09:27:50.001Z</time></trkpt><trkpt lat="43.40370532066388" lon="10.705135239427598"><ele>581.0</ele><time>2026-04-19T09:27:51.001Z</time></trkpt><trkpt lat="43.40361049160486" lon="10.705182300141644"><ele>582.2</ele><time>2026-04-19T09:27:52.001Z</time></trkpt><trkpt lat="43.403523407647455" lon="10.705210622775892"><ele>583.4000000000001</ele><time>2026-04-19T09:27:53.001Z</time></trkpt><trkpt lat="43.403423698974386" lon="10.70522069611452"><ele>584.6</ele><time>2026-04-19T09:27:54.001Z</time></trkpt><trkpt lat="43.403308312571035" lon="10.70521746715211"><ele>585.8000000000001</ele><time>2026-04-19T09:27:55.001Z</time></trkpt><trkpt lat="43.40320423480652" lon="10.70523927425224"><ele>587.0</ele><time>2026-04-19T09:27:56.001Z</time></trkpt><trkpt lat="43.403090260166934" lon="10.705288739846704"><ele>581.5</ele><time>2026-04-19T09:27:57.001Z</time></trkpt><trkpt lat="43.402972715755034" lon="10.705369416645347"><ele>576.0</ele><time>2026-04-19T09:27:58.001Z</time></trkpt><trkpt lat="43.40286658564403" lon="10.70547560758458"><ele>570.5</ele><time>2026-04-19T09:27:59.001Z</time></trkpt><trkpt lat="43.40277267865423" lon="10.705603262494796"><ele>565.0</ele><time>2026-04-19T09:28:00.001Z</time></trkpt><trkpt lat="43.402658030734536" lon="10.705729417067511"><ele>565.0</ele><time>2026-04-19T09:28:01.001Z</time></trkpt><trkpt lat="43.40256555913217" lon="10.705881029998384"><ele>565.0</ele><time>2026-04-19T09:28:02.001Z</time></trkpt><trkpt lat="43.40247362591728" lon="10.706027138774331"><ele>565.0</ele><time>2026-04-19T09:28:03.001Z</time></trkpt><trkpt lat="43.40237315673721" lon="10.706167632758383"><ele>565.0</ele><time>2026-04-19T09:28:04.001Z</time></trkpt><trkpt lat="43.402282749413324" lon="10.70628524947926"><ele>563.3333333333334</ele><time>2026-04-19T09:28:05.001Z</time></trkpt><trkpt lat="43.40217621605755" lon="10.706400523657592"><ele>561.6666666666666</ele><time>2026-04-19T09:28:06.001Z</time></trkpt><trkpt lat="43.40205174725699" lon="10.706525873346262"><ele>560.0</ele><time>2026-04-19T09:28:07.001Z</time></trkpt><trkpt lat="43.40191156405661" lon="10.70665904258704"><ele>560.0</ele><time>2026-04-19T09:28:08.001Z</time></trkpt><trkpt lat="43.40178267057448" lon="10.706788308137694"><ele>560.0</ele><time>2026-04-19T09:28:09.001Z</time></trkpt><trkpt lat="43.40168717072766" lon="10.70692852004062"><ele>560.0</ele><time>2026-04-19T09:28:10.001Z</time></trkpt><trkpt lat="43.40157968366335" lon="10.707067939969711"><ele>560.0</ele><time>2026-04-19T09:28:11.001Z</time></trkpt><trkpt lat="43.401477748991795" lon="10.707197143026736"><ele>559.75</ele><time>2026-04-19T09:28:12.001Z</time></trkpt><trkpt lat="43.401382372362185" lon="10.707282743268877"><ele>559.5</ele><time>2026-04-19T09:28:13.001Z</time></trkpt><trkpt lat="43.40127772206964" lon="10.707325679137941"><ele>559.25</ele><time>2026-04-19T09:28:14.001Z</time></trkpt><trkpt lat="43.40115544824791" lon="10.707381219854554"><ele>559.0</ele><time>2026-04-19T09:28:15Z</time></trkpt><trkpt lat="43.401037901917675" lon="10.707468886646318"><ele>559.0</ele><time>2026-04-19T09:28:16Z</time></trkpt><trkpt lat="43.4009282136006" lon="10.707550988002456"><ele>559.0</ele><time>2026-04-19T09:28:17Z</time></trkpt><trkpt lat="43.40083019201294" lon="10.70766046064727"><ele>559.0</ele><time>2026-04-19T09:28:18Z</time></trkpt><trkpt lat="43.400717321072214" lon="10.707783793076523"><ele>559.0</ele><time>2026-04-19T09:28:19Z</time></trkpt><trkpt lat="43.40048946012532" lon="10.70797017369811"><ele>557.75</ele><time>2026-04-19T09:28:21Z</time></trkpt><trkpt lat="43.4004015012513" lon="10.708051950531148"><ele>556.5</ele><time>2026-04-19T09:28:22Z</time></trkpt><trkpt lat="43.4003386255615" lon="10.708159600296417"><ele>555.25</ele><time>2026-04-19T09:28:23Z</time></trkpt><trkpt lat="43.400267988641794" lon="10.708289086549488"><ele>554.0</ele><time>2026-04-19T09:28:24Z</time></trkpt><trkpt lat="43.400194436616005" lon="10.708462629353445"><ele>555.0</ele><time>2026-04-19T09:28:25Z</time></trkpt><trkpt lat="43.4001258656265" lon="10.708640640567513"><ele>556.0</ele><time>2026-04-19T09:28:26Z</time></trkpt><trkpt lat="43.40006342038244" lon="10.708800859692508"><ele>557.0</ele><time>2026-04-19T09:28:27Z</time></trkpt><trkpt lat="43.399965143423124" lon="10.70893913137053"><ele>558.0</ele><time>2026-04-19T09:28:28Z</time></trkpt><trkpt lat="43.39988096264277" lon="10.709108377482872"><ele>558.0</ele><time>2026-04-19T09:28:29Z</time></trkpt><trkpt lat="43.39979397538107" lon="10.70923758939194"><ele>558.0</ele><time>2026-04-19T09:28:30Z</time></trkpt><trkpt lat="43.399727529626276" lon="10.709336033998099"><ele>558.0</ele><time>2026-04-19T09:28:31Z</time></trkpt><trkpt lat="43.39965795687663" lon="10.70938749644398"><ele>558.0</ele><time>2026-04-19T09:28:32Z</time></trkpt><trkpt lat="43.39960269754518" lon="10.70944894914329"><ele>558.0</ele><time>2026-04-19T09:28:33Z</time></trkpt><trkpt lat="43.39949632505878" lon="10.709435131855582"><ele>559.5</ele><time>2026-04-19T09:28:34Z</time></trkpt><trkpt lat="43.39936609966619" lon="10.70947335895043"><ele>561.0</ele><time>2026-04-19T09:28:35Z</time></trkpt><trkpt lat="43.399252662221514" lon="10.709575783045786"><ele>562.5</ele><time>2026-04-19T09:28:36Z</time></trkpt><trkpt lat="43.399161881778575" lon="10.709680693553137"><ele>564.0</ele><time>2026-04-19T09:28:37Z</time></trkpt><trkpt lat="43.399074260566394" lon="10.709791050702492"><ele>564.0</ele><time>2026-04-19T09:28:38Z</time></trkpt><trkpt lat="43.39897821695018" lon="10.709916983632967"><ele>564.0</ele><time>2026-04-19T09:28:39Z</time></trkpt><trkpt lat="43.39886268619431" lon="10.710060587518628"><ele>564.0</ele><time>2026-04-19T09:28:40Z</time></trkpt><trkpt lat="43.39874187790972" lon="10.710179071969574"><ele>564.0</ele><time>2026-04-19T09:28:41Z</time></trkpt><trkpt lat="43.3986533377031" lon="10.71028285307231"><ele>564.0</ele><time>2026-04-19T09:28:42Z</time></trkpt><trkpt lat="43.39856853996731" lon="10.710372213021897"><ele>564.0</ele><time>2026-04-19T09:28:43Z</time></trkpt><trkpt lat="43.39847211649953" lon="10.710433371451362"><ele>564.0</ele><time>2026-04-19T09:28:44Z</time></trkpt><trkpt lat="43.39838096153276" lon="10.710459154017782"><ele>564.0</ele><time>2026-04-19T09:28:45Z</time></trkpt><trkpt lat="43.39828314906546" lon="10.71047266059867"><ele>564.0</ele><time>2026-04-19T09:28:46Z</time></trkpt><trkpt lat="43.398185527169225" lon="10.710456557750277"><ele>564.0</ele><time>2026-04-19T09:28:47Z</time></trkpt><trkpt lat="43.39808442426081" lon="10.710367992105343"><ele>564.0</ele><time>2026-04-19T09:28:48.001Z</time></trkpt><trkpt lat="43.39795551526016" lon="10.710281962857671"><ele>564.0</ele><time>2026-04-19T09:28:49.001Z</time></trkpt><trkpt lat="43.397800943821935" lon="10.710193152359855"><ele>564.0</ele><time>2026-04-19T09:28:50.001Z</time></trkpt><trkpt lat="43.39763700503087" lon="10.710101401398713"><ele>560.3333333333334</ele><time>2026-04-19T09:28:51.001Z</time></trkpt><trkpt lat="43.397470906749994" lon="10.710005079177296"><ele>556.6666666666667</ele><time>2026-04-19T09:28:52.001Z</time></trkpt><trkpt lat="43.39732273953787" lon="10.709917968498857"><ele>553.0</ele><time>2026-04-19T09:28:53.001Z</time></trkpt><trkpt lat="43.39719969795273" lon="10.709852608179698"><ele>552.4</ele><time>2026-04-19T09:28:54.001Z</time></trkpt><trkpt lat="43.397102143081504" lon="10.709848220426888"><ele>551.8</ele><time>2026-04-19T09:28:55.001Z</time></trkpt><trkpt lat="43.39702593808816" lon="10.709843110414669"><ele>551.2</ele><time>2026-04-19T09:28:56.001Z</time></trkpt><trkpt lat="43.39693237601968" lon="10.709841447698082"><ele>550.6</ele><time>2026-04-19T09:28:57.001Z</time></trkpt><trkpt lat="43.39683815382303" lon="10.709942338816393"><ele>550.0</ele><time>2026-04-19T09:28:58.001Z</time></trkpt><trkpt lat="43.39674440961279" lon="10.710051835336875"><ele>550.0</ele><time>2026-04-19T09:28:59.001Z</time></trkpt><trkpt lat="43.3966454325836" lon="10.71019957315769"><ele>550.0</ele><time>2026-04-19T09:29:00.001Z</time></trkpt><trkpt lat="43.39656582648543" lon="10.710361060153215"><ele>550.0</ele><time>2026-04-19T09:29:01.001Z</time></trkpt><trkpt lat="43.396505683713976" lon="10.71053333508961"><ele>550.0</ele><time>2026-04-19T09:29:02.001Z</time></trkpt><trkpt lat="43.39645791152435" lon="10.71073895344356"><ele>550.75</ele><time>2026-04-19T09:29:03.001Z</time></trkpt><trkpt lat="43.396412532412064" lon="10.710930153841868"><ele>551.5</ele><time>2026-04-19T09:29:04.001Z</time></trkpt><trkpt lat="43.39635375962036" lon="10.711084086376728"><ele>552.25</ele><time>2026-04-19T09:29:05.001Z</time></trkpt><trkpt lat="43.39626118320843" lon="10.711237394296207"><ele>553.0</ele><time>2026-04-19T09:29:06.001Z</time></trkpt><trkpt lat="43.39615612821839" lon="10.711419061524605"><ele>553.0</ele><time>2026-04-19T09:29:07.001Z</time></trkpt><trkpt lat="43.39603424471923" lon="10.711608049402264"><ele>553.0</ele><time>2026-04-19T09:29:08.001Z</time></trkpt><trkpt lat="43.395950067989986" lon="10.711812974747016"><ele>553.0</ele><time>2026-04-19T09:29:09.001Z</time></trkpt><trkpt lat="43.39586779344468" lon="10.711980699931596"><ele>553.4</ele><time>2026-04-19T09:29:10.001Z</time></trkpt><trkpt lat="43.395809912654926" lon="10.712121716980935"><ele>553.8</ele><time>2026-04-19T09:29:11.001Z</time></trkpt><trkpt lat="43.39575731057251" lon="10.712229543297152"><ele>554.2</ele><time>2026-04-19T09:29:12.001Z</time></trkpt><trkpt lat="43.395689490341944" lon="10.712312098072095"><ele>554.6</ele><time>2026-04-19T09:29:13.001Z</time></trkpt><trkpt lat="43.39558647229131" lon="10.712339264324175"><ele>555.0</ele><time>2026-04-19T09:29:14.001Z</time></trkpt><trkpt lat="43.39547246933927" lon="10.712416439013188"><ele>555.0</ele><time>2026-04-19T09:29:15.001Z</time></trkpt><trkpt lat="43.39533791511538" lon="10.712459685641647"><ele>555.0</ele><time>2026-04-19T09:29:16.001Z</time></trkpt><trkpt lat="43.395205109918095" lon="10.712538189340133"><ele>555.0</ele><time>2026-04-19T09:29:17.001Z</time></trkpt><trkpt lat="43.395088727780006" lon="10.71266325574142"><ele>555.0</ele><time>2026-04-19T09:29:18.001Z</time></trkpt><trkpt lat="43.3949959538427" lon="10.712775677608526"><ele>556.25</ele><time>2026-04-19T09:29:19.001Z</time></trkpt><trkpt lat="43.39490772168396" lon="10.712905913887566"><ele>557.5</ele><time>2026-04-19T09:29:20.001Z</time></trkpt><trkpt lat="43.394840951542115" lon="10.713044836395923"><ele>558.75</ele><time>2026-04-19T09:29:21.001Z</time></trkpt><trkpt lat="43.39478527950784" lon="10.713223092199733"><ele>560.0</ele><time>2026-04-19T09:29:22.001Z</time></trkpt><trkpt lat="43.394729673416926" lon="10.71343586085814"><ele>558.0</ele><time>2026-04-19T09:29:23.001Z</time></trkpt><trkpt lat="43.39467256920061" lon="10.713675534049125"><ele>556.0</ele><time>2026-04-19T09:29:24.001Z</time></trkpt><trkpt lat="43.39460602087292" lon="10.71391969457107"><ele>554.0</ele><time>2026-04-19T09:29:25.001Z</time></trkpt><trkpt lat="43.39454659136363" lon="10.714144917249296"><ele>553.0</ele><time>2026-04-19T09:29:26.001Z</time></trkpt><trkpt lat="43.39449433397687" lon="10.71435119265424"><ele>552.0</ele><time>2026-04-19T09:29:27.001Z</time></trkpt><trkpt lat="43.394440276402214" lon="10.714551219755455"><ele>551.0</ele><time>2026-04-19T09:29:28.001Z</time></trkpt><trkpt lat="43.39438471099497" lon="10.714759353399229"><ele>551.0</ele><time>2026-04-19T09:29:29.001Z</time></trkpt><trkpt lat="43.394335826907785" lon="10.714923125664004"><ele>551.0</ele><time>2026-04-19T09:29:30.001Z</time></trkpt><trkpt lat="43.394288560909224" lon="10.71505814407204"><ele>551.0</ele><time>2026-04-19T09:29:31.001Z</time></trkpt><trkpt lat="43.394224750889016" lon="10.71518066801657"><ele>551.0</ele><time>2026-04-19T09:29:32.001Z</time></trkpt><trkpt lat="43.39412806159406" lon="10.715302767438162"><ele>551.3333333333333</ele><time>2026-04-19T09:29:33.001Z</time></trkpt><trkpt lat="43.393996919295915" lon="10.71545177349922"><ele>551.6666666666666</ele><time>2026-04-19T09:29:34.001Z</time></trkpt><trkpt lat="43.39386021476192" lon="10.715598442845229"><ele>552.0</ele><time>2026-04-19T09:29:35.001Z</time></trkpt><trkpt lat="43.393737978721994" lon="10.715743401176155"><ele>553.25</ele><time>2026-04-19T09:29:36.001Z</time></trkpt><trkpt lat="43.393642484441635" lon="10.71586315657653"><ele>554.5</ele><time>2026-04-19T09:29:37.001Z</time></trkpt><trkpt lat="43.39356729045958" lon="10.715985179696544"><ele>555.75</ele><time>2026-04-19T09:29:38.001Z</time></trkpt><trkpt lat="43.39348678179868" lon="10.716130940184103"><ele>557.0</ele><time>2026-04-19T09:29:39.001Z</time></trkpt><trkpt lat="43.393459622599075" lon="10.716341677120887"><ele>557.3333333333333</ele><time>2026-04-19T09:29:40.001Z</time></trkpt><trkpt lat="43.393433091004546" lon="10.716559744344496"><ele>557.6666666666666</ele><time>2026-04-19T09:29:41.001Z</time></trkpt><trkpt lat="43.39341407876523" lon="10.716793971748865"><ele>558.0</ele><time>2026-04-19T09:29:42.001Z</time></trkpt><trkpt lat="43.39339014430357" lon="10.7170231846148"><ele>558.0</ele><time>2026-04-19T09:29:43.001Z</time></trkpt><trkpt lat="43.393360888710035" lon="10.71725254655211"><ele>558.0</ele><time>2026-04-19T09:29:44.001Z</time></trkpt><trkpt lat="43.39333310642487" lon="10.7174521812185"><ele>558.0</ele><time>2026-04-19T09:29:45.001Z</time></trkpt><trkpt lat="43.393292340753824" lon="10.717645083535729"><ele>556.3333333333334</ele><time>2026-04-19T09:29:46.001Z</time></trkpt><trkpt lat="43.39323332641298" lon="10.717855467790443"><ele>554.6666666666667</ele><time>2026-04-19T09:29:47.001Z</time></trkpt><trkpt lat="43.393161849566525" lon="10.718097091865122"><ele>553.0</ele><time>2026-04-19T09:29:48.001Z</time></trkpt><trkpt lat="43.39308661988134" lon="10.718325027754306"><ele>552.3333333333334</ele><time>2026-04-19T09:29:49.001Z</time></trkpt><trkpt lat="43.39299584624663" lon="10.7185581913605"><ele>551.6666666666666</ele><time>2026-04-19T09:29:50.001Z</time></trkpt><trkpt lat="43.39290985654724" lon="10.718769682696005"><ele>551.0</ele><time>2026-04-19T09:29:51.001Z</time></trkpt><trkpt lat="43.39283562487636" lon="10.71896888317263"><ele>551.0</ele><time>2026-04-19T09:29:52.001Z</time></trkpt><trkpt lat="43.392752851838246" lon="10.719135114802272"><ele>551.0</ele><time>2026-04-19T09:29:53.001Z</time></trkpt><trkpt lat="43.39266175331321" lon="10.719298517607877"><ele>551.0</ele><time>2026-04-19T09:29:54.001Z</time></trkpt><trkpt lat="43.39256378375688" lon="10.719477924559321"><ele>549.25</ele><time>2026-04-19T09:29:55.001Z</time></trkpt><trkpt lat="43.39246079702856" lon="10.719657033575446"><ele>547.5</ele><time>2026-04-19T09:29:56.001Z</time></trkpt><trkpt lat="43.39237817182064" lon="10.7198097979145"><ele>545.75</ele><time>2026-04-19T09:29:57.001Z</time></trkpt><trkpt lat="43.39230603545194" lon="10.719936793027992"><ele>544.0</ele><time>2026-04-19T09:29:58.001Z</time></trkpt><trkpt lat="43.39224009784561" lon="10.720059428432457"><ele>540.6666666666667</ele><time>2026-04-19T09:29:59.001Z</time></trkpt><trkpt lat="43.39217228044522" lon="10.720219123868711"><ele>537.3333333333334</ele><time>2026-04-19T09:30:00.001Z</time></trkpt><trkpt lat="43.392109448493976" lon="10.720422453314958"><ele>534.0</ele><time>2026-04-19T09:30:01.001Z</time></trkpt><trkpt lat="43.39205108062555" lon="10.72062955157571"><ele>532.75</ele><time>2026-04-19T09:30:02.001Z</time></trkpt><trkpt lat="43.39198902823402" lon="10.72082904332112"><ele>531.5</ele><time>2026-04-19T09:30:03.001Z</time></trkpt><trkpt lat="43.39194249226826" lon="10.720999306739094"><ele>530.25</ele><time>2026-04-19T09:30:04.001Z</time></trkpt><trkpt lat="43.39189732133613" lon="10.721138792692155"><ele>529.0</ele><time>2026-04-19T09:30:05.001Z</time></trkpt><trkpt lat="43.39185552612881" lon="10.721259230478635"><ele>528.75</ele><time>2026-04-19T09:30:06.001Z</time></trkpt><trkpt lat="43.39182107837796" lon="10.721377379206997"><ele>528.5</ele><time>2026-04-19T09:30:07.001Z</time></trkpt><trkpt lat="43.39181003049281" lon="10.721520229825625"><ele>528.25</ele><time>2026-04-19T09:30:08.001Z</time></trkpt><trkpt lat="43.3918233525369" lon="10.721686713830266"><ele>528.0</ele><time>2026-04-19T09:30:09Z</time></trkpt><trkpt lat="43.39185284713326" lon="10.721895876648158"><ele>526.6666666666666</ele><time>2026-04-19T09:30:10Z</time></trkpt><trkpt lat="43.39188847529006" lon="10.722125062519705"><ele>525.3333333333333</ele><time>2026-04-19T09:30:11Z</time></trkpt><trkpt lat="43.391923804315844" lon="10.722328385118498"><ele>524.0</ele><time>2026-04-19T09:30:12Z</time></trkpt><trkpt lat="43.39195400090719" lon="10.722503427692338"><ele>524.0</ele><time>2026-04-19T09:30:13Z</time></trkpt><trkpt lat="43.39198262250902" lon="10.72269882858823"><ele>524.0</ele><time>2026-04-19T09:30:14Z</time></trkpt><trkpt lat="43.392012621983255" lon="10.722863402463473"><ele>524.0</ele><time>2026-04-19T09:30:15Z</time></trkpt><trkpt lat="43.39204504518912" lon="10.72300615519977"><ele>524.0</ele><time>2026-04-19T09:30:16Z</time></trkpt><trkpt lat="43.39208957490916" lon="10.723162015452356"><ele>522.5</ele><time>2026-04-19T09:30:17Z</time></trkpt><trkpt lat="43.39215978043261" lon="10.723338323812756"><ele>521.0</ele><time>2026-04-19T09:30:18Z</time></trkpt><trkpt lat="43.39223887107873" lon="10.723526208525477"><ele>519.5</ele><time>2026-04-19T09:30:19Z</time></trkpt><trkpt lat="43.39231276932346" lon="10.723696545671144"><ele>518.0</ele><time>2026-04-19T09:30:20Z</time></trkpt><trkpt lat="43.39236980111512" lon="10.723883785633891"><ele>516.25</ele><time>2026-04-19T09:30:21Z</time></trkpt><trkpt lat="43.392441979692634" lon="10.724043683498527"><ele>514.5</ele><time>2026-04-19T09:30:22Z</time></trkpt><trkpt lat="43.39251811189696" lon="10.724201767869932"><ele>512.75</ele><time>2026-04-19T09:30:23Z</time></trkpt><trkpt lat="43.39259364726788" lon="10.724345329925862"><ele>511.0</ele><time>2026-04-19T09:30:24Z</time></trkpt><trkpt lat="43.39266544378434" lon="10.724477081201886"><ele>509.75</ele><time>2026-04-19T09:30:25Z</time></trkpt><trkpt lat="43.392754785227794" lon="10.724617003178555"><ele>508.5</ele><time>2026-04-19T09:30:26Z</time></trkpt><trkpt lat="43.39282934141917" lon="10.724799510011074"><ele>507.25</ele><time>2026-04-19T09:30:27Z</time></trkpt><trkpt lat="43.39289198791304" lon="10.724984797476065"><ele>506.0</ele><time>2026-04-19T09:30:28Z</time></trkpt><trkpt lat="43.392948167879226" lon="10.725187655111348"><ele>506.6</ele><time>2026-04-19T09:30:29Z</time></trkpt><trkpt lat="43.39298796588039" lon="10.725369670918324"><ele>507.20000000000005</ele><time>2026-04-19T09:30:30Z</time></trkpt><trkpt lat="43.39301820946717" lon="10.72551686812205"><ele>507.79999999999995</ele><time>2026-04-19T09:30:31Z</time></trkpt><trkpt lat="43.39302667863366" lon="10.72563095808283"><ele>508.4</ele><time>2026-04-19T09:30:32Z</time></trkpt><trkpt lat="43.39301161416695" lon="10.72575024952687"><ele>509.0</ele><time>2026-04-19T09:30:33Z</time></trkpt><trkpt lat="43.39297920379937" lon="10.725887717595642"><ele>509.0</ele><time>2026-04-19T09:30:34Z</time></trkpt><trkpt lat="43.3929066374876" lon="10.726004227358981"><ele>509.0</ele><time>2026-04-19T09:30:35Z</time></trkpt><trkpt lat="43.392836279075695" lon="10.726137297450364"><ele>509.0</ele><time>2026-04-19T09:30:36Z</time></trkpt><trkpt lat="43.39277356256684" lon="10.726298315613887"><ele>509.0</ele><time>2026-04-19T09:30:37Z</time></trkpt><trkpt lat="43.39269550992135" lon="10.726468024328582"><ele>511.3333333333333</ele><time>2026-04-19T09:30:38Z</time></trkpt><trkpt lat="43.39262079556092" lon="10.726669919035027"><ele>513.6666666666666</ele><time>2026-04-19T09:30:39Z</time></trkpt><trkpt lat="43.392553191847654" lon="10.726868402472151"><ele>516.0</ele><time>2026-04-19T09:30:40Z</time></trkpt><trkpt lat="43.392488278488386" lon="10.72703507312059"><ele>518.25</ele><time>2026-04-19T09:30:41Z</time></trkpt><trkpt lat="43.39243510564076" lon="10.72720350666398"><ele>520.5</ele><time>2026-04-19T09:30:42Z</time></trkpt><trkpt lat="43.39240211086212" lon="10.727400754545634"><ele>522.75</ele><time>2026-04-19T09:30:43Z</time></trkpt><trkpt lat="43.392374654587236" lon="10.727628397890713"><ele>525.0</ele><time>2026-04-19T09:30:44Z</time></trkpt><trkpt lat="43.3923377191087" lon="10.727833452476101"><ele>525.5</ele><time>2026-04-19T09:30:45Z</time></trkpt><trkpt lat="43.39229046465117" lon="10.727996894864486"><ele>526.0</ele><time>2026-04-19T09:30:46Z</time></trkpt><trkpt lat="43.39222819708855" lon="10.728150246289243"><ele>526.5</ele><time>2026-04-19T09:30:47Z</time></trkpt><trkpt lat="43.39214882060795" lon="10.728291080666953"><ele>527.0</ele><time>2026-04-19T09:30:48Z</time></trkpt><trkpt lat="43.392087586634844" lon="10.72841350962273"><ele>527.0</ele><time>2026-04-19T09:30:49Z</time></trkpt><trkpt lat="43.392056109375886" lon="10.728554420006395"><ele>527.0</ele><time>2026-04-19T09:30:50Z</time></trkpt><trkpt lat="43.39204993985761" lon="10.728740694641326"><ele>527.0</ele><time>2026-04-19T09:30:51Z</time></trkpt><trkpt lat="43.3920606983748" lon="10.728951781860193"><ele>527.0</ele><time>2026-04-19T09:30:52Z</time></trkpt><trkpt lat="43.39207702472117" lon="10.729169244390718"><ele>528.6666666666666</ele><time>2026-04-19T09:30:53Z</time></trkpt><trkpt lat="43.39207710723664" lon="10.72937578327746"><ele>530.3333333333334</ele><time>2026-04-19T09:30:54Z</time></trkpt><trkpt lat="43.39206439916123" lon="10.729608468134886"><ele>532.0</ele><time>2026-04-19T09:30:55Z</time></trkpt><trkpt lat="43.392038135799936" lon="10.729863986732944"><ele>532.6666666666667</ele><time>2026-04-19T09:30:56Z</time></trkpt><trkpt lat="43.39200081552628" lon="10.730137438365064"><ele>533.3333333333334</ele><time>2026-04-19T09:30:57Z</time></trkpt><trkpt lat="43.39196140747329" lon="10.730377377061618"><ele>534.0</ele><time>2026-04-19T09:30:58Z</time></trkpt><trkpt lat="43.39192820479985" lon="10.730550738361407"><ele>534.0</ele><time>2026-04-19T09:30:59Z</time></trkpt><trkpt lat="43.3918967544005" lon="10.730707881761196"><ele>534.0</ele><time>2026-04-19T09:31:00Z</time></trkpt><trkpt lat="43.39185307773062" lon="10.730904237221374"><ele>534.0</ele><time>2026-04-19T09:31:01Z</time></trkpt><trkpt lat="43.3918056299774" lon="10.731139382596059"><ele>534.0</ele><time>2026-04-19T09:31:02Z</time></trkpt><trkpt lat="43.39175968811742" lon="10.731377430513009"><ele>532.6666666666666</ele><time>2026-04-19T09:31:03Z</time></trkpt><trkpt lat="43.39171562537191" lon="10.731600435523767"><ele>531.3333333333333</ele><time>2026-04-19T09:31:04Z</time></trkpt><trkpt lat="43.39167191666963" lon="10.73181248525545"><ele>530.0</ele><time>2026-04-19T09:31:05Z</time></trkpt><trkpt lat="43.39161753912028" lon="10.732016129816325"><ele>529.5</ele><time>2026-04-19T09:31:06Z</time></trkpt><trkpt lat="43.39156732796126" lon="10.732203544029467"><ele>529.0</ele><time>2026-04-19T09:31:07Z</time></trkpt><trkpt lat="43.39151354857474" lon="10.732383634622419"><ele>528.5</ele><time>2026-04-19T09:31:08Z</time></trkpt><trkpt lat="43.391448538132806" lon="10.732562068429095"><ele>528.0</ele><time>2026-04-19T09:31:09Z</time></trkpt><trkpt lat="43.39139061611097" lon="10.732705888072676"><ele>524.4</ele><time>2026-04-19T09:31:10Z</time></trkpt><trkpt lat="43.39133140821704" lon="10.732818491380671"><ele>520.8</ele><time>2026-04-19T09:31:11Z</time></trkpt><trkpt lat="43.39127488866035" lon="10.732927269130341"><ele>517.2</ele><time>2026-04-19T09:31:12Z</time></trkpt><trkpt lat="43.39120284038211" lon="10.73304477599547"><ele>513.6</ele><time>2026-04-19T09:31:13Z</time></trkpt><trkpt lat="43.39111804517188" lon="10.733173859496638"><ele>510.0</ele><time>2026-04-19T09:31:14Z</time></trkpt><trkpt lat="43.39100343204255" lon="10.733326019931951"><ele>510.0</ele><time>2026-04-19T09:31:15Z</time></trkpt><trkpt lat="43.39087795281444" lon="10.733518494446724"><ele>510.0</ele><time>2026-04-19T09:31:16Z</time></trkpt><trkpt lat="43.39075913772373" lon="10.733711491643826"><ele>510.0</ele><time>2026-04-19T09:31:17Z</time></trkpt><trkpt lat="43.39063154497427" lon="10.73391369110875"><ele>510.0</ele><time>2026-04-19T09:31:18.001Z</time></trkpt><trkpt lat="43.39051143245512" lon="10.734084771054755"><ele>510.0</ele><time>2026-04-19T09:31:19.001Z</time></trkpt><trkpt lat="43.390403510345664" lon="10.734265825681119"><ele>510.0</ele><time>2026-04-19T09:31:20.001Z</time></trkpt><trkpt lat="43.390294197781046" lon="10.734439627877848"><ele>507.0</ele><time>2026-04-19T09:31:21.001Z</time></trkpt><trkpt lat="43.39020077755704" lon="10.734587512369103"><ele>504.0</ele><time>2026-04-19T09:31:22.001Z</time></trkpt><trkpt lat="43.39012208438305" lon="10.734708457650566"><ele>501.0</ele><time>2026-04-19T09:31:23.001Z</time></trkpt><trkpt lat="43.39004977444804" lon="10.734815314496515"><ele>498.0</ele><time>2026-04-19T09:31:24.001Z</time></trkpt><trkpt lat="43.389977435773204" lon="10.73491234892823"><ele>498.0</ele><time>2026-04-19T09:31:25.001Z</time></trkpt><trkpt lat="43.389895077685864" lon="10.735013585099216"><ele>498.0</ele><time>2026-04-19T09:31:26.001Z</time></trkpt><trkpt lat="43.38983241998074" lon="10.735103403628564"><ele>498.0</ele><time>2026-04-19T09:31:27.001Z</time></trkpt><trkpt lat="43.389776581224126" lon="10.735170626795597"><ele>498.0</ele><time>2026-04-19T09:31:28.001Z</time></trkpt><trkpt lat="43.38983790259032" lon="10.735454069771354"><ele>496.5</ele><time>2026-04-19T09:31:30.001Z</time></trkpt><trkpt lat="43.38985286144667" lon="10.735625930124895"><ele>495.0</ele><time>2026-04-19T09:31:31.001Z</time></trkpt><trkpt lat="43.389888229498105" lon="10.735709503111957"><ele>493.5</ele><time>2026-04-19T09:31:32.001Z</time></trkpt><trkpt lat="43.38996656607535" lon="10.735894952377054"><ele>492.0</ele><time>2026-04-19T09:31:59.001Z</time></trkpt><trkpt lat="43.390055595989395" lon="10.736021507693945"><ele>489.6</ele><time>2026-04-19T09:32:00.001Z</time></trkpt><trkpt lat="43.39017253545575" lon="10.736141847560054"><ele>487.20000000000005</ele><time>2026-04-19T09:32:01.001Z</time></trkpt><trkpt lat="43.39025655854991" lon="10.736238817353078"><ele>484.8</ele><time>2026-04-19T09:32:02.001Z</time></trkpt><trkpt lat="43.39033734931785" lon="10.736311669764872"><ele>482.4</ele><time>2026-04-19T09:32:03.001Z</time></trkpt><trkpt lat="43.39043181852199" lon="10.736333040036289"><ele>480.0</ele><time>2026-04-19T09:32:04.001Z</time></trkpt><trkpt lat="43.39054059305868" lon="10.736289686161069"><ele>480.0</ele><time>2026-04-19T09:32:05.001Z</time></trkpt><trkpt lat="43.390623955649545" lon="10.736156392108995"><ele>480.0</ele><time>2026-04-19T09:32:06.001Z</time></trkpt><trkpt lat="43.39071322079929" lon="10.736114424492492"><ele>480.0</ele><time>2026-04-19T09:32:07.001Z</time></trkpt><trkpt lat="43.39083089895625" lon="10.736212543969929"><ele>480.0</ele><time>2026-04-19T09:32:09.001Z</time></trkpt><trkpt lat="43.39095999037221" lon="10.736295935075157"><ele>480.0</ele><time>2026-04-19T09:32:10.001Z</time></trkpt><trkpt lat="43.39108920681327" lon="10.736311522012"><ele>480.0</ele><time>2026-04-19T09:32:11.001Z</time></trkpt><trkpt lat="43.39120597514078" lon="10.736311204632303"><ele>480.0</ele><time>2026-04-19T09:32:12.001Z</time></trkpt><trkpt lat="43.39129782147861" lon="10.736323339176408"><ele>480.0</ele><time>2026-04-19T09:32:13.001Z</time></trkpt><trkpt lat="43.391385934326294" lon="10.736336677539107"><ele>480.0</ele><time>2026-04-19T09:32:14.001Z</time></trkpt><trkpt lat="43.39147597491627" lon="10.736350307759512"><ele>481.0</ele><time>2026-04-19T09:32:15Z</time></trkpt><trkpt lat="43.3915744193641" lon="10.736373347593878"><ele>482.0</ele><time>2026-04-19T09:32:16Z</time></trkpt><trkpt lat="43.39165084205525" lon="10.736400484436375"><ele>483.0</ele><time>2026-04-19T09:32:17Z</time></trkpt><trkpt lat="43.39169888803708" lon="10.736489745209177"><ele>484.0</ele><time>2026-04-19T09:32:18Z</time></trkpt><trkpt lat="43.391731039059536" lon="10.736595434506894"><ele>485.0</ele><time>2026-04-19T09:32:19Z</time></trkpt><trkpt lat="43.391733137411734" lon="10.736735921705842"><ele>486.0</ele><time>2026-04-19T09:32:20Z</time></trkpt><trkpt lat="43.391744018402235" lon="10.73688026420147"><ele>484.20000000000005</ele><time>2026-04-19T09:32:21Z</time></trkpt><trkpt lat="43.39174536008488" lon="10.73700747205687"><ele>482.40000000000003</ele><time>2026-04-19T09:32:22Z</time></trkpt><trkpt lat="43.39173350959968" lon="10.737144696665256"><ele>480.6</ele><time>2026-04-19T09:32:23Z</time></trkpt><trkpt lat="43.39170091950707" lon="10.737296073348373"><ele>478.8</ele><time>2026-04-19T09:32:24Z</time></trkpt><trkpt lat="43.391662097672324" lon="10.737467451015235"><ele>477.0</ele><time>2026-04-19T09:32:25Z</time></trkpt><trkpt lat="43.39162861264235" lon="10.737648723377943"><ele>475.20000000000005</ele><time>2026-04-19T09:32:26Z</time></trkpt><trkpt lat="43.39159605384562" lon="10.737792180808897"><ele>473.40000000000003</ele><time>2026-04-19T09:32:27Z</time></trkpt><trkpt lat="43.3915833179677" lon="10.737936589082485"><ele>471.59999999999997</ele><time>2026-04-19T09:32:28Z</time></trkpt><trkpt lat="43.39159848581231" lon="10.738074890481013"><ele>469.79999999999995</ele><time>2026-04-19T09:32:29Z</time></trkpt><trkpt lat="43.39161820896464" lon="10.738204882485197"><ele>468.0</ele><time>2026-04-19T09:32:30Z</time></trkpt><trkpt lat="43.39163861454087" lon="10.738331434138987"><ele>468.0</ele><time>2026-04-19T09:32:31Z</time></trkpt><trkpt lat="43.39164747846343" lon="10.738458596952364"><ele>468.0</ele><time>2026-04-19T09:32:32Z</time></trkpt><trkpt lat="43.39163849829821" lon="10.738579103196155"><ele>468.0</ele><time>2026-04-19T09:32:33Z</time></trkpt><trkpt lat="43.391622951847545" lon="10.738676545683095"><ele>468.0</ele><time>2026-04-19T09:32:34Z</time></trkpt><trkpt lat="43.39161198674509" lon="10.73876640403095"><ele>468.0</ele><time>2026-04-19T09:32:35Z</time></trkpt><trkpt lat="43.39160196931833" lon="10.738857562369414"><ele>468.0</ele><time>2026-04-19T09:32:36Z</time></trkpt><trkpt lat="43.39159062693842" lon="10.7389510418177"><ele>467.42857142857144</ele><time>2026-04-19T09:32:37Z</time></trkpt><trkpt lat="43.3915774231482" lon="10.739040317977778"><ele>466.8571428571429</ele><time>2026-04-19T09:32:38Z</time></trkpt><trkpt lat="43.39157046805396" lon="10.739137529826113"><ele>466.28571428571433</ele><time>2026-04-19T09:32:39Z</time></trkpt><trkpt lat="43.3915577065985" lon="10.739234555087135"><ele>465.7142857142858</ele><time>2026-04-19T09:32:40Z</time></trkpt><trkpt lat="43.39152381354998" lon="10.739331808653292"><ele>465.14285714285717</ele><time>2026-04-19T09:32:41Z</time></trkpt><trkpt lat="43.391477659004835" lon="10.739419643802954"><ele>464.57142857142867</ele><time>2026-04-19T09:32:42Z</time></trkpt><trkpt lat="43.3914373156939" lon="10.739490178292836"><ele>464.00000000000006</ele><time>2026-04-19T09:32:43Z</time></trkpt><trkpt lat="43.391365284195196" lon="10.739547465490446"><ele>461.2</ele><time>2026-04-19T09:32:44Z</time></trkpt><trkpt lat="43.391272722654854" lon="10.739582117912825"><ele>458.4</ele><time>2026-04-19T09:32:45Z</time></trkpt><trkpt lat="43.391205613472" lon="10.739602455383707"><ele>455.6</ele><time>2026-04-19T09:32:46Z</time></trkpt><trkpt lat="43.391132729189295" lon="10.739663986003713"><ele>452.8</ele><time>2026-04-19T09:32:48Z</time></trkpt><trkpt lat="43.39118243667707" lon="10.739840016563292"><ele>450.0</ele><time>2026-04-19T09:32:50Z</time></trkpt><trkpt lat="43.39120745232301" lon="10.739953084319952"><ele>450.0</ele><time>2026-04-19T09:32:51Z</time></trkpt><trkpt lat="43.39124358945736" lon="10.740068887266037"><ele>450.0</ele><time>2026-04-19T09:32:52Z</time></trkpt><trkpt lat="43.39128240925239" lon="10.740193380987359"><ele>450.0</ele><time>2026-04-19T09:32:53Z</time></trkpt><trkpt lat="43.391321645919575" lon="10.740298973431724"><ele>450.0</ele><time>2026-04-19T09:32:54Z</time></trkpt><trkpt lat="43.391357958917716" lon="10.740414058883335"><ele>450.0</ele><time>2026-04-19T09:32:55Z</time></trkpt><trkpt lat="43.39139905277816" lon="10.740537899171157"><ele>451.0</ele><time>2026-04-19T09:32:56Z</time></trkpt><trkpt lat="43.39143320411839" lon="10.740648403473555"><ele>452.0</ele><time>2026-04-19T09:32:57Z</time></trkpt><trkpt lat="43.391453959106734" lon="10.740749148922726"><ele>453.0</ele><time>2026-04-19T09:32:58Z</time></trkpt><trkpt lat="43.391503288620086" lon="10.740848134236614"><ele>454.0</ele><time>2026-04-19T09:32:59Z</time></trkpt><trkpt lat="43.39157062933828" lon="10.740960766851599"><ele>455.0</ele><time>2026-04-19T09:33:00Z</time></trkpt><trkpt lat="43.39166007321064" lon="10.741071236617312"><ele>452.6</ele><time>2026-04-19T09:33:01Z</time></trkpt><trkpt lat="43.39174694340275" lon="10.741153411716807"><ele>450.2</ele><time>2026-04-19T09:33:02Z</time></trkpt><trkpt lat="43.39182015783945" lon="10.741221416655367"><ele>447.79999999999995</ele><time>2026-04-19T09:33:03Z</time></trkpt><trkpt lat="43.39187990909187" lon="10.741281168356096"><ele>445.4</ele><time>2026-04-19T09:33:04Z</time></trkpt><trkpt lat="43.39191883199453" lon="10.741445662459986"><ele>443.0</ele><time>2026-04-19T09:33:06Z</time></trkpt><trkpt lat="43.39189080423271" lon="10.741564171966282"><ele>443.0</ele><time>2026-04-19T09:33:07Z</time></trkpt><trkpt lat="43.39186672931637" lon="10.741688802382672"><ele>442.99999999999994</ele><time>2026-04-19T09:33:08Z</time></trkpt><trkpt lat="43.39184742123244" lon="10.741817967603199"><ele>442.99999999999994</ele><time>2026-04-19T09:33:09Z</time></trkpt><trkpt lat="43.391830650081026" lon="10.741951835410463"><ele>443.0</ele><time>2026-04-19T09:33:10Z</time></trkpt><trkpt lat="43.39181179841337" lon="10.74209577740115"><ele>443.0</ele><time>2026-04-19T09:33:11Z</time></trkpt><trkpt lat="43.391793169891066" lon="10.74224468007111"><ele>441.75</ele><time>2026-04-19T09:33:12Z</time></trkpt><trkpt lat="43.391770752271455" lon="10.742395947754142"><ele>440.5</ele><time>2026-04-19T09:33:13Z</time></trkpt><trkpt lat="43.39175047608855" lon="10.742561292181986"><ele>439.25</ele><time>2026-04-19T09:33:14Z</time></trkpt><trkpt lat="43.39173437901219" lon="10.742759553314848"><ele>438.0</ele><time>2026-04-19T09:33:15Z</time></trkpt><trkpt lat="43.39172910109965" lon="10.74294540806851"><ele>437.2</ele><time>2026-04-19T09:33:16Z</time></trkpt><trkpt lat="43.39172999383943" lon="10.743104601467875"><ele>436.4</ele><time>2026-04-19T09:33:17Z</time></trkpt><trkpt lat="43.391747413577406" lon="10.743241989940389"><ele>435.59999999999997</ele><time>2026-04-19T09:33:18Z</time></trkpt><trkpt lat="43.39175751341874" lon="10.743339089042406"><ele>434.79999999999995</ele><time>2026-04-19T09:33:19Z</time></trkpt><trkpt lat="43.391690989038175" lon="10.743442992826855"><ele>434.0</ele><time>2026-04-19T09:33:21.001Z</time></trkpt><trkpt lat="43.39162552473174" lon="10.743415157672125"><ele>434.0</ele><time>2026-04-19T09:33:22.001Z</time></trkpt><trkpt lat="43.39156302196169" lon="10.74329873680767"><ele>434.0</ele><time>2026-04-19T09:33:23.001Z</time></trkpt><trkpt lat="43.39157950992466" lon="10.74313284881635"><ele>434.0</ele><time>2026-04-19T09:33:24.001Z</time></trkpt><trkpt lat="43.39157133276932" lon="10.742981595828407"><ele>434.0</ele><time>2026-04-19T09:33:25.001Z</time></trkpt><trkpt lat="43.3915564453992" lon="10.742865044787791"><ele>434.0</ele><time>2026-04-19T09:33:26.001Z</time></trkpt><trkpt lat="43.39155660402449" lon="10.742773337697404"><ele>433.99999999999994</ele><time>2026-04-19T09:33:27.001Z</time></trkpt><trkpt lat="43.39153648999774" lon="10.742689810629093"><ele>434.0</ele><time>2026-04-19T09:33:28.001Z</time></trkpt><trkpt lat="43.391426903395725" lon="10.742637628123456"><ele>434.0</ele><time>2026-04-19T09:33:30.001Z</time></trkpt><trkpt lat="43.39137957176737" lon="10.742703998219733"><ele>434.0</ele><time>2026-04-19T09:33:31.001Z</time></trkpt><trkpt lat="43.39136632974948" lon="10.74280867197217"><ele>433.99999999999994</ele><time>2026-04-19T09:33:32.001Z</time></trkpt><trkpt lat="43.391373390028924" lon="10.742956078094856"><ele>434.0</ele><time>2026-04-19T09:33:33.001Z</time></trkpt><trkpt lat="43.391371494926766" lon="10.743102317607061"><ele>434.0</ele><time>2026-04-19T09:33:34.001Z</time></trkpt><trkpt lat="43.39136561730085" lon="10.743243226362981"><ele>434.0</ele><time>2026-04-19T09:33:35.001Z</time></trkpt><trkpt lat="43.39136215280665" lon="10.743382998898806"><ele>434.0</ele><time>2026-04-19T09:33:36.001Z</time></trkpt><trkpt lat="43.39138678067828" lon="10.74353414647104"><ele>434.0</ele><time>2026-04-19T09:33:37.001Z</time></trkpt><trkpt lat="43.39143421405173" lon="10.743689559772589"><ele>434.0</ele><time>2026-04-19T09:33:38.001Z</time></trkpt><trkpt lat="43.39148298561091" lon="10.743830770503099"><ele>431.66666666666663</ele><time>2026-04-19T09:33:39.001Z</time></trkpt><trkpt lat="43.391532476942686" lon="10.743963101220192"><ele>429.3333333333333</ele><time>2026-04-19T09:33:40.001Z</time></trkpt><trkpt lat="43.39158408069583" lon="10.744085719521134"><ele>427.0</ele><time>2026-04-19T09:33:41.001Z</time></trkpt><trkpt lat="43.391616959394504" lon="10.744164879937623"><ele>424.66666666666663</ele><time>2026-04-19T09:33:42.001Z</time></trkpt><trkpt lat="43.39164068818318" lon="10.74424946813321"><ele>422.3333333333333</ele><time>2026-04-19T09:33:45.001Z</time></trkpt><trkpt lat="43.391602920860635" lon="10.744380716310205"><ele>420.0</ele><time>2026-04-19T09:33:53.001Z</time></trkpt><trkpt lat="43.39168053590007" lon="10.744483489047466"><ele>417.3333333333333</ele><time>2026-04-19T09:33:54.001Z</time></trkpt><trkpt lat="43.391724212777774" lon="10.744562051433322"><ele>414.66666666666663</ele><time>2026-04-19T09:33:55.001Z</time></trkpt><trkpt lat="43.39177892378556" lon="10.744639381689334"><ele>412.0</ele><time>2026-04-19T09:33:56.001Z</time></trkpt><trkpt lat="43.3918219600284" lon="10.744725885817799"><ele>409.3333333333333</ele><time>2026-04-19T09:33:57.001Z</time></trkpt><trkpt lat="43.39186890577252" lon="10.744809659536003"><ele>406.66666666666663</ele><time>2026-04-19T09:33:58.001Z</time></trkpt><trkpt lat="43.391917506944594" lon="10.744891699393147"><ele>404.0</ele><time>2026-04-19T09:33:59.001Z</time></trkpt><trkpt lat="43.39196477643007" lon="10.74497344775972"><ele>404.0</ele><time>2026-04-19T09:34:00.001Z</time></trkpt><trkpt lat="43.39201496701827" lon="10.745052604742886"><ele>404.0</ele><time>2026-04-19T09:34:01.001Z</time></trkpt><trkpt lat="43.392058213416036" lon="10.745126881865145"><ele>404.0</ele><time>2026-04-19T09:34:02.001Z</time></trkpt><trkpt lat="43.39210057081225" lon="10.745199740002677"><ele>404.0</ele><time>2026-04-19T09:34:03.001Z</time></trkpt><trkpt lat="43.392146152676574" lon="10.745278469038348"><ele>404.0</ele><time>2026-04-19T09:34:04.001Z</time></trkpt><trkpt lat="43.392181675493276" lon="10.745364133940585"><ele>404.0</ele><time>2026-04-19T09:34:05.001Z</time></trkpt><trkpt lat="43.39218241842215" lon="10.745471973980868"><ele>404.0</ele><time>2026-04-19T09:34:06.001Z</time></trkpt><trkpt lat="43.39215302284796" lon="10.745591533953931"><ele>403.79999999999995</ele><time>2026-04-19T09:34:07.001Z</time></trkpt><trkpt lat="43.39210647466596" lon="10.745707727808925"><ele>403.59999999999997</ele><time>2026-04-19T09:34:08.001Z</time></trkpt><trkpt lat="43.392052899648995" lon="10.74581559941282"><ele>403.4</ele><time>2026-04-19T09:34:09.001Z</time></trkpt><trkpt lat="43.391991801343885" lon="10.745915714248952"><ele>403.2</ele><time>2026-04-19T09:34:10.001Z</time></trkpt><trkpt lat="43.39192915492293" lon="10.746007543804723"><ele>403.0</ele><time>2026-04-19T09:34:11.001Z</time></trkpt><trkpt lat="43.391871306074734" lon="10.746096617848556"><ele>403.00000000000006</ele><time>2026-04-19T09:34:12.001Z</time></trkpt><trkpt lat="43.39181420848002" lon="10.74617983033452"><ele>403.0</ele><time>2026-04-19T09:34:13.001Z</time></trkpt><trkpt lat="43.391761053356156" lon="10.746269320307038"><ele>403.0</ele><time>2026-04-19T09:34:14.001Z</time></trkpt><trkpt lat="43.39170605669805" lon="10.746360481514625"><ele>403.0</ele><time>2026-04-19T09:34:15.001Z</time></trkpt><trkpt lat="43.39165871757847" lon="10.746438970055946"><ele>403.00000000000006</ele><time>2026-04-19T09:34:16.001Z</time></trkpt><trkpt lat="43.391614441609185" lon="10.746515118127544"><ele>403.0</ele><time>2026-04-19T09:34:17.001Z</time></trkpt><trkpt lat="43.391568566383384" lon="10.746603397267593"><ele>403.00000000000006</ele><time>2026-04-19T09:34:18.001Z</time></trkpt><trkpt lat="43.3915400625561" lon="10.746701522087424"><ele>403.0</ele><time>2026-04-19T09:34:19.001Z</time></trkpt><trkpt lat="43.39152673375859" lon="10.746801189444934"><ele>403.0</ele><time>2026-04-19T09:34:20.001Z</time></trkpt><trkpt lat="43.3915163799824" lon="10.746888049352282"><ele>403.0</ele><time>2026-04-19T09:34:21Z</time></trkpt><trkpt lat="43.39150195975418" lon="10.747065868909761"><ele>403.00000000000006</ele><time>2026-04-19T09:34:23Z</time></trkpt><trkpt lat="43.391493615085665" lon="10.747158864708707"><ele>403.0</ele><time>2026-04-19T09:34:24Z</time></trkpt><trkpt lat="43.39148898079334" lon="10.747308337747999"><ele>402.83333333333337</ele><time>2026-04-19T09:34:26Z</time></trkpt><trkpt lat="43.39150631200992" lon="10.747459269656606"><ele>402.6666666666667</ele><time>2026-04-19T09:34:28Z</time></trkpt><trkpt lat="43.39155043480466" lon="10.747628313877241"><ele>402.5</ele><time>2026-04-19T09:34:30Z</time></trkpt><trkpt lat="43.39158105333326" lon="10.747717051843422"><ele>402.33333333333337</ele><time>2026-04-19T09:34:31Z</time></trkpt><trkpt lat="43.391615485174405" lon="10.747792216638057"><ele>402.1666666666667</ele><time>2026-04-19T09:34:32Z</time></trkpt><trkpt lat="43.39165564450454" lon="10.747869963853383"><ele>402.0</ele><time>2026-04-19T09:34:33Z</time></trkpt><trkpt lat="43.39171123546867" lon="10.747945183265234"><ele>400.40000000000003</ele><time>2026-04-19T09:34:34Z</time></trkpt><trkpt lat="43.391772152619524" lon="10.748007818479591"><ele>398.8</ele><time>2026-04-19T09:34:35Z</time></trkpt><trkpt lat="43.391867026555516" lon="10.748079752579473"><ele>397.2</ele><time>2026-04-19T09:34:37Z</time></trkpt><trkpt lat="43.39195602981929" lon="10.748149475947466"><ele>395.6</ele><time>2026-04-19T09:34:39Z</time></trkpt><trkpt lat="43.39201800909086" lon="10.748228845603046"><ele>394.0</ele><time>2026-04-19T09:34:41Z</time></trkpt><trkpt lat="43.39206958187476" lon="10.748322399649224"><ele>394.00000000000006</ele><time>2026-04-19T09:34:43Z</time></trkpt><trkpt lat="43.39212901666325" lon="10.748486976507074"><ele>394.0</ele><time>2026-04-19T09:34:45Z</time></trkpt><trkpt lat="43.3921535226773" lon="10.748571426067846"><ele>394.0</ele><time>2026-04-19T09:34:46Z</time></trkpt><trkpt lat="43.39217761516598" lon="10.748660252698416"><ele>394.0</ele><time>2026-04-19T09:34:47Z</time></trkpt><trkpt lat="43.39219926578441" lon="10.748751363320535"><ele>394.00000000000006</ele><time>2026-04-19T09:34:48Z</time></trkpt><trkpt lat="43.392229829589006" lon="10.748835136371437"><ele>394.0</ele><time>2026-04-19T09:34:49Z</time></trkpt><trkpt lat="43.39225441177601" lon="10.748922000768507"><ele>394.0</ele><time>2026-04-19T09:34:50Z</time></trkpt><trkpt lat="43.392281204277914" lon="10.749007234049953"><ele>394.0</ele><time>2026-04-19T09:34:51Z</time></trkpt><trkpt lat="43.392304787674966" lon="10.749101495781632"><ele>394.0</ele><time>2026-04-19T09:34:52Z</time></trkpt><trkpt lat="43.392334009431764" lon="10.749201923475361"><ele>394.0</ele><time>2026-04-19T09:34:53Z</time></trkpt><trkpt lat="43.39236677849838" lon="10.74929548717284"><ele>394.0</ele><time>2026-04-19T09:34:54Z</time></trkpt><trkpt lat="43.39239600909603" lon="10.749383217201613"><ele>394.0</ele><time>2026-04-19T09:34:55Z</time></trkpt><trkpt lat="43.3924245863192" lon="10.749467640186372"><ele>394.0</ele><time>2026-04-19T09:34:56Z</time></trkpt><trkpt lat="43.3924429706667" lon="10.749553618306235"><ele>394.0</ele><time>2026-04-19T09:34:57Z</time></trkpt><trkpt lat="43.39249404018423" lon="10.749673271031947"><ele>394.0</ele><time>2026-04-19T09:34:59Z</time></trkpt><trkpt lat="43.39253876535847" lon="10.749762317969836"><ele>394.0</ele><time>2026-04-19T09:35:01Z</time></trkpt><trkpt lat="43.392604062692115" lon="10.749851160709989"><ele>394.0</ele><time>2026-04-19T09:35:03Z</time></trkpt><trkpt lat="43.392672391031724" lon="10.749909261358516"><ele>394.0</ele><time>2026-04-19T09:35:05Z</time></trkpt><trkpt lat="43.39281777554742" lon="10.749885593130069"><ele>394.00000000000006</ele><time>2026-04-19T09:35:08Z</time></trkpt><trkpt lat="43.39290714239163" lon="10.74985304886717"><ele>394.0</ele><time>2026-04-19T09:35:10Z</time></trkpt><trkpt lat="43.3929769097715" lon="10.749822182874619"><ele>394.0</ele><time>2026-04-19T09:35:11Z</time></trkpt><trkpt lat="43.3930374405148" lon="10.749743783253734"><ele>394.0</ele><time>2026-04-19T09:35:12Z</time></trkpt><trkpt lat="43.393107848250956" lon="10.74966709823362"><ele>394.00000000000006</ele><time>2026-04-19T09:35:13Z</time></trkpt><trkpt lat="43.393164121040904" lon="10.749559401191489"><ele>394.0</ele><time>2026-04-19T09:35:14Z</time></trkpt><trkpt lat="43.393215336730506" lon="10.74944314335675"><ele>392.79999999999995</ele><time>2026-04-19T09:35:15Z</time></trkpt><trkpt lat="43.393266493502075" lon="10.749326473877767"><ele>391.59999999999997</ele><time>2026-04-19T09:35:16Z</time></trkpt><trkpt lat="43.39331835286891" lon="10.749211619594139"><ele>390.4</ele><time>2026-04-19T09:35:17Z</time></trkpt><trkpt lat="43.39337543837122" lon="10.749088550241131"><ele>389.2</ele><time>2026-04-19T09:35:18Z</time></trkpt><trkpt lat="43.39343705780339" lon="10.748968351367116"><ele>388.0</ele><time>2026-04-19T09:35:19Z</time></trkpt><trkpt lat="43.39350380694752" lon="10.748861376373629"><ele>388.0</ele><time>2026-04-19T09:35:20Z</time></trkpt><trkpt lat="43.39357956986803" lon="10.748765984881077"><ele>388.0</ele><time>2026-04-19T09:35:21Z</time></trkpt><trkpt lat="43.39365933664634" lon="10.74869661344585"><ele>388.0</ele><time>2026-04-19T09:35:22Z</time></trkpt><trkpt lat="43.393740819562986" lon="10.748636360854903"><ele>388.0</ele><time>2026-04-19T09:35:23Z</time></trkpt><trkpt lat="43.39383523151001" lon="10.748594059752653"><ele>388.0</ele><time>2026-04-19T09:35:24Z</time></trkpt><trkpt lat="43.39394859344292" lon="10.748620235901843"><ele>387.2</ele><time>2026-04-19T09:35:25Z</time></trkpt><trkpt lat="43.39406755807972" lon="10.74862398679455"><ele>386.4</ele><time>2026-04-19T09:35:26.001Z</time></trkpt><trkpt lat="43.39417874556003" lon="10.74862749247887"><ele>385.59999999999997</ele><time>2026-04-19T09:35:27.001Z</time></trkpt><trkpt lat="43.39428165414661" lon="10.748611141500895"><ele>384.79999999999995</ele><time>2026-04-19T09:35:28.001Z</time></trkpt><trkpt lat="43.39437236626301" lon="10.74856718958868"><ele>384.0</ele><time>2026-04-19T09:35:29.001Z</time></trkpt><trkpt lat="43.39445140857513" lon="10.748497647206413"><ele>384.0</ele><time>2026-04-19T09:35:30.001Z</time></trkpt><trkpt lat="43.394524426116305" lon="10.748427571397722"><ele>384.0</ele><time>2026-04-19T09:35:31.001Z</time></trkpt><trkpt lat="43.39460898410906" lon="10.748379857077593"><ele>384.0</ele><time>2026-04-19T09:35:32.001Z</time></trkpt><trkpt lat="43.39468870746772" lon="10.748357320249546"><ele>384.0</ele><time>2026-04-19T09:35:33.001Z</time></trkpt><trkpt lat="43.394774836971244" lon="10.748366388705422"><ele>384.0</ele><time>2026-04-19T09:35:34.001Z</time></trkpt><trkpt lat="43.39485542337423" lon="10.748452450962125"><ele>384.0</ele><time>2026-04-19T09:35:35.001Z</time></trkpt><trkpt lat="43.39495651345757" lon="10.748492268251947"><ele>384.0</ele><time>2026-04-19T09:35:36.001Z</time></trkpt><trkpt lat="43.395045646148446" lon="10.748552215095982"><ele>384.0</ele><time>2026-04-19T09:35:37.001Z</time></trkpt><trkpt lat="43.39512923512976" lon="10.748624762091884"><ele>384.0</ele><time>2026-04-19T09:35:38.001Z</time></trkpt><trkpt lat="43.39520795165268" lon="10.74872233927781"><ele>384.0</ele><time>2026-04-19T09:35:39.001Z</time></trkpt><trkpt lat="43.39528455752286" lon="10.74882895910409"><ele>381.0</ele><time>2026-04-19T09:35:40.001Z</time></trkpt><trkpt lat="43.39536736452931" lon="10.748940668175168"><ele>378.0</ele><time>2026-04-19T09:35:41.001Z</time></trkpt><trkpt lat="43.39546370885527" lon="10.749061702913952"><ele>375.0</ele><time>2026-04-19T09:35:42.001Z</time></trkpt><trkpt lat="43.39555055898417" lon="10.749172633582505"><ele>372.0</ele><time>2026-04-19T09:35:43.001Z</time></trkpt><trkpt lat="43.395637256303964" lon="10.749259720360383"><ele>372.0</ele><time>2026-04-19T09:35:44.001Z</time></trkpt><trkpt lat="43.39572553058416" lon="10.749319761279068"><ele>372.0</ele><time>2026-04-19T09:35:45.001Z</time></trkpt><trkpt lat="43.39582646989376" lon="10.749336775196909"><ele>372.0</ele><time>2026-04-19T09:35:46.001Z</time></trkpt><trkpt lat="43.3959419764759" lon="10.749311499576786"><ele>372.0</ele><time>2026-04-19T09:35:47.001Z</time></trkpt><trkpt lat="43.396074135229064" lon="10.749276987347187"><ele>372.0</ele><time>2026-04-19T09:35:48.001Z</time></trkpt><trkpt lat="43.39619712110121" lon="10.749230790303677"><ele>372.0</ele><time>2026-04-19T09:35:49.001Z</time></trkpt><trkpt lat="43.39631468507538" lon="10.749186629871321"><ele>372.0</ele><time>2026-04-19T09:35:50.001Z</time></trkpt><trkpt lat="43.39643905959428" lon="10.749139409019254"><ele>372.0</ele><time>2026-04-19T09:35:51.001Z</time></trkpt><trkpt lat="43.396560298497555" lon="10.749092342081497"><ele>369.5</ele><time>2026-04-19T09:35:52.001Z</time></trkpt><trkpt lat="43.39668761585419" lon="10.749043456130693"><ele>367.0</ele><time>2026-04-19T09:35:53.001Z</time></trkpt><trkpt lat="43.39682884527316" lon="10.748989405366764"><ele>364.5</ele><time>2026-04-19T09:35:54.001Z</time></trkpt><trkpt lat="43.39697745293305" lon="10.748934139118862"><ele>362.0</ele><time>2026-04-19T09:35:55.001Z</time></trkpt><trkpt lat="43.39712905724781" lon="10.748879864071693"><ele>359.75</ele><time>2026-04-19T09:35:56.001Z</time></trkpt><trkpt lat="43.39727334948462" lon="10.748832297637037"><ele>357.5</ele><time>2026-04-19T09:35:57.001Z</time></trkpt><trkpt lat="43.39740054655865" lon="10.74879036660163"><ele>355.25</ele><time>2026-04-19T09:35:58.001Z</time></trkpt><trkpt lat="43.39749338904856" lon="10.748759737546994"><ele>353.0</ele><time>2026-04-19T09:35:59.001Z</time></trkpt><trkpt lat="43.397570536537685" lon="10.748734052036689"><ele>353.0</ele><time>2026-04-19T09:36:00.001Z</time></trkpt><trkpt lat="43.39766369390235" lon="10.74872897315673"><ele>353.0</ele><time>2026-04-19T09:36:02.001Z</time></trkpt><trkpt lat="43.397694561920034" lon="10.748806048846864"><ele>353.0</ele><time>2026-04-19T09:36:03.001Z</time></trkpt><trkpt lat="43.397666602347755" lon="10.748901441065254"><ele>353.0</ele><time>2026-04-19T09:36:04.001Z</time></trkpt><trkpt lat="43.3975764626509" lon="10.748927915752846"><ele>353.0</ele><time>2026-04-19T09:36:05.001Z</time></trkpt><trkpt lat="43.397476487453595" lon="10.74897913979899"><ele>353.0</ele><time>2026-04-19T09:36:06.001Z</time></trkpt><trkpt lat="43.39736128521661" lon="10.749025098799901"><ele>353.0</ele><time>2026-04-19T09:36:07.001Z</time></trkpt><trkpt lat="43.39725228880267" lon="10.749094860560527"><ele>353.0</ele><time>2026-04-19T09:36:08.001Z</time></trkpt><trkpt lat="43.3971522153161" lon="10.749164072429258"><ele>353.0</ele><time>2026-04-19T09:36:09.001Z</time></trkpt><trkpt lat="43.39705156809749" lon="10.749222063035845"><ele>353.0</ele><time>2026-04-19T09:36:10.001Z</time></trkpt><trkpt lat="43.39697152027929" lon="10.74927804250432"><ele>353.0</ele><time>2026-04-19T09:36:11.001Z</time></trkpt><trkpt lat="43.39691690836838" lon="10.749335471664606"><ele>350.2</ele><time>2026-04-19T09:36:12.001Z</time></trkpt><trkpt lat="43.39691614350977" lon="10.749503575250477"><ele>347.4</ele><time>2026-04-19T09:36:14.001Z</time></trkpt><trkpt lat="43.396992679106326" lon="10.749549780573608"><ele>344.59999999999997</ele><time>2026-04-19T09:36:15.001Z</time></trkpt><trkpt lat="43.39709378987634" lon="10.74953589043042"><ele>341.79999999999995</ele><time>2026-04-19T09:36:16.001Z</time></trkpt><trkpt lat="43.397206322916595" lon="10.749477324422134"><ele>339.0</ele><time>2026-04-19T09:36:17.001Z</time></trkpt><trkpt lat="43.397337201087055" lon="10.749445346576618"><ele>336.0</ele><time>2026-04-19T09:36:18.001Z</time></trkpt><trkpt lat="43.3974650205304" lon="10.74939554573405"><ele>333.0</ele><time>2026-04-19T09:36:19.001Z</time></trkpt><trkpt lat="43.397583316085004" lon="10.749355150374926"><ele>330.0</ele><time>2026-04-19T09:36:20.001Z</time></trkpt><trkpt lat="43.39770875533051" lon="10.749314093419697"><ele>327.0</ele><time>2026-04-19T09:36:21.001Z</time></trkpt><trkpt lat="43.39783493695691" lon="10.749244559660108"><ele>329.6666666666667</ele><time>2026-04-19T09:36:22.001Z</time></trkpt><trkpt lat="43.39798242870616" lon="10.749205074792425"><ele>332.33333333333337</ele><time>2026-04-19T09:36:23.001Z</time></trkpt><trkpt lat="43.398132813316195" lon="10.749125457647523"><ele>335.0</ele><time>2026-04-19T09:36:24.001Z</time></trkpt><trkpt lat="43.398275234402234" lon="10.749004980848152"><ele>335.0</ele><time>2026-04-19T09:36:25.001Z</time></trkpt><trkpt lat="43.39843307529439" lon="10.74891792464203"><ele>335.0</ele><time>2026-04-19T09:36:26.001Z</time></trkpt><trkpt lat="43.39857253218327" lon="10.748815477741447"><ele>335.0</ele><time>2026-04-19T09:36:27Z</time></trkpt><trkpt lat="43.39870327649966" lon="10.748710343762989"><ele>335.0</ele><time>2026-04-19T09:36:28Z</time></trkpt><trkpt lat="43.39882690604056" lon="10.7486017735558"><ele>335.0</ele><time>2026-04-19T09:36:29Z</time></trkpt><trkpt lat="43.39893640318435" lon="10.748503579318973"><ele>335.0</ele><time>2026-04-19T09:36:30Z</time></trkpt><trkpt lat="43.39903994783836" lon="10.748388262137334"><ele>335.0</ele><time>2026-04-19T09:36:31Z</time></trkpt><trkpt lat="43.399115811132155" lon="10.748242456178003"><ele>334.4</ele><time>2026-04-19T09:36:32Z</time></trkpt><trkpt lat="43.399173483958" lon="10.7481040785424"><ele>333.8</ele><time>2026-04-19T09:36:33Z</time></trkpt><trkpt lat="43.399227690693344" lon="10.748020620020771"><ele>333.20000000000005</ele><time>2026-04-19T09:36:34Z</time></trkpt><trkpt lat="43.39929801893194" lon="10.747961745265417"><ele>332.6</ele><time>2026-04-19T09:36:35Z</time></trkpt><trkpt lat="43.399392520587" lon="10.74798824624012"><ele>332.0</ele><time>2026-04-19T09:36:36Z</time></trkpt><trkpt lat="43.39947355518165" lon="10.748080846982736"><ele>332.0</ele><time>2026-04-19T09:36:37Z</time></trkpt><trkpt lat="43.39952786981875" lon="10.748217428313936"><ele>332.0</ele><time>2026-04-19T09:36:38Z</time></trkpt><trkpt lat="43.399594344304106" lon="10.748379270902175"><ele>332.0</ele><time>2026-04-19T09:36:39Z</time></trkpt><trkpt lat="43.39967539629302" lon="10.748554500289082"><ele>332.0</ele><time>2026-04-19T09:36:40Z</time></trkpt><trkpt lat="43.39973673394352" lon="10.74873027653569"><ele>326.5</ele><time>2026-04-19T09:36:41Z</time></trkpt><trkpt lat="43.399797647947146" lon="10.74889408714767"><ele>321.0</ele><time>2026-04-19T09:36:42Z</time></trkpt><trkpt lat="43.39986949555617" lon="10.749027782806543"><ele>315.5</ele><time>2026-04-19T09:36:43Z</time></trkpt><trkpt lat="43.399959704162214" lon="10.749117176146484"><ele>310.0</ele><time>2026-04-19T09:36:44Z</time></trkpt><trkpt lat="43.40007762371194" lon="10.749163521096937"><ele>310.0</ele><time>2026-04-19T09:36:45Z</time></trkpt><trkpt lat="43.400218378148246" lon="10.749218541840674"><ele>310.0</ele><time>2026-04-19T09:36:46Z</time></trkpt><trkpt lat="43.40036192933106" lon="10.749203221370545"><ele>310.0</ele><time>2026-04-19T09:36:47Z</time></trkpt><trkpt lat="43.40049758138765" lon="10.749188502395462"><ele>310.0</ele><time>2026-04-19T09:36:48Z</time></trkpt><trkpt lat="43.40064163896541" lon="10.749134151060698"><ele>307.0</ele><time>2026-04-19T09:36:49Z</time></trkpt><trkpt lat="43.40078014451774" lon="10.749032012787893"><ele>304.0</ele><time>2026-04-19T09:36:50Z</time></trkpt><trkpt lat="43.4008979795487" lon="10.748894742053448"><ele>301.0</ele><time>2026-04-19T09:36:51Z</time></trkpt><trkpt lat="43.40099257260751" lon="10.748724135120229"><ele>303.66666666666663</ele><time>2026-04-19T09:36:52Z</time></trkpt><trkpt lat="43.40106759692413" lon="10.748537439187533"><ele>306.3333333333333</ele><time>2026-04-19T09:36:53Z</time></trkpt><trkpt lat="43.40115847164229" lon="10.748372550819084"><ele>309.0</ele><time>2026-04-19T09:36:54Z</time></trkpt><trkpt lat="43.40128510383642" lon="10.748255760847785"><ele>306.75</ele><time>2026-04-19T09:36:55Z</time></trkpt><trkpt lat="43.401412415156784" lon="10.748151919771184"><ele>304.5</ele><time>2026-04-19T09:36:56Z</time></trkpt><trkpt lat="43.40153747635361" lon="10.748071074954096"><ele>302.25</ele><time>2026-04-19T09:36:57Z</time></trkpt><trkpt lat="43.40166065084274" lon="10.748032424831726"><ele>300.0</ele><time>2026-04-19T09:36:58Z</time></trkpt><trkpt lat="43.40178025293886" lon="10.7480479852703"><ele>300.0</ele><time>2026-04-19T09:36:59Z</time></trkpt><trkpt lat="43.401921940523586" lon="10.74806306474969"><ele>300.0</ele><time>2026-04-19T09:37:00Z</time></trkpt><trkpt lat="43.4020574481881" lon="10.748136350306083"><ele>300.0</ele><time>2026-04-19T09:37:01Z</time></trkpt><trkpt lat="43.402188450636395" lon="10.748242572897848"><ele>300.0</ele><time>2026-04-19T09:37:02Z</time></trkpt><trkpt lat="43.402279137539956" lon="10.748406968155885"><ele>298.75</ele><time>2026-04-19T09:37:03Z</time></trkpt><trkpt lat="43.402362589224616" lon="10.748565132065982"><ele>297.5</ele><time>2026-04-19T09:37:04Z</time></trkpt><trkpt lat="43.40241235745843" lon="10.748737143490274"><ele>296.25</ele><time>2026-04-19T09:37:05Z</time></trkpt><trkpt lat="43.40246666163911" lon="10.748886520892663"><ele>295.0</ele><time>2026-04-19T09:37:06Z</time></trkpt><trkpt lat="43.40254129835036" lon="10.749016679346582"><ele>295.0</ele><time>2026-04-19T09:37:07Z</time></trkpt><trkpt lat="43.4026417442118" lon="10.749130001124934"><ele>295.0</ele><time>2026-04-19T09:37:08Z</time></trkpt><trkpt lat="43.40275041298189" lon="10.749242024417633"><ele>295.0</ele><time>2026-04-19T09:37:09Z</time></trkpt><trkpt lat="43.40288368163933" lon="10.749333775247525"><ele>295.0</ele><time>2026-04-19T09:37:10Z</time></trkpt><trkpt lat="43.40303158468083" lon="10.749379354278922"><ele>293.25</ele><time>2026-04-19T09:37:11Z</time></trkpt><trkpt lat="43.40317827975669" lon="10.749399336328207"><ele>291.5</ele><time>2026-04-19T09:37:12Z</time></trkpt><trkpt lat="43.40330609058134" lon="10.74944255201501"><ele>289.75</ele><time>2026-04-19T09:37:13Z</time></trkpt><trkpt lat="43.4034140691964" lon="10.749542429320705"><ele>288.0</ele><time>2026-04-19T09:37:14Z</time></trkpt><trkpt lat="43.403506949863335" lon="10.74969117529117"><ele>288.0</ele><time>2026-04-19T09:37:15Z</time></trkpt><trkpt lat="43.40359111098229" lon="10.749870259696394"><ele>288.0</ele><time>2026-04-19T09:37:16Z</time></trkpt><trkpt lat="43.403683163247706" lon="10.750043389970898"><ele>288.0</ele><time>2026-04-19T09:37:17Z</time></trkpt><trkpt lat="43.40379850146263" lon="10.750179366173592"><ele>287.5</ele><time>2026-04-19T09:37:18Z</time></trkpt><trkpt lat="43.40390997359339" lon="10.750305443285509"><ele>287.0</ele><time>2026-04-19T09:37:19Z</time></trkpt><trkpt lat="43.40399157530924" lon="10.75045313109544"><ele>286.5</ele><time>2026-04-19T09:37:20Z</time></trkpt><trkpt lat="43.40401445082606" lon="10.750634551703696"><ele>286.0</ele><time>2026-04-19T09:37:21Z</time></trkpt><trkpt lat="43.404037184197804" lon="10.750813463743505"><ele>286.0</ele><time>2026-04-19T09:37:22Z</time></trkpt><trkpt lat="43.40406262998649" lon="10.751003353635298"><ele>286.0</ele><time>2026-04-19T09:37:23Z</time></trkpt><trkpt lat="43.404066944362526" lon="10.751210549297"><ele>286.0</ele><time>2026-04-19T09:37:24Z</time></trkpt><trkpt lat="43.40407610255304" lon="10.751441360050267"><ele>283.3333333333333</ele><time>2026-04-19T09:37:25Z</time></trkpt><trkpt lat="43.404087210605816" lon="10.751661296249178"><ele>280.6666666666667</ele><time>2026-04-19T09:37:26Z</time></trkpt><trkpt lat="43.40409719741279" lon="10.751871173484409"><ele>278.0</ele><time>2026-04-19T09:37:27Z</time></trkpt><trkpt lat="43.40411116459328" lon="10.752078354101949"><ele>275.6666666666667</ele><time>2026-04-19T09:37:28Z</time></trkpt><trkpt lat="43.40412792668966" lon="10.752281857936312"><ele>273.3333333333333</ele><time>2026-04-19T09:37:29Z</time></trkpt><trkpt lat="43.40415142716803" lon="10.752485472251678"><ele>271.0</ele><time>2026-04-19T09:37:30Z</time></trkpt><trkpt lat="43.404202987466526" lon="10.752700266869693"><ele>268.66666666666663</ele><time>2026-04-19T09:37:31Z</time></trkpt><trkpt lat="43.40428247683007" lon="10.75290486599786"><ele>266.3333333333333</ele><time>2026-04-19T09:37:32Z</time></trkpt><trkpt lat="43.40436100291481" lon="10.753088895088336"><ele>264.0</ele><time>2026-04-19T09:37:33Z</time></trkpt><trkpt lat="43.40443272311457" lon="10.753251096082366"><ele>264.0</ele><time>2026-04-19T09:37:34Z</time></trkpt><trkpt lat="43.404519002166566" lon="10.753401907790836"><ele>264.0</ele><time>2026-04-19T09:37:35Z</time></trkpt><trkpt lat="43.40463108111028" lon="10.753541330763046"><ele>264.0</ele><time>2026-04-19T09:37:36Z</time></trkpt><trkpt lat="43.40473527474615" lon="10.753674543826193"><ele>264.0</ele><time>2026-04-19T09:37:37Z</time></trkpt><trkpt lat="43.404851100444816" lon="10.753778061593936"><ele>262.75</ele><time>2026-04-19T09:37:38Z</time></trkpt><trkpt lat="43.404980620454246" lon="10.75382623874953"><ele>261.5</ele><time>2026-04-19T09:37:39Z</time></trkpt><trkpt lat="43.405109393148045" lon="10.753865394673767"><ele>260.25</ele><time>2026-04-19T09:37:40Z</time></trkpt><trkpt lat="43.40524070930312" lon="10.753919380776372"><ele>259.0</ele><time>2026-04-19T09:37:41Z</time></trkpt><trkpt lat="43.405381122536525" lon="10.753941708869363"><ele>257.75</ele><time>2026-04-19T09:37:42Z</time></trkpt><trkpt lat="43.40549907162756" lon="10.754056410849193"><ele>256.5</ele><time>2026-04-19T09:37:43Z</time></trkpt><trkpt lat="43.40560994600894" lon="10.754161687171157"><ele>255.25</ele><time>2026-04-19T09:37:44Z</time></trkpt><trkpt lat="43.4056846204672" lon="10.754309497105849"><ele>254.0</ele><time>2026-04-19T09:37:45Z</time></trkpt><trkpt lat="43.40573589832831" lon="10.754481352881893"><ele>254.0</ele><time>2026-04-19T09:37:46Z</time></trkpt><trkpt lat="43.405773747949105" lon="10.754663290978042"><ele>254.0</ele><time>2026-04-19T09:37:47Z</time></trkpt><trkpt lat="43.40582712489594" lon="10.754830279140725"><ele>254.0</ele><time>2026-04-19T09:37:48Z</time></trkpt><trkpt lat="43.405887573876825" lon="10.754970375803547"><ele>254.0</ele><time>2026-04-19T09:37:49Z</time></trkpt><trkpt lat="43.40595177105876" lon="10.755094112531975"><ele>254.0</ele><time>2026-04-19T09:37:50Z</time></trkpt><trkpt lat="43.406044448615575" lon="10.755202024391934"><ele>253.99999999999997</ele><time>2026-04-19T09:37:51Z</time></trkpt><trkpt lat="43.40615506349082" lon="10.75529734413873"><ele>253.99999999999997</ele><time>2026-04-19T09:37:52Z</time></trkpt><trkpt lat="43.40625400944085" lon="10.755376524318732"><ele>254.0</ele><time>2026-04-19T09:37:53Z</time></trkpt><trkpt lat="43.40631286627779" lon="10.755434818239253"><ele>254.0</ele><time>2026-04-19T09:37:54Z</time></trkpt><trkpt lat="43.40636173799969" lon="10.755531250210792"><ele>252.39999999999998</ele><time>2026-04-19T09:37:56Z</time></trkpt><trkpt lat="43.4063854582209" lon="10.755614222402949"><ele>250.79999999999998</ele><time>2026-04-19T09:37:58Z</time></trkpt><trkpt lat="43.40654435189745" lon="10.755500048815206"><ele>249.20000000000002</ele><time>2026-04-19T09:37:59Z</time></trkpt><trkpt lat="43.40662766616555" lon="10.755489935016865"><ele>247.60000000000002</ele><time>2026-04-19T09:38:00Z</time></trkpt><trkpt lat="43.40670482376148" lon="10.755435543571037"><ele>246.0</ele><time>2026-04-19T09:38:01Z</time></trkpt><trkpt lat="43.40678561237227" lon="10.755388018062604"><ele>246.0</ele><time>2026-04-19T09:38:02Z</time></trkpt><trkpt lat="43.40687785984401" lon="10.75533213091885"><ele>246.00000000000003</ele><time>2026-04-19T09:38:03Z</time></trkpt><trkpt lat="43.40697116707261" lon="10.755275601698802"><ele>246.00000000000003</ele><time>2026-04-19T09:38:04.001Z</time></trkpt><trkpt lat="43.40707432284372" lon="10.755212019952195"><ele>246.0</ele><time>2026-04-19T09:38:05.001Z</time></trkpt><trkpt lat="43.4071877351777" lon="10.755142165628866"><ele>246.0</ele><time>2026-04-19T09:38:06.001Z</time></trkpt><trkpt lat="43.407305860083206" lon="10.755059171494842"><ele>249.5</ele><time>2026-04-19T09:38:07.001Z</time></trkpt><trkpt lat="43.40743386716758" lon="10.75500670664405"><ele>253.0</ele><time>2026-04-19T09:38:08.001Z</time></trkpt><trkpt lat="43.40756235148809" lon="10.75493096313491"><ele>256.5</ele><time>2026-04-19T09:38:09.001Z</time></trkpt><trkpt lat="43.4076945770408" lon="10.754825354795079"><ele>260.0</ele><time>2026-04-19T09:38:10.001Z</time></trkpt><trkpt lat="43.40783559832525" lon="10.754736151081046"><ele>260.0</ele><time>2026-04-19T09:38:11.001Z</time></trkpt><trkpt lat="43.40797429288127" lon="10.75465803904888"><ele>260.0</ele><time>2026-04-19T09:38:12.001Z</time></trkpt><trkpt lat="43.408110574346836" lon="10.754578576447848"><ele>260.0</ele><time>2026-04-19T09:38:13.001Z</time></trkpt><trkpt lat="43.408249768905854" lon="10.754491607878478"><ele>261.75</ele><time>2026-04-19T09:38:14.001Z</time></trkpt><trkpt lat="43.408387334412346" lon="10.754409472010117"><ele>263.5</ele><time>2026-04-19T09:38:15.001Z</time></trkpt><trkpt lat="43.40851144838511" lon="10.754332909241034"><ele>265.25</ele><time>2026-04-19T09:38:16.001Z</time></trkpt><trkpt lat="43.408647181465" lon="10.754280490575225"><ele>267.0</ele><time>2026-04-19T09:38:17.001Z</time></trkpt><trkpt lat="43.408787581657805" lon="10.754218333741415"><ele>264.25</ele><time>2026-04-19T09:38:18.001Z</time></trkpt><trkpt lat="43.40891693904729" lon="10.754140506904072"><ele>261.5</ele><time>2026-04-19T09:38:19.001Z</time></trkpt><trkpt lat="43.409036845337944" lon="10.754071998133298"><ele>258.75</ele><time>2026-04-19T09:38:20.001Z</time></trkpt><trkpt lat="43.409153758422214" lon="10.754065161726087"><ele>256.0</ele><time>2026-04-19T09:38:21.001Z</time></trkpt><trkpt lat="43.409265015039374" lon="10.75406616470228"><ele>256.0</ele><time>2026-04-19T09:38:22.001Z</time></trkpt><trkpt lat="43.40937943600161" lon="10.754068309788803"><ele>256.0</ele><time>2026-04-19T09:38:23.001Z</time></trkpt><trkpt lat="43.40951623876396" lon="10.75402614475059"><ele>256.0</ele><time>2026-04-19T09:38:24.001Z</time></trkpt><trkpt lat="43.40967365987347" lon="10.753989841494075"><ele>256.0</ele><time>2026-04-19T09:38:25.001Z</time></trkpt><trkpt lat="43.40981194925492" lon="10.753928527153416"><ele>254.83333333333331</ele><time>2026-04-19T09:38:26.001Z</time></trkpt><trkpt lat="43.409906581193695" lon="10.75386526322759"><ele>253.66666666666666</ele><time>2026-04-19T09:38:27.001Z</time></trkpt><trkpt lat="43.40998167108073" lon="10.753811032859483"><ele>252.5</ele><time>2026-04-19T09:38:28.001Z</time></trkpt><trkpt lat="43.41004823805831" lon="10.753739836873008"><ele>251.33333333333331</ele><time>2026-04-19T09:38:29.001Z</time></trkpt><trkpt lat="43.41011182127375" lon="10.753661555913792"><ele>250.16666666666666</ele><time>2026-04-19T09:38:30.001Z</time></trkpt><trkpt lat="43.41019084474007" lon="10.753604167315217"><ele>249.0</ele><time>2026-04-19T09:38:31.001Z</time></trkpt><trkpt lat="43.410264097558475" lon="10.753539798400174"><ele>250.0</ele><time>2026-04-19T09:38:32.001Z</time></trkpt><trkpt lat="43.410337667071865" lon="10.753475074058597"><ele>251.0</ele><time>2026-04-19T09:38:33Z</time></trkpt><trkpt lat="43.41044927005893" lon="10.753464434550049"><ele>252.0</ele><time>2026-04-19T09:38:34Z</time></trkpt><trkpt lat="43.41057348018357" lon="10.753457138737987"><ele>253.0</ele><time>2026-04-19T09:38:35Z</time></trkpt><trkpt lat="43.4107074054723" lon="10.75347091115145"><ele>250.33333333333331</ele><time>2026-04-19T09:38:36Z</time></trkpt><trkpt lat="43.41086419284492" lon="10.753493141682123"><ele>247.66666666666669</ele><time>2026-04-19T09:38:37Z</time></trkpt><trkpt lat="43.41102273914048" lon="10.753515360166327"><ele>245.0</ele><time>2026-04-19T09:38:38Z</time></trkpt><trkpt lat="43.41116137496191" lon="10.75350301070393"><ele>245.0</ele><time>2026-04-19T09:38:39Z</time></trkpt><trkpt lat="43.41128637828511" lon="10.75345191643119"><ele>245.0</ele><time>2026-04-19T09:38:40Z</time></trkpt><trkpt lat="43.41143191897096" lon="10.75338908072608"><ele>245.0</ele><time>2026-04-19T09:38:41Z</time></trkpt><trkpt lat="43.41158226717641" lon="10.753330184378127"><ele>245.0</ele><time>2026-04-19T09:38:42Z</time></trkpt><trkpt lat="43.41174418687623" lon="10.753291230732028"><ele>243.75</ele><time>2026-04-19T09:38:43Z</time></trkpt><trkpt lat="43.41188516920031" lon="10.753292049106996"><ele>242.5</ele><time>2026-04-19T09:38:44Z</time></trkpt><trkpt lat="43.41202455738994" lon="10.753311785903145"><ele>241.25</ele><time>2026-04-19T09:38:45Z</time></trkpt><trkpt lat="43.41219054132739" lon="10.753336398777401"><ele>240.0</ele><time>2026-04-19T09:38:46Z</time></trkpt><trkpt lat="43.41237235858339" lon="10.753358612934985"><ele>238.66666666666669</ele><time>2026-04-19T09:38:47Z</time></trkpt><trkpt lat="43.412559757031765" lon="10.75336953412976"><ele>237.33333333333334</ele><time>2026-04-19T09:38:48Z</time></trkpt><trkpt lat="43.41272415990206" lon="10.75338187967228"><ele>236.0</ele><time>2026-04-19T09:38:49Z</time></trkpt><trkpt lat="43.412885133208235" lon="10.753389073754791"><ele>235.66666666666669</ele><time>2026-04-19T09:38:50Z</time></trkpt><trkpt lat="43.413052644153495" lon="10.753395104174754"><ele>235.33333333333331</ele><time>2026-04-19T09:38:51Z</time></trkpt><trkpt lat="43.413235682073854" lon="10.753403620164416"><ele>235.0</ele><time>2026-04-19T09:38:52Z</time></trkpt><trkpt lat="43.4134015368817" lon="10.753413029535183"><ele>235.0</ele><time>2026-04-19T09:38:53Z</time></trkpt><trkpt lat="43.41352783091971" lon="10.753420194506283"><ele>235.0</ele><time>2026-04-19T09:38:54Z</time></trkpt><trkpt lat="43.41362443616018" lon="10.753424942495972"><ele>235.0</ele><time>2026-04-19T09:38:55Z</time></trkpt><trkpt lat="43.413698318338355" lon="10.75342590295305"><ele>235.0</ele><time>2026-04-19T09:38:56Z</time></trkpt><trkpt lat="43.41381968799042" lon="10.753424399274671"><ele>235.0</ele><time>2026-04-19T09:38:58Z</time></trkpt><trkpt lat="43.413891076112215" lon="10.7533972507312"><ele>234.66666666666666</ele><time>2026-04-19T09:38:59Z</time></trkpt><trkpt lat="43.41396212077493" lon="10.753352407395399"><ele>234.33333333333331</ele><time>2026-04-19T09:39:00Z</time></trkpt><trkpt lat="43.41402462419081" lon="10.7533051999747"><ele>234.0</ele><time>2026-04-19T09:39:01Z</time></trkpt><trkpt lat="43.41408554265504" lon="10.753267293518538"><ele>233.66666666666669</ele><time>2026-04-19T09:39:02Z</time></trkpt><trkpt lat="43.41414546722387" lon="10.75323000695647"><ele>233.33333333333334</ele><time>2026-04-19T09:39:03Z</time></trkpt><trkpt lat="43.41428746017452" lon="10.753218439605757"><ele>233.0</ele><time>2026-04-19T09:39:05Z</time></trkpt><trkpt lat="43.414373884239225" lon="10.753221223848469"><ele>233.0</ele><time>2026-04-19T09:39:06Z</time></trkpt><trkpt lat="43.41446592018436" lon="10.75322895038287"><ele>233.0</ele><time>2026-04-19T09:39:07Z</time></trkpt><trkpt lat="43.41456679592291" lon="10.753244537738542"><ele>233.0</ele><time>2026-04-19T09:39:08Z</time></trkpt><trkpt lat="43.41467106853773" lon="10.75326771884259"><ele>233.0</ele><time>2026-04-19T09:39:09Z</time></trkpt><trkpt lat="43.41477902980881" lon="10.753289668954208"><ele>233.0</ele><time>2026-04-19T09:39:10Z</time></trkpt><trkpt lat="43.41489189616749" lon="10.75329595114839"><ele>231.4</ele><time>2026-04-19T09:39:11Z</time></trkpt><trkpt lat="43.41499953241744" lon="10.753294853986825"><ele>229.8</ele><time>2026-04-19T09:39:12Z</time></trkpt><trkpt lat="43.415113523686536" lon="10.75329310153918"><ele>228.2</ele><time>2026-04-19T09:39:13Z</time></trkpt><trkpt lat="43.41522286889732" lon="10.753290893230616"><ele>226.6</ele><time>2026-04-19T09:39:14Z</time></trkpt><trkpt lat="43.41532368576682" lon="10.753297635359818"><ele>225.0</ele><time>2026-04-19T09:39:15Z</time></trkpt><trkpt lat="43.415424740250835" lon="10.753317917767546"><ele>223.6</ele><time>2026-04-19T09:39:16Z</time></trkpt><trkpt lat="43.41551836383246" lon="10.753362103413224"><ele>222.2</ele><time>2026-04-19T09:39:17Z</time></trkpt><trkpt lat="43.41559169119483" lon="10.753431334081936"><ele>220.8</ele><time>2026-04-19T09:39:18Z</time></trkpt><trkpt lat="43.415675088142365" lon="10.753527402716548"><ele>219.4</ele><time>2026-04-19T09:39:19Z</time></trkpt><trkpt lat="43.41575790443391" lon="10.75364443822907"><ele>218.0</ele><time>2026-04-19T09:39:20Z</time></trkpt><trkpt lat="43.41585744322802" lon="10.753779591990991"><ele>217.0</ele><time>2026-04-19T09:39:21Z</time></trkpt><trkpt lat="43.41596165390705" lon="10.753902242444447"><ele>216.0</ele><time>2026-04-19T09:39:22Z</time></trkpt><trkpt lat="43.416078365925586" lon="10.753987326488861"><ele>215.0</ele><time>2026-04-19T09:39:23Z</time></trkpt><trkpt lat="43.41619151686943" lon="10.754092665982652"><ele>214.0</ele><time>2026-04-19T09:39:24Z</time></trkpt><trkpt lat="43.41629999027387" lon="10.754207720293751"><ele>213.0</ele><time>2026-04-19T09:39:25Z</time></trkpt><trkpt lat="43.416412123224745" lon="10.7543047557043"><ele>212.0</ele><time>2026-04-19T09:39:26Z</time></trkpt><trkpt lat="43.4165131249406" lon="10.754413110482535"><ele>211.0</ele><time>2026-04-19T09:39:27Z</time></trkpt><trkpt lat="43.41660622392722" lon="10.75449585154102"><ele>210.0</ele><time>2026-04-19T09:39:28Z</time></trkpt><trkpt lat="43.41668917173047" lon="10.754582371573603"><ele>208.66666666666666</ele><time>2026-04-19T09:39:29Z</time></trkpt><trkpt lat="43.416768517053164" lon="10.754667076275508"><ele>207.33333333333331</ele><time>2026-04-19T09:39:30Z</time></trkpt><trkpt lat="43.416843204016565" lon="10.754754976856125"><ele>206.0</ele><time>2026-04-19T09:39:31Z</time></trkpt><trkpt lat="43.41689931676424" lon="10.754854255849196"><ele>204.66666666666666</ele><time>2026-04-19T09:39:32Z</time></trkpt><trkpt lat="43.41695632941108" lon="10.754929125487925"><ele>203.33333333333331</ele><time>2026-04-19T09:39:33Z</time></trkpt><trkpt lat="43.41702158614589" lon="10.754987823825724"><ele>202.0</ele><time>2026-04-19T09:39:34Z</time></trkpt><trkpt lat="43.41705209971986" lon="10.755068579714091"><ele>199.6</ele><time>2026-04-19T09:39:35Z</time></trkpt><trkpt lat="43.41710571630532" lon="10.75520839823325"><ele>197.2</ele><time>2026-04-19T09:39:37Z</time></trkpt><trkpt lat="43.41705375267259" lon="10.755357851760438"><ele>194.8</ele><time>2026-04-19T09:39:39Z</time></trkpt><trkpt lat="43.41699700977674" lon="10.755443591630238"><ele>192.4</ele><time>2026-04-19T09:39:40Z</time></trkpt><trkpt lat="43.416929763709355" lon="10.755530919205215"><ele>190.0</ele><time>2026-04-19T09:39:41Z</time></trkpt><trkpt lat="43.41683819139844" lon="10.755644512175394"><ele>190.0</ele><time>2026-04-19T09:39:42Z</time></trkpt><trkpt lat="43.41676906913961" lon="10.755743085850378"><ele>190.0</ele><time>2026-04-19T09:39:43Z</time></trkpt><trkpt lat="43.41671669751962" lon="10.7558173215591"><ele>190.0</ele><time>2026-04-19T09:39:44Z</time></trkpt><trkpt lat="43.41665937106169" lon="10.7559235443541"><ele>190.0</ele><time>2026-04-19T09:39:46Z</time></trkpt><trkpt lat="43.416644125074214" lon="10.756034169464668"><ele>190.0</ele><time>2026-04-19T09:39:48Z</time></trkpt><trkpt lat="43.41670388012397" lon="10.756101164887362"><ele>190.0</ele><time>2026-04-19T09:39:49Z</time></trkpt><trkpt lat="43.416768150924966" lon="10.756178300865914"><ele>188.4</ele><time>2026-04-19T09:39:50Z</time></trkpt><trkpt lat="43.41684337639784" lon="10.756286684823202"><ele>186.8</ele><time>2026-04-19T09:39:51Z</time></trkpt><trkpt lat="43.4169231841348" lon="10.756372445024159"><ele>185.2</ele><time>2026-04-19T09:39:52Z</time></trkpt><trkpt lat="43.41698423537553" lon="10.756438049859952"><ele>183.6</ele><time>2026-04-19T09:39:53Z</time></trkpt><trkpt lat="43.417076149374005" lon="10.756546648271755"><ele>182.0</ele><time>2026-04-19T09:39:55Z</time></trkpt><trkpt lat="43.41712275152426" lon="10.756613507599294"><ele>181.83333333333331</ele><time>2026-04-19T09:39:56Z</time></trkpt><trkpt lat="43.41716499074403" lon="10.75668690466658"><ele>181.66666666666666</ele><time>2026-04-19T09:39:57Z</time></trkpt><trkpt lat="43.41720338620764" lon="10.756766339739812"><ele>181.5</ele><time>2026-04-19T09:39:58Z</time></trkpt><trkpt lat="43.41721405630482" lon="10.756869120764465"><ele>181.33333333333334</ele><time>2026-04-19T09:39:59Z</time></trkpt><trkpt lat="43.41722404159369" lon="10.756986932966562"><ele>181.16666666666669</ele><time>2026-04-19T09:40:00Z</time></trkpt><trkpt lat="43.4172316210297" lon="10.757114197676215"><ele>181.0</ele><time>2026-04-19T09:40:01Z</time></trkpt><trkpt lat="43.41723201041102" lon="10.757225487939676"><ele>180.5</ele><time>2026-04-19T09:40:02Z</time></trkpt><trkpt lat="43.41723155867802" lon="10.75734537858004"><ele>180.0</ele><time>2026-04-19T09:40:03Z</time></trkpt><trkpt lat="43.41723750636283" lon="10.757473576230877"><ele>179.5</ele><time>2026-04-19T09:40:04Z</time></trkpt><trkpt lat="43.41724282277552" lon="10.75758495293968"><ele>179.0</ele><time>2026-04-19T09:40:05Z</time></trkpt><trkpt lat="43.4172451176708" lon="10.75771029843585"><ele>178.5</ele><time>2026-04-19T09:40:06Z</time></trkpt><trkpt lat="43.417257475826034" lon="10.75784256461106"><ele>178.0</ele><time>2026-04-19T09:40:07Z</time></trkpt><trkpt lat="43.41726710144191" lon="10.757950153655004"><ele>178.0</ele><time>2026-04-19T09:40:08Z</time></trkpt><trkpt lat="43.417267600994016" lon="10.758048509053406"><ele>178.0</ele><time>2026-04-19T09:40:09Z</time></trkpt><trkpt lat="43.417256745190855" lon="10.758162582342505"><ele>178.0</ele><time>2026-04-19T09:40:10Z</time></trkpt><trkpt lat="43.41722111603955" lon="10.75827102584241"><ele>178.0</ele><time>2026-04-19T09:40:11Z</time></trkpt><trkpt lat="43.41715810505003" lon="10.758377399808367"><ele>178.0</ele><time>2026-04-19T09:40:12Z</time></trkpt><trkpt lat="43.4170841379221" lon="10.758482442996073"><ele>178.0</ele><time>2026-04-19T09:40:13Z</time></trkpt><trkpt lat="43.4170105092262" lon="10.758600879659555"><ele>177.25</ele><time>2026-04-19T09:40:14Z</time></trkpt><trkpt lat="43.41695325270669" lon="10.7587536898192"><ele>176.5</ele><time>2026-04-19T09:40:15Z</time></trkpt><trkpt lat="43.41690748305298" lon="10.75891002732948"><ele>175.75</ele><time>2026-04-19T09:40:16Z</time></trkpt><trkpt lat="43.41688008097508" lon="10.759055491420428"><ele>175.0</ele><time>2026-04-19T09:40:17Z</time></trkpt><trkpt lat="43.41686520946079" lon="10.759207298676492"><ele>174.25</ele><time>2026-04-19T09:40:18Z</time></trkpt><trkpt lat="43.41685641095527" lon="10.759375254695012"><ele>173.5</ele><time>2026-04-19T09:40:19Z</time></trkpt><trkpt lat="43.41684556352255" lon="10.759584125435728"><ele>172.75</ele><time>2026-04-19T09:40:20Z</time></trkpt><trkpt lat="43.41682026719013" lon="10.75980667597943"><ele>172.0</ele><time>2026-04-19T09:40:21Z</time></trkpt><trkpt lat="43.41679116929843" lon="10.760019237213191"><ele>171.25</ele><time>2026-04-19T09:40:22Z</time></trkpt><trkpt lat="43.416765048503855" lon="10.76020868377278"><ele>170.5</ele><time>2026-04-19T09:40:23Z</time></trkpt><trkpt lat="43.41673898946758" lon="10.760388595620896"><ele>169.75</ele><time>2026-04-19T09:40:24Z</time></trkpt><trkpt lat="43.4167095189994" lon="10.760571129610243"><ele>169.0</ele><time>2026-04-19T09:40:25Z</time></trkpt><trkpt lat="43.41666198810015" lon="10.760771701883598"><ele>169.0</ele><time>2026-04-19T09:40:26Z</time></trkpt><trkpt lat="43.41659310139116" lon="10.760981607349663"><ele>169.0</ele><time>2026-04-19T09:40:27Z</time></trkpt><trkpt lat="43.41651571896242" lon="10.761189034992048"><ele>169.0</ele><time>2026-04-19T09:40:28Z</time></trkpt><trkpt lat="43.41643078268917" lon="10.761425706825616"><ele>169.33333333333334</ele><time>2026-04-19T09:40:29.001Z</time></trkpt><trkpt lat="43.416349301597336" lon="10.761684919275844"><ele>169.66666666666666</ele><time>2026-04-19T09:40:30.001Z</time></trkpt><trkpt lat="43.41627612377609" lon="10.761949496053429"><ele>170.0</ele><time>2026-04-19T09:40:31.001Z</time></trkpt><trkpt lat="43.41621096388892" lon="10.762203051529697"><ele>170.0</ele><time>2026-04-19T09:40:32.001Z</time></trkpt><trkpt lat="43.41615123967817" lon="10.762460679927706"><ele>170.0</ele><time>2026-04-19T09:40:33.001Z</time></trkpt><trkpt lat="43.416093978419404" lon="10.762708903470905"><ele>170.0</ele><time>2026-04-19T09:40:34.001Z</time></trkpt><trkpt lat="43.41604092572193" lon="10.762929936264225"><ele>170.66666666666666</ele><time>2026-04-19T09:40:35.001Z</time></trkpt><trkpt lat="43.4159898375821" lon="10.763147917166531"><ele>171.33333333333334</ele><time>2026-04-19T09:40:36.001Z</time></trkpt><trkpt lat="43.41594189515763" lon="10.763344103852832"><ele>172.0</ele><time>2026-04-19T09:40:37.001Z</time></trkpt><trkpt lat="43.415898846359184" lon="10.763553848843008"><ele>172.0</ele><time>2026-04-19T09:40:38.001Z</time></trkpt><trkpt lat="43.41584440757487" lon="10.763773590762307"><ele>172.0</ele><time>2026-04-19T09:40:39Z</time></trkpt><trkpt lat="43.415784138489286" lon="10.764003702716648"><ele>172.0</ele><time>2026-04-19T09:40:40Z</time></trkpt><trkpt lat="43.41572282556328" lon="10.764220172609518"><ele>171.75</ele><time>2026-04-19T09:40:41Z</time></trkpt><trkpt lat="43.4156623848381" lon="10.764409996108592"><ele>171.5</ele><time>2026-04-19T09:40:42Z</time></trkpt><trkpt lat="43.41559797911372" lon="10.764576944694735"><ele>171.25</ele><time>2026-04-19T09:40:43Z</time></trkpt><trkpt lat="43.41553101804616" lon="10.764732362329712"><ele>171.0</ele><time>2026-04-19T09:40:44Z</time></trkpt><trkpt lat="43.41546870636462" lon="10.764882481750615"><ele>168.5</ele><time>2026-04-19T09:40:45Z</time></trkpt><trkpt lat="43.41540875056029" lon="10.765021804110859"><ele>166.0</ele><time>2026-04-19T09:40:46Z</time></trkpt><trkpt lat="43.41535441770022" lon="10.76515506562321"><ele>163.5</ele><time>2026-04-19T09:40:47Z</time></trkpt><trkpt lat="43.41530499701982" lon="10.765285841989376"><ele>161.0</ele><time>2026-04-19T09:40:48Z</time></trkpt><trkpt lat="43.41525755306453" lon="10.76544637222295"><ele>160.66666666666666</ele><time>2026-04-19T09:40:49Z</time></trkpt><trkpt lat="43.41519275551877" lon="10.765661417633869"><ele>160.33333333333334</ele><time>2026-04-19T09:40:50Z</time></trkpt><trkpt lat="43.41513696206959" lon="10.76589740306193"><ele>160.0</ele><time>2026-04-19T09:40:51Z</time></trkpt><trkpt lat="43.41508487120414" lon="10.7661226558035"><ele>159.5</ele><time>2026-04-19T09:40:52Z</time></trkpt><trkpt lat="43.41502461475228" lon="10.766340650262622"><ele>159.0</ele><time>2026-04-19T09:40:53Z</time></trkpt><trkpt lat="43.41497053795793" lon="10.766531511522134"><ele>158.5</ele><time>2026-04-19T09:40:54Z</time></trkpt><trkpt lat="43.41492305874578" lon="10.766696396465814"><ele>158.0</ele><time>2026-04-19T09:40:55Z</time></trkpt><trkpt lat="43.41487874923594" lon="10.766840225888096"><ele>156.8</ele><time>2026-04-19T09:40:56Z</time></trkpt><trkpt lat="43.41483517745586" lon="10.766987720352892"><ele>155.60000000000002</ele><time>2026-04-19T09:40:57Z</time></trkpt><trkpt lat="43.41479768207333" lon="10.767138215196088"><ele>154.39999999999998</ele><time>2026-04-19T09:40:58Z</time></trkpt><trkpt lat="43.41476555924732" lon="10.767285122229387"><ele>153.2</ele><time>2026-04-19T09:40:59Z</time></trkpt><trkpt lat="43.41474703923624" lon="10.767423932195333"><ele>152.0</ele><time>2026-04-19T09:41:00Z</time></trkpt><trkpt lat="43.41474176124467" lon="10.767558848183619"><ele>152.0</ele><time>2026-04-19T09:41:01Z</time></trkpt><trkpt lat="43.41475461814099" lon="10.767691824407795"><ele>152.0</ele><time>2026-04-19T09:41:02Z</time></trkpt><trkpt lat="43.41478333568569" lon="10.767832205501147"><ele>152.0</ele><time>2026-04-19T09:41:03Z</time></trkpt><trkpt lat="43.414834158495154" lon="10.767968105861222"><ele>152.0</ele><time>2026-04-19T09:41:04Z</time></trkpt><trkpt lat="43.41491610547336" lon="10.768144049595957"><ele>150.0</ele><time>2026-04-19T09:41:05Z</time></trkpt><trkpt lat="43.41499311820834" lon="10.768321093504632"><ele>148.0</ele><time>2026-04-19T09:41:06Z</time></trkpt><trkpt lat="43.415076419524134" lon="10.768498676595362"><ele>146.0</ele><time>2026-04-19T09:41:07Z</time></trkpt><trkpt lat="43.41514032449635" lon="10.768644427269797"><ele>144.0</ele><time>2026-04-19T09:41:08Z</time></trkpt><trkpt lat="43.41519928532285" lon="10.768778329421378"><ele>143.33333333333334</ele><time>2026-04-19T09:41:09Z</time></trkpt><trkpt lat="43.41528077232359" lon="10.768920359514716"><ele>142.66666666666669</ele><time>2026-04-19T09:41:10Z</time></trkpt><trkpt lat="43.41538558398262" lon="10.769081936922465"><ele>142.0</ele><time>2026-04-19T09:41:11Z</time></trkpt><trkpt lat="43.415495333624904" lon="10.769254694906182"><ele>140.0</ele><time>2026-04-19T09:41:12Z</time></trkpt><trkpt lat="43.41558581954424" lon="10.769458405476845"><ele>138.0</ele><time>2026-04-19T09:41:13Z</time></trkpt><trkpt lat="43.41566821615528" lon="10.769623454703298"><ele>136.0</ele><time>2026-04-19T09:41:14Z</time></trkpt><trkpt lat="43.41573457425356" lon="10.769762245907563"><ele>134.0</ele><time>2026-04-19T09:41:15Z</time></trkpt><trkpt lat="43.415800379440405" lon="10.769879528372071"><ele>134.0</ele><time>2026-04-19T09:41:16Z</time></trkpt><trkpt lat="43.41588670091578" lon="10.769967075425635"><ele>134.0</ele><time>2026-04-19T09:41:17Z</time></trkpt><trkpt lat="43.415985704476654" lon="10.770058436541992"><ele>134.0</ele><time>2026-04-19T09:41:18Z</time></trkpt><trkpt lat="43.416117370071596" lon="10.770140795747503"><ele>134.0</ele><time>2026-04-19T09:41:19Z</time></trkpt><trkpt lat="43.41624546051091" lon="10.770218936509258"><ele>134.0</ele><time>2026-04-19T09:41:20Z</time></trkpt><trkpt lat="43.416350882316905" lon="10.77029003907881"><ele>134.0</ele><time>2026-04-19T09:41:21Z</time></trkpt><trkpt lat="43.41641536783328" lon="10.770400367052952"><ele>134.0</ele><time>2026-04-19T09:41:22Z</time></trkpt><trkpt lat="43.41645699907741" lon="10.770514211199911"><ele>134.0</ele><time>2026-04-19T09:41:23Z</time></trkpt><trkpt lat="43.416494672874094" lon="10.770662136522784"><ele>134.0</ele><time>2026-04-19T09:41:24Z</time></trkpt><trkpt lat="43.41655108187012" lon="10.770846615919023"><ele>133.75</ele><time>2026-04-19T09:41:25Z</time></trkpt><trkpt lat="43.41659742749037" lon="10.771049785112545"><ele>133.5</ele><time>2026-04-19T09:41:26Z</time></trkpt><trkpt lat="43.41662817207251" lon="10.771211054120144"><ele>133.25</ele><time>2026-04-19T09:41:27Z</time></trkpt><trkpt lat="43.416648244701975" lon="10.771339696206757"><ele>133.0</ele><time>2026-04-19T09:41:28Z</time></trkpt><trkpt lat="43.41665251900316" lon="10.771473886036114"><ele>133.0</ele><time>2026-04-19T09:41:29Z</time></trkpt><trkpt lat="43.4166065782607" lon="10.771611846096167"><ele>133.0</ele><time>2026-04-19T09:41:30Z</time></trkpt><trkpt lat="43.41654939298219" lon="10.771765881132215"><ele>133.0</ele><time>2026-04-19T09:41:31Z</time></trkpt><trkpt lat="43.416487737350025" lon="10.771976556313003"><ele>133.0</ele><time>2026-04-19T09:41:32Z</time></trkpt><trkpt lat="43.41648606510178" lon="10.772199440210514"><ele>133.0</ele><time>2026-04-19T09:41:33Z</time></trkpt><trkpt lat="43.41647191549521" lon="10.772395114481695"><ele>133.0</ele><time>2026-04-19T09:41:34Z</time></trkpt><trkpt lat="43.41648507663334" lon="10.772558076576914"><ele>133.0</ele><time>2026-04-19T09:41:35Z</time></trkpt><trkpt lat="43.41649807139942" lon="10.772680916327959"><ele>133.0</ele><time>2026-04-19T09:41:36Z</time></trkpt><trkpt lat="43.416503674846126" lon="10.772821051772898"><ele>133.0</ele><time>2026-04-19T09:41:38Z</time></trkpt><trkpt lat="43.41652903888739" lon="10.77290415842914"><ele>133.0</ele><time>2026-04-19T09:41:52Z</time></trkpt><trkpt lat="43.41646418594153" lon="10.7730993499808"><ele>133.0</ele><time>2026-04-19T09:41:54Z</time></trkpt><trkpt lat="43.41636663974885" lon="10.77324247201023"><ele>133.0</ele><time>2026-04-19T09:41:55Z</time></trkpt><trkpt lat="43.4162709078617" lon="10.773406236037989"><ele>132.66666666666669</ele><time>2026-04-19T09:41:56Z</time></trkpt><trkpt lat="43.41615915621686" lon="10.773563557795482"><ele>132.33333333333334</ele><time>2026-04-19T09:41:57Z</time></trkpt><trkpt lat="43.416014185068065" lon="10.773691618880832"><ele>132.0</ele><time>2026-04-19T09:41:58Z</time></trkpt><trkpt lat="43.415849742789185" lon="10.773788031397219"><ele>132.0</ele><time>2026-04-19T09:41:59Z</time></trkpt><trkpt lat="43.415656511853165" lon="10.773874645171606"><ele>132.0</ele><time>2026-04-19T09:42:00Z</time></trkpt><trkpt lat="43.41545341330115" lon="10.773958061611008"><ele>132.0</ele><time>2026-04-19T09:42:01Z</time></trkpt><trkpt lat="43.415238793698364" lon="10.774046162146584"><ele>133.33333333333334</ele><time>2026-04-19T09:42:02Z</time></trkpt><trkpt lat="43.41504068907537" lon="10.774126970764012"><ele>134.66666666666669</ele><time>2026-04-19T09:42:03Z</time></trkpt><trkpt lat="43.414867762138634" lon="10.774187035803877"><ele>136.0</ele><time>2026-04-19T09:42:04Z</time></trkpt><trkpt lat="43.414703627855914" lon="10.77422785718064"><ele>136.33333333333334</ele><time>2026-04-19T09:42:05Z</time></trkpt><trkpt lat="43.4145433749366" lon="10.774229909044037"><ele>136.66666666666666</ele><time>2026-04-19T09:42:06Z</time></trkpt><trkpt lat="43.41438301547737" lon="10.77417110500706"><ele>137.0</ele><time>2026-04-19T09:42:07Z</time></trkpt><trkpt lat="43.41421738318184" lon="10.774059709748265"><ele>137.0</ele><time>2026-04-19T09:42:08Z</time></trkpt><trkpt lat="43.41404589486725" lon="10.773926885991584"><ele>137.0</ele><time>2026-04-19T09:42:09Z</time></trkpt><trkpt lat="43.41385975466282" lon="10.773789171087383"><ele>137.0</ele><time>2026-04-19T09:42:10Z</time></trkpt><trkpt lat="43.41367533430443" lon="10.773657876109093"><ele>136.66666666666666</ele><time>2026-04-19T09:42:11Z</time></trkpt><trkpt lat="43.413523219875984" lon="10.773549130143142"><ele>136.33333333333334</ele><time>2026-04-19T09:42:12Z</time></trkpt><trkpt lat="43.413384864789165" lon="10.773445033349795"><ele>136.0</ele><time>2026-04-19T09:42:13Z</time></trkpt><trkpt lat="43.41324724537038" lon="10.773338281132759"><ele>136.75</ele><time>2026-04-19T09:42:14Z</time></trkpt><trkpt lat="43.41309554388274" lon="10.773261344304059"><ele>137.5</ele><time>2026-04-19T09:42:15Z</time></trkpt><trkpt lat="43.41295217244343" lon="10.773206899999778"><ele>138.25</ele><time>2026-04-19T09:42:16Z</time></trkpt><trkpt lat="43.41282804728812" lon="10.773156394885802"><ele>139.0</ele><time>2026-04-19T09:42:17Z</time></trkpt><trkpt lat="43.41270043875603" lon="10.77311637468417"><ele>139.0</ele><time>2026-04-19T09:42:18Z</time></trkpt><trkpt lat="43.41257307966536" lon="10.773120875137419"><ele>139.0</ele><time>2026-04-19T09:42:19Z</time></trkpt><trkpt lat="43.41245989251759" lon="10.773179669661463"><ele>139.0</ele><time>2026-04-19T09:42:20Z</time></trkpt><trkpt lat="43.41234655558408" lon="10.773278405899147"><ele>139.0</ele><time>2026-04-19T09:42:21Z</time></trkpt><trkpt lat="43.412243691223956" lon="10.773402927981921"><ele>138.33333333333334</ele><time>2026-04-19T09:42:22Z</time></trkpt><trkpt lat="43.41211497907803" lon="10.773516779037152"><ele>137.66666666666666</ele><time>2026-04-19T09:42:23Z</time></trkpt><trkpt lat="43.41196340024743" lon="10.77360881059834"><ele>137.0</ele><time>2026-04-19T09:42:24Z</time></trkpt><trkpt lat="43.411805899158104" lon="10.773683648860883"><ele>137.0</ele><time>2026-04-19T09:42:25Z</time></trkpt><trkpt lat="43.41164749726204" lon="10.77372556191089"><ele>137.0</ele><time>2026-04-19T09:42:26Z</time></trkpt><trkpt lat="43.41147476721923" lon="10.773727337571518"><ele>137.0</ele><time>2026-04-19T09:42:27Z</time></trkpt><trkpt lat="43.41129725378659" lon="10.773681509114875"><ele>137.66666666666666</ele><time>2026-04-19T09:42:28Z</time></trkpt><trkpt lat="43.41111866437335" lon="10.773624789616381"><ele>138.33333333333334</ele><time>2026-04-19T09:42:29Z</time></trkpt><trkpt lat="43.41093040273675" lon="10.773608897551881"><ele>139.0</ele><time>2026-04-19T09:42:30Z</time></trkpt><trkpt lat="43.41073552497695" lon="10.773623100399917"><ele>139.0</ele><time>2026-04-19T09:42:31Z</time></trkpt><trkpt lat="43.41056336327267" lon="10.773627826103763"><ele>139.0</ele><time>2026-04-19T09:42:32Z</time></trkpt><trkpt lat="43.4103981846044" lon="10.773597683385503"><ele>139.0</ele><time>2026-04-19T09:42:33Z</time></trkpt><trkpt lat="43.4102623794586" lon="10.773534236854397"><ele>139.0</ele><time>2026-04-19T09:42:34Z</time></trkpt><trkpt lat="43.41014607609745" lon="10.773466986055332"><ele>139.0</ele><time>2026-04-19T09:42:35Z</time></trkpt><trkpt lat="43.41003387308809" lon="10.773432356514409"><ele>139.0</ele><time>2026-04-19T09:42:36Z</time></trkpt><trkpt lat="43.40991242861583" lon="10.773453777805022"><ele>139.0</ele><time>2026-04-19T09:42:37Z</time></trkpt><trkpt lat="43.40979358039283" lon="10.773536542409957"><ele>139.0</ele><time>2026-04-19T09:42:38Z</time></trkpt><trkpt lat="43.40971199564992" lon="10.773665087559003"><ele>139.0</ele><time>2026-04-19T09:42:39Z</time></trkpt><trkpt lat="43.40965527681472" lon="10.773830800586593"><ele>139.0</ele><time>2026-04-19T09:42:40Z</time></trkpt><trkpt lat="43.40962218968343" lon="10.774028225790374"><ele>139.0</ele><time>2026-04-19T09:42:41.001Z</time></trkpt><trkpt lat="43.40959810719223" lon="10.774216158018062"><ele>140.25</ele><time>2026-04-19T09:42:42.001Z</time></trkpt><trkpt lat="43.40953987970222" lon="10.77439243518349"><ele>141.5</ele><time>2026-04-19T09:42:43.001Z</time></trkpt><trkpt lat="43.40944632596613" lon="10.774548050115992"><ele>142.75</ele><time>2026-04-19T09:42:44.001Z</time></trkpt><trkpt lat="43.40933454622139" lon="10.774684594996348"><ele>144.0</ele><time>2026-04-19T09:42:45Z</time></trkpt><trkpt lat="43.409201820897586" lon="10.774804752978724"><ele>144.0</ele><time>2026-04-19T09:42:46Z</time></trkpt><trkpt lat="43.40906010665964" lon="10.774909456740192"><ele>144.0</ele><time>2026-04-19T09:42:47Z</time></trkpt><trkpt lat="43.40890416431978" lon="10.77502137957774"><ele>144.0</ele><time>2026-04-19T09:42:48Z</time></trkpt><trkpt lat="43.40874093024467" lon="10.775125321446819"><ele>143.33333333333334</ele><time>2026-04-19T09:42:49Z</time></trkpt><trkpt lat="43.40856794353871" lon="10.775208193886645"><ele>142.66666666666669</ele><time>2026-04-19T09:42:50Z</time></trkpt><trkpt lat="43.40838663262436" lon="10.775276967327724"><ele>142.0</ele><time>2026-04-19T09:42:51Z</time></trkpt><trkpt lat="43.40818840889231" lon="10.77534265237428"><ele>143.0</ele><time>2026-04-19T09:42:52Z</time></trkpt><trkpt lat="43.40798701069809" lon="10.775393721068053"><ele>144.0</ele><time>2026-04-19T09:42:53Z</time></trkpt><trkpt lat="43.40780192652449" lon="10.775431642365172"><ele>145.0</ele><time>2026-04-19T09:42:54Z</time></trkpt><trkpt lat="43.40762689640085" lon="10.775411584953119"><ele>145.0</ele><time>2026-04-19T09:42:55Z</time></trkpt><trkpt lat="43.40746332262898" lon="10.775414805117288"><ele>145.0</ele><time>2026-04-19T09:42:56Z</time></trkpt><trkpt lat="43.40730682946021" lon="10.775414482793398"><ele>145.0</ele><time>2026-04-19T09:42:57Z</time></trkpt><trkpt lat="43.40714992962024" lon="10.775446548377138"><ele>145.33333333333334</ele><time>2026-04-19T09:42:58Z</time></trkpt><trkpt lat="43.406986372825486" lon="10.77551747482683"><ele>145.66666666666666</ele><time>2026-04-19T09:42:59Z</time></trkpt><trkpt lat="43.40681329693974" lon="10.775586085016911"><ele>146.0</ele><time>2026-04-19T09:43:00Z</time></trkpt><trkpt lat="43.40662572377576" lon="10.775598802083946"><ele>146.0</ele><time>2026-04-19T09:43:01Z</time></trkpt><trkpt lat="43.40642448039029" lon="10.775573977936403"><ele>146.0</ele><time>2026-04-19T09:43:02Z</time></trkpt><trkpt lat="43.406242753413906" lon="10.775520142712764"><ele>146.0</ele><time>2026-04-19T09:43:03Z</time></trkpt><trkpt lat="43.40605189277187" lon="10.77543589450845"><ele>145.5</ele><time>2026-04-19T09:43:04Z</time></trkpt><trkpt lat="43.405848653382236" lon="10.775313072743444"><ele>145.0</ele><time>2026-04-19T09:43:05Z</time></trkpt><trkpt lat="43.40562953121871" lon="10.775199968923385"><ele>147.5</ele><time>2026-04-19T09:43:06Z</time></trkpt><trkpt lat="43.40540420996299" lon="10.775083217349795"><ele>150.0</ele><time>2026-04-19T09:43:07Z</time></trkpt><trkpt lat="43.40517218121371" lon="10.774962990286765"><ele>150.0</ele><time>2026-04-19T09:43:08Z</time></trkpt><trkpt lat="43.40495597478854" lon="10.774851505026051"><ele>150.0</ele><time>2026-04-19T09:43:09Z</time></trkpt><trkpt lat="43.40476048438081" lon="10.774775557138897"><ele>150.0</ele><time>2026-04-19T09:43:10Z</time></trkpt><trkpt lat="43.40458590578978" lon="10.774681937432996"><ele>150.0</ele><time>2026-04-19T09:43:11Z</time></trkpt><trkpt lat="43.40441373821112" lon="10.774606364693106"><ele>150.0</ele><time>2026-04-19T09:43:12Z</time></trkpt><trkpt lat="43.4042441185602" lon="10.774557096763436"><ele>150.0</ele><time>2026-04-19T09:43:13Z</time></trkpt><trkpt lat="43.40407587617468" lon="10.774576710829132"><ele>150.0</ele><time>2026-04-19T09:43:14Z</time></trkpt><trkpt lat="43.403928240495695" lon="10.774638406665963"><ele>150.0</ele><time>2026-04-19T09:43:15Z</time></trkpt><trkpt lat="43.40378344191633" lon="10.774718136807943"><ele>150.0</ele><time>2026-04-19T09:43:16Z</time></trkpt><trkpt lat="43.40363519227543" lon="10.774825939851665"><ele>152.0</ele><time>2026-04-19T09:43:17Z</time></trkpt><trkpt lat="43.4035116736053" lon="10.774913866578506"><ele>154.0</ele><time>2026-04-19T09:43:18Z</time></trkpt><trkpt lat="43.40339556741588" lon="10.774984861937764"><ele>156.0</ele><time>2026-04-19T09:43:19Z</time></trkpt><trkpt lat="43.4032796783336" lon="10.775056512384666"><ele>158.0</ele><time>2026-04-19T09:43:20Z</time></trkpt><trkpt lat="43.4031631130521" lon="10.775131528583362"><ele>158.0</ele><time>2026-04-19T09:43:21Z</time></trkpt><trkpt lat="43.40304508172555" lon="10.775205078347941"><ele>158.0</ele><time>2026-04-19T09:43:22Z</time></trkpt><trkpt lat="43.40291109079229" lon="10.775283775548163"><ele>158.0</ele><time>2026-04-19T09:43:23Z</time></trkpt><trkpt lat="43.40278934749758" lon="10.775356432919683"><ele>158.0</ele><time>2026-04-19T09:43:24Z</time></trkpt><trkpt lat="43.40267303581274" lon="10.775430158393418"><ele>158.0</ele><time>2026-04-19T09:43:25Z</time></trkpt><trkpt lat="43.40256747794705" lon="10.775517700400206"><ele>158.0</ele><time>2026-04-19T09:43:26Z</time></trkpt><trkpt lat="43.40247000468011" lon="10.775645215533437"><ele>158.0</ele><time>2026-04-19T09:43:27Z</time></trkpt><trkpt lat="43.402391726401746" lon="10.775809510054192"><ele>158.0</ele><time>2026-04-19T09:43:28Z</time></trkpt><trkpt lat="43.4023481333133" lon="10.776016083810845"><ele>158.0</ele><time>2026-04-19T09:43:29Z</time></trkpt><trkpt lat="43.402329711944496" lon="10.776251712841981"><ele>158.0</ele><time>2026-04-19T09:43:30Z</time></trkpt><trkpt lat="43.40230842082841" lon="10.776496917506336"><ele>158.0</ele><time>2026-04-19T09:43:31Z</time></trkpt><trkpt lat="43.40227346248879" lon="10.776731444576235"><ele>157.33333333333331</ele><time>2026-04-19T09:43:32Z</time></trkpt><trkpt lat="43.402214732053" lon="10.77698097631703"><ele>156.66666666666666</ele><time>2026-04-19T09:43:33Z</time></trkpt><trkpt lat="43.402144598840756" lon="10.77723642664906"><ele>156.0</ele><time>2026-04-19T09:43:34Z</time></trkpt><trkpt lat="43.40207604095608" lon="10.777498258616138"><ele>159.33333333333334</ele><time>2026-04-19T09:43:35Z</time></trkpt><trkpt lat="43.40202295163608" lon="10.777790981923554"><ele>162.66666666666669</ele><time>2026-04-19T09:43:36Z</time></trkpt><trkpt lat="43.40198080172808" lon="10.77808045415063"><ele>166.0</ele><time>2026-04-19T09:43:37Z</time></trkpt><trkpt lat="43.401991162040964" lon="10.778387860391371"><ele>166.33333333333334</ele><time>2026-04-19T09:43:38Z</time></trkpt><trkpt lat="43.40199121007747" lon="10.778670533497971"><ele>166.66666666666666</ele><time>2026-04-19T09:43:39Z</time></trkpt><trkpt lat="43.402000838609936" lon="10.778932871183711"><ele>167.0</ele><time>2026-04-19T09:43:40Z</time></trkpt><trkpt lat="43.4020151682662" lon="10.779195635671087"><ele>166.66666666666666</ele><time>2026-04-19T09:43:41Z</time></trkpt><trkpt lat="43.40202293056778" lon="10.779470439599164"><ele>166.33333333333334</ele><time>2026-04-19T09:43:42Z</time></trkpt><trkpt lat="43.402029094604664" lon="10.779735764337019"><ele>166.0</ele><time>2026-04-19T09:43:43Z</time></trkpt><trkpt lat="43.40202738989473" lon="10.77999498343763"><ele>165.66666666666669</ele><time>2026-04-19T09:43:44Z</time></trkpt><trkpt lat="43.40200589388597" lon="10.780256221928024"><ele>165.33333333333334</ele><time>2026-04-19T09:43:45Z</time></trkpt><trkpt lat="43.40196456588159" lon="10.780511158028162"><ele>165.0</ele><time>2026-04-19T09:43:46Z</time></trkpt><trkpt lat="43.40192720615203" lon="10.78077119044512"><ele>165.0</ele><time>2026-04-19T09:43:47Z</time></trkpt><trkpt lat="43.401899723053916" lon="10.781035925388577"><ele>165.0</ele><time>2026-04-19T09:43:48Z</time></trkpt><trkpt lat="43.40187330474211" lon="10.781292504919552"><ele>165.0</ele><time>2026-04-19T09:43:49Z</time></trkpt><trkpt lat="43.40185349305493" lon="10.781549883947296"><ele>165.0</ele><time>2026-04-19T09:43:50Z</time></trkpt><trkpt lat="43.40185009641689" lon="10.78182460496242"><ele>165.0</ele><time>2026-04-19T09:43:51Z</time></trkpt><trkpt lat="43.4018753683062" lon="10.782108103349906"><ele>165.0</ele><time>2026-04-19T09:43:52Z</time></trkpt><trkpt lat="43.40189010924389" lon="10.782390175935065"><ele>164.66666666666666</ele><time>2026-04-19T09:43:53Z</time></trkpt><trkpt lat="43.40191695396573" lon="10.782680365375988"><ele>164.33333333333331</ele><time>2026-04-19T09:43:54Z</time></trkpt><trkpt lat="43.40194457976313" lon="10.78295705117318"><ele>164.0</ele><time>2026-04-19T09:43:55Z</time></trkpt><trkpt lat="43.40197268605403" lon="10.783220143368442"><ele>163.0</ele><time>2026-04-19T09:43:56Z</time></trkpt><trkpt lat="43.401997184152556" lon="10.783474880047184"><ele>162.0</ele><time>2026-04-19T09:43:57Z</time></trkpt><trkpt lat="43.40202414832457" lon="10.783732482795918"><ele>161.0</ele><time>2026-04-19T09:43:58Z</time></trkpt><trkpt lat="43.40205216402823" lon="10.783996742315752"><ele>160.0</ele><time>2026-04-19T09:43:59Z</time></trkpt><trkpt lat="43.40208047956992" lon="10.784275218133859"><ele>159.0</ele><time>2026-04-19T09:44:00Z</time></trkpt><trkpt lat="43.40212888043814" lon="10.78455582611747"><ele>158.0</ele><time>2026-04-19T09:44:01Z</time></trkpt><trkpt lat="43.402203975694846" lon="10.784830246597776"><ele>160.0</ele><time>2026-04-19T09:44:02Z</time></trkpt><trkpt lat="43.402279255062574" lon="10.785099393194299"><ele>162.0</ele><time>2026-04-19T09:44:03Z</time></trkpt><trkpt lat="43.40234607802017" lon="10.785362084183417"><ele>164.0</ele><time>2026-04-19T09:44:04Z</time></trkpt><trkpt lat="43.402414337824396" lon="10.785629537734557"><ele>164.0</ele><time>2026-04-19T09:44:05Z</time></trkpt><trkpt lat="43.40249074672639" lon="10.785909716634096"><ele>164.0</ele><time>2026-04-19T09:44:06Z</time></trkpt><trkpt lat="43.40256305364495" lon="10.78620150984639"><ele>164.0</ele><time>2026-04-19T09:44:07Z</time></trkpt><trkpt lat="43.40263327921954" lon="10.786479513682448"><ele>164.66666666666666</ele><time>2026-04-19T09:44:08Z</time></trkpt><trkpt lat="43.40269882876227" lon="10.7867436645151"><ele>165.33333333333334</ele><time>2026-04-19T09:44:09Z</time></trkpt><trkpt lat="43.40276088754744" lon="10.786987585735726"><ele>166.0</ele><time>2026-04-19T09:44:10Z</time></trkpt><trkpt lat="43.40280903619787" lon="10.787187859611157"><ele>166.4</ele><time>2026-04-19T09:44:11Z</time></trkpt><trkpt lat="43.40284790684537" lon="10.78735812570308"><ele>166.8</ele><time>2026-04-19T09:44:12Z</time></trkpt><trkpt lat="43.402883360254364" lon="10.787505127395201"><ele>167.20000000000002</ele><time>2026-04-19T09:44:13Z</time></trkpt><trkpt lat="43.402890777044476" lon="10.78764631425233"><ele>167.60000000000002</ele><time>2026-04-19T09:44:14Z</time></trkpt><trkpt lat="43.402897415797135" lon="10.787753160429247"><ele>168.0</ele><time>2026-04-19T09:44:15Z</time></trkpt><trkpt lat="43.40289217306353" lon="10.78792568384471"><ele>170.5</ele><time>2026-04-19T09:44:17Z</time></trkpt><trkpt lat="43.40304548041096" lon="10.78795893157343"><ele>173.0</ele><time>2026-04-19T09:44:18Z</time></trkpt><trkpt lat="43.403141639047526" lon="10.788066181832429"><ele>175.5</ele><time>2026-04-19T09:44:19Z</time></trkpt><trkpt lat="43.40325606268533" lon="10.78816156871006"><ele>178.0</ele><time>2026-04-19T09:44:20Z</time></trkpt><trkpt lat="43.40334952146768" lon="10.788327386908154"><ele>180.33333333333334</ele><time>2026-04-19T09:44:21Z</time></trkpt><trkpt lat="43.40343735119271" lon="10.788517285734713"><ele>182.66666666666666</ele><time>2026-04-19T09:44:22Z</time></trkpt><trkpt lat="43.403543067426064" lon="10.7887093698135"><ele>185.0</ele><time>2026-04-19T09:44:23Z</time></trkpt><trkpt lat="43.403649734839355" lon="10.788941734999804"><ele>185.0</ele><time>2026-04-19T09:44:24Z</time></trkpt><trkpt lat="43.403753879164526" lon="10.789159846422422"><ele>185.0</ele><time>2026-04-19T09:44:25Z</time></trkpt><trkpt lat="43.403850336801824" lon="10.78938313674414"><ele>185.0</ele><time>2026-04-19T09:44:26Z</time></trkpt><trkpt lat="43.40393302435363" lon="10.7896070977456"><ele>185.0</ele><time>2026-04-19T09:44:27Z</time></trkpt><trkpt lat="43.403997455948975" lon="10.789854904013968"><ele>185.0</ele><time>2026-04-19T09:44:28Z</time></trkpt><trkpt lat="43.40406347326113" lon="10.790107092090055"><ele>185.0</ele><time>2026-04-19T09:44:29.001Z</time></trkpt><trkpt lat="43.404152319725654" lon="10.790321178496821"><ele>186.66666666666666</ele><time>2026-04-19T09:44:30.001Z</time></trkpt><trkpt lat="43.404264358463756" lon="10.790490534833893"><ele>188.33333333333334</ele><time>2026-04-19T09:44:31.001Z</time></trkpt><trkpt lat="43.40439541868673" lon="10.790651663946155"><ele>190.0</ele><time>2026-04-19T09:44:32.001Z</time></trkpt><trkpt lat="43.4045440766103" lon="10.790802906996047"><ele>189.0</ele><time>2026-04-19T09:44:33.001Z</time></trkpt><trkpt lat="43.404701617925696" lon="10.790958145808432"><ele>188.0</ele><time>2026-04-19T09:44:34.001Z</time></trkpt><trkpt lat="43.40484850266264" lon="10.791143276937998"><ele>187.0</ele><time>2026-04-19T09:44:35.001Z</time></trkpt><trkpt lat="43.40495719206564" lon="10.791371040491438"><ele>190.0</ele><time>2026-04-19T09:44:36.001Z</time></trkpt><trkpt lat="43.40506553592886" lon="10.791585325925451"><ele>193.0</ele><time>2026-04-19T09:44:37.001Z</time></trkpt><trkpt lat="43.40518629604945" lon="10.791757652526567"><ele>196.0</ele><time>2026-04-19T09:44:38.001Z</time></trkpt><trkpt lat="43.40530027033253" lon="10.791872253787135"><ele>197.75</ele><time>2026-04-19T09:44:39.001Z</time></trkpt><trkpt lat="43.4053861078236" lon="10.791963706436407"><ele>199.5</ele><time>2026-04-19T09:44:40.001Z</time></trkpt><trkpt lat="43.40543323639317" lon="10.792105608638096"><ele>201.25</ele><time>2026-04-19T09:44:41.001Z</time></trkpt><trkpt lat="43.40541574894197" lon="10.792302362449929"><ele>203.0</ele><time>2026-04-19T09:44:42.001Z</time></trkpt><trkpt lat="43.40541325633578" lon="10.792519122025908"><ele>202.0</ele><time>2026-04-19T09:44:43.001Z</time></trkpt><trkpt lat="43.405407912974496" lon="10.792730876029422"><ele>201.0</ele><time>2026-04-19T09:44:44.001Z</time></trkpt><trkpt lat="43.40546662792742" lon="10.792927735087584"><ele>200.0</ele><time>2026-04-19T09:44:45.001Z</time></trkpt><trkpt lat="43.405558819142975" lon="10.793112328702714"><ele>200.0</ele><time>2026-04-19T09:44:46.001Z</time></trkpt><trkpt lat="43.40565163189454" lon="10.793259572202054"><ele>200.0</ele><time>2026-04-19T09:44:47.001Z</time></trkpt><trkpt lat="43.40575652045961" lon="10.793363617891846"><ele>200.0</ele><time>2026-04-19T09:44:48.001Z</time></trkpt><trkpt lat="43.40589843997791" lon="10.793424756910749"><ele>200.0</ele><time>2026-04-19T09:44:49.001Z</time></trkpt><trkpt lat="43.406074769258936" lon="10.793441023943856"><ele>200.0</ele><time>2026-04-19T09:44:50.001Z</time></trkpt><trkpt lat="43.40627018163284" lon="10.793423342482486"><ele>200.0</ele><time>2026-04-19T09:44:51Z</time></trkpt><trkpt lat="43.40644996458492" lon="10.793447513721999"><ele>200.0</ele><time>2026-04-19T09:44:52Z</time></trkpt><trkpt lat="43.4066247484969" lon="10.793462221747136"><ele>196.66666666666669</ele><time>2026-04-19T09:44:53Z</time></trkpt><trkpt lat="43.40677588073645" lon="10.7935135373784"><ele>193.33333333333334</ele><time>2026-04-19T09:44:54Z</time></trkpt><trkpt lat="43.406911400200684" lon="10.79362282280274"><ele>190.0</ele><time>2026-04-19T09:44:55Z</time></trkpt><trkpt lat="43.40704812143264" lon="10.793792509011704"><ele>194.0</ele><time>2026-04-19T09:44:56Z</time></trkpt><trkpt lat="43.40718652205846" lon="10.793989227035627"><ele>198.0</ele><time>2026-04-19T09:44:57Z</time></trkpt><trkpt lat="43.407316426904536" lon="10.79420082700771"><ele>202.0</ele><time>2026-04-19T09:44:58Z</time></trkpt><trkpt lat="43.40740362855013" lon="10.794468124059339"><ele>202.0</ele><time>2026-04-19T09:44:59Z</time></trkpt><trkpt lat="43.407469860319" lon="10.794758768757134"><ele>202.0</ele><time>2026-04-19T09:45:00Z</time></trkpt><trkpt lat="43.40752138214795" lon="10.795034135483595"><ele>202.0</ele><time>2026-04-19T09:45:01Z</time></trkpt><trkpt lat="43.40757148155186" lon="10.79529043909331"><ele>201.0</ele><time>2026-04-19T09:45:02Z</time></trkpt><trkpt lat="43.407622847625895" lon="10.79552448646026"><ele>200.0</ele><time>2026-04-19T09:45:03Z</time></trkpt><trkpt lat="43.407666983949426" lon="10.79572808259648"><ele>199.0</ele><time>2026-04-19T09:45:04Z</time></trkpt><trkpt lat="43.40770650524832" lon="10.795869506116937"><ele>198.0</ele><time>2026-04-19T09:45:05Z</time></trkpt><trkpt lat="43.40776155988027" lon="10.795970832544496"><ele>199.0</ele><time>2026-04-19T09:45:06Z</time></trkpt><trkpt lat="43.40784259740651" lon="10.796024541614475"><ele>200.0</ele><time>2026-04-19T09:45:07Z</time></trkpt><trkpt lat="43.407964646045905" lon="10.79604142373663"><ele>201.0</ele><time>2026-04-19T09:45:08Z</time></trkpt><trkpt lat="43.408129543350476" lon="10.796003582931817"><ele>202.0</ele><time>2026-04-19T09:45:09Z</time></trkpt><trkpt lat="43.40828759088876" lon="10.795931186452455"><ele>202.0</ele><time>2026-04-19T09:45:10Z</time></trkpt><trkpt lat="43.4083944513428" lon="10.795851398768228"><ele>202.0</ele><time>2026-04-19T09:45:11Z</time></trkpt><trkpt lat="43.40849116731945" lon="10.79590076820602"><ele>202.0</ele><time>2026-04-19T09:45:13Z</time></trkpt><trkpt lat="43.408487650623385" lon="10.796002033489545"><ele>202.0</ele><time>2026-04-19T09:45:14Z</time></trkpt><trkpt lat="43.40844014229184" lon="10.796106421918477"><ele>202.0</ele><time>2026-04-19T09:45:15Z</time></trkpt><trkpt lat="43.408383938202874" lon="10.796155465943237"><ele>200.33333333333331</ele><time>2026-04-19T09:45:16Z</time></trkpt><trkpt lat="43.40830009140272" lon="10.796237249623026"><ele>198.66666666666666</ele><time>2026-04-19T09:45:19Z</time></trkpt><trkpt lat="43.40821788162422" lon="10.796322494424803"><ele>197.0</ele><time>2026-04-19T09:45:21Z</time></trkpt><trkpt lat="43.40815787855305" lon="10.796391679967563"><ele>195.33333333333331</ele><time>2026-04-19T09:45:23Z</time></trkpt><trkpt lat="43.40809993870803" lon="10.796449554721951"><ele>193.66666666666666</ele><time>2026-04-19T09:45:25Z</time></trkpt><trkpt lat="43.4080319238528" lon="10.796497302309481"><ele>192.0</ele><time>2026-04-19T09:45:28Z</time></trkpt><trkpt lat="43.40813181781518" lon="10.796428104169811"><ele>192.0</ele><time>2026-04-19T09:45:34Z</time></trkpt><trkpt lat="43.40821429168555" lon="10.796318024324794"><ele>192.0</ele><time>2026-04-19T09:45:35Z</time></trkpt><trkpt lat="43.40834109475065" lon="10.79624819839986"><ele>192.0</ele><time>2026-04-19T09:45:36Z</time></trkpt><trkpt lat="43.40843789145102" lon="10.796146305640091"><ele>192.0</ele><time>2026-04-19T09:45:37Z</time></trkpt><trkpt lat="43.408521771951996" lon="10.79603712282397"><ele>194.0</ele><time>2026-04-19T09:45:38Z</time></trkpt><trkpt lat="43.4085710278564" lon="10.795927967797878"><ele>196.0</ele><time>2026-04-19T09:45:39Z</time></trkpt><trkpt lat="43.40860886071368" lon="10.795834899300294"><ele>198.0</ele><time>2026-04-19T09:45:40Z</time></trkpt><trkpt lat="43.40868025148442" lon="10.795699954826304"><ele>200.0</ele><time>2026-04-19T09:45:42Z</time></trkpt><trkpt lat="43.40867335679859" lon="10.79558775701005"><ele>202.0</ele><time>2026-04-19T09:45:43Z</time></trkpt><trkpt lat="43.4086685767513" lon="10.795462945148037"><ele>202.0</ele><time>2026-04-19T09:45:44Z</time></trkpt><trkpt lat="43.40864925641406" lon="10.795321490501248"><ele>202.0</ele><time>2026-04-19T09:45:45Z</time></trkpt><trkpt lat="43.40861806166599" lon="10.79515957265334"><ele>202.0</ele><time>2026-04-19T09:45:46Z</time></trkpt><trkpt lat="43.40857829952482" lon="10.794970409397653"><ele>202.0</ele><time>2026-04-19T09:45:47Z</time></trkpt><trkpt lat="43.408560232446305" lon="10.794749257697056"><ele>203.33333333333331</ele><time>2026-04-19T09:45:48Z</time></trkpt><trkpt lat="43.40852597162466" lon="10.794525525225433"><ele>204.66666666666669</ele><time>2026-04-19T09:45:49Z</time></trkpt><trkpt lat="43.40850471038392" lon="10.794320907037743"><ele>206.0</ele><time>2026-04-19T09:45:50Z</time></trkpt><trkpt lat="43.40851729713591" lon="10.79413537634709"><ele>207.0</ele><time>2026-04-19T09:45:51Z</time></trkpt><trkpt lat="43.40852374553406" lon="10.793936329246055"><ele>208.0</ele><time>2026-04-19T09:45:52Z</time></trkpt><trkpt lat="43.40852954620867" lon="10.793757276120346"><ele>209.0</ele><time>2026-04-19T09:45:53Z</time></trkpt><trkpt lat="43.408527963796296" lon="10.79359741347392"><ele>210.0</ele><time>2026-04-19T09:45:54Z</time></trkpt><trkpt lat="43.408513977275405" lon="10.793454787683071"><ele>210.0</ele><time>2026-04-19T09:45:55Z</time></trkpt><trkpt lat="43.408477077784376" lon="10.793325681683804"><ele>210.0</ele><time>2026-04-19T09:45:56Z</time></trkpt><trkpt lat="43.408413873659654" lon="10.793239334809035"><ele>210.0</ele><time>2026-04-19T09:45:57Z</time></trkpt><trkpt lat="43.40835557695789" lon="10.793112069619198"><ele>210.0</ele><time>2026-04-19T09:45:58Z</time></trkpt><trkpt lat="43.408279397979264" lon="10.792979469036045"><ele>210.0</ele><time>2026-04-19T09:45:59Z</time></trkpt><trkpt lat="43.408221736284936" lon="10.792843256953333"><ele>210.0</ele><time>2026-04-19T09:46:00Z</time></trkpt><trkpt lat="43.40819661657528" lon="10.792710096557899"><ele>210.0</ele><time>2026-04-19T09:46:01Z</time></trkpt><trkpt lat="43.40820120919085" lon="10.7925719027932"><ele>210.0</ele><time>2026-04-19T09:46:02Z</time></trkpt><trkpt lat="43.40820448578953" lon="10.79238049603707"><ele>210.0</ele><time>2026-04-19T09:46:03Z</time></trkpt><trkpt lat="43.40821005225071" lon="10.792214791890583"><ele>210.0</ele><time>2026-04-19T09:46:04Z</time></trkpt><trkpt lat="43.40822542866126" lon="10.792109597267016"><ele>210.0</ele><time>2026-04-19T09:46:05Z</time></trkpt><trkpt lat="43.40824499938035" lon="10.79202024179408"><ele>210.0</ele><time>2026-04-19T09:46:06Z</time></trkpt><trkpt lat="43.408280487932245" lon="10.791903841714467"><ele>210.0</ele><time>2026-04-19T09:46:07Z</time></trkpt><trkpt lat="43.40835218170068" lon="10.791804105994803"><ele>210.0</ele><time>2026-04-19T09:46:08Z</time></trkpt><trkpt lat="43.40844464443208" lon="10.791672200497217"><ele>210.6</ele><time>2026-04-19T09:46:09Z</time></trkpt><trkpt lat="43.408521003167834" lon="10.791551740248444"><ele>211.2</ele><time>2026-04-19T09:46:10Z</time></trkpt><trkpt lat="43.408583105227535" lon="10.79144617176875"><ele>211.8</ele><time>2026-04-19T09:46:11Z</time></trkpt><trkpt lat="43.40862806766684" lon="10.791334911396728"><ele>212.4</ele><time>2026-04-19T09:46:12Z</time></trkpt><trkpt lat="43.40867641443395" lon="10.791228012934907"><ele>213.0</ele><time>2026-04-19T09:46:13Z</time></trkpt><trkpt lat="43.40873418991829" lon="10.791089789553853"><ele>215.0</ele><time>2026-04-19T09:46:14Z</time></trkpt><trkpt lat="43.4087805116834" lon="10.79090388442123"><ele>217.0</ele><time>2026-04-19T09:46:15Z</time></trkpt><trkpt lat="43.40881166956796" lon="10.790686446637798"><ele>219.0</ele><time>2026-04-19T09:46:16Z</time></trkpt><trkpt lat="43.408861555309464" lon="10.79051148191316"><ele>221.0</ele><time>2026-04-19T09:46:17.001Z</time></trkpt><trkpt lat="43.408913251272494" lon="10.790370000214011"><ele>217.75</ele><time>2026-04-19T09:46:18Z</time></trkpt><trkpt lat="43.40895878281961" lon="10.790228536885177"><ele>214.5</ele><time>2026-04-19T09:46:19Z</time></trkpt><trkpt lat="43.40900513454024" lon="10.79007030637517"><ele>211.25</ele><time>2026-04-19T09:46:20Z</time></trkpt><trkpt lat="43.40905497789677" lon="10.789894750250491"><ele>208.0</ele><time>2026-04-19T09:46:21.001Z</time></trkpt><trkpt lat="43.40909210027728" lon="10.789739683267143"><ele>208.0</ele><time>2026-04-19T09:46:22.001Z</time></trkpt><trkpt lat="43.40911134731474" lon="10.789615200518655"><ele>208.0</ele><time>2026-04-19T09:46:23.001Z</time></trkpt><trkpt lat="43.40915484027282" lon="10.789515111498512"><ele>208.0</ele><time>2026-04-19T09:46:24.001Z</time></trkpt><trkpt lat="43.409229631853535" lon="10.789455988909909"><ele>208.0</ele><time>2026-04-19T09:46:25.001Z</time></trkpt><trkpt lat="43.4093130257541" lon="10.789403265483799"><ele>208.0</ele><time>2026-04-19T09:46:26.001Z</time></trkpt><trkpt lat="43.409421591123596" lon="10.789310015643643"><ele>208.4</ele><time>2026-04-19T09:46:27.001Z</time></trkpt><trkpt lat="43.40954585619107" lon="10.789238449597391"><ele>208.8</ele><time>2026-04-19T09:46:28.001Z</time></trkpt><trkpt lat="43.40965853673068" lon="10.789181635081462"><ele>209.2</ele><time>2026-04-19T09:46:29.001Z</time></trkpt><trkpt lat="43.40974892612554" lon="10.789151932121184"><ele>209.6</ele><time>2026-04-19T09:46:30.001Z</time></trkpt><trkpt lat="43.409796704727135" lon="10.789042749800334"><ele>210.0</ele><time>2026-04-19T09:46:31.001Z</time></trkpt><trkpt lat="43.409876332710205" lon="10.78922922876949"><ele>210.0</ele><time>2026-04-19T09:46:32.001Z</time></trkpt><trkpt lat="43.40996926360221" lon="10.789304009690689"><ele>210.0</ele><time>2026-04-19T09:46:33.001Z</time></trkpt><trkpt lat="43.4100924193878" lon="10.789408281697009"><ele>210.0</ele><time>2026-04-19T09:46:34.001Z</time></trkpt><trkpt lat="43.41023335982955" lon="10.789533745919089"><ele>210.0</ele><time>2026-04-19T09:46:35.001Z</time></trkpt><trkpt lat="43.410385380346945" lon="10.789662521850909"><ele>210.33333333333331</ele><time>2026-04-19T09:46:36.001Z</time></trkpt><trkpt lat="43.41054163749621" lon="10.78979250635483"><ele>210.66666666666666</ele><time>2026-04-19T09:46:37.001Z</time></trkpt><trkpt lat="43.41067594429005" lon="10.789904231090846"><ele>211.0</ele><time>2026-04-19T09:46:38.001Z</time></trkpt><trkpt lat="43.41079484736495" lon="10.789983397955853"><ele>211.0</ele><time>2026-04-19T09:46:39.001Z</time></trkpt><trkpt lat="43.41089237647706" lon="10.790085571915506"><ele>211.0</ele><time>2026-04-19T09:46:40.001Z</time></trkpt><trkpt lat="43.41100479811963" lon="10.790177544033515"><ele>211.0</ele><time>2026-04-19T09:46:41.001Z</time></trkpt><trkpt lat="43.41112455835256" lon="10.790264006425625"><ele>211.0</ele><time>2026-04-19T09:46:42.001Z</time></trkpt><trkpt lat="43.41122841310012" lon="10.79033118087623"><ele>209.0</ele><time>2026-04-19T09:46:43.001Z</time></trkpt><trkpt lat="43.41131583417632" lon="10.790383111741324"><ele>207.0</ele><time>2026-04-19T09:46:44.001Z</time></trkpt><trkpt lat="43.41141883852463" lon="10.79041938102588"><ele>205.0</ele><time>2026-04-19T09:46:46.001Z</time></trkpt><trkpt lat="43.411556958983994" lon="10.790337852995005"><ele>203.0</ele><time>2026-04-19T09:46:48.001Z</time></trkpt><trkpt lat="43.41165181139699" lon="10.790258356259292"><ele>203.00000000000003</ele><time>2026-04-19T09:46:49.001Z</time></trkpt><trkpt lat="43.41174410456283" lon="10.790187289490147"><ele>203.0</ele><time>2026-04-19T09:46:50.001Z</time></trkpt><trkpt lat="43.41181071008464" lon="10.790126682013575"><ele>203.0</ele><time>2026-04-19T09:46:51.001Z</time></trkpt><trkpt lat="43.41185874649852" lon="10.790056147777456"><ele>203.0</ele><time>2026-04-19T09:46:52.001Z</time></trkpt><trkpt lat="43.4118949975198" lon="10.789958359298403"><ele>203.00000000000003</ele><time>2026-04-19T09:46:53.001Z</time></trkpt><trkpt lat="43.41192496708958" lon="10.789849418573766"><ele>203.0</ele><time>2026-04-19T09:46:54.001Z</time></trkpt><trkpt lat="43.411947842380044" lon="10.789715685778917"><ele>204.5</ele><time>2026-04-19T09:46:55.001Z</time></trkpt><trkpt lat="43.411971304922425" lon="10.789537920213522"><ele>206.0</ele><time>2026-04-19T09:46:56.001Z</time></trkpt><trkpt lat="43.41198918654957" lon="10.78937245986545"><ele>207.5</ele><time>2026-04-19T09:46:57Z</time></trkpt><trkpt lat="43.41200138491047" lon="10.78923119217251"><ele>209.0</ele><time>2026-04-19T09:46:58Z</time></trkpt><trkpt lat="43.41200946316159" lon="10.78907368298722"><ele>209.39999999999998</ele><time>2026-04-19T09:46:59Z</time></trkpt><trkpt lat="43.41202086632779" lon="10.78891323410378"><ele>209.8</ele><time>2026-04-19T09:47:00Z</time></trkpt><trkpt lat="43.41202236662232" lon="10.78877438378835"><ele>210.2</ele><time>2026-04-19T09:47:01Z</time></trkpt><trkpt lat="43.41204686104795" lon="10.78864166610024"><ele>210.60000000000002</ele><time>2026-04-19T09:47:02Z</time></trkpt><trkpt lat="43.412036615862355" lon="10.788515849128046"><ele>211.0</ele><time>2026-04-19T09:47:03Z</time></trkpt><trkpt lat="43.41204619815044" lon="10.788399626962581"><ele>211.0</ele><time>2026-04-19T09:47:04Z</time></trkpt><trkpt lat="43.41208965776741" lon="10.788294818259367"><ele>211.0</ele><time>2026-04-19T09:47:05Z</time></trkpt><trkpt lat="43.412143623317895" lon="10.788172351835536"><ele>211.0</ele><time>2026-04-19T09:47:06Z</time></trkpt><trkpt lat="43.41220789360893" lon="10.788045801741392"><ele>211.0</ele><time>2026-04-19T09:47:07Z</time></trkpt><trkpt lat="43.412271918499755" lon="10.787940482462854"><ele>211.0</ele><time>2026-04-19T09:47:08Z</time></trkpt><trkpt lat="43.41231478740387" lon="10.787843827570162"><ele>207.4</ele><time>2026-04-19T09:47:09Z</time></trkpt><trkpt lat="43.41235794817519" lon="10.787762994336013"><ele>203.8</ele><time>2026-04-19T09:47:10Z</time></trkpt><trkpt lat="43.41238741261328" lon="10.787668002492715"><ele>200.20000000000002</ele><time>2026-04-19T09:47:11Z</time></trkpt><trkpt lat="43.41239805230166" lon="10.787550547989673"><ele>196.60000000000002</ele><time>2026-04-19T09:47:12Z</time></trkpt><trkpt lat="43.41238708066261" lon="10.787399716901023"><ele>193.0</ele><time>2026-04-19T09:47:13Z</time></trkpt><trkpt lat="43.412367585529275" lon="10.78725548495677"><ele>192.83333333333331</ele><time>2026-04-19T09:47:14Z</time></trkpt><trkpt lat="43.41236270275337" lon="10.787148787787633"><ele>192.66666666666666</ele><time>2026-04-19T09:47:15Z</time></trkpt><trkpt lat="43.412396926905075" lon="10.787057697090084"><ele>192.5</ele><time>2026-04-19T09:47:16Z</time></trkpt><trkpt lat="43.412435787253195" lon="10.786987781784058"><ele>192.33333333333331</ele><time>2026-04-19T09:47:17Z</time></trkpt><trkpt lat="43.41251285834875" lon="10.786918295430006"><ele>192.16666666666666</ele><time>2026-04-19T09:47:18Z</time></trkpt><trkpt lat="43.41261567002134" lon="10.786837608442115"><ele>192.0</ele><time>2026-04-19T09:47:19Z</time></trkpt><trkpt lat="43.41273501712801" lon="10.786743723178548"><ele>193.66666666666669</ele><time>2026-04-19T09:47:20Z</time></trkpt><trkpt lat="43.41286815188386" lon="10.786641044499396"><ele>195.33333333333334</ele><time>2026-04-19T09:47:21Z</time></trkpt><trkpt lat="43.41300584590358" lon="10.78652457090491"><ele>197.0</ele><time>2026-04-19T09:47:22Z</time></trkpt><trkpt lat="43.4131191568539" lon="10.786402548059325"><ele>194.8</ele><time>2026-04-19T09:47:23Z</time></trkpt><trkpt lat="43.413224890380725" lon="10.7863169447344"><ele>192.6</ele><time>2026-04-19T09:47:24Z</time></trkpt><trkpt lat="43.41331880442981" lon="10.786255927676294"><ele>190.4</ele><time>2026-04-19T09:47:25Z</time></trkpt><trkpt lat="43.4133980167209" lon="10.786220006567948"><ele>188.20000000000002</ele><time>2026-04-19T09:47:26Z</time></trkpt><trkpt lat="43.413471854941704" lon="10.78623996035793"><ele>186.0</ele><time>2026-04-19T09:47:27Z</time></trkpt><trkpt lat="43.41354979363131" lon="10.786264603339097"><ele>186.0</ele><time>2026-04-19T09:47:28Z</time></trkpt><trkpt lat="43.413669066737995" lon="10.786301599373148"><ele>186.0</ele><time>2026-04-19T09:47:29Z</time></trkpt><trkpt lat="43.413814895725466" lon="10.786297825075813"><ele>186.0</ele><time>2026-04-19T09:47:30Z</time></trkpt><trkpt lat="43.41396009696523" lon="10.786286619462556"><ele>186.0</ele><time>2026-04-19T09:47:31Z</time></trkpt><trkpt lat="43.41412494388288" lon="10.786248259506882"><ele>184.33333333333334</ele><time>2026-04-19T09:47:32Z</time></trkpt><trkpt lat="43.414283099297265" lon="10.786217738008947"><ele>182.66666666666669</ele><time>2026-04-19T09:47:33Z</time></trkpt><trkpt lat="43.414437585471646" lon="10.786206257380753"><ele>181.0</ele><time>2026-04-19T09:47:34Z</time></trkpt><trkpt lat="43.41460254558307" lon="10.786205772686053"><ele>180.66666666666669</ele><time>2026-04-19T09:47:35Z</time></trkpt><trkpt lat="43.41476945816541" lon="10.786248703394238"><ele>180.33333333333334</ele><time>2026-04-19T09:47:36Z</time></trkpt><trkpt lat="43.41493733125011" lon="10.786287463629687"><ele>180.0</ele><time>2026-04-19T09:47:37Z</time></trkpt><trkpt lat="43.41511534077384" lon="10.78630167549463"><ele>180.0</ele><time>2026-04-19T09:47:38Z</time></trkpt><trkpt lat="43.415285916658" lon="10.786343125628628"><ele>180.0</ele><time>2026-04-19T09:47:39Z</time></trkpt><trkpt lat="43.415454405178494" lon="10.786375027362311"><ele>180.0</ele><time>2026-04-19T09:47:40Z</time></trkpt><trkpt lat="43.41563381537807" lon="10.786415836519087"><ele>181.25</ele><time>2026-04-19T09:47:41Z</time></trkpt><trkpt lat="43.415797463419004" lon="10.786453858582377"><ele>182.5</ele><time>2026-04-19T09:47:42Z</time></trkpt><trkpt lat="43.415934138602225" lon="10.786486963787885"><ele>183.75</ele><time>2026-04-19T09:47:43Z</time></trkpt><trkpt lat="43.41606040361935" lon="10.786536937558875"><ele>185.0</ele><time>2026-04-19T09:47:44Z</time></trkpt><trkpt lat="43.41620488324364" lon="10.786575882196157"><ele>186.5</ele><time>2026-04-19T09:47:45Z</time></trkpt><trkpt lat="43.41634832118525" lon="10.786639180543393"><ele>188.0</ele><time>2026-04-19T09:47:46Z</time></trkpt><trkpt lat="43.41647416711146" lon="10.78671968727592"><ele>189.5</ele><time>2026-04-19T09:47:47Z</time></trkpt><trkpt lat="43.416577667631906" lon="10.786793164573128"><ele>191.0</ele><time>2026-04-19T09:47:48Z</time></trkpt><trkpt lat="43.41666483331822" lon="10.786842394794673"><ele>189.20000000000002</ele><time>2026-04-19T09:47:49Z</time></trkpt><trkpt lat="43.4167398106688" lon="10.786903444225135"><ele>187.4</ele><time>2026-04-19T09:47:50Z</time></trkpt><trkpt lat="43.41680773225131" lon="10.786960902848886"><ele>185.6</ele><time>2026-04-19T09:47:51Z</time></trkpt><trkpt lat="43.4168674213724" lon="10.787008270393686"><ele>183.8</ele><time>2026-04-19T09:47:52Z</time></trkpt><trkpt lat="43.4169641767568" lon="10.78708297592077"><ele>182.0</ele><time>2026-04-19T09:47:54Z</time></trkpt><trkpt lat="43.41706253697409" lon="10.787160819248928"><ele>183.66666666666666</ele><time>2026-04-19T09:47:56Z</time></trkpt><trkpt lat="43.417168510576786" lon="10.787240243284272"><ele>185.33333333333331</ele><time>2026-04-19T09:47:58Z</time></trkpt><trkpt lat="43.41722859099536" lon="10.78727932342836"><ele>187.0</ele><time>2026-04-19T09:47:59Z</time></trkpt><trkpt lat="43.417288713187986" lon="10.787324485767098"><ele>188.66666666666666</ele><time>2026-04-19T09:48:00Z</time></trkpt><trkpt lat="43.417347104873784" lon="10.78736638269938"><ele>190.33333333333334</ele><time>2026-04-19T09:48:01Z</time></trkpt><trkpt lat="43.41740529448013" lon="10.787408364538157"><ele>192.0</ele><time>2026-04-19T09:48:02Z</time></trkpt><trkpt lat="43.417462848656776" lon="10.78744514612356"><ele>192.0</ele><time>2026-04-19T09:48:03Z</time></trkpt><trkpt lat="43.417528526820995" lon="10.78748207490889"><ele>192.0</ele><time>2026-04-19T09:48:04Z</time></trkpt><trkpt lat="43.41760457525419" lon="10.787516790611452"><ele>192.0</ele><time>2026-04-19T09:48:05Z</time></trkpt><trkpt lat="43.41769392183841" lon="10.787552927435947"><ele>192.0</ele><time>2026-04-19T09:48:06Z</time></trkpt><trkpt lat="43.41778251532673" lon="10.787588169172217"><ele>192.0</ele><time>2026-04-19T09:48:07Z</time></trkpt><trkpt lat="43.417859070137396" lon="10.787617293391522"><ele>192.0</ele><time>2026-04-19T09:48:08Z</time></trkpt><trkpt lat="43.41792975631559" lon="10.78765389956"><ele>192.33333333333334</ele><time>2026-04-19T09:48:09Z</time></trkpt><trkpt lat="43.417996252128304" lon="10.787697508248762"><ele>192.66666666666669</ele><time>2026-04-19T09:48:10Z</time></trkpt><trkpt lat="43.41805481073358" lon="10.78774841368513"><ele>193.0</ele><time>2026-04-19T09:48:11Z</time></trkpt><trkpt lat="43.4181094758373" lon="10.78781100683222"><ele>193.33333333333334</ele><time>2026-04-19T09:48:12Z</time></trkpt><trkpt lat="43.418159207159725" lon="10.787882915428424"><ele>193.66666666666669</ele><time>2026-04-19T09:48:13Z</time></trkpt><trkpt lat="43.41819007371997" lon="10.787983834206216"><ele>194.0</ele><time>2026-04-19T09:48:14Z</time></trkpt><trkpt lat="43.41825024638482" lon="10.788074101015829"><ele>194.0</ele><time>2026-04-19T09:48:15Z</time></trkpt><trkpt lat="43.41830860673585" lon="10.788205041632041"><ele>194.0</ele><time>2026-04-19T09:48:16Z</time></trkpt><trkpt lat="43.41837865701571" lon="10.788325489208908"><ele>194.0</ele><time>2026-04-19T09:48:17Z</time></trkpt><trkpt lat="43.4184520811797" lon="10.788421280951724"><ele>194.0</ele><time>2026-04-19T09:48:18Z</time></trkpt><trkpt lat="43.41854665355127" lon="10.788503614836094"><ele>194.0</ele><time>2026-04-19T09:48:19Z</time></trkpt><trkpt lat="43.418664279041266" lon="10.788561616275745"><ele>192.66666666666669</ele><time>2026-04-19T09:48:20Z</time></trkpt><trkpt lat="43.418806507507526" lon="10.788632269051089"><ele>191.33333333333334</ele><time>2026-04-19T09:48:21Z</time></trkpt><trkpt lat="43.418971302062104" lon="10.788647151886186"><ele>190.0</ele><time>2026-04-19T09:48:22Z</time></trkpt><trkpt lat="43.41912941416492" lon="10.78869995569505"><ele>190.0</ele><time>2026-04-19T09:48:23Z</time></trkpt><trkpt lat="43.419275699451795" lon="10.788756951832847"><ele>190.0</ele><time>2026-04-19T09:48:24Z</time></trkpt><trkpt lat="43.41939305188008" lon="10.788858511150556"><ele>190.0</ele><time>2026-04-19T09:48:25Z</time></trkpt><trkpt lat="43.41950885411549" lon="10.788957643714824"><ele>190.0</ele><time>2026-04-19T09:48:26Z</time></trkpt><trkpt lat="43.4196444034357" lon="10.789077250399332"><ele>191.33333333333334</ele><time>2026-04-19T09:48:27Z</time></trkpt><trkpt lat="43.419797182627626" lon="10.78921211067591"><ele>192.66666666666669</ele><time>2026-04-19T09:48:28Z</time></trkpt><trkpt lat="43.419949101160846" lon="10.789343129208865"><ele>194.0</ele><time>2026-04-19T09:48:29.001Z</time></trkpt><trkpt lat="43.420111298575115" lon="10.789480921642465"><ele>194.0</ele><time>2026-04-19T09:48:30.001Z</time></trkpt><trkpt lat="43.420283768004815" lon="10.789629742278734"><ele>194.0</ele><time>2026-04-19T09:48:31.001Z</time></trkpt><trkpt lat="43.42045264366653" lon="10.789782726467338"><ele>194.0</ele><time>2026-04-19T09:48:32.001Z</time></trkpt><trkpt lat="43.42061319398741" lon="10.789916377582223"><ele>195.66666666666669</ele><time>2026-04-19T09:48:33.001Z</time></trkpt><trkpt lat="43.42076587643434" lon="10.790010738565378"><ele>197.33333333333331</ele><time>2026-04-19T09:48:34.001Z</time></trkpt><trkpt lat="43.42091035283568" lon="10.79013722466681"><ele>199.0</ele><time>2026-04-19T09:48:35.001Z</time></trkpt><trkpt lat="43.42106050874439" lon="10.790245434567764"><ele>200.33333333333331</ele><time>2026-04-19T09:48:36.001Z</time></trkpt><trkpt lat="43.42121811352323" lon="10.790358925022433"><ele>201.66666666666669</ele><time>2026-04-19T09:48:37.001Z</time></trkpt><trkpt lat="43.421374276916" lon="10.790471377343716"><ele>203.0</ele><time>2026-04-19T09:48:38.001Z</time></trkpt><trkpt lat="43.42151700314831" lon="10.790574567844859"><ele>203.0</ele><time>2026-04-19T09:48:39.001Z</time></trkpt><trkpt lat="43.42165719512596" lon="10.790682375125835"><ele>203.0</ele><time>2026-04-19T09:48:40.001Z</time></trkpt><trkpt lat="43.42178241533197" lon="10.790780777441531"><ele>203.0</ele><time>2026-04-19T09:48:41.001Z</time></trkpt><trkpt lat="43.42189778870362" lon="10.79086818153965"><ele>203.0</ele><time>2026-04-19T09:48:42.001Z</time></trkpt><trkpt lat="43.42202346400944" lon="10.79093790141519"><ele>203.0</ele><time>2026-04-19T09:48:43.001Z</time></trkpt><trkpt lat="43.422136530830656" lon="10.790968133642258"><ele>203.0</ele><time>2026-04-19T09:48:44.001Z</time></trkpt><trkpt lat="43.42222266297489" lon="10.791022166028608"><ele>203.0</ele><time>2026-04-19T09:48:45.001Z</time></trkpt><trkpt lat="43.422291323886334" lon="10.791078461162892"><ele>203.0</ele><time>2026-04-19T09:48:46.001Z</time></trkpt><trkpt lat="43.4223641484756" lon="10.791133862894137"><ele>203.0</ele><time>2026-04-19T09:48:47.001Z</time></trkpt><trkpt lat="43.42243708231866" lon="10.791208403169312"><ele>201.2</ele><time>2026-04-19T09:48:48.001Z</time></trkpt><trkpt lat="43.42248884752663" lon="10.791278183213196"><ele>199.4</ele><time>2026-04-19T09:48:49.001Z</time></trkpt><trkpt lat="43.422551029418486" lon="10.791337872716541"><ele>197.6</ele><time>2026-04-19T09:48:50.001Z</time></trkpt><trkpt lat="43.42263714685266" lon="10.791409123555152"><ele>195.79999999999998</ele><time>2026-04-19T09:48:51.001Z</time></trkpt><trkpt lat="43.42275523723693" lon="10.791486574942018"><ele>194.0</ele><time>2026-04-19T09:48:52.001Z</time></trkpt><trkpt lat="43.42287007259269" lon="10.791545474035438"><ele>194.0</ele><time>2026-04-19T09:48:53.001Z</time></trkpt><trkpt lat="43.422961545311175" lon="10.791587570610657"><ele>194.0</ele><time>2026-04-19T09:48:54.001Z</time></trkpt><trkpt lat="43.423045190661014" lon="10.791624746687488"><ele>194.0</ele><time>2026-04-19T09:48:55.001Z</time></trkpt><trkpt lat="43.42314483915546" lon="10.791657584522792"><ele>194.0</ele><time>2026-04-19T09:48:56.001Z</time></trkpt><trkpt lat="43.4232460241215" lon="10.791683640156906"><ele>194.0</ele><time>2026-04-19T09:48:57.001Z</time></trkpt><trkpt lat="43.423344495024224" lon="10.791718395058046"><ele>194.2</ele><time>2026-04-19T09:48:58.001Z</time></trkpt><trkpt lat="43.42343422996225" lon="10.791766724565262"><ele>194.39999999999998</ele><time>2026-04-19T09:48:59.001Z</time></trkpt><trkpt lat="43.423498853691214" lon="10.79182831026826"><ele>194.6</ele><time>2026-04-19T09:49:00.001Z</time></trkpt><trkpt lat="43.42356166725506" lon="10.791907988932333"><ele>194.8</ele><time>2026-04-19T09:49:01.001Z</time></trkpt><trkpt lat="43.42364119211796" lon="10.792021056508336"><ele>195.0</ele><time>2026-04-19T09:49:02.001Z</time></trkpt><trkpt lat="43.423722724752736" lon="10.792119979704916"><ele>195.0</ele><time>2026-04-19T09:49:03Z</time></trkpt><trkpt lat="43.4238095322166" lon="10.792188928696895"><ele>195.0</ele><time>2026-04-19T09:49:04Z</time></trkpt><trkpt lat="43.42391545333058" lon="10.792252481574364"><ele>195.0</ele><time>2026-04-19T09:49:05Z</time></trkpt><trkpt lat="43.42401721252027" lon="10.792296412658668"><ele>195.0</ele><time>2026-04-19T09:49:06Z</time></trkpt><trkpt lat="43.42410184462761" lon="10.792328808153957"><ele>195.0</ele><time>2026-04-19T09:49:07Z</time></trkpt><trkpt lat="43.42418705279766" lon="10.792355474826696"><ele>195.0</ele><time>2026-04-19T09:49:08Z</time></trkpt><trkpt lat="43.42427319710684" lon="10.792383961753385"><ele>195.0</ele><time>2026-04-19T09:49:09Z</time></trkpt><trkpt lat="43.42435261017423" lon="10.79244398977057"><ele>195.0</ele><time>2026-04-19T09:49:10Z</time></trkpt><trkpt lat="43.42441918517468" lon="10.792581751235382"><ele>195.0</ele><time>2026-04-19T09:49:11Z</time></trkpt><trkpt lat="43.42450943490606" lon="10.792710650859922"><ele>195.0</ele><time>2026-04-19T09:49:12Z</time></trkpt><trkpt lat="43.424587226342105" lon="10.792805637317892"><ele>195.2</ele><time>2026-04-19T09:49:13Z</time></trkpt><trkpt lat="43.4246467010536" lon="10.79287983957869"><ele>195.4</ele><time>2026-04-19T09:49:14Z</time></trkpt><trkpt lat="43.42471787316616" lon="10.79295389285063"><ele>195.60000000000002</ele><time>2026-04-19T09:49:15Z</time></trkpt><trkpt lat="43.42479993454383" lon="10.793060008933553"><ele>195.8</ele><time>2026-04-19T09:49:16Z</time></trkpt><trkpt lat="43.424894522187024" lon="10.793159924776793"><ele>196.0</ele><time>2026-04-19T09:49:17Z</time></trkpt><trkpt lat="43.42497358138177" lon="10.793244750531489"><ele>195.99999999999997</ele><time>2026-04-19T09:49:18Z</time></trkpt><trkpt lat="43.42503748319553" lon="10.793313528947314"><ele>196.0</ele><time>2026-04-19T09:49:19Z</time></trkpt><trkpt lat="43.42510845658273" lon="10.793359310982131"><ele>196.0</ele><time>2026-04-19T09:49:20Z</time></trkpt><trkpt lat="43.42516712367853" lon="10.793447573186297"><ele>196.0</ele><time>2026-04-19T09:49:21Z</time></trkpt><trkpt lat="43.42524553004273" lon="10.793472997575222"><ele>195.99999999999997</ele><time>2026-04-19T09:49:22Z</time></trkpt><trkpt lat="43.42531100662879" lon="10.793482574774458"><ele>196.0</ele><time>2026-04-19T09:49:23Z</time></trkpt><trkpt lat="43.42544767477931" lon="10.793435553245146"><ele>195.0</ele><time>2026-04-19T09:49:25Z</time></trkpt><trkpt lat="43.42549108524975" lon="10.793297900050952"><ele>194.0</ele><time>2026-04-19T09:49:26Z</time></trkpt><trkpt lat="43.425546652683884" lon="10.793189584840544"><ele>193.0</ele><time>2026-04-19T09:49:27Z</time></trkpt><trkpt lat="43.42559957975054" lon="10.793072961256229"><ele>192.0</ele><time>2026-04-19T09:49:28Z</time></trkpt><trkpt lat="43.42564745916534" lon="10.792899484914098"><ele>191.0</ele><time>2026-04-19T09:49:29Z</time></trkpt><trkpt lat="43.42570954361817" lon="10.792717425102845"><ele>191.5</ele><time>2026-04-19T09:49:30Z</time></trkpt><trkpt lat="43.425800443444274" lon="10.792542362246282"><ele>192.0</ele><time>2026-04-19T09:49:31Z</time></trkpt><trkpt lat="43.42586054980849" lon="10.792382612261092"><ele>192.5</ele><time>2026-04-19T09:49:32Z</time></trkpt><trkpt lat="43.42590052483126" lon="10.792231693058586"><ele>193.0</ele><time>2026-04-19T09:49:33Z</time></trkpt><trkpt lat="43.42596094550712" lon="10.79208892454438"><ele>193.0</ele><time>2026-04-19T09:49:34Z</time></trkpt><trkpt lat="43.42603711585736" lon="10.791959490270301"><ele>193.0</ele><time>2026-04-19T09:49:35Z</time></trkpt><trkpt lat="43.42608921524499" lon="10.791826382901883"><ele>193.0</ele><time>2026-04-19T09:49:36Z</time></trkpt><trkpt lat="43.42613686404227" lon="10.791714647788373"><ele>193.0</ele><time>2026-04-19T09:49:37Z</time></trkpt><trkpt lat="43.426197386946576" lon="10.791591332215942"><ele>193.0</ele><time>2026-04-19T09:49:38Z</time></trkpt><trkpt lat="43.426247524869154" lon="10.791449236160679"><ele>192.60000000000002</ele><time>2026-04-19T09:49:39Z</time></trkpt><trkpt lat="43.42627156613265" lon="10.791318836876581"><ele>192.20000000000002</ele><time>2026-04-19T09:49:40Z</time></trkpt><trkpt lat="43.42631112899306" lon="10.791195923899787"><ele>191.8</ele><time>2026-04-19T09:49:41Z</time></trkpt><trkpt lat="43.426342828791164" lon="10.791070007753973"><ele>191.4</ele><time>2026-04-19T09:49:42Z</time></trkpt><trkpt lat="43.426362922204476" lon="10.790928887022309"><ele>191.0</ele><time>2026-04-19T09:49:43Z</time></trkpt><trkpt lat="43.42640935969083" lon="10.790774154016216"><ele>190.4</ele><time>2026-04-19T09:49:44Z</time></trkpt><trkpt lat="43.42645523434978" lon="10.790615919320427"><ele>189.8</ele><time>2026-04-19T09:49:45Z</time></trkpt><trkpt lat="43.42648869474211" lon="10.790474832767869"><ele>189.20000000000002</ele><time>2026-04-19T09:49:46Z</time></trkpt><trkpt lat="43.42652988014222" lon="10.790357066649753"><ele>188.60000000000002</ele><time>2026-04-19T09:49:47Z</time></trkpt><trkpt lat="43.426562275830854" lon="10.790211899096079"><ele>188.0</ele><time>2026-04-19T09:49:48Z</time></trkpt><trkpt lat="43.426575492546476" lon="10.790074187841785"><ele>188.0</ele><time>2026-04-19T09:49:49Z</time></trkpt><trkpt lat="43.4265748225833" lon="10.78995144774461"><ele>188.0</ele><time>2026-04-19T09:49:50Z</time></trkpt><trkpt lat="43.4265814258382" lon="10.789846485373042"><ele>188.0</ele><time>2026-04-19T09:49:51Z</time></trkpt><trkpt lat="43.426606758873014" lon="10.789731013128552"><ele>188.0</ele><time>2026-04-19T09:49:52Z</time></trkpt><trkpt lat="43.426642471963426" lon="10.789620499310912"><ele>188.0</ele><time>2026-04-19T09:49:53Z</time></trkpt><trkpt lat="43.42667206912647" lon="10.789495059227907"><ele>188.0</ele><time>2026-04-19T09:49:54Z</time></trkpt><trkpt lat="43.4267221453168" lon="10.789380871130206"><ele>188.60000000000002</ele><time>2026-04-19T09:49:55Z</time></trkpt><trkpt lat="43.426772403146515" lon="10.789281472930107"><ele>189.20000000000002</ele><time>2026-04-19T09:49:56Z</time></trkpt><trkpt lat="43.42681715673183" lon="10.789186492608987"><ele>189.8</ele><time>2026-04-19T09:49:57Z</time></trkpt><trkpt lat="43.42687014177477" lon="10.789090137988296"><ele>190.4</ele><time>2026-04-19T09:49:59Z</time></trkpt><trkpt lat="43.426893862342986" lon="10.788912983111986"><ele>191.0</ele><time>2026-04-19T09:50:01Z</time></trkpt><trkpt lat="43.42690479139384" lon="10.78877020818171"><ele>191.0</ele><time>2026-04-19T09:50:02Z</time></trkpt><trkpt lat="43.42690592214689" lon="10.788601033041052"><ele>191.0</ele><time>2026-04-19T09:50:03Z</time></trkpt><trkpt lat="43.42692940705774" lon="10.78842942510928"><ele>191.0</ele><time>2026-04-19T09:50:04Z</time></trkpt><trkpt lat="43.426969984626396" lon="10.78826626629351"><ele>191.0</ele><time>2026-04-19T09:50:05Z</time></trkpt><trkpt lat="43.427034321117745" lon="10.788108190451753"><ele>191.33333333333331</ele><time>2026-04-19T09:50:06Z</time></trkpt><trkpt lat="43.427114183558956" lon="10.787950090864332"><ele>191.66666666666666</ele><time>2026-04-19T09:50:07Z</time></trkpt><trkpt lat="43.42720436067492" lon="10.787791798857116"><ele>192.0</ele><time>2026-04-19T09:50:08Z</time></trkpt><trkpt lat="43.42732362403793" lon="10.787636162524793"><ele>194.5</ele><time>2026-04-19T09:50:09Z</time></trkpt><trkpt lat="43.42743045899854" lon="10.787473090177105"><ele>197.0</ele><time>2026-04-19T09:50:10Z</time></trkpt><trkpt lat="43.427507181502556" lon="10.787323215625017"><ele>199.5</ele><time>2026-04-19T09:50:11Z</time></trkpt><trkpt lat="43.4275836112427" lon="10.787234211590658"><ele>202.0</ele><time>2026-04-19T09:50:12Z</time></trkpt><trkpt lat="43.427641061155605" lon="10.787166408206465"><ele>202.0</ele><time>2026-04-19T09:50:13Z</time></trkpt><trkpt lat="43.427699122628745" lon="10.78712316213505"><ele>202.0</ele><time>2026-04-19T09:50:14Z</time></trkpt><trkpt lat="43.427785149960876" lon="10.787037515881169"><ele>202.0</ele><time>2026-04-19T09:50:16Z</time></trkpt><trkpt lat="43.42791689772813" lon="10.787108951046479"><ele>202.0</ele><time>2026-04-19T09:50:17Z</time></trkpt><trkpt lat="43.42803264444602" lon="10.787032661863076"><ele>202.0</ele><time>2026-04-19T09:50:18Z</time></trkpt><trkpt lat="43.428172928514954" lon="10.786991135055207"><ele>203.0</ele><time>2026-04-19T09:50:19Z</time></trkpt><trkpt lat="43.428305430568024" lon="10.786934463520925"><ele>204.0</ele><time>2026-04-19T09:50:20Z</time></trkpt><trkpt lat="43.428404395062884" lon="10.786868570593926"><ele>205.0</ele><time>2026-04-19T09:50:21Z</time></trkpt><trkpt lat="43.42849399674753" lon="10.786844340872978"><ele>206.0</ele><time>2026-04-19T09:50:22Z</time></trkpt><trkpt lat="43.42857463093464" lon="10.786809852886853"><ele>207.0</ele><time>2026-04-19T09:50:23Z</time></trkpt><trkpt lat="43.42866076663307" lon="10.786812988939486"><ele>207.39999999999998</ele><time>2026-04-19T09:50:24Z</time></trkpt><trkpt lat="43.42873564635656" lon="10.786883214317113"><ele>207.79999999999998</ele><time>2026-04-19T09:50:25Z</time></trkpt><trkpt lat="43.42880996806276" lon="10.786961435392644"><ele>208.2</ele><time>2026-04-19T09:50:26Z</time></trkpt><trkpt lat="43.42889212803575" lon="10.787048983874284"><ele>208.6</ele><time>2026-04-19T09:50:27Z</time></trkpt><trkpt lat="43.4289921237742" lon="10.787155475513922"><ele>209.0</ele><time>2026-04-19T09:50:28Z</time></trkpt><trkpt lat="43.4291011641282" lon="10.787259332193507"><ele>209.75</ele><time>2026-04-19T09:50:29Z</time></trkpt><trkpt lat="43.42920347102314" lon="10.787321865016073"><ele>210.5</ele><time>2026-04-19T09:50:30Z</time></trkpt><trkpt lat="43.42930675491825" lon="10.787369991675542"><ele>211.25</ele><time>2026-04-19T09:50:31Z</time></trkpt><trkpt lat="43.4294506604904" lon="10.78736303376134"><ele>212.0</ele><time>2026-04-19T09:50:32.001Z</time></trkpt><trkpt lat="43.42960671776111" lon="10.787374821689875"><ele>210.5</ele><time>2026-04-19T09:50:33.001Z</time></trkpt><trkpt lat="43.42974914165221" lon="10.787415805210454"><ele>209.0</ele><time>2026-04-19T09:50:34.001Z</time></trkpt><trkpt lat="43.42986978040517" lon="10.787427611716936"><ele>207.5</ele><time>2026-04-19T09:50:35.001Z</time></trkpt><trkpt lat="43.42997509571906" lon="10.787417385189396"><ele>206.0</ele><time>2026-04-19T09:50:36.001Z</time></trkpt><trkpt lat="43.43006760679737" lon="10.787450601223084"><ele>206.0</ele><time>2026-04-19T09:50:37.001Z</time></trkpt><trkpt lat="43.43016713210861" lon="10.787525815036808"><ele>206.0</ele><time>2026-04-19T09:50:38.001Z</time></trkpt><trkpt lat="43.43027985546672" lon="10.787610668391176"><ele>206.0</ele><time>2026-04-19T09:50:39.001Z</time></trkpt><trkpt lat="43.43040896321038" lon="10.787715879496174"><ele>206.0</ele><time>2026-04-19T09:50:40.001Z</time></trkpt><trkpt lat="43.4305439187161" lon="10.787800460505531"><ele>204.20000000000002</ele><time>2026-04-19T09:50:41.001Z</time></trkpt><trkpt lat="43.43064745069174" lon="10.787872368562361"><ele>202.4</ele><time>2026-04-19T09:50:42.001Z</time></trkpt><trkpt lat="43.430742052736804" lon="10.787903670109273"><ele>200.6</ele><time>2026-04-19T09:50:43.001Z</time></trkpt><trkpt lat="43.43084141831185" lon="10.78789747227968"><ele>198.8</ele><time>2026-04-19T09:50:44.001Z</time></trkpt><trkpt lat="43.43096075737558" lon="10.787862264351375"><ele>197.0</ele><time>2026-04-19T09:50:45.001Z</time></trkpt><trkpt lat="43.43111180920535" lon="10.787819336503912"><ele>197.0</ele><time>2026-04-19T09:50:46.001Z</time></trkpt><trkpt lat="43.43127392620278" lon="10.787778597293157"><ele>197.0</ele><time>2026-04-19T09:50:47.001Z</time></trkpt><trkpt lat="43.43144854433636" lon="10.787718810780909"><ele>197.0</ele><time>2026-04-19T09:50:48.001Z</time></trkpt><trkpt lat="43.431603583359234" lon="10.787669033445592"><ele>197.2</ele><time>2026-04-19T09:50:49.001Z</time></trkpt><trkpt lat="43.43172150716163" lon="10.787636563866794"><ele>197.39999999999998</ele><time>2026-04-19T09:50:50.001Z</time></trkpt><trkpt lat="43.43181846776997" lon="10.78760774072456"><ele>197.60000000000002</ele><time>2026-04-19T09:50:51.001Z</time></trkpt><trkpt lat="43.4319145030734" lon="10.787558443646072"><ele>197.8</ele><time>2026-04-19T09:50:52.001Z</time></trkpt><trkpt lat="43.43201416015293" lon="10.787477229439553"><ele>198.0</ele><time>2026-04-19T09:50:53.001Z</time></trkpt><trkpt lat="43.4321058216037" lon="10.787385390222168"><ele>196.60000000000002</ele><time>2026-04-19T09:50:54.001Z</time></trkpt><trkpt lat="43.43218057166321" lon="10.787311816627803"><ele>195.20000000000002</ele><time>2026-04-19T09:50:55.001Z</time></trkpt><trkpt lat="43.43224406588498" lon="10.7872368188026"><ele>193.8</ele><time>2026-04-19T09:50:56.001Z</time></trkpt><trkpt lat="43.432323707528255" lon="10.78715963899756"><ele>192.4</ele><time>2026-04-19T09:50:57.001Z</time></trkpt><trkpt lat="43.43237416976675" lon="10.787017768805443"><ele>191.0</ele><time>2026-04-19T09:50:58.001Z</time></trkpt><trkpt lat="43.432429217060545" lon="10.786906547318873"><ele>191.0</ele><time>2026-04-19T09:50:59.001Z</time></trkpt><trkpt lat="43.43248820323847" lon="10.78679232438229"><ele>191.0</ele><time>2026-04-19T09:51:00.001Z</time></trkpt><trkpt lat="43.43254062084023" lon="10.78669050932338"><ele>191.0</ele><time>2026-04-19T09:51:01.001Z</time></trkpt><trkpt lat="43.43259624710512" lon="10.786569714112348"><ele>191.0</ele><time>2026-04-19T09:51:02.001Z</time></trkpt><trkpt lat="43.432658290725016" lon="10.78645123805061"><ele>191.0</ele><time>2026-04-19T09:51:03.001Z</time></trkpt><trkpt lat="43.4327493371827" lon="10.78635926177466"><ele>191.0</ele><time>2026-04-19T09:51:04.001Z</time></trkpt><trkpt lat="43.43282282853385" lon="10.786245895901766"><ele>191.0</ele><time>2026-04-19T09:51:05.001Z</time></trkpt><trkpt lat="43.43290062910002" lon="10.786149525880703"><ele>191.0</ele><time>2026-04-19T09:51:06.001Z</time></trkpt><trkpt lat="43.43297307191012" lon="10.78605614872139"><ele>191.0</ele><time>2026-04-19T09:51:07.001Z</time></trkpt><trkpt lat="43.43305395612369" lon="10.785959985892008"><ele>191.0</ele><time>2026-04-19T09:51:08.001Z</time></trkpt><trkpt lat="43.43312645074436" lon="10.785868091326119"><ele>189.5</ele><time>2026-04-19T09:51:09Z</time></trkpt><trkpt lat="43.43320669259615" lon="10.785763712686352"><ele>188.0</ele><time>2026-04-19T09:51:10Z</time></trkpt><trkpt lat="43.43329498708492" lon="10.785646555124224"><ele>186.5</ele><time>2026-04-19T09:51:11Z</time></trkpt><trkpt lat="43.43339228315546" lon="10.78552903453229"><ele>185.0</ele><time>2026-04-19T09:51:12Z</time></trkpt><trkpt lat="43.43349847088779" lon="10.785420406051085"><ele>185.0</ele><time>2026-04-19T09:51:13Z</time></trkpt><trkpt lat="43.43360912833259" lon="10.785320848877236"><ele>185.0</ele><time>2026-04-19T09:51:14Z</time></trkpt><trkpt lat="43.43371351492471" lon="10.785227840685813"><ele>185.0</ele><time>2026-04-19T09:51:15Z</time></trkpt><trkpt lat="43.43381347467944" lon="10.785132477041927"><ele>185.0</ele><time>2026-04-19T09:51:16Z</time></trkpt><trkpt lat="43.43390734804335" lon="10.78503974146864"><ele>182.6</ele><time>2026-04-19T09:51:17Z</time></trkpt><trkpt lat="43.43400284273178" lon="10.784948847639448"><ele>180.2</ele><time>2026-04-19T09:51:18Z</time></trkpt><trkpt lat="43.43408935659036" lon="10.784864648143692"><ele>177.8</ele><time>2026-04-19T09:51:19Z</time></trkpt><trkpt lat="43.434170816685004" lon="10.784761342477738"><ele>175.4</ele><time>2026-04-19T09:51:20Z</time></trkpt><trkpt lat="43.43424413282505" lon="10.784642245443147"><ele>173.0</ele><time>2026-04-19T09:51:21Z</time></trkpt><trkpt lat="43.43432687712774" lon="10.784512879223065"><ele>173.0</ele><time>2026-04-19T09:51:22Z</time></trkpt><trkpt lat="43.434402846278836" lon="10.784373025156537"><ele>173.0</ele><time>2026-04-19T09:51:23Z</time></trkpt><trkpt lat="43.434489146007806" lon="10.7842161480802"><ele>173.0</ele><time>2026-04-19T09:51:24Z</time></trkpt><trkpt lat="43.434582301536764" lon="10.784056636469916"><ele>173.0</ele><time>2026-04-19T09:51:25Z</time></trkpt><trkpt lat="43.43468467110896" lon="10.783894671529561"><ele>171.0</ele><time>2026-04-19T09:51:26Z</time></trkpt><trkpt lat="43.43479032173566" lon="10.783724869405836"><ele>169.0</ele><time>2026-04-19T09:51:27Z</time></trkpt><trkpt lat="43.4348981651578" lon="10.783544418873959"><ele>167.0</ele><time>2026-04-19T09:51:28Z</time></trkpt><trkpt lat="43.43500600115227" lon="10.783363081369215"><ele>167.0</ele><time>2026-04-19T09:51:29Z</time></trkpt><trkpt lat="43.43510554986825" lon="10.783193627397418"><ele>167.0</ele><time>2026-04-19T09:51:30Z</time></trkpt><trkpt lat="43.43519900353561" lon="10.783024220516314"><ele>167.0</ele><time>2026-04-19T09:51:31Z</time></trkpt><trkpt lat="43.43528547157856" lon="10.782838931738965"><ele>166.66666666666666</ele><time>2026-04-19T09:51:32Z</time></trkpt><trkpt lat="43.43536265065534" lon="10.782643625524296"><ele>166.33333333333334</ele><time>2026-04-19T09:51:33Z</time></trkpt><trkpt lat="43.435435718149705" lon="10.782465885893956"><ele>166.0</ele><time>2026-04-19T09:51:34Z</time></trkpt><trkpt lat="43.4355146128158" lon="10.782290752994669"><ele>166.75</ele><time>2026-04-19T09:51:35Z</time></trkpt><trkpt lat="43.43561333778535" lon="10.782163725099874"><ele>167.5</ele><time>2026-04-19T09:51:36Z</time></trkpt><trkpt lat="43.4356948484694" lon="10.78202130039109"><ele>168.25</ele><time>2026-04-19T09:51:37Z</time></trkpt><trkpt lat="43.43581195472409" lon="10.781888664199222"><ele>169.0</ele><time>2026-04-19T09:51:38Z</time></trkpt><trkpt lat="43.43594119674486" lon="10.78174851359019"><ele>169.0</ele><time>2026-04-19T09:51:39Z</time></trkpt><trkpt lat="43.4360692097291" lon="10.781597638201937"><ele>169.0</ele><time>2026-04-19T09:51:40Z</time></trkpt><trkpt lat="43.43619272308604" lon="10.781446205013053"><ele>169.0</ele><time>2026-04-19T09:51:41Z</time></trkpt><trkpt lat="43.43631364890642" lon="10.781290516321338"><ele>167.33333333333334</ele><time>2026-04-19T09:51:42Z</time></trkpt><trkpt lat="43.436438843900795" lon="10.78114162177139"><ele>165.66666666666666</ele><time>2026-04-19T09:51:43Z</time></trkpt><trkpt lat="43.436555930084104" lon="10.780989460085804"><ele>164.0</ele><time>2026-04-19T09:51:44Z</time></trkpt><trkpt lat="43.43666757166461" lon="10.780825729736312"><ele>164.0</ele><time>2026-04-19T09:51:45Z</time></trkpt><trkpt lat="43.436785158770455" lon="10.780639991485888"><ele>164.0</ele><time>2026-04-19T09:51:46Z</time></trkpt><trkpt lat="43.43689303245432" lon="10.780469822896386"><ele>164.0</ele><time>2026-04-19T09:51:47Z</time></trkpt><trkpt lat="43.436985118681264" lon="10.780331557837274"><ele>164.0</ele><time>2026-04-19T09:51:48Z</time></trkpt><trkpt lat="43.43706064974623" lon="10.780203831059211"><ele>164.0</ele><time>2026-04-19T09:51:49Z</time></trkpt><trkpt lat="43.43713551993879" lon="10.78011654658797"><ele>164.0</ele><time>2026-04-19T09:51:50Z</time></trkpt><trkpt lat="43.43720949173443" lon="10.78001698082527"><ele>164.0</ele><time>2026-04-19T09:51:51Z</time></trkpt><trkpt lat="43.437295524634074" lon="10.779944185589645"><ele>164.0</ele><time>2026-04-19T09:51:52Z</time></trkpt><trkpt lat="43.4373780969148" lon="10.779898165409397"><ele>162.6</ele><time>2026-04-19T09:51:53Z</time></trkpt><trkpt lat="43.43746116486164" lon="10.779856962860562"><ele>161.2</ele><time>2026-04-19T09:51:54Z</time></trkpt><trkpt lat="43.43755350579319" lon="10.779911366581334"><ele>159.79999999999998</ele><time>2026-04-19T09:51:55Z</time></trkpt><trkpt lat="43.437640231993136" lon="10.779960024767734"><ele>158.39999999999998</ele><time>2026-04-19T09:51:56Z</time></trkpt><trkpt lat="43.4377391874975" lon="10.780015944238487"><ele>157.0</ele><time>2026-04-19T09:51:57Z</time></trkpt><trkpt lat="43.43784099438417" lon="10.780073649049417"><ele>157.0</ele><time>2026-04-19T09:51:58Z</time></trkpt><trkpt lat="43.43794439005022" lon="10.780112609066936"><ele>157.0</ele><time>2026-04-19T09:51:59Z</time></trkpt><trkpt lat="43.438041659692225" lon="10.780173312197558"><ele>157.0</ele><time>2026-04-19T09:52:00Z</time></trkpt><trkpt lat="43.43814153259282" lon="10.780227809619323"><ele>157.0</ele><time>2026-04-19T09:52:01Z</time></trkpt><trkpt lat="43.43824297729635" lon="10.780286278460066"><ele>157.0</ele><time>2026-04-19T09:52:02Z</time></trkpt><trkpt lat="43.438345415647845" lon="10.780354115123728"><ele>156.2</ele><time>2026-04-19T09:52:03Z</time></trkpt><trkpt lat="43.438443221597" lon="10.780415114235362"><ele>155.39999999999998</ele><time>2026-04-19T09:52:04Z</time></trkpt><trkpt lat="43.43853959756647" lon="10.780468918165397"><ele>154.60000000000002</ele><time>2026-04-19T09:52:05Z</time></trkpt><trkpt lat="43.43863329768858" lon="10.780523064079631"><ele>153.8</ele><time>2026-04-19T09:52:06Z</time></trkpt><trkpt lat="43.43873274932853" lon="10.780581777307011"><ele>153.0</ele><time>2026-04-19T09:52:07Z</time></trkpt><trkpt lat="43.438833465114044" lon="10.780638602692516"><ele>152.8</ele><time>2026-04-19T09:52:08Z</time></trkpt><trkpt lat="43.43892116348308" lon="10.780684206528795"><ele>152.60000000000002</ele><time>2026-04-19T09:52:09Z</time></trkpt><trkpt lat="43.439009565856914" lon="10.780717193365977"><ele>152.39999999999998</ele><time>2026-04-19T09:52:10Z</time></trkpt><trkpt lat="43.43909096492321" lon="10.780738271960445"><ele>152.2</ele><time>2026-04-19T09:52:11Z</time></trkpt><trkpt lat="43.439194590534925" lon="10.780755018682223"><ele>152.0</ele><time>2026-04-19T09:52:12Z</time></trkpt><trkpt lat="43.439326902608784" lon="10.78076189234669"><ele>152.0</ele><time>2026-04-19T09:52:13Z</time></trkpt><trkpt lat="43.43948171131711" lon="10.780776657800255"><ele>152.0</ele><time>2026-04-19T09:52:14Z</time></trkpt><trkpt lat="43.439642940693574" lon="10.780789503672915"><ele>152.0</ele><time>2026-04-19T09:52:15Z</time></trkpt><trkpt lat="43.43980544550038" lon="10.780802760156886"><ele>151.0</ele><time>2026-04-19T09:52:16Z</time></trkpt><trkpt lat="43.43997617694619" lon="10.780811094041571"><ele>150.0</ele><time>2026-04-19T09:52:17Z</time></trkpt><trkpt lat="43.44016555580956" lon="10.780830735003388"><ele>149.0</ele><time>2026-04-19T09:52:18Z</time></trkpt><trkpt lat="43.44035327563258" lon="10.780844154480482"><ele>150.33333333333331</ele><time>2026-04-19T09:52:19Z</time></trkpt><trkpt lat="43.44052059961334" lon="10.780861498049639"><ele>151.66666666666666</ele><time>2026-04-19T09:52:20Z</time></trkpt><trkpt lat="43.44068170671632" lon="10.780880401426115"><ele>153.0</ele><time>2026-04-19T09:52:21Z</time></trkpt><trkpt lat="43.44082517577749" lon="10.78089976837533"><ele>153.0</ele><time>2026-04-19T09:52:22Z</time></trkpt><trkpt lat="43.440950524574205" lon="10.78091133758655"><ele>153.0</ele><time>2026-04-19T09:52:23Z</time></trkpt><trkpt lat="43.44106462239002" lon="10.780920281882999"><ele>153.0</ele><time>2026-04-19T09:52:24Z</time></trkpt><trkpt lat="43.44116438920553" lon="10.78093287969657"><ele>153.0</ele><time>2026-04-19T09:52:25Z</time></trkpt><trkpt lat="43.44125268109585" lon="10.78093620256782"><ele>153.0</ele><time>2026-04-19T09:52:26Z</time></trkpt><trkpt lat="43.441333422764956" lon="10.780934404384707"><ele>153.66666666666666</ele><time>2026-04-19T09:52:27Z</time></trkpt><trkpt lat="43.44140226713747" lon="10.780919683957933"><ele>154.33333333333334</ele><time>2026-04-19T09:52:28Z</time></trkpt><trkpt lat="43.44149574417888" lon="10.78084664546984"><ele>155.0</ele><time>2026-04-19T09:52:30Z</time></trkpt><trkpt lat="43.441577225048654" lon="10.780759265584619"><ele>155.66666666666669</ele><time>2026-04-19T09:52:32.001Z</time></trkpt><trkpt lat="43.441645023813955" lon="10.78072330450516"><ele>156.33333333333334</ele><time>2026-04-19T09:52:33.001Z</time></trkpt><trkpt lat="43.44172240270752" lon="10.780650715844008"><ele>157.0</ele><time>2026-04-19T09:52:34.001Z</time></trkpt><trkpt lat="43.44180885711527" lon="10.780579069086016"><ele>157.0</ele><time>2026-04-19T09:52:35.001Z</time></trkpt><trkpt lat="43.44187018972914" lon="10.780506251873396"><ele>157.0</ele><time>2026-04-19T09:52:36.001Z</time></trkpt><trkpt lat="43.44194091201514" lon="10.780507431797425"><ele>157.0</ele><time>2026-04-19T09:52:37.001Z</time></trkpt><trkpt lat="43.44208032626948" lon="10.78052103493086"><ele>157.0</ele><time>2026-04-19T09:52:39.001Z</time></trkpt><trkpt lat="43.44217648029739" lon="10.780581711659451"><ele>157.0</ele><time>2026-04-19T09:52:40.001Z</time></trkpt><trkpt lat="43.44226422095224" lon="10.780643003953651"><ele>155.0</ele><time>2026-04-19T09:52:41.001Z</time></trkpt><trkpt lat="43.44233207351286" lon="10.780684698237026"><ele>153.0</ele><time>2026-04-19T09:52:42.001Z</time></trkpt><trkpt lat="43.44242880481801" lon="10.780762417255863"><ele>151.0</ele><time>2026-04-19T09:52:44.001Z</time></trkpt><trkpt lat="43.4425539805053" lon="10.780799806885916"><ele>149.0</ele><time>2026-04-19T09:52:46.001Z</time></trkpt><trkpt lat="43.4426477132674" lon="10.78078310902133"><ele>147.0</ele><time>2026-04-19T09:52:47.001Z</time></trkpt><trkpt lat="43.44273698597004" lon="10.780714339299337"><ele>147.0</ele><time>2026-04-19T09:52:48.001Z</time></trkpt><trkpt lat="43.44282550156543" lon="10.780600067774355"><ele>147.0</ele><time>2026-04-19T09:52:49.001Z</time></trkpt><trkpt lat="43.44292325051832" lon="10.780477430064543"><ele>147.0</ele><time>2026-04-19T09:52:50.001Z</time></trkpt><trkpt lat="43.44302987638958" lon="10.780357998778756"><ele>147.0</ele><time>2026-04-19T09:52:51.001Z</time></trkpt><trkpt lat="43.4431460542273" lon="10.78023533032462"><ele>144.0</ele><time>2026-04-19T09:52:52.001Z</time></trkpt><trkpt lat="43.4432655246835" lon="10.780099102292684"><ele>141.0</ele><time>2026-04-19T09:52:53.001Z</time></trkpt><trkpt lat="43.44339392640775" lon="10.780002283894277"><ele>138.0</ele><time>2026-04-19T09:52:54.001Z</time></trkpt><trkpt lat="43.44350688536179" lon="10.779863757273072"><ele>138.0</ele><time>2026-04-19T09:52:55.001Z</time></trkpt><trkpt lat="43.44362563424371" lon="10.779760199977453"><ele>138.0</ele><time>2026-04-19T09:52:56.001Z</time></trkpt><trkpt lat="43.443729144574434" lon="10.779642604329183"><ele>138.0</ele><time>2026-04-19T09:52:57.001Z</time></trkpt><trkpt lat="43.44384270843772" lon="10.7795218020288"><ele>138.0</ele><time>2026-04-19T09:52:58.001Z</time></trkpt><trkpt lat="43.44396496008544" lon="10.779398128918526"><ele>136.25</ele><time>2026-04-19T09:52:59.001Z</time></trkpt><trkpt lat="43.444084681604394" lon="10.779277286874205"><ele>134.5</ele><time>2026-04-19T09:53:00.001Z</time></trkpt><trkpt lat="43.444191792533324" lon="10.77917605160371"><ele>132.75</ele><time>2026-04-19T09:53:01.001Z</time></trkpt><trkpt lat="43.444302774961784" lon="10.779105089054605"><ele>131.0</ele><time>2026-04-19T09:53:02.001Z</time></trkpt><trkpt lat="43.44439099402398" lon="10.779013847196692"><ele>131.0</ele><time>2026-04-19T09:53:03.001Z</time></trkpt><trkpt lat="43.444479599868" lon="10.778944754484328"><ele>131.0</ele><time>2026-04-19T09:53:04.001Z</time></trkpt><trkpt lat="43.44456995308304" lon="10.77890768856502"><ele>131.0</ele><time>2026-04-19T09:53:05.001Z</time></trkpt><trkpt lat="43.44465437433601" lon="10.778851129166563"><ele>131.0</ele><time>2026-04-19T09:53:06.001Z</time></trkpt><trkpt lat="43.444740599131265" lon="10.778780719169207"><ele>131.0</ele><time>2026-04-19T09:53:07.001Z</time></trkpt><trkpt lat="43.444820137702976" lon="10.778686950955777"><ele>129.25</ele><time>2026-04-19T09:53:08.001Z</time></trkpt><trkpt lat="43.44491310181918" lon="10.778608729854552"><ele>127.5</ele><time>2026-04-19T09:53:09.001Z</time></trkpt><trkpt lat="43.44501602811532" lon="10.778525218745001"><ele>125.75</ele><time>2026-04-19T09:53:10.001Z</time></trkpt><trkpt lat="43.44511737639204" lon="10.778442977987208"><ele>124.0</ele><time>2026-04-19T09:53:11.001Z</time></trkpt><trkpt lat="43.445212130370926" lon="10.778366693167968"><ele>123.6</ele><time>2026-04-19T09:53:12.001Z</time></trkpt><trkpt lat="43.44530444978022" lon="10.778295787345373"><ele>123.2</ele><time>2026-04-19T09:53:13.001Z</time></trkpt><trkpt lat="43.4453830213571" lon="10.778254556028338"><ele>122.79999999999998</ele><time>2026-04-19T09:53:14.001Z</time></trkpt><trkpt lat="43.445461900201764" lon="10.778253724199375"><ele>122.39999999999999</ele><time>2026-04-19T09:53:15Z</time></trkpt><trkpt lat="43.445550209069005" lon="10.77829780526796"><ele>122.0</ele><time>2026-04-19T09:53:16Z</time></trkpt><trkpt lat="43.445663147612976" lon="10.778318590203705"><ele>121.5</ele><time>2026-04-19T09:53:17Z</time></trkpt><trkpt lat="43.44578296197596" lon="10.778386355373764"><ele>121.0</ele><time>2026-04-19T09:53:18Z</time></trkpt><trkpt lat="43.44592843796299" lon="10.778456983698042"><ele>120.5</ele><time>2026-04-19T09:53:19Z</time></trkpt><trkpt lat="43.44608316230735" lon="10.778520995546284"><ele>120.0</ele><time>2026-04-19T09:53:20Z</time></trkpt><trkpt lat="43.446237112096064" lon="10.778588817142149"><ele>120.75</ele><time>2026-04-19T09:53:21Z</time></trkpt><trkpt lat="43.44637863417574" lon="10.778669479829155"><ele>121.5</ele><time>2026-04-19T09:53:22Z</time></trkpt><trkpt lat="43.446507863273375" lon="10.77871582170732"><ele>122.25</ele><time>2026-04-19T09:53:23Z</time></trkpt><trkpt lat="43.44662523608154" lon="10.778735446688145"><ele>123.0</ele><time>2026-04-19T09:53:24Z</time></trkpt><trkpt lat="43.44675250263619" lon="10.778723114577948"><ele>123.0</ele><time>2026-04-19T09:53:25Z</time></trkpt><trkpt lat="43.446874100024814" lon="10.778720720859384"><ele>123.0</ele><time>2026-04-19T09:53:26Z</time></trkpt><trkpt lat="43.44700129997074" lon="10.778726623230625"><ele>123.0</ele><time>2026-04-19T09:53:27Z</time></trkpt><trkpt lat="43.44715137647222" lon="10.778758970037591"><ele>123.0</ele><time>2026-04-19T09:53:28Z</time></trkpt><trkpt lat="43.44731720080987" lon="10.778816332312475"><ele>123.75</ele><time>2026-04-19T09:53:29Z</time></trkpt><trkpt lat="43.44747706582837" lon="10.778873145807195"><ele>124.5</ele><time>2026-04-19T09:53:30Z</time></trkpt><trkpt lat="43.447607409786166" lon="10.778930911671319"><ele>125.25</ele><time>2026-04-19T09:53:31Z</time></trkpt><trkpt lat="43.44770686584095" lon="10.778973492923505"><ele>126.0</ele><time>2026-04-19T09:53:32Z</time></trkpt><trkpt lat="43.44780314105259" lon="10.779008721907093"><ele>126.0</ele><time>2026-04-19T09:53:33Z</time></trkpt><trkpt lat="43.447909335736355" lon="10.779016440782659"><ele>126.0</ele><time>2026-04-19T09:53:34Z</time></trkpt><trkpt lat="43.44802654636105" lon="10.778985535641318"><ele>126.0</ele><time>2026-04-19T09:53:35Z</time></trkpt><trkpt lat="43.44815864836089" lon="10.778935719768688"><ele>126.0</ele><time>2026-04-19T09:53:36Z</time></trkpt><trkpt lat="43.448302294618884" lon="10.778884550056494"><ele>123.33333333333334</ele><time>2026-04-19T09:53:37Z</time></trkpt><trkpt lat="43.44845408757233" lon="10.778826377651713"><ele>120.66666666666667</ele><time>2026-04-19T09:53:38Z</time></trkpt><trkpt lat="43.44861823688141" lon="10.778764666536006"><ele>118.0</ele><time>2026-04-19T09:53:39Z</time></trkpt><trkpt lat="43.448772073971014" lon="10.778731535145408"><ele>118.0</ele><time>2026-04-19T09:53:40Z</time></trkpt><trkpt lat="43.448890405925816" lon="10.778669468318801"><ele>113.0</ele><time>2026-04-19T09:53:41Z</time></trkpt><trkpt lat="43.44899208544366" lon="10.778659063601825"><ele>113.0</ele><time>2026-04-19T09:53:42Z</time></trkpt><trkpt lat="43.449069795604665" lon="10.77863346587998"><ele>113.0</ele><time>2026-04-19T09:53:43Z</time></trkpt><trkpt lat="43.4491651076659" lon="10.778582659635033"><ele>113.0</ele><time>2026-04-19T09:53:45Z</time></trkpt></trkseg><trkseg><trkpt lat="43.451934267051314" lon="10.778435720950108"><ele>132.0</ele><time>2026-04-19T09:59:11.001Z</time></trkpt><trkpt lat="43.452021011047854" lon="10.778437277801316"><ele>132.0</ele><time>2026-04-19T09:59:12.001Z</time></trkpt><trkpt lat="43.452105389534786" lon="10.778397206556077"><ele>132.0</ele><time>2026-04-19T09:59:14.001Z</time></trkpt><trkpt lat="43.45218267509376" lon="10.778342015384549"><ele>132.0</ele><time>2026-04-19T09:59:16.001Z</time></trkpt><trkpt lat="43.452242896932596" lon="10.778270680467392"><ele>132.0</ele><time>2026-04-19T09:59:18.001Z</time></trkpt><trkpt lat="43.452301779802376" lon="10.77822860331347"><ele>132.0</ele><time>2026-04-19T09:59:20.001Z</time></trkpt><trkpt lat="43.452361590137855" lon="10.77819233900943"><ele>130.83333333333334</ele><time>2026-04-19T09:59:22Z</time></trkpt><trkpt lat="43.452444831836445" lon="10.778186566457936"><ele>129.66666666666666</ele><time>2026-04-19T09:59:25Z</time></trkpt><trkpt lat="43.45245768004811" lon="10.778289612068901"><ele>128.5</ele><time>2026-04-19T09:59:28Z</time></trkpt><trkpt lat="43.45245797300221" lon="10.778430022530967"><ele>127.33333333333333</ele><time>2026-04-19T09:59:30Z</time></trkpt><trkpt lat="43.452457433195235" lon="10.778561087672479"><ele>126.16666666666666</ele><time>2026-04-19T09:59:32Z</time></trkpt><trkpt lat="43.452459375027665" lon="10.77868477919813"><ele>125.0</ele><time>2026-04-19T09:59:34Z</time></trkpt><trkpt lat="43.45246531970708" lon="10.778797502599561"><ele>125.0</ele><time>2026-04-19T09:59:36Z</time></trkpt><trkpt lat="43.45247902835587" lon="10.778931965172129"><ele>125.0</ele><time>2026-04-19T09:59:38Z</time></trkpt><trkpt lat="43.452500437288165" lon="10.779081162037508"><ele>125.0</ele><time>2026-04-19T09:59:40Z</time></trkpt><trkpt lat="43.45253871593113" lon="10.779205177010496"><ele>125.0</ele><time>2026-04-19T09:59:42Z</time></trkpt><trkpt lat="43.452569457456626" lon="10.77934349258644"><ele>125.0</ele><time>2026-04-19T09:59:44Z</time></trkpt><trkpt lat="43.45259643497181" lon="10.779479658427086"><ele>126.4</ele><time>2026-04-19T09:59:46Z</time></trkpt><trkpt lat="43.452639138668154" lon="10.779588368340761"><ele>127.8</ele><time>2026-04-19T09:59:48Z</time></trkpt><trkpt lat="43.45268023565464" lon="10.779691912583674"><ele>129.2</ele><time>2026-04-19T09:59:50Z</time></trkpt><trkpt lat="43.452733670927174" lon="10.779809712238425"><ele>130.6</ele><time>2026-04-19T09:59:52Z</time></trkpt><trkpt lat="43.452786245154975" lon="10.779924366339214"><ele>132.0</ele><time>2026-04-19T09:59:54Z</time></trkpt><trkpt lat="43.45284119884545" lon="10.780048703605898"><ele>132.0</ele><time>2026-04-19T09:59:56Z</time></trkpt><trkpt lat="43.45289551745797" lon="10.780167321808312"><ele>132.0</ele><time>2026-04-19T09:59:58Z</time></trkpt><trkpt lat="43.45293635867201" lon="10.780280801998742"><ele>132.0</ele><time>2026-04-19T10:00:00Z</time></trkpt><trkpt lat="43.45297517973772" lon="10.780394909808383"><ele>132.0</ele><time>2026-04-19T10:00:02Z</time></trkpt><trkpt lat="43.45301369381246" lon="10.780496733042881"><ele>132.0</ele><time>2026-04-19T10:00:04Z</time></trkpt><trkpt lat="43.45305836567339" lon="10.780597940688876"><ele>131.2</ele><time>2026-04-19T10:00:06Z</time></trkpt><trkpt lat="43.453109251110135" lon="10.780712393413987"><ele>130.39999999999998</ele><time>2026-04-19T10:00:08Z</time></trkpt><trkpt lat="43.45317228115935" lon="10.780830452629395"><ele>129.60000000000002</ele><time>2026-04-19T10:00:10.001Z</time></trkpt><trkpt lat="43.45323557764944" lon="10.780930367057296"><ele>128.8</ele><time>2026-04-19T10:00:12.001Z</time></trkpt><trkpt lat="43.45328772174926" lon="10.780995791469124"><ele>128.0</ele><time>2026-04-19T10:00:14.001Z</time></trkpt><trkpt lat="43.4533607967158" lon="10.781066668458399"><ele>128.0</ele><time>2026-04-19T10:00:16.001Z</time></trkpt><trkpt lat="43.45345919557719" lon="10.781123889622922"><ele>128.0</ele><time>2026-04-19T10:00:18.001Z</time></trkpt><trkpt lat="43.45357107547661" lon="10.781173191523557"><ele>128.0</ele><time>2026-04-19T10:00:20.001Z</time></trkpt><trkpt lat="43.453689351934166" lon="10.781212696312036"><ele>128.0</ele><time>2026-04-19T10:00:22.001Z</time></trkpt><trkpt lat="43.45379782575814" lon="10.781247372307014"><ele>126.25</ele><time>2026-04-19T10:00:24.001Z</time></trkpt><trkpt lat="43.45390828644005" lon="10.781279990196808"><ele>124.5</ele><time>2026-04-19T10:00:26.001Z</time></trkpt><trkpt lat="43.4540231875797" lon="10.7813169231551"><ele>122.75</ele><time>2026-04-19T10:00:28.001Z</time></trkpt><trkpt lat="43.45414137973112" lon="10.781337324165042"><ele>121.0</ele><time>2026-04-19T10:00:30.001Z</time></trkpt><trkpt lat="43.45426055378316" lon="10.781345668829784"><ele>121.0</ele><time>2026-04-19T10:00:32.001Z</time></trkpt><trkpt lat="43.454378158578166" lon="10.78135679270398"><ele>121.0</ele><time>2026-04-19T10:00:34.001Z</time></trkpt><trkpt lat="43.45450020872654" lon="10.781354322839293"><ele>121.0</ele><time>2026-04-19T10:00:36.001Z</time></trkpt><trkpt lat="43.4546084754285" lon="10.781306807890585"><ele>121.0</ele><time>2026-04-19T10:00:38.001Z</time></trkpt><trkpt lat="43.454700596015556" lon="10.781247854091593"><ele>120.19999999999999</ele><time>2026-04-19T10:00:40.001Z</time></trkpt><trkpt lat="43.45479537330907" lon="10.781157222506186"><ele>119.39999999999999</ele><time>2026-04-19T10:00:42.001Z</time></trkpt><trkpt lat="43.45489108884019" lon="10.781081168309973"><ele>118.6</ele><time>2026-04-19T10:00:44.001Z</time></trkpt><trkpt lat="43.45497048308092" lon="10.780999123067206"><ele>117.8</ele><time>2026-04-19T10:00:46.001Z</time></trkpt><trkpt lat="43.455056534830746" lon="10.780901767615783"><ele>117.0</ele><time>2026-04-19T10:00:48.001Z</time></trkpt><trkpt lat="43.45513700146242" lon="10.780792298573802"><ele>115.16666666666667</ele><time>2026-04-19T10:00:50.001Z</time></trkpt><trkpt lat="43.45524157633352" lon="10.780721058724353"><ele>113.33333333333334</ele><time>2026-04-19T10:00:52.001Z</time></trkpt><trkpt lat="43.45536395238069" lon="10.780720449243102"><ele>111.5</ele><time>2026-04-19T10:00:54.001Z</time></trkpt><trkpt lat="43.45542719233085" lon="10.78074399747642"><ele>109.66666666666667</ele><time>2026-04-19T10:00:55.001Z</time></trkpt><trkpt lat="43.45548774743738" lon="10.78077987466791"><ele>107.83333333333334</ele><time>2026-04-19T10:00:56.001Z</time></trkpt><trkpt lat="43.455545789479054" lon="10.78081403072703"><ele>106.0</ele><time>2026-04-19T10:00:57.001Z</time></trkpt><trkpt lat="43.45560446771163" lon="10.780849535276225"><ele>106.0</ele><time>2026-04-19T10:00:58.001Z</time></trkpt><trkpt lat="43.4557170249407" lon="10.780922780577017"><ele>106.0</ele><time>2026-04-19T10:01:00.001Z</time></trkpt><trkpt lat="43.455831936106776" lon="10.780985195596363"><ele>106.0</ele><time>2026-04-19T10:01:02.001Z</time></trkpt><trkpt lat="43.455892517938935" lon="10.781016118986365"><ele>106.0</ele><time>2026-04-19T10:01:03.001Z</time></trkpt><trkpt lat="43.45600146924155" lon="10.781072301018089"><ele>106.0</ele><time>2026-04-19T10:01:05.001Z</time></trkpt><trkpt lat="43.45610124896067" lon="10.781121323778002"><ele>106.0</ele><time>2026-04-19T10:01:07.001Z</time></trkpt><trkpt lat="43.456203370453714" lon="10.781181322185228"><ele>106.0</ele><time>2026-04-19T10:01:09.001Z</time></trkpt><trkpt lat="43.45629639144709" lon="10.781265851540063"><ele>106.0</ele><time>2026-04-19T10:01:11.001Z</time></trkpt><trkpt lat="43.45636069891604" lon="10.781387136434244"><ele>106.0</ele><time>2026-04-19T10:01:13.001Z</time></trkpt><trkpt lat="43.456392824803935" lon="10.781508640044336"><ele>106.0</ele><time>2026-04-19T10:01:15.001Z</time></trkpt><trkpt lat="43.456432344891496" lon="10.781640396387044"><ele>102.4</ele><time>2026-04-19T10:01:17.001Z</time></trkpt><trkpt lat="43.456517711743544" lon="10.781737655233192"><ele>98.8</ele><time>2026-04-19T10:01:19.001Z</time></trkpt><trkpt lat="43.45662897469319" lon="10.78178726564393"><ele>95.2</ele><time>2026-04-19T10:01:20.999Z</time></trkpt><trkpt lat="43.456756258116904" lon="10.781782435368926"><ele>91.60000000000001</ele><time>2026-04-19T10:01:22.999Z</time></trkpt><trkpt lat="43.45682294426456" lon="10.78178525177394"><ele>88.0</ele><time>2026-04-19T10:01:23.999Z</time></trkpt><trkpt lat="43.45689045832768" lon="10.781789465712391"><ele>88.0</ele><time>2026-04-19T10:01:24.999Z</time></trkpt><trkpt lat="43.45695877613484" lon="10.78179556213548"><ele>88.0</ele><time>2026-04-19T10:01:26Z</time></trkpt><trkpt lat="43.45702948573273" lon="10.781808163075702"><ele>88.0</ele><time>2026-04-19T10:01:26.999Z</time></trkpt><trkpt lat="43.457093565589055" lon="10.781815644416382"><ele>88.0</ele><time>2026-04-19T10:01:27.999Z</time></trkpt><trkpt lat="43.45715782317781" lon="10.781820310383642"><ele>88.0</ele><time>2026-04-19T10:01:29Z</time></trkpt><trkpt lat="43.45722718057507" lon="10.7818254932284"><ele>88.0</ele><time>2026-04-19T10:01:30Z</time></trkpt><trkpt lat="43.45729312278081" lon="10.781826464905146"><ele>88.0</ele><time>2026-04-19T10:01:31Z</time></trkpt><trkpt lat="43.45741548834194" lon="10.78183879131763"><ele>86.0</ele><time>2026-04-19T10:01:33Z</time></trkpt><trkpt lat="43.45750668813316" lon="10.781893242037677"><ele>83.0</ele><time>2026-04-19T10:01:35Z</time></trkpt><trkpt lat="43.45756677228898" lon="10.78197846283485"><ele>83.0</ele><time>2026-04-19T10:01:37Z</time></trkpt></trkseg></trk></gpx>